<?xml version='1.0' encoding='UTF-8'?><gpx version="1.1" creator="JPX - https://github.com/jenetics/jpx" xmlns="http://www.topografix.com/GPX/1/1"><trk><trkseg><trkpt lat="44.6452657" lon="7.862075"><ele>289.0</ele><time>2026-04-26T08:28:22.254Z</time></trkpt><trkpt lat="44.645418" lon="7.8612701"><ele>289.0</ele><time>2026-04-26T08:28:33.705Z</time></trkpt><trkpt lat="44.6459962" lon="7.8612668"><ele>289.0</ele><time>2026-04-26T08:28:36.274Z</time></trkpt><trkpt lat="44.646022" lon="7.8611737"><ele>289.0</ele><time>2026-04-26T08:28:37.272Z</time></trkpt><trkpt lat="44.6460365" lon="7.8610707"><ele>289.0</ele><time>2026-04-26T08:28:38.273Z</time></trkpt><trkpt lat="44.6460413" lon="7.860962"><ele>289.0</ele><time>2026-04-26T08:28:39.272Z</time></trkpt><trkpt lat="44.6460437" lon="7.860849"><ele>289.0</ele><time>2026-04-26T08:28:40.272Z</time></trkpt><trkpt lat="44.6460442" lon="7.860733"><ele>289.0</ele><time>2026-04-26T08:28:41.275Z</time></trkpt><trkpt lat="44.6460433" lon="7.8606125"><ele>289.0</ele><time>2026-04-26T08:28:42.274Z</time></trkpt><trkpt lat="44.6460396" lon="7.8604882"><ele>289.0</ele><time>2026-04-26T08:28:43.274Z</time></trkpt><trkpt lat="44.646035" lon="7.8603593"><ele>289.0</ele><time>2026-04-26T08:28:44.275Z</time></trkpt><trkpt lat="44.6460328" lon="7.8602233"><ele>289.0</ele><time>2026-04-26T08:28:45.274Z</time></trkpt><trkpt lat="44.6460305" lon="7.8600799"><ele>289.0</ele><time>2026-04-26T08:28:46.275Z</time></trkpt><trkpt lat="44.6460222" lon="7.8599098"><ele>289.0</ele><time>2026-04-26T08:28:47.275Z</time></trkpt><trkpt lat="44.6460188" lon="7.8597461"><ele>289.0</ele><time>2026-04-26T08:28:48.277Z</time></trkpt><trkpt lat="44.6460175" lon="7.8595908"><ele>289.0</ele><time>2026-04-26T08:28:49.278Z</time></trkpt><trkpt lat="44.6460158" lon="7.8594393"><ele>289.0</ele><time>2026-04-26T08:28:50.275Z</time></trkpt><trkpt lat="44.6460153" lon="7.8592918"><ele>289.0</ele><time>2026-04-26T08:28:51.278Z</time></trkpt><trkpt lat="44.646014" lon="7.8591506"><ele>289.16666666666663</ele><time>2026-04-26T08:28:52.277Z</time></trkpt><trkpt lat="44.6460133" lon="7.8590198"><ele>289.3333333333333</ele><time>2026-04-26T08:28:53.277Z</time></trkpt><trkpt lat="44.6460134" lon="7.8588927"><ele>289.5</ele><time>2026-04-26T08:28:54.275Z</time></trkpt><trkpt lat="44.6460121" lon="7.858765"><ele>289.6666666666667</ele><time>2026-04-26T08:28:55.278Z</time></trkpt><trkpt lat="44.6460113" lon="7.858641"><ele>289.83333333333337</ele><time>2026-04-26T08:28:56.277Z</time></trkpt><trkpt lat="44.6460115" lon="7.8585272"><ele>290.0</ele><time>2026-04-26T08:28:57.276Z</time></trkpt><trkpt lat="44.6460125" lon="7.8584291"><ele>290.0</ele><time>2026-04-26T08:28:58.277Z</time></trkpt><trkpt lat="44.6460134" lon="7.8583116"><ele>290.0</ele><time>2026-04-26T08:29:00.47Z</time></trkpt><trkpt lat="44.6459863" lon="7.858213"><ele>290.0</ele><time>2026-04-26T08:29:06.471Z</time></trkpt><trkpt lat="44.6458684" lon="7.8581855"><ele>290.0</ele><time>2026-04-26T08:29:08.472Z</time></trkpt><trkpt lat="44.6457851" lon="7.8581843"><ele>290.0</ele><time>2026-04-26T08:29:09.472Z</time></trkpt><trkpt lat="44.6456965" lon="7.8581853"><ele>290.0</ele><time>2026-04-26T08:29:10.47Z</time></trkpt><trkpt lat="44.6456031" lon="7.8581892"><ele>290.0</ele><time>2026-04-26T08:29:11.47Z</time></trkpt><trkpt lat="44.6455038" lon="7.8581922"><ele>290.0</ele><time>2026-04-26T08:29:12.47Z</time></trkpt><trkpt lat="44.6453981" lon="7.8581934"><ele>290.0</ele><time>2026-04-26T08:29:13.471Z</time></trkpt><trkpt lat="44.6452875" lon="7.8581941"><ele>290.0</ele><time>2026-04-26T08:29:14.47Z</time></trkpt><trkpt lat="44.6451739" lon="7.8581952"><ele>289.75</ele><time>2026-04-26T08:29:15.469Z</time></trkpt><trkpt lat="44.6450574" lon="7.8581975"><ele>289.5</ele><time>2026-04-26T08:29:16.47Z</time></trkpt><trkpt lat="44.6449394" lon="7.8581996"><ele>289.25</ele><time>2026-04-26T08:29:17.468Z</time></trkpt><trkpt lat="44.6448221" lon="7.8582006"><ele>289.0</ele><time>2026-04-26T08:29:18.469Z</time></trkpt><trkpt lat="44.6447024" lon="7.8582006"><ele>289.0</ele><time>2026-04-26T08:29:19.469Z</time></trkpt><trkpt lat="44.6445788" lon="7.8581997"><ele>289.0</ele><time>2026-04-26T08:29:20.47Z</time></trkpt><trkpt lat="44.6444543" lon="7.8581998"><ele>289.0</ele><time>2026-04-26T08:29:21.471Z</time></trkpt><trkpt lat="44.6443316" lon="7.8582014"><ele>289.0</ele><time>2026-04-26T08:29:22.47Z</time></trkpt><trkpt lat="44.6442074" lon="7.8582036"><ele>289.0</ele><time>2026-04-26T08:29:23.471Z</time></trkpt><trkpt lat="44.6440795" lon="7.8582036"><ele>289.0</ele><time>2026-04-26T08:29:24.473Z</time></trkpt><trkpt lat="44.6439497" lon="7.8581994"><ele>289.0</ele><time>2026-04-26T08:29:25.471Z</time></trkpt><trkpt lat="44.6438162" lon="7.8581897"><ele>289.0</ele><time>2026-04-26T08:29:26.471Z</time></trkpt><trkpt lat="44.6436807" lon="7.858174"><ele>289.0</ele><time>2026-04-26T08:29:27.471Z</time></trkpt><trkpt lat="44.6435441" lon="7.858153"><ele>289.0</ele><time>2026-04-26T08:29:28.471Z</time></trkpt><trkpt lat="44.6434078" lon="7.8581277"><ele>289.0</ele><time>2026-04-26T08:29:29.47Z</time></trkpt><trkpt lat="44.6432698" lon="7.8580997"><ele>289.0</ele><time>2026-04-26T08:29:30.471Z</time></trkpt><trkpt lat="44.6431295" lon="7.8580712"><ele>289.0</ele><time>2026-04-26T08:29:31.471Z</time></trkpt><trkpt lat="44.6429904" lon="7.8580426"><ele>289.0</ele><time>2026-04-26T08:29:32.471Z</time></trkpt><trkpt lat="44.6428526" lon="7.858015"><ele>289.0</ele><time>2026-04-26T08:29:33.47Z</time></trkpt><trkpt lat="44.6427129" lon="7.8579862"><ele>289.0</ele><time>2026-04-26T08:29:34.471Z</time></trkpt><trkpt lat="44.6425702" lon="7.8579577"><ele>289.5</ele><time>2026-04-26T08:29:35.471Z</time></trkpt><trkpt lat="44.6424248" lon="7.8579292"><ele>290.0</ele><time>2026-04-26T08:29:36.471Z</time></trkpt><trkpt lat="44.6422783" lon="7.8579016"><ele>290.5</ele><time>2026-04-26T08:29:37.471Z</time></trkpt><trkpt lat="44.6421294" lon="7.8578747"><ele>291.0</ele><time>2026-04-26T08:29:38.471Z</time></trkpt><trkpt lat="44.6419778" lon="7.8578476"><ele>290.3333333333333</ele><time>2026-04-26T08:29:39.471Z</time></trkpt><trkpt lat="44.6418233" lon="7.8578186"><ele>289.66666666666663</ele><time>2026-04-26T08:29:40.472Z</time></trkpt><trkpt lat="44.6416668" lon="7.8577856"><ele>289.0</ele><time>2026-04-26T08:29:41.47Z</time></trkpt><trkpt lat="44.6415087" lon="7.8577479"><ele>289.0</ele><time>2026-04-26T08:29:42.47Z</time></trkpt><trkpt lat="44.6413506" lon="7.8577097"><ele>289.0</ele><time>2026-04-26T08:29:43.47Z</time></trkpt><trkpt lat="44.6411871" lon="7.8576708"><ele>289.0</ele><time>2026-04-26T08:29:44.472Z</time></trkpt><trkpt lat="44.64102" lon="7.8576329"><ele>289.0</ele><time>2026-04-26T08:29:45.473Z</time></trkpt><trkpt lat="44.6408525" lon="7.8575971"><ele>289.0</ele><time>2026-04-26T08:29:46.474Z</time></trkpt><trkpt lat="44.6406861" lon="7.8575619"><ele>289.0</ele><time>2026-04-26T08:29:47.474Z</time></trkpt><trkpt lat="44.6405206" lon="7.8575292"><ele>289.0</ele><time>2026-04-26T08:29:48.474Z</time></trkpt><trkpt lat="44.6403557" lon="7.8575053"><ele>289.0</ele><time>2026-04-26T08:29:49.475Z</time></trkpt><trkpt lat="44.6401902" lon="7.8574911"><ele>289.0</ele><time>2026-04-26T08:29:50.474Z</time></trkpt><trkpt lat="44.6400219" lon="7.8574845"><ele>289.0</ele><time>2026-04-26T08:29:51.473Z</time></trkpt><trkpt lat="44.6398521" lon="7.8574823"><ele>289.0</ele><time>2026-04-26T08:29:52.475Z</time></trkpt><trkpt lat="44.6396811" lon="7.8574827"><ele>289.0</ele><time>2026-04-26T08:29:53.476Z</time></trkpt><trkpt lat="44.639509" lon="7.8574838"><ele>289.0</ele><time>2026-04-26T08:29:54.474Z</time></trkpt><trkpt lat="44.6393361" lon="7.8574846"><ele>289.0</ele><time>2026-04-26T08:29:55.477Z</time></trkpt><trkpt lat="44.6391632" lon="7.857485"><ele>289.0</ele><time>2026-04-26T08:29:56.475Z</time></trkpt><trkpt lat="44.6389889" lon="7.8574859"><ele>289.0</ele><time>2026-04-26T08:29:57.475Z</time></trkpt><trkpt lat="44.6388136" lon="7.857487"><ele>289.0</ele><time>2026-04-26T08:29:58.475Z</time></trkpt><trkpt lat="44.638638" lon="7.857488"><ele>289.0</ele><time>2026-04-26T08:29:59.477Z</time></trkpt><trkpt lat="44.6384637" lon="7.857489"><ele>289.0</ele><time>2026-04-26T08:30:00.475Z</time></trkpt><trkpt lat="44.638291" lon="7.8574903"><ele>289.0</ele><time>2026-04-26T08:30:01.477Z</time></trkpt><trkpt lat="44.6381206" lon="7.857492"><ele>289.0</ele><time>2026-04-26T08:30:02.477Z</time></trkpt><trkpt lat="44.6379528" lon="7.8574936"><ele>289.3333333333333</ele><time>2026-04-26T08:30:03.475Z</time></trkpt><trkpt lat="44.6377879" lon="7.8574946"><ele>289.6666666666667</ele><time>2026-04-26T08:30:04.462Z</time></trkpt><trkpt lat="44.637623" lon="7.8574953"><ele>290.0</ele><time>2026-04-26T08:30:05.476Z</time></trkpt><trkpt lat="44.6374597" lon="7.857496"><ele>290.0</ele><time>2026-04-26T08:30:06.475Z</time></trkpt><trkpt lat="44.6372939" lon="7.8574974"><ele>290.0</ele><time>2026-04-26T08:30:07.485Z</time></trkpt><trkpt lat="44.6371268" lon="7.8574992"><ele>290.0</ele><time>2026-04-26T08:30:08.478Z</time></trkpt><trkpt lat="44.636957" lon="7.8575006"><ele>290.0</ele><time>2026-04-26T08:30:09.476Z</time></trkpt><trkpt lat="44.6367853" lon="7.8575013"><ele>290.0</ele><time>2026-04-26T08:30:10.478Z</time></trkpt><trkpt lat="44.6366118" lon="7.857502"><ele>290.0</ele><time>2026-04-26T08:30:11.479Z</time></trkpt><trkpt lat="44.6364379" lon="7.8575031"><ele>290.0</ele><time>2026-04-26T08:30:12.477Z</time></trkpt><trkpt lat="44.6362627" lon="7.8575045"><ele>290.0</ele><time>2026-04-26T08:30:13.478Z</time></trkpt><trkpt lat="44.6360889" lon="7.8575063"><ele>290.0</ele><time>2026-04-26T08:30:14.478Z</time></trkpt><trkpt lat="44.6359194" lon="7.8575084"><ele>290.0</ele><time>2026-04-26T08:30:15.478Z</time></trkpt><trkpt lat="44.6357558" lon="7.8575105"><ele>290.0</ele><time>2026-04-26T08:30:16.481Z</time></trkpt><trkpt lat="44.6356022" lon="7.8575124"><ele>290.0</ele><time>2026-04-26T08:30:17.476Z</time></trkpt><trkpt lat="44.635461" lon="7.8575139"><ele>290.0</ele><time>2026-04-26T08:30:18.477Z</time></trkpt><trkpt lat="44.6353332" lon="7.8575165"><ele>290.0</ele><time>2026-04-26T08:30:19.477Z</time></trkpt><trkpt lat="44.6352166" lon="7.8575208"><ele>290.0</ele><time>2026-04-26T08:30:20.476Z</time></trkpt><trkpt lat="44.6351096" lon="7.8575248"><ele>290.0</ele><time>2026-04-26T08:30:21.475Z</time></trkpt><trkpt lat="44.6350172" lon="7.8575268"><ele>290.0</ele><time>2026-04-26T08:30:22.477Z</time></trkpt><trkpt lat="44.6349356" lon="7.8575202"><ele>290.0</ele><time>2026-04-26T08:30:23.477Z</time></trkpt><trkpt lat="44.6348543" lon="7.8574971"><ele>290.0</ele><time>2026-04-26T08:30:24.475Z</time></trkpt><trkpt lat="44.6347758" lon="7.8574732"><ele>290.0</ele><time>2026-04-26T08:30:25.478Z</time></trkpt><trkpt lat="44.634697" lon="7.8574691"><ele>290.0</ele><time>2026-04-26T08:30:26.479Z</time></trkpt><trkpt lat="44.6346144" lon="7.8574899"><ele>290.0</ele><time>2026-04-26T08:30:27.477Z</time></trkpt><trkpt lat="44.6345309" lon="7.8575161"><ele>290.0</ele><time>2026-04-26T08:30:28.477Z</time></trkpt><trkpt lat="44.6344457" lon="7.8575335"><ele>290.0</ele><time>2026-04-26T08:30:29.478Z</time></trkpt><trkpt lat="44.6343538" lon="7.8575423"><ele>290.0</ele><time>2026-04-26T08:30:30.473Z</time></trkpt><trkpt lat="44.6342534" lon="7.8575472"><ele>290.0</ele><time>2026-04-26T08:30:31.476Z</time></trkpt><trkpt lat="44.6341444" lon="7.857551"><ele>290.0</ele><time>2026-04-26T08:30:32.475Z</time></trkpt><trkpt lat="44.6340285" lon="7.8575552"><ele>290.0</ele><time>2026-04-26T08:30:33.475Z</time></trkpt><trkpt lat="44.6339054" lon="7.857561"><ele>290.0</ele><time>2026-04-26T08:30:34.477Z</time></trkpt><trkpt lat="44.6337761" lon="7.8575683"><ele>290.0</ele><time>2026-04-26T08:30:35.475Z</time></trkpt><trkpt lat="44.6336451" lon="7.857577"><ele>290.0</ele><time>2026-04-26T08:30:36.478Z</time></trkpt><trkpt lat="44.6335132" lon="7.857587"><ele>290.0</ele><time>2026-04-26T08:30:37.478Z</time></trkpt><trkpt lat="44.6333796" lon="7.8575976"><ele>290.0</ele><time>2026-04-26T08:30:38.481Z</time></trkpt><trkpt lat="44.6332432" lon="7.8576101"><ele>290.0</ele><time>2026-04-26T08:30:39.477Z</time></trkpt><trkpt lat="44.6331" lon="7.8576258"><ele>290.0</ele><time>2026-04-26T08:30:40.477Z</time></trkpt><trkpt lat="44.6329508" lon="7.8576433"><ele>290.0</ele><time>2026-04-26T08:30:41.478Z</time></trkpt><trkpt lat="44.632799" lon="7.8576612"><ele>289.6666666666667</ele><time>2026-04-26T08:30:42.478Z</time></trkpt><trkpt lat="44.6326421" lon="7.8576811"><ele>289.3333333333333</ele><time>2026-04-26T08:30:43.476Z</time></trkpt><trkpt lat="44.6324754" lon="7.857708"><ele>289.0</ele><time>2026-04-26T08:30:44.479Z</time></trkpt><trkpt lat="44.6322942" lon="7.8577396"><ele>289.0</ele><time>2026-04-26T08:30:45.477Z</time></trkpt><trkpt lat="44.6321032" lon="7.8577692"><ele>289.0</ele><time>2026-04-26T08:30:46.477Z</time></trkpt><trkpt lat="44.631905" lon="7.8577938"><ele>289.0</ele><time>2026-04-26T08:30:47.478Z</time></trkpt><trkpt lat="44.6316998" lon="7.8578139"><ele>289.66666666666663</ele><time>2026-04-26T08:30:48.477Z</time></trkpt><trkpt lat="44.6314883" lon="7.8578313"><ele>290.3333333333333</ele><time>2026-04-26T08:30:49.478Z</time></trkpt><trkpt lat="44.6312717" lon="7.8578481"><ele>291.0</ele><time>2026-04-26T08:30:50.482Z</time></trkpt><trkpt lat="44.6310549" lon="7.8578659"><ele>291.6666666666667</ele><time>2026-04-26T08:30:51.476Z</time></trkpt><trkpt lat="44.6308384" lon="7.8578849"><ele>292.33333333333337</ele><time>2026-04-26T08:30:52.476Z</time></trkpt><trkpt lat="44.6306213" lon="7.8579051"><ele>293.0</ele><time>2026-04-26T08:30:53.477Z</time></trkpt><trkpt lat="44.6304033" lon="7.8579268"><ele>292.6666666666667</ele><time>2026-04-26T08:30:54.475Z</time></trkpt><trkpt lat="44.6301842" lon="7.857951"><ele>292.3333333333333</ele><time>2026-04-26T08:30:55.477Z</time></trkpt><trkpt lat="44.629964" lon="7.8579767"><ele>292.0</ele><time>2026-04-26T08:30:56.476Z</time></trkpt><trkpt lat="44.629743" lon="7.8580024"><ele>292.0</ele><time>2026-04-26T08:30:57.476Z</time></trkpt><trkpt lat="44.6295216" lon="7.8580276"><ele>292.0</ele><time>2026-04-26T08:30:58.477Z</time></trkpt><trkpt lat="44.6293002" lon="7.858052"><ele>292.0</ele><time>2026-04-26T08:30:59.478Z</time></trkpt><trkpt lat="44.6290789" lon="7.8580764"><ele>292.0</ele><time>2026-04-26T08:31:00.478Z</time></trkpt><trkpt lat="44.6288579" lon="7.8581013"><ele>292.0</ele><time>2026-04-26T08:31:01.478Z</time></trkpt><trkpt lat="44.6286372" lon="7.858127"><ele>292.0</ele><time>2026-04-26T08:31:02.478Z</time></trkpt><trkpt lat="44.6284173" lon="7.8581527"><ele>292.0</ele><time>2026-04-26T08:31:03.478Z</time></trkpt><trkpt lat="44.6281983" lon="7.8581787"><ele>292.0</ele><time>2026-04-26T08:31:04.478Z</time></trkpt><trkpt lat="44.6279791" lon="7.8582048"><ele>292.0</ele><time>2026-04-26T08:31:05.479Z</time></trkpt><trkpt lat="44.6277596" lon="7.8582312"><ele>292.0</ele><time>2026-04-26T08:31:06.477Z</time></trkpt><trkpt lat="44.62754" lon="7.8582582"><ele>292.0</ele><time>2026-04-26T08:31:07.478Z</time></trkpt><trkpt lat="44.6273205" lon="7.8582845"><ele>292.0</ele><time>2026-04-26T08:31:08.479Z</time></trkpt><trkpt lat="44.6271027" lon="7.8583081"><ele>292.3333333333333</ele><time>2026-04-26T08:31:09.478Z</time></trkpt><trkpt lat="44.6268847" lon="7.8583312"><ele>292.6666666666667</ele><time>2026-04-26T08:31:10.478Z</time></trkpt><trkpt lat="44.6266658" lon="7.8583547"><ele>293.0</ele><time>2026-04-26T08:31:11.478Z</time></trkpt><trkpt lat="44.6264465" lon="7.8583793"><ele>293.0</ele><time>2026-04-26T08:31:12.477Z</time></trkpt><trkpt lat="44.6262267" lon="7.8584053"><ele>293.0</ele><time>2026-04-26T08:31:13.478Z</time></trkpt><trkpt lat="44.6260069" lon="7.8584315"><ele>293.0</ele><time>2026-04-26T08:31:14.478Z</time></trkpt><trkpt lat="44.6257861" lon="7.8584571"><ele>293.0</ele><time>2026-04-26T08:31:15.477Z</time></trkpt><trkpt lat="44.6255653" lon="7.8584816"><ele>293.0</ele><time>2026-04-26T08:31:16.477Z</time></trkpt><trkpt lat="44.6253482" lon="7.8585056"><ele>293.0</ele><time>2026-04-26T08:31:17.478Z</time></trkpt><trkpt lat="44.6251352" lon="7.8585302"><ele>293.0</ele><time>2026-04-26T08:31:18.478Z</time></trkpt><trkpt lat="44.6249255" lon="7.8585549"><ele>293.0</ele><time>2026-04-26T08:31:19.474Z</time></trkpt><trkpt lat="44.6247164" lon="7.8585817"><ele>293.0</ele><time>2026-04-26T08:31:20.475Z</time></trkpt><trkpt lat="44.6245072" lon="7.8586102"><ele>293.0</ele><time>2026-04-26T08:31:21.476Z</time></trkpt><trkpt lat="44.6243001" lon="7.8586375"><ele>293.0</ele><time>2026-04-26T08:31:22.474Z</time></trkpt><trkpt lat="44.624104" lon="7.858663"><ele>293.0</ele><time>2026-04-26T08:31:23.478Z</time></trkpt><trkpt lat="44.623926" lon="7.8586862"><ele>293.0</ele><time>2026-04-26T08:31:24.478Z</time></trkpt><trkpt lat="44.6237697" lon="7.858706"><ele>293.0</ele><time>2026-04-26T08:31:25.478Z</time></trkpt><trkpt lat="44.6236359" lon="7.8587209"><ele>293.0</ele><time>2026-04-26T08:31:26.478Z</time></trkpt><trkpt lat="44.6235241" lon="7.8587265"><ele>293.0</ele><time>2026-04-26T08:31:27.479Z</time></trkpt><trkpt lat="44.6234267" lon="7.8587135"><ele>292.99999999999994</ele><time>2026-04-26T08:31:28.477Z</time></trkpt><trkpt lat="44.623341" lon="7.8586775"><ele>293.0</ele><time>2026-04-26T08:31:29.478Z</time></trkpt><trkpt lat="44.6232639" lon="7.8586364"><ele>293.0</ele><time>2026-04-26T08:31:30.479Z</time></trkpt><trkpt lat="44.6231929" lon="7.8586181"><ele>293.0</ele><time>2026-04-26T08:31:31.477Z</time></trkpt><trkpt lat="44.6231278" lon="7.8586396"><ele>293.0</ele><time>2026-04-26T08:31:32.478Z</time></trkpt><trkpt lat="44.6230814" lon="7.858705"><ele>292.99999999999994</ele><time>2026-04-26T08:31:33.476Z</time></trkpt><trkpt lat="44.6230676" lon="7.8588022"><ele>293.0</ele><time>2026-04-26T08:31:34.479Z</time></trkpt><trkpt lat="44.6230905" lon="7.8589025"><ele>293.0</ele><time>2026-04-26T08:31:35.477Z</time></trkpt><trkpt lat="44.623149" lon="7.8590001"><ele>293.0</ele><time>2026-04-26T08:31:36.48Z</time></trkpt><trkpt lat="44.6232287" lon="7.8591068"><ele>293.0</ele><time>2026-04-26T08:31:37.48Z</time></trkpt><trkpt lat="44.623311" lon="7.8592406"><ele>293.0</ele><time>2026-04-26T08:31:38.478Z</time></trkpt><trkpt lat="44.6233877" lon="7.8593982"><ele>292.6666666666667</ele><time>2026-04-26T08:31:39.477Z</time></trkpt><trkpt lat="44.6234598" lon="7.8595769"><ele>292.3333333333333</ele><time>2026-04-26T08:31:40.478Z</time></trkpt><trkpt lat="44.6235326" lon="7.8597768"><ele>292.0</ele><time>2026-04-26T08:31:41.478Z</time></trkpt><trkpt lat="44.6236096" lon="7.8599923"><ele>292.0</ele><time>2026-04-26T08:31:42.477Z</time></trkpt><trkpt lat="44.62369" lon="7.8602171"><ele>292.0</ele><time>2026-04-26T08:31:43.478Z</time></trkpt><trkpt lat="44.6237728" lon="7.860448"><ele>292.0</ele><time>2026-04-26T08:31:44.476Z</time></trkpt><trkpt lat="44.6238547" lon="7.8606776"><ele>292.0</ele><time>2026-04-26T08:31:45.475Z</time></trkpt><trkpt lat="44.623935" lon="7.8609035"><ele>292.0</ele><time>2026-04-26T08:31:46.478Z</time></trkpt><trkpt lat="44.6240148" lon="7.8611287"><ele>292.0</ele><time>2026-04-26T08:31:47.476Z</time></trkpt><trkpt lat="44.6240957" lon="7.8613552"><ele>292.3333333333333</ele><time>2026-04-26T08:31:48.48Z</time></trkpt><trkpt lat="44.6241781" lon="7.8615819"><ele>292.6666666666667</ele><time>2026-04-26T08:31:49.479Z</time></trkpt><trkpt lat="44.6242621" lon="7.8618103"><ele>293.0</ele><time>2026-04-26T08:31:50.478Z</time></trkpt><trkpt lat="44.6243479" lon="7.8620415"><ele>293.0</ele><time>2026-04-26T08:31:51.478Z</time></trkpt><trkpt lat="44.6244401" lon="7.8622735"><ele>293.0</ele><time>2026-04-26T08:31:52.479Z</time></trkpt><trkpt lat="44.6245407" lon="7.8625026"><ele>293.0</ele><time>2026-04-26T08:31:53.476Z</time></trkpt><trkpt lat="44.6246502" lon="7.8627248"><ele>293.0</ele><time>2026-04-26T08:31:54.477Z</time></trkpt><trkpt lat="44.6247687" lon="7.8629378"><ele>293.0</ele><time>2026-04-26T08:31:55.481Z</time></trkpt><trkpt lat="44.6248976" lon="7.8631386"><ele>293.0</ele><time>2026-04-26T08:31:56.477Z</time></trkpt><trkpt lat="44.6250398" lon="7.8633261"><ele>292.6666666666667</ele><time>2026-04-26T08:31:57.476Z</time></trkpt><trkpt lat="44.6251934" lon="7.8634973"><ele>292.3333333333333</ele><time>2026-04-26T08:31:58.476Z</time></trkpt><trkpt lat="44.6253554" lon="7.8636478"><ele>292.0</ele><time>2026-04-26T08:31:59.476Z</time></trkpt><trkpt lat="44.625527" lon="7.8637796"><ele>291.66666666666663</ele><time>2026-04-26T08:32:00.475Z</time></trkpt><trkpt lat="44.6257082" lon="7.8638932"><ele>291.3333333333333</ele><time>2026-04-26T08:32:01.476Z</time></trkpt><trkpt lat="44.6258987" lon="7.863984"><ele>291.0</ele><time>2026-04-26T08:32:02.477Z</time></trkpt><trkpt lat="44.6260982" lon="7.8640504"><ele>290.0</ele><time>2026-04-26T08:32:03.477Z</time></trkpt><trkpt lat="44.6263042" lon="7.8640926"><ele>289.0</ele><time>2026-04-26T08:32:04.478Z</time></trkpt><trkpt lat="44.6265132" lon="7.8641127"><ele>288.0</ele><time>2026-04-26T08:32:05.479Z</time></trkpt><trkpt lat="44.6267222" lon="7.8641121"><ele>288.0</ele><time>2026-04-26T08:32:06.478Z</time></trkpt><trkpt lat="44.6269312" lon="7.864092"><ele>288.0</ele><time>2026-04-26T08:32:07.476Z</time></trkpt><trkpt lat="44.6271409" lon="7.8640556"><ele>288.0</ele><time>2026-04-26T08:32:08.474Z</time></trkpt><trkpt lat="44.6273518" lon="7.8640079"><ele>286.3333333333333</ele><time>2026-04-26T08:32:09.475Z</time></trkpt><trkpt lat="44.6275643" lon="7.8639534"><ele>284.66666666666663</ele><time>2026-04-26T08:32:10.475Z</time></trkpt><trkpt lat="44.6277776" lon="7.8638954"><ele>283.0</ele><time>2026-04-26T08:32:11.474Z</time></trkpt><trkpt lat="44.6279915" lon="7.8638362"><ele>280.0</ele><time>2026-04-26T08:32:12.477Z</time></trkpt><trkpt lat="44.6282045" lon="7.8637777"><ele>277.0</ele><time>2026-04-26T08:32:13.478Z</time></trkpt><trkpt lat="44.6284173" lon="7.8637192"><ele>274.0</ele><time>2026-04-26T08:32:14.476Z</time></trkpt><trkpt lat="44.6286317" lon="7.8636589"><ele>273.3333333333333</ele><time>2026-04-26T08:32:15.477Z</time></trkpt><trkpt lat="44.6288485" lon="7.8635975"><ele>272.6666666666667</ele><time>2026-04-26T08:32:16.478Z</time></trkpt><trkpt lat="44.6290675" lon="7.8635363"><ele>272.0</ele><time>2026-04-26T08:32:17.478Z</time></trkpt><trkpt lat="44.6292866" lon="7.8634761"><ele>272.6666666666667</ele><time>2026-04-26T08:32:18.478Z</time></trkpt><trkpt lat="44.6295039" lon="7.8634212"><ele>273.3333333333333</ele><time>2026-04-26T08:32:19.478Z</time></trkpt><trkpt lat="44.6297199" lon="7.8633757"><ele>274.0</ele><time>2026-04-26T08:32:20.478Z</time></trkpt><trkpt lat="44.6299345" lon="7.863343"><ele>274.0</ele><time>2026-04-26T08:32:21.479Z</time></trkpt><trkpt lat="44.6301473" lon="7.8633212"><ele>274.0</ele><time>2026-04-26T08:32:22.478Z</time></trkpt><trkpt lat="44.630359" lon="7.8633103"><ele>274.0</ele><time>2026-04-26T08:32:23.478Z</time></trkpt><trkpt lat="44.6305701" lon="7.8633113"><ele>272.3333333333333</ele><time>2026-04-26T08:32:24.477Z</time></trkpt><trkpt lat="44.6307831" lon="7.8633247"><ele>270.6666666666667</ele><time>2026-04-26T08:32:25.478Z</time></trkpt><trkpt lat="44.6309985" lon="7.8633519"><ele>269.0</ele><time>2026-04-26T08:32:26.478Z</time></trkpt><trkpt lat="44.6312131" lon="7.863393"><ele>263.6666666666667</ele><time>2026-04-26T08:32:27.476Z</time></trkpt><trkpt lat="44.6314265" lon="7.8634472"><ele>258.3333333333333</ele><time>2026-04-26T08:32:28.477Z</time></trkpt><trkpt lat="44.6316375" lon="7.8635157"><ele>253.0</ele><time>2026-04-26T08:32:29.481Z</time></trkpt><trkpt lat="44.6318473" lon="7.8635964"><ele>252.0</ele><time>2026-04-26T08:32:30.479Z</time></trkpt><trkpt lat="44.6320568" lon="7.8636919"><ele>251.0</ele><time>2026-04-26T08:32:31.478Z</time></trkpt><trkpt lat="44.6322644" lon="7.8638018"><ele>250.0</ele><time>2026-04-26T08:32:32.477Z</time></trkpt><trkpt lat="44.6324689" lon="7.8639262"><ele>250.0</ele><time>2026-04-26T08:32:33.475Z</time></trkpt><trkpt lat="44.6326692" lon="7.8640638"><ele>250.0</ele><time>2026-04-26T08:32:34.476Z</time></trkpt><trkpt lat="44.6328636" lon="7.8642137"><ele>250.0</ele><time>2026-04-26T08:32:35.476Z</time></trkpt><trkpt lat="44.6330518" lon="7.8643767"><ele>243.66666666666666</ele><time>2026-04-26T08:32:36.477Z</time></trkpt><trkpt lat="44.6332335" lon="7.8645531"><ele>237.33333333333331</ele><time>2026-04-26T08:32:37.481Z</time></trkpt><trkpt lat="44.6334087" lon="7.8647408"><ele>231.0</ele><time>2026-04-26T08:32:38.477Z</time></trkpt><trkpt lat="44.6335787" lon="7.8649388"><ele>229.33333333333331</ele><time>2026-04-26T08:32:39.48Z</time></trkpt><trkpt lat="44.6337424" lon="7.8651455"><ele>227.66666666666666</ele><time>2026-04-26T08:32:40.479Z</time></trkpt><trkpt lat="44.6339001" lon="7.8653626"><ele>226.0</ele><time>2026-04-26T08:32:41.478Z</time></trkpt><trkpt lat="44.6340514" lon="7.8655907"><ele>226.0</ele><time>2026-04-26T08:32:42.477Z</time></trkpt><trkpt lat="44.6341932" lon="7.8658294"><ele>226.0</ele><time>2026-04-26T08:32:43.479Z</time></trkpt><trkpt lat="44.6343244" lon="7.8660771"><ele>226.0</ele><time>2026-04-26T08:32:44.478Z</time></trkpt><trkpt lat="44.6344466" lon="7.8663314"><ele>226.0</ele><time>2026-04-26T08:32:45.478Z</time></trkpt><trkpt lat="44.634561" lon="7.8665929"><ele>226.0</ele><time>2026-04-26T08:32:46.479Z</time></trkpt><trkpt lat="44.6346684" lon="7.8668601"><ele>226.0</ele><time>2026-04-26T08:32:47.479Z</time></trkpt><trkpt lat="44.6347698" lon="7.8671299"><ele>225.66666666666666</ele><time>2026-04-26T08:32:48.481Z</time></trkpt><trkpt lat="44.6348661" lon="7.8674002"><ele>225.33333333333331</ele><time>2026-04-26T08:32:49.482Z</time></trkpt><trkpt lat="44.63496" lon="7.8676668"><ele>225.0</ele><time>2026-04-26T08:32:50.48Z</time></trkpt><trkpt lat="44.6350522" lon="7.8679281"><ele>225.0</ele><time>2026-04-26T08:32:51.481Z</time></trkpt><trkpt lat="44.6351412" lon="7.8681793"><ele>225.0</ele><time>2026-04-26T08:32:52.48Z</time></trkpt><trkpt lat="44.6352241" lon="7.8684139"><ele>225.0</ele><time>2026-04-26T08:32:53.48Z</time></trkpt><trkpt lat="44.6352982" lon="7.8686251"><ele>225.25</ele><time>2026-04-26T08:32:54.482Z</time></trkpt><trkpt lat="44.6353633" lon="7.8688103"><ele>225.5</ele><time>2026-04-26T08:32:55.48Z</time></trkpt><trkpt lat="44.6354191" lon="7.8689677"><ele>225.75</ele><time>2026-04-26T08:32:56.481Z</time></trkpt><trkpt lat="44.635465" lon="7.8690996"><ele>226.0</ele><time>2026-04-26T08:32:57.476Z</time></trkpt><trkpt lat="44.6355003" lon="7.8692087"><ele>225.8</ele><time>2026-04-26T08:32:58.477Z</time></trkpt><trkpt lat="44.6355229" lon="7.8692914"><ele>225.60000000000002</ele><time>2026-04-26T08:32:59.48Z</time></trkpt><trkpt lat="44.6355342" lon="7.8693878"><ele>225.4</ele><time>2026-04-26T08:33:01.479Z</time></trkpt><trkpt lat="44.6355318" lon="7.8695273"><ele>225.2</ele><time>2026-04-26T08:33:05.48Z</time></trkpt><trkpt lat="44.6354978" lon="7.8697108"><ele>225.0</ele><time>2026-04-26T08:33:07.484Z</time></trkpt><trkpt lat="44.6354582" lon="7.8698228"><ele>225.0</ele><time>2026-04-26T08:33:08.481Z</time></trkpt><trkpt lat="44.6353976" lon="7.8699465"><ele>225.0</ele><time>2026-04-26T08:33:09.483Z</time></trkpt><trkpt lat="44.6353177" lon="7.87007"><ele>225.0</ele><time>2026-04-26T08:33:10.482Z</time></trkpt><trkpt lat="44.6352234" lon="7.870193"><ele>225.0</ele><time>2026-04-26T08:33:11.479Z</time></trkpt><trkpt lat="44.6351227" lon="7.8703206"><ele>224.75</ele><time>2026-04-26T08:33:12.479Z</time></trkpt><trkpt lat="44.6350161" lon="7.8704567"><ele>224.5</ele><time>2026-04-26T08:33:13.482Z</time></trkpt><trkpt lat="44.634907" lon="7.8705969"><ele>224.25</ele><time>2026-04-26T08:33:14.478Z</time></trkpt><trkpt lat="44.6347951" lon="7.8707423"><ele>224.0</ele><time>2026-04-26T08:33:15.479Z</time></trkpt><trkpt lat="44.6346812" lon="7.8708928"><ele>223.66666666666669</ele><time>2026-04-26T08:33:16.479Z</time></trkpt><trkpt lat="44.634565" lon="7.8710486"><ele>223.33333333333331</ele><time>2026-04-26T08:33:17.479Z</time></trkpt><trkpt lat="44.6344462" lon="7.8712067"><ele>223.0</ele><time>2026-04-26T08:33:18.477Z</time></trkpt><trkpt lat="44.6343246" lon="7.8713651"><ele>222.0</ele><time>2026-04-26T08:33:19.479Z</time></trkpt><trkpt lat="44.634201" lon="7.8715237"><ele>221.0</ele><time>2026-04-26T08:33:20.48Z</time></trkpt><trkpt lat="44.6340774" lon="7.8716855"><ele>220.0</ele><time>2026-04-26T08:33:21.479Z</time></trkpt><trkpt lat="44.6339526" lon="7.8718505"><ele>218.33333333333331</ele><time>2026-04-26T08:33:22.477Z</time></trkpt><trkpt lat="44.6338252" lon="7.872019"><ele>216.66666666666669</ele><time>2026-04-26T08:33:23.479Z</time></trkpt><trkpt lat="44.6336928" lon="7.8721923"><ele>215.0</ele><time>2026-04-26T08:33:24.478Z</time></trkpt><trkpt lat="44.633555" lon="7.8723714"><ele>214.66666666666669</ele><time>2026-04-26T08:33:25.479Z</time></trkpt><trkpt lat="44.6334141" lon="7.8725537"><ele>214.33333333333331</ele><time>2026-04-26T08:33:26.48Z</time></trkpt><trkpt lat="44.6332669" lon="7.8727454"><ele>214.0</ele><time>2026-04-26T08:33:27.48Z</time></trkpt><trkpt lat="44.6331132" lon="7.8729455"><ele>213.0</ele><time>2026-04-26T08:33:28.48Z</time></trkpt><trkpt lat="44.6329555" lon="7.8731516"><ele>212.0</ele><time>2026-04-26T08:33:29.48Z</time></trkpt><trkpt lat="44.6327953" lon="7.8733618"><ele>211.0</ele><time>2026-04-26T08:33:30.479Z</time></trkpt><trkpt lat="44.6326341" lon="7.8735716"><ele>210.66666666666666</ele><time>2026-04-26T08:33:31.479Z</time></trkpt><trkpt lat="44.6324726" lon="7.8737793"><ele>210.33333333333331</ele><time>2026-04-26T08:33:32.479Z</time></trkpt><trkpt lat="44.6323109" lon="7.8739875"><ele>210.0</ele><time>2026-04-26T08:33:33.479Z</time></trkpt><trkpt lat="44.6321493" lon="7.874197"><ele>210.0</ele><time>2026-04-26T08:33:34.48Z</time></trkpt><trkpt lat="44.6319877" lon="7.8744076"><ele>210.0</ele><time>2026-04-26T08:33:35.479Z</time></trkpt><trkpt lat="44.631827" lon="7.8746175"><ele>210.0</ele><time>2026-04-26T08:33:36.478Z</time></trkpt><trkpt lat="44.6316674" lon="7.8748251"><ele>210.0</ele><time>2026-04-26T08:33:37.479Z</time></trkpt><trkpt lat="44.6315062" lon="7.8750288"><ele>210.0</ele><time>2026-04-26T08:33:38.48Z</time></trkpt><trkpt lat="44.6313408" lon="7.8752223"><ele>210.0</ele><time>2026-04-26T08:33:39.479Z</time></trkpt><trkpt lat="44.6311707" lon="7.8754017"><ele>210.33333333333331</ele><time>2026-04-26T08:33:40.479Z</time></trkpt><trkpt lat="44.6309953" lon="7.8755678"><ele>210.66666666666666</ele><time>2026-04-26T08:33:41.479Z</time></trkpt><trkpt lat="44.6308149" lon="7.8757226"><ele>211.0</ele><time>2026-04-26T08:33:42.478Z</time></trkpt><trkpt lat="44.6306314" lon="7.8758708"><ele>211.33333333333331</ele><time>2026-04-26T08:33:43.479Z</time></trkpt><trkpt lat="44.6304462" lon="7.876017"><ele>211.66666666666669</ele><time>2026-04-26T08:33:44.481Z</time></trkpt><trkpt lat="44.630261" lon="7.8761635"><ele>212.0</ele><time>2026-04-26T08:33:45.479Z</time></trkpt><trkpt lat="44.6300752" lon="7.8763104"><ele>212.0</ele><time>2026-04-26T08:33:46.479Z</time></trkpt><trkpt lat="44.6298886" lon="7.8764577"><ele>212.0</ele><time>2026-04-26T08:33:47.478Z</time></trkpt><trkpt lat="44.6297021" lon="7.8766054"><ele>212.0</ele><time>2026-04-26T08:33:48.478Z</time></trkpt><trkpt lat="44.6295151" lon="7.8767542"><ele>211.66666666666669</ele><time>2026-04-26T08:33:49.478Z</time></trkpt><trkpt lat="44.6293281" lon="7.8769037"><ele>211.33333333333331</ele><time>2026-04-26T08:33:50.479Z</time></trkpt><trkpt lat="44.6291408" lon="7.8770529"><ele>211.0</ele><time>2026-04-26T08:33:51.482Z</time></trkpt><trkpt lat="44.6289539" lon="7.8772015"><ele>211.0</ele><time>2026-04-26T08:33:52.479Z</time></trkpt><trkpt lat="44.6287666" lon="7.877351"><ele>211.0</ele><time>2026-04-26T08:33:53.479Z</time></trkpt><trkpt lat="44.6285799" lon="7.8775011"><ele>211.0</ele><time>2026-04-26T08:33:54.48Z</time></trkpt><trkpt lat="44.6283939" lon="7.877651"><ele>210.33333333333331</ele><time>2026-04-26T08:33:55.479Z</time></trkpt><trkpt lat="44.6282081" lon="7.8778008"><ele>209.66666666666669</ele><time>2026-04-26T08:33:56.479Z</time></trkpt><trkpt lat="44.6280222" lon="7.8779514"><ele>209.0</ele><time>2026-04-26T08:33:57.479Z</time></trkpt><trkpt lat="44.6278361" lon="7.8781022"><ele>208.66666666666669</ele><time>2026-04-26T08:33:58.479Z</time></trkpt><trkpt lat="44.6276491" lon="7.8782526"><ele>208.33333333333331</ele><time>2026-04-26T08:33:59.479Z</time></trkpt><trkpt lat="44.6274623" lon="7.8784027"><ele>208.0</ele><time>2026-04-26T08:34:00.482Z</time></trkpt><trkpt lat="44.6272777" lon="7.8785528"><ele>206.66666666666666</ele><time>2026-04-26T08:34:01.479Z</time></trkpt><trkpt lat="44.6270946" lon="7.8787016"><ele>205.33333333333331</ele><time>2026-04-26T08:34:02.479Z</time></trkpt><trkpt lat="44.6269121" lon="7.8788496"><ele>204.0</ele><time>2026-04-26T08:34:03.479Z</time></trkpt><trkpt lat="44.6267301" lon="7.8789968"><ele>202.0</ele><time>2026-04-26T08:34:04.478Z</time></trkpt><trkpt lat="44.6265489" lon="7.8791426"><ele>200.0</ele><time>2026-04-26T08:34:05.48Z</time></trkpt><trkpt lat="44.6263682" lon="7.8792872"><ele>198.0</ele><time>2026-04-26T08:34:06.479Z</time></trkpt><trkpt lat="44.6261889" lon="7.8794306"><ele>198.66666666666669</ele><time>2026-04-26T08:34:07.479Z</time></trkpt><trkpt lat="44.6260111" lon="7.8795727"><ele>199.33333333333334</ele><time>2026-04-26T08:34:08.481Z</time></trkpt><trkpt lat="44.6258356" lon="7.8797133"><ele>200.0</ele><time>2026-04-26T08:34:09.478Z</time></trkpt><trkpt lat="44.6256622" lon="7.8798528"><ele>200.0</ele><time>2026-04-26T08:34:10.477Z</time></trkpt><trkpt lat="44.6254925" lon="7.8799893"><ele>200.0</ele><time>2026-04-26T08:34:11.475Z</time></trkpt><trkpt lat="44.6253251" lon="7.8801211"><ele>200.0</ele><time>2026-04-26T08:34:12.476Z</time></trkpt><trkpt lat="44.6251536" lon="7.8802446"><ele>201.66666666666669</ele><time>2026-04-26T08:34:13.477Z</time></trkpt><trkpt lat="44.624972" lon="7.8803523"><ele>203.33333333333331</ele><time>2026-04-26T08:34:14.478Z</time></trkpt><trkpt lat="44.6247797" lon="7.8804384"><ele>205.0</ele><time>2026-04-26T08:34:15.478Z</time></trkpt><trkpt lat="44.6245792" lon="7.880502"><ele>206.33333333333331</ele><time>2026-04-26T08:34:16.478Z</time></trkpt><trkpt lat="44.6243725" lon="7.880541"><ele>207.66666666666669</ele><time>2026-04-26T08:34:17.479Z</time></trkpt><trkpt lat="44.6241612" lon="7.8805538"><ele>209.0</ele><time>2026-04-26T08:34:18.478Z</time></trkpt><trkpt lat="44.623949" lon="7.8805416"><ele>209.0</ele><time>2026-04-26T08:34:19.478Z</time></trkpt><trkpt lat="44.6237369" lon="7.8805145"><ele>209.0</ele><time>2026-04-26T08:34:20.484Z</time></trkpt><trkpt lat="44.6235287" lon="7.8804818"><ele>209.0</ele><time>2026-04-26T08:34:21.479Z</time></trkpt><trkpt lat="44.6233241" lon="7.8804488"><ele>209.66666666666669</ele><time>2026-04-26T08:34:22.479Z</time></trkpt><trkpt lat="44.6231222" lon="7.8804164"><ele>210.33333333333331</ele><time>2026-04-26T08:34:23.478Z</time></trkpt><trkpt lat="44.6229216" lon="7.8803842"><ele>211.0</ele><time>2026-04-26T08:34:24.479Z</time></trkpt><trkpt lat="44.6227216" lon="7.8803519"><ele>209.66666666666666</ele><time>2026-04-26T08:34:25.479Z</time></trkpt><trkpt lat="44.6225225" lon="7.8803207"><ele>208.33333333333331</ele><time>2026-04-26T08:34:26.48Z</time></trkpt><trkpt lat="44.6223245" lon="7.8802912"><ele>207.0</ele><time>2026-04-26T08:34:27.479Z</time></trkpt><trkpt lat="44.6221278" lon="7.8802626"><ele>206.66666666666669</ele><time>2026-04-26T08:34:28.483Z</time></trkpt><trkpt lat="44.6219313" lon="7.8802338"><ele>206.33333333333334</ele><time>2026-04-26T08:34:29.479Z</time></trkpt><trkpt lat="44.6217311" lon="7.8802037"><ele>206.0</ele><time>2026-04-26T08:34:30.479Z</time></trkpt><trkpt lat="44.6215282" lon="7.8801712"><ele>206.0</ele><time>2026-04-26T08:34:31.48Z</time></trkpt><trkpt lat="44.6213235" lon="7.8801392"><ele>206.0</ele><time>2026-04-26T08:34:32.478Z</time></trkpt><trkpt lat="44.6211167" lon="7.8801087"><ele>206.0</ele><time>2026-04-26T08:34:33.479Z</time></trkpt><trkpt lat="44.6209098" lon="7.8800791"><ele>205.33333333333334</ele><time>2026-04-26T08:34:34.478Z</time></trkpt><trkpt lat="44.6207052" lon="7.8800498"><ele>204.66666666666669</ele><time>2026-04-26T08:34:35.475Z</time></trkpt><trkpt lat="44.6205041" lon="7.8800205"><ele>204.0</ele><time>2026-04-26T08:34:36.476Z</time></trkpt><trkpt lat="44.6203032" lon="7.8799908"><ele>204.0</ele><time>2026-04-26T08:34:37.477Z</time></trkpt><trkpt lat="44.6201033" lon="7.8799613"><ele>204.0</ele><time>2026-04-26T08:34:38.477Z</time></trkpt><trkpt lat="44.6199031" lon="7.8799343"><ele>204.0</ele><time>2026-04-26T08:34:39.478Z</time></trkpt><trkpt lat="44.6197034" lon="7.8799141"><ele>204.0</ele><time>2026-04-26T08:34:40.479Z</time></trkpt><trkpt lat="44.6195037" lon="7.8799057"><ele>204.0</ele><time>2026-04-26T08:34:41.48Z</time></trkpt><trkpt lat="44.6193052" lon="7.8799121"><ele>204.0</ele><time>2026-04-26T08:34:42.48Z</time></trkpt><trkpt lat="44.6191077" lon="7.8799378"><ele>204.0</ele><time>2026-04-26T08:34:43.479Z</time></trkpt><trkpt lat="44.6189084" lon="7.8799854"><ele>204.0</ele><time>2026-04-26T08:34:44.479Z</time></trkpt><trkpt lat="44.6187075" lon="7.8800546"><ele>204.0</ele><time>2026-04-26T08:34:45.478Z</time></trkpt><trkpt lat="44.6185096" lon="7.8801393"><ele>204.0</ele><time>2026-04-26T08:34:46.479Z</time></trkpt><trkpt lat="44.6183233" lon="7.8802299"><ele>204.0</ele><time>2026-04-26T08:34:47.477Z</time></trkpt><trkpt lat="44.6181494" lon="7.8803214"><ele>204.0</ele><time>2026-04-26T08:34:48.478Z</time></trkpt><trkpt lat="44.6179843" lon="7.8804094"><ele>204.0</ele><time>2026-04-26T08:34:49.479Z</time></trkpt><trkpt lat="44.6178234" lon="7.8804941"><ele>204.0</ele><time>2026-04-26T08:34:50.481Z</time></trkpt><trkpt lat="44.6176638" lon="7.8805794"><ele>204.0</ele><time>2026-04-26T08:34:51.479Z</time></trkpt><trkpt lat="44.6175006" lon="7.880671"><ele>204.0</ele><time>2026-04-26T08:34:52.479Z</time></trkpt><trkpt lat="44.6173357" lon="7.8807657"><ele>204.0</ele><time>2026-04-26T08:34:53.479Z</time></trkpt><trkpt lat="44.6171794" lon="7.8808553"><ele>204.0</ele><time>2026-04-26T08:34:54.479Z</time></trkpt><trkpt lat="44.6170345" lon="7.8809364"><ele>204.5</ele><time>2026-04-26T08:34:55.479Z</time></trkpt><trkpt lat="44.6168997" lon="7.8810117"><ele>205.0</ele><time>2026-04-26T08:34:56.479Z</time></trkpt><trkpt lat="44.6167653" lon="7.8810867"><ele>205.5</ele><time>2026-04-26T08:34:57.478Z</time></trkpt><trkpt lat="44.6166249" lon="7.8811637"><ele>206.0</ele><time>2026-04-26T08:34:58.478Z</time></trkpt><trkpt lat="44.6164779" lon="7.8812438"><ele>206.0</ele><time>2026-04-26T08:34:59.478Z</time></trkpt><trkpt lat="44.6163263" lon="7.881326"><ele>206.0</ele><time>2026-04-26T08:35:00.478Z</time></trkpt><trkpt lat="44.6161724" lon="7.881409"><ele>206.0</ele><time>2026-04-26T08:35:01.476Z</time></trkpt><trkpt lat="44.6160191" lon="7.8814918"><ele>205.66666666666669</ele><time>2026-04-26T08:35:02.476Z</time></trkpt><trkpt lat="44.6158671" lon="7.8815737"><ele>205.33333333333331</ele><time>2026-04-26T08:35:03.476Z</time></trkpt><trkpt lat="44.6157139" lon="7.881656"><ele>205.0</ele><time>2026-04-26T08:35:04.48Z</time></trkpt><trkpt lat="44.6155644" lon="7.8817375"><ele>204.33333333333331</ele><time>2026-04-26T08:35:05.48Z</time></trkpt><trkpt lat="44.6154204" lon="7.881817"><ele>203.66666666666669</ele><time>2026-04-26T08:35:06.478Z</time></trkpt><trkpt lat="44.6152766" lon="7.8818961"><ele>203.0</ele><time>2026-04-26T08:35:07.478Z</time></trkpt><trkpt lat="44.6151309" lon="7.8819748"><ele>202.0</ele><time>2026-04-26T08:35:08.479Z</time></trkpt><trkpt lat="44.6149839" lon="7.8820527"><ele>201.0</ele><time>2026-04-26T08:35:09.474Z</time></trkpt><trkpt lat="44.6148356" lon="7.8821306"><ele>200.0</ele><time>2026-04-26T08:35:10.478Z</time></trkpt><trkpt lat="44.6146856" lon="7.8822074"><ele>200.0</ele><time>2026-04-26T08:35:11.475Z</time></trkpt><trkpt lat="44.6145346" lon="7.8822881"><ele>200.0</ele><time>2026-04-26T08:35:12.475Z</time></trkpt><trkpt lat="44.614384" lon="7.8823747"><ele>200.0</ele><time>2026-04-26T08:35:13.476Z</time></trkpt><trkpt lat="44.61423" lon="7.8824603"><ele>200.66666666666669</ele><time>2026-04-26T08:35:14.477Z</time></trkpt><trkpt lat="44.6140669" lon="7.8825457"><ele>201.33333333333331</ele><time>2026-04-26T08:35:15.477Z</time></trkpt><trkpt lat="44.6138962" lon="7.8826337"><ele>202.0</ele><time>2026-04-26T08:35:16.478Z</time></trkpt><trkpt lat="44.6137185" lon="7.8827268"><ele>203.0</ele><time>2026-04-26T08:35:17.478Z</time></trkpt><trkpt lat="44.6135335" lon="7.8828248"><ele>204.0</ele><time>2026-04-26T08:35:18.478Z</time></trkpt><trkpt lat="44.6133441" lon="7.8829257"><ele>205.0</ele><time>2026-04-26T08:35:19.479Z</time></trkpt><trkpt lat="44.6131545" lon="7.8830276"><ele>205.0</ele><time>2026-04-26T08:35:20.478Z</time></trkpt><trkpt lat="44.6129602" lon="7.8831326"><ele>205.0</ele><time>2026-04-26T08:35:21.478Z</time></trkpt><trkpt lat="44.6127604" lon="7.8832408"><ele>205.0</ele><time>2026-04-26T08:35:22.48Z</time></trkpt><trkpt lat="44.6125556" lon="7.8833519"><ele>205.0</ele><time>2026-04-26T08:35:23.478Z</time></trkpt><trkpt lat="44.6123472" lon="7.8834651"><ele>205.0</ele><time>2026-04-26T08:35:24.476Z</time></trkpt><trkpt lat="44.6121362" lon="7.8835792"><ele>204.5</ele><time>2026-04-26T08:35:25.477Z</time></trkpt><trkpt lat="44.6119239" lon="7.8836935"><ele>204.0</ele><time>2026-04-26T08:35:26.475Z</time></trkpt><trkpt lat="44.6117118" lon="7.8838078"><ele>204.0</ele><time>2026-04-26T08:35:27.475Z</time></trkpt><trkpt lat="44.611501" lon="7.8839211"><ele>204.0</ele><time>2026-04-26T08:35:28.479Z</time></trkpt><trkpt lat="44.6112913" lon="7.8840339"><ele>204.66666666666669</ele><time>2026-04-26T08:35:29.48Z</time></trkpt><trkpt lat="44.6110819" lon="7.8841463"><ele>205.33333333333334</ele><time>2026-04-26T08:35:30.478Z</time></trkpt><trkpt lat="44.6108725" lon="7.8842589"><ele>206.0</ele><time>2026-04-26T08:35:31.479Z</time></trkpt><trkpt lat="44.6106632" lon="7.8843719"><ele>207.5</ele><time>2026-04-26T08:35:32.479Z</time></trkpt><trkpt lat="44.6104523" lon="7.8844853"><ele>209.0</ele><time>2026-04-26T08:35:33.48Z</time></trkpt><trkpt lat="44.6102405" lon="7.8845996"><ele>212.0</ele><time>2026-04-26T08:35:34.48Z</time></trkpt><trkpt lat="44.6100278" lon="7.8847148"><ele>215.0</ele><time>2026-04-26T08:35:35.479Z</time></trkpt><trkpt lat="44.6098136" lon="7.8848305"><ele>215.0</ele><time>2026-04-26T08:35:36.478Z</time></trkpt><trkpt lat="44.6095985" lon="7.8849455"><ele>215.0</ele><time>2026-04-26T08:35:37.478Z</time></trkpt><trkpt lat="44.6093839" lon="7.8850594"><ele>217.5</ele><time>2026-04-26T08:35:38.478Z</time></trkpt><trkpt lat="44.6091704" lon="7.885174"><ele>220.0</ele><time>2026-04-26T08:35:39.477Z</time></trkpt><trkpt lat="44.6089576" lon="7.8852914"><ele>220.0</ele><time>2026-04-26T08:35:40.478Z</time></trkpt><trkpt lat="44.608745" lon="7.8854061"><ele>220.0</ele><time>2026-04-26T08:35:41.479Z</time></trkpt><trkpt lat="44.6085329" lon="7.8855212"><ele>220.5</ele><time>2026-04-26T08:35:42.483Z</time></trkpt><trkpt lat="44.6083223" lon="7.885636"><ele>221.0</ele><time>2026-04-26T08:35:43.478Z</time></trkpt><trkpt lat="44.6081121" lon="7.8857501"><ele>221.0</ele><time>2026-04-26T08:35:44.477Z</time></trkpt><trkpt lat="44.6079023" lon="7.8858653"><ele>221.0</ele><time>2026-04-26T08:35:45.478Z</time></trkpt><trkpt lat="44.6076962" lon="7.8859808"><ele>221.0</ele><time>2026-04-26T08:35:46.478Z</time></trkpt><trkpt lat="44.6075027" lon="7.8860885"><ele>221.33333333333334</ele><time>2026-04-26T08:35:47.478Z</time></trkpt><trkpt lat="44.6073222" lon="7.886186"><ele>221.66666666666669</ele><time>2026-04-26T08:35:48.476Z</time></trkpt><trkpt lat="44.6071555" lon="7.8862742"><ele>222.0</ele><time>2026-04-26T08:35:49.475Z</time></trkpt><trkpt lat="44.6070045" lon="7.8863543"><ele>222.5</ele><time>2026-04-26T08:35:50.474Z</time></trkpt><trkpt lat="44.6068678" lon="7.8864277"><ele>223.0</ele><time>2026-04-26T08:35:51.478Z</time></trkpt><trkpt lat="44.6067382" lon="7.8864985"><ele>223.5</ele><time>2026-04-26T08:35:52.477Z</time></trkpt><trkpt lat="44.606616" lon="7.8865675"><ele>224.0</ele><time>2026-04-26T08:35:53.478Z</time></trkpt><trkpt lat="44.6065085" lon="7.8866302"><ele>224.00000000000003</ele><time>2026-04-26T08:35:54.479Z</time></trkpt><trkpt lat="44.6064212" lon="7.886684"><ele>224.0</ele><time>2026-04-26T08:35:55.478Z</time></trkpt><trkpt lat="44.6063543" lon="7.8867249"><ele>224.0</ele><time>2026-04-26T08:35:56.479Z</time></trkpt><trkpt lat="44.6062701" lon="7.8867071"><ele>224.0</ele><time>2026-04-26T08:35:58.479Z</time></trkpt><trkpt lat="44.6062484" lon="7.8865647"><ele>224.00000000000003</ele><time>2026-04-26T08:36:00.478Z</time></trkpt><trkpt lat="44.6062077" lon="7.8864752"><ele>224.0</ele><time>2026-04-26T08:36:02.478Z</time></trkpt><trkpt lat="44.6061048" lon="7.8865389"><ele>224.5</ele><time>2026-04-26T08:36:04.479Z</time></trkpt><trkpt lat="44.606024" lon="7.886631"><ele>225.0</ele><time>2026-04-26T08:36:05.478Z</time></trkpt><trkpt lat="44.6059225" lon="7.8867504"><ele>225.5</ele><time>2026-04-26T08:36:06.48Z</time></trkpt><trkpt lat="44.6058062" lon="7.8868858"><ele>226.0</ele><time>2026-04-26T08:36:07.478Z</time></trkpt><trkpt lat="44.6056828" lon="7.8870258"><ele>226.66666666666666</ele><time>2026-04-26T08:36:08.477Z</time></trkpt><trkpt lat="44.6055598" lon="7.887164"><ele>227.33333333333331</ele><time>2026-04-26T08:36:09.479Z</time></trkpt><trkpt lat="44.6054395" lon="7.8872995"><ele>228.0</ele><time>2026-04-26T08:36:10.48Z</time></trkpt><trkpt lat="44.6053194" lon="7.887433"><ele>228.25</ele><time>2026-04-26T08:36:11.479Z</time></trkpt><trkpt lat="44.6052015" lon="7.8875583"><ele>228.5</ele><time>2026-04-26T08:36:12.478Z</time></trkpt><trkpt lat="44.6050833" lon="7.8876761"><ele>228.75</ele><time>2026-04-26T08:36:13.476Z</time></trkpt><trkpt lat="44.6049619" lon="7.887791"><ele>229.0</ele><time>2026-04-26T08:36:14.477Z</time></trkpt><trkpt lat="44.6048361" lon="7.8879064"><ele>229.33333333333331</ele><time>2026-04-26T08:36:15.476Z</time></trkpt><trkpt lat="44.6047079" lon="7.8880234"><ele>229.66666666666669</ele><time>2026-04-26T08:36:16.478Z</time></trkpt><trkpt lat="44.6045784" lon="7.8881412"><ele>230.0</ele><time>2026-04-26T08:36:17.478Z</time></trkpt><trkpt lat="44.6044474" lon="7.8882602"><ele>230.0</ele><time>2026-04-26T08:36:18.478Z</time></trkpt><trkpt lat="44.6043153" lon="7.88838"><ele>230.0</ele><time>2026-04-26T08:36:19.48Z</time></trkpt><trkpt lat="44.6041839" lon="7.8884991"><ele>230.0</ele><time>2026-04-26T08:36:20.479Z</time></trkpt><trkpt lat="44.6040528" lon="7.8886174"><ele>230.0</ele><time>2026-04-26T08:36:21.481Z</time></trkpt><trkpt lat="44.6039222" lon="7.8887355"><ele>230.0</ele><time>2026-04-26T08:36:22.479Z</time></trkpt><trkpt lat="44.6037902" lon="7.888857"><ele>230.0</ele><time>2026-04-26T08:36:23.479Z</time></trkpt><trkpt lat="44.603661" lon="7.8889763"><ele>230.0</ele><time>2026-04-26T08:36:24.479Z</time></trkpt><trkpt lat="44.6035415" lon="7.8890867"><ele>230.0</ele><time>2026-04-26T08:36:25.479Z</time></trkpt><trkpt lat="44.6034282" lon="7.8891902"><ele>230.0</ele><time>2026-04-26T08:36:26.481Z</time></trkpt><trkpt lat="44.6033235" lon="7.889285"><ele>230.0</ele><time>2026-04-26T08:36:27.478Z</time></trkpt><trkpt lat="44.6032288" lon="7.8893738"><ele>230.00000000000003</ele><time>2026-04-26T08:36:28.479Z</time></trkpt><trkpt lat="44.6031448" lon="7.8894573"><ele>230.0</ele><time>2026-04-26T08:36:29.479Z</time></trkpt><trkpt lat="44.6030725" lon="7.8895318"><ele>230.0</ele><time>2026-04-26T08:36:30.479Z</time></trkpt><trkpt lat="44.6030125" lon="7.8895923"><ele>230.0</ele><time>2026-04-26T08:36:31.48Z</time></trkpt><trkpt lat="44.602925" lon="7.8896793"><ele>230.00000000000003</ele><time>2026-04-26T08:36:33.479Z</time></trkpt><trkpt lat="44.6028688" lon="7.8897443"><ele>230.0</ele><time>2026-04-26T08:36:35.478Z</time></trkpt><trkpt lat="44.6027808" lon="7.889861"><ele>230.0</ele><time>2026-04-26T08:36:37.476Z</time></trkpt><trkpt lat="44.6027" lon="7.8899488"><ele>230.0</ele><time>2026-04-26T08:36:38.476Z</time></trkpt><trkpt lat="44.6026022" lon="7.8900453"><ele>230.0</ele><time>2026-04-26T08:36:39.475Z</time></trkpt><trkpt lat="44.602486" lon="7.8901528"><ele>230.0</ele><time>2026-04-26T08:36:40.476Z</time></trkpt><trkpt lat="44.6023548" lon="7.8902728"><ele>230.66666666666669</ele><time>2026-04-26T08:36:41.477Z</time></trkpt><trkpt lat="44.6022152" lon="7.8904023"><ele>231.33333333333331</ele><time>2026-04-26T08:36:42.477Z</time></trkpt><trkpt lat="44.6020737" lon="7.8905322"><ele>232.0</ele><time>2026-04-26T08:36:43.478Z</time></trkpt><trkpt lat="44.6019223" lon="7.8906697"><ele>232.33333333333331</ele><time>2026-04-26T08:36:44.479Z</time></trkpt><trkpt lat="44.6017627" lon="7.8908102"><ele>232.66666666666669</ele><time>2026-04-26T08:36:45.477Z</time></trkpt><trkpt lat="44.601593" lon="7.8909468"><ele>233.0</ele><time>2026-04-26T08:36:46.479Z</time></trkpt><trkpt lat="44.6014165" lon="7.8910673"><ele>233.0</ele><time>2026-04-26T08:36:47.48Z</time></trkpt><trkpt lat="44.6012283" lon="7.8911698"><ele>233.0</ele><time>2026-04-26T08:36:48.479Z</time></trkpt><trkpt lat="44.6010305" lon="7.8912597"><ele>233.0</ele><time>2026-04-26T08:36:49.478Z</time></trkpt><trkpt lat="44.6008253" lon="7.8913452"><ele>232.0</ele><time>2026-04-26T08:36:50.478Z</time></trkpt><trkpt lat="44.6006152" lon="7.8914332"><ele>231.0</ele><time>2026-04-26T08:36:51.478Z</time></trkpt><trkpt lat="44.6004002" lon="7.8915237"><ele>230.0</ele><time>2026-04-26T08:36:52.479Z</time></trkpt><trkpt lat="44.6001823" lon="7.891615"><ele>229.5</ele><time>2026-04-26T08:36:53.479Z</time></trkpt><trkpt lat="44.5999633" lon="7.8917072"><ele>229.0</ele><time>2026-04-26T08:36:54.477Z</time></trkpt><trkpt lat="44.5997475" lon="7.8917985"><ele>229.33333333333331</ele><time>2026-04-26T08:36:55.479Z</time></trkpt><trkpt lat="44.5995447" lon="7.8918843"><ele>229.66666666666669</ele><time>2026-04-26T08:36:56.479Z</time></trkpt><trkpt lat="44.5993548" lon="7.8919645"><ele>230.0</ele><time>2026-04-26T08:36:57.478Z</time></trkpt><trkpt lat="44.5991765" lon="7.8920375"><ele>230.0</ele><time>2026-04-26T08:36:58.479Z</time></trkpt><trkpt lat="44.5990088" lon="7.8921005"><ele>230.0</ele><time>2026-04-26T08:36:59.479Z</time></trkpt><trkpt lat="44.5988423" lon="7.892152"><ele>230.0</ele><time>2026-04-26T08:37:00.478Z</time></trkpt><trkpt lat="44.598686" lon="7.892184"><ele>229.25</ele><time>2026-04-26T08:37:01.48Z</time></trkpt><trkpt lat="44.5985527" lon="7.8921962"><ele>228.5</ele><time>2026-04-26T08:37:02.476Z</time></trkpt><trkpt lat="44.5984367" lon="7.892194"><ele>227.75</ele><time>2026-04-26T08:37:03.476Z</time></trkpt><trkpt lat="44.5983325" lon="7.8921862"><ele>227.0</ele><time>2026-04-26T08:37:04.477Z</time></trkpt><trkpt lat="44.5982368" lon="7.892196"><ele>227.0</ele><time>2026-04-26T08:37:05.476Z</time></trkpt><trkpt lat="44.5981403" lon="7.8922475"><ele>227.0</ele><time>2026-04-26T08:37:06.477Z</time></trkpt><trkpt lat="44.5980387" lon="7.8923425"><ele>227.0</ele><time>2026-04-26T08:37:07.48Z</time></trkpt><trkpt lat="44.5979302" lon="7.8924693"><ele>227.0</ele><time>2026-04-26T08:37:08.478Z</time></trkpt><trkpt lat="44.5978225" lon="7.8926202"><ele>226.0</ele><time>2026-04-26T08:37:09.478Z</time></trkpt><trkpt lat="44.5977147" lon="7.8927977"><ele>225.0</ele><time>2026-04-26T08:37:10.477Z</time></trkpt><trkpt lat="44.5976052" lon="7.8929843"><ele>224.0</ele><time>2026-04-26T08:37:11.479Z</time></trkpt><trkpt lat="44.5974918" lon="7.8931683"><ele>224.0</ele><time>2026-04-26T08:37:12.48Z</time></trkpt><trkpt lat="44.597375" lon="7.8933475"><ele>224.0</ele><time>2026-04-26T08:37:13.48Z</time></trkpt><trkpt lat="44.5972508" lon="7.8935197"><ele>224.0</ele><time>2026-04-26T08:37:14.479Z</time></trkpt><trkpt lat="44.597111" lon="7.8936873"><ele>225.33333333333334</ele><time>2026-04-26T08:37:15.478Z</time></trkpt><trkpt lat="44.596966" lon="7.8938478"><ele>226.66666666666669</ele><time>2026-04-26T08:37:16.48Z</time></trkpt><trkpt lat="44.5968158" lon="7.8940128"><ele>228.0</ele><time>2026-04-26T08:37:17.478Z</time></trkpt><trkpt lat="44.5966622" lon="7.8941792"><ele>228.66666666666669</ele><time>2026-04-26T08:37:18.479Z</time></trkpt><trkpt lat="44.5965085" lon="7.8943478"><ele>229.33333333333334</ele><time>2026-04-26T08:37:19.477Z</time></trkpt><trkpt lat="44.5963602" lon="7.8945043"><ele>230.0</ele><time>2026-04-26T08:37:20.477Z</time></trkpt><trkpt lat="44.5962177" lon="7.8946523"><ele>230.66666666666669</ele><time>2026-04-26T08:37:21.476Z</time></trkpt><trkpt lat="44.5960753" lon="7.894804"><ele>231.33333333333331</ele><time>2026-04-26T08:37:22.478Z</time></trkpt><trkpt lat="44.5959322" lon="7.8949587"><ele>232.0</ele><time>2026-04-26T08:37:23.477Z</time></trkpt><trkpt lat="44.595789" lon="7.8951205"><ele>232.0</ele><time>2026-04-26T08:37:24.477Z</time></trkpt><trkpt lat="44.595649" lon="7.895292"><ele>232.0</ele><time>2026-04-26T08:37:25.478Z</time></trkpt><trkpt lat="44.5955155" lon="7.8954612"><ele>232.0</ele><time>2026-04-26T08:37:26.476Z</time></trkpt><trkpt lat="44.5953823" lon="7.8956238"><ele>229.0</ele><time>2026-04-26T08:37:27.474Z</time></trkpt><trkpt lat="44.5952453" lon="7.8957872"><ele>226.0</ele><time>2026-04-26T08:37:28.474Z</time></trkpt><trkpt lat="44.5951083" lon="7.8959533"><ele>223.0</ele><time>2026-04-26T08:37:29.478Z</time></trkpt><trkpt lat="44.5949705" lon="7.8961242"><ele>223.0</ele><time>2026-04-26T08:37:30.476Z</time></trkpt><trkpt lat="44.5948323" lon="7.8962962"><ele>223.0</ele><time>2026-04-26T08:37:31.476Z</time></trkpt><trkpt lat="44.5946958" lon="7.8964648"><ele>223.0</ele><time>2026-04-26T08:37:32.48Z</time></trkpt><trkpt lat="44.5945602" lon="7.8966308"><ele>222.66666666666666</ele><time>2026-04-26T08:37:33.477Z</time></trkpt><trkpt lat="44.5944247" lon="7.8967987"><ele>222.33333333333331</ele><time>2026-04-26T08:37:34.477Z</time></trkpt><trkpt lat="44.5942922" lon="7.8969663"><ele>222.0</ele><time>2026-04-26T08:37:35.478Z</time></trkpt><trkpt lat="44.594159" lon="7.8971297"><ele>222.0</ele><time>2026-04-26T08:37:36.477Z</time></trkpt><trkpt lat="44.5940168" lon="7.8972823"><ele>222.0</ele><time>2026-04-26T08:37:37.476Z</time></trkpt><trkpt lat="44.5938592" lon="7.8974192"><ele>222.0</ele><time>2026-04-26T08:37:38.478Z</time></trkpt><trkpt lat="44.5936887" lon="7.8975402"><ele>222.33333333333331</ele><time>2026-04-26T08:37:39.477Z</time></trkpt><trkpt lat="44.593522" lon="7.8976427"><ele>222.66666666666666</ele><time>2026-04-26T08:37:40.477Z</time></trkpt><trkpt lat="44.593357" lon="7.8977305"><ele>223.0</ele><time>2026-04-26T08:37:41.479Z</time></trkpt><trkpt lat="44.5931967" lon="7.8978113"><ele>223.0</ele><time>2026-04-26T08:37:42.48Z</time></trkpt><trkpt lat="44.5930537" lon="7.8978958"><ele>223.0</ele><time>2026-04-26T08:37:43.478Z</time></trkpt><trkpt lat="44.592927" lon="7.897984"><ele>223.0</ele><time>2026-04-26T08:37:44.479Z</time></trkpt><trkpt lat="44.5928145" lon="7.8980717"><ele>223.0</ele><time>2026-04-26T08:37:45.479Z</time></trkpt><trkpt lat="44.5927113" lon="7.8981553"><ele>223.0</ele><time>2026-04-26T08:37:46.478Z</time></trkpt><trkpt lat="44.5926162" lon="7.8982317"><ele>223.0</ele><time>2026-04-26T08:37:47.479Z</time></trkpt><trkpt lat="44.5925255" lon="7.8983043"><ele>223.0</ele><time>2026-04-26T08:37:48.479Z</time></trkpt><trkpt lat="44.592432" lon="7.8983767"><ele>223.0</ele><time>2026-04-26T08:37:49.477Z</time></trkpt><trkpt lat="44.592339" lon="7.8984453"><ele>223.0</ele><time>2026-04-26T08:37:50.478Z</time></trkpt><trkpt lat="44.5922458" lon="7.8985108"><ele>222.60000000000002</ele><time>2026-04-26T08:37:51.476Z</time></trkpt><trkpt lat="44.5921515" lon="7.8985742"><ele>222.20000000000002</ele><time>2026-04-26T08:37:52.476Z</time></trkpt><trkpt lat="44.5920668" lon="7.8986313"><ele>221.8</ele><time>2026-04-26T08:37:53.476Z</time></trkpt><trkpt lat="44.5919972" lon="7.89868"><ele>221.4</ele><time>2026-04-26T08:37:54.475Z</time></trkpt><trkpt lat="44.5918888" lon="7.8987528"><ele>221.0</ele><time>2026-04-26T08:37:56.482Z</time></trkpt><trkpt lat="44.5917715" lon="7.8988193"><ele>221.00000000000003</ele><time>2026-04-26T08:37:58.478Z</time></trkpt><trkpt lat="44.5917077" lon="7.8988568"><ele>221.0</ele><time>2026-04-26T08:37:59.479Z</time></trkpt><trkpt lat="44.5916468" lon="7.8988935"><ele>221.0</ele><time>2026-04-26T08:38:00.477Z</time></trkpt><trkpt lat="44.5915887" lon="7.8989287"><ele>221.0</ele><time>2026-04-26T08:38:01.478Z</time></trkpt><trkpt lat="44.5915277" lon="7.8989652"><ele>221.0</ele><time>2026-04-26T08:38:02.481Z</time></trkpt><trkpt lat="44.591456" lon="7.899008"><ele>221.00000000000003</ele><time>2026-04-26T08:38:03.477Z</time></trkpt><trkpt lat="44.591374" lon="7.8990558"><ele>221.0</ele><time>2026-04-26T08:38:04.478Z</time></trkpt><trkpt lat="44.5912853" lon="7.8991072"><ele>221.0</ele><time>2026-04-26T08:38:05.477Z</time></trkpt><trkpt lat="44.5911948" lon="7.8991603"><ele>221.00000000000003</ele><time>2026-04-26T08:38:06.476Z</time></trkpt><trkpt lat="44.5911047" lon="7.8992137"><ele>221.00000000000003</ele><time>2026-04-26T08:38:07.475Z</time></trkpt><trkpt lat="44.5910123" lon="7.8992683"><ele>221.0</ele><time>2026-04-26T08:38:08.475Z</time></trkpt><trkpt lat="44.5909162" lon="7.8993233"><ele>221.0</ele><time>2026-04-26T08:38:09.475Z</time></trkpt><trkpt lat="44.5908157" lon="7.8993777"><ele>221.25</ele><time>2026-04-26T08:38:10.477Z</time></trkpt><trkpt lat="44.5907102" lon="7.8994325"><ele>221.5</ele><time>2026-04-26T08:38:11.477Z</time></trkpt><trkpt lat="44.5906" lon="7.8994895"><ele>221.75</ele><time>2026-04-26T08:38:12.479Z</time></trkpt><trkpt lat="44.5904903" lon="7.899546"><ele>222.0</ele><time>2026-04-26T08:38:13.475Z</time></trkpt><trkpt lat="44.5903763" lon="7.899604"><ele>222.0</ele><time>2026-04-26T08:38:14.477Z</time></trkpt><trkpt lat="44.5902615" lon="7.8996638"><ele>222.0</ele><time>2026-04-26T08:38:15.478Z</time></trkpt><trkpt lat="44.5901553" lon="7.8997213"><ele>222.0</ele><time>2026-04-26T08:38:16.475Z</time></trkpt><trkpt lat="44.5900578" lon="7.8997765"><ele>222.0</ele><time>2026-04-26T08:38:17.475Z</time></trkpt><trkpt lat="44.589965" lon="7.899833"><ele>222.0</ele><time>2026-04-26T08:38:18.476Z</time></trkpt><trkpt lat="44.5898775" lon="7.8998907"><ele>222.0</ele><time>2026-04-26T08:38:19.476Z</time></trkpt><trkpt lat="44.5897957" lon="7.8999505"><ele>222.0</ele><time>2026-04-26T08:38:20.479Z</time></trkpt><trkpt lat="44.5897128" lon="7.9000157"><ele>222.0</ele><time>2026-04-26T08:38:21.477Z</time></trkpt><trkpt lat="44.5896283" lon="7.900088"><ele>222.0</ele><time>2026-04-26T08:38:22.48Z</time></trkpt><trkpt lat="44.589545" lon="7.9001633"><ele>222.0</ele><time>2026-04-26T08:38:23.478Z</time></trkpt><trkpt lat="44.589462" lon="7.9002408"><ele>222.2</ele><time>2026-04-26T08:38:24.478Z</time></trkpt><trkpt lat="44.5893807" lon="7.900322"><ele>222.39999999999998</ele><time>2026-04-26T08:38:25.478Z</time></trkpt><trkpt lat="44.5893025" lon="7.9004093"><ele>222.60000000000002</ele><time>2026-04-26T08:38:26.478Z</time></trkpt><trkpt lat="44.5892293" lon="7.9005038"><ele>222.8</ele><time>2026-04-26T08:38:27.478Z</time></trkpt><trkpt lat="44.5891655" lon="7.9005997"><ele>223.0</ele><time>2026-04-26T08:38:28.479Z</time></trkpt><trkpt lat="44.5891092" lon="7.900693"><ele>222.99999999999997</ele><time>2026-04-26T08:38:29.479Z</time></trkpt><trkpt lat="44.5890563" lon="7.9007895"><ele>223.0</ele><time>2026-04-26T08:38:30.478Z</time></trkpt><trkpt lat="44.5890027" lon="7.9008913"><ele>223.0</ele><time>2026-04-26T08:38:31.48Z</time></trkpt><trkpt lat="44.588947" lon="7.9009933"><ele>223.0</ele><time>2026-04-26T08:38:32.478Z</time></trkpt><trkpt lat="44.5888917" lon="7.9010898"><ele>222.99999999999997</ele><time>2026-04-26T08:38:33.481Z</time></trkpt><trkpt lat="44.5888298" lon="7.9011858"><ele>223.0</ele><time>2026-04-26T08:38:34.479Z</time></trkpt><trkpt lat="44.5887573" lon="7.9012805"><ele>222.5</ele><time>2026-04-26T08:38:35.479Z</time></trkpt><trkpt lat="44.5886718" lon="7.901371"><ele>222.0</ele><time>2026-04-26T08:38:36.479Z</time></trkpt><trkpt lat="44.5885738" lon="7.9014527"><ele>221.5</ele><time>2026-04-26T08:38:37.478Z</time></trkpt><trkpt lat="44.588469" lon="7.9015375"><ele>221.0</ele><time>2026-04-26T08:38:38.479Z</time></trkpt><trkpt lat="44.5883632" lon="7.9016275"><ele>221.0</ele><time>2026-04-26T08:38:39.477Z</time></trkpt><trkpt lat="44.5882637" lon="7.9017115"><ele>221.0</ele><time>2026-04-26T08:38:40.474Z</time></trkpt><trkpt lat="44.5881615" lon="7.9018"><ele>221.0</ele><time>2026-04-26T08:38:41.475Z</time></trkpt><trkpt lat="44.5880597" lon="7.9018918"><ele>221.0</ele><time>2026-04-26T08:38:42.474Z</time></trkpt><trkpt lat="44.5879562" lon="7.9019862"><ele>221.75</ele><time>2026-04-26T08:38:43.476Z</time></trkpt><trkpt lat="44.587851" lon="7.9020802"><ele>222.5</ele><time>2026-04-26T08:38:44.479Z</time></trkpt><trkpt lat="44.5877475" lon="7.9021747"><ele>223.25</ele><time>2026-04-26T08:38:45.48Z</time></trkpt><trkpt lat="44.587644" lon="7.9022662"><ele>224.0</ele><time>2026-04-26T08:38:46.486Z</time></trkpt><trkpt lat="44.5875367" lon="7.9023527"><ele>224.0</ele><time>2026-04-26T08:38:47.48Z</time></trkpt><trkpt lat="44.587424" lon="7.9024357"><ele>224.0</ele><time>2026-04-26T08:38:48.478Z</time></trkpt><trkpt lat="44.587307" lon="7.9025135"><ele>224.0</ele><time>2026-04-26T08:38:49.479Z</time></trkpt><trkpt lat="44.5871888" lon="7.9025845"><ele>224.0</ele><time>2026-04-26T08:38:50.478Z</time></trkpt><trkpt lat="44.5870742" lon="7.9026477"><ele>224.5</ele><time>2026-04-26T08:38:51.477Z</time></trkpt><trkpt lat="44.5869643" lon="7.9027088"><ele>225.0</ele><time>2026-04-26T08:38:52.477Z</time></trkpt><trkpt lat="44.5868543" lon="7.9027563"><ele>225.5</ele><time>2026-04-26T08:38:53.482Z</time></trkpt><trkpt lat="44.586739" lon="7.9027887"><ele>226.0</ele><time>2026-04-26T08:38:54.478Z</time></trkpt><trkpt lat="44.5866195" lon="7.9028122"><ele>226.0</ele><time>2026-04-26T08:38:55.478Z</time></trkpt><trkpt lat="44.5865045" lon="7.9028402"><ele>226.0</ele><time>2026-04-26T08:38:56.479Z</time></trkpt><trkpt lat="44.5863935" lon="7.9028785"><ele>226.0</ele><time>2026-04-26T08:38:57.479Z</time></trkpt><trkpt lat="44.586284" lon="7.9029208"><ele>226.0</ele><time>2026-04-26T08:38:58.478Z</time></trkpt><trkpt lat="44.5861765" lon="7.9029615"><ele>226.75</ele><time>2026-04-26T08:38:59.479Z</time></trkpt><trkpt lat="44.5860708" lon="7.9030047"><ele>227.5</ele><time>2026-04-26T08:39:00.479Z</time></trkpt><trkpt lat="44.585962" lon="7.9030523"><ele>228.25</ele><time>2026-04-26T08:39:01.479Z</time></trkpt><trkpt lat="44.5858507" lon="7.9031008"><ele>229.0</ele><time>2026-04-26T08:39:02.479Z</time></trkpt><trkpt lat="44.5857437" lon="7.9031473"><ele>229.0</ele><time>2026-04-26T08:39:03.479Z</time></trkpt><trkpt lat="44.5856442" lon="7.9031905"><ele>228.99999999999997</ele><time>2026-04-26T08:39:04.477Z</time></trkpt><trkpt lat="44.5855522" lon="7.9032322"><ele>228.99999999999997</ele><time>2026-04-26T08:39:05.477Z</time></trkpt><trkpt lat="44.5854707" lon="7.903276"><ele>229.0</ele><time>2026-04-26T08:39:06.476Z</time></trkpt><trkpt lat="44.585393" lon="7.90333"><ele>229.0</ele><time>2026-04-26T08:39:07.475Z</time></trkpt><trkpt lat="44.5853163" lon="7.9033915"><ele>229.33333333333331</ele><time>2026-04-26T08:39:08.475Z</time></trkpt><trkpt lat="44.5852535" lon="7.9034388"><ele>229.66666666666666</ele><time>2026-04-26T08:39:09.478Z</time></trkpt><trkpt lat="44.5851677" lon="7.903488"><ele>230.0</ele><time>2026-04-26T08:39:11.479Z</time></trkpt><trkpt lat="44.5851037" lon="7.9035047"><ele>230.33333333333331</ele><time>2026-04-26T08:39:15.479Z</time></trkpt><trkpt lat="44.5850307" lon="7.9034318"><ele>230.66666666666666</ele><time>2026-04-26T08:39:18.479Z</time></trkpt><trkpt lat="44.5849683" lon="7.9033038"><ele>231.0</ele><time>2026-04-26T08:39:20.476Z</time></trkpt><trkpt lat="44.5848918" lon="7.9031863"><ele>231.0</ele><time>2026-04-26T08:39:22.481Z</time></trkpt><trkpt lat="44.5848187" lon="7.9030817"><ele>231.00000000000003</ele><time>2026-04-26T08:39:24.478Z</time></trkpt><trkpt lat="44.5847392" lon="7.9029853"><ele>231.00000000000003</ele><time>2026-04-26T08:39:26.478Z</time></trkpt><trkpt lat="44.584664" lon="7.9029075"><ele>231.0</ele><time>2026-04-26T08:39:28.478Z</time></trkpt><trkpt lat="44.5845987" lon="7.9028398"><ele>231.0</ele><time>2026-04-26T08:39:31.475Z</time></trkpt><trkpt lat="44.584508" lon="7.902831"><ele>230.0</ele><time>2026-04-26T08:39:36.474Z</time></trkpt><trkpt lat="44.5844432" lon="7.9028838"><ele>229.00000000000003</ele><time>2026-04-26T08:39:37.476Z</time></trkpt><trkpt lat="44.5843762" lon="7.9029728"><ele>228.00000000000003</ele><time>2026-04-26T08:39:38.476Z</time></trkpt><trkpt lat="44.5843127" lon="7.9030787"><ele>227.0</ele><time>2026-04-26T08:39:39.475Z</time></trkpt><trkpt lat="44.5842445" lon="7.903191"><ele>226.0</ele><time>2026-04-26T08:39:40.475Z</time></trkpt><trkpt lat="44.5841657" lon="7.9033218"><ele>227.0</ele><time>2026-04-26T08:39:41.474Z</time></trkpt><trkpt lat="44.5840862" lon="7.9034657"><ele>228.0</ele><time>2026-04-26T08:39:42.474Z</time></trkpt><trkpt lat="44.5840153" lon="7.9036063"><ele>229.0</ele><time>2026-04-26T08:39:43.479Z</time></trkpt><trkpt lat="44.5839482" lon="7.9037585"><ele>230.0</ele><time>2026-04-26T08:39:44.476Z</time></trkpt><trkpt lat="44.5838807" lon="7.9039235"><ele>230.0</ele><time>2026-04-26T08:39:45.478Z</time></trkpt><trkpt lat="44.5838023" lon="7.9041195"><ele>230.0</ele><time>2026-04-26T08:39:46.477Z</time></trkpt><trkpt lat="44.5837018" lon="7.9043425"><ele>230.0</ele><time>2026-04-26T08:39:47.478Z</time></trkpt><trkpt lat="44.5835785" lon="7.9045743"><ele>228.66666666666669</ele><time>2026-04-26T08:39:48.478Z</time></trkpt><trkpt lat="44.5834415" lon="7.9048085"><ele>227.33333333333331</ele><time>2026-04-26T08:39:49.478Z</time></trkpt><trkpt lat="44.5832982" lon="7.9050553"><ele>226.0</ele><time>2026-04-26T08:39:50.478Z</time></trkpt><trkpt lat="44.583155" lon="7.9053107"><ele>226.0</ele><time>2026-04-26T08:39:51.478Z</time></trkpt><trkpt lat="44.583015" lon="7.9055697"><ele>226.0</ele><time>2026-04-26T08:39:52.479Z</time></trkpt><trkpt lat="44.5828737" lon="7.9058365"><ele>225.0</ele><time>2026-04-26T08:39:53.479Z</time></trkpt><trkpt lat="44.5827312" lon="7.9061027"><ele>224.0</ele><time>2026-04-26T08:39:54.478Z</time></trkpt><trkpt lat="44.582587" lon="7.906366"><ele>224.0</ele><time>2026-04-26T08:39:55.477Z</time></trkpt><trkpt lat="44.5824433" lon="7.9066285"><ele>224.0</ele><time>2026-04-26T08:39:56.478Z</time></trkpt><trkpt lat="44.5822998" lon="7.906888"><ele>224.5</ele><time>2026-04-26T08:39:57.475Z</time></trkpt><trkpt lat="44.5821585" lon="7.9071395"><ele>225.0</ele><time>2026-04-26T08:39:58.478Z</time></trkpt><trkpt lat="44.5820157" lon="7.9073825"><ele>224.33333333333331</ele><time>2026-04-26T08:39:59.478Z</time></trkpt><trkpt lat="44.5818748" lon="7.907609"><ele>223.66666666666666</ele><time>2026-04-26T08:40:00.478Z</time></trkpt><trkpt lat="44.581738" lon="7.9078155"><ele>223.0</ele><time>2026-04-26T08:40:01.478Z</time></trkpt><trkpt lat="44.5816055" lon="7.9080035"><ele>223.0</ele><time>2026-04-26T08:40:02.478Z</time></trkpt><trkpt lat="44.58148" lon="7.9081713"><ele>223.0</ele><time>2026-04-26T08:40:03.48Z</time></trkpt><trkpt lat="44.5813602" lon="7.9083212"><ele>223.0</ele><time>2026-04-26T08:40:04.481Z</time></trkpt><trkpt lat="44.5812487" lon="7.9084475"><ele>223.4</ele><time>2026-04-26T08:40:05.48Z</time></trkpt><trkpt lat="44.581145" lon="7.908545"><ele>223.8</ele><time>2026-04-26T08:40:06.477Z</time></trkpt><trkpt lat="44.5810432" lon="7.9086045"><ele>224.2</ele><time>2026-04-26T08:40:07.478Z</time></trkpt><trkpt lat="44.580936" lon="7.9086307"><ele>224.6</ele><time>2026-04-26T08:40:08.478Z</time></trkpt><trkpt lat="44.5808367" lon="7.9086563"><ele>225.0</ele><time>2026-04-26T08:40:09.478Z</time></trkpt><trkpt lat="44.5807552" lon="7.9087098"><ele>225.0</ele><time>2026-04-26T08:40:10.478Z</time></trkpt><trkpt lat="44.5807008" lon="7.9087978"><ele>225.0</ele><time>2026-04-26T08:40:11.478Z</time></trkpt><trkpt lat="44.5806767" lon="7.9089162"><ele>225.0</ele><time>2026-04-26T08:40:12.477Z</time></trkpt><trkpt lat="44.5806778" lon="7.9090583"><ele>225.0</ele><time>2026-04-26T08:40:13.482Z</time></trkpt><trkpt lat="44.5806745" lon="7.909225"><ele>225.0</ele><time>2026-04-26T08:40:14.479Z</time></trkpt><trkpt lat="44.5806425" lon="7.9094152"><ele>225.33333333333331</ele><time>2026-04-26T08:40:15.479Z</time></trkpt><trkpt lat="44.5805797" lon="7.9096103"><ele>225.66666666666666</ele><time>2026-04-26T08:40:16.479Z</time></trkpt><trkpt lat="44.580489" lon="7.9097832"><ele>226.0</ele><time>2026-04-26T08:40:17.48Z</time></trkpt><trkpt lat="44.5803702" lon="7.9099492"><ele>226.33333333333331</ele><time>2026-04-26T08:40:18.476Z</time></trkpt><trkpt lat="44.5802352" lon="7.9101188"><ele>226.66666666666669</ele><time>2026-04-26T08:40:19.477Z</time></trkpt><trkpt lat="44.5800938" lon="7.9102945"><ele>227.0</ele><time>2026-04-26T08:40:20.476Z</time></trkpt><trkpt lat="44.5799558" lon="7.9104668"><ele>227.0</ele><time>2026-04-26T08:40:21.475Z</time></trkpt><trkpt lat="44.5798165" lon="7.9106403"><ele>227.0</ele><time>2026-04-26T08:40:22.478Z</time></trkpt><trkpt lat="44.5796798" lon="7.9108105"><ele>227.0</ele><time>2026-04-26T08:40:23.479Z</time></trkpt><trkpt lat="44.5795445" lon="7.910979"><ele>227.33333333333334</ele><time>2026-04-26T08:40:24.479Z</time></trkpt><trkpt lat="44.5794088" lon="7.911147"><ele>227.66666666666669</ele><time>2026-04-26T08:40:25.48Z</time></trkpt><trkpt lat="44.5792735" lon="7.9113142"><ele>228.0</ele><time>2026-04-26T08:40:26.477Z</time></trkpt><trkpt lat="44.5791413" lon="7.9114787"><ele>228.0</ele><time>2026-04-26T08:40:27.479Z</time></trkpt><trkpt lat="44.5790165" lon="7.9116352"><ele>228.0</ele><time>2026-04-26T08:40:28.479Z</time></trkpt><trkpt lat="44.5789003" lon="7.9117813"><ele>228.0</ele><time>2026-04-26T08:40:29.478Z</time></trkpt><trkpt lat="44.5787908" lon="7.9119172"><ele>228.0</ele><time>2026-04-26T08:40:30.475Z</time></trkpt><trkpt lat="44.5786807" lon="7.9120523"><ele>228.0</ele><time>2026-04-26T08:40:31.476Z</time></trkpt><trkpt lat="44.5785717" lon="7.912186"><ele>228.0</ele><time>2026-04-26T08:40:32.476Z</time></trkpt><trkpt lat="44.578467" lon="7.9123182"><ele>228.0</ele><time>2026-04-26T08:40:33.475Z</time></trkpt><trkpt lat="44.5783655" lon="7.9124487"><ele>229.5</ele><time>2026-04-26T08:40:34.478Z</time></trkpt><trkpt lat="44.5782632" lon="7.912579"><ele>231.0</ele><time>2026-04-26T08:40:35.475Z</time></trkpt><trkpt lat="44.5781603" lon="7.9127087"><ele>232.5</ele><time>2026-04-26T08:40:36.477Z</time></trkpt><trkpt lat="44.5780543" lon="7.9128347"><ele>234.0</ele><time>2026-04-26T08:40:37.477Z</time></trkpt><trkpt lat="44.5779472" lon="7.9129575"><ele>234.0</ele><time>2026-04-26T08:40:38.479Z</time></trkpt><trkpt lat="44.5778407" lon="7.9130802"><ele>234.0</ele><time>2026-04-26T08:40:39.477Z</time></trkpt><trkpt lat="44.5777348" lon="7.9132077"><ele>234.0</ele><time>2026-04-26T08:40:40.479Z</time></trkpt><trkpt lat="44.57763" lon="7.9133423"><ele>234.0</ele><time>2026-04-26T08:40:41.478Z</time></trkpt><trkpt lat="44.5775258" lon="7.913482"><ele>234.0</ele><time>2026-04-26T08:40:42.475Z</time></trkpt><trkpt lat="44.5774198" lon="7.9136252"><ele>234.0</ele><time>2026-04-26T08:40:43.475Z</time></trkpt><trkpt lat="44.5773118" lon="7.9137677"><ele>234.0</ele><time>2026-04-26T08:40:44.477Z</time></trkpt><trkpt lat="44.5772007" lon="7.9139103"><ele>234.0</ele><time>2026-04-26T08:40:45.473Z</time></trkpt><trkpt lat="44.5770842" lon="7.914057"><ele>233.0</ele><time>2026-04-26T08:40:46.476Z</time></trkpt><trkpt lat="44.5769625" lon="7.9142068"><ele>232.0</ele><time>2026-04-26T08:40:47.477Z</time></trkpt><trkpt lat="44.5768395" lon="7.9143585"><ele>231.0</ele><time>2026-04-26T08:40:48.477Z</time></trkpt><trkpt lat="44.5767158" lon="7.9145102"><ele>231.0</ele><time>2026-04-26T08:40:49.476Z</time></trkpt><trkpt lat="44.5765925" lon="7.9146623"><ele>231.0</ele><time>2026-04-26T08:40:50.478Z</time></trkpt><trkpt lat="44.5764685" lon="7.9148137"><ele>231.0</ele><time>2026-04-26T08:40:51.477Z</time></trkpt><trkpt lat="44.5763457" lon="7.9149642"><ele>230.66666666666669</ele><time>2026-04-26T08:40:52.478Z</time></trkpt><trkpt lat="44.5762237" lon="7.9151135"><ele>230.33333333333334</ele><time>2026-04-26T08:40:53.477Z</time></trkpt><trkpt lat="44.5761035" lon="7.9152617"><ele>230.0</ele><time>2026-04-26T08:40:54.479Z</time></trkpt><trkpt lat="44.5759858" lon="7.9154087"><ele>230.0</ele><time>2026-04-26T08:40:55.479Z</time></trkpt><trkpt lat="44.5758695" lon="7.9155542"><ele>230.0</ele><time>2026-04-26T08:40:56.478Z</time></trkpt><trkpt lat="44.5757542" lon="7.9157003"><ele>230.0</ele><time>2026-04-26T08:40:57.477Z</time></trkpt><trkpt lat="44.5756387" lon="7.9158463"><ele>229.25</ele><time>2026-04-26T08:40:58.479Z</time></trkpt><trkpt lat="44.5755265" lon="7.915988"><ele>228.5</ele><time>2026-04-26T08:40:59.477Z</time></trkpt><trkpt lat="44.5754205" lon="7.91612"><ele>227.75</ele><time>2026-04-26T08:41:00.476Z</time></trkpt><trkpt lat="44.5753187" lon="7.9162445"><ele>227.0</ele><time>2026-04-26T08:41:01.479Z</time></trkpt><trkpt lat="44.5752125" lon="7.9163615"><ele>227.0</ele><time>2026-04-26T08:41:02.477Z</time></trkpt><trkpt lat="44.5750955" lon="7.9164553"><ele>227.0</ele><time>2026-04-26T08:41:03.463Z</time></trkpt><trkpt lat="44.5749643" lon="7.9165208"><ele>227.0</ele><time>2026-04-26T08:41:04.476Z</time></trkpt><trkpt lat="44.5748188" lon="7.9165627"><ele>227.0</ele><time>2026-04-26T08:41:05.478Z</time></trkpt><trkpt lat="44.5746702" lon="7.9165935"><ele>227.0</ele><time>2026-04-26T08:41:06.477Z</time></trkpt><trkpt lat="44.5745255" lon="7.9166202"><ele>227.0</ele><time>2026-04-26T08:41:07.474Z</time></trkpt><trkpt lat="44.5743852" lon="7.9166448"><ele>227.0</ele><time>2026-04-26T08:41:08.476Z</time></trkpt><trkpt lat="44.5742467" lon="7.9166688"><ele>227.0</ele><time>2026-04-26T08:41:09.475Z</time></trkpt><trkpt lat="44.574109" lon="7.9166927"><ele>227.0</ele><time>2026-04-26T08:41:10.476Z</time></trkpt><trkpt lat="44.5739728" lon="7.9167165"><ele>227.0</ele><time>2026-04-26T08:41:11.476Z</time></trkpt><trkpt lat="44.5738362" lon="7.9167408"><ele>227.0</ele><time>2026-04-26T08:41:12.479Z</time></trkpt><trkpt lat="44.5736957" lon="7.9167645"><ele>227.0</ele><time>2026-04-26T08:41:13.478Z</time></trkpt><trkpt lat="44.5735527" lon="7.9167888"><ele>228.25</ele><time>2026-04-26T08:41:14.477Z</time></trkpt><trkpt lat="44.5734097" lon="7.9168143"><ele>229.5</ele><time>2026-04-26T08:41:15.474Z</time></trkpt><trkpt lat="44.5732687" lon="7.9168375"><ele>230.75</ele><time>2026-04-26T08:41:16.479Z</time></trkpt><trkpt lat="44.5731298" lon="7.91686"><ele>232.0</ele><time>2026-04-26T08:41:17.476Z</time></trkpt><trkpt lat="44.5729888" lon="7.9168845"><ele>232.0</ele><time>2026-04-26T08:41:18.478Z</time></trkpt><trkpt lat="44.572846" lon="7.9169108"><ele>232.0</ele><time>2026-04-26T08:41:19.481Z</time></trkpt><trkpt lat="44.572703" lon="7.9169403"><ele>232.0</ele><time>2026-04-26T08:41:20.478Z</time></trkpt><trkpt lat="44.572558" lon="7.9169713"><ele>232.0</ele><time>2026-04-26T08:41:21.476Z</time></trkpt><trkpt lat="44.5724112" lon="7.9170042"><ele>232.0</ele><time>2026-04-26T08:41:22.477Z</time></trkpt><trkpt lat="44.5722648" lon="7.9170428"><ele>232.0</ele><time>2026-04-26T08:41:23.476Z</time></trkpt><trkpt lat="44.5721157" lon="7.9170813"><ele>232.0</ele><time>2026-04-26T08:41:24.478Z</time></trkpt><trkpt lat="44.5719658" lon="7.9171177"><ele>231.66666666666666</ele><time>2026-04-26T08:41:25.476Z</time></trkpt><trkpt lat="44.5718123" lon="7.9171403"><ele>231.33333333333331</ele><time>2026-04-26T08:41:26.475Z</time></trkpt><trkpt lat="44.5716632" lon="7.9171663"><ele>231.0</ele><time>2026-04-26T08:41:27.475Z</time></trkpt><trkpt lat="44.5715147" lon="7.917197"><ele>231.0</ele><time>2026-04-26T08:41:28.475Z</time></trkpt><trkpt lat="44.5713702" lon="7.9172322"><ele>231.0</ele><time>2026-04-26T08:41:29.476Z</time></trkpt><trkpt lat="44.5712222" lon="7.9172615"><ele>231.0</ele><time>2026-04-26T08:41:30.477Z</time></trkpt><trkpt lat="44.5710733" lon="7.9172897"><ele>231.0</ele><time>2026-04-26T08:41:31.475Z</time></trkpt><trkpt lat="44.5709247" lon="7.9173162"><ele>230.25</ele><time>2026-04-26T08:41:32.476Z</time></trkpt><trkpt lat="44.5707762" lon="7.9173447"><ele>229.5</ele><time>2026-04-26T08:41:33.474Z</time></trkpt><trkpt lat="44.5706287" lon="7.9173707"><ele>228.75</ele><time>2026-04-26T08:41:34.476Z</time></trkpt><trkpt lat="44.5704822" lon="7.9173977"><ele>228.0</ele><time>2026-04-26T08:41:35.477Z</time></trkpt><trkpt lat="44.5703335" lon="7.9174245"><ele>227.33333333333331</ele><time>2026-04-26T08:41:36.478Z</time></trkpt><trkpt lat="44.5701825" lon="7.9174493"><ele>226.66666666666666</ele><time>2026-04-26T08:41:37.478Z</time></trkpt><trkpt lat="44.5700293" lon="7.9174702"><ele>226.0</ele><time>2026-04-26T08:41:38.476Z</time></trkpt><trkpt lat="44.5698812" lon="7.917489"><ele>226.0</ele><time>2026-04-26T08:41:39.477Z</time></trkpt><trkpt lat="44.5697445" lon="7.9175075"><ele>226.0</ele><time>2026-04-26T08:41:40.478Z</time></trkpt><trkpt lat="44.5696157" lon="7.9175182"><ele>226.0</ele><time>2026-04-26T08:41:41.477Z</time></trkpt><trkpt lat="44.5694917" lon="7.9175212"><ele>226.0</ele><time>2026-04-26T08:41:42.476Z</time></trkpt><trkpt lat="44.5693765" lon="7.9175203"><ele>225.60000000000002</ele><time>2026-04-26T08:41:43.476Z</time></trkpt><trkpt lat="44.5692797" lon="7.9175265"><ele>225.20000000000002</ele><time>2026-04-26T08:41:44.476Z</time></trkpt><trkpt lat="44.5692007" lon="7.9175333"><ele>224.79999999999998</ele><time>2026-04-26T08:41:45.476Z</time></trkpt><trkpt lat="44.5690857" lon="7.9175388"><ele>224.39999999999998</ele><time>2026-04-26T08:41:47.475Z</time></trkpt><trkpt lat="44.5689628" lon="7.9176248"><ele>224.0</ele><time>2026-04-26T08:41:49.476Z</time></trkpt><trkpt lat="44.5688947" lon="7.9177192"><ele>224.75</ele><time>2026-04-26T08:41:50.472Z</time></trkpt><trkpt lat="44.5688083" lon="7.9178228"><ele>225.5</ele><time>2026-04-26T08:41:51.477Z</time></trkpt><trkpt lat="44.5687047" lon="7.917935"><ele>226.25</ele><time>2026-04-26T08:41:52.479Z</time></trkpt><trkpt lat="44.5685957" lon="7.9180393"><ele>227.0</ele><time>2026-04-26T08:41:53.479Z</time></trkpt><trkpt lat="44.568478" lon="7.9181448"><ele>227.0</ele><time>2026-04-26T08:41:54.478Z</time></trkpt><trkpt lat="44.5683518" lon="7.918253"><ele>227.0</ele><time>2026-04-26T08:41:55.479Z</time></trkpt><trkpt lat="44.5682198" lon="7.9183572"><ele>227.0</ele><time>2026-04-26T08:41:56.475Z</time></trkpt><trkpt lat="44.5680845" lon="7.9184628"><ele>227.66666666666669</ele><time>2026-04-26T08:41:57.474Z</time></trkpt><trkpt lat="44.5679443" lon="7.9185698"><ele>228.33333333333331</ele><time>2026-04-26T08:41:58.48Z</time></trkpt><trkpt lat="44.5677982" lon="7.9186815"><ele>229.0</ele><time>2026-04-26T08:41:59.479Z</time></trkpt><trkpt lat="44.5676467" lon="7.9187985"><ele>229.0</ele><time>2026-04-26T08:42:00.478Z</time></trkpt><trkpt lat="44.5674982" lon="7.9189108"><ele>229.0</ele><time>2026-04-26T08:42:01.478Z</time></trkpt><trkpt lat="44.5673467" lon="7.9190265"><ele>229.0</ele><time>2026-04-26T08:42:02.478Z</time></trkpt><trkpt lat="44.56719" lon="7.9191445"><ele>228.33333333333331</ele><time>2026-04-26T08:42:03.478Z</time></trkpt><trkpt lat="44.5670287" lon="7.9192665"><ele>227.66666666666669</ele><time>2026-04-26T08:42:04.477Z</time></trkpt><trkpt lat="44.5668643" lon="7.9193908"><ele>227.0</ele><time>2026-04-26T08:42:05.477Z</time></trkpt><trkpt lat="44.5666972" lon="7.9195158"><ele>227.0</ele><time>2026-04-26T08:42:06.478Z</time></trkpt><trkpt lat="44.5665273" lon="7.919641"><ele>227.0</ele><time>2026-04-26T08:42:07.478Z</time></trkpt><trkpt lat="44.5663588" lon="7.9197655"><ele>227.0</ele><time>2026-04-26T08:42:08.479Z</time></trkpt><trkpt lat="44.5661948" lon="7.9198867"><ele>226.66666666666669</ele><time>2026-04-26T08:42:09.477Z</time></trkpt><trkpt lat="44.5660358" lon="7.920006"><ele>226.33333333333331</ele><time>2026-04-26T08:42:10.48Z</time></trkpt><trkpt lat="44.5658792" lon="7.9201215"><ele>226.0</ele><time>2026-04-26T08:42:11.479Z</time></trkpt><trkpt lat="44.5657232" lon="7.9202382"><ele>226.0</ele><time>2026-04-26T08:42:12.479Z</time></trkpt><trkpt lat="44.5655675" lon="7.9203568"><ele>226.0</ele><time>2026-04-26T08:42:13.479Z</time></trkpt><trkpt lat="44.565409" lon="7.9204775"><ele>226.0</ele><time>2026-04-26T08:42:14.479Z</time></trkpt><trkpt lat="44.565247" lon="7.9206002"><ele>226.66666666666666</ele><time>2026-04-26T08:42:15.477Z</time></trkpt><trkpt lat="44.5650822" lon="7.9207248"><ele>227.33333333333331</ele><time>2026-04-26T08:42:16.478Z</time></trkpt><trkpt lat="44.564913" lon="7.9208523"><ele>228.0</ele><time>2026-04-26T08:42:17.479Z</time></trkpt><trkpt lat="44.564745" lon="7.9209787"><ele>229.66666666666669</ele><time>2026-04-26T08:42:18.478Z</time></trkpt><trkpt lat="44.5645797" lon="7.921103"><ele>231.33333333333334</ele><time>2026-04-26T08:42:19.478Z</time></trkpt><trkpt lat="44.5644135" lon="7.92123"><ele>233.0</ele><time>2026-04-26T08:42:20.477Z</time></trkpt><trkpt lat="44.5642558" lon="7.9213488"><ele>233.0</ele><time>2026-04-26T08:42:21.472Z</time></trkpt><trkpt lat="44.5641065" lon="7.9214575"><ele>233.0</ele><time>2026-04-26T08:42:22.474Z</time></trkpt><trkpt lat="44.5639533" lon="7.9215662"><ele>233.0</ele><time>2026-04-26T08:42:23.473Z</time></trkpt><trkpt lat="44.5637918" lon="7.9216763"><ele>232.66666666666669</ele><time>2026-04-26T08:42:24.475Z</time></trkpt><trkpt lat="44.5636227" lon="7.9217842"><ele>232.33333333333331</ele><time>2026-04-26T08:42:25.475Z</time></trkpt><trkpt lat="44.5634498" lon="7.9218885"><ele>232.0</ele><time>2026-04-26T08:42:26.478Z</time></trkpt><trkpt lat="44.5632775" lon="7.9219893"><ele>232.0</ele><time>2026-04-26T08:42:27.476Z</time></trkpt><trkpt lat="44.5631012" lon="7.9220873"><ele>232.0</ele><time>2026-04-26T08:42:28.478Z</time></trkpt><trkpt lat="44.562922" lon="7.9221747"><ele>232.0</ele><time>2026-04-26T08:42:29.481Z</time></trkpt><trkpt lat="44.5627393" lon="7.9222512"><ele>232.0</ele><time>2026-04-26T08:42:30.48Z</time></trkpt><trkpt lat="44.5625535" lon="7.922323"><ele>232.0</ele><time>2026-04-26T08:42:31.478Z</time></trkpt><trkpt lat="44.5623635" lon="7.9223905"><ele>232.0</ele><time>2026-04-26T08:42:32.477Z</time></trkpt><trkpt lat="44.5621703" lon="7.9224562"><ele>232.0</ele><time>2026-04-26T08:42:33.478Z</time></trkpt><trkpt lat="44.561977" lon="7.9225213"><ele>232.0</ele><time>2026-04-26T08:42:34.479Z</time></trkpt><trkpt lat="44.5617833" lon="7.9225815"><ele>232.0</ele><time>2026-04-26T08:42:35.479Z</time></trkpt><trkpt lat="44.5615888" lon="7.9226348"><ele>231.66666666666666</ele><time>2026-04-26T08:42:36.478Z</time></trkpt><trkpt lat="44.5613922" lon="7.9226842"><ele>231.33333333333331</ele><time>2026-04-26T08:42:37.473Z</time></trkpt><trkpt lat="44.5611947" lon="7.9227295"><ele>231.0</ele><time>2026-04-26T08:42:38.476Z</time></trkpt><trkpt lat="44.5609968" lon="7.9227673"><ele>230.66666666666669</ele><time>2026-04-26T08:42:39.477Z</time></trkpt><trkpt lat="44.5607982" lon="7.922797"><ele>230.33333333333334</ele><time>2026-04-26T08:42:40.476Z</time></trkpt><trkpt lat="44.5605985" lon="7.9228203"><ele>230.0</ele><time>2026-04-26T08:42:41.478Z</time></trkpt><trkpt lat="44.560399" lon="7.9228373"><ele>229.66666666666669</ele><time>2026-04-26T08:42:42.475Z</time></trkpt><trkpt lat="44.5601987" lon="7.9228478"><ele>229.33333333333331</ele><time>2026-04-26T08:42:43.478Z</time></trkpt><trkpt lat="44.5599972" lon="7.9228503"><ele>229.0</ele><time>2026-04-26T08:42:44.477Z</time></trkpt><trkpt lat="44.5597963" lon="7.9228447"><ele>229.0</ele><time>2026-04-26T08:42:45.476Z</time></trkpt><trkpt lat="44.5595938" lon="7.9228342"><ele>229.0</ele><time>2026-04-26T08:42:46.477Z</time></trkpt><trkpt lat="44.559389" lon="7.9228173"><ele>229.0</ele><time>2026-04-26T08:42:47.476Z</time></trkpt><trkpt lat="44.559181" lon="7.9227948"><ele>229.0</ele><time>2026-04-26T08:42:48.475Z</time></trkpt><trkpt lat="44.558972" lon="7.922764"><ele>229.0</ele><time>2026-04-26T08:42:49.479Z</time></trkpt><trkpt lat="44.558759" lon="7.922729"><ele>229.0</ele><time>2026-04-26T08:42:50.479Z</time></trkpt><trkpt lat="44.5585407" lon="7.9226917"><ele>230.5</ele><time>2026-04-26T08:42:51.477Z</time></trkpt><trkpt lat="44.558317" lon="7.9226542"><ele>232.0</ele><time>2026-04-26T08:42:52.477Z</time></trkpt><trkpt lat="44.5580913" lon="7.9226162"><ele>232.5</ele><time>2026-04-26T08:42:53.476Z</time></trkpt><trkpt lat="44.5578658" lon="7.9225792"><ele>233.0</ele><time>2026-04-26T08:42:54.477Z</time></trkpt><trkpt lat="44.5576437" lon="7.922543"><ele>233.66666666666669</ele><time>2026-04-26T08:42:55.479Z</time></trkpt><trkpt lat="44.5574262" lon="7.9225065"><ele>234.33333333333331</ele><time>2026-04-26T08:42:56.477Z</time></trkpt><trkpt lat="44.5572137" lon="7.9224695"><ele>235.0</ele><time>2026-04-26T08:42:57.477Z</time></trkpt><trkpt lat="44.5570057" lon="7.9224335"><ele>235.33333333333331</ele><time>2026-04-26T08:42:58.477Z</time></trkpt><trkpt lat="44.556799" lon="7.9223963"><ele>235.66666666666669</ele><time>2026-04-26T08:42:59.478Z</time></trkpt><trkpt lat="44.5565925" lon="7.9223585"><ele>236.0</ele><time>2026-04-26T08:43:00.478Z</time></trkpt><trkpt lat="44.5563865" lon="7.9223218"><ele>236.0</ele><time>2026-04-26T08:43:01.478Z</time></trkpt><trkpt lat="44.556181" lon="7.9222867"><ele>236.0</ele><time>2026-04-26T08:43:02.478Z</time></trkpt><trkpt lat="44.5559738" lon="7.9222517"><ele>236.0</ele><time>2026-04-26T08:43:03.478Z</time></trkpt><trkpt lat="44.5557642" lon="7.9222163"><ele>236.0</ele><time>2026-04-26T08:43:04.478Z</time></trkpt><trkpt lat="44.5555522" lon="7.9221805"><ele>236.0</ele><time>2026-04-26T08:43:05.478Z</time></trkpt><trkpt lat="44.5553383" lon="7.922144"><ele>236.0</ele><time>2026-04-26T08:43:06.477Z</time></trkpt><trkpt lat="44.5551225" lon="7.922107"><ele>236.0</ele><time>2026-04-26T08:43:07.479Z</time></trkpt><trkpt lat="44.5549048" lon="7.9220703"><ele>236.0</ele><time>2026-04-26T08:43:08.478Z</time></trkpt><trkpt lat="44.5546855" lon="7.9220337"><ele>236.0</ele><time>2026-04-26T08:43:09.477Z</time></trkpt><trkpt lat="44.5544645" lon="7.9219957"><ele>236.66666666666669</ele><time>2026-04-26T08:43:10.476Z</time></trkpt><trkpt lat="44.5542432" lon="7.9219578"><ele>237.33333333333331</ele><time>2026-04-26T08:43:11.476Z</time></trkpt><trkpt lat="44.5540218" lon="7.9219212"><ele>238.0</ele><time>2026-04-26T08:43:12.477Z</time></trkpt><trkpt lat="44.5538002" lon="7.9218868"><ele>238.33333333333331</ele><time>2026-04-26T08:43:13.476Z</time></trkpt><trkpt lat="44.5535788" lon="7.9218553"><ele>238.66666666666669</ele><time>2026-04-26T08:43:14.478Z</time></trkpt><trkpt lat="44.5533573" lon="7.9218295"><ele>239.0</ele><time>2026-04-26T08:43:15.478Z</time></trkpt><trkpt lat="44.5531357" lon="7.921811"><ele>239.0</ele><time>2026-04-26T08:43:16.477Z</time></trkpt><trkpt lat="44.552914" lon="7.9217993"><ele>239.0</ele><time>2026-04-26T08:43:17.479Z</time></trkpt><trkpt lat="44.5526917" lon="7.921796"><ele>239.0</ele><time>2026-04-26T08:43:18.478Z</time></trkpt><trkpt lat="44.5524693" lon="7.9218012"><ele>240.0</ele><time>2026-04-26T08:43:19.477Z</time></trkpt><trkpt lat="44.5522467" lon="7.9218133"><ele>241.0</ele><time>2026-04-26T08:43:20.479Z</time></trkpt><trkpt lat="44.5520228" lon="7.9218333"><ele>242.0</ele><time>2026-04-26T08:43:21.479Z</time></trkpt><trkpt lat="44.5517987" lon="7.9218607"><ele>242.5</ele><time>2026-04-26T08:43:22.478Z</time></trkpt><trkpt lat="44.551574" lon="7.921896"><ele>243.0</ele><time>2026-04-26T08:43:23.477Z</time></trkpt><trkpt lat="44.5513497" lon="7.921939"><ele>243.0</ele><time>2026-04-26T08:43:24.478Z</time></trkpt><trkpt lat="44.5511268" lon="7.9219898"><ele>243.0</ele><time>2026-04-26T08:43:25.478Z</time></trkpt><trkpt lat="44.5509052" lon="7.9220493"><ele>243.0</ele><time>2026-04-26T08:43:26.478Z</time></trkpt><trkpt lat="44.5506855" lon="7.922118"><ele>243.0</ele><time>2026-04-26T08:43:27.479Z</time></trkpt><trkpt lat="44.5504692" lon="7.9221985"><ele>243.0</ele><time>2026-04-26T08:43:28.482Z</time></trkpt><trkpt lat="44.5502548" lon="7.9222863"><ele>243.0</ele><time>2026-04-26T08:43:29.479Z</time></trkpt><trkpt lat="44.5500425" lon="7.9223763"><ele>243.0</ele><time>2026-04-26T08:43:30.477Z</time></trkpt><trkpt lat="44.5498312" lon="7.9224682"><ele>243.0</ele><time>2026-04-26T08:43:31.478Z</time></trkpt><trkpt lat="44.5496228" lon="7.9225685"><ele>243.33333333333331</ele><time>2026-04-26T08:43:32.479Z</time></trkpt><trkpt lat="44.5494177" lon="7.9226785"><ele>243.66666666666666</ele><time>2026-04-26T08:43:33.477Z</time></trkpt><trkpt lat="44.5492163" lon="7.9227955"><ele>244.0</ele><time>2026-04-26T08:43:34.476Z</time></trkpt><trkpt lat="44.5490187" lon="7.9229195"><ele>244.0</ele><time>2026-04-26T08:43:35.475Z</time></trkpt><trkpt lat="44.5488253" lon="7.9230488"><ele>244.0</ele><time>2026-04-26T08:43:36.475Z</time></trkpt><trkpt lat="44.5486425" lon="7.9231805"><ele>244.0</ele><time>2026-04-26T08:43:37.477Z</time></trkpt><trkpt lat="44.548473" lon="7.9233063"><ele>245.66666666666666</ele><time>2026-04-26T08:43:38.477Z</time></trkpt><trkpt lat="44.5483143" lon="7.9234208"><ele>247.33333333333331</ele><time>2026-04-26T08:43:39.479Z</time></trkpt><trkpt lat="44.5481632" lon="7.9235197"><ele>249.0</ele><time>2026-04-26T08:43:40.476Z</time></trkpt><trkpt lat="44.5480193" lon="7.923605"><ele>249.0</ele><time>2026-04-26T08:43:41.477Z</time></trkpt><trkpt lat="44.5478792" lon="7.9237038"><ele>249.0</ele><time>2026-04-26T08:43:42.475Z</time></trkpt><trkpt lat="44.5477393" lon="7.923835"><ele>249.0</ele><time>2026-04-26T08:43:43.478Z</time></trkpt><trkpt lat="44.5475897" lon="7.9239767"><ele>249.33333333333331</ele><time>2026-04-26T08:43:44.481Z</time></trkpt><trkpt lat="44.5474272" lon="7.9241133"><ele>249.66666666666666</ele><time>2026-04-26T08:43:45.478Z</time></trkpt><trkpt lat="44.5472577" lon="7.9242483"><ele>250.0</ele><time>2026-04-26T08:43:46.48Z</time></trkpt><trkpt lat="44.547084" lon="7.9243873"><ele>251.66666666666666</ele><time>2026-04-26T08:43:47.479Z</time></trkpt><trkpt lat="44.5469112" lon="7.9245245"><ele>253.33333333333331</ele><time>2026-04-26T08:43:48.477Z</time></trkpt><trkpt lat="44.5467357" lon="7.9246608"><ele>255.0</ele><time>2026-04-26T08:43:49.479Z</time></trkpt><trkpt lat="44.5465575" lon="7.9247962"><ele>255.0</ele><time>2026-04-26T08:43:50.479Z</time></trkpt><trkpt lat="44.5463807" lon="7.9249308"><ele>255.0</ele><time>2026-04-26T08:43:51.478Z</time></trkpt><trkpt lat="44.5462067" lon="7.9250675"><ele>255.0</ele><time>2026-04-26T08:43:52.477Z</time></trkpt><trkpt lat="44.5460357" lon="7.9252032"><ele>259.3333333333333</ele><time>2026-04-26T08:43:53.477Z</time></trkpt><trkpt lat="44.545867" lon="7.925335"><ele>263.66666666666663</ele><time>2026-04-26T08:43:54.477Z</time></trkpt><trkpt lat="44.5457002" lon="7.9254657"><ele>268.0</ele><time>2026-04-26T08:43:55.478Z</time></trkpt><trkpt lat="44.5455337" lon="7.9255952"><ele>268.0</ele><time>2026-04-26T08:43:56.479Z</time></trkpt><trkpt lat="44.5453662" lon="7.9257252"><ele>268.0</ele><time>2026-04-26T08:43:57.479Z</time></trkpt><trkpt lat="44.5451977" lon="7.9258567"><ele>268.0</ele><time>2026-04-26T08:43:58.477Z</time></trkpt><trkpt lat="44.5450342" lon="7.9259852"><ele>268.0</ele><time>2026-04-26T08:43:59.477Z</time></trkpt><trkpt lat="44.5448817" lon="7.9261053"><ele>268.0</ele><time>2026-04-26T08:44:00.475Z</time></trkpt><trkpt lat="44.544736" lon="7.9262205"><ele>268.0</ele><time>2026-04-26T08:44:01.475Z</time></trkpt><trkpt lat="44.544594" lon="7.926334"><ele>267.0</ele><time>2026-04-26T08:44:02.475Z</time></trkpt><trkpt lat="44.5444532" lon="7.9264477"><ele>266.0</ele><time>2026-04-26T08:44:03.476Z</time></trkpt><trkpt lat="44.544311" lon="7.9265605"><ele>265.0</ele><time>2026-04-26T08:44:04.477Z</time></trkpt><trkpt lat="44.5441747" lon="7.9266683"><ele>265.0</ele><time>2026-04-26T08:44:05.478Z</time></trkpt><trkpt lat="44.5440452" lon="7.9267715"><ele>265.0</ele><time>2026-04-26T08:44:06.478Z</time></trkpt><trkpt lat="44.5439183" lon="7.9268722"><ele>265.0</ele><time>2026-04-26T08:44:07.478Z</time></trkpt><trkpt lat="44.5437902" lon="7.9269718"><ele>265.0</ele><time>2026-04-26T08:44:08.479Z</time></trkpt><trkpt lat="44.5436582" lon="7.9270752"><ele>265.0</ele><time>2026-04-26T08:44:09.479Z</time></trkpt><trkpt lat="44.543525" lon="7.9271827"><ele>265.0</ele><time>2026-04-26T08:44:10.477Z</time></trkpt><trkpt lat="44.543391" lon="7.9272912"><ele>265.0</ele><time>2026-04-26T08:44:11.477Z</time></trkpt><trkpt lat="44.5432592" lon="7.927398"><ele>265.0</ele><time>2026-04-26T08:44:12.476Z</time></trkpt><trkpt lat="44.5431317" lon="7.9275022"><ele>265.0</ele><time>2026-04-26T08:44:13.476Z</time></trkpt><trkpt lat="44.5430018" lon="7.9276135"><ele>265.0</ele><time>2026-04-26T08:44:14.476Z</time></trkpt><trkpt lat="44.54287" lon="7.9277237"><ele>264.0</ele><time>2026-04-26T08:44:15.474Z</time></trkpt><trkpt lat="44.5427417" lon="7.9278228"><ele>263.0</ele><time>2026-04-26T08:44:16.476Z</time></trkpt><trkpt lat="44.5426143" lon="7.927923"><ele>262.0</ele><time>2026-04-26T08:44:17.477Z</time></trkpt><trkpt lat="44.5424838" lon="7.9280273"><ele>261.0</ele><time>2026-04-26T08:44:18.477Z</time></trkpt><trkpt lat="44.5423518" lon="7.9281308"><ele>261.0</ele><time>2026-04-26T08:44:19.477Z</time></trkpt><trkpt lat="44.5422215" lon="7.9282338"><ele>261.0</ele><time>2026-04-26T08:44:20.479Z</time></trkpt><trkpt lat="44.5420905" lon="7.9283387"><ele>261.0</ele><time>2026-04-26T08:44:21.478Z</time></trkpt><trkpt lat="44.541962" lon="7.9284482"><ele>261.75</ele><time>2026-04-26T08:44:22.476Z</time></trkpt><trkpt lat="44.5418352" lon="7.928561"><ele>262.5</ele><time>2026-04-26T08:44:23.474Z</time></trkpt><trkpt lat="44.5417135" lon="7.9286793"><ele>263.25</ele><time>2026-04-26T08:44:24.474Z</time></trkpt><trkpt lat="44.541596" lon="7.9288028"><ele>264.0</ele><time>2026-04-26T08:44:25.476Z</time></trkpt><trkpt lat="44.541479" lon="7.9289332"><ele>264.0</ele><time>2026-04-26T08:44:26.477Z</time></trkpt><trkpt lat="44.5413612" lon="7.9290687"><ele>264.0</ele><time>2026-04-26T08:44:27.475Z</time></trkpt><trkpt lat="44.5412423" lon="7.9292068"><ele>264.0</ele><time>2026-04-26T08:44:28.477Z</time></trkpt><trkpt lat="44.5411212" lon="7.9293473"><ele>263.6666666666667</ele><time>2026-04-26T08:44:29.476Z</time></trkpt><trkpt lat="44.5409985" lon="7.9294898"><ele>263.33333333333337</ele><time>2026-04-26T08:44:30.478Z</time></trkpt><trkpt lat="44.5408747" lon="7.9296323"><ele>263.0</ele><time>2026-04-26T08:44:31.475Z</time></trkpt><trkpt lat="44.5407498" lon="7.9297748"><ele>263.0</ele><time>2026-04-26T08:44:32.476Z</time></trkpt><trkpt lat="44.5406243" lon="7.9299183"><ele>263.0</ele><time>2026-04-26T08:44:33.477Z</time></trkpt><trkpt lat="44.5404978" lon="7.9300622"><ele>263.0</ele><time>2026-04-26T08:44:34.478Z</time></trkpt><trkpt lat="44.5403723" lon="7.9302057"><ele>263.6666666666667</ele><time>2026-04-26T08:44:35.481Z</time></trkpt><trkpt lat="44.5402488" lon="7.930348"><ele>264.3333333333333</ele><time>2026-04-26T08:44:36.477Z</time></trkpt><trkpt lat="44.5401275" lon="7.930489"><ele>265.0</ele><time>2026-04-26T08:44:37.479Z</time></trkpt><trkpt lat="44.5400073" lon="7.9306285"><ele>265.0</ele><time>2026-04-26T08:44:38.479Z</time></trkpt><trkpt lat="44.5398875" lon="7.9307668"><ele>265.0</ele><time>2026-04-26T08:44:39.476Z</time></trkpt><trkpt lat="44.5397673" lon="7.9309053"><ele>265.0</ele><time>2026-04-26T08:44:40.478Z</time></trkpt><trkpt lat="44.5396468" lon="7.9310463"><ele>265.66666666666663</ele><time>2026-04-26T08:44:41.477Z</time></trkpt><trkpt lat="44.5395257" lon="7.9311887"><ele>266.3333333333333</ele><time>2026-04-26T08:44:42.476Z</time></trkpt><trkpt lat="44.5394042" lon="7.9313338"><ele>267.0</ele><time>2026-04-26T08:44:43.475Z</time></trkpt><trkpt lat="44.5392803" lon="7.9314775"><ele>267.0</ele><time>2026-04-26T08:44:44.479Z</time></trkpt><trkpt lat="44.5391553" lon="7.9316215"><ele>267.0</ele><time>2026-04-26T08:44:45.475Z</time></trkpt><trkpt lat="44.53903" lon="7.9317663"><ele>267.0</ele><time>2026-04-26T08:44:46.476Z</time></trkpt><trkpt lat="44.538905" lon="7.9319113"><ele>266.6666666666667</ele><time>2026-04-26T08:44:47.475Z</time></trkpt><trkpt lat="44.5387808" lon="7.9320562"><ele>266.33333333333337</ele><time>2026-04-26T08:44:48.473Z</time></trkpt><trkpt lat="44.5386588" lon="7.932197"><ele>266.0</ele><time>2026-04-26T08:44:49.473Z</time></trkpt><trkpt lat="44.5385432" lon="7.93233"><ele>266.0</ele><time>2026-04-26T08:44:50.473Z</time></trkpt><trkpt lat="44.5384318" lon="7.9324552"><ele>266.0</ele><time>2026-04-26T08:44:51.474Z</time></trkpt><trkpt lat="44.5383237" lon="7.9325788"><ele>266.0</ele><time>2026-04-26T08:44:52.475Z</time></trkpt><trkpt lat="44.5382172" lon="7.9327063"><ele>266.0</ele><time>2026-04-26T08:44:53.474Z</time></trkpt><trkpt lat="44.5381097" lon="7.9328338"><ele>266.5</ele><time>2026-04-26T08:44:54.475Z</time></trkpt><trkpt lat="44.5380012" lon="7.93296"><ele>267.0</ele><time>2026-04-26T08:44:55.475Z</time></trkpt><trkpt lat="44.5378923" lon="7.933086"><ele>267.5</ele><time>2026-04-26T08:44:56.475Z</time></trkpt><trkpt lat="44.5377848" lon="7.933212"><ele>268.0</ele><time>2026-04-26T08:44:57.476Z</time></trkpt><trkpt lat="44.5376753" lon="7.9333412"><ele>268.75</ele><time>2026-04-26T08:44:58.476Z</time></trkpt><trkpt lat="44.5375657" lon="7.9334733"><ele>269.5</ele><time>2026-04-26T08:44:59.477Z</time></trkpt><trkpt lat="44.537458" lon="7.933608"><ele>270.25</ele><time>2026-04-26T08:45:00.475Z</time></trkpt><trkpt lat="44.5373532" lon="7.9337465"><ele>271.0</ele><time>2026-04-26T08:45:01.476Z</time></trkpt><trkpt lat="44.537251" lon="7.9338885"><ele>271.0</ele><time>2026-04-26T08:45:02.477Z</time></trkpt><trkpt lat="44.5371527" lon="7.9340305"><ele>271.0</ele><time>2026-04-26T08:45:03.477Z</time></trkpt><trkpt lat="44.5370557" lon="7.9341722"><ele>271.0</ele><time>2026-04-26T08:45:04.477Z</time></trkpt><trkpt lat="44.5369613" lon="7.9343115"><ele>271.0</ele><time>2026-04-26T08:45:05.478Z</time></trkpt><trkpt lat="44.5368703" lon="7.9344442"><ele>271.2</ele><time>2026-04-26T08:45:06.479Z</time></trkpt><trkpt lat="44.5367865" lon="7.9345667"><ele>271.40000000000003</ele><time>2026-04-26T08:45:07.479Z</time></trkpt><trkpt lat="44.5367097" lon="7.9346787"><ele>271.6</ele><time>2026-04-26T08:45:08.479Z</time></trkpt><trkpt lat="44.5366408" lon="7.9347785"><ele>271.8</ele><time>2026-04-26T08:45:09.48Z</time></trkpt><trkpt lat="44.5365828" lon="7.9348598"><ele>272.0</ele><time>2026-04-26T08:45:10.479Z</time></trkpt><trkpt lat="44.5365033" lon="7.934958"><ele>272.0</ele><time>2026-04-26T08:45:12.478Z</time></trkpt><trkpt lat="44.5364493" lon="7.9350042"><ele>272.0</ele><time>2026-04-26T08:45:14.477Z</time></trkpt><trkpt lat="44.5363818" lon="7.9350507"><ele>272.0</ele><time>2026-04-26T08:45:16.478Z</time></trkpt><trkpt lat="44.5362975" lon="7.9351138"><ele>272.0</ele><time>2026-04-26T08:45:18.478Z</time></trkpt><trkpt lat="44.5362223" lon="7.9352335"><ele>272.0</ele><time>2026-04-26T08:45:20.48Z</time></trkpt><trkpt lat="44.5361937" lon="7.935317"><ele>272.0</ele><time>2026-04-26T08:45:21.479Z</time></trkpt><trkpt lat="44.5361627" lon="7.935411"><ele>272.0</ele><time>2026-04-26T08:45:22.479Z</time></trkpt><trkpt lat="44.5361193" lon="7.9355132"><ele>272.0</ele><time>2026-04-26T08:45:23.479Z</time></trkpt><trkpt lat="44.5360668" lon="7.935615"><ele>272.0</ele><time>2026-04-26T08:45:24.478Z</time></trkpt><trkpt lat="44.5360053" lon="7.935724"><ele>272.0</ele><time>2026-04-26T08:45:25.479Z</time></trkpt><trkpt lat="44.5359372" lon="7.935837"><ele>272.0</ele><time>2026-04-26T08:45:26.479Z</time></trkpt><trkpt lat="44.535862" lon="7.9359538"><ele>272.4</ele><time>2026-04-26T08:45:27.48Z</time></trkpt><trkpt lat="44.5357862" lon="7.9360698"><ele>272.79999999999995</ele><time>2026-04-26T08:45:28.48Z</time></trkpt><trkpt lat="44.5357135" lon="7.9361827"><ele>273.2</ele><time>2026-04-26T08:45:29.477Z</time></trkpt><trkpt lat="44.5356423" lon="7.9362952"><ele>273.59999999999997</ele><time>2026-04-26T08:45:30.479Z</time></trkpt><trkpt lat="44.5355713" lon="7.936407"><ele>274.0</ele><time>2026-04-26T08:45:31.483Z</time></trkpt><trkpt lat="44.5355003" lon="7.9365158"><ele>274.0</ele><time>2026-04-26T08:45:32.482Z</time></trkpt><trkpt lat="44.5354297" lon="7.9366237"><ele>274.0</ele><time>2026-04-26T08:45:33.479Z</time></trkpt><trkpt lat="44.5353577" lon="7.9367337"><ele>274.0</ele><time>2026-04-26T08:45:34.48Z</time></trkpt><trkpt lat="44.535279" lon="7.9368527"><ele>274.0</ele><time>2026-04-26T08:45:35.48Z</time></trkpt><trkpt lat="44.5351932" lon="7.9369808"><ele>274.5</ele><time>2026-04-26T08:45:36.479Z</time></trkpt><trkpt lat="44.5351025" lon="7.9371173"><ele>275.0</ele><time>2026-04-26T08:45:37.479Z</time></trkpt><trkpt lat="44.5350063" lon="7.9372637"><ele>275.5</ele><time>2026-04-26T08:45:38.478Z</time></trkpt><trkpt lat="44.5349097" lon="7.9374093"><ele>276.0</ele><time>2026-04-26T08:45:39.476Z</time></trkpt><trkpt lat="44.5348157" lon="7.9375503"><ele>276.0</ele><time>2026-04-26T08:45:40.478Z</time></trkpt><trkpt lat="44.5347225" lon="7.9376902"><ele>276.0</ele><time>2026-04-26T08:45:41.477Z</time></trkpt><trkpt lat="44.5346272" lon="7.937833"><ele>276.0</ele><time>2026-04-26T08:45:42.481Z</time></trkpt><trkpt lat="44.5345312" lon="7.937977"><ele>276.0</ele><time>2026-04-26T08:45:43.479Z</time></trkpt><trkpt lat="44.534436" lon="7.9381203"><ele>276.0</ele><time>2026-04-26T08:45:44.479Z</time></trkpt><trkpt lat="44.5343405" lon="7.938266"><ele>276.0</ele><time>2026-04-26T08:45:45.477Z</time></trkpt><trkpt lat="44.5342472" lon="7.9384078"><ele>276.0</ele><time>2026-04-26T08:45:46.479Z</time></trkpt><trkpt lat="44.5341632" lon="7.9385402"><ele>276.0</ele><time>2026-04-26T08:45:47.478Z</time></trkpt><trkpt lat="44.534083" lon="7.9386625"><ele>277.0</ele><time>2026-04-26T08:45:48.479Z</time></trkpt><trkpt lat="44.5340035" lon="7.9387827"><ele>278.0</ele><time>2026-04-26T08:45:49.479Z</time></trkpt><trkpt lat="44.5339207" lon="7.9389043"><ele>279.0</ele><time>2026-04-26T08:45:50.479Z</time></trkpt><trkpt lat="44.5338347" lon="7.9390303"><ele>280.0</ele><time>2026-04-26T08:45:51.479Z</time></trkpt><trkpt lat="44.5337485" lon="7.9391583"><ele>280.25</ele><time>2026-04-26T08:45:52.477Z</time></trkpt><trkpt lat="44.5336608" lon="7.9392867"><ele>280.5</ele><time>2026-04-26T08:45:53.479Z</time></trkpt><trkpt lat="44.533574" lon="7.9394142"><ele>280.75</ele><time>2026-04-26T08:45:54.477Z</time></trkpt><trkpt lat="44.5334887" lon="7.9395412"><ele>281.0</ele><time>2026-04-26T08:45:55.48Z</time></trkpt><trkpt lat="44.5334033" lon="7.9396668"><ele>281.0</ele><time>2026-04-26T08:45:56.477Z</time></trkpt><trkpt lat="44.533318" lon="7.9397933"><ele>281.0</ele><time>2026-04-26T08:45:57.478Z</time></trkpt><trkpt lat="44.5332332" lon="7.9399238"><ele>281.0</ele><time>2026-04-26T08:45:58.477Z</time></trkpt><trkpt lat="44.533147" lon="7.9400563"><ele>281.0</ele><time>2026-04-26T08:45:59.478Z</time></trkpt><trkpt lat="44.5330595" lon="7.94019"><ele>281.0</ele><time>2026-04-26T08:46:00.477Z</time></trkpt><trkpt lat="44.532972" lon="7.9403268"><ele>281.0</ele><time>2026-04-26T08:46:01.473Z</time></trkpt><trkpt lat="44.5328847" lon="7.9404697"><ele>281.0</ele><time>2026-04-26T08:46:02.476Z</time></trkpt><trkpt lat="44.5328022" lon="7.9406247"><ele>281.0</ele><time>2026-04-26T08:46:03.476Z</time></trkpt><trkpt lat="44.5327247" lon="7.9407992"><ele>281.33333333333337</ele><time>2026-04-26T08:46:04.475Z</time></trkpt><trkpt lat="44.5326553" lon="7.9409895"><ele>281.6666666666667</ele><time>2026-04-26T08:46:05.483Z</time></trkpt><trkpt lat="44.5325972" lon="7.9411918"><ele>282.0</ele><time>2026-04-26T08:46:06.477Z</time></trkpt><trkpt lat="44.5325558" lon="7.941389"><ele>282.0</ele><time>2026-04-26T08:46:07.478Z</time></trkpt><trkpt lat="44.5325288" lon="7.9415788"><ele>282.0</ele><time>2026-04-26T08:46:08.478Z</time></trkpt><trkpt lat="44.5325132" lon="7.9417632"><ele>282.0</ele><time>2026-04-26T08:46:09.479Z</time></trkpt><trkpt lat="44.5325018" lon="7.9419477"><ele>282.0</ele><time>2026-04-26T08:46:10.479Z</time></trkpt><trkpt lat="44.5324958" lon="7.9421317"><ele>282.25</ele><time>2026-04-26T08:46:11.477Z</time></trkpt><trkpt lat="44.5324907" lon="7.942312"><ele>282.5</ele><time>2026-04-26T08:46:12.476Z</time></trkpt><trkpt lat="44.5324872" lon="7.94249"><ele>282.75</ele><time>2026-04-26T08:46:13.478Z</time></trkpt><trkpt lat="44.5324833" lon="7.9426692"><ele>283.0</ele><time>2026-04-26T08:46:14.478Z</time></trkpt><trkpt lat="44.53248" lon="7.9428518"><ele>283.25</ele><time>2026-04-26T08:46:15.478Z</time></trkpt><trkpt lat="44.532476" lon="7.9430348"><ele>283.5</ele><time>2026-04-26T08:46:16.479Z</time></trkpt><trkpt lat="44.5324717" lon="7.9432167"><ele>283.75</ele><time>2026-04-26T08:46:17.478Z</time></trkpt><trkpt lat="44.5324675" lon="7.9433995"><ele>284.0</ele><time>2026-04-26T08:46:18.477Z</time></trkpt><trkpt lat="44.5324622" lon="7.9435847"><ele>284.0</ele><time>2026-04-26T08:46:19.477Z</time></trkpt><trkpt lat="44.5324565" lon="7.9437728"><ele>284.0</ele><time>2026-04-26T08:46:20.476Z</time></trkpt><trkpt lat="44.532452" lon="7.9439617"><ele>284.0</ele><time>2026-04-26T08:46:21.477Z</time></trkpt><trkpt lat="44.5324488" lon="7.9441435"><ele>284.0</ele><time>2026-04-26T08:46:22.478Z</time></trkpt><trkpt lat="44.5324468" lon="7.9443143"><ele>284.2</ele><time>2026-04-26T08:46:23.477Z</time></trkpt><trkpt lat="44.5324447" lon="7.9444765"><ele>284.4</ele><time>2026-04-26T08:46:24.477Z</time></trkpt><trkpt lat="44.5324432" lon="7.9446293"><ele>284.6</ele><time>2026-04-26T08:46:25.477Z</time></trkpt><trkpt lat="44.5324382" lon="7.9447683"><ele>284.8</ele><time>2026-04-26T08:46:26.474Z</time></trkpt><trkpt lat="44.5324347" lon="7.9448932"><ele>285.0</ele><time>2026-04-26T08:46:27.474Z</time></trkpt><trkpt lat="44.532429" lon="7.9450063"><ele>285.3333333333333</ele><time>2026-04-26T08:46:28.476Z</time></trkpt><trkpt lat="44.5324237" lon="7.9451127"><ele>285.6666666666667</ele><time>2026-04-26T08:46:29.474Z</time></trkpt><trkpt lat="44.532418" lon="7.945211"><ele>286.0</ele><time>2026-04-26T08:46:30.476Z</time></trkpt><trkpt lat="44.5324003" lon="7.9453692"><ele>286.33333333333337</ele><time>2026-04-26T08:46:32.479Z</time></trkpt><trkpt lat="44.5323755" lon="7.9454618"><ele>286.6666666666667</ele><time>2026-04-26T08:46:34.478Z</time></trkpt><trkpt lat="44.5323283" lon="7.945532"><ele>287.0</ele><time>2026-04-26T08:46:40.478Z</time></trkpt><trkpt lat="44.532257" lon="7.9455833"><ele>287.0</ele><time>2026-04-26T08:46:42.476Z</time></trkpt><trkpt lat="44.5321398" lon="7.9455905"><ele>287.0</ele><time>2026-04-26T08:46:44.477Z</time></trkpt><trkpt lat="44.5320693" lon="7.9455753"><ele>287.0</ele><time>2026-04-26T08:46:45.475Z</time></trkpt><trkpt lat="44.5320058" lon="7.94556"><ele>287.0</ele><time>2026-04-26T08:46:46.474Z</time></trkpt><trkpt lat="44.5318962" lon="7.945536"><ele>287.0</ele><time>2026-04-26T08:46:48.476Z</time></trkpt><trkpt lat="44.5317903" lon="7.9455058"><ele>286.6</ele><time>2026-04-26T08:46:50.473Z</time></trkpt><trkpt lat="44.531709" lon="7.9454852"><ele>286.2</ele><time>2026-04-26T08:46:52.473Z</time></trkpt><trkpt lat="44.5316278" lon="7.9455095"><ele>285.8</ele><time>2026-04-26T08:46:58.478Z</time></trkpt><trkpt lat="44.5315995" lon="7.9456228"><ele>285.4</ele><time>2026-04-26T08:47:00.476Z</time></trkpt><trkpt lat="44.5315695" lon="7.945797"><ele>285.0</ele><time>2026-04-26T08:47:02.478Z</time></trkpt><trkpt lat="44.5315463" lon="7.9458947"><ele>285.0</ele><time>2026-04-26T08:47:03.476Z</time></trkpt><trkpt lat="44.5315248" lon="7.9460095"><ele>285.0</ele><time>2026-04-26T08:47:04.476Z</time></trkpt><trkpt lat="44.5315122" lon="7.9461412"><ele>285.0</ele><time>2026-04-26T08:47:05.479Z</time></trkpt><trkpt lat="44.5314948" lon="7.9462687"><ele>285.0</ele><time>2026-04-26T08:47:06.48Z</time></trkpt><trkpt lat="44.5314762" lon="7.946395"><ele>285.0</ele><time>2026-04-26T08:47:07.479Z</time></trkpt><trkpt lat="44.531455" lon="7.946521"><ele>285.0</ele><time>2026-04-26T08:47:08.477Z</time></trkpt><trkpt lat="44.5314325" lon="7.946649"><ele>285.0</ele><time>2026-04-26T08:47:09.477Z</time></trkpt><trkpt lat="44.5314125" lon="7.9467862"><ele>285.0</ele><time>2026-04-26T08:47:10.476Z</time></trkpt><trkpt lat="44.5313912" lon="7.9469247"><ele>285.0</ele><time>2026-04-26T08:47:11.478Z</time></trkpt><trkpt lat="44.5313708" lon="7.9470655"><ele>285.0</ele><time>2026-04-26T08:47:12.477Z</time></trkpt><trkpt lat="44.5313517" lon="7.9472085"><ele>285.4</ele><time>2026-04-26T08:47:13.478Z</time></trkpt><trkpt lat="44.5313328" lon="7.9473523"><ele>285.8</ele><time>2026-04-26T08:47:14.475Z</time></trkpt><trkpt lat="44.5313115" lon="7.9474952"><ele>286.2</ele><time>2026-04-26T08:47:15.476Z</time></trkpt><trkpt lat="44.5312903" lon="7.9476362"><ele>286.6</ele><time>2026-04-26T08:47:16.478Z</time></trkpt><trkpt lat="44.5312705" lon="7.9477657"><ele>287.0</ele><time>2026-04-26T08:47:17.473Z</time></trkpt><trkpt lat="44.5312493" lon="7.9478897"><ele>287.33333333333337</ele><time>2026-04-26T08:47:18.475Z</time></trkpt><trkpt lat="44.5312267" lon="7.948009"><ele>287.6666666666667</ele><time>2026-04-26T08:47:19.478Z</time></trkpt><trkpt lat="44.5312062" lon="7.9481277"><ele>288.0</ele><time>2026-04-26T08:47:20.477Z</time></trkpt><trkpt lat="44.5311865" lon="7.9482432"><ele>288.3333333333333</ele><time>2026-04-26T08:47:21.476Z</time></trkpt><trkpt lat="44.5311653" lon="7.9483623"><ele>288.66666666666663</ele><time>2026-04-26T08:47:22.475Z</time></trkpt><trkpt lat="44.531144" lon="7.9484853"><ele>289.0</ele><time>2026-04-26T08:47:23.475Z</time></trkpt><trkpt lat="44.5311225" lon="7.9486063"><ele>289.0</ele><time>2026-04-26T08:47:24.476Z</time></trkpt><trkpt lat="44.5310992" lon="7.9487307"><ele>289.0</ele><time>2026-04-26T08:47:25.473Z</time></trkpt><trkpt lat="44.5310857" lon="7.948853"><ele>289.0</ele><time>2026-04-26T08:47:26.475Z</time></trkpt><trkpt lat="44.5310825" lon="7.9489667"><ele>289.0</ele><time>2026-04-26T08:47:27.479Z</time></trkpt><trkpt lat="44.531083" lon="7.9490662"><ele>289.0</ele><time>2026-04-26T08:47:28.477Z</time></trkpt><trkpt lat="44.5310855" lon="7.9492022"><ele>289.0</ele><time>2026-04-26T08:47:30.476Z</time></trkpt><trkpt lat="44.5310923" lon="7.9492953"><ele>288.8333333333333</ele><time>2026-04-26T08:47:33.477Z</time></trkpt><trkpt lat="44.5311398" lon="7.9493675"><ele>288.66666666666663</ele><time>2026-04-26T08:47:35.478Z</time></trkpt><trkpt lat="44.5312095" lon="7.949401"><ele>288.5</ele><time>2026-04-26T08:47:36.48Z</time></trkpt><trkpt lat="44.5312925" lon="7.9494235"><ele>288.3333333333333</ele><time>2026-04-26T08:47:37.477Z</time></trkpt><trkpt lat="44.5313815" lon="7.9494407"><ele>288.1666666666667</ele><time>2026-04-26T08:47:38.478Z</time></trkpt><trkpt lat="44.5314727" lon="7.9494567"><ele>288.0</ele><time>2026-04-26T08:47:39.475Z</time></trkpt><trkpt lat="44.5315667" lon="7.9494763"><ele>288.6</ele><time>2026-04-26T08:47:40.475Z</time></trkpt><trkpt lat="44.5316618" lon="7.9495072"><ele>289.20000000000005</ele><time>2026-04-26T08:47:41.474Z</time></trkpt><trkpt lat="44.5317543" lon="7.9495547"><ele>289.8</ele><time>2026-04-26T08:47:42.474Z</time></trkpt><trkpt lat="44.5318392" lon="7.9496222"><ele>290.40000000000003</ele><time>2026-04-26T08:47:43.477Z</time></trkpt><trkpt lat="44.5319158" lon="7.9497093"><ele>291.0</ele><time>2026-04-26T08:47:44.476Z</time></trkpt><trkpt lat="44.5319777" lon="7.9498153"><ele>291.0</ele><time>2026-04-26T08:47:45.477Z</time></trkpt><trkpt lat="44.5320207" lon="7.9499397"><ele>291.0</ele><time>2026-04-26T08:47:46.478Z</time></trkpt><trkpt lat="44.5320408" lon="7.9500797"><ele>291.0</ele><time>2026-04-26T08:47:47.477Z</time></trkpt><trkpt lat="44.5320468" lon="7.9502318"><ele>291.0</ele><time>2026-04-26T08:47:48.474Z</time></trkpt><trkpt lat="44.5320492" lon="7.95039"><ele>291.0</ele><time>2026-04-26T08:47:49.477Z</time></trkpt><trkpt lat="44.5320495" lon="7.9505548"><ele>291.0</ele><time>2026-04-26T08:47:50.475Z</time></trkpt><trkpt lat="44.5320492" lon="7.950726"><ele>291.0</ele><time>2026-04-26T08:47:51.475Z</time></trkpt><trkpt lat="44.532057" lon="7.9509045"><ele>291.0</ele><time>2026-04-26T08:47:52.476Z</time></trkpt><trkpt lat="44.532078" lon="7.9510767"><ele>291.0</ele><time>2026-04-26T08:47:53.477Z</time></trkpt><trkpt lat="44.5321148" lon="7.9512575"><ele>292.0</ele><time>2026-04-26T08:47:54.477Z</time></trkpt><trkpt lat="44.5321563" lon="7.9514422"><ele>293.0</ele><time>2026-04-26T08:47:55.476Z</time></trkpt><trkpt lat="44.5321977" lon="7.9516243"><ele>294.0</ele><time>2026-04-26T08:47:56.476Z</time></trkpt><trkpt lat="44.5322412" lon="7.9518022"><ele>295.0</ele><time>2026-04-26T08:47:57.479Z</time></trkpt><trkpt lat="44.5322833" lon="7.9519715"><ele>295.0</ele><time>2026-04-26T08:47:58.477Z</time></trkpt><trkpt lat="44.5323235" lon="7.952133"><ele>295.0</ele><time>2026-04-26T08:47:59.478Z</time></trkpt><trkpt lat="44.5323638" lon="7.9522922"><ele>295.0</ele><time>2026-04-26T08:48:00.478Z</time></trkpt><trkpt lat="44.5324035" lon="7.9524545"><ele>295.0</ele><time>2026-04-26T08:48:01.478Z</time></trkpt><trkpt lat="44.5324453" lon="7.952622"><ele>295.5</ele><time>2026-04-26T08:48:02.478Z</time></trkpt><trkpt lat="44.5324877" lon="7.9527908"><ele>296.0</ele><time>2026-04-26T08:48:03.477Z</time></trkpt><trkpt lat="44.5325287" lon="7.9529593"><ele>296.5</ele><time>2026-04-26T08:48:04.476Z</time></trkpt><trkpt lat="44.5325707" lon="7.953129"><ele>297.0</ele><time>2026-04-26T08:48:05.475Z</time></trkpt><trkpt lat="44.532612" lon="7.9533005"><ele>296.6</ele><time>2026-04-26T08:48:06.474Z</time></trkpt><trkpt lat="44.5326528" lon="7.9534658"><ele>296.2</ele><time>2026-04-26T08:48:07.475Z</time></trkpt><trkpt lat="44.5326908" lon="7.9536185"><ele>295.8</ele><time>2026-04-26T08:48:08.477Z</time></trkpt><trkpt lat="44.5327253" lon="7.9537578"><ele>295.4</ele><time>2026-04-26T08:48:09.477Z</time></trkpt><trkpt lat="44.5327582" lon="7.9538868"><ele>295.0</ele><time>2026-04-26T08:48:10.478Z</time></trkpt><trkpt lat="44.5327877" lon="7.9539998"><ele>295.0</ele><time>2026-04-26T08:48:11.475Z</time></trkpt><trkpt lat="44.5328117" lon="7.9540947"><ele>295.0</ele><time>2026-04-26T08:48:12.475Z</time></trkpt><trkpt lat="44.5328332" lon="7.9541795"><ele>295.0</ele><time>2026-04-26T08:48:13.478Z</time></trkpt><trkpt lat="44.5328548" lon="7.9542667"><ele>295.0</ele><time>2026-04-26T08:48:14.478Z</time></trkpt><trkpt lat="44.532881" lon="7.954378"><ele>295.0</ele><time>2026-04-26T08:48:15.475Z</time></trkpt><trkpt lat="44.532914" lon="7.9545162"><ele>295.0</ele><time>2026-04-26T08:48:16.476Z</time></trkpt><trkpt lat="44.5329528" lon="7.9546743"><ele>296.25</ele><time>2026-04-26T08:48:17.478Z</time></trkpt><trkpt lat="44.5329965" lon="7.9548572"><ele>297.5</ele><time>2026-04-26T08:48:18.475Z</time></trkpt><trkpt lat="44.5330422" lon="7.9550455"><ele>298.75</ele><time>2026-04-26T08:48:19.474Z</time></trkpt><trkpt lat="44.5330888" lon="7.9552523"><ele>300.0</ele><time>2026-04-26T08:48:20.475Z</time></trkpt><trkpt lat="44.5331352" lon="7.9554697"><ele>300.6666666666667</ele><time>2026-04-26T08:48:21.474Z</time></trkpt><trkpt lat="44.5331842" lon="7.9556847"><ele>301.33333333333337</ele><time>2026-04-26T08:48:22.477Z</time></trkpt><trkpt lat="44.533233" lon="7.955902"><ele>302.0</ele><time>2026-04-26T08:48:23.476Z</time></trkpt><trkpt lat="44.5332813" lon="7.9561158"><ele>302.25</ele><time>2026-04-26T08:48:24.477Z</time></trkpt><trkpt lat="44.5333315" lon="7.9563332"><ele>302.5</ele><time>2026-04-26T08:48:25.477Z</time></trkpt><trkpt lat="44.5333768" lon="7.9565293"><ele>302.75</ele><time>2026-04-26T08:48:26.476Z</time></trkpt><trkpt lat="44.5334152" lon="7.9566962"><ele>303.0</ele><time>2026-04-26T08:48:27.476Z</time></trkpt><trkpt lat="44.533443" lon="7.956829"><ele>302.6</ele><time>2026-04-26T08:48:28.474Z</time></trkpt><trkpt lat="44.5334628" lon="7.9569338"><ele>302.20000000000005</ele><time>2026-04-26T08:48:29.474Z</time></trkpt><trkpt lat="44.5334925" lon="7.9571193"><ele>301.8</ele><time>2026-04-26T08:48:31.474Z</time></trkpt><trkpt lat="44.5335123" lon="7.9572575"><ele>301.40000000000003</ele><time>2026-04-26T08:48:32.478Z</time></trkpt><trkpt lat="44.533533" lon="7.9574182"><ele>301.0</ele><time>2026-04-26T08:48:33.475Z</time></trkpt><trkpt lat="44.5335537" lon="7.9576062"><ele>300.25</ele><time>2026-04-26T08:48:34.477Z</time></trkpt><trkpt lat="44.5335718" lon="7.9578003"><ele>299.5</ele><time>2026-04-26T08:48:35.477Z</time></trkpt><trkpt lat="44.53359" lon="7.9580082"><ele>298.75</ele><time>2026-04-26T08:48:36.477Z</time></trkpt><trkpt lat="44.5336085" lon="7.9582245"><ele>298.0</ele><time>2026-04-26T08:48:37.477Z</time></trkpt><trkpt lat="44.5336253" lon="7.958448"><ele>298.0</ele><time>2026-04-26T08:48:38.477Z</time></trkpt><trkpt lat="44.5336402" lon="7.9586785"><ele>298.0</ele><time>2026-04-26T08:48:39.476Z</time></trkpt><trkpt lat="44.533652" lon="7.9589108"><ele>298.0</ele><time>2026-04-26T08:48:40.478Z</time></trkpt><trkpt lat="44.5336598" lon="7.9591378"><ele>298.0</ele><time>2026-04-26T08:48:41.478Z</time></trkpt><trkpt lat="44.5336643" lon="7.9593712"><ele>298.0</ele><time>2026-04-26T08:48:42.477Z</time></trkpt><trkpt lat="44.5336623" lon="7.9596162"><ele>298.0</ele><time>2026-04-26T08:48:43.476Z</time></trkpt><trkpt lat="44.5336558" lon="7.9598683"><ele>299.3333333333333</ele><time>2026-04-26T08:48:44.479Z</time></trkpt><trkpt lat="44.5336448" lon="7.960123"><ele>300.6666666666667</ele><time>2026-04-26T08:48:45.477Z</time></trkpt><trkpt lat="44.533633" lon="7.9603797"><ele>302.0</ele><time>2026-04-26T08:48:46.477Z</time></trkpt><trkpt lat="44.5336197" lon="7.960636"><ele>302.6666666666667</ele><time>2026-04-26T08:48:47.48Z</time></trkpt><trkpt lat="44.5336057" lon="7.9608867"><ele>303.3333333333333</ele><time>2026-04-26T08:48:48.477Z</time></trkpt><trkpt lat="44.5335918" lon="7.9611323"><ele>304.0</ele><time>2026-04-26T08:48:49.477Z</time></trkpt><trkpt lat="44.5335792" lon="7.9613723"><ele>304.0</ele><time>2026-04-26T08:48:50.478Z</time></trkpt><trkpt lat="44.533565" lon="7.9616063"><ele>304.0</ele><time>2026-04-26T08:48:51.476Z</time></trkpt><trkpt lat="44.5335513" lon="7.9618298"><ele>304.0</ele><time>2026-04-26T08:48:52.476Z</time></trkpt><trkpt lat="44.5335362" lon="7.9620443"><ele>304.5</ele><time>2026-04-26T08:48:53.475Z</time></trkpt><trkpt lat="44.5335163" lon="7.9622488"><ele>305.0</ele><time>2026-04-26T08:48:54.478Z</time></trkpt><trkpt lat="44.5334893" lon="7.9624383"><ele>305.5</ele><time>2026-04-26T08:48:55.476Z</time></trkpt><trkpt lat="44.5334527" lon="7.9626185"><ele>306.0</ele><time>2026-04-26T08:48:56.477Z</time></trkpt><trkpt lat="44.5334102" lon="7.9627937"><ele>306.5</ele><time>2026-04-26T08:48:57.477Z</time></trkpt><trkpt lat="44.5333617" lon="7.9629728"><ele>307.0</ele><time>2026-04-26T08:48:58.479Z</time></trkpt><trkpt lat="44.5333053" lon="7.9631642"><ele>307.5</ele><time>2026-04-26T08:48:59.476Z</time></trkpt><trkpt lat="44.5332437" lon="7.9633702"><ele>308.0</ele><time>2026-04-26T08:49:00.477Z</time></trkpt><trkpt lat="44.53318" lon="7.96359"><ele>308.6666666666667</ele><time>2026-04-26T08:49:01.478Z</time></trkpt><trkpt lat="44.5331135" lon="7.9638187"><ele>309.3333333333333</ele><time>2026-04-26T08:49:02.48Z</time></trkpt><trkpt lat="44.5330438" lon="7.9640532"><ele>310.0</ele><time>2026-04-26T08:49:03.478Z</time></trkpt><trkpt lat="44.53297" lon="7.9642875"><ele>310.3333333333333</ele><time>2026-04-26T08:49:04.479Z</time></trkpt><trkpt lat="44.5328908" lon="7.9645188"><ele>310.6666666666667</ele><time>2026-04-26T08:49:05.479Z</time></trkpt><trkpt lat="44.5328087" lon="7.9647457"><ele>311.0</ele><time>2026-04-26T08:49:06.478Z</time></trkpt><trkpt lat="44.5327243" lon="7.9649673"><ele>309.33333333333337</ele><time>2026-04-26T08:49:07.481Z</time></trkpt><trkpt lat="44.532641" lon="7.9651832"><ele>307.6666666666667</ele><time>2026-04-26T08:49:08.479Z</time></trkpt><trkpt lat="44.5325603" lon="7.9653937"><ele>306.0</ele><time>2026-04-26T08:49:09.478Z</time></trkpt><trkpt lat="44.5324798" lon="7.9655987"><ele>306.0</ele><time>2026-04-26T08:49:10.479Z</time></trkpt><trkpt lat="44.5323947" lon="7.9658002"><ele>306.0</ele><time>2026-04-26T08:49:11.477Z</time></trkpt><trkpt lat="44.5323" lon="7.9659968"><ele>306.0</ele><time>2026-04-26T08:49:12.478Z</time></trkpt><trkpt lat="44.5321958" lon="7.9661865"><ele>306.0</ele><time>2026-04-26T08:49:13.477Z</time></trkpt><trkpt lat="44.532083" lon="7.96637"><ele>306.0</ele><time>2026-04-26T08:49:14.476Z</time></trkpt><trkpt lat="44.5319627" lon="7.9665477"><ele>306.0</ele><time>2026-04-26T08:49:15.476Z</time></trkpt><trkpt lat="44.5318382" lon="7.9667227"><ele>308.6666666666667</ele><time>2026-04-26T08:49:16.48Z</time></trkpt><trkpt lat="44.5317155" lon="7.9669037"><ele>311.33333333333337</ele><time>2026-04-26T08:49:17.476Z</time></trkpt><trkpt lat="44.531602" lon="7.9670988"><ele>314.0</ele><time>2026-04-26T08:49:18.474Z</time></trkpt><trkpt lat="44.5314978" lon="7.9673133"><ele>313.33333333333337</ele><time>2026-04-26T08:49:19.476Z</time></trkpt><trkpt lat="44.531397" lon="7.967543"><ele>312.6666666666667</ele><time>2026-04-26T08:49:20.476Z</time></trkpt><trkpt lat="44.5312985" lon="7.9677812"><ele>312.0</ele><time>2026-04-26T08:49:21.477Z</time></trkpt><trkpt lat="44.5311995" lon="7.9680242"><ele>312.0</ele><time>2026-04-26T08:49:22.478Z</time></trkpt><trkpt lat="44.5310977" lon="7.9682683"><ele>312.0</ele><time>2026-04-26T08:49:23.477Z</time></trkpt><trkpt lat="44.5309917" lon="7.9685128"><ele>312.0</ele><time>2026-04-26T08:49:24.476Z</time></trkpt><trkpt lat="44.5308863" lon="7.968751"><ele>313.6666666666667</ele><time>2026-04-26T08:49:25.477Z</time></trkpt><trkpt lat="44.5307807" lon="7.9689902"><ele>315.33333333333337</ele><time>2026-04-26T08:49:26.477Z</time></trkpt><trkpt lat="44.5306743" lon="7.9692325"><ele>317.0</ele><time>2026-04-26T08:49:27.475Z</time></trkpt><trkpt lat="44.5305673" lon="7.9694737"><ele>317.6666666666667</ele><time>2026-04-26T08:49:28.481Z</time></trkpt><trkpt lat="44.5304578" lon="7.9697135"><ele>318.3333333333333</ele><time>2026-04-26T08:49:29.477Z</time></trkpt><trkpt lat="44.5303465" lon="7.9699527"><ele>319.0</ele><time>2026-04-26T08:49:30.49Z</time></trkpt><trkpt lat="44.5302327" lon="7.970191"><ele>321.0</ele><time>2026-04-26T08:49:31.479Z</time></trkpt><trkpt lat="44.5301187" lon="7.9704308"><ele>323.0</ele><time>2026-04-26T08:49:32.479Z</time></trkpt><trkpt lat="44.530004" lon="7.970674"><ele>325.0</ele><time>2026-04-26T08:49:33.477Z</time></trkpt><trkpt lat="44.52989" lon="7.9709205"><ele>328.66666666666663</ele><time>2026-04-26T08:49:34.477Z</time></trkpt><trkpt lat="44.5297775" lon="7.9711702"><ele>332.3333333333333</ele><time>2026-04-26T08:49:35.479Z</time></trkpt><trkpt lat="44.529667" lon="7.9714217"><ele>336.0</ele><time>2026-04-26T08:49:36.476Z</time></trkpt><trkpt lat="44.5295592" lon="7.9716747"><ele>335.3333333333333</ele><time>2026-04-26T08:49:37.478Z</time></trkpt><trkpt lat="44.5294517" lon="7.9719303"><ele>334.66666666666663</ele><time>2026-04-26T08:49:38.475Z</time></trkpt><trkpt lat="44.5293422" lon="7.9721853"><ele>334.0</ele><time>2026-04-26T08:49:39.476Z</time></trkpt><trkpt lat="44.52923" lon="7.9724435"><ele>339.3333333333333</ele><time>2026-04-26T08:49:40.478Z</time></trkpt><trkpt lat="44.5291155" lon="7.9727048"><ele>344.6666666666667</ele><time>2026-04-26T08:49:41.477Z</time></trkpt><trkpt lat="44.5289993" lon="7.9729672"><ele>350.0</ele><time>2026-04-26T08:49:42.473Z</time></trkpt><trkpt lat="44.528881" lon="7.973227"><ele>346.33333333333337</ele><time>2026-04-26T08:49:43.475Z</time></trkpt><trkpt lat="44.5287623" lon="7.9734863"><ele>342.6666666666667</ele><time>2026-04-26T08:49:44.475Z</time></trkpt><trkpt lat="44.5286453" lon="7.9737413"><ele>339.0</ele><time>2026-04-26T08:49:45.475Z</time></trkpt><trkpt lat="44.5285312" lon="7.9739925"><ele>343.6666666666667</ele><time>2026-04-26T08:49:46.476Z</time></trkpt><trkpt lat="44.5284227" lon="7.9742405"><ele>348.33333333333337</ele><time>2026-04-26T08:49:47.477Z</time></trkpt><trkpt lat="44.5283217" lon="7.974471"><ele>353.0</ele><time>2026-04-26T08:49:48.476Z</time></trkpt><trkpt lat="44.5282253" lon="7.9746802"><ele>353.0</ele><time>2026-04-26T08:49:49.479Z</time></trkpt><trkpt lat="44.5281298" lon="7.9748748"><ele>353.0</ele><time>2026-04-26T08:49:50.476Z</time></trkpt><trkpt lat="44.528026" lon="7.975052"><ele>353.0</ele><time>2026-04-26T08:49:51.474Z</time></trkpt><trkpt lat="44.5279018" lon="7.9752217"><ele>350.33333333333337</ele><time>2026-04-26T08:49:52.475Z</time></trkpt><trkpt lat="44.5277587" lon="7.9753928"><ele>347.6666666666667</ele><time>2026-04-26T08:49:53.474Z</time></trkpt><trkpt lat="44.5276072" lon="7.975569"><ele>345.0</ele><time>2026-04-26T08:49:54.475Z</time></trkpt><trkpt lat="44.5274513" lon="7.9757463"><ele>343.0</ele><time>2026-04-26T08:49:55.475Z</time></trkpt><trkpt lat="44.527295" lon="7.975924"><ele>341.0</ele><time>2026-04-26T08:49:56.475Z</time></trkpt><trkpt lat="44.5271455" lon="7.9760918"><ele>339.0</ele><time>2026-04-26T08:49:57.476Z</time></trkpt><trkpt lat="44.5270055" lon="7.9762508"><ele>339.0</ele><time>2026-04-26T08:49:58.479Z</time></trkpt><trkpt lat="44.5268715" lon="7.9764037"><ele>339.0</ele><time>2026-04-26T08:49:59.477Z</time></trkpt><trkpt lat="44.526738" lon="7.9765572"><ele>339.0</ele><time>2026-04-26T08:50:00.476Z</time></trkpt><trkpt lat="44.5266028" lon="7.9767082"><ele>339.3333333333333</ele><time>2026-04-26T08:50:01.477Z</time></trkpt><trkpt lat="44.5264678" lon="7.9768608"><ele>339.66666666666663</ele><time>2026-04-26T08:50:02.477Z</time></trkpt><trkpt lat="44.526334" lon="7.9770123"><ele>340.0</ele><time>2026-04-26T08:50:03.477Z</time></trkpt><trkpt lat="44.5262028" lon="7.9771565"><ele>340.0</ele><time>2026-04-26T08:50:04.475Z</time></trkpt><trkpt lat="44.5260782" lon="7.9772912"><ele>340.0</ele><time>2026-04-26T08:50:05.478Z</time></trkpt><trkpt lat="44.5259635" lon="7.977415"><ele>340.0</ele><time>2026-04-26T08:50:06.474Z</time></trkpt><trkpt lat="44.5258553" lon="7.977532"><ele>340.0</ele><time>2026-04-26T08:50:07.473Z</time></trkpt><trkpt lat="44.5257563" lon="7.9776438"><ele>342.6</ele><time>2026-04-26T08:50:08.473Z</time></trkpt><trkpt lat="44.5256767" lon="7.9777603"><ele>345.2</ele><time>2026-04-26T08:50:09.472Z</time></trkpt><trkpt lat="44.5256162" lon="7.9778895"><ele>347.79999999999995</ele><time>2026-04-26T08:50:10.475Z</time></trkpt><trkpt lat="44.5255718" lon="7.9780292"><ele>350.4</ele><time>2026-04-26T08:50:11.475Z</time></trkpt><trkpt lat="44.5255457" lon="7.9781807"><ele>353.0</ele><time>2026-04-26T08:50:12.473Z</time></trkpt><trkpt lat="44.52554" lon="7.9783438"><ele>354.25</ele><time>2026-04-26T08:50:13.474Z</time></trkpt><trkpt lat="44.5255538" lon="7.9785307"><ele>355.5</ele><time>2026-04-26T08:50:14.474Z</time></trkpt><trkpt lat="44.5255715" lon="7.9787312"><ele>356.75</ele><time>2026-04-26T08:50:15.477Z</time></trkpt><trkpt lat="44.5255872" lon="7.9789272"><ele>358.0</ele><time>2026-04-26T08:50:16.473Z</time></trkpt><trkpt lat="44.5256025" lon="7.9791195"><ele>358.4</ele><time>2026-04-26T08:50:17.474Z</time></trkpt><trkpt lat="44.5256177" lon="7.9793007"><ele>358.79999999999995</ele><time>2026-04-26T08:50:18.473Z</time></trkpt><trkpt lat="44.5256353" lon="7.97946"><ele>359.2</ele><time>2026-04-26T08:50:19.476Z</time></trkpt><trkpt lat="44.5256465" lon="7.9795962"><ele>359.6</ele><time>2026-04-26T08:50:20.475Z</time></trkpt><trkpt lat="44.525638" lon="7.9797205"><ele>360.0</ele><time>2026-04-26T08:50:21.473Z</time></trkpt><trkpt lat="44.5256023" lon="7.979828"><ele>360.0</ele><time>2026-04-26T08:50:22.474Z</time></trkpt><trkpt lat="44.5255405" lon="7.979911"><ele>360.0</ele><time>2026-04-26T08:50:23.474Z</time></trkpt><trkpt lat="44.5254557" lon="7.9799593"><ele>360.0</ele><time>2026-04-26T08:50:24.474Z</time></trkpt><trkpt lat="44.5253598" lon="7.9799517"><ele>360.0</ele><time>2026-04-26T08:50:25.477Z</time></trkpt><trkpt lat="44.5252563" lon="7.9798923"><ele>360.0</ele><time>2026-04-26T08:50:26.475Z</time></trkpt><trkpt lat="44.5251425" lon="7.979804"><ele>357.4</ele><time>2026-04-26T08:50:27.475Z</time></trkpt><trkpt lat="44.5250287" lon="7.9797128"><ele>354.8</ele><time>2026-04-26T08:50:28.477Z</time></trkpt><trkpt lat="44.5249325" lon="7.9796325"><ele>352.20000000000005</ele><time>2026-04-26T08:50:29.477Z</time></trkpt><trkpt lat="44.5248455" lon="7.9795568"><ele>349.6</ele><time>2026-04-26T08:50:30.475Z</time></trkpt><trkpt lat="44.524764" lon="7.9794798"><ele>347.0</ele><time>2026-04-26T08:50:31.474Z</time></trkpt><trkpt lat="44.5246802" lon="7.9794038"><ele>347.0</ele><time>2026-04-26T08:50:32.474Z</time></trkpt><trkpt lat="44.5245882" lon="7.9793265"><ele>347.0</ele><time>2026-04-26T08:50:33.473Z</time></trkpt><trkpt lat="44.5244908" lon="7.9792648"><ele>347.0</ele><time>2026-04-26T08:50:34.473Z</time></trkpt><trkpt lat="44.5243893" lon="7.9792448"><ele>347.0</ele><time>2026-04-26T08:50:35.475Z</time></trkpt><trkpt lat="44.5242832" lon="7.9792638"><ele>347.0</ele><time>2026-04-26T08:50:36.475Z</time></trkpt><trkpt lat="44.524177" lon="7.979314"><ele>349.25</ele><time>2026-04-26T08:50:37.473Z</time></trkpt><trkpt lat="44.5240648" lon="7.9793827"><ele>351.5</ele><time>2026-04-26T08:50:38.474Z</time></trkpt><trkpt lat="44.5239418" lon="7.979464"><ele>353.75</ele><time>2026-04-26T08:50:39.474Z</time></trkpt><trkpt lat="44.5238163" lon="7.9795488"><ele>356.0</ele><time>2026-04-26T08:50:40.475Z</time></trkpt><trkpt lat="44.5236842" lon="7.9796315"><ele>356.0</ele><time>2026-04-26T08:50:41.474Z</time></trkpt><trkpt lat="44.52356" lon="7.9797103"><ele>356.0</ele><time>2026-04-26T08:50:42.479Z</time></trkpt><trkpt lat="44.5234505" lon="7.9797817"><ele>356.0</ele><time>2026-04-26T08:50:43.475Z</time></trkpt><trkpt lat="44.5233542" lon="7.9798457"><ele>356.0</ele><time>2026-04-26T08:50:44.476Z</time></trkpt><trkpt lat="44.5232673" lon="7.97992"><ele>361.5</ele><time>2026-04-26T08:50:45.476Z</time></trkpt><trkpt lat="44.523184" lon="7.9800207"><ele>367.0</ele><time>2026-04-26T08:50:46.475Z</time></trkpt><trkpt lat="44.5231015" lon="7.9801568"><ele>372.5</ele><time>2026-04-26T08:50:47.476Z</time></trkpt><trkpt lat="44.5230153" lon="7.9803188"><ele>378.0</ele><time>2026-04-26T08:50:48.475Z</time></trkpt><trkpt lat="44.5229233" lon="7.9804892"><ele>379.6666666666667</ele><time>2026-04-26T08:50:49.473Z</time></trkpt><trkpt lat="44.5228192" lon="7.9806508"><ele>381.33333333333337</ele><time>2026-04-26T08:50:50.472Z</time></trkpt><trkpt lat="44.5227007" lon="7.9807937"><ele>383.0</ele><time>2026-04-26T08:50:51.471Z</time></trkpt><trkpt lat="44.5225768" lon="7.9809032"><ele>383.0</ele><time>2026-04-26T08:50:52.473Z</time></trkpt><trkpt lat="44.5224502" lon="7.9809715"><ele>383.0</ele><time>2026-04-26T08:50:53.474Z</time></trkpt><trkpt lat="44.5223148" lon="7.9809918"><ele>383.0</ele><time>2026-04-26T08:50:54.474Z</time></trkpt><trkpt lat="44.5221698" lon="7.9809697"><ele>383.0</ele><time>2026-04-26T08:50:55.474Z</time></trkpt><trkpt lat="44.5220153" lon="7.980909"><ele>377.0</ele><time>2026-04-26T08:50:56.473Z</time></trkpt><trkpt lat="44.5218633" lon="7.9808335"><ele>371.0</ele><time>2026-04-26T08:50:57.473Z</time></trkpt><trkpt lat="44.5217218" lon="7.9807682"><ele>365.0</ele><time>2026-04-26T08:50:58.472Z</time></trkpt><trkpt lat="44.5215917" lon="7.9807152"><ele>359.0</ele><time>2026-04-26T08:50:59.472Z</time></trkpt><trkpt lat="44.5214567" lon="7.9806953"><ele>359.0</ele><time>2026-04-26T08:51:00.471Z</time></trkpt><trkpt lat="44.521311" lon="7.980722"><ele>359.0</ele><time>2026-04-26T08:51:01.471Z</time></trkpt><trkpt lat="44.5211618" lon="7.9807765"><ele>359.0</ele><time>2026-04-26T08:51:02.474Z</time></trkpt><trkpt lat="44.5210247" lon="7.9808388"><ele>359.0</ele><time>2026-04-26T08:51:03.472Z</time></trkpt><trkpt lat="44.5208993" lon="7.9809048"><ele>362.75</ele><time>2026-04-26T08:51:04.474Z</time></trkpt><trkpt lat="44.5207852" lon="7.9809938"><ele>366.5</ele><time>2026-04-26T08:51:05.472Z</time></trkpt><trkpt lat="44.520678" lon="7.9811248"><ele>370.25</ele><time>2026-04-26T08:51:06.473Z</time></trkpt><trkpt lat="44.5205757" lon="7.9812913"><ele>374.0</ele><time>2026-04-26T08:51:07.475Z</time></trkpt><trkpt lat="44.52048" lon="7.9814847"><ele>371.0</ele><time>2026-04-26T08:51:08.474Z</time></trkpt><trkpt lat="44.5203908" lon="7.9816935"><ele>368.0</ele><time>2026-04-26T08:51:09.478Z</time></trkpt><trkpt lat="44.5203085" lon="7.9819007"><ele>365.0</ele><time>2026-04-26T08:51:10.475Z</time></trkpt><trkpt lat="44.5202295" lon="7.9821095"><ele>365.0</ele><time>2026-04-26T08:51:11.475Z</time></trkpt><trkpt lat="44.5201447" lon="7.982314"><ele>365.0</ele><time>2026-04-26T08:51:12.474Z</time></trkpt><trkpt lat="44.520041" lon="7.982509"><ele>365.0</ele><time>2026-04-26T08:51:13.475Z</time></trkpt><trkpt lat="44.5199257" lon="7.982702"><ele>372.33333333333337</ele><time>2026-04-26T08:51:14.472Z</time></trkpt><trkpt lat="44.519813" lon="7.9829033"><ele>379.6666666666667</ele><time>2026-04-26T08:51:15.473Z</time></trkpt><trkpt lat="44.5197028" lon="7.9831093"><ele>387.0</ele><time>2026-04-26T08:51:16.475Z</time></trkpt><trkpt lat="44.5195943" lon="7.9833152"><ele>385.0</ele><time>2026-04-26T08:51:17.475Z</time></trkpt><trkpt lat="44.5194893" lon="7.9835182"><ele>383.0</ele><time>2026-04-26T08:51:18.473Z</time></trkpt><trkpt lat="44.5193912" lon="7.983719"><ele>381.0</ele><time>2026-04-26T08:51:19.472Z</time></trkpt><trkpt lat="44.5192973" lon="7.9839155"><ele>381.0</ele><time>2026-04-26T08:51:20.471Z</time></trkpt><trkpt lat="44.5191968" lon="7.984104"><ele>381.0</ele><time>2026-04-26T08:51:21.473Z</time></trkpt><trkpt lat="44.5190888" lon="7.9842983"><ele>381.0</ele><time>2026-04-26T08:51:22.473Z</time></trkpt><trkpt lat="44.5189767" lon="7.984499"><ele>389.66666666666663</ele><time>2026-04-26T08:51:23.475Z</time></trkpt><trkpt lat="44.518866" lon="7.9846943"><ele>398.3333333333333</ele><time>2026-04-26T08:51:24.473Z</time></trkpt><trkpt lat="44.5187628" lon="7.9848708"><ele>407.0</ele><time>2026-04-26T08:51:25.473Z</time></trkpt><trkpt lat="44.5186613" lon="7.9850168"><ele>407.0</ele><time>2026-04-26T08:51:26.474Z</time></trkpt><trkpt lat="44.5185562" lon="7.9851213"><ele>407.0</ele><time>2026-04-26T08:51:27.474Z</time></trkpt><trkpt lat="44.5184423" lon="7.9851913"><ele>407.0</ele><time>2026-04-26T08:51:28.474Z</time></trkpt><trkpt lat="44.5183133" lon="7.9852598"><ele>407.0</ele><time>2026-04-26T08:51:29.475Z</time></trkpt><trkpt lat="44.5181807" lon="7.985354"><ele>407.0</ele><time>2026-04-26T08:51:30.471Z</time></trkpt><trkpt lat="44.5180558" lon="7.9854732"><ele>407.0</ele><time>2026-04-26T08:51:31.475Z</time></trkpt><trkpt lat="44.5179535" lon="7.9856045"><ele>407.0</ele><time>2026-04-26T08:51:32.475Z</time></trkpt><trkpt lat="44.5178713" lon="7.9857492"><ele>407.0</ele><time>2026-04-26T08:51:33.472Z</time></trkpt><trkpt lat="44.5178095" lon="7.9859085"><ele>405.0</ele><time>2026-04-26T08:51:34.473Z</time></trkpt><trkpt lat="44.5177715" lon="7.9860768"><ele>403.0</ele><time>2026-04-26T08:51:35.473Z</time></trkpt><trkpt lat="44.5177355" lon="7.9862335"><ele>401.0</ele><time>2026-04-26T08:51:36.473Z</time></trkpt><trkpt lat="44.5176767" lon="7.9863627"><ele>399.0</ele><time>2026-04-26T08:51:37.473Z</time></trkpt><trkpt lat="44.5175873" lon="7.9864642"><ele>399.0</ele><time>2026-04-26T08:51:38.477Z</time></trkpt><trkpt lat="44.517475" lon="7.9865438"><ele>399.0</ele><time>2026-04-26T08:51:39.477Z</time></trkpt><trkpt lat="44.5173518" lon="7.9866302"><ele>399.0</ele><time>2026-04-26T08:51:40.476Z</time></trkpt><trkpt lat="44.5172223" lon="7.9867423"><ele>399.0</ele><time>2026-04-26T08:51:41.477Z</time></trkpt><trkpt lat="44.5170865" lon="7.9868708"><ele>398.33333333333337</ele><time>2026-04-26T08:51:42.475Z</time></trkpt><trkpt lat="44.516948" lon="7.9870078"><ele>397.6666666666667</ele><time>2026-04-26T08:51:43.476Z</time></trkpt><trkpt lat="44.5168138" lon="7.9871435"><ele>397.0</ele><time>2026-04-26T08:51:44.475Z</time></trkpt><trkpt lat="44.516676" lon="7.9872853"><ele>397.0</ele><time>2026-04-26T08:51:45.473Z</time></trkpt><trkpt lat="44.5165353" lon="7.9874303"><ele>397.0</ele><time>2026-04-26T08:51:46.476Z</time></trkpt><trkpt lat="44.5163917" lon="7.9875755"><ele>397.0</ele><time>2026-04-26T08:51:47.473Z</time></trkpt><trkpt lat="44.5162472" lon="7.987722"><ele>396.33333333333337</ele><time>2026-04-26T08:51:48.476Z</time></trkpt><trkpt lat="44.516104" lon="7.987868"><ele>395.66666666666663</ele><time>2026-04-26T08:51:49.476Z</time></trkpt><trkpt lat="44.5159692" lon="7.9880112"><ele>395.0</ele><time>2026-04-26T08:51:50.476Z</time></trkpt><trkpt lat="44.5158433" lon="7.9881402"><ele>395.0</ele><time>2026-04-26T08:51:51.476Z</time></trkpt><trkpt lat="44.5157222" lon="7.9882738"><ele>395.0</ele><time>2026-04-26T08:51:52.476Z</time></trkpt><trkpt lat="44.5156093" lon="7.9884322"><ele>395.0</ele><time>2026-04-26T08:51:53.476Z</time></trkpt><trkpt lat="44.5155057" lon="7.9886185"><ele>397.3333333333333</ele><time>2026-04-26T08:51:54.474Z</time></trkpt><trkpt lat="44.5154035" lon="7.988822"><ele>399.66666666666663</ele><time>2026-04-26T08:51:55.476Z</time></trkpt><trkpt lat="44.5152947" lon="7.9890283"><ele>402.0</ele><time>2026-04-26T08:51:56.476Z</time></trkpt><trkpt lat="44.515181" lon="7.9892348"><ele>402.0</ele><time>2026-04-26T08:51:57.474Z</time></trkpt><trkpt lat="44.515069" lon="7.9894427"><ele>402.0</ele><time>2026-04-26T08:51:58.476Z</time></trkpt><trkpt lat="44.5149573" lon="7.9896522"><ele>402.0</ele><time>2026-04-26T08:51:59.476Z</time></trkpt><trkpt lat="44.5148533" lon="7.9898488"><ele>402.0</ele><time>2026-04-26T08:52:00.475Z</time></trkpt><trkpt lat="44.5147615" lon="7.9900297"><ele>402.0</ele><time>2026-04-26T08:52:01.477Z</time></trkpt><trkpt lat="44.5146772" lon="7.9901915"><ele>402.0</ele><time>2026-04-26T08:52:02.475Z</time></trkpt><trkpt lat="44.5145965" lon="7.9903368"><ele>402.0</ele><time>2026-04-26T08:52:03.476Z</time></trkpt><trkpt lat="44.5145092" lon="7.9904605"><ele>402.0</ele><time>2026-04-26T08:52:04.477Z</time></trkpt><trkpt lat="44.5144048" lon="7.9905535"><ele>402.0</ele><time>2026-04-26T08:52:05.475Z</time></trkpt><trkpt lat="44.5142822" lon="7.9906177"><ele>402.0</ele><time>2026-04-26T08:52:06.474Z</time></trkpt><trkpt lat="44.5141473" lon="7.990668"><ele>402.0</ele><time>2026-04-26T08:52:07.474Z</time></trkpt><trkpt lat="44.5140025" lon="7.9907383"><ele>397.33333333333337</ele><time>2026-04-26T08:52:08.475Z</time></trkpt><trkpt lat="44.5138603" lon="7.9908497"><ele>392.6666666666667</ele><time>2026-04-26T08:52:09.474Z</time></trkpt><trkpt lat="44.5137315" lon="7.9909928"><ele>388.0</ele><time>2026-04-26T08:52:10.474Z</time></trkpt><trkpt lat="44.5136207" lon="7.9911417"><ele>388.0</ele><time>2026-04-26T08:52:11.473Z</time></trkpt><trkpt lat="44.5135238" lon="7.9912927"><ele>388.0</ele><time>2026-04-26T08:52:12.473Z</time></trkpt><trkpt lat="44.5134483" lon="7.991462"><ele>388.0</ele><time>2026-04-26T08:52:13.474Z</time></trkpt><trkpt lat="44.5134053" lon="7.9916557"><ele>388.0</ele><time>2026-04-26T08:52:14.476Z</time></trkpt><trkpt lat="44.5133992" lon="7.9918713"><ele>389.5</ele><time>2026-04-26T08:52:15.475Z</time></trkpt><trkpt lat="44.5134185" lon="7.9920897"><ele>391.0</ele><time>2026-04-26T08:52:16.476Z</time></trkpt><trkpt lat="44.5134375" lon="7.9922942"><ele>392.5</ele><time>2026-04-26T08:52:17.476Z</time></trkpt><trkpt lat="44.513435" lon="7.9924928"><ele>394.0</ele><time>2026-04-26T08:52:18.474Z</time></trkpt><trkpt lat="44.5134023" lon="7.992697"><ele>396.33333333333337</ele><time>2026-04-26T08:52:19.475Z</time></trkpt><trkpt lat="44.5133327" lon="7.9928952"><ele>398.66666666666663</ele><time>2026-04-26T08:52:20.476Z</time></trkpt><trkpt lat="44.5132417" lon="7.9930792"><ele>401.0</ele><time>2026-04-26T08:52:21.475Z</time></trkpt><trkpt lat="44.5131463" lon="7.9932667"><ele>403.66666666666663</ele><time>2026-04-26T08:52:22.475Z</time></trkpt><trkpt lat="44.5130673" lon="7.9934733"><ele>406.33333333333337</ele><time>2026-04-26T08:52:23.475Z</time></trkpt><trkpt lat="44.5130123" lon="7.9936915"><ele>409.0</ele><time>2026-04-26T08:52:24.475Z</time></trkpt><trkpt lat="44.5129717" lon="7.993911"><ele>409.0</ele><time>2026-04-26T08:52:25.475Z</time></trkpt><trkpt lat="44.512932" lon="7.9941222"><ele>409.0</ele><time>2026-04-26T08:52:26.476Z</time></trkpt><trkpt lat="44.5128925" lon="7.9943313"><ele>409.0</ele><time>2026-04-26T08:52:27.476Z</time></trkpt><trkpt lat="44.5128543" lon="7.994523"><ele>403.75</ele><time>2026-04-26T08:52:28.478Z</time></trkpt><trkpt lat="44.5128233" lon="7.9947037"><ele>398.5</ele><time>2026-04-26T08:52:29.476Z</time></trkpt><trkpt lat="44.5128075" lon="7.9948845"><ele>393.25</ele><time>2026-04-26T08:52:30.477Z</time></trkpt><trkpt lat="44.5128128" lon="7.9950583"><ele>388.0</ele><time>2026-04-26T08:52:31.477Z</time></trkpt><trkpt lat="44.5128445" lon="7.9952367"><ele>387.6666666666667</ele><time>2026-04-26T08:52:32.476Z</time></trkpt><trkpt lat="44.5129018" lon="7.9954327"><ele>387.33333333333337</ele><time>2026-04-26T08:52:33.474Z</time></trkpt><trkpt lat="44.5129602" lon="7.9956557"><ele>387.0</ele><time>2026-04-26T08:52:34.477Z</time></trkpt><trkpt lat="44.5130108" lon="7.9958993"><ele>394.0</ele><time>2026-04-26T08:52:35.475Z</time></trkpt><trkpt lat="44.5130667" lon="7.9961463"><ele>401.0</ele><time>2026-04-26T08:52:36.474Z</time></trkpt><trkpt lat="44.5131198" lon="7.9963955"><ele>408.0</ele><time>2026-04-26T08:52:37.478Z</time></trkpt><trkpt lat="44.513161" lon="7.9966513"><ele>407.66666666666663</ele><time>2026-04-26T08:52:38.478Z</time></trkpt><trkpt lat="44.513182" lon="7.9968988"><ele>407.3333333333333</ele><time>2026-04-26T08:52:39.477Z</time></trkpt><trkpt lat="44.5131838" lon="7.9971458"><ele>407.0</ele><time>2026-04-26T08:52:40.475Z</time></trkpt><trkpt lat="44.5131697" lon="7.9973928"><ele>407.0</ele><time>2026-04-26T08:52:41.48Z</time></trkpt><trkpt lat="44.5131568" lon="7.9976498"><ele>407.0</ele><time>2026-04-26T08:52:42.479Z</time></trkpt><trkpt lat="44.5131427" lon="7.99791"><ele>407.0</ele><time>2026-04-26T08:52:43.477Z</time></trkpt><trkpt lat="44.5131268" lon="7.9981615"><ele>409.66666666666663</ele><time>2026-04-26T08:52:44.476Z</time></trkpt><trkpt lat="44.5131113" lon="7.9983938"><ele>412.33333333333337</ele><time>2026-04-26T08:52:45.476Z</time></trkpt><trkpt lat="44.5130982" lon="7.9986085"><ele>415.0</ele><time>2026-04-26T08:52:46.478Z</time></trkpt><trkpt lat="44.5130922" lon="7.9988063"><ele>415.0</ele><time>2026-04-26T08:52:47.478Z</time></trkpt><trkpt lat="44.5131058" lon="7.9989997"><ele>415.0</ele><time>2026-04-26T08:52:48.476Z</time></trkpt><trkpt lat="44.5131463" lon="7.9991957"><ele>415.0</ele><time>2026-04-26T08:52:49.475Z</time></trkpt><trkpt lat="44.513206" lon="7.9993942"><ele>415.0</ele><time>2026-04-26T08:52:50.476Z</time></trkpt><trkpt lat="44.5132538" lon="7.9995868"><ele>416.5</ele><time>2026-04-26T08:52:51.478Z</time></trkpt><trkpt lat="44.5132753" lon="7.9997747"><ele>418.0</ele><time>2026-04-26T08:52:52.474Z</time></trkpt><trkpt lat="44.5132638" lon="7.9999752"><ele>419.5</ele><time>2026-04-26T08:52:53.475Z</time></trkpt><trkpt lat="44.5132263" lon="8.000193"><ele>421.0</ele><time>2026-04-26T08:52:54.473Z</time></trkpt><trkpt lat="44.5131738" lon="8.0004173"><ele>421.0</ele><time>2026-04-26T08:52:55.476Z</time></trkpt><trkpt lat="44.5131088" lon="8.0006422"><ele>421.0</ele><time>2026-04-26T08:52:56.475Z</time></trkpt><trkpt lat="44.5130418" lon="8.0008553"><ele>421.0</ele><time>2026-04-26T08:52:57.474Z</time></trkpt><trkpt lat="44.5129848" lon="8.0010788"><ele>423.33333333333337</ele><time>2026-04-26T08:52:58.472Z</time></trkpt><trkpt lat="44.512951" lon="8.0013083"><ele>425.66666666666663</ele><time>2026-04-26T08:52:59.472Z</time></trkpt><trkpt lat="44.5129425" lon="8.0015225"><ele>428.0</ele><time>2026-04-26T08:53:00.475Z</time></trkpt><trkpt lat="44.5129463" lon="8.0017195"><ele>429.0</ele><time>2026-04-26T08:53:01.474Z</time></trkpt><trkpt lat="44.5129368" lon="8.0018987"><ele>430.0</ele><time>2026-04-26T08:53:02.476Z</time></trkpt><trkpt lat="44.512898" lon="8.0020717"><ele>431.0</ele><time>2026-04-26T08:53:03.475Z</time></trkpt><trkpt lat="44.5128425" lon="8.0022547"><ele>432.0</ele><time>2026-04-26T08:53:04.476Z</time></trkpt><trkpt lat="44.5127812" lon="8.0024412"><ele>425.5</ele><time>2026-04-26T08:53:05.476Z</time></trkpt><trkpt lat="44.512717" lon="8.0026155"><ele>419.0</ele><time>2026-04-26T08:53:06.473Z</time></trkpt><trkpt lat="44.5126348" lon="8.0027655"><ele>412.5</ele><time>2026-04-26T08:53:07.473Z</time></trkpt><trkpt lat="44.5125228" lon="8.002895"><ele>406.0</ele><time>2026-04-26T08:53:08.473Z</time></trkpt><trkpt lat="44.5124158" lon="8.0030177"><ele>406.0</ele><time>2026-04-26T08:53:09.472Z</time></trkpt><trkpt lat="44.5123323" lon="8.0031617"><ele>406.0</ele><time>2026-04-26T08:53:10.472Z</time></trkpt><trkpt lat="44.5122825" lon="8.0033415"><ele>406.0</ele><time>2026-04-26T08:53:11.472Z</time></trkpt><trkpt lat="44.5122578" lon="8.0035538"><ele>406.0</ele><time>2026-04-26T08:53:12.472Z</time></trkpt><trkpt lat="44.5122397" lon="8.003776"><ele>410.0</ele><time>2026-04-26T08:53:13.472Z</time></trkpt><trkpt lat="44.5122085" lon="8.0040052"><ele>414.0</ele><time>2026-04-26T08:53:14.473Z</time></trkpt><trkpt lat="44.5121618" lon="8.004242"><ele>418.0</ele><time>2026-04-26T08:53:15.472Z</time></trkpt><trkpt lat="44.5121018" lon="8.0044738"><ele>418.33333333333337</ele><time>2026-04-26T08:53:16.473Z</time></trkpt><trkpt lat="44.5120397" lon="8.0047107"><ele>418.66666666666663</ele><time>2026-04-26T08:53:17.475Z</time></trkpt><trkpt lat="44.51198" lon="8.004947"><ele>419.0</ele><time>2026-04-26T08:53:18.473Z</time></trkpt><trkpt lat="44.5119307" lon="8.005183"><ele>419.3333333333333</ele><time>2026-04-26T08:53:19.473Z</time></trkpt><trkpt lat="44.5118888" lon="8.0054152"><ele>419.66666666666663</ele><time>2026-04-26T08:53:20.473Z</time></trkpt><trkpt lat="44.5118475" lon="8.0056303"><ele>420.0</ele><time>2026-04-26T08:53:21.474Z</time></trkpt><trkpt lat="44.5117943" lon="8.0058383"><ele>420.0</ele><time>2026-04-26T08:53:22.473Z</time></trkpt><trkpt lat="44.5117255" lon="8.0060515"><ele>420.0</ele><time>2026-04-26T08:53:23.472Z</time></trkpt><trkpt lat="44.5116497" lon="8.0062747"><ele>420.0</ele><time>2026-04-26T08:53:24.472Z</time></trkpt><trkpt lat="44.511575" lon="8.0065032"><ele>423.66666666666663</ele><time>2026-04-26T08:53:25.472Z</time></trkpt><trkpt lat="44.5115077" lon="8.0067417"><ele>427.3333333333333</ele><time>2026-04-26T08:53:26.475Z</time></trkpt><trkpt lat="44.5114463" lon="8.0069897"><ele>431.0</ele><time>2026-04-26T08:53:27.474Z</time></trkpt><trkpt lat="44.511394" lon="8.0072465"><ele>431.3333333333333</ele><time>2026-04-26T08:53:28.476Z</time></trkpt><trkpt lat="44.511341" lon="8.0075017"><ele>431.66666666666663</ele><time>2026-04-26T08:53:29.473Z</time></trkpt><trkpt lat="44.5112897" lon="8.0077493"><ele>432.0</ele><time>2026-04-26T08:53:30.474Z</time></trkpt><trkpt lat="44.5112388" lon="8.0079763"><ele>428.0</ele><time>2026-04-26T08:53:31.477Z</time></trkpt><trkpt lat="44.511185" lon="8.008198"><ele>424.0</ele><time>2026-04-26T08:53:32.476Z</time></trkpt><trkpt lat="44.5111135" lon="8.0084102"><ele>420.0</ele><time>2026-04-26T08:53:33.474Z</time></trkpt><trkpt lat="44.5110078" lon="8.0085962"><ele>420.0</ele><time>2026-04-26T08:53:34.473Z</time></trkpt><trkpt lat="44.5108693" lon="8.0087612"><ele>420.0</ele><time>2026-04-26T08:53:35.475Z</time></trkpt><trkpt lat="44.5107137" lon="8.0089163"><ele>420.0</ele><time>2026-04-26T08:53:36.472Z</time></trkpt><trkpt lat="44.5105523" lon="8.0090645"><ele>420.33333333333337</ele><time>2026-04-26T08:53:37.472Z</time></trkpt><trkpt lat="44.5103982" lon="8.0091943"><ele>420.6666666666667</ele><time>2026-04-26T08:53:38.475Z</time></trkpt><trkpt lat="44.510255" lon="8.009303"><ele>421.0</ele><time>2026-04-26T08:53:39.472Z</time></trkpt><trkpt lat="44.51012" lon="8.0094128"><ele>421.0</ele><time>2026-04-26T08:53:40.471Z</time></trkpt><trkpt lat="44.5099905" lon="8.0095492"><ele>421.0</ele><time>2026-04-26T08:53:41.471Z</time></trkpt><trkpt lat="44.5098852" lon="8.0097353"><ele>421.0</ele><time>2026-04-26T08:53:42.471Z</time></trkpt><trkpt lat="44.50978" lon="8.009944"><ele>422.0</ele><time>2026-04-26T08:53:43.475Z</time></trkpt><trkpt lat="44.509671" lon="8.0101562"><ele>423.0</ele><time>2026-04-26T08:53:44.472Z</time></trkpt><trkpt lat="44.5095547" lon="8.0103697"><ele>424.0</ele><time>2026-04-26T08:53:45.472Z</time></trkpt><trkpt lat="44.5094312" lon="8.0105812"><ele>424.0</ele><time>2026-04-26T08:53:46.473Z</time></trkpt><trkpt lat="44.5093037" lon="8.0107867"><ele>424.0</ele><time>2026-04-26T08:53:47.471Z</time></trkpt><trkpt lat="44.5091743" lon="8.010984"><ele>424.0</ele><time>2026-04-26T08:53:48.471Z</time></trkpt><trkpt lat="44.5090348" lon="8.0111772"><ele>425.0</ele><time>2026-04-26T08:53:49.471Z</time></trkpt><trkpt lat="44.5088845" lon="8.0113563"><ele>426.0</ele><time>2026-04-26T08:53:50.472Z</time></trkpt><trkpt lat="44.5087263" lon="8.0115085"><ele>427.0</ele><time>2026-04-26T08:53:51.472Z</time></trkpt><trkpt lat="44.5085655" lon="8.0116323"><ele>434.0</ele><time>2026-04-26T08:53:52.475Z</time></trkpt><trkpt lat="44.5084125" lon="8.0117322"><ele>441.0</ele><time>2026-04-26T08:53:53.473Z</time></trkpt><trkpt lat="44.5082683" lon="8.0118267"><ele>448.0</ele><time>2026-04-26T08:53:54.471Z</time></trkpt><trkpt lat="44.5081408" lon="8.0119333"><ele>448.0</ele><time>2026-04-26T08:53:55.472Z</time></trkpt><trkpt lat="44.5080405" lon="8.0120823"><ele>448.0</ele><time>2026-04-26T08:53:56.472Z</time></trkpt><trkpt lat="44.507951" lon="8.0122442"><ele>448.0</ele><time>2026-04-26T08:53:57.471Z</time></trkpt><trkpt lat="44.50786" lon="8.0123818"><ele>448.0</ele><time>2026-04-26T08:53:58.472Z</time></trkpt><trkpt lat="44.5077493" lon="8.0124852"><ele>452.6666666666667</ele><time>2026-04-26T08:53:59.473Z</time></trkpt><trkpt lat="44.5076153" lon="8.0125623"><ele>457.33333333333337</ele><time>2026-04-26T08:54:00.473Z</time></trkpt><trkpt lat="44.5074695" lon="8.0126235"><ele>462.0</ele><time>2026-04-26T08:54:01.473Z</time></trkpt><trkpt lat="44.5073203" lon="8.012701"><ele>462.0</ele><time>2026-04-26T08:54:02.471Z</time></trkpt><trkpt lat="44.507165" lon="8.0128007"><ele>462.0</ele><time>2026-04-26T08:54:03.471Z</time></trkpt><trkpt lat="44.5070062" lon="8.0129215"><ele>462.0</ele><time>2026-04-26T08:54:04.471Z</time></trkpt><trkpt lat="44.5068473" lon="8.0130442"><ele>456.0</ele><time>2026-04-26T08:54:05.471Z</time></trkpt><trkpt lat="44.5066845" lon="8.0131618"><ele>450.0</ele><time>2026-04-26T08:54:06.471Z</time></trkpt><trkpt lat="44.5065245" lon="8.0132598"><ele>444.0</ele><time>2026-04-26T08:54:07.477Z</time></trkpt><trkpt lat="44.506364" lon="8.0133265"><ele>450.0</ele><time>2026-04-26T08:54:08.473Z</time></trkpt><trkpt lat="44.5062052" lon="8.0133783"><ele>456.0</ele><time>2026-04-26T08:54:09.472Z</time></trkpt><trkpt lat="44.5060562" lon="8.0134357"><ele>462.0</ele><time>2026-04-26T08:54:10.473Z</time></trkpt><trkpt lat="44.5059265" lon="8.0135212"><ele>462.0</ele><time>2026-04-26T08:54:11.47Z</time></trkpt><trkpt lat="44.505803" lon="8.0136502"><ele>462.0</ele><time>2026-04-26T08:54:12.47Z</time></trkpt><trkpt lat="44.505684" lon="8.0138203"><ele>462.0</ele><time>2026-04-26T08:54:13.473Z</time></trkpt><trkpt lat="44.5055642" lon="8.0140053"><ele>463.66666666666663</ele><time>2026-04-26T08:54:14.474Z</time></trkpt><trkpt lat="44.5054325" lon="8.0141933"><ele>465.3333333333333</ele><time>2026-04-26T08:54:15.476Z</time></trkpt><trkpt lat="44.5052853" lon="8.0143692"><ele>467.0</ele><time>2026-04-26T08:54:16.475Z</time></trkpt><trkpt lat="44.5051347" lon="8.0145258"><ele>467.0</ele><time>2026-04-26T08:54:17.478Z</time></trkpt><trkpt lat="44.504998" lon="8.0146667"><ele>467.0</ele><time>2026-04-26T08:54:18.475Z</time></trkpt><trkpt lat="44.5048705" lon="8.0147963"><ele>467.0</ele><time>2026-04-26T08:54:19.477Z</time></trkpt><trkpt lat="44.504756" lon="8.0149202"><ele>468.5</ele><time>2026-04-26T08:54:20.478Z</time></trkpt><trkpt lat="44.5046608" lon="8.0150565"><ele>470.0</ele><time>2026-04-26T08:54:21.474Z</time></trkpt><trkpt lat="44.5045927" lon="8.0152215"><ele>471.5</ele><time>2026-04-26T08:54:22.474Z</time></trkpt><trkpt lat="44.5045642" lon="8.015414"><ele>473.0</ele><time>2026-04-26T08:54:23.476Z</time></trkpt><trkpt lat="44.5045657" lon="8.0156018"><ele>472.99999999999994</ele><time>2026-04-26T08:54:24.474Z</time></trkpt><trkpt lat="44.5045725" lon="8.0157535"><ele>473.0</ele><time>2026-04-26T08:54:25.475Z</time></trkpt><trkpt lat="44.5045668" lon="8.0158727"><ele>473.0</ele><time>2026-04-26T08:54:26.476Z</time></trkpt><trkpt lat="44.5045373" lon="8.015964"><ele>473.0</ele><time>2026-04-26T08:54:27.476Z</time></trkpt><trkpt lat="44.5044755" lon="8.0160172"><ele>472.99999999999994</ele><time>2026-04-26T08:54:28.477Z</time></trkpt><trkpt lat="44.5043945" lon="8.0160273"><ele>473.0</ele><time>2026-04-26T08:54:29.474Z</time></trkpt><trkpt lat="44.5043065" lon="8.0159918"><ele>472.99999999999994</ele><time>2026-04-26T08:54:30.475Z</time></trkpt><trkpt lat="44.5042165" lon="8.0159167"><ele>473.0</ele><time>2026-04-26T08:54:31.477Z</time></trkpt><trkpt lat="44.5041318" lon="8.0158282"><ele>473.0</ele><time>2026-04-26T08:54:32.474Z</time></trkpt><trkpt lat="44.5040618" lon="8.0157572"><ele>473.0</ele><time>2026-04-26T08:54:33.473Z</time></trkpt><trkpt lat="44.5039962" lon="8.015706"><ele>472.99999999999994</ele><time>2026-04-26T08:54:34.476Z</time></trkpt><trkpt lat="44.5039292" lon="8.0156895"><ele>473.0</ele><time>2026-04-26T08:54:35.474Z</time></trkpt><trkpt lat="44.5038675" lon="8.0157163"><ele>473.0</ele><time>2026-04-26T08:54:36.472Z</time></trkpt><trkpt lat="44.5038212" lon="8.0157907"><ele>472.99999999999994</ele><time>2026-04-26T08:54:37.472Z</time></trkpt><trkpt lat="44.5037912" lon="8.0159022"><ele>472.99999999999994</ele><time>2026-04-26T08:54:38.474Z</time></trkpt><trkpt lat="44.5037645" lon="8.0160382"><ele>473.0</ele><time>2026-04-26T08:54:39.472Z</time></trkpt><trkpt lat="44.5037383" lon="8.0161825"><ele>473.0</ele><time>2026-04-26T08:54:40.476Z</time></trkpt><trkpt lat="44.5037117" lon="8.0163257"><ele>475.0</ele><time>2026-04-26T08:54:41.476Z</time></trkpt><trkpt lat="44.5036843" lon="8.016472"><ele>476.99999999999994</ele><time>2026-04-26T08:54:42.475Z</time></trkpt><trkpt lat="44.5036502" lon="8.0166038"><ele>478.99999999999994</ele><time>2026-04-26T08:54:43.474Z</time></trkpt><trkpt lat="44.5036057" lon="8.0167143"><ele>481.0</ele><time>2026-04-26T08:54:44.474Z</time></trkpt><trkpt lat="44.5035478" lon="8.0168128"><ele>483.0</ele><time>2026-04-26T08:54:45.473Z</time></trkpt><trkpt lat="44.5034783" lon="8.0169153"><ele>486.0</ele><time>2026-04-26T08:54:46.474Z</time></trkpt><trkpt lat="44.5034008" lon="8.0170242"><ele>489.0</ele><time>2026-04-26T08:54:47.474Z</time></trkpt><trkpt lat="44.5033165" lon="8.0171398"><ele>492.0</ele><time>2026-04-26T08:54:48.475Z</time></trkpt><trkpt lat="44.5032285" lon="8.0172573"><ele>495.0</ele><time>2026-04-26T08:54:49.476Z</time></trkpt><trkpt lat="44.5031425" lon="8.017372"><ele>497.2</ele><time>2026-04-26T08:54:50.476Z</time></trkpt><trkpt lat="44.5030617" lon="8.0174855"><ele>499.4</ele><time>2026-04-26T08:54:51.476Z</time></trkpt><trkpt lat="44.5029945" lon="8.017594"><ele>501.6</ele><time>2026-04-26T08:54:52.476Z</time></trkpt><trkpt lat="44.5029515" lon="8.0177075"><ele>503.8</ele><time>2026-04-26T08:54:53.476Z</time></trkpt><trkpt lat="44.5029365" lon="8.0178338"><ele>506.0</ele><time>2026-04-26T08:54:54.475Z</time></trkpt><trkpt lat="44.5029482" lon="8.0179795"><ele>506.0</ele><time>2026-04-26T08:54:55.476Z</time></trkpt><trkpt lat="44.5029675" lon="8.0181443"><ele>506.0</ele><time>2026-04-26T08:54:56.476Z</time></trkpt><trkpt lat="44.5029832" lon="8.0183227"><ele>506.0</ele><time>2026-04-26T08:54:57.477Z</time></trkpt><trkpt lat="44.5029985" lon="8.018507"><ele>506.0</ele><time>2026-04-26T08:54:58.476Z</time></trkpt><trkpt lat="44.5030163" lon="8.018684"><ele>508.25</ele><time>2026-04-26T08:54:59.475Z</time></trkpt><trkpt lat="44.5030358" lon="8.0188668"><ele>510.5</ele><time>2026-04-26T08:55:00.474Z</time></trkpt><trkpt lat="44.5030565" lon="8.0190505"><ele>512.75</ele><time>2026-04-26T08:55:01.475Z</time></trkpt><trkpt lat="44.5030745" lon="8.0192278"><ele>515.0</ele><time>2026-04-26T08:55:02.475Z</time></trkpt><trkpt lat="44.5030743" lon="8.0194008"><ele>516.75</ele><time>2026-04-26T08:55:03.475Z</time></trkpt><trkpt lat="44.5030467" lon="8.0195793"><ele>518.5</ele><time>2026-04-26T08:55:04.476Z</time></trkpt><trkpt lat="44.5030003" lon="8.0197728"><ele>520.25</ele><time>2026-04-26T08:55:05.476Z</time></trkpt><trkpt lat="44.5029462" lon="8.0199758"><ele>522.0</ele><time>2026-04-26T08:55:06.475Z</time></trkpt><trkpt lat="44.5028895" lon="8.0201908"><ele>519.3333333333334</ele><time>2026-04-26T08:55:07.476Z</time></trkpt><trkpt lat="44.5028332" lon="8.0204158"><ele>516.6666666666667</ele><time>2026-04-26T08:55:08.476Z</time></trkpt><trkpt lat="44.5027753" lon="8.0206342"><ele>514.0</ele><time>2026-04-26T08:55:09.475Z</time></trkpt><trkpt lat="44.502722" lon="8.0208295"><ele>514.0</ele><time>2026-04-26T08:55:10.476Z</time></trkpt><trkpt lat="44.5026812" lon="8.0210025"><ele>514.0</ele><time>2026-04-26T08:55:11.478Z</time></trkpt><trkpt lat="44.5026668" lon="8.0211558"><ele>514.0</ele><time>2026-04-26T08:55:12.474Z</time></trkpt><trkpt lat="44.5026913" lon="8.0212858"><ele>514.0</ele><time>2026-04-26T08:55:13.475Z</time></trkpt><trkpt lat="44.5027498" lon="8.0214053"><ele>514.0</ele><time>2026-04-26T08:55:14.474Z</time></trkpt><trkpt lat="44.5028445" lon="8.0215202"><ele>522.2</ele><time>2026-04-26T08:55:15.474Z</time></trkpt><trkpt lat="44.5029475" lon="8.0216328"><ele>530.4</ele><time>2026-04-26T08:55:16.475Z</time></trkpt><trkpt lat="44.5030388" lon="8.0217305"><ele>538.6</ele><time>2026-04-26T08:55:17.476Z</time></trkpt><trkpt lat="44.503112" lon="8.0218195"><ele>546.8</ele><time>2026-04-26T08:55:18.478Z</time></trkpt><trkpt lat="44.50316" lon="8.0219112"><ele>555.0</ele><time>2026-04-26T08:55:19.474Z</time></trkpt><trkpt lat="44.5031715" lon="8.0220052"><ele>556.2</ele><time>2026-04-26T08:55:20.474Z</time></trkpt><trkpt lat="44.5031422" lon="8.0220918"><ele>557.4</ele><time>2026-04-26T08:55:21.475Z</time></trkpt><trkpt lat="44.5030767" lon="8.022155"><ele>558.6</ele><time>2026-04-26T08:55:22.473Z</time></trkpt><trkpt lat="44.5029825" lon="8.0221955"><ele>559.8</ele><time>2026-04-26T08:55:23.476Z</time></trkpt><trkpt lat="44.502879" lon="8.0222433"><ele>561.0</ele><time>2026-04-26T08:55:24.474Z</time></trkpt><trkpt lat="44.502782" lon="8.0223245"><ele>554.5</ele><time>2026-04-26T08:55:25.472Z</time></trkpt><trkpt lat="44.5026985" lon="8.0224465"><ele>548.0</ele><time>2026-04-26T08:55:26.472Z</time></trkpt><trkpt lat="44.5026335" lon="8.0225972"><ele>541.5</ele><time>2026-04-26T08:55:27.476Z</time></trkpt><trkpt lat="44.5025843" lon="8.0227402"><ele>535.0</ele><time>2026-04-26T08:55:28.475Z</time></trkpt><trkpt lat="44.502545" lon="8.0228732"><ele>535.0</ele><time>2026-04-26T08:55:29.48Z</time></trkpt><trkpt lat="44.5025088" lon="8.0230192"><ele>535.0</ele><time>2026-04-26T08:55:30.476Z</time></trkpt><trkpt lat="44.5024583" lon="8.0231822"><ele>535.0</ele><time>2026-04-26T08:55:31.478Z</time></trkpt><trkpt lat="44.5023883" lon="8.0233585"><ele>535.0</ele><time>2026-04-26T08:55:32.477Z</time></trkpt><trkpt lat="44.502312" lon="8.0235405"><ele>531.0</ele><time>2026-04-26T08:55:33.477Z</time></trkpt><trkpt lat="44.5022273" lon="8.023718"><ele>527.0</ele><time>2026-04-26T08:55:34.478Z</time></trkpt><trkpt lat="44.5021327" lon="8.0238905"><ele>523.0</ele><time>2026-04-26T08:55:35.477Z</time></trkpt><trkpt lat="44.5020425" lon="8.0240712"><ele>528.6666666666667</ele><time>2026-04-26T08:55:36.476Z</time></trkpt><trkpt lat="44.5019668" lon="8.0242758"><ele>534.3333333333334</ele><time>2026-04-26T08:55:37.475Z</time></trkpt><trkpt lat="44.5019008" lon="8.0245058"><ele>540.0</ele><time>2026-04-26T08:55:38.475Z</time></trkpt><trkpt lat="44.50184" lon="8.024734"><ele>540.0</ele><time>2026-04-26T08:55:39.476Z</time></trkpt><trkpt lat="44.5017865" lon="8.0249378"><ele>540.0</ele><time>2026-04-26T08:55:40.476Z</time></trkpt><trkpt lat="44.501741" lon="8.0251215"><ele>540.0</ele><time>2026-04-26T08:55:41.479Z</time></trkpt><trkpt lat="44.5017127" lon="8.0252962"><ele>540.0</ele><time>2026-04-26T08:55:42.475Z</time></trkpt><trkpt lat="44.5017182" lon="8.0254697"><ele>542.4</ele><time>2026-04-26T08:55:43.476Z</time></trkpt><trkpt lat="44.5017547" lon="8.0256328"><ele>544.8</ele><time>2026-04-26T08:55:44.475Z</time></trkpt><trkpt lat="44.5018005" lon="8.0257717"><ele>547.2</ele><time>2026-04-26T08:55:45.473Z</time></trkpt><trkpt lat="44.5018267" lon="8.025892"><ele>549.6</ele><time>2026-04-26T08:55:46.477Z</time></trkpt><trkpt lat="44.5018122" lon="8.0259998"><ele>552.0</ele><time>2026-04-26T08:55:47.474Z</time></trkpt><trkpt lat="44.5017538" lon="8.0260827"><ele>554.25</ele><time>2026-04-26T08:55:48.478Z</time></trkpt><trkpt lat="44.5016597" lon="8.0261383"><ele>556.5</ele><time>2026-04-26T08:55:49.474Z</time></trkpt><trkpt lat="44.5015527" lon="8.026202"><ele>558.75</ele><time>2026-04-26T08:55:50.474Z</time></trkpt><trkpt lat="44.5014512" lon="8.026313"><ele>561.0</ele><time>2026-04-26T08:55:51.473Z</time></trkpt><trkpt lat="44.5013632" lon="8.0264747"><ele>564.3333333333334</ele><time>2026-04-26T08:55:52.474Z</time></trkpt><trkpt lat="44.5012852" lon="8.026666"><ele>567.6666666666667</ele><time>2026-04-26T08:55:53.476Z</time></trkpt><trkpt lat="44.5012088" lon="8.0268638"><ele>571.0</ele><time>2026-04-26T08:55:54.478Z</time></trkpt><trkpt lat="44.5011263" lon="8.0270812"><ele>569.0</ele><time>2026-04-26T08:55:55.477Z</time></trkpt><trkpt lat="44.5010388" lon="8.0273118"><ele>567.0</ele><time>2026-04-26T08:55:56.475Z</time></trkpt><trkpt lat="44.5009438" lon="8.027553"><ele>565.0</ele><time>2026-04-26T08:55:57.475Z</time></trkpt><trkpt lat="44.5008472" lon="8.0277938"><ele>565.0</ele><time>2026-04-26T08:55:58.474Z</time></trkpt><trkpt lat="44.5007468" lon="8.0280452"><ele>565.0</ele><time>2026-04-26T08:55:59.475Z</time></trkpt><trkpt lat="44.5006375" lon="8.0282957"><ele>565.0</ele><time>2026-04-26T08:56:00.477Z</time></trkpt><trkpt lat="44.5005208" lon="8.0285388"><ele>565.0</ele><time>2026-04-26T08:56:01.478Z</time></trkpt><trkpt lat="44.500403" lon="8.0287753"><ele>565.0</ele><time>2026-04-26T08:56:02.475Z</time></trkpt><trkpt lat="44.5002942" lon="8.0290147"><ele>565.0</ele><time>2026-04-26T08:56:03.475Z</time></trkpt><trkpt lat="44.5001925" lon="8.029257"><ele>565.0</ele><time>2026-04-26T08:56:04.476Z</time></trkpt><trkpt lat="44.5000922" lon="8.0295"><ele>565.0</ele><time>2026-04-26T08:56:05.477Z</time></trkpt><trkpt lat="44.4999922" lon="8.0297442"><ele>565.0</ele><time>2026-04-26T08:56:06.475Z</time></trkpt><trkpt lat="44.4998955" lon="8.0299888"><ele>570.3333333333334</ele><time>2026-04-26T08:56:07.474Z</time></trkpt><trkpt lat="44.4998063" lon="8.0302177"><ele>575.6666666666666</ele><time>2026-04-26T08:56:08.476Z</time></trkpt><trkpt lat="44.499724" lon="8.0304272"><ele>581.0</ele><time>2026-04-26T08:56:09.475Z</time></trkpt><trkpt lat="44.499649" lon="8.0306175"><ele>581.0</ele><time>2026-04-26T08:56:10.476Z</time></trkpt><trkpt lat="44.4995848" lon="8.0307878"><ele>581.0</ele><time>2026-04-26T08:56:11.475Z</time></trkpt><trkpt lat="44.4995408" lon="8.0309528"><ele>581.0</ele><time>2026-04-26T08:56:12.475Z</time></trkpt><trkpt lat="44.4995293" lon="8.0311312"><ele>581.0</ele><time>2026-04-26T08:56:13.474Z</time></trkpt><trkpt lat="44.4995455" lon="8.0313298"><ele>574.6666666666666</ele><time>2026-04-26T08:56:14.474Z</time></trkpt><trkpt lat="44.4995825" lon="8.0315537"><ele>568.3333333333334</ele><time>2026-04-26T08:56:15.473Z</time></trkpt><trkpt lat="44.499623" lon="8.0317825"><ele>562.0</ele><time>2026-04-26T08:56:16.474Z</time></trkpt><trkpt lat="44.4996693" lon="8.0320118"><ele>574.6666666666667</ele><time>2026-04-26T08:56:17.472Z</time></trkpt><trkpt lat="44.499737" lon="8.0322285"><ele>587.3333333333334</ele><time>2026-04-26T08:56:18.478Z</time></trkpt><trkpt lat="44.4998328" lon="8.0324348"><ele>600.0</ele><time>2026-04-26T08:56:19.478Z</time></trkpt><trkpt lat="44.4999478" lon="8.0326422"><ele>600.0</ele><time>2026-04-26T08:56:20.476Z</time></trkpt><trkpt lat="44.50006" lon="8.032841"><ele>600.0</ele><time>2026-04-26T08:56:21.475Z</time></trkpt><trkpt lat="44.5001595" lon="8.0330152"><ele>600.0</ele><time>2026-04-26T08:56:22.475Z</time></trkpt><trkpt lat="44.5002408" lon="8.0331623"><ele>600.0</ele><time>2026-04-26T08:56:23.475Z</time></trkpt><trkpt lat="44.5002995" lon="8.0332787"><ele>600.0</ele><time>2026-04-26T08:56:24.476Z</time></trkpt><trkpt lat="44.5003283" lon="8.0333793"><ele>600.0</ele><time>2026-04-26T08:56:25.48Z</time></trkpt><trkpt lat="44.5002718" lon="8.033508"><ele>600.0</ele><time>2026-04-26T08:56:27.475Z</time></trkpt><trkpt lat="44.5002073" lon="8.0335042"><ele>600.0</ele><time>2026-04-26T08:56:28.476Z</time></trkpt><trkpt lat="44.5001233" lon="8.033462"><ele>600.0</ele><time>2026-04-26T08:56:29.474Z</time></trkpt><trkpt lat="44.5000182" lon="8.0333938"><ele>600.25</ele><time>2026-04-26T08:56:30.475Z</time></trkpt><trkpt lat="44.4998947" lon="8.0333382"><ele>600.5</ele><time>2026-04-26T08:56:31.477Z</time></trkpt><trkpt lat="44.4997507" lon="8.0333117"><ele>600.75</ele><time>2026-04-26T08:56:32.475Z</time></trkpt><trkpt lat="44.4995892" lon="8.0333228"><ele>601.0</ele><time>2026-04-26T08:56:33.475Z</time></trkpt><trkpt lat="44.4994157" lon="8.0333638"><ele>601.0</ele><time>2026-04-26T08:56:34.476Z</time></trkpt><trkpt lat="44.4992243" lon="8.0334232"><ele>601.0</ele><time>2026-04-26T08:56:35.474Z</time></trkpt><trkpt lat="44.4990178" lon="8.0334837"><ele>601.0</ele><time>2026-04-26T08:56:36.475Z</time></trkpt><trkpt lat="44.4988395" lon="8.0335305"><ele>599.0</ele><time>2026-04-26T08:56:37.474Z</time></trkpt><trkpt lat="44.4986938" lon="8.0335668"><ele>597.0</ele><time>2026-04-26T08:56:38.473Z</time></trkpt><trkpt lat="44.4985758" lon="8.0336072"><ele>595.0</ele><time>2026-04-26T08:56:39.474Z</time></trkpt><trkpt lat="44.4984708" lon="8.0336763"><ele>593.0</ele><time>2026-04-26T08:56:40.473Z</time></trkpt><trkpt lat="44.4983807" lon="8.0337995"><ele>593.0</ele><time>2026-04-26T08:56:41.476Z</time></trkpt><trkpt lat="44.4982985" lon="8.0339733"><ele>593.0</ele><time>2026-04-26T08:56:42.475Z</time></trkpt><trkpt lat="44.4982275" lon="8.0341603"><ele>593.0</ele><time>2026-04-26T08:56:43.476Z</time></trkpt><trkpt lat="44.4981727" lon="8.03433"><ele>593.0</ele><time>2026-04-26T08:56:44.475Z</time></trkpt><trkpt lat="44.4981422" lon="8.0345053"><ele>597.25</ele><time>2026-04-26T08:56:45.475Z</time></trkpt><trkpt lat="44.4981423" lon="8.0346993"><ele>601.5</ele><time>2026-04-26T08:56:46.475Z</time></trkpt><trkpt lat="44.4981688" lon="8.034903"><ele>605.75</ele><time>2026-04-26T08:56:47.477Z</time></trkpt><trkpt lat="44.4981993" lon="8.0350932"><ele>610.0</ele><time>2026-04-26T08:56:48.476Z</time></trkpt><trkpt lat="44.4982127" lon="8.0352647"><ele>612.5</ele><time>2026-04-26T08:56:49.477Z</time></trkpt><trkpt lat="44.4981923" lon="8.0354233"><ele>615.0</ele><time>2026-04-26T08:56:50.478Z</time></trkpt><trkpt lat="44.4981305" lon="8.0355565"><ele>617.5</ele><time>2026-04-26T08:56:51.476Z</time></trkpt><trkpt lat="44.498028" lon="8.0356585"><ele>620.0</ele><time>2026-04-26T08:56:52.475Z</time></trkpt><trkpt lat="44.497898" lon="8.0357537"><ele>619.6666666666666</ele><time>2026-04-26T08:56:53.475Z</time></trkpt><trkpt lat="44.4977608" lon="8.0358587"><ele>619.3333333333334</ele><time>2026-04-26T08:56:54.476Z</time></trkpt><trkpt lat="44.4976182" lon="8.0359718"><ele>619.0</ele><time>2026-04-26T08:56:55.477Z</time></trkpt><trkpt lat="44.4974722" lon="8.0360912"><ele>619.0</ele><time>2026-04-26T08:56:56.475Z</time></trkpt><trkpt lat="44.4973305" lon="8.0362035"><ele>619.0</ele><time>2026-04-26T08:56:57.476Z</time></trkpt><trkpt lat="44.4972015" lon="8.0363027"><ele>619.0</ele><time>2026-04-26T08:56:58.473Z</time></trkpt><trkpt lat="44.4970777" lon="8.0363992"><ele>619.75</ele><time>2026-04-26T08:56:59.479Z</time></trkpt><trkpt lat="44.4969637" lon="8.036511"><ele>620.5</ele><time>2026-04-26T08:57:00.474Z</time></trkpt><trkpt lat="44.496872" lon="8.0366622"><ele>621.25</ele><time>2026-04-26T08:57:01.476Z</time></trkpt><trkpt lat="44.4968" lon="8.0368608"><ele>622.0</ele><time>2026-04-26T08:57:02.475Z</time></trkpt><trkpt lat="44.4967288" lon="8.0370955"><ele>622.0</ele><time>2026-04-26T08:57:03.473Z</time></trkpt><trkpt lat="44.4966547" lon="8.0373413"><ele>622.0</ele><time>2026-04-26T08:57:04.473Z</time></trkpt><trkpt lat="44.4965812" lon="8.037588"><ele>622.0</ele><time>2026-04-26T08:57:05.474Z</time></trkpt><trkpt lat="44.4965167" lon="8.0378152"><ele>624.25</ele><time>2026-04-26T08:57:06.475Z</time></trkpt><trkpt lat="44.4964597" lon="8.0380215"><ele>626.5</ele><time>2026-04-26T08:57:07.477Z</time></trkpt><trkpt lat="44.4964028" lon="8.0382038"><ele>628.75</ele><time>2026-04-26T08:57:08.478Z</time></trkpt><trkpt lat="44.496331" lon="8.038349"><ele>631.0</ele><time>2026-04-26T08:57:09.479Z</time></trkpt><trkpt lat="44.4962312" lon="8.0384345"><ele>631.25</ele><time>2026-04-26T08:57:10.476Z</time></trkpt><trkpt lat="44.4961077" lon="8.0384723"><ele>631.5</ele><time>2026-04-26T08:57:11.475Z</time></trkpt><trkpt lat="44.4959757" lon="8.0384928"><ele>631.75</ele><time>2026-04-26T08:57:12.475Z</time></trkpt><trkpt lat="44.4958532" lon="8.0385413"><ele>632.0</ele><time>2026-04-26T08:57:13.474Z</time></trkpt><trkpt lat="44.495733" lon="8.0386392"><ele>632.0</ele><time>2026-04-26T08:57:14.475Z</time></trkpt><trkpt lat="44.4956218" lon="8.0387935"><ele>632.0</ele><time>2026-04-26T08:57:15.475Z</time></trkpt><trkpt lat="44.4955162" lon="8.0389728"><ele>632.0</ele><time>2026-04-26T08:57:16.478Z</time></trkpt><trkpt lat="44.4954052" lon="8.0391658"><ele>633.75</ele><time>2026-04-26T08:57:17.476Z</time></trkpt><trkpt lat="44.4953038" lon="8.0393467"><ele>635.5</ele><time>2026-04-26T08:57:18.475Z</time></trkpt><trkpt lat="44.4952148" lon="8.0395097"><ele>637.25</ele><time>2026-04-26T08:57:19.477Z</time></trkpt><trkpt lat="44.4951305" lon="8.039651"><ele>639.0</ele><time>2026-04-26T08:57:20.476Z</time></trkpt><trkpt lat="44.4950412" lon="8.0397517"><ele>639.0</ele><time>2026-04-26T08:57:21.475Z</time></trkpt><trkpt lat="44.4949372" lon="8.0398092"><ele>639.0</ele><time>2026-04-26T08:57:22.476Z</time></trkpt><trkpt lat="44.4948165" lon="8.0398173"><ele>639.0</ele><time>2026-04-26T08:57:23.476Z</time></trkpt><trkpt lat="44.4946878" lon="8.0397765"><ele>639.0</ele><time>2026-04-26T08:57:24.475Z</time></trkpt><trkpt lat="44.4945573" lon="8.0397172"><ele>639.0</ele><time>2026-04-26T08:57:25.476Z</time></trkpt><trkpt lat="44.4944377" lon="8.0396813"><ele>639.0</ele><time>2026-04-26T08:57:26.475Z</time></trkpt><trkpt lat="44.49432" lon="8.0396907"><ele>639.0</ele><time>2026-04-26T08:57:27.473Z</time></trkpt><trkpt lat="44.494198" lon="8.0397547"><ele>639.0</ele><time>2026-04-26T08:57:28.474Z</time></trkpt><trkpt lat="44.4940778" lon="8.039868"><ele>642.3333333333334</ele><time>2026-04-26T08:57:29.475Z</time></trkpt><trkpt lat="44.4939667" lon="8.0400147"><ele>645.6666666666667</ele><time>2026-04-26T08:57:30.473Z</time></trkpt><trkpt lat="44.4938595" lon="8.0401968"><ele>649.0</ele><time>2026-04-26T08:57:31.478Z</time></trkpt><trkpt lat="44.4937597" lon="8.0404028"><ele>648.0</ele><time>2026-04-26T08:57:32.478Z</time></trkpt><trkpt lat="44.4936605" lon="8.0406175"><ele>647.0</ele><time>2026-04-26T08:57:33.476Z</time></trkpt><trkpt lat="44.4935652" lon="8.0408205"><ele>646.0</ele><time>2026-04-26T08:57:34.476Z</time></trkpt><trkpt lat="44.4934795" lon="8.0409988"><ele>647.5999999999999</ele><time>2026-04-26T08:57:35.48Z</time></trkpt><trkpt lat="44.4934023" lon="8.0411567"><ele>649.2</ele><time>2026-04-26T08:57:36.476Z</time></trkpt><trkpt lat="44.4933372" lon="8.0412952"><ele>650.8</ele><time>2026-04-26T08:57:37.478Z</time></trkpt><trkpt lat="44.4932935" lon="8.041411"><ele>652.4000000000001</ele><time>2026-04-26T08:57:38.477Z</time></trkpt><trkpt lat="44.4932805" lon="8.0415103"><ele>654.0</ele><time>2026-04-26T08:57:39.475Z</time></trkpt><trkpt lat="44.493307" lon="8.0415915"><ele>654.0</ele><time>2026-04-26T08:57:40.475Z</time></trkpt><trkpt lat="44.4933685" lon="8.0416527"><ele>654.0</ele><time>2026-04-26T08:57:41.476Z</time></trkpt><trkpt lat="44.4934515" lon="8.041671"><ele>654.0</ele><time>2026-04-26T08:57:42.474Z</time></trkpt><trkpt lat="44.4935383" lon="8.0416352"><ele>654.0</ele><time>2026-04-26T08:57:43.475Z</time></trkpt><trkpt lat="44.493633" lon="8.0415493"><ele>654.0</ele><time>2026-04-26T08:57:44.477Z</time></trkpt><trkpt lat="44.4937362" lon="8.0414383"><ele>656.0</ele><time>2026-04-26T08:57:45.478Z</time></trkpt><trkpt lat="44.4938512" lon="8.0413115"><ele>658.0</ele><time>2026-04-26T08:57:46.477Z</time></trkpt><trkpt lat="44.4939738" lon="8.0411805"><ele>660.0</ele><time>2026-04-26T08:57:47.477Z</time></trkpt><trkpt lat="44.494098" lon="8.0410653"><ele>662.0</ele><time>2026-04-26T08:57:48.477Z</time></trkpt><trkpt lat="44.4942183" lon="8.0409867"><ele>662.0</ele><time>2026-04-26T08:57:49.476Z</time></trkpt><trkpt lat="44.49435" lon="8.0409498"><ele>662.0</ele><time>2026-04-26T08:57:50.478Z</time></trkpt><trkpt lat="44.4945027" lon="8.040949"><ele>662.0</ele><time>2026-04-26T08:57:51.476Z</time></trkpt><trkpt lat="44.4946628" lon="8.040967"><ele>662.0</ele><time>2026-04-26T08:57:52.474Z</time></trkpt><trkpt lat="44.4948345" lon="8.0409903"><ele>664.6666666666666</ele><time>2026-04-26T08:57:53.48Z</time></trkpt><trkpt lat="44.4950085" lon="8.041009"><ele>667.3333333333334</ele><time>2026-04-26T08:57:54.474Z</time></trkpt><trkpt lat="44.4951775" lon="8.0410067"><ele>670.0</ele><time>2026-04-26T08:57:55.477Z</time></trkpt><trkpt lat="44.4953417" lon="8.0409665"><ele>669.3333333333334</ele><time>2026-04-26T08:57:56.475Z</time></trkpt><trkpt lat="44.4955022" lon="8.0408878"><ele>668.6666666666666</ele><time>2026-04-26T08:57:57.476Z</time></trkpt><trkpt lat="44.4956535" lon="8.040774"><ele>668.0</ele><time>2026-04-26T08:57:58.478Z</time></trkpt><trkpt lat="44.4957852" lon="8.0406418"><ele>668.0</ele><time>2026-04-26T08:57:59.476Z</time></trkpt><trkpt lat="44.4958935" lon="8.040509"><ele>668.0</ele><time>2026-04-26T08:58:00.48Z</time></trkpt><trkpt lat="44.4959848" lon="8.040401"><ele>668.0</ele><time>2026-04-26T08:58:01.477Z</time></trkpt><trkpt lat="44.4960657" lon="8.0403442"><ele>668.0</ele><time>2026-04-26T08:58:02.477Z</time></trkpt><trkpt lat="44.4961413" lon="8.0403583"><ele>668.0</ele><time>2026-04-26T08:58:03.476Z</time></trkpt><trkpt lat="44.4961925" lon="8.0404335"><ele>668.0</ele><time>2026-04-26T08:58:04.477Z</time></trkpt><trkpt lat="44.4962028" lon="8.0405402"><ele>668.0</ele><time>2026-04-26T08:58:05.477Z</time></trkpt><trkpt lat="44.4961642" lon="8.0406337"><ele>668.0</ele><time>2026-04-26T08:58:06.476Z</time></trkpt><trkpt lat="44.496086" lon="8.0406982"><ele>668.0</ele><time>2026-04-26T08:58:07.478Z</time></trkpt><trkpt lat="44.4959815" lon="8.0407528"><ele>668.0</ele><time>2026-04-26T08:58:08.476Z</time></trkpt><trkpt lat="44.4958722" lon="8.0408375"><ele>674.6666666666666</ele><time>2026-04-26T08:58:09.474Z</time></trkpt><trkpt lat="44.4957673" lon="8.0409713"><ele>681.3333333333334</ele><time>2026-04-26T08:58:10.477Z</time></trkpt><trkpt lat="44.4956582" lon="8.0411348"><ele>688.0</ele><time>2026-04-26T08:58:11.475Z</time></trkpt><trkpt lat="44.4955438" lon="8.0413073"><ele>688.0</ele><time>2026-04-26T08:58:12.475Z</time></trkpt><trkpt lat="44.4954208" lon="8.0414892"><ele>688.0</ele><time>2026-04-26T08:58:13.476Z</time></trkpt><trkpt lat="44.4952943" lon="8.041682"><ele>688.0</ele><time>2026-04-26T08:58:14.477Z</time></trkpt><trkpt lat="44.4951643" lon="8.041872"><ele>687.3333333333334</ele><time>2026-04-26T08:58:15.477Z</time></trkpt><trkpt lat="44.4950352" lon="8.0420477"><ele>686.6666666666666</ele><time>2026-04-26T08:58:16.474Z</time></trkpt><trkpt lat="44.4949107" lon="8.0422257"><ele>686.0</ele><time>2026-04-26T08:58:17.48Z</time></trkpt><trkpt lat="44.4948012" lon="8.042403"><ele>687.0</ele><time>2026-04-26T08:58:18.474Z</time></trkpt><trkpt lat="44.4946953" lon="8.0425698"><ele>688.0</ele><time>2026-04-26T08:58:19.475Z</time></trkpt><trkpt lat="44.4945808" lon="8.0427322"><ele>689.0</ele><time>2026-04-26T08:58:20.477Z</time></trkpt><trkpt lat="44.4944485" lon="8.0428875"><ele>689.0</ele><time>2026-04-26T08:58:21.476Z</time></trkpt><trkpt lat="44.4942933" lon="8.0430288"><ele>689.0</ele><time>2026-04-26T08:58:22.476Z</time></trkpt><trkpt lat="44.4941223" lon="8.0431558"><ele>689.0</ele><time>2026-04-26T08:58:23.475Z</time></trkpt><trkpt lat="44.4939433" lon="8.0432708"><ele>694.3333333333333</ele><time>2026-04-26T08:58:24.476Z</time></trkpt><trkpt lat="44.4937617" lon="8.0433792"><ele>699.6666666666666</ele><time>2026-04-26T08:58:25.476Z</time></trkpt><trkpt lat="44.4935873" lon="8.0434813"><ele>705.0</ele><time>2026-04-26T08:58:26.475Z</time></trkpt><trkpt lat="44.4934285" lon="8.043572"><ele>705.0</ele><time>2026-04-26T08:58:27.477Z</time></trkpt><trkpt lat="44.4932885" lon="8.043653"><ele>705.0</ele><time>2026-04-26T08:58:28.476Z</time></trkpt><trkpt lat="44.493165" lon="8.0437222"><ele>705.0</ele><time>2026-04-26T08:58:29.477Z</time></trkpt><trkpt lat="44.4930545" lon="8.0437733"><ele>705.0</ele><time>2026-04-26T08:58:30.476Z</time></trkpt><trkpt lat="44.4929583" lon="8.0438072"><ele>705.6</ele><time>2026-04-26T08:58:31.479Z</time></trkpt><trkpt lat="44.4928792" lon="8.0438277"><ele>706.2</ele><time>2026-04-26T08:58:32.476Z</time></trkpt><trkpt lat="44.4927678" lon="8.0438497"><ele>706.8</ele><time>2026-04-26T08:58:34.478Z</time></trkpt><trkpt lat="44.4926562" lon="8.0438633"><ele>707.4</ele><time>2026-04-26T08:58:36.477Z</time></trkpt><trkpt lat="44.492561" lon="8.0439475"><ele>708.0</ele><time>2026-04-26T08:58:38.476Z</time></trkpt><trkpt lat="44.4925165" lon="8.0440175"><ele>708.0</ele><time>2026-04-26T08:58:39.478Z</time></trkpt><trkpt lat="44.4924518" lon="8.0440723"><ele>708.0</ele><time>2026-04-26T08:58:40.476Z</time></trkpt><trkpt lat="44.4923597" lon="8.0441085"><ele>708.0</ele><time>2026-04-26T08:58:41.476Z</time></trkpt><trkpt lat="44.4922495" lon="8.044153"><ele>708.0</ele><time>2026-04-26T08:58:42.476Z</time></trkpt><trkpt lat="44.4921275" lon="8.044232"><ele>708.0</ele><time>2026-04-26T08:58:43.474Z</time></trkpt><trkpt lat="44.4919997" lon="8.0443408"><ele>712.0</ele><time>2026-04-26T08:58:44.477Z</time></trkpt><trkpt lat="44.49187" lon="8.0444705"><ele>716.0</ele><time>2026-04-26T08:58:45.475Z</time></trkpt><trkpt lat="44.4917323" lon="8.0446152"><ele>720.0</ele><time>2026-04-26T08:58:46.477Z</time></trkpt><trkpt lat="44.491594" lon="8.0447585"><ele>720.0</ele><time>2026-04-26T08:58:47.477Z</time></trkpt><trkpt lat="44.4914672" lon="8.0448885"><ele>720.0</ele><time>2026-04-26T08:58:48.477Z</time></trkpt><trkpt lat="44.4913517" lon="8.0450162"><ele>720.0</ele><time>2026-04-26T08:58:49.476Z</time></trkpt><trkpt lat="44.4912558" lon="8.0451505"><ele>720.0</ele><time>2026-04-26T08:58:50.475Z</time></trkpt><trkpt lat="44.4911865" lon="8.0453018"><ele>719.75</ele><time>2026-04-26T08:58:51.476Z</time></trkpt><trkpt lat="44.4911507" lon="8.0454837"><ele>719.5</ele><time>2026-04-26T08:58:52.477Z</time></trkpt><trkpt lat="44.4911435" lon="8.0456782"><ele>719.25</ele><time>2026-04-26T08:58:53.479Z</time></trkpt><trkpt lat="44.491149" lon="8.0458652"><ele>719.0</ele><time>2026-04-26T08:58:54.479Z</time></trkpt><trkpt lat="44.4911463" lon="8.0460475"><ele>719.0</ele><time>2026-04-26T08:58:55.478Z</time></trkpt><trkpt lat="44.4911223" lon="8.0462213"><ele>719.0</ele><time>2026-04-26T08:58:56.479Z</time></trkpt><trkpt lat="44.4910673" lon="8.046384"><ele>719.0</ele><time>2026-04-26T08:58:57.477Z</time></trkpt><trkpt lat="44.490976" lon="8.046528"><ele>719.0</ele><time>2026-04-26T08:58:58.477Z</time></trkpt><trkpt lat="44.4908547" lon="8.0466567"><ele>715.0</ele><time>2026-04-26T08:58:59.478Z</time></trkpt><trkpt lat="44.4907277" lon="8.0467977"><ele>711.0</ele><time>2026-04-26T08:59:00.477Z</time></trkpt><trkpt lat="44.4906042" lon="8.046967"><ele>707.0</ele><time>2026-04-26T08:59:01.478Z</time></trkpt><trkpt lat="44.4904927" lon="8.0471453"><ele>705.5</ele><time>2026-04-26T08:59:02.478Z</time></trkpt><trkpt lat="44.490394" lon="8.0473148"><ele>704.0</ele><time>2026-04-26T08:59:03.476Z</time></trkpt><trkpt lat="44.4902998" lon="8.0474608"><ele>702.5</ele><time>2026-04-26T08:59:04.478Z</time></trkpt><trkpt lat="44.4901992" lon="8.0475697"><ele>701.0</ele><time>2026-04-26T08:59:05.474Z</time></trkpt><trkpt lat="44.4900853" lon="8.047635"><ele>701.0</ele><time>2026-04-26T08:59:06.475Z</time></trkpt><trkpt lat="44.4899485" lon="8.0476655"><ele>701.0</ele><time>2026-04-26T08:59:07.475Z</time></trkpt><trkpt lat="44.4897978" lon="8.0476777"><ele>701.0</ele><time>2026-04-26T08:59:08.475Z</time></trkpt><trkpt lat="44.489652" lon="8.0476798"><ele>701.0</ele><time>2026-04-26T08:59:09.476Z</time></trkpt><trkpt lat="44.489512" lon="8.0477023"><ele>701.4</ele><time>2026-04-26T08:59:10.476Z</time></trkpt><trkpt lat="44.4893843" lon="8.0477525"><ele>701.8</ele><time>2026-04-26T08:59:11.479Z</time></trkpt><trkpt lat="44.4892785" lon="8.0478252"><ele>702.1999999999999</ele><time>2026-04-26T08:59:12.476Z</time></trkpt><trkpt lat="44.4891875" lon="8.0478847"><ele>702.5999999999999</ele><time>2026-04-26T08:59:13.476Z</time></trkpt><trkpt lat="44.4891002" lon="8.0479013"><ele>703.0</ele><time>2026-04-26T08:59:14.476Z</time></trkpt><trkpt lat="44.4890177" lon="8.04786"><ele>703.0</ele><time>2026-04-26T08:59:15.477Z</time></trkpt><trkpt lat="44.4889425" lon="8.047762"><ele>703.0</ele><time>2026-04-26T08:59:16.477Z</time></trkpt><trkpt lat="44.4888748" lon="8.0476262"><ele>703.0</ele><time>2026-04-26T08:59:17.48Z</time></trkpt><trkpt lat="44.4888128" lon="8.0474908"><ele>703.0</ele><time>2026-04-26T08:59:18.476Z</time></trkpt><trkpt lat="44.4887503" lon="8.0473838"><ele>703.0</ele><time>2026-04-26T08:59:19.473Z</time></trkpt><trkpt lat="44.4886792" lon="8.047324"><ele>703.8</ele><time>2026-04-26T08:59:20.473Z</time></trkpt><trkpt lat="44.4886027" lon="8.0473303"><ele>704.5999999999999</ele><time>2026-04-26T08:59:21.477Z</time></trkpt><trkpt lat="44.4885487" lon="8.0473903"><ele>705.4000000000001</ele><time>2026-04-26T08:59:22.477Z</time></trkpt><trkpt lat="44.4885503" lon="8.0475795"><ele>706.2</ele><time>2026-04-26T08:59:24.477Z</time></trkpt><trkpt lat="44.488604" lon="8.0477022"><ele>707.0</ele><time>2026-04-26T08:59:25.48Z</time></trkpt><trkpt lat="44.4886695" lon="8.047854"><ele>706.0</ele><time>2026-04-26T08:59:26.481Z</time></trkpt><trkpt lat="44.488727" lon="8.0480422"><ele>705.0</ele><time>2026-04-26T08:59:27.478Z</time></trkpt><trkpt lat="44.4887728" lon="8.0482272"><ele>704.0</ele><time>2026-04-26T08:59:28.479Z</time></trkpt><trkpt lat="44.4888203" lon="8.0483888"><ele>703.0</ele><time>2026-04-26T08:59:29.474Z</time></trkpt><trkpt lat="44.4888902" lon="8.0485115"><ele>696.75</ele><time>2026-04-26T08:59:30.473Z</time></trkpt><trkpt lat="44.488985" lon="8.048576"><ele>690.5</ele><time>2026-04-26T08:59:31.476Z</time></trkpt><trkpt lat="44.4890953" lon="8.0485718"><ele>684.25</ele><time>2026-04-26T08:59:32.474Z</time></trkpt><trkpt lat="44.4892183" lon="8.0485105"><ele>678.0</ele><time>2026-04-26T08:59:33.476Z</time></trkpt><trkpt lat="44.4893538" lon="8.048424"><ele>678.0</ele><time>2026-04-26T08:59:34.476Z</time></trkpt><trkpt lat="44.489489" lon="8.0483467"><ele>678.0</ele><time>2026-04-26T08:59:35.476Z</time></trkpt><trkpt lat="44.489622" lon="8.0482975"><ele>678.0</ele><time>2026-04-26T08:59:36.477Z</time></trkpt><trkpt lat="44.489762" lon="8.0482923"><ele>678.0</ele><time>2026-04-26T08:59:37.477Z</time></trkpt><trkpt lat="44.489906" lon="8.0483522"><ele>676.5</ele><time>2026-04-26T08:59:38.478Z</time></trkpt><trkpt lat="44.490047" lon="8.0484508"><ele>675.0</ele><time>2026-04-26T08:59:39.475Z</time></trkpt><trkpt lat="44.4901732" lon="8.0485568"><ele>673.5</ele><time>2026-04-26T08:59:40.476Z</time></trkpt><trkpt lat="44.490289" lon="8.0486493"><ele>672.0</ele><time>2026-04-26T08:59:41.477Z</time></trkpt><trkpt lat="44.4903987" lon="8.0487082"><ele>670.0</ele><time>2026-04-26T08:59:42.477Z</time></trkpt><trkpt lat="44.4905092" lon="8.0487073"><ele>668.0</ele><time>2026-04-26T08:59:43.478Z</time></trkpt><trkpt lat="44.4906157" lon="8.0486462"><ele>666.0</ele><time>2026-04-26T08:59:44.476Z</time></trkpt><trkpt lat="44.4907207" lon="8.0485283"><ele>664.0</ele><time>2026-04-26T08:59:45.475Z</time></trkpt><trkpt lat="44.4908138" lon="8.0483837"><ele>665.6</ele><time>2026-04-26T08:59:46.477Z</time></trkpt><trkpt lat="44.490896" lon="8.0482508"><ele>667.2</ele><time>2026-04-26T08:59:47.477Z</time></trkpt><trkpt lat="44.4909778" lon="8.0481418"><ele>668.8000000000001</ele><time>2026-04-26T08:59:48.478Z</time></trkpt><trkpt lat="44.4910693" lon="8.0480708"><ele>670.4000000000001</ele><time>2026-04-26T08:59:49.477Z</time></trkpt><trkpt lat="44.4911722" lon="8.0480515"><ele>672.0</ele><time>2026-04-26T08:59:50.478Z</time></trkpt><trkpt lat="44.4912955" lon="8.0480885"><ele>672.0</ele><time>2026-04-26T08:59:51.477Z</time></trkpt><trkpt lat="44.4914267" lon="8.0481368"><ele>672.0</ele><time>2026-04-26T08:59:52.477Z</time></trkpt><trkpt lat="44.491551" lon="8.0481572"><ele>672.0</ele><time>2026-04-26T08:59:53.478Z</time></trkpt><trkpt lat="44.4916765" lon="8.0481302"><ele>672.0</ele><time>2026-04-26T08:59:54.475Z</time></trkpt><trkpt lat="44.4917977" lon="8.0480495"><ele>672.0</ele><time>2026-04-26T08:59:55.476Z</time></trkpt><trkpt lat="44.491909" lon="8.047917"><ele>672.0</ele><time>2026-04-26T08:59:56.475Z</time></trkpt><trkpt lat="44.4920162" lon="8.0477535"><ele>672.0</ele><time>2026-04-26T08:59:57.478Z</time></trkpt><trkpt lat="44.4921172" lon="8.0475748"><ele>667.5</ele><time>2026-04-26T08:59:58.479Z</time></trkpt><trkpt lat="44.4921992" lon="8.0474013"><ele>663.0</ele><time>2026-04-26T08:59:59.478Z</time></trkpt><trkpt lat="44.4922553" lon="8.0472292"><ele>658.5</ele><time>2026-04-26T09:00:00.478Z</time></trkpt><trkpt lat="44.4922917" lon="8.0470743"><ele>654.0</ele><time>2026-04-26T09:00:01.477Z</time></trkpt><trkpt lat="44.4923217" lon="8.0469553"><ele>654.0</ele><time>2026-04-26T09:00:02.479Z</time></trkpt><trkpt lat="44.4923613" lon="8.0468745"><ele>654.0</ele><time>2026-04-26T09:00:03.479Z</time></trkpt><trkpt lat="44.4924632" lon="8.0468808"><ele>654.0</ele><time>2026-04-26T09:00:05.478Z</time></trkpt><trkpt lat="44.492485" lon="8.0469653"><ele>654.0</ele><time>2026-04-26T09:00:06.477Z</time></trkpt><trkpt lat="44.4924702" lon="8.0470853"><ele>654.0</ele><time>2026-04-26T09:00:07.477Z</time></trkpt><trkpt lat="44.4924322" lon="8.0472383"><ele>654.0</ele><time>2026-04-26T09:00:08.479Z</time></trkpt><trkpt lat="44.492392" lon="8.0474198"><ele>649.6666666666666</ele><time>2026-04-26T09:00:09.478Z</time></trkpt><trkpt lat="44.4923568" lon="8.0476247"><ele>645.3333333333333</ele><time>2026-04-26T09:00:10.479Z</time></trkpt><trkpt lat="44.4923157" lon="8.0478297"><ele>641.0</ele><time>2026-04-26T09:00:11.48Z</time></trkpt><trkpt lat="44.492259" lon="8.0480253"><ele>641.0</ele><time>2026-04-26T09:00:12.479Z</time></trkpt><trkpt lat="44.4921787" lon="8.048207"><ele>641.0</ele><time>2026-04-26T09:00:13.478Z</time></trkpt><trkpt lat="44.4920747" lon="8.0483812"><ele>641.0</ele><time>2026-04-26T09:00:14.479Z</time></trkpt><trkpt lat="44.4919442" lon="8.0485495"><ele>643.3333333333333</ele><time>2026-04-26T09:00:15.478Z</time></trkpt><trkpt lat="44.4917997" lon="8.0487043"><ele>645.6666666666666</ele><time>2026-04-26T09:00:16.476Z</time></trkpt><trkpt lat="44.4916523" lon="8.0488287"><ele>648.0</ele><time>2026-04-26T09:00:17.475Z</time></trkpt><trkpt lat="44.4915088" lon="8.048928"><ele>648.0</ele><time>2026-04-26T09:00:18.475Z</time></trkpt><trkpt lat="44.4913807" lon="8.0490217"><ele>648.0</ele><time>2026-04-26T09:00:19.475Z</time></trkpt><trkpt lat="44.4912797" lon="8.0491332"><ele>648.0</ele><time>2026-04-26T09:00:20.476Z</time></trkpt><trkpt lat="44.4912083" lon="8.0492615"><ele>648.0</ele><time>2026-04-26T09:00:21.475Z</time></trkpt><trkpt lat="44.4911528" lon="8.049404"><ele>646.25</ele><time>2026-04-26T09:00:22.477Z</time></trkpt><trkpt lat="44.4910953" lon="8.0495438"><ele>644.5</ele><time>2026-04-26T09:00:23.479Z</time></trkpt><trkpt lat="44.4910237" lon="8.0496603"><ele>642.75</ele><time>2026-04-26T09:00:24.477Z</time></trkpt><trkpt lat="44.490933" lon="8.0497428"><ele>641.0</ele><time>2026-04-26T09:00:25.476Z</time></trkpt><trkpt lat="44.4908148" lon="8.0497885"><ele>641.0</ele><time>2026-04-26T09:00:26.477Z</time></trkpt><trkpt lat="44.490672" lon="8.0498038"><ele>641.0</ele><time>2026-04-26T09:00:27.478Z</time></trkpt><trkpt lat="44.4905145" lon="8.04981"><ele>641.0</ele><time>2026-04-26T09:00:28.478Z</time></trkpt><trkpt lat="44.4903488" lon="8.049818"><ele>641.25</ele><time>2026-04-26T09:00:29.478Z</time></trkpt><trkpt lat="44.4901952" lon="8.0498225"><ele>641.5</ele><time>2026-04-26T09:00:30.477Z</time></trkpt><trkpt lat="44.4900498" lon="8.0498337"><ele>641.75</ele><time>2026-04-26T09:00:31.479Z</time></trkpt><trkpt lat="44.4899132" lon="8.0498725"><ele>642.0</ele><time>2026-04-26T09:00:32.479Z</time></trkpt><trkpt lat="44.4897862" lon="8.0499572"><ele>636.25</ele><time>2026-04-26T09:00:33.477Z</time></trkpt><trkpt lat="44.4896693" lon="8.050075"><ele>630.5</ele><time>2026-04-26T09:00:34.477Z</time></trkpt><trkpt lat="44.4895578" lon="8.0501802"><ele>624.75</ele><time>2026-04-26T09:00:35.477Z</time></trkpt><trkpt lat="44.4894328" lon="8.0502477"><ele>619.0</ele><time>2026-04-26T09:00:36.476Z</time></trkpt><trkpt lat="44.4892902" lon="8.0502788"><ele>619.0</ele><time>2026-04-26T09:00:37.479Z</time></trkpt><trkpt lat="44.4891385" lon="8.0502878"><ele>619.0</ele><time>2026-04-26T09:00:38.48Z</time></trkpt><trkpt lat="44.4889912" lon="8.0502958"><ele>619.0</ele><time>2026-04-26T09:00:39.477Z</time></trkpt><trkpt lat="44.4888533" lon="8.0503133"><ele>619.0</ele><time>2026-04-26T09:00:40.478Z</time></trkpt><trkpt lat="44.4887247" lon="8.0503483"><ele>617.2</ele><time>2026-04-26T09:00:41.479Z</time></trkpt><trkpt lat="44.4886108" lon="8.0503967"><ele>615.4</ele><time>2026-04-26T09:00:42.477Z</time></trkpt><trkpt lat="44.4885087" lon="8.050437"><ele>613.6</ele><time>2026-04-26T09:00:43.475Z</time></trkpt><trkpt lat="44.4884145" lon="8.050436"><ele>611.8</ele><time>2026-04-26T09:00:44.475Z</time></trkpt><trkpt lat="44.4883312" lon="8.0503812"><ele>610.0</ele><time>2026-04-26T09:00:45.475Z</time></trkpt><trkpt lat="44.4882513" lon="8.0502755"><ele>610.0</ele><time>2026-04-26T09:00:46.476Z</time></trkpt><trkpt lat="44.4881798" lon="8.0501535"><ele>610.0</ele><time>2026-04-26T09:00:47.475Z</time></trkpt><trkpt lat="44.4881165" lon="8.0500417"><ele>610.0</ele><time>2026-04-26T09:00:48.474Z</time></trkpt><trkpt lat="44.4880515" lon="8.0499543"><ele>610.0</ele><time>2026-04-26T09:00:49.475Z</time></trkpt><trkpt lat="44.4879808" lon="8.0499023"><ele>610.0</ele><time>2026-04-26T09:00:50.476Z</time></trkpt><trkpt lat="44.487911" lon="8.0498945"><ele>610.3333333333334</ele><time>2026-04-26T09:00:51.475Z</time></trkpt><trkpt lat="44.4878445" lon="8.0499303"><ele>610.6666666666667</ele><time>2026-04-26T09:00:52.477Z</time></trkpt><trkpt lat="44.4877913" lon="8.0500053"><ele>611.0</ele><time>2026-04-26T09:00:53.475Z</time></trkpt><trkpt lat="44.4877567" lon="8.0501072"><ele>611.3333333333334</ele><time>2026-04-26T09:00:54.477Z</time></trkpt><trkpt lat="44.4877257" lon="8.0502248"><ele>611.6666666666666</ele><time>2026-04-26T09:00:55.477Z</time></trkpt><trkpt lat="44.4876847" lon="8.0503612"><ele>612.0</ele><time>2026-04-26T09:00:56.477Z</time></trkpt><trkpt lat="44.4876247" lon="8.0505023"><ele>612.0</ele><time>2026-04-26T09:00:57.475Z</time></trkpt><trkpt lat="44.4875423" lon="8.0506397"><ele>612.0</ele><time>2026-04-26T09:00:58.477Z</time></trkpt><trkpt lat="44.4874443" lon="8.0507813"><ele>612.0</ele><time>2026-04-26T09:00:59.475Z</time></trkpt><trkpt lat="44.4873417" lon="8.0509277"><ele>612.0</ele><time>2026-04-26T09:01:00.478Z</time></trkpt><trkpt lat="44.4872368" lon="8.051079"><ele>613.0</ele><time>2026-04-26T09:01:01.476Z</time></trkpt><trkpt lat="44.4871335" lon="8.0512253"><ele>614.0</ele><time>2026-04-26T09:01:02.478Z</time></trkpt><trkpt lat="44.487034" lon="8.0513647"><ele>615.0</ele><time>2026-04-26T09:01:03.476Z</time></trkpt><trkpt lat="44.486936" lon="8.0514937"><ele>616.0</ele><time>2026-04-26T09:01:04.479Z</time></trkpt><trkpt lat="44.4868307" lon="8.0515965"><ele>608.5</ele><time>2026-04-26T09:01:05.479Z</time></trkpt><trkpt lat="44.4867158" lon="8.0516588"><ele>601.0</ele><time>2026-04-26T09:01:06.478Z</time></trkpt><trkpt lat="44.4865987" lon="8.0516953"><ele>593.5</ele><time>2026-04-26T09:01:07.478Z</time></trkpt><trkpt lat="44.4864838" lon="8.0517295"><ele>586.0</ele><time>2026-04-26T09:01:08.474Z</time></trkpt><trkpt lat="44.4863808" lon="8.0517833"><ele>586.0</ele><time>2026-04-26T09:01:09.475Z</time></trkpt><trkpt lat="44.4862958" lon="8.0518588"><ele>586.0</ele><time>2026-04-26T09:01:10.472Z</time></trkpt><trkpt lat="44.4862312" lon="8.051957"><ele>586.0</ele><time>2026-04-26T09:01:11.473Z</time></trkpt><trkpt lat="44.4861857" lon="8.0520745"><ele>586.0</ele><time>2026-04-26T09:01:12.473Z</time></trkpt><trkpt lat="44.4861683" lon="8.052213"><ele>586.0</ele><time>2026-04-26T09:01:13.474Z</time></trkpt><trkpt lat="44.4861738" lon="8.052362"><ele>587.25</ele><time>2026-04-26T09:01:14.477Z</time></trkpt><trkpt lat="44.4862" lon="8.052515"><ele>588.5</ele><time>2026-04-26T09:01:15.475Z</time></trkpt><trkpt lat="44.4862458" lon="8.0526713"><ele>589.75</ele><time>2026-04-26T09:01:16.475Z</time></trkpt><trkpt lat="44.4863088" lon="8.0528325"><ele>591.0</ele><time>2026-04-26T09:01:17.476Z</time></trkpt><trkpt lat="44.4863797" lon="8.0529965"><ele>584.0</ele><time>2026-04-26T09:01:18.476Z</time></trkpt><trkpt lat="44.4864562" lon="8.0531723"><ele>577.0</ele><time>2026-04-26T09:01:19.476Z</time></trkpt><trkpt lat="44.4865393" lon="8.0533593"><ele>570.0</ele><time>2026-04-26T09:01:20.478Z</time></trkpt><trkpt lat="44.4866262" lon="8.0535537"><ele>568.6666666666666</ele><time>2026-04-26T09:01:21.475Z</time></trkpt><trkpt lat="44.4867128" lon="8.053749"><ele>567.3333333333333</ele><time>2026-04-26T09:01:22.478Z</time></trkpt><trkpt lat="44.4867953" lon="8.0539353"><ele>566.0</ele><time>2026-04-26T09:01:23.475Z</time></trkpt><trkpt lat="44.486874" lon="8.0541153"><ele>565.5</ele><time>2026-04-26T09:01:24.475Z</time></trkpt><trkpt lat="44.4869515" lon="8.0542927"><ele>565.0</ele><time>2026-04-26T09:01:25.476Z</time></trkpt><trkpt lat="44.4870267" lon="8.054461"><ele>564.5</ele><time>2026-04-26T09:01:26.476Z</time></trkpt><trkpt lat="44.487096" lon="8.0546137"><ele>564.0</ele><time>2026-04-26T09:01:27.479Z</time></trkpt><trkpt lat="44.4871578" lon="8.0547487"><ele>564.0</ele><time>2026-04-26T09:01:28.477Z</time></trkpt><trkpt lat="44.4872128" lon="8.0548677"><ele>564.0</ele><time>2026-04-26T09:01:29.476Z</time></trkpt><trkpt lat="44.4872585" lon="8.054966"><ele>564.0</ele><time>2026-04-26T09:01:30.476Z</time></trkpt><trkpt lat="44.4873012" lon="8.0551062"><ele>564.0</ele><time>2026-04-26T09:01:32.476Z</time></trkpt><trkpt lat="44.4872467" lon="8.0552255"><ele>564.0</ele><time>2026-04-26T09:01:34.479Z</time></trkpt><trkpt lat="44.4871927" lon="8.0552902"><ele>564.1428571428571</ele><time>2026-04-26T09:01:35.475Z</time></trkpt><trkpt lat="44.4871315" lon="8.0553623"><ele>564.2857142857142</ele><time>2026-04-26T09:01:36.478Z</time></trkpt><trkpt lat="44.4870753" lon="8.0554298"><ele>564.4285714285713</ele><time>2026-04-26T09:01:37.479Z</time></trkpt><trkpt lat="44.487025" lon="8.0554928"><ele>564.5714285714286</ele><time>2026-04-26T09:01:38.478Z</time></trkpt><trkpt lat="44.4869775" lon="8.0555587"><ele>564.7142857142857</ele><time>2026-04-26T09:01:39.478Z</time></trkpt><trkpt lat="44.4869313" lon="8.0556267"><ele>564.8571428571428</ele><time>2026-04-26T09:01:40.478Z</time></trkpt><trkpt lat="44.486882" lon="8.0556927"><ele>565.0</ele><time>2026-04-26T09:01:41.479Z</time></trkpt><trkpt lat="44.4867875" lon="8.0558003"><ele>565.5</ele><time>2026-04-26T09:01:43.477Z</time></trkpt><trkpt lat="44.486738" lon="8.0558645"><ele>566.0</ele><time>2026-04-26T09:01:44.477Z</time></trkpt><trkpt lat="44.4866855" lon="8.0559375"><ele>566.5</ele><time>2026-04-26T09:01:45.478Z</time></trkpt><trkpt lat="44.4866282" lon="8.0560157"><ele>567.0</ele><time>2026-04-26T09:01:46.477Z</time></trkpt><trkpt lat="44.4865685" lon="8.0560977"><ele>567.5</ele><time>2026-04-26T09:01:47.477Z</time></trkpt><trkpt lat="44.486501" lon="8.0561732"><ele>568.0</ele><time>2026-04-26T09:01:48.478Z</time></trkpt><trkpt lat="44.4864217" lon="8.0562333"><ele>568.0</ele><time>2026-04-26T09:01:49.479Z</time></trkpt><trkpt lat="44.4863262" lon="8.0562793"><ele>568.0</ele><time>2026-04-26T09:01:50.478Z</time></trkpt><trkpt lat="44.4862202" lon="8.0563192"><ele>568.0</ele><time>2026-04-26T09:01:51.478Z</time></trkpt><trkpt lat="44.4860987" lon="8.0563613"><ele>568.0</ele><time>2026-04-26T09:01:52.478Z</time></trkpt><trkpt lat="44.4859663" lon="8.0564032"><ele>567.5</ele><time>2026-04-26T09:01:53.478Z</time></trkpt><trkpt lat="44.4858292" lon="8.0564463"><ele>567.0</ele><time>2026-04-26T09:01:54.478Z</time></trkpt><trkpt lat="44.4856975" lon="8.0564992"><ele>566.5</ele><time>2026-04-26T09:01:55.478Z</time></trkpt><trkpt lat="44.485566" lon="8.0565737"><ele>566.0</ele><time>2026-04-26T09:01:56.476Z</time></trkpt><trkpt lat="44.485431" lon="8.0566702"><ele>566.0</ele><time>2026-04-26T09:01:57.476Z</time></trkpt><trkpt lat="44.4852955" lon="8.0567788"><ele>566.0</ele><time>2026-04-26T09:01:58.475Z</time></trkpt><trkpt lat="44.485173" lon="8.0568865"><ele>566.0</ele><time>2026-04-26T09:01:59.474Z</time></trkpt><trkpt lat="44.48505" lon="8.0569973"><ele>566.0</ele><time>2026-04-26T09:02:00.475Z</time></trkpt><trkpt lat="44.484924" lon="8.0571"><ele>566.0</ele><time>2026-04-26T09:02:01.477Z</time></trkpt><trkpt lat="44.4847995" lon="8.0571793"><ele>566.0</ele><time>2026-04-26T09:02:02.476Z</time></trkpt><trkpt lat="44.4846703" lon="8.0572323"><ele>566.0</ele><time>2026-04-26T09:02:03.477Z</time></trkpt><trkpt lat="44.4845432" lon="8.0572473"><ele>566.0</ele><time>2026-04-26T09:02:04.478Z</time></trkpt><trkpt lat="44.4844173" lon="8.0572307"><ele>566.0</ele><time>2026-04-26T09:02:05.477Z</time></trkpt><trkpt lat="44.4842948" lon="8.0571873"><ele>566.0</ele><time>2026-04-26T09:02:06.479Z</time></trkpt><trkpt lat="44.4841767" lon="8.0571327"><ele>566.0</ele><time>2026-04-26T09:02:07.481Z</time></trkpt><trkpt lat="44.4840638" lon="8.0570853"><ele>566.0</ele><time>2026-04-26T09:02:08.478Z</time></trkpt><trkpt lat="44.4839557" lon="8.057045"><ele>566.0</ele><time>2026-04-26T09:02:09.477Z</time></trkpt><trkpt lat="44.4838547" lon="8.0570043"><ele>566.0</ele><time>2026-04-26T09:02:10.478Z</time></trkpt><trkpt lat="44.483765" lon="8.0569632"><ele>566.0</ele><time>2026-04-26T09:02:11.476Z</time></trkpt><trkpt lat="44.4836857" lon="8.0569245"><ele>566.0</ele><time>2026-04-26T09:02:12.477Z</time></trkpt><trkpt lat="44.4836092" lon="8.056911"><ele>566.0</ele><time>2026-04-26T09:02:13.475Z</time></trkpt><trkpt lat="44.4835333" lon="8.05694"><ele>566.0</ele><time>2026-04-26T09:02:14.477Z</time></trkpt><trkpt lat="44.4834597" lon="8.0570118"><ele>566.25</ele><time>2026-04-26T09:02:15.476Z</time></trkpt><trkpt lat="44.4833857" lon="8.0571207"><ele>566.5</ele><time>2026-04-26T09:02:16.475Z</time></trkpt><trkpt lat="44.4833067" lon="8.0572547"><ele>566.75</ele><time>2026-04-26T09:02:17.478Z</time></trkpt><trkpt lat="44.4832188" lon="8.0574057"><ele>567.0</ele><time>2026-04-26T09:02:18.476Z</time></trkpt><trkpt lat="44.4831232" lon="8.0575635"><ele>567.6666666666666</ele><time>2026-04-26T09:02:19.477Z</time></trkpt><trkpt lat="44.4830168" lon="8.057724"><ele>568.3333333333333</ele><time>2026-04-26T09:02:20.479Z</time></trkpt><trkpt lat="44.4829005" lon="8.0578787"><ele>569.0</ele><time>2026-04-26T09:02:21.474Z</time></trkpt><trkpt lat="44.482789" lon="8.0580192"><ele>569.25</ele><time>2026-04-26T09:02:22.476Z</time></trkpt><trkpt lat="44.4826885" lon="8.0581433"><ele>569.5</ele><time>2026-04-26T09:02:23.477Z</time></trkpt><trkpt lat="44.4825987" lon="8.0582532"><ele>569.75</ele><time>2026-04-26T09:02:24.474Z</time></trkpt><trkpt lat="44.4825188" lon="8.0583508"><ele>570.0</ele><time>2026-04-26T09:02:25.478Z</time></trkpt><trkpt lat="44.4824485" lon="8.0584545"><ele>571.0</ele><time>2026-04-26T09:02:26.477Z</time></trkpt><trkpt lat="44.4823908" lon="8.0585787"><ele>572.0</ele><time>2026-04-26T09:02:27.478Z</time></trkpt><trkpt lat="44.4823377" lon="8.0587208"><ele>573.0</ele><time>2026-04-26T09:02:28.48Z</time></trkpt><trkpt lat="44.482292" lon="8.0588528"><ele>574.0</ele><time>2026-04-26T09:02:29.476Z</time></trkpt><trkpt lat="44.482263" lon="8.0589667"><ele>575.0</ele><time>2026-04-26T09:02:30.475Z</time></trkpt><trkpt lat="44.4822613" lon="8.0590675"><ele>576.6</ele><time>2026-04-26T09:02:31.476Z</time></trkpt><trkpt lat="44.4822903" lon="8.059168"><ele>578.2</ele><time>2026-04-26T09:02:32.478Z</time></trkpt><trkpt lat="44.4823413" lon="8.059273"><ele>579.8</ele><time>2026-04-26T09:02:33.477Z</time></trkpt><trkpt lat="44.4824075" lon="8.0593925"><ele>581.4</ele><time>2026-04-26T09:02:34.478Z</time></trkpt><trkpt lat="44.4824568" lon="8.0595107"><ele>583.0</ele><time>2026-04-26T09:02:35.476Z</time></trkpt><trkpt lat="44.4824717" lon="8.0596287"><ele>583.0</ele><time>2026-04-26T09:02:36.476Z</time></trkpt><trkpt lat="44.4824525" lon="8.0597522"><ele>583.0</ele><time>2026-04-26T09:02:37.476Z</time></trkpt><trkpt lat="44.4824038" lon="8.05988"><ele>583.0</ele><time>2026-04-26T09:02:38.476Z</time></trkpt><trkpt lat="44.4823362" lon="8.0600063"><ele>583.0</ele><time>2026-04-26T09:02:39.475Z</time></trkpt><trkpt lat="44.4822565" lon="8.0601317"><ele>583.0</ele><time>2026-04-26T09:02:40.475Z</time></trkpt><trkpt lat="44.4821683" lon="8.0602577"><ele>584.5</ele><time>2026-04-26T09:02:41.474Z</time></trkpt><trkpt lat="44.4820778" lon="8.0603867"><ele>586.0</ele><time>2026-04-26T09:02:42.475Z</time></trkpt><trkpt lat="44.4819922" lon="8.0605253"><ele>587.5</ele><time>2026-04-26T09:02:43.476Z</time></trkpt><trkpt lat="44.4819093" lon="8.0606767"><ele>589.0</ele><time>2026-04-26T09:02:44.475Z</time></trkpt><trkpt lat="44.481825" lon="8.0608398"><ele>590.3333333333334</ele><time>2026-04-26T09:02:45.475Z</time></trkpt><trkpt lat="44.4817395" lon="8.0610153"><ele>591.6666666666666</ele><time>2026-04-26T09:02:46.473Z</time></trkpt><trkpt lat="44.481651" lon="8.0611952"><ele>593.0</ele><time>2026-04-26T09:02:47.474Z</time></trkpt><trkpt lat="44.4815653" lon="8.0613767"><ele>593.0</ele><time>2026-04-26T09:02:48.471Z</time></trkpt><trkpt lat="44.481488" lon="8.0615435"><ele>593.0</ele><time>2026-04-26T09:02:49.471Z</time></trkpt><trkpt lat="44.4814025" lon="8.0616973"><ele>593.0</ele><time>2026-04-26T09:02:50.472Z</time></trkpt><trkpt lat="44.4813115" lon="8.0618342"><ele>593.0</ele><time>2026-04-26T09:02:51.473Z</time></trkpt><trkpt lat="44.4812255" lon="8.061958"><ele>595.6</ele><time>2026-04-26T09:02:52.479Z</time></trkpt><trkpt lat="44.4811565" lon="8.0620565"><ele>598.1999999999999</ele><time>2026-04-26T09:02:53.474Z</time></trkpt><trkpt lat="44.4811013" lon="8.0621468"><ele>600.8</ele><time>2026-04-26T09:02:54.473Z</time></trkpt><trkpt lat="44.4810563" lon="8.0622617"><ele>603.4</ele><time>2026-04-26T09:02:55.473Z</time></trkpt><trkpt lat="44.4810168" lon="8.0624102"><ele>606.0</ele><time>2026-04-26T09:02:56.473Z</time></trkpt><trkpt lat="44.4809707" lon="8.0625805"><ele>607.0</ele><time>2026-04-26T09:02:57.474Z</time></trkpt><trkpt lat="44.4809225" lon="8.0627702"><ele>608.0</ele><time>2026-04-26T09:02:58.475Z</time></trkpt><trkpt lat="44.4808745" lon="8.0629723"><ele>609.0</ele><time>2026-04-26T09:02:59.476Z</time></trkpt><trkpt lat="44.480816" lon="8.0631763"><ele>610.0</ele><time>2026-04-26T09:03:00.476Z</time></trkpt><trkpt lat="44.4807308" lon="8.0633702"><ele>611.0</ele><time>2026-04-26T09:03:01.475Z</time></trkpt><trkpt lat="44.4806303" lon="8.0635632"><ele>612.0</ele><time>2026-04-26T09:03:02.476Z</time></trkpt><trkpt lat="44.4805295" lon="8.0637618"><ele>612.6666666666666</ele><time>2026-04-26T09:03:03.474Z</time></trkpt><trkpt lat="44.4804288" lon="8.0639577"><ele>613.3333333333333</ele><time>2026-04-26T09:03:04.476Z</time></trkpt><trkpt lat="44.4803203" lon="8.06414"><ele>614.0</ele><time>2026-04-26T09:03:05.475Z</time></trkpt><trkpt lat="44.4802082" lon="8.0643142"><ele>614.0</ele><time>2026-04-26T09:03:06.476Z</time></trkpt><trkpt lat="44.48011" lon="8.0644767"><ele>614.0</ele><time>2026-04-26T09:03:07.474Z</time></trkpt><trkpt lat="44.4800317" lon="8.0646282"><ele>614.0</ele><time>2026-04-26T09:03:08.474Z</time></trkpt><trkpt lat="44.4799727" lon="8.0647607"><ele>614.0</ele><time>2026-04-26T09:03:09.475Z</time></trkpt><trkpt lat="44.4799233" lon="8.0648652"><ele>614.0</ele><time>2026-04-26T09:03:10.473Z</time></trkpt><trkpt lat="44.4798668" lon="8.064924"><ele>614.0</ele><time>2026-04-26T09:03:11.474Z</time></trkpt><trkpt lat="44.4797937" lon="8.0649303"><ele>614.0</ele><time>2026-04-26T09:03:12.473Z</time></trkpt><trkpt lat="44.4797263" lon="8.0648952"><ele>614.0</ele><time>2026-04-26T09:03:13.474Z</time></trkpt><trkpt lat="44.4796332" lon="8.064872"><ele>614.0</ele><time>2026-04-26T09:03:15.474Z</time></trkpt><trkpt lat="44.4796057" lon="8.0649797"><ele>614.0</ele><time>2026-04-26T09:03:17.475Z</time></trkpt><trkpt lat="44.4796762" lon="8.0651485"><ele>615.6666666666666</ele><time>2026-04-26T09:03:19.476Z</time></trkpt><trkpt lat="44.479715" lon="8.0652513"><ele>617.3333333333333</ele><time>2026-04-26T09:03:20.478Z</time></trkpt><trkpt lat="44.4797327" lon="8.065355"><ele>619.0</ele><time>2026-04-26T09:03:21.475Z</time></trkpt><trkpt lat="44.4796758" lon="8.0654995"><ele>620.6666666666666</ele><time>2026-04-26T09:03:23.475Z</time></trkpt><trkpt lat="44.479611" lon="8.0655105"><ele>622.3333333333334</ele><time>2026-04-26T09:03:24.476Z</time></trkpt><trkpt lat="44.4795322" lon="8.0654803"><ele>624.0</ele><time>2026-04-26T09:03:25.475Z</time></trkpt><trkpt lat="44.4794427" lon="8.0654323"><ele>624.0</ele><time>2026-04-26T09:03:26.474Z</time></trkpt><trkpt lat="44.4793542" lon="8.0653938"><ele>624.0</ele><time>2026-04-26T09:03:27.474Z</time></trkpt><trkpt lat="44.4792817" lon="8.0653655"><ele>624.0</ele><time>2026-04-26T09:03:28.475Z</time></trkpt><trkpt lat="44.4792085" lon="8.0653667"><ele>624.0</ele><time>2026-04-26T09:03:29.475Z</time></trkpt><trkpt lat="44.4791182" lon="8.0654722"><ele>624.0</ele><time>2026-04-26T09:03:31.475Z</time></trkpt><trkpt lat="44.4790993" lon="8.065579"><ele>624.0</ele><time>2026-04-26T09:03:32.475Z</time></trkpt><trkpt lat="44.4791012" lon="8.0657018"><ele>626.6</ele><time>2026-04-26T09:03:33.475Z</time></trkpt><trkpt lat="44.4791257" lon="8.0658345"><ele>629.2</ele><time>2026-04-26T09:03:34.475Z</time></trkpt><trkpt lat="44.4791625" lon="8.0659745"><ele>631.8000000000001</ele><time>2026-04-26T09:03:35.474Z</time></trkpt><trkpt lat="44.4791987" lon="8.0661217"><ele>634.4</ele><time>2026-04-26T09:03:36.475Z</time></trkpt><trkpt lat="44.4792158" lon="8.0662898"><ele>637.0</ele><time>2026-04-26T09:03:37.475Z</time></trkpt><trkpt lat="44.479218" lon="8.0664737"><ele>639.25</ele><time>2026-04-26T09:03:38.476Z</time></trkpt><trkpt lat="44.4792085" lon="8.0666642"><ele>641.5</ele><time>2026-04-26T09:03:39.464Z</time></trkpt><trkpt lat="44.479194" lon="8.0668485"><ele>643.75</ele><time>2026-04-26T09:03:40.478Z</time></trkpt><trkpt lat="44.4791733" lon="8.0670313"><ele>646.0</ele><time>2026-04-26T09:03:41.478Z</time></trkpt><trkpt lat="44.4791473" lon="8.067221"><ele>646.0</ele><time>2026-04-26T09:03:42.476Z</time></trkpt><trkpt lat="44.479116" lon="8.0674127"><ele>646.0</ele><time>2026-04-26T09:03:43.477Z</time></trkpt><trkpt lat="44.479081" lon="8.0675985"><ele>646.0</ele><time>2026-04-26T09:03:44.475Z</time></trkpt><trkpt lat="44.4790408" lon="8.0677833"><ele>646.0</ele><time>2026-04-26T09:03:45.477Z</time></trkpt><trkpt lat="44.4789918" lon="8.0679705"><ele>648.0</ele><time>2026-04-26T09:03:46.476Z</time></trkpt><trkpt lat="44.4789325" lon="8.0681638"><ele>650.0</ele><time>2026-04-26T09:03:47.478Z</time></trkpt><trkpt lat="44.4788692" lon="8.068361"><ele>652.0</ele><time>2026-04-26T09:03:48.477Z</time></trkpt><trkpt lat="44.4788002" lon="8.0685547"><ele>654.25</ele><time>2026-04-26T09:03:49.477Z</time></trkpt><trkpt lat="44.478737" lon="8.0687363"><ele>656.5</ele><time>2026-04-26T09:03:50.475Z</time></trkpt><trkpt lat="44.4786918" lon="8.0689002"><ele>658.75</ele><time>2026-04-26T09:03:51.476Z</time></trkpt><trkpt lat="44.4786755" lon="8.0690642"><ele>661.0</ele><time>2026-04-26T09:03:52.475Z</time></trkpt><trkpt lat="44.4786878" lon="8.0692322"><ele>662.5999999999999</ele><time>2026-04-26T09:03:53.476Z</time></trkpt><trkpt lat="44.4787157" lon="8.069377"><ele>664.2</ele><time>2026-04-26T09:03:54.476Z</time></trkpt><trkpt lat="44.478741" lon="8.0695007"><ele>665.8</ele><time>2026-04-26T09:03:55.476Z</time></trkpt><trkpt lat="44.4787447" lon="8.0696327"><ele>667.4000000000001</ele><time>2026-04-26T09:03:56.476Z</time></trkpt><trkpt lat="44.4787157" lon="8.0697613"><ele>669.0</ele><time>2026-04-26T09:03:57.476Z</time></trkpt><trkpt lat="44.4786515" lon="8.0698815"><ele>671.5</ele><time>2026-04-26T09:03:58.474Z</time></trkpt><trkpt lat="44.4785675" lon="8.0700015"><ele>674.0</ele><time>2026-04-26T09:03:59.473Z</time></trkpt><trkpt lat="44.478485" lon="8.070125"><ele>676.5</ele><time>2026-04-26T09:04:00.472Z</time></trkpt><trkpt lat="44.4784167" lon="8.070272"><ele>679.0</ele><time>2026-04-26T09:04:01.473Z</time></trkpt><trkpt lat="44.4783585" lon="8.0704413"><ele>679.0</ele><time>2026-04-26T09:04:02.472Z</time></trkpt><trkpt lat="44.4783068" lon="8.0705978"><ele>679.0</ele><time>2026-04-26T09:04:03.474Z</time></trkpt><trkpt lat="44.4782573" lon="8.0707343"><ele>679.0</ele><time>2026-04-26T09:04:04.475Z</time></trkpt><trkpt lat="44.4782107" lon="8.0708627"><ele>679.0</ele><time>2026-04-26T09:04:05.475Z</time></trkpt><trkpt lat="44.4781557" lon="8.0709938"><ele>679.0</ele><time>2026-04-26T09:04:06.475Z</time></trkpt><trkpt lat="44.4780793" lon="8.0711248"><ele>681.25</ele><time>2026-04-26T09:04:07.473Z</time></trkpt><trkpt lat="44.4779853" lon="8.0712433"><ele>683.5</ele><time>2026-04-26T09:04:08.472Z</time></trkpt><trkpt lat="44.4778727" lon="8.0713338"><ele>685.75</ele><time>2026-04-26T09:04:09.473Z</time></trkpt><trkpt lat="44.4777613" lon="8.0714007"><ele>688.0</ele><time>2026-04-26T09:04:10.474Z</time></trkpt><trkpt lat="44.4776572" lon="8.0714547"><ele>693.25</ele><time>2026-04-26T09:04:11.474Z</time></trkpt><trkpt lat="44.4775435" lon="8.0714885"><ele>698.5</ele><time>2026-04-26T09:04:12.474Z</time></trkpt><trkpt lat="44.4774178" lon="8.071502"><ele>703.75</ele><time>2026-04-26T09:04:13.476Z</time></trkpt><trkpt lat="44.4772903" lon="8.0715205"><ele>709.0</ele><time>2026-04-26T09:04:14.474Z</time></trkpt><trkpt lat="44.4771747" lon="8.0715683"><ele>707.8000000000001</ele><time>2026-04-26T09:04:15.473Z</time></trkpt><trkpt lat="44.477073" lon="8.0716308"><ele>706.6</ele><time>2026-04-26T09:04:16.474Z</time></trkpt><trkpt lat="44.4769732" lon="8.0716965"><ele>705.4</ele><time>2026-04-26T09:04:17.476Z</time></trkpt><trkpt lat="44.4768727" lon="8.0717617"><ele>704.2</ele><time>2026-04-26T09:04:18.474Z</time></trkpt><trkpt lat="44.476788" lon="8.071817"><ele>703.0</ele><time>2026-04-26T09:04:19.478Z</time></trkpt><trkpt lat="44.4767213" lon="8.071862"><ele>703.0</ele><time>2026-04-26T09:04:20.477Z</time></trkpt><trkpt lat="44.4766475" lon="8.0719407"><ele>703.0</ele><time>2026-04-26T09:04:22.477Z</time></trkpt><trkpt lat="44.4766367" lon="8.0720475"><ele>703.0</ele><time>2026-04-26T09:04:24.472Z</time></trkpt><trkpt lat="44.476712" lon="8.072196"><ele>703.0</ele><time>2026-04-26T09:04:26.474Z</time></trkpt><trkpt lat="44.4767672" lon="8.0722973"><ele>703.0</ele><time>2026-04-26T09:04:27.473Z</time></trkpt><trkpt lat="44.4768225" lon="8.072412"><ele>703.25</ele><time>2026-04-26T09:04:28.476Z</time></trkpt><trkpt lat="44.4768772" lon="8.0725432"><ele>703.5</ele><time>2026-04-26T09:04:29.476Z</time></trkpt><trkpt lat="44.4769227" lon="8.0726903"><ele>703.75</ele><time>2026-04-26T09:04:30.475Z</time></trkpt><trkpt lat="44.4769555" lon="8.0728542"><ele>704.0</ele><time>2026-04-26T09:04:31.475Z</time></trkpt><trkpt lat="44.4769842" lon="8.0730292"><ele>704.0</ele><time>2026-04-26T09:04:32.475Z</time></trkpt><trkpt lat="44.4770175" lon="8.0731978"><ele>704.0</ele><time>2026-04-26T09:04:33.476Z</time></trkpt><trkpt lat="44.4770397" lon="8.0733445"><ele>704.0</ele><time>2026-04-26T09:04:34.478Z</time></trkpt><trkpt lat="44.4770422" lon="8.0734768"><ele>704.0</ele><time>2026-04-26T09:04:35.475Z</time></trkpt><trkpt lat="44.4770288" lon="8.0736095"><ele>704.0</ele><time>2026-04-26T09:04:36.474Z</time></trkpt><trkpt lat="44.4770023" lon="8.073757"><ele>705.2</ele><time>2026-04-26T09:04:37.477Z</time></trkpt><trkpt lat="44.4769725" lon="8.0739157"><ele>706.4000000000001</ele><time>2026-04-26T09:04:38.477Z</time></trkpt><trkpt lat="44.4769448" lon="8.0740647"><ele>707.6</ele><time>2026-04-26T09:04:39.475Z</time></trkpt><trkpt lat="44.4769092" lon="8.0741978"><ele>708.8</ele><time>2026-04-26T09:04:40.479Z</time></trkpt><trkpt lat="44.4768512" lon="8.074309"><ele>710.0</ele><time>2026-04-26T09:04:41.477Z</time></trkpt><trkpt lat="44.476771" lon="8.0743945"><ele>710.6666666666666</ele><time>2026-04-26T09:04:42.477Z</time></trkpt><trkpt lat="44.4766975" lon="8.0744635"><ele>711.3333333333333</ele><time>2026-04-26T09:04:43.478Z</time></trkpt><trkpt lat="44.4766467" lon="8.0745205"><ele>712.0</ele><time>2026-04-26T09:04:44.477Z</time></trkpt><trkpt lat="44.476595" lon="8.0746168"><ele>712.6666666666666</ele><time>2026-04-26T09:04:46.477Z</time></trkpt><trkpt lat="44.4765983" lon="8.074705"><ele>713.3333333333334</ele><time>2026-04-26T09:04:48.474Z</time></trkpt><trkpt lat="44.4766737" lon="8.074839"><ele>714.0</ele><time>2026-04-26T09:04:50.474Z</time></trkpt><trkpt lat="44.4767217" lon="8.074944"><ele>714.6</ele><time>2026-04-26T09:04:51.475Z</time></trkpt><trkpt lat="44.4767703" lon="8.0750653"><ele>715.2</ele><time>2026-04-26T09:04:52.478Z</time></trkpt><trkpt lat="44.476816" lon="8.075195"><ele>715.8000000000001</ele><time>2026-04-26T09:04:53.475Z</time></trkpt><trkpt lat="44.4768473" lon="8.07534"><ele>716.4000000000001</ele><time>2026-04-26T09:04:54.476Z</time></trkpt><trkpt lat="44.4768595" lon="8.0754948"><ele>717.0</ele><time>2026-04-26T09:04:55.478Z</time></trkpt><trkpt lat="44.4768652" lon="8.0756545"><ele>717.6</ele><time>2026-04-26T09:04:56.479Z</time></trkpt><trkpt lat="44.4768705" lon="8.0758057"><ele>718.2</ele><time>2026-04-26T09:04:57.477Z</time></trkpt><trkpt lat="44.4768803" lon="8.0759372"><ele>718.8</ele><time>2026-04-26T09:04:58.477Z</time></trkpt><trkpt lat="44.4769037" lon="8.0760622"><ele>719.4</ele><time>2026-04-26T09:04:59.476Z</time></trkpt><trkpt lat="44.4769447" lon="8.0761908"><ele>720.0</ele><time>2026-04-26T09:05:00.475Z</time></trkpt><trkpt lat="44.4770033" lon="8.0763275"><ele>720.0</ele><time>2026-04-26T09:05:01.478Z</time></trkpt><trkpt lat="44.4770633" lon="8.0764702"><ele>720.0</ele><time>2026-04-26T09:05:02.479Z</time></trkpt><trkpt lat="44.477115" lon="8.0766275"><ele>720.0</ele><time>2026-04-26T09:05:03.478Z</time></trkpt><trkpt lat="44.4771605" lon="8.0767963"><ele>720.0</ele><time>2026-04-26T09:05:04.478Z</time></trkpt><trkpt lat="44.4772072" lon="8.0769685"><ele>723.75</ele><time>2026-04-26T09:05:05.477Z</time></trkpt><trkpt lat="44.4772615" lon="8.077137"><ele>727.5</ele><time>2026-04-26T09:05:06.479Z</time></trkpt><trkpt lat="44.4773255" lon="8.0773187"><ele>731.25</ele><time>2026-04-26T09:05:07.477Z</time></trkpt><trkpt lat="44.4773972" lon="8.0775053"><ele>735.0</ele><time>2026-04-26T09:05:08.476Z</time></trkpt><trkpt lat="44.477465" lon="8.0776948"><ele>736.6666666666666</ele><time>2026-04-26T09:05:09.479Z</time></trkpt><trkpt lat="44.4775325" lon="8.0778857"><ele>738.3333333333333</ele><time>2026-04-26T09:05:10.477Z</time></trkpt><trkpt lat="44.4776077" lon="8.0780735"><ele>740.0</ele><time>2026-04-26T09:05:11.477Z</time></trkpt><trkpt lat="44.4776922" lon="8.0782543"><ele>740.3333333333333</ele><time>2026-04-26T09:05:12.474Z</time></trkpt><trkpt lat="44.477782" lon="8.078437"><ele>740.6666666666666</ele><time>2026-04-26T09:05:13.474Z</time></trkpt><trkpt lat="44.477873" lon="8.0786258"><ele>741.0</ele><time>2026-04-26T09:05:14.474Z</time></trkpt><trkpt lat="44.4779557" lon="8.0788253"><ele>747.6666666666666</ele><time>2026-04-26T09:05:15.477Z</time></trkpt><trkpt lat="44.4780282" lon="8.0790378"><ele>754.3333333333333</ele><time>2026-04-26T09:05:16.476Z</time></trkpt><trkpt lat="44.4780902" lon="8.0792583"><ele>761.0</ele><time>2026-04-26T09:05:17.478Z</time></trkpt><trkpt lat="44.4781502" lon="8.0794783"><ele>761.75</ele><time>2026-04-26T09:05:18.476Z</time></trkpt><trkpt lat="44.4782055" lon="8.0796858"><ele>762.5</ele><time>2026-04-26T09:05:19.477Z</time></trkpt><trkpt lat="44.4782498" lon="8.0798685"><ele>763.25</ele><time>2026-04-26T09:05:20.477Z</time></trkpt><trkpt lat="44.4782772" lon="8.0800375"><ele>764.0</ele><time>2026-04-26T09:05:21.476Z</time></trkpt><trkpt lat="44.4782875" lon="8.0802035"><ele>764.5</ele><time>2026-04-26T09:05:22.476Z</time></trkpt><trkpt lat="44.4782847" lon="8.0803488"><ele>765.0</ele><time>2026-04-26T09:05:23.475Z</time></trkpt><trkpt lat="44.4782633" lon="8.080464"><ele>765.5</ele><time>2026-04-26T09:05:24.477Z</time></trkpt><trkpt lat="44.4782157" lon="8.0805395"><ele>766.0</ele><time>2026-04-26T09:05:25.478Z</time></trkpt><trkpt lat="44.4781468" lon="8.0805642"><ele>766.5</ele><time>2026-04-26T09:05:26.475Z</time></trkpt><trkpt lat="44.47806" lon="8.0805497"><ele>767.0</ele><time>2026-04-26T09:05:27.476Z</time></trkpt><trkpt lat="44.4779553" lon="8.0805128"><ele>765.25</ele><time>2026-04-26T09:05:28.477Z</time></trkpt><trkpt lat="44.4778403" lon="8.080474"><ele>763.5</ele><time>2026-04-26T09:05:29.476Z</time></trkpt><trkpt lat="44.4777168" lon="8.0804328"><ele>761.75</ele><time>2026-04-26T09:05:30.478Z</time></trkpt><trkpt lat="44.4776018" lon="8.0804"><ele>760.0</ele><time>2026-04-26T09:05:31.476Z</time></trkpt><trkpt lat="44.4774812" lon="8.0803943"><ele>760.0</ele><time>2026-04-26T09:05:32.478Z</time></trkpt><trkpt lat="44.477342" lon="8.0804167"><ele>760.0</ele><time>2026-04-26T09:05:33.475Z</time></trkpt><trkpt lat="44.4771973" lon="8.0804497"><ele>760.0</ele><time>2026-04-26T09:05:34.478Z</time></trkpt><trkpt lat="44.4770437" lon="8.080484"><ele>760.0</ele><time>2026-04-26T09:05:35.475Z</time></trkpt><trkpt lat="44.4768938" lon="8.080503"><ele>761.0</ele><time>2026-04-26T09:05:36.474Z</time></trkpt><trkpt lat="44.476755" lon="8.0804963"><ele>762.0</ele><time>2026-04-26T09:05:37.474Z</time></trkpt><trkpt lat="44.4766193" lon="8.0804652"><ele>763.0</ele><time>2026-04-26T09:05:38.475Z</time></trkpt><trkpt lat="44.4764813" lon="8.0804298"><ele>764.0</ele><time>2026-04-26T09:05:39.474Z</time></trkpt><trkpt lat="44.4763407" lon="8.0804128"><ele>764.0</ele><time>2026-04-26T09:05:40.472Z</time></trkpt><trkpt lat="44.4761845" lon="8.080414"><ele>764.0</ele><time>2026-04-26T09:05:41.475Z</time></trkpt><trkpt lat="44.4760285" lon="8.080413"><ele>764.0</ele><time>2026-04-26T09:05:42.475Z</time></trkpt><trkpt lat="44.4758907" lon="8.0804047"><ele>764.0</ele><time>2026-04-26T09:05:43.478Z</time></trkpt><trkpt lat="44.4757715" lon="8.0803957"><ele>764.0</ele><time>2026-04-26T09:05:44.475Z</time></trkpt><trkpt lat="44.4756662" lon="8.0804018"><ele>764.0</ele><time>2026-04-26T09:05:45.476Z</time></trkpt><trkpt lat="44.4755698" lon="8.0804472"><ele>764.0</ele><time>2026-04-26T09:05:46.477Z</time></trkpt><trkpt lat="44.4754732" lon="8.0805407"><ele>764.0</ele><time>2026-04-26T09:05:47.476Z</time></trkpt><trkpt lat="44.475363" lon="8.0806663"><ele>767.6666666666666</ele><time>2026-04-26T09:05:48.476Z</time></trkpt><trkpt lat="44.4752375" lon="8.080793"><ele>771.3333333333333</ele><time>2026-04-26T09:05:49.476Z</time></trkpt><trkpt lat="44.4751005" lon="8.0809333"><ele>775.0</ele><time>2026-04-26T09:05:50.475Z</time></trkpt><trkpt lat="44.4749588" lon="8.0810932"><ele>775.0</ele><time>2026-04-26T09:05:51.475Z</time></trkpt><trkpt lat="44.474814" lon="8.0812532"><ele>775.0</ele><time>2026-04-26T09:05:52.476Z</time></trkpt><trkpt lat="44.4746585" lon="8.0813958"><ele>775.0</ele><time>2026-04-26T09:05:53.476Z</time></trkpt><trkpt lat="44.4744893" lon="8.0815212"><ele>777.6666666666666</ele><time>2026-04-26T09:05:54.476Z</time></trkpt><trkpt lat="44.4743128" lon="8.0816267"><ele>780.3333333333333</ele><time>2026-04-26T09:05:55.476Z</time></trkpt><trkpt lat="44.4741297" lon="8.0817115"><ele>783.0</ele><time>2026-04-26T09:05:56.476Z</time></trkpt><trkpt lat="44.473935" lon="8.0817805"><ele>784.6666666666667</ele><time>2026-04-26T09:05:57.476Z</time></trkpt><trkpt lat="44.4737375" lon="8.0818432"><ele>786.3333333333334</ele><time>2026-04-26T09:05:58.477Z</time></trkpt><trkpt lat="44.4735535" lon="8.0818978"><ele>788.0</ele><time>2026-04-26T09:05:59.478Z</time></trkpt><trkpt lat="44.4733847" lon="8.0819502"><ele>788.0</ele><time>2026-04-26T09:06:00.481Z</time></trkpt><trkpt lat="44.473219" lon="8.0820157"><ele>788.0</ele><time>2026-04-26T09:06:01.477Z</time></trkpt><trkpt lat="44.4730647" lon="8.0820843"><ele>788.0</ele><time>2026-04-26T09:06:02.475Z</time></trkpt><trkpt lat="44.4729283" lon="8.0821552"><ele>790.0</ele><time>2026-04-26T09:06:03.474Z</time></trkpt><trkpt lat="44.4728032" lon="8.082235"><ele>792.0</ele><time>2026-04-26T09:06:04.475Z</time></trkpt><trkpt lat="44.4726832" lon="8.082292"><ele>794.0</ele><time>2026-04-26T09:06:05.475Z</time></trkpt><trkpt lat="44.4725603" lon="8.0823032"><ele>796.0</ele><time>2026-04-26T09:06:06.481Z</time></trkpt><trkpt lat="44.4724437" lon="8.0822913"><ele>796.0</ele><time>2026-04-26T09:06:07.479Z</time></trkpt><trkpt lat="44.472336" lon="8.082279"><ele>796.0</ele><time>2026-04-26T09:06:08.477Z</time></trkpt><trkpt lat="44.4722312" lon="8.0822827"><ele>796.0</ele><time>2026-04-26T09:06:09.475Z</time></trkpt><trkpt lat="44.4721327" lon="8.082316"><ele>796.0</ele><time>2026-04-26T09:06:10.475Z</time></trkpt><trkpt lat="44.4720455" lon="8.0823722"><ele>796.0</ele><time>2026-04-26T09:06:11.477Z</time></trkpt><trkpt lat="44.4719768" lon="8.082441"><ele>798.8</ele><time>2026-04-26T09:06:12.475Z</time></trkpt><trkpt lat="44.4719267" lon="8.0825318"><ele>801.5999999999999</ele><time>2026-04-26T09:06:13.475Z</time></trkpt><trkpt lat="44.4718968" lon="8.0826543"><ele>804.4</ele><time>2026-04-26T09:06:14.477Z</time></trkpt><trkpt lat="44.4718832" lon="8.0827985"><ele>807.2</ele><time>2026-04-26T09:06:15.475Z</time></trkpt><trkpt lat="44.4718867" lon="8.0829338"><ele>810.0</ele><time>2026-04-26T09:06:16.476Z</time></trkpt><trkpt lat="44.4719123" lon="8.0830433"><ele>810.0</ele><time>2026-04-26T09:06:17.476Z</time></trkpt><trkpt lat="44.471967" lon="8.0831273"><ele>810.0</ele><time>2026-04-26T09:06:18.477Z</time></trkpt><trkpt lat="44.47205" lon="8.0831962"><ele>810.0</ele><time>2026-04-26T09:06:19.476Z</time></trkpt><trkpt lat="44.4721557" lon="8.0832627"><ele>810.0</ele><time>2026-04-26T09:06:20.476Z</time></trkpt><trkpt lat="44.4722732" lon="8.0833547"><ele>810.0</ele><time>2026-04-26T09:06:21.475Z</time></trkpt><trkpt lat="44.4723978" lon="8.0834703"><ele>812.0</ele><time>2026-04-26T09:06:22.474Z</time></trkpt><trkpt lat="44.4725285" lon="8.0836035"><ele>814.0</ele><time>2026-04-26T09:06:23.477Z</time></trkpt><trkpt lat="44.4726677" lon="8.0837298"><ele>816.0</ele><time>2026-04-26T09:06:24.477Z</time></trkpt><trkpt lat="44.4727995" lon="8.0838415"><ele>816.0</ele><time>2026-04-26T09:06:25.477Z</time></trkpt><trkpt lat="44.4729197" lon="8.0839467"><ele>816.0</ele><time>2026-04-26T09:06:26.475Z</time></trkpt><trkpt lat="44.4730262" lon="8.0840532"><ele>816.0</ele><time>2026-04-26T09:06:27.475Z</time></trkpt><trkpt lat="44.4731202" lon="8.0841478"><ele>816.0</ele><time>2026-04-26T09:06:28.476Z</time></trkpt><trkpt lat="44.4732027" lon="8.0842212"><ele>817.1999999999999</ele><time>2026-04-26T09:06:29.473Z</time></trkpt><trkpt lat="44.47327" lon="8.0842747"><ele>818.4</ele><time>2026-04-26T09:06:30.477Z</time></trkpt><trkpt lat="44.4733418" lon="8.084354"><ele>819.6</ele><time>2026-04-26T09:06:32.478Z</time></trkpt><trkpt lat="44.4732742" lon="8.0843958"><ele>820.8</ele><time>2026-04-26T09:07:01.478Z</time></trkpt><trkpt lat="44.473146" lon="8.0843617"><ele>822.0</ele><time>2026-04-26T09:07:03.476Z</time></trkpt><trkpt lat="44.4730612" lon="8.0843427"><ele>822.0</ele><time>2026-04-26T09:07:04.478Z</time></trkpt><trkpt lat="44.47296" lon="8.0843177"><ele>822.0</ele><time>2026-04-26T09:07:05.48Z</time></trkpt><trkpt lat="44.4728522" lon="8.0842903"><ele>822.0</ele><time>2026-04-26T09:07:06.478Z</time></trkpt><trkpt lat="44.4727318" lon="8.0842623"><ele>822.0</ele><time>2026-04-26T09:07:07.479Z</time></trkpt><trkpt lat="44.4725973" lon="8.0842327"><ele>824.6666666666667</ele><time>2026-04-26T09:07:08.48Z</time></trkpt><trkpt lat="44.4724463" lon="8.0841997"><ele>827.3333333333334</ele><time>2026-04-26T09:07:09.479Z</time></trkpt><trkpt lat="44.4722865" lon="8.08416"><ele>830.0</ele><time>2026-04-26T09:07:10.479Z</time></trkpt><trkpt lat="44.472116" lon="8.0841108"><ele>827.6666666666667</ele><time>2026-04-26T09:07:11.479Z</time></trkpt><trkpt lat="44.4719357" lon="8.0840593"><ele>825.3333333333333</ele><time>2026-04-26T09:07:12.478Z</time></trkpt><trkpt lat="44.4717488" lon="8.0840083"><ele>823.0</ele><time>2026-04-26T09:07:13.478Z</time></trkpt><trkpt lat="44.4715603" lon="8.0839592"><ele>823.0</ele><time>2026-04-26T09:07:14.481Z</time></trkpt><trkpt lat="44.4713647" lon="8.0839103"><ele>823.0</ele><time>2026-04-26T09:07:15.474Z</time></trkpt><trkpt lat="44.4711658" lon="8.0838615"><ele>823.0</ele><time>2026-04-26T09:07:16.477Z</time></trkpt><trkpt lat="44.4709663" lon="8.0838148"><ele>826.6666666666666</ele><time>2026-04-26T09:07:17.476Z</time></trkpt><trkpt lat="44.470766" lon="8.0837693"><ele>830.3333333333333</ele><time>2026-04-26T09:07:18.475Z</time></trkpt><trkpt lat="44.4705652" lon="8.083724"><ele>834.0</ele><time>2026-04-26T09:07:19.478Z</time></trkpt><trkpt lat="44.4703657" lon="8.0836732"><ele>838.3333333333333</ele><time>2026-04-26T09:07:20.479Z</time></trkpt><trkpt lat="44.4701688" lon="8.0836128"><ele>842.6666666666666</ele><time>2026-04-26T09:07:21.479Z</time></trkpt><trkpt lat="44.4699758" lon="8.0835413"><ele>847.0</ele><time>2026-04-26T09:07:22.48Z</time></trkpt><trkpt lat="44.4697875" lon="8.0834548"><ele>848.0</ele><time>2026-04-26T09:07:23.478Z</time></trkpt><trkpt lat="44.4696023" lon="8.0833517"><ele>849.0</ele><time>2026-04-26T09:07:24.464Z</time></trkpt><trkpt lat="44.4694153" lon="8.0832415"><ele>850.0</ele><time>2026-04-26T09:07:25.477Z</time></trkpt><trkpt lat="44.4692317" lon="8.0831292"><ele>850.0</ele><time>2026-04-26T09:07:26.478Z</time></trkpt><trkpt lat="44.4690582" lon="8.0830268"><ele>850.0</ele><time>2026-04-26T09:07:27.477Z</time></trkpt><trkpt lat="44.4689027" lon="8.0829322"><ele>850.0</ele><time>2026-04-26T09:07:28.479Z</time></trkpt><trkpt lat="44.4687565" lon="8.0828473"><ele>853.3333333333333</ele><time>2026-04-26T09:07:29.478Z</time></trkpt><trkpt lat="44.468611" lon="8.082778"><ele>856.6666666666667</ele><time>2026-04-26T09:07:30.477Z</time></trkpt><trkpt lat="44.4684595" lon="8.0827292"><ele>860.0</ele><time>2026-04-26T09:07:31.477Z</time></trkpt><trkpt lat="44.4683072" lon="8.082707"><ele>860.0</ele><time>2026-04-26T09:07:32.476Z</time></trkpt><trkpt lat="44.4681618" lon="8.0827228"><ele>860.0</ele><time>2026-04-26T09:07:33.475Z</time></trkpt><trkpt lat="44.4680247" lon="8.0827707"><ele>860.0</ele><time>2026-04-26T09:07:34.476Z</time></trkpt><trkpt lat="44.4678923" lon="8.0828473"><ele>860.0</ele><time>2026-04-26T09:07:35.477Z</time></trkpt><trkpt lat="44.4677642" lon="8.0829565"><ele>861.0</ele><time>2026-04-26T09:07:36.479Z</time></trkpt><trkpt lat="44.467647" lon="8.0830868"><ele>862.0</ele><time>2026-04-26T09:07:37.475Z</time></trkpt><trkpt lat="44.4675442" lon="8.0832333"><ele>863.0</ele><time>2026-04-26T09:07:38.477Z</time></trkpt><trkpt lat="44.467463" lon="8.0833877"><ele>864.0</ele><time>2026-04-26T09:07:39.478Z</time></trkpt><trkpt lat="44.467403" lon="8.0835367"><ele>864.0</ele><time>2026-04-26T09:07:40.474Z</time></trkpt><trkpt lat="44.4673618" lon="8.0836782"><ele>864.0000000000001</ele><time>2026-04-26T09:07:41.474Z</time></trkpt><trkpt lat="44.467341" lon="8.0838115"><ele>864.0000000000001</ele><time>2026-04-26T09:07:42.474Z</time></trkpt><trkpt lat="44.4673403" lon="8.0839415"><ele>864.0</ele><time>2026-04-26T09:07:43.476Z</time></trkpt><trkpt lat="44.4673563" lon="8.0840768"><ele>864.0</ele><time>2026-04-26T09:07:44.477Z</time></trkpt><trkpt lat="44.4673775" lon="8.0842262"><ele>866.0</ele><time>2026-04-26T09:07:45.479Z</time></trkpt><trkpt lat="44.4673977" lon="8.084391"><ele>868.0</ele><time>2026-04-26T09:07:46.481Z</time></trkpt><trkpt lat="44.4674173" lon="8.0845642"><ele>870.0</ele><time>2026-04-26T09:07:47.478Z</time></trkpt><trkpt lat="44.4674333" lon="8.0847402"><ele>872.0</ele><time>2026-04-26T09:07:48.477Z</time></trkpt><trkpt lat="44.4674435" lon="8.0849167"><ele>871.0</ele><time>2026-04-26T09:07:49.477Z</time></trkpt><trkpt lat="44.4674427" lon="8.0850932"><ele>870.0</ele><time>2026-04-26T09:07:50.477Z</time></trkpt><trkpt lat="44.4674308" lon="8.0852707"><ele>869.0</ele><time>2026-04-26T09:07:51.477Z</time></trkpt><trkpt lat="44.4674083" lon="8.0854467"><ele>868.0</ele><time>2026-04-26T09:07:52.48Z</time></trkpt><trkpt lat="44.4673768" lon="8.0856227"><ele>868.75</ele><time>2026-04-26T09:07:53.477Z</time></trkpt><trkpt lat="44.4673397" lon="8.0857987"><ele>869.5</ele><time>2026-04-26T09:07:54.475Z</time></trkpt><trkpt lat="44.4673018" lon="8.085976"><ele>870.25</ele><time>2026-04-26T09:07:55.478Z</time></trkpt><trkpt lat="44.467268" lon="8.086163"><ele>871.0</ele><time>2026-04-26T09:07:56.476Z</time></trkpt><trkpt lat="44.4672477" lon="8.0863617"><ele>871.0</ele><time>2026-04-26T09:07:57.476Z</time></trkpt><trkpt lat="44.4672423" lon="8.0865698"><ele>871.0</ele><time>2026-04-26T09:07:58.479Z</time></trkpt><trkpt lat="44.4672472" lon="8.0867823"><ele>871.0</ele><time>2026-04-26T09:07:59.477Z</time></trkpt><trkpt lat="44.467257" lon="8.0869982"><ele>871.25</ele><time>2026-04-26T09:08:00.479Z</time></trkpt><trkpt lat="44.4672602" lon="8.0872057"><ele>871.5</ele><time>2026-04-26T09:08:01.478Z</time></trkpt><trkpt lat="44.4672448" lon="8.0874007"><ele>871.75</ele><time>2026-04-26T09:08:02.476Z</time></trkpt><trkpt lat="44.4672037" lon="8.0875903"><ele>872.0</ele><time>2026-04-26T09:08:03.476Z</time></trkpt><trkpt lat="44.4671372" lon="8.0877808"><ele>862.3333333333334</ele><time>2026-04-26T09:08:04.477Z</time></trkpt><trkpt lat="44.4670453" lon="8.087969"><ele>852.6666666666667</ele><time>2026-04-26T09:08:05.474Z</time></trkpt><trkpt lat="44.4669328" lon="8.088155"><ele>843.0</ele><time>2026-04-26T09:08:06.474Z</time></trkpt><trkpt lat="44.46681" lon="8.0883473"><ele>843.0</ele><time>2026-04-26T09:08:07.475Z</time></trkpt><trkpt lat="44.4666867" lon="8.0885407"><ele>843.0</ele><time>2026-04-26T09:08:08.475Z</time></trkpt><trkpt lat="44.4665727" lon="8.088738"><ele>843.0</ele><time>2026-04-26T09:08:09.479Z</time></trkpt><trkpt lat="44.4664718" lon="8.0889402"><ele>845.6666666666667</ele><time>2026-04-26T09:08:10.475Z</time></trkpt><trkpt lat="44.4663808" lon="8.0891405"><ele>848.3333333333334</ele><time>2026-04-26T09:08:11.476Z</time></trkpt><trkpt lat="44.4662962" lon="8.089337"><ele>851.0</ele><time>2026-04-26T09:08:12.477Z</time></trkpt><trkpt lat="44.4662138" lon="8.08953"><ele>844.3333333333334</ele><time>2026-04-26T09:08:13.477Z</time></trkpt><trkpt lat="44.4661218" lon="8.08972"><ele>837.6666666666667</ele><time>2026-04-26T09:08:14.476Z</time></trkpt><trkpt lat="44.4660143" lon="8.0899072"><ele>831.0</ele><time>2026-04-26T09:08:15.479Z</time></trkpt><trkpt lat="44.4658978" lon="8.09008"><ele>831.0</ele><time>2026-04-26T09:08:16.48Z</time></trkpt><trkpt lat="44.4657742" lon="8.0902328"><ele>831.0</ele><time>2026-04-26T09:08:17.475Z</time></trkpt><trkpt lat="44.4656415" lon="8.0903575"><ele>831.0</ele><time>2026-04-26T09:08:18.476Z</time></trkpt><trkpt lat="44.465502" lon="8.0904512"><ele>829.0</ele><time>2026-04-26T09:08:19.478Z</time></trkpt><trkpt lat="44.4653662" lon="8.0905278"><ele>827.0</ele><time>2026-04-26T09:08:20.477Z</time></trkpt><trkpt lat="44.4652375" lon="8.0906042"><ele>825.0</ele><time>2026-04-26T09:08:21.476Z</time></trkpt><trkpt lat="44.4651185" lon="8.090684"><ele>823.0</ele><time>2026-04-26T09:08:22.474Z</time></trkpt><trkpt lat="44.4650152" lon="8.0907668"><ele>823.0</ele><time>2026-04-26T09:08:23.474Z</time></trkpt><trkpt lat="44.4649287" lon="8.0908568"><ele>823.0</ele><time>2026-04-26T09:08:24.475Z</time></trkpt><trkpt lat="44.4648628" lon="8.0909693"><ele>823.0</ele><time>2026-04-26T09:08:25.477Z</time></trkpt><trkpt lat="44.4648198" lon="8.0911175"><ele>823.0</ele><time>2026-04-26T09:08:26.474Z</time></trkpt><trkpt lat="44.464801" lon="8.0912995"><ele>823.0</ele><time>2026-04-26T09:08:27.473Z</time></trkpt><trkpt lat="44.4648042" lon="8.0915005"><ele>823.0</ele><time>2026-04-26T09:08:28.477Z</time></trkpt><trkpt lat="44.4648193" lon="8.091724"><ele>823.0</ele><time>2026-04-26T09:08:29.475Z</time></trkpt><trkpt lat="44.4648348" lon="8.091967"><ele>822.3333333333333</ele><time>2026-04-26T09:08:30.474Z</time></trkpt><trkpt lat="44.4648468" lon="8.0922078"><ele>821.6666666666667</ele><time>2026-04-26T09:08:31.476Z</time></trkpt><trkpt lat="44.4648512" lon="8.0924363"><ele>821.0</ele><time>2026-04-26T09:08:32.476Z</time></trkpt><trkpt lat="44.464852" lon="8.0926472"><ele>819.25</ele><time>2026-04-26T09:08:33.477Z</time></trkpt><trkpt lat="44.4648498" lon="8.0928345"><ele>817.5</ele><time>2026-04-26T09:08:34.476Z</time></trkpt><trkpt lat="44.4648423" lon="8.0930007"><ele>815.75</ele><time>2026-04-26T09:08:35.483Z</time></trkpt><trkpt lat="44.4648193" lon="8.0931528"><ele>814.0</ele><time>2026-04-26T09:08:36.475Z</time></trkpt><trkpt lat="44.4647668" lon="8.0932902"><ele>811.0</ele><time>2026-04-26T09:08:37.479Z</time></trkpt><trkpt lat="44.464681" lon="8.0934077"><ele>808.0</ele><time>2026-04-26T09:08:38.476Z</time></trkpt><trkpt lat="44.4645602" lon="8.0934995"><ele>805.0</ele><time>2026-04-26T09:08:39.477Z</time></trkpt><trkpt lat="44.4644162" lon="8.0935688"><ele>802.0</ele><time>2026-04-26T09:08:40.476Z</time></trkpt><trkpt lat="44.4642487" lon="8.0936327"><ele>798.6666666666666</ele><time>2026-04-26T09:08:41.477Z</time></trkpt><trkpt lat="44.464069" lon="8.093703"><ele>795.3333333333333</ele><time>2026-04-26T09:08:42.479Z</time></trkpt><trkpt lat="44.4638882" lon="8.0937763"><ele>792.0</ele><time>2026-04-26T09:08:43.477Z</time></trkpt><trkpt lat="44.4637153" lon="8.0938392"><ele>788.0</ele><time>2026-04-26T09:08:44.478Z</time></trkpt><trkpt lat="44.4635473" lon="8.0938722"><ele>784.0</ele><time>2026-04-26T09:08:45.479Z</time></trkpt><trkpt lat="44.4633788" lon="8.0938593"><ele>780.0</ele><time>2026-04-26T09:08:46.477Z</time></trkpt><trkpt lat="44.4632063" lon="8.0938158"><ele>780.0</ele><time>2026-04-26T09:08:47.478Z</time></trkpt><trkpt lat="44.4630408" lon="8.0937633"><ele>780.0</ele><time>2026-04-26T09:08:48.477Z</time></trkpt><trkpt lat="44.4628817" lon="8.0937142"><ele>780.0</ele><time>2026-04-26T09:08:49.478Z</time></trkpt><trkpt lat="44.4627263" lon="8.0936808"><ele>776.6666666666667</ele><time>2026-04-26T09:08:50.478Z</time></trkpt><trkpt lat="44.4625737" lon="8.0936718"><ele>773.3333333333334</ele><time>2026-04-26T09:08:51.476Z</time></trkpt><trkpt lat="44.4624145" lon="8.093687"><ele>770.0</ele><time>2026-04-26T09:08:52.478Z</time></trkpt><trkpt lat="44.4622467" lon="8.0937318"><ele>764.6666666666667</ele><time>2026-04-26T09:08:53.474Z</time></trkpt><trkpt lat="44.4620705" lon="8.0938003"><ele>759.3333333333334</ele><time>2026-04-26T09:08:54.474Z</time></trkpt><trkpt lat="44.4618985" lon="8.0938775"><ele>754.0</ele><time>2026-04-26T09:08:55.474Z</time></trkpt><trkpt lat="44.4617338" lon="8.0939512"><ele>754.0</ele><time>2026-04-26T09:08:56.476Z</time></trkpt><trkpt lat="44.461581" lon="8.094025"><ele>754.0</ele><time>2026-04-26T09:08:57.475Z</time></trkpt><trkpt lat="44.461438" lon="8.0941122"><ele>754.0</ele><time>2026-04-26T09:08:58.476Z</time></trkpt><trkpt lat="44.4613103" lon="8.0942212"><ele>753.0</ele><time>2026-04-26T09:08:59.476Z</time></trkpt><trkpt lat="44.4612032" lon="8.0943568"><ele>752.0</ele><time>2026-04-26T09:09:00.475Z</time></trkpt><trkpt lat="44.4611157" lon="8.0945262"><ele>751.0</ele><time>2026-04-26T09:09:01.475Z</time></trkpt><trkpt lat="44.4610568" lon="8.0947328"><ele>753.0</ele><time>2026-04-26T09:09:02.475Z</time></trkpt><trkpt lat="44.4610282" lon="8.094971"><ele>755.0</ele><time>2026-04-26T09:09:03.478Z</time></trkpt><trkpt lat="44.4610155" lon="8.0952293"><ele>757.0</ele><time>2026-04-26T09:09:04.477Z</time></trkpt><trkpt lat="44.46101" lon="8.0955003"><ele>755.3333333333334</ele><time>2026-04-26T09:09:05.476Z</time></trkpt><trkpt lat="44.461008" lon="8.0957803"><ele>753.6666666666666</ele><time>2026-04-26T09:09:06.48Z</time></trkpt><trkpt lat="44.4610063" lon="8.0960513"><ele>752.0</ele><time>2026-04-26T09:09:07.48Z</time></trkpt><trkpt lat="44.4610057" lon="8.0963137"><ele>752.0</ele><time>2026-04-26T09:09:08.477Z</time></trkpt><trkpt lat="44.461007" lon="8.0965672"><ele>752.0</ele><time>2026-04-26T09:09:09.477Z</time></trkpt><trkpt lat="44.4610142" lon="8.0968127"><ele>752.0</ele><time>2026-04-26T09:09:10.481Z</time></trkpt><trkpt lat="44.4610265" lon="8.097049"><ele>750.0</ele><time>2026-04-26T09:09:11.478Z</time></trkpt><trkpt lat="44.461041" lon="8.0972692"><ele>748.0</ele><time>2026-04-26T09:09:12.474Z</time></trkpt><trkpt lat="44.4610435" lon="8.097481"><ele>746.0</ele><time>2026-04-26T09:09:13.477Z</time></trkpt><trkpt lat="44.4610147" lon="8.09769"><ele>743.6666666666666</ele><time>2026-04-26T09:09:14.477Z</time></trkpt><trkpt lat="44.460949" lon="8.0979085"><ele>741.3333333333334</ele><time>2026-04-26T09:09:15.478Z</time></trkpt><trkpt lat="44.460863" lon="8.0981335"><ele>739.0</ele><time>2026-04-26T09:09:16.479Z</time></trkpt><trkpt lat="44.460774" lon="8.0983453"><ele>737.5</ele><time>2026-04-26T09:09:17.477Z</time></trkpt><trkpt lat="44.4606922" lon="8.0985305"><ele>736.0</ele><time>2026-04-26T09:09:18.474Z</time></trkpt><trkpt lat="44.4606127" lon="8.0986863"><ele>734.5</ele><time>2026-04-26T09:09:19.474Z</time></trkpt><trkpt lat="44.4605315" lon="8.0988052"><ele>733.0</ele><time>2026-04-26T09:09:20.474Z</time></trkpt><trkpt lat="44.4604398" lon="8.0988972"><ele>732.6666666666667</ele><time>2026-04-26T09:09:21.473Z</time></trkpt><trkpt lat="44.460325" lon="8.0989915"><ele>732.3333333333334</ele><time>2026-04-26T09:09:22.475Z</time></trkpt><trkpt lat="44.4601938" lon="8.0991165"><ele>732.0</ele><time>2026-04-26T09:09:23.478Z</time></trkpt><trkpt lat="44.4600523" lon="8.0992642"><ele>732.0</ele><time>2026-04-26T09:09:24.475Z</time></trkpt><trkpt lat="44.4599018" lon="8.0994188"><ele>732.0</ele><time>2026-04-26T09:09:25.478Z</time></trkpt><trkpt lat="44.4597443" lon="8.099578"><ele>732.0</ele><time>2026-04-26T09:09:26.48Z</time></trkpt><trkpt lat="44.459582" lon="8.099741"><ele>731.3333333333334</ele><time>2026-04-26T09:09:27.477Z</time></trkpt><trkpt lat="44.459418" lon="8.0999072"><ele>730.6666666666667</ele><time>2026-04-26T09:09:28.478Z</time></trkpt><trkpt lat="44.4592533" lon="8.1000748"><ele>730.0</ele><time>2026-04-26T09:09:29.477Z</time></trkpt><trkpt lat="44.4590907" lon="8.1002418"><ele>730.0</ele><time>2026-04-26T09:09:30.476Z</time></trkpt><trkpt lat="44.458926" lon="8.1004108"><ele>730.0</ele><time>2026-04-26T09:09:31.476Z</time></trkpt><trkpt lat="44.4587582" lon="8.1005803"><ele>730.0</ele><time>2026-04-26T09:09:32.477Z</time></trkpt><trkpt lat="44.4585882" lon="8.1007492"><ele>729.6666666666667</ele><time>2026-04-26T09:09:33.477Z</time></trkpt><trkpt lat="44.4584185" lon="8.1009088"><ele>729.3333333333334</ele><time>2026-04-26T09:09:34.477Z</time></trkpt><trkpt lat="44.4582482" lon="8.1010438"><ele>729.0</ele><time>2026-04-26T09:09:35.478Z</time></trkpt><trkpt lat="44.458072" lon="8.1011547"><ele>729.6666666666666</ele><time>2026-04-26T09:09:36.479Z</time></trkpt><trkpt lat="44.4578933" lon="8.1012542"><ele>730.3333333333333</ele><time>2026-04-26T09:09:37.477Z</time></trkpt><trkpt lat="44.4577212" lon="8.1013485"><ele>731.0</ele><time>2026-04-26T09:09:38.477Z</time></trkpt><trkpt lat="44.4575607" lon="8.1014325"><ele>731.0</ele><time>2026-04-26T09:09:39.476Z</time></trkpt><trkpt lat="44.4574068" lon="8.1014985"><ele>731.0</ele><time>2026-04-26T09:09:40.477Z</time></trkpt><trkpt lat="44.4572485" lon="8.101541"><ele>731.0</ele><time>2026-04-26T09:09:41.478Z</time></trkpt><trkpt lat="44.4570808" lon="8.1015565"><ele>730.6666666666666</ele><time>2026-04-26T09:09:42.474Z</time></trkpt><trkpt lat="44.4569068" lon="8.101549"><ele>730.3333333333334</ele><time>2026-04-26T09:09:43.477Z</time></trkpt><trkpt lat="44.4567278" lon="8.1015323"><ele>730.0</ele><time>2026-04-26T09:09:44.475Z</time></trkpt><trkpt lat="44.4565537" lon="8.1015168"><ele>730.0</ele><time>2026-04-26T09:09:45.474Z</time></trkpt><trkpt lat="44.4563865" lon="8.1015163"><ele>730.0</ele><time>2026-04-26T09:09:46.48Z</time></trkpt><trkpt lat="44.4562212" lon="8.1015417"><ele>730.0</ele><time>2026-04-26T09:09:47.477Z</time></trkpt><trkpt lat="44.4560427" lon="8.1016017"><ele>727.0</ele><time>2026-04-26T09:09:48.477Z</time></trkpt><trkpt lat="44.4558483" lon="8.1016872"><ele>724.0</ele><time>2026-04-26T09:09:49.478Z</time></trkpt><trkpt lat="44.4556562" lon="8.1017775"><ele>721.0</ele><time>2026-04-26T09:09:50.478Z</time></trkpt><trkpt lat="44.455473" lon="8.101864"><ele>717.0</ele><time>2026-04-26T09:09:51.476Z</time></trkpt><trkpt lat="44.4553013" lon="8.1019443"><ele>713.0</ele><time>2026-04-26T09:09:52.478Z</time></trkpt><trkpt lat="44.4551422" lon="8.1020187"><ele>709.0</ele><time>2026-04-26T09:09:53.477Z</time></trkpt><trkpt lat="44.4549947" lon="8.1020927"><ele>709.0</ele><time>2026-04-26T09:09:54.478Z</time></trkpt><trkpt lat="44.45486" lon="8.1021803"><ele>709.0</ele><time>2026-04-26T09:09:55.475Z</time></trkpt><trkpt lat="44.454737" lon="8.1022983"><ele>709.0</ele><time>2026-04-26T09:09:56.475Z</time></trkpt><trkpt lat="44.4546205" lon="8.102459"><ele>706.3333333333334</ele><time>2026-04-26T09:09:57.476Z</time></trkpt><trkpt lat="44.4545127" lon="8.1026625"><ele>703.6666666666666</ele><time>2026-04-26T09:09:58.48Z</time></trkpt><trkpt lat="44.4544163" lon="8.1028968"><ele>701.0</ele><time>2026-04-26T09:09:59.476Z</time></trkpt><trkpt lat="44.4543265" lon="8.1031478"><ele>701.6666666666666</ele><time>2026-04-26T09:10:00.477Z</time></trkpt><trkpt lat="44.4542425" lon="8.1033978"><ele>702.3333333333334</ele><time>2026-04-26T09:10:01.476Z</time></trkpt><trkpt lat="44.4541623" lon="8.1036358"><ele>703.0</ele><time>2026-04-26T09:10:02.477Z</time></trkpt><trkpt lat="44.4540822" lon="8.1038593"><ele>703.0</ele><time>2026-04-26T09:10:03.476Z</time></trkpt><trkpt lat="44.4539915" lon="8.1040687"><ele>703.0</ele><time>2026-04-26T09:10:04.476Z</time></trkpt><trkpt lat="44.4538743" lon="8.1042567"><ele>703.0</ele><time>2026-04-26T09:10:05.475Z</time></trkpt><trkpt lat="44.4537267" lon="8.1044265"><ele>699.0</ele><time>2026-04-26T09:10:06.475Z</time></trkpt><trkpt lat="44.4535622" lon="8.104592"><ele>695.0</ele><time>2026-04-26T09:10:07.474Z</time></trkpt><trkpt lat="44.4533945" lon="8.1047477"><ele>691.0</ele><time>2026-04-26T09:10:08.475Z</time></trkpt><trkpt lat="44.4532288" lon="8.1048835"><ele>690.3333333333334</ele><time>2026-04-26T09:10:09.475Z</time></trkpt><trkpt lat="44.4530643" lon="8.1049922"><ele>689.6666666666666</ele><time>2026-04-26T09:10:10.477Z</time></trkpt><trkpt lat="44.4529012" lon="8.1050742"><ele>689.0</ele><time>2026-04-26T09:10:11.478Z</time></trkpt><trkpt lat="44.452743" lon="8.105128"><ele>689.0</ele><time>2026-04-26T09:10:12.477Z</time></trkpt><trkpt lat="44.4525897" lon="8.105141"><ele>689.0</ele><time>2026-04-26T09:10:13.478Z</time></trkpt><trkpt lat="44.4524357" lon="8.1051073"><ele>689.0</ele><time>2026-04-26T09:10:14.476Z</time></trkpt><trkpt lat="44.452282" lon="8.1050235"><ele>688.0</ele><time>2026-04-26T09:10:15.476Z</time></trkpt><trkpt lat="44.4521272" lon="8.1049022"><ele>687.0</ele><time>2026-04-26T09:10:16.481Z</time></trkpt><trkpt lat="44.4519703" lon="8.1047692"><ele>686.0</ele><time>2026-04-26T09:10:17.476Z</time></trkpt><trkpt lat="44.4518237" lon="8.10464"><ele>686.0</ele><time>2026-04-26T09:10:18.477Z</time></trkpt><trkpt lat="44.4516873" lon="8.1045232"><ele>686.0</ele><time>2026-04-26T09:10:19.475Z</time></trkpt><trkpt lat="44.4515568" lon="8.104427"><ele>686.0</ele><time>2026-04-26T09:10:20.477Z</time></trkpt><trkpt lat="44.4514218" lon="8.1043683"><ele>686.0</ele><time>2026-04-26T09:10:21.476Z</time></trkpt><trkpt lat="44.4512812" lon="8.1043668"><ele>684.6666666666666</ele><time>2026-04-26T09:10:22.477Z</time></trkpt><trkpt lat="44.4511367" lon="8.1044215"><ele>683.3333333333334</ele><time>2026-04-26T09:10:23.477Z</time></trkpt><trkpt lat="44.4509833" lon="8.1045275"><ele>682.0</ele><time>2026-04-26T09:10:24.476Z</time></trkpt><trkpt lat="44.4508153" lon="8.1046533"><ele>682.0</ele><time>2026-04-26T09:10:25.476Z</time></trkpt><trkpt lat="44.4506397" lon="8.1047818"><ele>682.0</ele><time>2026-04-26T09:10:26.475Z</time></trkpt><trkpt lat="44.4504525" lon="8.1049137"><ele>682.0</ele><time>2026-04-26T09:10:27.478Z</time></trkpt><trkpt lat="44.4502568" lon="8.10504"><ele>682.6666666666667</ele><time>2026-04-26T09:10:28.479Z</time></trkpt><trkpt lat="44.4500543" lon="8.1051563"><ele>683.3333333333334</ele><time>2026-04-26T09:10:29.477Z</time></trkpt><trkpt lat="44.4498462" lon="8.10526"><ele>684.0</ele><time>2026-04-26T09:10:30.477Z</time></trkpt><trkpt lat="44.4496357" lon="8.1053528"><ele>681.3333333333334</ele><time>2026-04-26T09:10:31.477Z</time></trkpt><trkpt lat="44.4494267" lon="8.1054335"><ele>678.6666666666667</ele><time>2026-04-26T09:10:32.475Z</time></trkpt><trkpt lat="44.449215" lon="8.1055008"><ele>676.0</ele><time>2026-04-26T09:10:33.476Z</time></trkpt><trkpt lat="44.4489992" lon="8.1055557"><ele>672.0</ele><time>2026-04-26T09:10:34.475Z</time></trkpt><trkpt lat="44.4487818" lon="8.1056072"><ele>668.0</ele><time>2026-04-26T09:10:35.478Z</time></trkpt><trkpt lat="44.4485685" lon="8.1056578"><ele>664.0</ele><time>2026-04-26T09:10:36.477Z</time></trkpt><trkpt lat="44.448365" lon="8.1057068"><ele>669.6666666666667</ele><time>2026-04-26T09:10:37.476Z</time></trkpt><trkpt lat="44.4481653" lon="8.1057497"><ele>675.3333333333334</ele><time>2026-04-26T09:10:38.481Z</time></trkpt><trkpt lat="44.447971" lon="8.1057942"><ele>681.0</ele><time>2026-04-26T09:10:39.476Z</time></trkpt><trkpt lat="44.447783" lon="8.1058357"><ele>681.0</ele><time>2026-04-26T09:10:40.477Z</time></trkpt><trkpt lat="44.4476063" lon="8.105875"><ele>681.0</ele><time>2026-04-26T09:10:41.477Z</time></trkpt><trkpt lat="44.447442" lon="8.1059112"><ele>681.0</ele><time>2026-04-26T09:10:42.476Z</time></trkpt><trkpt lat="44.4472903" lon="8.1059475"><ele>681.0</ele><time>2026-04-26T09:10:43.477Z</time></trkpt><trkpt lat="44.4471483" lon="8.1059947"><ele>681.0</ele><time>2026-04-26T09:10:44.476Z</time></trkpt><trkpt lat="44.4470048" lon="8.1060783"><ele>681.0</ele><time>2026-04-26T09:10:45.476Z</time></trkpt><trkpt lat="44.4468527" lon="8.106205"><ele>682.0</ele><time>2026-04-26T09:10:46.479Z</time></trkpt><trkpt lat="44.446705" lon="8.106338"><ele>683.0</ele><time>2026-04-26T09:10:47.477Z</time></trkpt><trkpt lat="44.4465653" lon="8.1064637"><ele>684.0</ele><time>2026-04-26T09:10:48.477Z</time></trkpt><trkpt lat="44.4464335" lon="8.1065875"><ele>684.0</ele><time>2026-04-26T09:10:49.477Z</time></trkpt><trkpt lat="44.4463103" lon="8.106733"><ele>684.0</ele><time>2026-04-26T09:10:50.475Z</time></trkpt><trkpt lat="44.4462015" lon="8.1069138"><ele>684.0</ele><time>2026-04-26T09:10:51.474Z</time></trkpt><trkpt lat="44.4461003" lon="8.1071173"><ele>678.6666666666666</ele><time>2026-04-26T09:10:52.475Z</time></trkpt><trkpt lat="44.4459977" lon="8.1073302"><ele>673.3333333333333</ele><time>2026-04-26T09:10:53.476Z</time></trkpt><trkpt lat="44.4458977" lon="8.10754"><ele>668.0</ele><time>2026-04-26T09:10:54.475Z</time></trkpt><trkpt lat="44.4458033" lon="8.1077375"><ele>668.0</ele><time>2026-04-26T09:10:55.475Z</time></trkpt><trkpt lat="44.445715" lon="8.1079223"><ele>668.0</ele><time>2026-04-26T09:10:56.474Z</time></trkpt><trkpt lat="44.4456342" lon="8.1081008"><ele>668.0</ele><time>2026-04-26T09:10:57.473Z</time></trkpt><trkpt lat="44.4455765" lon="8.1082845"><ele>670.0</ele><time>2026-04-26T09:10:58.473Z</time></trkpt><trkpt lat="44.445553" lon="8.1084723"><ele>672.0</ele><time>2026-04-26T09:10:59.474Z</time></trkpt><trkpt lat="44.4455537" lon="8.1086545"><ele>674.0</ele><time>2026-04-26T09:11:00.476Z</time></trkpt><trkpt lat="44.4455632" lon="8.1088198"><ele>676.0</ele><time>2026-04-26T09:11:01.477Z</time></trkpt><trkpt lat="44.4455723" lon="8.1089633"><ele>675.8333333333334</ele><time>2026-04-26T09:11:02.477Z</time></trkpt><trkpt lat="44.4455725" lon="8.1090868"><ele>675.6666666666667</ele><time>2026-04-26T09:11:03.476Z</time></trkpt><trkpt lat="44.4455633" lon="8.109177"><ele>675.5</ele><time>2026-04-26T09:11:04.477Z</time></trkpt><trkpt lat="44.4455493" lon="8.1092685"><ele>675.3333333333334</ele><time>2026-04-26T09:11:07.476Z</time></trkpt><trkpt lat="44.4455663" lon="8.1094"><ele>675.1666666666666</ele><time>2026-04-26T09:11:14.477Z</time></trkpt><trkpt lat="44.4455703" lon="8.109504"><ele>675.0</ele><time>2026-04-26T09:11:15.478Z</time></trkpt><trkpt lat="44.445545" lon="8.1096038"><ele>675.0</ele><time>2026-04-26T09:11:16.479Z</time></trkpt><trkpt lat="44.445486" lon="8.1097098"><ele>675.0</ele><time>2026-04-26T09:11:17.478Z</time></trkpt><trkpt lat="44.4454035" lon="8.1098325"><ele>675.0</ele><time>2026-04-26T09:11:18.476Z</time></trkpt><trkpt lat="44.4453207" lon="8.109966"><ele>675.0</ele><time>2026-04-26T09:11:19.478Z</time></trkpt><trkpt lat="44.445257" lon="8.1100892"><ele>673.0</ele><time>2026-04-26T09:11:20.474Z</time></trkpt><trkpt lat="44.4452128" lon="8.110195"><ele>671.0</ele><time>2026-04-26T09:11:21.473Z</time></trkpt><trkpt lat="44.4451797" lon="8.1102785"><ele>669.0</ele><time>2026-04-26T09:11:22.474Z</time></trkpt><trkpt lat="44.445141" lon="8.110351"><ele>667.0</ele><time>2026-04-26T09:11:24.476Z</time></trkpt><trkpt lat="44.4450713" lon="8.1104003"><ele>665.0</ele><time>2026-04-26T09:12:29.476Z</time></trkpt><trkpt lat="44.4449543" lon="8.1104497"><ele>663.0</ele><time>2026-04-26T09:12:31.475Z</time></trkpt><trkpt lat="44.4448792" lon="8.1104872"><ele>663.0</ele><time>2026-04-26T09:12:32.475Z</time></trkpt><trkpt lat="44.4447993" lon="8.1105457"><ele>663.0</ele><time>2026-04-26T09:12:33.473Z</time></trkpt><trkpt lat="44.4447165" lon="8.110621"><ele>663.0</ele><time>2026-04-26T09:12:34.474Z</time></trkpt><trkpt lat="44.444637" lon="8.1107117"><ele>663.0</ele><time>2026-04-26T09:12:35.472Z</time></trkpt><trkpt lat="44.4445643" lon="8.1108242"><ele>663.0</ele><time>2026-04-26T09:12:36.474Z</time></trkpt><trkpt lat="44.4445047" lon="8.1109523"><ele>665.0</ele><time>2026-04-26T09:12:37.473Z</time></trkpt><trkpt lat="44.4444458" lon="8.1110983"><ele>667.0</ele><time>2026-04-26T09:12:38.478Z</time></trkpt><trkpt lat="44.4443842" lon="8.111241"><ele>669.0</ele><time>2026-04-26T09:12:39.474Z</time></trkpt><trkpt lat="44.4443205" lon="8.1113562"><ele>671.0</ele><time>2026-04-26T09:12:40.476Z</time></trkpt><trkpt lat="44.4442508" lon="8.1114482"><ele>673.0</ele><time>2026-04-26T09:12:41.475Z</time></trkpt><trkpt lat="44.444169" lon="8.1115318"><ele>674.5</ele><time>2026-04-26T09:12:42.475Z</time></trkpt><trkpt lat="44.444074" lon="8.1116135"><ele>676.0</ele><time>2026-04-26T09:12:43.474Z</time></trkpt><trkpt lat="44.4439695" lon="8.1116912"><ele>677.5</ele><time>2026-04-26T09:12:44.475Z</time></trkpt><trkpt lat="44.443862" lon="8.1117722"><ele>679.0</ele><time>2026-04-26T09:12:45.476Z</time></trkpt><trkpt lat="44.4437542" lon="8.1118593"><ele>680.25</ele><time>2026-04-26T09:12:46.475Z</time></trkpt><trkpt lat="44.443645" lon="8.1119488"><ele>681.5</ele><time>2026-04-26T09:12:47.475Z</time></trkpt><trkpt lat="44.4435342" lon="8.1120343"><ele>682.75</ele><time>2026-04-26T09:12:48.475Z</time></trkpt><trkpt lat="44.4434245" lon="8.1121248"><ele>684.0</ele><time>2026-04-26T09:12:49.477Z</time></trkpt><trkpt lat="44.4433138" lon="8.1122065"><ele>684.0</ele><time>2026-04-26T09:12:50.475Z</time></trkpt><trkpt lat="44.4432098" lon="8.1122887"><ele>684.0</ele><time>2026-04-26T09:12:51.477Z</time></trkpt><trkpt lat="44.4431153" lon="8.1123703"><ele>684.0</ele><time>2026-04-26T09:12:52.475Z</time></trkpt><trkpt lat="44.4430172" lon="8.1124585"><ele>684.0</ele><time>2026-04-26T09:12:53.474Z</time></trkpt><trkpt lat="44.4429222" lon="8.112557"><ele>686.4000000000001</ele><time>2026-04-26T09:12:54.475Z</time></trkpt><trkpt lat="44.4428288" lon="8.1126457"><ele>688.8</ele><time>2026-04-26T09:12:55.476Z</time></trkpt><trkpt lat="44.4427442" lon="8.1127282"><ele>691.2</ele><time>2026-04-26T09:12:56.475Z</time></trkpt><trkpt lat="44.4426688" lon="8.1128183"><ele>693.5999999999999</ele><time>2026-04-26T09:12:57.475Z</time></trkpt><trkpt lat="44.4425853" lon="8.1129178"><ele>696.0</ele><time>2026-04-26T09:12:58.474Z</time></trkpt><trkpt lat="44.442504" lon="8.1130207"><ele>696.0</ele><time>2026-04-26T09:12:59.473Z</time></trkpt><trkpt lat="44.442414" lon="8.1131342"><ele>696.0</ele><time>2026-04-26T09:13:00.475Z</time></trkpt><trkpt lat="44.4423225" lon="8.1132505"><ele>696.0</ele><time>2026-04-26T09:13:01.472Z</time></trkpt><trkpt lat="44.4422395" lon="8.1133578"><ele>696.0</ele><time>2026-04-26T09:13:02.478Z</time></trkpt><trkpt lat="44.4421678" lon="8.11346"><ele>699.5999999999999</ele><time>2026-04-26T09:13:03.474Z</time></trkpt><trkpt lat="44.4421167" lon="8.11356"><ele>703.2</ele><time>2026-04-26T09:13:04.475Z</time></trkpt><trkpt lat="44.4420627" lon="8.113685"><ele>706.8</ele><time>2026-04-26T09:13:05.475Z</time></trkpt><trkpt lat="44.4420272" lon="8.1138202"><ele>710.4000000000001</ele><time>2026-04-26T09:13:06.474Z</time></trkpt><trkpt lat="44.4419852" lon="8.1139758"><ele>714.0</ele><time>2026-04-26T09:13:07.475Z</time></trkpt><trkpt lat="44.4419377" lon="8.1141262"><ele>714.8000000000001</ele><time>2026-04-26T09:13:08.475Z</time></trkpt><trkpt lat="44.4418845" lon="8.114276"><ele>715.6</ele><time>2026-04-26T09:13:09.475Z</time></trkpt><trkpt lat="44.44183" lon="8.114428"><ele>716.4</ele><time>2026-04-26T09:13:10.474Z</time></trkpt><trkpt lat="44.4417968" lon="8.1145653"><ele>717.2</ele><time>2026-04-26T09:13:11.473Z</time></trkpt><trkpt lat="44.4417655" lon="8.1146882"><ele>718.0</ele><time>2026-04-26T09:13:12.473Z</time></trkpt><trkpt lat="44.4417302" lon="8.1148038"><ele>716.5999999999999</ele><time>2026-04-26T09:13:13.462Z</time></trkpt><trkpt lat="44.4416925" lon="8.1149083"><ele>715.1999999999999</ele><time>2026-04-26T09:13:14.473Z</time></trkpt><trkpt lat="44.441649" lon="8.1150125"><ele>713.8</ele><time>2026-04-26T09:13:15.473Z</time></trkpt><trkpt lat="44.441585" lon="8.1151077"><ele>712.4</ele><time>2026-04-26T09:13:16.475Z</time></trkpt><trkpt lat="44.4415065" lon="8.115197"><ele>711.0</ele><time>2026-04-26T09:13:17.473Z</time></trkpt><trkpt lat="44.441419" lon="8.1152832"><ele>711.0</ele><time>2026-04-26T09:13:18.474Z</time></trkpt><trkpt lat="44.4413357" lon="8.1153613"><ele>711.0</ele><time>2026-04-26T09:13:19.473Z</time></trkpt><trkpt lat="44.4412468" lon="8.1154415"><ele>711.0</ele><time>2026-04-26T09:13:20.476Z</time></trkpt><trkpt lat="44.4411747" lon="8.1155185"><ele>711.0</ele><time>2026-04-26T09:13:21.474Z</time></trkpt><trkpt lat="44.4411085" lon="8.1155693"><ele>711.0</ele><time>2026-04-26T09:13:22.479Z</time></trkpt><trkpt lat="44.4409963" lon="8.1156675"><ele>711.8</ele><time>2026-04-26T09:13:24.473Z</time></trkpt><trkpt lat="44.4409517" lon="8.1157633"><ele>712.5999999999999</ele><time>2026-04-26T09:13:25.473Z</time></trkpt><trkpt lat="44.4409105" lon="8.1158855"><ele>713.4</ele><time>2026-04-26T09:13:26.473Z</time></trkpt><trkpt lat="44.4408648" lon="8.116033"><ele>714.2</ele><time>2026-04-26T09:13:27.474Z</time></trkpt><trkpt lat="44.4408137" lon="8.1161817"><ele>715.0</ele><time>2026-04-26T09:13:28.473Z</time></trkpt><trkpt lat="44.4407595" lon="8.1163218"><ele>715.0</ele><time>2026-04-26T09:13:29.474Z</time></trkpt><trkpt lat="44.440698" lon="8.116464"><ele>715.0</ele><time>2026-04-26T09:13:30.473Z</time></trkpt><trkpt lat="44.4406227" lon="8.1166028"><ele>715.0</ele><time>2026-04-26T09:13:31.474Z</time></trkpt><trkpt lat="44.4405408" lon="8.1167445"><ele>715.0</ele><time>2026-04-26T09:13:32.474Z</time></trkpt><trkpt lat="44.4404562" lon="8.11689"><ele>712.8</ele><time>2026-04-26T09:13:33.473Z</time></trkpt><trkpt lat="44.44038" lon="8.1170207"><ele>710.6</ele><time>2026-04-26T09:13:34.474Z</time></trkpt><trkpt lat="44.4403082" lon="8.1171392"><ele>708.4000000000001</ele><time>2026-04-26T09:13:35.476Z</time></trkpt><trkpt lat="44.4402408" lon="8.117239"><ele>706.2</ele><time>2026-04-26T09:13:36.474Z</time></trkpt><trkpt lat="44.4401807" lon="8.117322"><ele>704.0</ele><time>2026-04-26T09:13:37.475Z</time></trkpt><trkpt lat="44.4401213" lon="8.1174065"><ele>704.0</ele><time>2026-04-26T09:13:38.475Z</time></trkpt><trkpt lat="44.4400505" lon="8.1175012"><ele>704.0</ele><time>2026-04-26T09:13:39.475Z</time></trkpt><trkpt lat="44.4399703" lon="8.1176092"><ele>704.0</ele><time>2026-04-26T09:13:40.476Z</time></trkpt><trkpt lat="44.4398845" lon="8.117714"><ele>704.0</ele><time>2026-04-26T09:13:41.475Z</time></trkpt><trkpt lat="44.4397972" lon="8.1178278"><ele>704.0</ele><time>2026-04-26T09:13:42.475Z</time></trkpt><trkpt lat="44.4397078" lon="8.1179388"><ele>704.75</ele><time>2026-04-26T09:13:43.477Z</time></trkpt><trkpt lat="44.4396177" lon="8.1180452"><ele>705.5</ele><time>2026-04-26T09:13:44.474Z</time></trkpt><trkpt lat="44.4395288" lon="8.118144"><ele>706.25</ele><time>2026-04-26T09:13:45.477Z</time></trkpt><trkpt lat="44.4394435" lon="8.1182433"><ele>707.0</ele><time>2026-04-26T09:13:46.476Z</time></trkpt><trkpt lat="44.4393572" lon="8.1183482"><ele>707.0</ele><time>2026-04-26T09:13:47.474Z</time></trkpt><trkpt lat="44.4392828" lon="8.118457"><ele>707.0</ele><time>2026-04-26T09:13:48.473Z</time></trkpt><trkpt lat="44.4392102" lon="8.1185678"><ele>707.0</ele><time>2026-04-26T09:13:49.472Z</time></trkpt><trkpt lat="44.4391408" lon="8.1186715"><ele>707.0</ele><time>2026-04-26T09:13:50.474Z</time></trkpt><trkpt lat="44.4390655" lon="8.1187705"><ele>707.0</ele><time>2026-04-26T09:13:51.476Z</time></trkpt><trkpt lat="44.4389877" lon="8.1188567"><ele>707.0</ele><time>2026-04-26T09:13:52.476Z</time></trkpt><trkpt lat="44.4389038" lon="8.1189568"><ele>707.0</ele><time>2026-04-26T09:13:53.474Z</time></trkpt><trkpt lat="44.4388148" lon="8.1190613"><ele>707.0</ele><time>2026-04-26T09:13:54.477Z</time></trkpt><trkpt lat="44.4387283" lon="8.1191797"><ele>707.0</ele><time>2026-04-26T09:13:55.474Z</time></trkpt><trkpt lat="44.4386495" lon="8.1193073"><ele>708.75</ele><time>2026-04-26T09:13:56.474Z</time></trkpt><trkpt lat="44.4385775" lon="8.119437"><ele>710.5</ele><time>2026-04-26T09:13:57.475Z</time></trkpt><trkpt lat="44.4385092" lon="8.119557"><ele>712.25</ele><time>2026-04-26T09:13:58.476Z</time></trkpt><trkpt lat="44.4384338" lon="8.1196723"><ele>714.0</ele><time>2026-04-26T09:13:59.478Z</time></trkpt><trkpt lat="44.4383522" lon="8.1197795"><ele>714.0</ele><time>2026-04-26T09:14:00.476Z</time></trkpt><trkpt lat="44.4382625" lon="8.1198852"><ele>714.0</ele><time>2026-04-26T09:14:01.476Z</time></trkpt><trkpt lat="44.4381695" lon="8.1199885"><ele>714.0</ele><time>2026-04-26T09:14:02.475Z</time></trkpt><trkpt lat="44.4380807" lon="8.1200878"><ele>714.0</ele><time>2026-04-26T09:14:03.475Z</time></trkpt><trkpt lat="44.4380032" lon="8.1201877"><ele>710.25</ele><time>2026-04-26T09:14:04.474Z</time></trkpt><trkpt lat="44.4379262" lon="8.120298"><ele>706.5</ele><time>2026-04-26T09:14:05.476Z</time></trkpt><trkpt lat="44.4378477" lon="8.120417"><ele>702.75</ele><time>2026-04-26T09:14:06.473Z</time></trkpt><trkpt lat="44.437768" lon="8.1205387"><ele>699.0</ele><time>2026-04-26T09:14:07.475Z</time></trkpt><trkpt lat="44.4376855" lon="8.120655"><ele>701.25</ele><time>2026-04-26T09:14:08.474Z</time></trkpt><trkpt lat="44.4375937" lon="8.1207593"><ele>703.5</ele><time>2026-04-26T09:14:09.473Z</time></trkpt><trkpt lat="44.4374993" lon="8.1208647"><ele>705.75</ele><time>2026-04-26T09:14:10.474Z</time></trkpt><trkpt lat="44.4374087" lon="8.1209757"><ele>708.0</ele><time>2026-04-26T09:14:11.474Z</time></trkpt><trkpt lat="44.4373213" lon="8.1210917"><ele>708.0</ele><time>2026-04-26T09:14:12.472Z</time></trkpt><trkpt lat="44.4372395" lon="8.1211997"><ele>708.0</ele><time>2026-04-26T09:14:13.472Z</time></trkpt><trkpt lat="44.4371595" lon="8.1212933"><ele>708.0</ele><time>2026-04-26T09:14:14.472Z</time></trkpt><trkpt lat="44.4370817" lon="8.1213743"><ele>708.0</ele><time>2026-04-26T09:14:15.472Z</time></trkpt><trkpt lat="44.4370067" lon="8.121463"><ele>708.0</ele><time>2026-04-26T09:14:16.476Z</time></trkpt><trkpt lat="44.4369363" lon="8.1215423"><ele>708.1666666666666</ele><time>2026-04-26T09:14:17.476Z</time></trkpt><trkpt lat="44.436873" lon="8.121609"><ele>708.3333333333334</ele><time>2026-04-26T09:14:18.475Z</time></trkpt><trkpt lat="44.4368192" lon="8.1216683"><ele>708.5</ele><time>2026-04-26T09:14:19.478Z</time></trkpt><trkpt lat="44.436767" lon="8.1217897"><ele>708.6666666666667</ele><time>2026-04-26T09:14:21.475Z</time></trkpt><trkpt lat="44.4367252" lon="8.121938"><ele>708.8333333333334</ele><time>2026-04-26T09:14:23.476Z</time></trkpt><trkpt lat="44.4366823" lon="8.122016"><ele>709.0</ele><time>2026-04-26T09:14:24.476Z</time></trkpt><trkpt lat="44.43662" lon="8.1220882"><ele>709.0</ele><time>2026-04-26T09:14:25.476Z</time></trkpt><trkpt lat="44.4365405" lon="8.1221558"><ele>709.0</ele><time>2026-04-26T09:14:26.477Z</time></trkpt><trkpt lat="44.436446" lon="8.1222167"><ele>709.0</ele><time>2026-04-26T09:14:27.476Z</time></trkpt><trkpt lat="44.436352" lon="8.1222737"><ele>709.0</ele><time>2026-04-26T09:14:28.475Z</time></trkpt><trkpt lat="44.4362677" lon="8.1223298"><ele>709.0</ele><time>2026-04-26T09:14:29.478Z</time></trkpt><trkpt lat="44.4361983" lon="8.1224162"><ele>709.3333333333334</ele><time>2026-04-26T09:14:30.474Z</time></trkpt><trkpt lat="44.4361507" lon="8.1225038"><ele>709.6666666666667</ele><time>2026-04-26T09:14:31.477Z</time></trkpt><trkpt lat="44.4360988" lon="8.1225918"><ele>710.0</ele><time>2026-04-26T09:14:32.474Z</time></trkpt><trkpt lat="44.4360417" lon="8.1226718"><ele>710.3333333333334</ele><time>2026-04-26T09:14:33.475Z</time></trkpt><trkpt lat="44.4359795" lon="8.1227443"><ele>710.6666666666666</ele><time>2026-04-26T09:14:34.472Z</time></trkpt><trkpt lat="44.4359117" lon="8.1228095"><ele>711.0</ele><time>2026-04-26T09:14:35.475Z</time></trkpt><trkpt lat="44.435835" lon="8.1228708"><ele>711.0</ele><time>2026-04-26T09:14:36.471Z</time></trkpt><trkpt lat="44.435752" lon="8.1229303"><ele>711.0</ele><time>2026-04-26T09:14:37.472Z</time></trkpt><trkpt lat="44.4356792" lon="8.1229945"><ele>711.0</ele><time>2026-04-26T09:14:38.473Z</time></trkpt><trkpt lat="44.4356083" lon="8.1230898"><ele>711.0</ele><time>2026-04-26T09:14:39.473Z</time></trkpt><trkpt lat="44.4355412" lon="8.1231993"><ele>711.0</ele><time>2026-04-26T09:14:40.474Z</time></trkpt><trkpt lat="44.4354812" lon="8.12331"><ele>713.5</ele><time>2026-04-26T09:14:41.475Z</time></trkpt><trkpt lat="44.4354247" lon="8.123407"><ele>716.0</ele><time>2026-04-26T09:14:42.476Z</time></trkpt><trkpt lat="44.4353732" lon="8.1234885"><ele>718.5</ele><time>2026-04-26T09:14:43.475Z</time></trkpt><trkpt lat="44.4353248" lon="8.1235745"><ele>721.0</ele><time>2026-04-26T09:14:44.473Z</time></trkpt><trkpt lat="44.4352922" lon="8.1236692"><ele>723.5</ele><time>2026-04-26T09:14:45.475Z</time></trkpt><trkpt lat="44.435252" lon="8.1237782"><ele>726.0</ele><time>2026-04-26T09:14:46.474Z</time></trkpt><trkpt lat="44.435225" lon="8.1238865"><ele>726.0</ele><time>2026-04-26T09:14:47.473Z</time></trkpt><trkpt lat="44.4351972" lon="8.1239837"><ele>726.0</ele><time>2026-04-26T09:14:48.473Z</time></trkpt><trkpt lat="44.4351588" lon="8.1240785"><ele>726.0</ele><time>2026-04-26T09:14:49.474Z</time></trkpt><trkpt lat="44.4351115" lon="8.1241668"><ele>726.0</ele><time>2026-04-26T09:14:50.474Z</time></trkpt><trkpt lat="44.4350457" lon="8.124233"><ele>726.0</ele><time>2026-04-26T09:14:51.473Z</time></trkpt><trkpt lat="44.4349715" lon="8.1243087"><ele>726.0</ele><time>2026-04-26T09:14:52.473Z</time></trkpt><trkpt lat="44.4348923" lon="8.124391"><ele>728.4</ele><time>2026-04-26T09:14:53.473Z</time></trkpt><trkpt lat="44.434816" lon="8.1244828"><ele>730.8</ele><time>2026-04-26T09:14:54.473Z</time></trkpt><trkpt lat="44.4347412" lon="8.124569"><ele>733.1999999999999</ele><time>2026-04-26T09:14:55.472Z</time></trkpt><trkpt lat="44.4346678" lon="8.1246462"><ele>735.5999999999999</ele><time>2026-04-26T09:14:56.473Z</time></trkpt><trkpt lat="44.4345877" lon="8.1247128"><ele>738.0</ele><time>2026-04-26T09:14:57.472Z</time></trkpt><trkpt lat="44.4345098" lon="8.124788"><ele>738.0</ele><time>2026-04-26T09:14:58.473Z</time></trkpt><trkpt lat="44.4344407" lon="8.1248525"><ele>738.0</ele><time>2026-04-26T09:14:59.474Z</time></trkpt><trkpt lat="44.434384" lon="8.124903"><ele>738.0</ele><time>2026-04-26T09:15:00.472Z</time></trkpt><trkpt lat="44.4342997" lon="8.1249872"><ele>738.0</ele><time>2026-04-26T09:15:02.472Z</time></trkpt><trkpt lat="44.4342773" lon="8.1250915"><ele>738.0</ele><time>2026-04-26T09:15:04.474Z</time></trkpt><trkpt lat="44.434293" lon="8.1251848"><ele>738.0</ele><time>2026-04-26T09:15:07.475Z</time></trkpt><trkpt lat="44.4342762" lon="8.1252773"><ele>734.6666666666666</ele><time>2026-04-26T09:15:13.474Z</time></trkpt><trkpt lat="44.4342467" lon="8.1253805"><ele>731.3333333333334</ele><time>2026-04-26T09:15:55.475Z</time></trkpt><trkpt lat="44.4342727" lon="8.1254677"><ele>728.0</ele><time>2026-04-26T09:16:11.474Z</time></trkpt><trkpt lat="44.4343013" lon="8.1255632"><ele>724.6666666666667</ele><time>2026-04-26T09:16:13.473Z</time></trkpt><trkpt lat="44.4343272" lon="8.1256885"><ele>721.3333333333334</ele><time>2026-04-26T09:16:15.47Z</time></trkpt><trkpt lat="44.4343548" lon="8.1258548"><ele>718.0</ele><time>2026-04-26T09:16:17.47Z</time></trkpt><trkpt lat="44.4343723" lon="8.1259415"><ele>717.1666666666667</ele><time>2026-04-26T09:16:18.471Z</time></trkpt><trkpt lat="44.4343967" lon="8.1260303"><ele>716.3333333333334</ele><time>2026-04-26T09:16:19.472Z</time></trkpt><trkpt lat="44.4344228" lon="8.126121"><ele>715.5</ele><time>2026-04-26T09:16:20.472Z</time></trkpt><trkpt lat="44.4344427" lon="8.1262482"><ele>714.6666666666666</ele><time>2026-04-26T09:16:22.472Z</time></trkpt><trkpt lat="44.4344782" lon="8.1263597"><ele>713.8333333333333</ele><time>2026-04-26T09:16:54.475Z</time></trkpt><trkpt lat="44.4345078" lon="8.126505"><ele>713.0</ele><time>2026-04-26T09:16:56.476Z</time></trkpt><trkpt lat="44.4345237" lon="8.1266092"><ele>713.0</ele><time>2026-04-26T09:16:57.473Z</time></trkpt><trkpt lat="44.4345447" lon="8.1267147"><ele>713.0</ele><time>2026-04-26T09:16:58.476Z</time></trkpt><trkpt lat="44.4345722" lon="8.1268392"><ele>713.0</ele><time>2026-04-26T09:16:59.474Z</time></trkpt><trkpt lat="44.4346035" lon="8.126967"><ele>713.0</ele><time>2026-04-26T09:17:00.473Z</time></trkpt><trkpt lat="44.4346348" lon="8.1270875"><ele>713.0</ele><time>2026-04-26T09:17:01.474Z</time></trkpt><trkpt lat="44.4346583" lon="8.127201"><ele>713.0</ele><time>2026-04-26T09:17:02.474Z</time></trkpt><trkpt lat="44.4346887" lon="8.127315"><ele>708.4</ele><time>2026-04-26T09:17:03.472Z</time></trkpt><trkpt lat="44.434722" lon="8.1274305"><ele>703.8</ele><time>2026-04-26T09:17:04.471Z</time></trkpt><trkpt lat="44.4347647" lon="8.1275518"><ele>699.2</ele><time>2026-04-26T09:17:05.472Z</time></trkpt><trkpt lat="44.434812" lon="8.1276813"><ele>694.6</ele><time>2026-04-26T09:17:06.472Z</time></trkpt><trkpt lat="44.4348508" lon="8.127816"><ele>690.0</ele><time>2026-04-26T09:17:07.473Z</time></trkpt><trkpt lat="44.4348828" lon="8.1279637"><ele>690.0</ele><time>2026-04-26T09:17:08.475Z</time></trkpt><trkpt lat="44.4349112" lon="8.1281113"><ele>690.0</ele><time>2026-04-26T09:17:09.474Z</time></trkpt><trkpt lat="44.4349312" lon="8.1282323"><ele>690.0</ele><time>2026-04-26T09:17:10.474Z</time></trkpt><trkpt lat="44.4349465" lon="8.1283312"><ele>690.0</ele><time>2026-04-26T09:17:11.473Z</time></trkpt><trkpt lat="44.4349535" lon="8.1284897"><ele>690.0</ele><time>2026-04-26T09:17:13.475Z</time></trkpt><trkpt lat="44.4348727" lon="8.1285985"><ele>691.1666666666666</ele><time>2026-04-26T09:17:15.475Z</time></trkpt><trkpt lat="44.4348132" lon="8.1286302"><ele>692.3333333333334</ele><time>2026-04-26T09:17:16.475Z</time></trkpt><trkpt lat="44.4347415" lon="8.128644"><ele>693.5</ele><time>2026-04-26T09:17:17.475Z</time></trkpt><trkpt lat="44.4346522" lon="8.1286483"><ele>694.6666666666667</ele><time>2026-04-26T09:17:18.473Z</time></trkpt><trkpt lat="44.43456" lon="8.1286568"><ele>695.8333333333334</ele><time>2026-04-26T09:17:19.474Z</time></trkpt><trkpt lat="44.434461" lon="8.1286757"><ele>697.0</ele><time>2026-04-26T09:17:20.475Z</time></trkpt><trkpt lat="44.4343615" lon="8.1286985"><ele>700.8</ele><time>2026-04-26T09:17:21.474Z</time></trkpt><trkpt lat="44.4342598" lon="8.1287272"><ele>704.6</ele><time>2026-04-26T09:17:22.477Z</time></trkpt><trkpt lat="44.4341658" lon="8.128751"><ele>708.4</ele><time>2026-04-26T09:17:23.476Z</time></trkpt><trkpt lat="44.4340698" lon="8.1287915"><ele>712.1999999999999</ele><time>2026-04-26T09:17:24.474Z</time></trkpt><trkpt lat="44.433969" lon="8.1288378"><ele>716.0</ele><time>2026-04-26T09:17:25.475Z</time></trkpt><trkpt lat="44.4338698" lon="8.1288767"><ele>714.5</ele><time>2026-04-26T09:17:26.474Z</time></trkpt><trkpt lat="44.4337737" lon="8.1289088"><ele>713.0</ele><time>2026-04-26T09:17:27.473Z</time></trkpt><trkpt lat="44.43369" lon="8.128981"><ele>711.5</ele><time>2026-04-26T09:17:28.471Z</time></trkpt><trkpt lat="44.4336142" lon="8.1290548"><ele>710.0</ele><time>2026-04-26T09:17:29.471Z</time></trkpt><trkpt lat="44.4335433" lon="8.1291018"><ele>708.5</ele><time>2026-04-26T09:17:30.47Z</time></trkpt><trkpt lat="44.4334695" lon="8.1291375"><ele>707.0</ele><time>2026-04-26T09:17:31.473Z</time></trkpt><trkpt lat="44.4333808" lon="8.1291552"><ele>707.0</ele><time>2026-04-26T09:17:32.474Z</time></trkpt><trkpt lat="44.4332723" lon="8.1291703"><ele>707.0</ele><time>2026-04-26T09:17:33.473Z</time></trkpt><trkpt lat="44.433161" lon="8.129187"><ele>707.0</ele><time>2026-04-26T09:17:34.472Z</time></trkpt><trkpt lat="44.433059" lon="8.1292168"><ele>707.0</ele><time>2026-04-26T09:17:35.472Z</time></trkpt><trkpt lat="44.4329637" lon="8.1292557"><ele>707.0</ele><time>2026-04-26T09:17:36.473Z</time></trkpt><trkpt lat="44.4328767" lon="8.1293007"><ele>707.6</ele><time>2026-04-26T09:17:37.474Z</time></trkpt><trkpt lat="44.4327888" lon="8.1293438"><ele>708.2</ele><time>2026-04-26T09:17:38.473Z</time></trkpt><trkpt lat="44.4326983" lon="8.1294007"><ele>708.8</ele><time>2026-04-26T09:17:39.471Z</time></trkpt><trkpt lat="44.4326043" lon="8.129449"><ele>709.4</ele><time>2026-04-26T09:17:40.472Z</time></trkpt><trkpt lat="44.4325102" lon="8.1294815"><ele>710.0</ele><time>2026-04-26T09:17:41.472Z</time></trkpt><trkpt lat="44.432404" lon="8.129501"><ele>710.0</ele><time>2026-04-26T09:17:42.472Z</time></trkpt><trkpt lat="44.4322925" lon="8.1295202"><ele>710.0</ele><time>2026-04-26T09:17:43.472Z</time></trkpt><trkpt lat="44.4321847" lon="8.1295312"><ele>710.0</ele><time>2026-04-26T09:17:44.472Z</time></trkpt><trkpt lat="44.4320822" lon="8.1295437"><ele>710.0</ele><time>2026-04-26T09:17:45.472Z</time></trkpt><trkpt lat="44.4319885" lon="8.1295735"><ele>710.0</ele><time>2026-04-26T09:17:46.472Z</time></trkpt><trkpt lat="44.4319028" lon="8.1296205"><ele>711.6</ele><time>2026-04-26T09:17:47.473Z</time></trkpt><trkpt lat="44.431829" lon="8.1297018"><ele>713.2</ele><time>2026-04-26T09:17:48.472Z</time></trkpt><trkpt lat="44.4317697" lon="8.129798"><ele>714.8</ele><time>2026-04-26T09:17:49.473Z</time></trkpt><trkpt lat="44.43172" lon="8.1299182"><ele>716.4</ele><time>2026-04-26T09:17:50.473Z</time></trkpt><trkpt lat="44.4316878" lon="8.1300463"><ele>718.0</ele><time>2026-04-26T09:17:51.472Z</time></trkpt><trkpt lat="44.4316648" lon="8.130194"><ele>712.6666666666667</ele><time>2026-04-26T09:17:52.472Z</time></trkpt><trkpt lat="44.4316557" lon="8.130343"><ele>707.3333333333334</ele><time>2026-04-26T09:17:53.471Z</time></trkpt><trkpt lat="44.4316383" lon="8.1304845"><ele>702.0</ele><time>2026-04-26T09:17:54.471Z</time></trkpt><trkpt lat="44.4316242" lon="8.1306088"><ele>696.6666666666666</ele><time>2026-04-26T09:17:55.471Z</time></trkpt><trkpt lat="44.431607" lon="8.1307088"><ele>691.3333333333333</ele><time>2026-04-26T09:17:56.471Z</time></trkpt><trkpt lat="44.4315962" lon="8.1307988"><ele>686.0</ele><time>2026-04-26T09:17:57.472Z</time></trkpt><trkpt lat="44.4315715" lon="8.1308935"><ele>686.7142857142857</ele><time>2026-04-26T09:17:58.472Z</time></trkpt><trkpt lat="44.4315407" lon="8.1309842"><ele>687.4285714285714</ele><time>2026-04-26T09:17:59.471Z</time></trkpt><trkpt lat="44.4315008" lon="8.1310802"><ele>688.1428571428571</ele><time>2026-04-26T09:18:00.47Z</time></trkpt><trkpt lat="44.431459" lon="8.1311672"><ele>688.8571428571429</ele><time>2026-04-26T09:18:01.472Z</time></trkpt><trkpt lat="44.431415" lon="8.1312352"><ele>689.5714285714286</ele><time>2026-04-26T09:18:02.474Z</time></trkpt><trkpt lat="44.4313623" lon="8.1313017"><ele>690.2857142857142</ele><time>2026-04-26T09:18:03.473Z</time></trkpt><trkpt lat="44.4312975" lon="8.1313793"><ele>691.0</ele><time>2026-04-26T09:18:04.473Z</time></trkpt><trkpt lat="44.4312308" lon="8.1314363"><ele>691.0</ele><time>2026-04-26T09:18:05.474Z</time></trkpt><trkpt lat="44.431162" lon="8.1314768"><ele>691.0</ele><time>2026-04-26T09:18:06.474Z</time></trkpt><trkpt lat="44.4310925" lon="8.1315153"><ele>691.0</ele><time>2026-04-26T09:18:07.475Z</time></trkpt><trkpt lat="44.4310222" lon="8.1315383"><ele>691.0</ele><time>2026-04-26T09:18:08.475Z</time></trkpt><trkpt lat="44.4309523" lon="8.1315428"><ele>691.0</ele><time>2026-04-26T09:18:09.473Z</time></trkpt><trkpt lat="44.4308842" lon="8.1315363"><ele>691.0</ele><time>2026-04-26T09:18:10.475Z</time></trkpt><trkpt lat="44.4307715" lon="8.1315427"><ele>691.0</ele><time>2026-04-26T09:18:12.472Z</time></trkpt><trkpt lat="44.430694" lon="8.1315443"><ele>691.0</ele><time>2026-04-26T09:18:14.474Z</time></trkpt><trkpt lat="44.4306315" lon="8.1316363"><ele>691.0</ele><time>2026-04-26T09:18:34.474Z</time></trkpt><trkpt lat="44.4305482" lon="8.131643"><ele>691.0</ele><time>2026-04-26T09:18:36.473Z</time></trkpt><trkpt lat="44.430472" lon="8.1316547"><ele>691.0</ele><time>2026-04-26T09:18:37.475Z</time></trkpt><trkpt lat="44.430381" lon="8.131673"><ele>691.0</ele><time>2026-04-26T09:18:38.476Z</time></trkpt><trkpt lat="44.4302832" lon="8.1317152"><ele>686.75</ele><time>2026-04-26T09:18:39.473Z</time></trkpt><trkpt lat="44.4301788" lon="8.1317793"><ele>682.5</ele><time>2026-04-26T09:18:40.474Z</time></trkpt><trkpt lat="44.4300797" lon="8.1318485"><ele>678.25</ele><time>2026-04-26T09:18:41.471Z</time></trkpt><trkpt lat="44.429987" lon="8.131932"><ele>674.0</ele><time>2026-04-26T09:18:42.47Z</time></trkpt><trkpt lat="44.4299017" lon="8.1320403"><ele>674.0</ele><time>2026-04-26T09:18:43.471Z</time></trkpt><trkpt lat="44.4298212" lon="8.1321798"><ele>674.0</ele><time>2026-04-26T09:18:44.472Z</time></trkpt><trkpt lat="44.4297365" lon="8.132325"><ele>674.0</ele><time>2026-04-26T09:18:45.472Z</time></trkpt><trkpt lat="44.4296465" lon="8.1324525"><ele>674.0</ele><time>2026-04-26T09:18:46.477Z</time></trkpt><trkpt lat="44.4295527" lon="8.1325548"><ele>674.4000000000001</ele><time>2026-04-26T09:18:47.475Z</time></trkpt><trkpt lat="44.4294593" lon="8.1326352"><ele>674.8</ele><time>2026-04-26T09:18:48.473Z</time></trkpt><trkpt lat="44.429376" lon="8.1327128"><ele>675.2</ele><time>2026-04-26T09:18:49.475Z</time></trkpt><trkpt lat="44.4293112" lon="8.1328032"><ele>675.5999999999999</ele><time>2026-04-26T09:18:50.474Z</time></trkpt><trkpt lat="44.4292615" lon="8.1329188"><ele>676.0</ele><time>2026-04-26T09:18:51.475Z</time></trkpt><trkpt lat="44.4292245" lon="8.1330682"><ele>672.0</ele><time>2026-04-26T09:18:52.475Z</time></trkpt><trkpt lat="44.429185" lon="8.1332363"><ele>668.0</ele><time>2026-04-26T09:18:53.475Z</time></trkpt><trkpt lat="44.4291393" lon="8.1334015"><ele>664.0</ele><time>2026-04-26T09:18:54.477Z</time></trkpt><trkpt lat="44.4290887" lon="8.1335583"><ele>660.0</ele><time>2026-04-26T09:18:55.475Z</time></trkpt><trkpt lat="44.4290265" lon="8.1337077"><ele>660.0</ele><time>2026-04-26T09:18:56.476Z</time></trkpt><trkpt lat="44.4289607" lon="8.133822"><ele>660.0</ele><time>2026-04-26T09:18:57.473Z</time></trkpt><trkpt lat="44.4288978" lon="8.1339057"><ele>660.0</ele><time>2026-04-26T09:18:58.476Z</time></trkpt><trkpt lat="44.4288353" lon="8.1339643"><ele>660.0</ele><time>2026-04-26T09:18:59.477Z</time></trkpt><trkpt lat="44.4287732" lon="8.1340018"><ele>660.0</ele><time>2026-04-26T09:19:00.474Z</time></trkpt><trkpt lat="44.428705" lon="8.1340185"><ele>660.0</ele><time>2026-04-26T09:19:01.475Z</time></trkpt><trkpt lat="44.4286227" lon="8.1340177"><ele>664.8</ele><time>2026-04-26T09:19:02.476Z</time></trkpt><trkpt lat="44.4285273" lon="8.1340013"><ele>669.6</ele><time>2026-04-26T09:19:03.476Z</time></trkpt><trkpt lat="44.4284187" lon="8.1339722"><ele>674.4000000000001</ele><time>2026-04-26T09:19:04.477Z</time></trkpt><trkpt lat="44.428306" lon="8.1339473"><ele>679.2</ele><time>2026-04-26T09:19:05.475Z</time></trkpt><trkpt lat="44.4281967" lon="8.1339363"><ele>684.0</ele><time>2026-04-26T09:19:06.473Z</time></trkpt><trkpt lat="44.4280882" lon="8.1339393"><ele>684.0</ele><time>2026-04-26T09:19:07.474Z</time></trkpt><trkpt lat="44.4279843" lon="8.1339428"><ele>684.0</ele><time>2026-04-26T09:19:08.472Z</time></trkpt><trkpt lat="44.4278852" lon="8.1339275"><ele>684.0</ele><time>2026-04-26T09:19:09.473Z</time></trkpt><trkpt lat="44.427789" lon="8.1338845"><ele>684.0</ele><time>2026-04-26T09:19:10.474Z</time></trkpt><trkpt lat="44.4276993" lon="8.1338288"><ele>684.0</ele><time>2026-04-26T09:19:11.473Z</time></trkpt><trkpt lat="44.4276203" lon="8.1337795"><ele>683.5</ele><time>2026-04-26T09:19:12.474Z</time></trkpt><trkpt lat="44.4275532" lon="8.1337463"><ele>683.0</ele><time>2026-04-26T09:19:13.473Z</time></trkpt><trkpt lat="44.4274335" lon="8.1337535"><ele>682.5</ele><time>2026-04-26T09:19:15.474Z</time></trkpt><trkpt lat="44.4273692" lon="8.1337903"><ele>682.0</ele><time>2026-04-26T09:19:16.476Z</time></trkpt><trkpt lat="44.4272903" lon="8.1338407"><ele>681.5</ele><time>2026-04-26T09:19:17.473Z</time></trkpt><trkpt lat="44.4271973" lon="8.1338907"><ele>681.0</ele><time>2026-04-26T09:19:18.475Z</time></trkpt><trkpt lat="44.4271008" lon="8.1339367"><ele>681.0</ele><time>2026-04-26T09:19:19.473Z</time></trkpt><trkpt lat="44.4270062" lon="8.133983"><ele>681.0</ele><time>2026-04-26T09:19:20.475Z</time></trkpt><trkpt lat="44.426913" lon="8.134022"><ele>681.0</ele><time>2026-04-26T09:19:21.473Z</time></trkpt><trkpt lat="44.426827" lon="8.1340545"><ele>681.0</ele><time>2026-04-26T09:19:22.474Z</time></trkpt><trkpt lat="44.426753" lon="8.134096"><ele>681.0</ele><time>2026-04-26T09:19:23.474Z</time></trkpt><trkpt lat="44.4266945" lon="8.1341725"><ele>681.0</ele><time>2026-04-26T09:19:24.474Z</time></trkpt><trkpt lat="44.426651" lon="8.1342873"><ele>676.0</ele><time>2026-04-26T09:19:25.475Z</time></trkpt><trkpt lat="44.4266152" lon="8.134407"><ele>671.0</ele><time>2026-04-26T09:19:26.475Z</time></trkpt><trkpt lat="44.4265712" lon="8.1345043"><ele>666.0</ele><time>2026-04-26T09:19:27.476Z</time></trkpt><trkpt lat="44.4265172" lon="8.1345673"><ele>661.0</ele><time>2026-04-26T09:19:28.474Z</time></trkpt><trkpt lat="44.4264507" lon="8.1345932"><ele>656.0</ele><time>2026-04-26T09:19:29.474Z</time></trkpt><trkpt lat="44.4263647" lon="8.1345932"><ele>651.0</ele><time>2026-04-26T09:19:30.473Z</time></trkpt><trkpt lat="44.4262702" lon="8.134581"><ele>649.6666666666666</ele><time>2026-04-26T09:19:31.474Z</time></trkpt><trkpt lat="44.4261837" lon="8.1345533"><ele>648.3333333333334</ele><time>2026-04-26T09:19:32.475Z</time></trkpt><trkpt lat="44.4261048" lon="8.1345142"><ele>647.0</ele><time>2026-04-26T09:19:33.473Z</time></trkpt><trkpt lat="44.4260303" lon="8.134482"><ele>645.6666666666667</ele><time>2026-04-26T09:19:34.476Z</time></trkpt><trkpt lat="44.4259645" lon="8.1344765"><ele>644.3333333333334</ele><time>2026-04-26T09:19:35.476Z</time></trkpt><trkpt lat="44.4258693" lon="8.134536"><ele>643.0</ele><time>2026-04-26T09:19:37.476Z</time></trkpt><trkpt lat="44.4258545" lon="8.1346677"><ele>643.0</ele><time>2026-04-26T09:19:39.475Z</time></trkpt><trkpt lat="44.4259277" lon="8.1348017"><ele>643.0</ele><time>2026-04-26T09:19:41.477Z</time></trkpt><trkpt lat="44.4259797" lon="8.134863"><ele>643.0</ele><time>2026-04-26T09:19:42.476Z</time></trkpt><trkpt lat="44.4260205" lon="8.1349382"><ele>643.0</ele><time>2026-04-26T09:19:43.478Z</time></trkpt><trkpt lat="44.4260335" lon="8.135029"><ele>643.0</ele><time>2026-04-26T09:19:44.478Z</time></trkpt><trkpt lat="44.4260115" lon="8.1351277"><ele>643.0</ele><time>2026-04-26T09:19:45.476Z</time></trkpt><trkpt lat="44.42596" lon="8.1352292"><ele>639.4</ele><time>2026-04-26T09:19:46.475Z</time></trkpt><trkpt lat="44.425891" lon="8.135333"><ele>635.8</ele><time>2026-04-26T09:19:47.475Z</time></trkpt><trkpt lat="44.4258197" lon="8.1354327"><ele>632.2</ele><time>2026-04-26T09:19:48.474Z</time></trkpt><trkpt lat="44.4257508" lon="8.1355292"><ele>628.6</ele><time>2026-04-26T09:19:49.475Z</time></trkpt><trkpt lat="44.4256902" lon="8.1356275"><ele>625.0</ele><time>2026-04-26T09:19:50.474Z</time></trkpt><trkpt lat="44.4256465" lon="8.1357302"><ele>623.5</ele><time>2026-04-26T09:19:51.474Z</time></trkpt><trkpt lat="44.4256237" lon="8.13584"><ele>622.0</ele><time>2026-04-26T09:19:52.476Z</time></trkpt><trkpt lat="44.4256215" lon="8.1359522"><ele>620.5</ele><time>2026-04-26T09:19:53.478Z</time></trkpt><trkpt lat="44.4256408" lon="8.1360642"><ele>619.0</ele><time>2026-04-26T09:19:54.475Z</time></trkpt><trkpt lat="44.4256822" lon="8.1361747"><ele>617.5</ele><time>2026-04-26T09:19:55.478Z</time></trkpt><trkpt lat="44.4257428" lon="8.1362868"><ele>616.0</ele><time>2026-04-26T09:19:56.474Z</time></trkpt><trkpt lat="44.4258195" lon="8.1364023"><ele>616.0</ele><time>2026-04-26T09:19:57.475Z</time></trkpt><trkpt lat="44.4259095" lon="8.1365213"><ele>616.0</ele><time>2026-04-26T09:19:58.476Z</time></trkpt><trkpt lat="44.4260023" lon="8.1366398"><ele>616.0</ele><time>2026-04-26T09:19:59.479Z</time></trkpt><trkpt lat="44.4260925" lon="8.1367532"><ele>616.0</ele><time>2026-04-26T09:20:00.477Z</time></trkpt><trkpt lat="44.426177" lon="8.1368582"><ele>616.2</ele><time>2026-04-26T09:20:01.478Z</time></trkpt><trkpt lat="44.426255" lon="8.1369593"><ele>616.4000000000001</ele><time>2026-04-26T09:20:02.478Z</time></trkpt><trkpt lat="44.4263232" lon="8.1370613"><ele>616.6</ele><time>2026-04-26T09:20:03.478Z</time></trkpt><trkpt lat="44.4263817" lon="8.1371665"><ele>616.8000000000001</ele><time>2026-04-26T09:20:04.478Z</time></trkpt><trkpt lat="44.426436" lon="8.1372733"><ele>617.0</ele><time>2026-04-26T09:20:05.479Z</time></trkpt><trkpt lat="44.4264863" lon="8.1373735"><ele>614.0</ele><time>2026-04-26T09:20:06.478Z</time></trkpt><trkpt lat="44.4265397" lon="8.137466"><ele>611.0</ele><time>2026-04-26T09:20:07.476Z</time></trkpt><trkpt lat="44.4266028" lon="8.1375538"><ele>608.0</ele><time>2026-04-26T09:20:08.476Z</time></trkpt><trkpt lat="44.426671" lon="8.1376235"><ele>605.0</ele><time>2026-04-26T09:20:09.476Z</time></trkpt><trkpt lat="44.4267345" lon="8.1376577"><ele>602.0</ele><time>2026-04-26T09:20:10.476Z</time></trkpt><trkpt lat="44.4268415" lon="8.137567"><ele>602.0</ele><time>2026-04-26T09:20:12.477Z</time></trkpt><trkpt lat="44.4268792" lon="8.1374487"><ele>602.0</ele><time>2026-04-26T09:20:13.476Z</time></trkpt><trkpt lat="44.4269135" lon="8.137322"><ele>602.0</ele><time>2026-04-26T09:20:14.477Z</time></trkpt><trkpt lat="44.4269452" lon="8.137216"><ele>602.0</ele><time>2026-04-26T09:20:15.475Z</time></trkpt><trkpt lat="44.4269783" lon="8.1371352"><ele>602.0</ele><time>2026-04-26T09:20:16.476Z</time></trkpt><trkpt lat="44.4270735" lon="8.1370907"><ele>602.0</ele><time>2026-04-26T09:20:18.476Z</time></trkpt><trkpt lat="44.4271208" lon="8.1372422"><ele>602.0</ele><time>2026-04-26T09:20:20.474Z</time></trkpt><trkpt lat="44.4271178" lon="8.1373677"><ele>602.0</ele><time>2026-04-26T09:20:21.475Z</time></trkpt><trkpt lat="44.4271167" lon="8.1375023"><ele>602.0</ele><time>2026-04-26T09:20:22.476Z</time></trkpt><trkpt lat="44.427128" lon="8.1376262"><ele>602.0</ele><time>2026-04-26T09:20:23.479Z</time></trkpt><trkpt lat="44.4271548" lon="8.1377348"><ele>602.0</ele><time>2026-04-26T09:20:24.478Z</time></trkpt><trkpt lat="44.4272012" lon="8.1378352"><ele>602.0</ele><time>2026-04-26T09:20:25.479Z</time></trkpt><trkpt lat="44.4272752" lon="8.1379343"><ele>598.0</ele><time>2026-04-26T09:20:26.479Z</time></trkpt><trkpt lat="44.4273628" lon="8.1380285"><ele>594.0</ele><time>2026-04-26T09:20:27.477Z</time></trkpt><trkpt lat="44.427441" lon="8.1381228"><ele>590.0</ele><time>2026-04-26T09:20:28.477Z</time></trkpt><trkpt lat="44.4275025" lon="8.1382282"><ele>586.0</ele><time>2026-04-26T09:20:29.476Z</time></trkpt><trkpt lat="44.4275508" lon="8.1383355"><ele>582.0</ele><time>2026-04-26T09:20:30.477Z</time></trkpt><trkpt lat="44.427591" lon="8.13845"><ele>582.0</ele><time>2026-04-26T09:20:31.477Z</time></trkpt><trkpt lat="44.4276227" lon="8.138582"><ele>582.0</ele><time>2026-04-26T09:20:32.479Z</time></trkpt><trkpt lat="44.4276468" lon="8.1387195"><ele>582.0</ele><time>2026-04-26T09:20:33.477Z</time></trkpt><trkpt lat="44.4276623" lon="8.1388507"><ele>582.0</ele><time>2026-04-26T09:20:34.478Z</time></trkpt><trkpt lat="44.4276565" lon="8.138973"><ele>582.0</ele><time>2026-04-26T09:20:35.477Z</time></trkpt><trkpt lat="44.4276208" lon="8.1390798"><ele>580.6666666666666</ele><time>2026-04-26T09:20:36.475Z</time></trkpt><trkpt lat="44.4275673" lon="8.1391583"><ele>579.3333333333334</ele><time>2026-04-26T09:20:37.476Z</time></trkpt><trkpt lat="44.4275033" lon="8.1391977"><ele>578.0</ele><time>2026-04-26T09:20:38.477Z</time></trkpt><trkpt lat="44.4274178" lon="8.1392792"><ele>576.6666666666667</ele><time>2026-04-26T09:20:40.477Z</time></trkpt><trkpt lat="44.4274503" lon="8.1393962"><ele>575.3333333333334</ele><time>2026-04-26T09:20:42.477Z</time></trkpt><trkpt lat="44.427516" lon="8.1394632"><ele>574.0</ele><time>2026-04-26T09:20:43.474Z</time></trkpt><trkpt lat="44.4276043" lon="8.1395263"><ele>574.0</ele><time>2026-04-26T09:20:44.473Z</time></trkpt><trkpt lat="44.4277177" lon="8.1395995"><ele>574.0</ele><time>2026-04-26T09:20:45.473Z</time></trkpt><trkpt lat="44.4278315" lon="8.1396675"><ele>574.0</ele><time>2026-04-26T09:20:46.477Z</time></trkpt><trkpt lat="44.4279425" lon="8.139727"><ele>574.0</ele><time>2026-04-26T09:20:47.475Z</time></trkpt><trkpt lat="44.4280462" lon="8.1397822"><ele>571.1666666666667</ele><time>2026-04-26T09:20:48.477Z</time></trkpt><trkpt lat="44.4281347" lon="8.1398402"><ele>568.3333333333334</ele><time>2026-04-26T09:20:49.478Z</time></trkpt><trkpt lat="44.428206" lon="8.139895"><ele>565.5</ele><time>2026-04-26T09:20:50.478Z</time></trkpt><trkpt lat="44.4282722" lon="8.1399197"><ele>562.6666666666666</ele><time>2026-04-26T09:20:51.477Z</time></trkpt><trkpt lat="44.4283358" lon="8.1398983"><ele>559.8333333333333</ele><time>2026-04-26T09:20:52.477Z</time></trkpt><trkpt lat="44.42839" lon="8.1398352"><ele>557.0</ele><time>2026-04-26T09:20:53.481Z</time></trkpt><trkpt lat="44.4284417" lon="8.1397573"><ele>557.0</ele><time>2026-04-26T09:20:54.479Z</time></trkpt><trkpt lat="44.428496" lon="8.1396942"><ele>557.0</ele><time>2026-04-26T09:20:55.477Z</time></trkpt><trkpt lat="44.4285597" lon="8.139665"><ele>557.0</ele><time>2026-04-26T09:20:56.476Z</time></trkpt><trkpt lat="44.4286338" lon="8.1396865"><ele>557.0</ele><time>2026-04-26T09:20:57.476Z</time></trkpt><trkpt lat="44.4287235" lon="8.1397553"><ele>557.0</ele><time>2026-04-26T09:20:58.478Z</time></trkpt><trkpt lat="44.4288242" lon="8.1398447"><ele>557.0</ele><time>2026-04-26T09:20:59.478Z</time></trkpt><trkpt lat="44.4289192" lon="8.1399347"><ele>553.2</ele><time>2026-04-26T09:21:00.479Z</time></trkpt><trkpt lat="44.4289993" lon="8.140035"><ele>549.4000000000001</ele><time>2026-04-26T09:21:01.48Z</time></trkpt><trkpt lat="44.4290638" lon="8.1401368"><ele>545.5999999999999</ele><time>2026-04-26T09:21:02.477Z</time></trkpt><trkpt lat="44.4291335" lon="8.1402213"><ele>541.8</ele><time>2026-04-26T09:21:03.476Z</time></trkpt><trkpt lat="44.4292242" lon="8.1402807"><ele>538.0</ele><time>2026-04-26T09:21:04.476Z</time></trkpt><trkpt lat="44.4293307" lon="8.140313"><ele>538.0</ele><time>2026-04-26T09:21:05.477Z</time></trkpt><trkpt lat="44.4294335" lon="8.1403275"><ele>538.0</ele><time>2026-04-26T09:21:06.477Z</time></trkpt><trkpt lat="44.4295202" lon="8.1403183"><ele>538.0</ele><time>2026-04-26T09:21:07.477Z</time></trkpt><trkpt lat="44.4295888" lon="8.1402753"><ele>538.0</ele><time>2026-04-26T09:21:08.475Z</time></trkpt><trkpt lat="44.4296427" lon="8.1402073"><ele>538.0</ele><time>2026-04-26T09:21:09.472Z</time></trkpt><trkpt lat="44.42975" lon="8.1401543"><ele>536.5</ele><time>2026-04-26T09:21:11.475Z</time></trkpt><trkpt lat="44.4298103" lon="8.140203"><ele>535.0</ele><time>2026-04-26T09:21:12.476Z</time></trkpt><trkpt lat="44.4298738" lon="8.1402575"><ele>533.5</ele><time>2026-04-26T09:21:13.476Z</time></trkpt><trkpt lat="44.4299488" lon="8.1402872"><ele>532.0</ele><time>2026-04-26T09:21:14.477Z</time></trkpt><trkpt lat="44.4300387" lon="8.1403123"><ele>530.5</ele><time>2026-04-26T09:21:15.479Z</time></trkpt><trkpt lat="44.430137" lon="8.1403653"><ele>529.0</ele><time>2026-04-26T09:21:16.474Z</time></trkpt><trkpt lat="44.43023" lon="8.140436"><ele>529.0</ele><time>2026-04-26T09:21:17.477Z</time></trkpt><trkpt lat="44.4303218" lon="8.1404995"><ele>529.0</ele><time>2026-04-26T09:21:18.475Z</time></trkpt><trkpt lat="44.4304155" lon="8.1405527"><ele>529.0</ele><time>2026-04-26T09:21:19.477Z</time></trkpt><trkpt lat="44.4305122" lon="8.140604"><ele>529.0</ele><time>2026-04-26T09:21:20.477Z</time></trkpt><trkpt lat="44.4306077" lon="8.1406583"><ele>529.0</ele><time>2026-04-26T09:21:21.476Z</time></trkpt><trkpt lat="44.4307" lon="8.1407117"><ele>527.0</ele><time>2026-04-26T09:21:22.474Z</time></trkpt><trkpt lat="44.4307875" lon="8.1407718"><ele>525.0</ele><time>2026-04-26T09:21:23.474Z</time></trkpt><trkpt lat="44.4308732" lon="8.1408257"><ele>523.0</ele><time>2026-04-26T09:21:24.474Z</time></trkpt><trkpt lat="44.430971" lon="8.1408763"><ele>521.0</ele><time>2026-04-26T09:21:25.474Z</time></trkpt><trkpt lat="44.4310697" lon="8.1409242"><ele>519.0</ele><time>2026-04-26T09:21:26.475Z</time></trkpt><trkpt lat="44.4311648" lon="8.1409585"><ele>519.0</ele><time>2026-04-26T09:21:27.473Z</time></trkpt><trkpt lat="44.4312522" lon="8.1409918"><ele>519.0</ele><time>2026-04-26T09:21:28.475Z</time></trkpt><trkpt lat="44.4313363" lon="8.1410267"><ele>519.0</ele><time>2026-04-26T09:21:29.474Z</time></trkpt><trkpt lat="44.4314203" lon="8.1410598"><ele>519.0</ele><time>2026-04-26T09:21:30.476Z</time></trkpt><trkpt lat="44.4315082" lon="8.141086"><ele>519.0</ele><time>2026-04-26T09:21:31.474Z</time></trkpt><trkpt lat="44.4315965" lon="8.1411052"><ele>519.0</ele><time>2026-04-26T09:21:32.473Z</time></trkpt><trkpt lat="44.4316742" lon="8.1411252"><ele>517.6666666666666</ele><time>2026-04-26T09:21:33.473Z</time></trkpt><trkpt lat="44.4317392" lon="8.1411348"><ele>516.3333333333334</ele><time>2026-04-26T09:21:34.473Z</time></trkpt><trkpt lat="44.4318117" lon="8.1410537"><ele>515.0</ele><time>2026-04-26T09:21:36.474Z</time></trkpt><trkpt lat="44.4317533" lon="8.140925"><ele>513.6666666666667</ele><time>2026-04-26T09:21:38.477Z</time></trkpt><trkpt lat="44.4317252" lon="8.140826"><ele>512.3333333333334</ele><time>2026-04-26T09:21:40.477Z</time></trkpt><trkpt lat="44.4318062" lon="8.1408207"><ele>511.0</ele><time>2026-04-26T09:21:42.475Z</time></trkpt><trkpt lat="44.4318632" lon="8.1408673"><ele>511.0</ele><time>2026-04-26T09:21:43.476Z</time></trkpt><trkpt lat="44.4319385" lon="8.1409198"><ele>511.0</ele><time>2026-04-26T09:21:44.476Z</time></trkpt><trkpt lat="44.4320333" lon="8.1409603"><ele>511.0</ele><time>2026-04-26T09:21:45.476Z</time></trkpt><trkpt lat="44.4321407" lon="8.1410135"><ele>511.0</ele><time>2026-04-26T09:21:46.474Z</time></trkpt><trkpt lat="44.4322478" lon="8.1410808"><ele>511.0</ele><time>2026-04-26T09:21:47.475Z</time></trkpt><trkpt lat="44.4323507" lon="8.1411723"><ele>507.25</ele><time>2026-04-26T09:21:48.476Z</time></trkpt><trkpt lat="44.432448" lon="8.141269"><ele>503.5</ele><time>2026-04-26T09:21:49.477Z</time></trkpt><trkpt lat="44.4325397" lon="8.1413712"><ele>499.75</ele><time>2026-04-26T09:21:50.476Z</time></trkpt><trkpt lat="44.4326227" lon="8.1414873"><ele>496.0</ele><time>2026-04-26T09:21:51.475Z</time></trkpt><trkpt lat="44.4326858" lon="8.1416102"><ele>496.0</ele><time>2026-04-26T09:21:52.475Z</time></trkpt><trkpt lat="44.4327257" lon="8.1417243"><ele>496.0</ele><time>2026-04-26T09:21:53.476Z</time></trkpt><trkpt lat="44.4327425" lon="8.1418297"><ele>496.0</ele><time>2026-04-26T09:21:54.476Z</time></trkpt><trkpt lat="44.4327227" lon="8.1419305"><ele>496.0</ele><time>2026-04-26T09:21:55.476Z</time></trkpt><trkpt lat="44.4326625" lon="8.1420357"><ele>496.0</ele><time>2026-04-26T09:21:56.478Z</time></trkpt><trkpt lat="44.4325748" lon="8.1421427"><ele>496.0</ele><time>2026-04-26T09:21:57.475Z</time></trkpt><trkpt lat="44.4324855" lon="8.1422458"><ele>496.0</ele><time>2026-04-26T09:21:58.474Z</time></trkpt><trkpt lat="44.432391" lon="8.1423315"><ele>496.0</ele><time>2026-04-26T09:21:59.475Z</time></trkpt><trkpt lat="44.4322813" lon="8.1423868"><ele>496.0</ele><time>2026-04-26T09:22:00.475Z</time></trkpt><trkpt lat="44.4321552" lon="8.14242"><ele>491.0</ele><time>2026-04-26T09:22:01.477Z</time></trkpt><trkpt lat="44.4320167" lon="8.1424493"><ele>486.0</ele><time>2026-04-26T09:22:02.477Z</time></trkpt><trkpt lat="44.4318647" lon="8.142474"><ele>481.0</ele><time>2026-04-26T09:22:03.475Z</time></trkpt><trkpt lat="44.431705" lon="8.1424957"><ele>481.0</ele><time>2026-04-26T09:22:04.475Z</time></trkpt><trkpt lat="44.43155" lon="8.1425263"><ele>481.0</ele><time>2026-04-26T09:22:05.475Z</time></trkpt><trkpt lat="44.4314052" lon="8.1425683"><ele>481.0</ele><time>2026-04-26T09:22:06.474Z</time></trkpt><trkpt lat="44.4312692" lon="8.1426117"><ele>481.0</ele><time>2026-04-26T09:22:07.475Z</time></trkpt><trkpt lat="44.4311428" lon="8.1426592"><ele>480.8</ele><time>2026-04-26T09:22:08.476Z</time></trkpt><trkpt lat="44.4310287" lon="8.142714"><ele>480.6</ele><time>2026-04-26T09:22:09.475Z</time></trkpt><trkpt lat="44.4309278" lon="8.1427755"><ele>480.4</ele><time>2026-04-26T09:22:10.476Z</time></trkpt><trkpt lat="44.4308342" lon="8.1428328"><ele>480.2</ele><time>2026-04-26T09:22:11.479Z</time></trkpt><trkpt lat="44.4307417" lon="8.1428723"><ele>480.0</ele><time>2026-04-26T09:22:12.479Z</time></trkpt><trkpt lat="44.4306457" lon="8.1428827"><ele>480.0</ele><time>2026-04-26T09:22:13.481Z</time></trkpt><trkpt lat="44.4305355" lon="8.1428622"><ele>480.0</ele><time>2026-04-26T09:22:14.483Z</time></trkpt><trkpt lat="44.4304137" lon="8.1428368"><ele>480.0</ele><time>2026-04-26T09:22:15.477Z</time></trkpt><trkpt lat="44.4302998" lon="8.1428258"><ele>480.0</ele><time>2026-04-26T09:22:16.477Z</time></trkpt><trkpt lat="44.4302103" lon="8.1428302"><ele>480.0</ele><time>2026-04-26T09:22:17.478Z</time></trkpt><trkpt lat="44.4301447" lon="8.1428503"><ele>480.1666666666667</ele><time>2026-04-26T09:22:18.476Z</time></trkpt><trkpt lat="44.4300895" lon="8.1429047"><ele>480.33333333333337</ele><time>2026-04-26T09:22:19.476Z</time></trkpt><trkpt lat="44.4300335" lon="8.1429927"><ele>480.5</ele><time>2026-04-26T09:22:20.476Z</time></trkpt><trkpt lat="44.4299713" lon="8.1430673"><ele>480.6666666666667</ele><time>2026-04-26T09:22:21.475Z</time></trkpt><trkpt lat="44.429884" lon="8.143127"><ele>480.83333333333337</ele><time>2026-04-26T09:22:22.475Z</time></trkpt><trkpt lat="44.4297747" lon="8.1431747"><ele>481.0</ele><time>2026-04-26T09:22:23.473Z</time></trkpt><trkpt lat="44.4296485" lon="8.1432183"><ele>478.4</ele><time>2026-04-26T09:22:24.474Z</time></trkpt><trkpt lat="44.4295287" lon="8.1432598"><ele>475.8</ele><time>2026-04-26T09:22:25.478Z</time></trkpt><trkpt lat="44.4294182" lon="8.1433067"><ele>473.19999999999993</ele><time>2026-04-26T09:22:26.479Z</time></trkpt><trkpt lat="44.4293188" lon="8.1433653"><ele>470.59999999999997</ele><time>2026-04-26T09:22:27.476Z</time></trkpt><trkpt lat="44.4292325" lon="8.1434428"><ele>468.0</ele><time>2026-04-26T09:22:28.476Z</time></trkpt><trkpt lat="44.4291548" lon="8.1435503"><ele>468.0</ele><time>2026-04-26T09:22:29.478Z</time></trkpt><trkpt lat="44.4290847" lon="8.1436862"><ele>467.99999999999994</ele><time>2026-04-26T09:22:30.476Z</time></trkpt><trkpt lat="44.4290243" lon="8.1438158"><ele>467.99999999999994</ele><time>2026-04-26T09:22:31.477Z</time></trkpt><trkpt lat="44.4289718" lon="8.1439247"><ele>468.0</ele><time>2026-04-26T09:22:32.477Z</time></trkpt><trkpt lat="44.428928" lon="8.1440083"><ele>468.0</ele><time>2026-04-26T09:22:33.477Z</time></trkpt><trkpt lat="44.4288755" lon="8.1441218"><ele>468.8333333333333</ele><time>2026-04-26T09:22:35.476Z</time></trkpt><trkpt lat="44.428788" lon="8.1441577"><ele>469.66666666666663</ele><time>2026-04-26T09:22:38.477Z</time></trkpt><trkpt lat="44.428724" lon="8.1441482"><ele>470.5</ele><time>2026-04-26T09:22:40.476Z</time></trkpt><trkpt lat="44.4286312" lon="8.1441243"><ele>471.3333333333333</ele><time>2026-04-26T09:22:42.477Z</time></trkpt><trkpt lat="44.4285625" lon="8.1441052"><ele>472.16666666666663</ele><time>2026-04-26T09:22:43.478Z</time></trkpt><trkpt lat="44.4284777" lon="8.1440695"><ele>473.0</ele><time>2026-04-26T09:22:44.477Z</time></trkpt><trkpt lat="44.4283902" lon="8.1439997"><ele>473.0</ele><time>2026-04-26T09:22:45.476Z</time></trkpt><trkpt lat="44.428307" lon="8.1439168"><ele>472.99999999999994</ele><time>2026-04-26T09:22:46.476Z</time></trkpt><trkpt lat="44.4282368" lon="8.1438585"><ele>472.99999999999994</ele><time>2026-04-26T09:22:47.476Z</time></trkpt><trkpt lat="44.428124" lon="8.1438162"><ele>473.0</ele><time>2026-04-26T09:22:49.475Z</time></trkpt><trkpt lat="44.4280615" lon="8.1437825"><ele>473.0</ele><time>2026-04-26T09:22:50.477Z</time></trkpt><trkpt lat="44.427979" lon="8.1437292"><ele>470.75</ele><time>2026-04-26T09:22:51.474Z</time></trkpt><trkpt lat="44.4278783" lon="8.1436737"><ele>468.5</ele><time>2026-04-26T09:22:52.475Z</time></trkpt><trkpt lat="44.4277643" lon="8.1436188"><ele>466.25</ele><time>2026-04-26T09:22:53.475Z</time></trkpt><trkpt lat="44.4276543" lon="8.1435673"><ele>464.0</ele><time>2026-04-26T09:22:54.476Z</time></trkpt><trkpt lat="44.427555" lon="8.143508"><ele>463.99999999999994</ele><time>2026-04-26T09:22:55.476Z</time></trkpt><trkpt lat="44.42747" lon="8.1434363"><ele>464.0</ele><time>2026-04-26T09:22:56.476Z</time></trkpt><trkpt lat="44.4274023" lon="8.1433588"><ele>464.0</ele><time>2026-04-26T09:22:57.474Z</time></trkpt><trkpt lat="44.4273465" lon="8.1432995"><ele>464.0</ele><time>2026-04-26T09:22:58.475Z</time></trkpt><trkpt lat="44.4272742" lon="8.1432447"><ele>463.99999999999994</ele><time>2026-04-26T09:23:00.474Z</time></trkpt><trkpt lat="44.4271923" lon="8.143221"><ele>464.0</ele><time>2026-04-26T09:23:26.476Z</time></trkpt><trkpt lat="44.4271292" lon="8.1431865"><ele>464.79999999999995</ele><time>2026-04-26T09:23:27.476Z</time></trkpt><trkpt lat="44.4270475" lon="8.143145"><ele>465.59999999999997</ele><time>2026-04-26T09:23:28.477Z</time></trkpt><trkpt lat="44.4269545" lon="8.1430952"><ele>466.4</ele><time>2026-04-26T09:23:29.475Z</time></trkpt><trkpt lat="44.4268552" lon="8.1430312"><ele>467.2</ele><time>2026-04-26T09:23:30.476Z</time></trkpt><trkpt lat="44.4267467" lon="8.1429502"><ele>468.0</ele><time>2026-04-26T09:23:31.475Z</time></trkpt><trkpt lat="44.4266307" lon="8.1428548"><ele>468.0</ele><time>2026-04-26T09:23:32.475Z</time></trkpt><trkpt lat="44.4265078" lon="8.1427485"><ele>468.0</ele><time>2026-04-26T09:23:33.476Z</time></trkpt><trkpt lat="44.4263807" lon="8.1426412"><ele>468.0</ele><time>2026-04-26T09:23:34.478Z</time></trkpt><trkpt lat="44.4262438" lon="8.1425297"><ele>468.33333333333337</ele><time>2026-04-26T09:23:35.475Z</time></trkpt><trkpt lat="44.4261012" lon="8.1424108"><ele>468.6666666666667</ele><time>2026-04-26T09:23:36.475Z</time></trkpt><trkpt lat="44.4259587" lon="8.1422903"><ele>469.0</ele><time>2026-04-26T09:23:37.477Z</time></trkpt><trkpt lat="44.4258298" lon="8.1421878"><ele>469.25</ele><time>2026-04-26T09:23:38.474Z</time></trkpt><trkpt lat="44.425713" lon="8.1421043"><ele>469.5</ele><time>2026-04-26T09:23:39.476Z</time></trkpt><trkpt lat="44.425596" lon="8.1420412"><ele>469.75</ele><time>2026-04-26T09:23:40.476Z</time></trkpt><trkpt lat="44.4254773" lon="8.1420208"><ele>470.0</ele><time>2026-04-26T09:23:41.477Z</time></trkpt><trkpt lat="44.4253515" lon="8.1420558"><ele>476.3333333333333</ele><time>2026-04-26T09:23:42.475Z</time></trkpt><trkpt lat="44.4252095" lon="8.1421475"><ele>482.66666666666663</ele><time>2026-04-26T09:23:43.476Z</time></trkpt><trkpt lat="44.42506" lon="8.1422583"><ele>489.0</ele><time>2026-04-26T09:23:44.477Z</time></trkpt><trkpt lat="44.4249113" lon="8.1423685"><ele>487.5</ele><time>2026-04-26T09:23:45.477Z</time></trkpt><trkpt lat="44.4247817" lon="8.1424638"><ele>486.0</ele><time>2026-04-26T09:23:46.477Z</time></trkpt><trkpt lat="44.4246732" lon="8.1425432"><ele>484.5</ele><time>2026-04-26T09:23:47.477Z</time></trkpt><trkpt lat="44.4245818" lon="8.1426087"><ele>483.0</ele><time>2026-04-26T09:23:48.476Z</time></trkpt><trkpt lat="44.4245078" lon="8.1426617"><ele>485.59999999999997</ele><time>2026-04-26T09:23:49.478Z</time></trkpt><trkpt lat="44.4244188" lon="8.1427242"><ele>488.19999999999993</ele><time>2026-04-26T09:23:51.477Z</time></trkpt><trkpt lat="44.4243582" lon="8.1427938"><ele>490.8</ele><time>2026-04-26T09:23:56.475Z</time></trkpt><trkpt lat="44.4243508" lon="8.1429513"><ele>493.4</ele><time>2026-04-26T09:23:58.478Z</time></trkpt><trkpt lat="44.424332" lon="8.1430618"><ele>496.0</ele><time>2026-04-26T09:23:59.476Z</time></trkpt><trkpt lat="44.4243028" lon="8.1431735"><ele>494.83333333333337</ele><time>2026-04-26T09:24:00.476Z</time></trkpt><trkpt lat="44.424268" lon="8.1432772"><ele>493.6666666666667</ele><time>2026-04-26T09:24:01.474Z</time></trkpt><trkpt lat="44.4242228" lon="8.1433723"><ele>492.5</ele><time>2026-04-26T09:24:02.472Z</time></trkpt><trkpt lat="44.4241605" lon="8.1434697"><ele>491.33333333333337</ele><time>2026-04-26T09:24:03.475Z</time></trkpt><trkpt lat="44.424095" lon="8.1435652"><ele>490.1666666666667</ele><time>2026-04-26T09:24:04.475Z</time></trkpt><trkpt lat="44.424041" lon="8.143662"><ele>489.0</ele><time>2026-04-26T09:24:05.474Z</time></trkpt><trkpt lat="44.4240102" lon="8.143761"><ele>489.0</ele><time>2026-04-26T09:24:06.473Z</time></trkpt><trkpt lat="44.4240293" lon="8.1439282"><ele>489.0</ele><time>2026-04-26T09:24:08.472Z</time></trkpt><trkpt lat="44.4240802" lon="8.14401"><ele>489.0</ele><time>2026-04-26T09:24:09.475Z</time></trkpt><trkpt lat="44.4241632" lon="8.1440973"><ele>489.0</ele><time>2026-04-26T09:24:10.476Z</time></trkpt><trkpt lat="44.424253" lon="8.1441918"><ele>489.0</ele><time>2026-04-26T09:24:11.476Z</time></trkpt><trkpt lat="44.4243528" lon="8.1443"><ele>489.0</ele><time>2026-04-26T09:24:12.475Z</time></trkpt><trkpt lat="44.4244528" lon="8.1443997"><ele>489.0</ele><time>2026-04-26T09:24:13.477Z</time></trkpt><trkpt lat="44.4245407" lon="8.1444822"><ele>489.0</ele><time>2026-04-26T09:24:14.476Z</time></trkpt><trkpt lat="44.42462" lon="8.1445563"><ele>489.0</ele><time>2026-04-26T09:24:15.477Z</time></trkpt><trkpt lat="44.4246932" lon="8.1446325"><ele>489.0</ele><time>2026-04-26T09:24:16.48Z</time></trkpt><trkpt lat="44.4247623" lon="8.1447195"><ele>488.75</ele><time>2026-04-26T09:24:17.479Z</time></trkpt><trkpt lat="44.4248277" lon="8.1448217"><ele>488.5</ele><time>2026-04-26T09:24:18.478Z</time></trkpt><trkpt lat="44.4248923" lon="8.1449495"><ele>488.25</ele><time>2026-04-26T09:24:19.478Z</time></trkpt><trkpt lat="44.4249602" lon="8.1450997"><ele>488.0</ele><time>2026-04-26T09:24:20.478Z</time></trkpt><trkpt lat="44.4250347" lon="8.145267"><ele>488.0</ele><time>2026-04-26T09:24:21.477Z</time></trkpt><trkpt lat="44.4251083" lon="8.1454388"><ele>488.0</ele><time>2026-04-26T09:24:22.477Z</time></trkpt><trkpt lat="44.4251777" lon="8.1456055"><ele>488.0</ele><time>2026-04-26T09:24:23.478Z</time></trkpt><trkpt lat="44.4252435" lon="8.1457622"><ele>488.0</ele><time>2026-04-26T09:24:24.475Z</time></trkpt><trkpt lat="44.4253057" lon="8.145907"><ele>486.79999999999995</ele><time>2026-04-26T09:24:25.475Z</time></trkpt><trkpt lat="44.4253633" lon="8.1460382"><ele>485.59999999999997</ele><time>2026-04-26T09:24:26.476Z</time></trkpt><trkpt lat="44.425409" lon="8.146141"><ele>484.40000000000003</ele><time>2026-04-26T09:24:27.477Z</time></trkpt><trkpt lat="44.4254613" lon="8.146262"><ele>483.20000000000005</ele><time>2026-04-26T09:24:29.477Z</time></trkpt><trkpt lat="44.4255482" lon="8.146411"><ele>482.0</ele><time>2026-04-26T09:24:31.48Z</time></trkpt><trkpt lat="44.4256218" lon="8.1465243"><ele>484.5</ele><time>2026-04-26T09:24:32.475Z</time></trkpt><trkpt lat="44.42571" lon="8.1466592"><ele>487.0</ele><time>2026-04-26T09:24:33.474Z</time></trkpt><trkpt lat="44.4258063" lon="8.1468032"><ele>489.5</ele><time>2026-04-26T09:24:34.476Z</time></trkpt><trkpt lat="44.4259147" lon="8.1469565"><ele>492.0</ele><time>2026-04-26T09:24:35.476Z</time></trkpt><trkpt lat="44.426029" lon="8.1471145"><ele>492.0</ele><time>2026-04-26T09:24:36.475Z</time></trkpt><trkpt lat="44.4261525" lon="8.1472662"><ele>492.0</ele><time>2026-04-26T09:24:37.475Z</time></trkpt><trkpt lat="44.4262945" lon="8.147412"><ele>492.0</ele><time>2026-04-26T09:24:38.475Z</time></trkpt><trkpt lat="44.426437" lon="8.1475407"><ele>487.33333333333337</ele><time>2026-04-26T09:24:39.474Z</time></trkpt><trkpt lat="44.4265707" lon="8.147656"><ele>482.6666666666667</ele><time>2026-04-26T09:24:40.475Z</time></trkpt><trkpt lat="44.4266972" lon="8.14777"><ele>478.0</ele><time>2026-04-26T09:24:41.475Z</time></trkpt><trkpt lat="44.4268108" lon="8.147891"><ele>478.0</ele><time>2026-04-26T09:24:42.475Z</time></trkpt><trkpt lat="44.4269047" lon="8.1480227"><ele>478.0</ele><time>2026-04-26T09:24:43.475Z</time></trkpt><trkpt lat="44.4269725" lon="8.1481638"><ele>478.0</ele><time>2026-04-26T09:24:44.477Z</time></trkpt><trkpt lat="44.4270123" lon="8.1483073"><ele>478.0</ele><time>2026-04-26T09:24:45.477Z</time></trkpt><trkpt lat="44.4270215" lon="8.1484623"><ele>477.5</ele><time>2026-04-26T09:24:46.476Z</time></trkpt><trkpt lat="44.4269985" lon="8.1486202"><ele>477.0</ele><time>2026-04-26T09:24:47.477Z</time></trkpt><trkpt lat="44.426943" lon="8.148777"><ele>476.5</ele><time>2026-04-26T09:24:48.476Z</time></trkpt><trkpt lat="44.4268642" lon="8.1489383"><ele>476.0</ele><time>2026-04-26T09:24:49.473Z</time></trkpt><trkpt lat="44.4267875" lon="8.1490902"><ele>474.0</ele><time>2026-04-26T09:24:50.476Z</time></trkpt><trkpt lat="44.4267163" lon="8.1492297"><ele>472.0</ele><time>2026-04-26T09:24:51.474Z</time></trkpt><trkpt lat="44.4266485" lon="8.1493613"><ele>470.0</ele><time>2026-04-26T09:24:52.475Z</time></trkpt><trkpt lat="44.4265932" lon="8.1494907"><ele>468.0</ele><time>2026-04-26T09:24:53.475Z</time></trkpt><trkpt lat="44.4265607" lon="8.1496127"><ele>466.0</ele><time>2026-04-26T09:24:54.475Z</time></trkpt><trkpt lat="44.4265518" lon="8.1497318"><ele>466.00000000000006</ele><time>2026-04-26T09:24:55.477Z</time></trkpt><trkpt lat="44.4265572" lon="8.1498495"><ele>466.0</ele><time>2026-04-26T09:24:56.477Z</time></trkpt><trkpt lat="44.4265715" lon="8.1499485"><ele>466.0</ele><time>2026-04-26T09:24:57.476Z</time></trkpt><trkpt lat="44.4266422" lon="8.150062"><ele>466.0</ele><time>2026-04-26T09:24:59.475Z</time></trkpt><trkpt lat="44.4267058" lon="8.1500827"><ele>466.00000000000006</ele><time>2026-04-26T09:25:00.477Z</time></trkpt><trkpt lat="44.4267808" lon="8.1500963"><ele>466.0</ele><time>2026-04-26T09:25:01.476Z</time></trkpt><trkpt lat="44.4268567" lon="8.1501082"><ele>465.20000000000005</ele><time>2026-04-26T09:25:02.477Z</time></trkpt><trkpt lat="44.4269315" lon="8.150121"><ele>464.40000000000003</ele><time>2026-04-26T09:25:03.477Z</time></trkpt><trkpt lat="44.4270027" lon="8.1501302"><ele>463.6</ele><time>2026-04-26T09:25:04.475Z</time></trkpt><trkpt lat="44.4270718" lon="8.150139"><ele>462.8</ele><time>2026-04-26T09:25:05.476Z</time></trkpt><trkpt lat="44.4271777" lon="8.1502017"><ele>462.0</ele><time>2026-04-26T09:25:07.477Z</time></trkpt><trkpt lat="44.4271958" lon="8.1503743"><ele>462.0</ele><time>2026-04-26T09:25:09.477Z</time></trkpt><trkpt lat="44.4271653" lon="8.150472"><ele>462.00000000000006</ele><time>2026-04-26T09:25:10.479Z</time></trkpt><trkpt lat="44.4271128" lon="8.1505692"><ele>462.00000000000006</ele><time>2026-04-26T09:25:11.477Z</time></trkpt><trkpt lat="44.4270473" lon="8.1506712"><ele>462.0</ele><time>2026-04-26T09:25:12.477Z</time></trkpt><trkpt lat="44.4269758" lon="8.1507843"><ele>462.0</ele><time>2026-04-26T09:25:13.472Z</time></trkpt><trkpt lat="44.4268967" lon="8.150907"><ele>460.40000000000003</ele><time>2026-04-26T09:25:14.475Z</time></trkpt><trkpt lat="44.4268133" lon="8.1510307"><ele>458.80000000000007</ele><time>2026-04-26T09:25:15.474Z</time></trkpt><trkpt lat="44.4267327" lon="8.1511463"><ele>457.2</ele><time>2026-04-26T09:25:16.474Z</time></trkpt><trkpt lat="44.4266578" lon="8.1512497"><ele>455.6</ele><time>2026-04-26T09:25:17.477Z</time></trkpt><trkpt lat="44.4265983" lon="8.1513315"><ele>454.0</ele><time>2026-04-26T09:25:18.479Z</time></trkpt><trkpt lat="44.4265575" lon="8.1513987"><ele>452.2</ele><time>2026-04-26T09:25:19.478Z</time></trkpt><trkpt lat="44.426539" lon="8.1515883"><ele>450.4</ele><time>2026-04-26T09:25:21.476Z</time></trkpt><trkpt lat="44.4265552" lon="8.1517203"><ele>448.6</ele><time>2026-04-26T09:25:22.476Z</time></trkpt><trkpt lat="44.426583" lon="8.151836"><ele>446.8</ele><time>2026-04-26T09:25:23.476Z</time></trkpt><trkpt lat="44.4266275" lon="8.1519232"><ele>445.0</ele><time>2026-04-26T09:25:24.474Z</time></trkpt><trkpt lat="44.4267017" lon="8.1519908"><ele>445.0</ele><time>2026-04-26T09:25:25.475Z</time></trkpt><trkpt lat="44.4268012" lon="8.1520457"><ele>445.0</ele><time>2026-04-26T09:25:26.474Z</time></trkpt><trkpt lat="44.4269058" lon="8.1521013"><ele>445.0</ele><time>2026-04-26T09:25:27.477Z</time></trkpt><trkpt lat="44.4269873" lon="8.1521537"><ele>445.0</ele><time>2026-04-26T09:25:28.476Z</time></trkpt><trkpt lat="44.4270452" lon="8.152216"><ele>445.0</ele><time>2026-04-26T09:25:29.474Z</time></trkpt><trkpt lat="44.4270788" lon="8.1523052"><ele>446.0</ele><time>2026-04-26T09:25:30.474Z</time></trkpt><trkpt lat="44.4270975" lon="8.1524095"><ele>447.0</ele><time>2026-04-26T09:25:31.475Z</time></trkpt><trkpt lat="44.4271215" lon="8.1525"><ele>448.0</ele><time>2026-04-26T09:25:32.476Z</time></trkpt><trkpt lat="44.427167" lon="8.1525842"><ele>449.0</ele><time>2026-04-26T09:25:33.476Z</time></trkpt><trkpt lat="44.4272173" lon="8.1526695"><ele>450.0</ele><time>2026-04-26T09:25:34.476Z</time></trkpt><trkpt lat="44.4272667" lon="8.1527488"><ele>451.0</ele><time>2026-04-26T09:25:35.477Z</time></trkpt><trkpt lat="44.4273158" lon="8.1528265"><ele>452.0</ele><time>2026-04-26T09:25:36.476Z</time></trkpt><trkpt lat="44.4273748" lon="8.152952"><ele>452.0</ele><time>2026-04-26T09:25:38.475Z</time></trkpt><trkpt lat="44.4273585" lon="8.1530803"><ele>452.00000000000006</ele><time>2026-04-26T09:25:40.473Z</time></trkpt><trkpt lat="44.4273017" lon="8.1531903"><ele>452.00000000000006</ele><time>2026-04-26T09:25:42.474Z</time></trkpt><trkpt lat="44.4272223" lon="8.1531745"><ele>452.0</ele><time>2026-04-26T09:25:44.476Z</time></trkpt><trkpt lat="44.4271213" lon="8.1530415"><ele>452.0</ele><time>2026-04-26T09:25:46.474Z</time></trkpt><trkpt lat="44.4270562" lon="8.1529687"><ele>452.20000000000005</ele><time>2026-04-26T09:25:47.476Z</time></trkpt><trkpt lat="44.426978" lon="8.1529157"><ele>452.40000000000003</ele><time>2026-04-26T09:25:48.475Z</time></trkpt><trkpt lat="44.4268902" lon="8.1528782"><ele>452.59999999999997</ele><time>2026-04-26T09:25:49.476Z</time></trkpt><trkpt lat="44.4267885" lon="8.1528578"><ele>452.79999999999995</ele><time>2026-04-26T09:25:50.476Z</time></trkpt><trkpt lat="44.4266755" lon="8.1528537"><ele>453.0</ele><time>2026-04-26T09:25:51.478Z</time></trkpt><trkpt lat="44.4265545" lon="8.1528592"><ele>453.0</ele><time>2026-04-26T09:25:52.479Z</time></trkpt><trkpt lat="44.4264413" lon="8.152878"><ele>452.99999999999994</ele><time>2026-04-26T09:25:53.476Z</time></trkpt><trkpt lat="44.426333" lon="8.1529163"><ele>452.99999999999994</ele><time>2026-04-26T09:25:54.479Z</time></trkpt><trkpt lat="44.4262322" lon="8.1529768"><ele>453.0</ele><time>2026-04-26T09:25:55.475Z</time></trkpt><trkpt lat="44.4261402" lon="8.1530643"><ele>453.0</ele><time>2026-04-26T09:25:56.477Z</time></trkpt><trkpt lat="44.4260585" lon="8.1531772"><ele>455.5</ele><time>2026-04-26T09:25:57.475Z</time></trkpt><trkpt lat="44.4259947" lon="8.1532885"><ele>458.0</ele><time>2026-04-26T09:25:58.476Z</time></trkpt><trkpt lat="44.425935" lon="8.1533713"><ele>460.5</ele><time>2026-04-26T09:25:59.477Z</time></trkpt><trkpt lat="44.425873" lon="8.1534067"><ele>463.0</ele><time>2026-04-26T09:26:00.477Z</time></trkpt><trkpt lat="44.425808" lon="8.1533883"><ele>465.5</ele><time>2026-04-26T09:26:01.477Z</time></trkpt><trkpt lat="44.4257398" lon="8.1533422"><ele>468.0</ele><time>2026-04-26T09:26:02.474Z</time></trkpt><trkpt lat="44.4256733" lon="8.1533203"><ele>468.0</ele><time>2026-04-26T09:26:03.472Z</time></trkpt><trkpt lat="44.4256072" lon="8.153333"><ele>468.0</ele><time>2026-04-26T09:26:04.472Z</time></trkpt><trkpt lat="44.4255438" lon="8.1533898"><ele>468.0</ele><time>2026-04-26T09:26:05.474Z</time></trkpt><trkpt lat="44.4254893" lon="8.1534957"><ele>468.0</ele><time>2026-04-26T09:26:06.478Z</time></trkpt><trkpt lat="44.4254547" lon="8.153631"><ele>468.0</ele><time>2026-04-26T09:26:07.478Z</time></trkpt><trkpt lat="44.425438" lon="8.1537488"><ele>468.0</ele><time>2026-04-26T09:26:08.48Z</time></trkpt><trkpt lat="44.425408" lon="8.1538292"><ele>470.79999999999995</ele><time>2026-04-26T09:26:09.478Z</time></trkpt><trkpt lat="44.425291" lon="8.1538475"><ele>473.59999999999997</ele><time>2026-04-26T09:26:11.478Z</time></trkpt><trkpt lat="44.4252152" lon="8.1537832"><ele>476.40000000000003</ele><time>2026-04-26T09:26:12.477Z</time></trkpt><trkpt lat="44.4251338" lon="8.1536938"><ele>479.20000000000005</ele><time>2026-04-26T09:26:13.477Z</time></trkpt><trkpt lat="44.4250473" lon="8.1536132"><ele>482.0</ele><time>2026-04-26T09:26:14.476Z</time></trkpt><trkpt lat="44.4249488" lon="8.1535442"><ele>482.0</ele><time>2026-04-26T09:26:15.477Z</time></trkpt><trkpt lat="44.4248487" lon="8.1535005"><ele>482.00000000000006</ele><time>2026-04-26T09:26:16.477Z</time></trkpt><trkpt lat="44.4247475" lon="8.1534863"><ele>482.00000000000006</ele><time>2026-04-26T09:26:17.48Z</time></trkpt><trkpt lat="44.4246448" lon="8.1535007"><ele>482.0</ele><time>2026-04-26T09:26:18.477Z</time></trkpt><trkpt lat="44.4245357" lon="8.1535312"><ele>482.0</ele><time>2026-04-26T09:26:19.477Z</time></trkpt><trkpt lat="44.424424" lon="8.1535635"><ele>483.3333333333333</ele><time>2026-04-26T09:26:20.479Z</time></trkpt><trkpt lat="44.424327" lon="8.1535832"><ele>484.66666666666663</ele><time>2026-04-26T09:26:21.476Z</time></trkpt><trkpt lat="44.4242478" lon="8.1535962"><ele>486.0</ele><time>2026-04-26T09:26:22.477Z</time></trkpt><trkpt lat="44.4241822" lon="8.1536123"><ele>487.33333333333337</ele><time>2026-04-26T09:26:23.478Z</time></trkpt><trkpt lat="44.4241203" lon="8.1536453"><ele>488.6666666666667</ele><time>2026-04-26T09:26:24.476Z</time></trkpt><trkpt lat="44.4240538" lon="8.1536968"><ele>490.0</ele><time>2026-04-26T09:26:25.48Z</time></trkpt><trkpt lat="44.4239797" lon="8.1537553"><ele>490.0</ele><time>2026-04-26T09:26:26.477Z</time></trkpt><trkpt lat="44.4239042" lon="8.1538067"><ele>490.0</ele><time>2026-04-26T09:26:27.474Z</time></trkpt><trkpt lat="44.4238283" lon="8.1538528"><ele>490.0</ele><time>2026-04-26T09:26:28.473Z</time></trkpt><trkpt lat="44.4237732" lon="8.1539082"><ele>490.0</ele><time>2026-04-26T09:26:29.476Z</time></trkpt><trkpt lat="44.4237438" lon="8.1540533"><ele>490.0</ele><time>2026-04-26T09:26:31.477Z</time></trkpt><trkpt lat="44.4237842" lon="8.154202"><ele>493.2</ele><time>2026-04-26T09:26:33.475Z</time></trkpt><trkpt lat="44.4237392" lon="8.1542878"><ele>496.4</ele><time>2026-04-26T09:26:35.476Z</time></trkpt><trkpt lat="44.4236667" lon="8.1543"><ele>499.6</ele><time>2026-04-26T09:26:36.478Z</time></trkpt><trkpt lat="44.4235697" lon="8.1542872"><ele>502.8</ele><time>2026-04-26T09:26:37.477Z</time></trkpt><trkpt lat="44.4234583" lon="8.1542587"><ele>506.0</ele><time>2026-04-26T09:26:38.477Z</time></trkpt><trkpt lat="44.4233513" lon="8.1542323"><ele>506.0</ele><time>2026-04-26T09:26:39.478Z</time></trkpt><trkpt lat="44.4232567" lon="8.1542148"><ele>506.0</ele><time>2026-04-26T09:26:40.478Z</time></trkpt><trkpt lat="44.423166" lon="8.1541993"><ele>506.0</ele><time>2026-04-26T09:26:41.477Z</time></trkpt><trkpt lat="44.4230753" lon="8.1541733"><ele>506.0</ele><time>2026-04-26T09:26:42.476Z</time></trkpt><trkpt lat="44.4229683" lon="8.1541398"><ele>506.0</ele><time>2026-04-26T09:26:43.478Z</time></trkpt><trkpt lat="44.4228412" lon="8.1541095"><ele>505.66666666666663</ele><time>2026-04-26T09:26:44.478Z</time></trkpt><trkpt lat="44.4227292" lon="8.1540735"><ele>505.3333333333333</ele><time>2026-04-26T09:26:45.477Z</time></trkpt><trkpt lat="44.4226373" lon="8.1540265"><ele>505.0</ele><time>2026-04-26T09:26:46.478Z</time></trkpt><trkpt lat="44.4225605" lon="8.1539808"><ele>504.66666666666663</ele><time>2026-04-26T09:26:47.482Z</time></trkpt><trkpt lat="44.4224983" lon="8.1539442"><ele>504.3333333333333</ele><time>2026-04-26T09:26:48.478Z</time></trkpt><trkpt lat="44.4224165" lon="8.153914"><ele>504.0</ele><time>2026-04-26T09:26:50.477Z</time></trkpt><trkpt lat="44.4224233" lon="8.1540265"><ele>505.6</ele><time>2026-04-26T09:27:16.473Z</time></trkpt><trkpt lat="44.4224753" lon="8.1540878"><ele>507.2</ele><time>2026-04-26T09:27:17.474Z</time></trkpt><trkpt lat="44.4225418" lon="8.1541605"><ele>508.80000000000007</ele><time>2026-04-26T09:27:18.475Z</time></trkpt><trkpt lat="44.422626" lon="8.1542532"><ele>510.40000000000003</ele><time>2026-04-26T09:27:19.477Z</time></trkpt><trkpt lat="44.4227222" lon="8.1543588"><ele>512.0</ele><time>2026-04-26T09:27:20.477Z</time></trkpt><trkpt lat="44.4228323" lon="8.1544772"><ele>512.0</ele><time>2026-04-26T09:27:21.478Z</time></trkpt><trkpt lat="44.4229477" lon="8.1546005"><ele>512.0</ele><time>2026-04-26T09:27:22.478Z</time></trkpt><trkpt lat="44.4230692" lon="8.1547302"><ele>512.0</ele><time>2026-04-26T09:27:23.48Z</time></trkpt><trkpt lat="44.4231933" lon="8.154866"><ele>512.3333333333333</ele><time>2026-04-26T09:27:24.476Z</time></trkpt><trkpt lat="44.4233157" lon="8.1550053"><ele>512.6666666666666</ele><time>2026-04-26T09:27:25.477Z</time></trkpt><trkpt lat="44.4234293" lon="8.1551468"><ele>513.0</ele><time>2026-04-26T09:27:26.478Z</time></trkpt><trkpt lat="44.4235317" lon="8.1552927"><ele>513.0</ele><time>2026-04-26T09:27:27.477Z</time></trkpt><trkpt lat="44.4236253" lon="8.155448"><ele>513.0</ele><time>2026-04-26T09:27:28.477Z</time></trkpt><trkpt lat="44.4237117" lon="8.155615"><ele>513.0</ele><time>2026-04-26T09:27:29.479Z</time></trkpt><trkpt lat="44.4237952" lon="8.1557898"><ele>513.0</ele><time>2026-04-26T09:27:30.477Z</time></trkpt><trkpt lat="44.4238795" lon="8.1559717"><ele>513.0</ele><time>2026-04-26T09:27:31.477Z</time></trkpt><trkpt lat="44.4239642" lon="8.1561592"><ele>513.0</ele><time>2026-04-26T09:27:32.478Z</time></trkpt><trkpt lat="44.4240492" lon="8.1563513"><ele>513.0</ele><time>2026-04-26T09:27:33.476Z</time></trkpt><trkpt lat="44.424139" lon="8.1565463"><ele>513.6666666666666</ele><time>2026-04-26T09:27:34.478Z</time></trkpt><trkpt lat="44.4242327" lon="8.1567472"><ele>514.3333333333333</ele><time>2026-04-26T09:27:35.477Z</time></trkpt><trkpt lat="44.4243282" lon="8.1569545"><ele>515.0</ele><time>2026-04-26T09:27:36.477Z</time></trkpt><trkpt lat="44.4244227" lon="8.1571623"><ele>517.3333333333333</ele><time>2026-04-26T09:27:37.48Z</time></trkpt><trkpt lat="44.4245198" lon="8.1573767"><ele>519.6666666666666</ele><time>2026-04-26T09:27:38.478Z</time></trkpt><trkpt lat="44.424619" lon="8.1575962"><ele>522.0</ele><time>2026-04-26T09:27:39.477Z</time></trkpt><trkpt lat="44.4247183" lon="8.1578165"><ele>520.6666666666666</ele><time>2026-04-26T09:27:40.477Z</time></trkpt><trkpt lat="44.424813" lon="8.1580262"><ele>519.3333333333333</ele><time>2026-04-26T09:27:41.476Z</time></trkpt><trkpt lat="44.4249017" lon="8.158222"><ele>518.0</ele><time>2026-04-26T09:27:42.475Z</time></trkpt><trkpt lat="44.4249863" lon="8.1584143"><ele>518.0</ele><time>2026-04-26T09:27:43.475Z</time></trkpt><trkpt lat="44.4250568" lon="8.1586"><ele>518.0</ele><time>2026-04-26T09:27:44.478Z</time></trkpt><trkpt lat="44.4251117" lon="8.1587808"><ele>518.0</ele><time>2026-04-26T09:27:45.478Z</time></trkpt><trkpt lat="44.4251652" lon="8.1589497"><ele>518.0</ele><time>2026-04-26T09:27:46.479Z</time></trkpt><trkpt lat="44.425237" lon="8.159098"><ele>518.75</ele><time>2026-04-26T09:27:47.475Z</time></trkpt><trkpt lat="44.4253383" lon="8.1592325"><ele>519.5</ele><time>2026-04-26T09:27:48.475Z</time></trkpt><trkpt lat="44.4254573" lon="8.1593667"><ele>520.25</ele><time>2026-04-26T09:27:49.478Z</time></trkpt><trkpt lat="44.425578" lon="8.159501"><ele>521.0</ele><time>2026-04-26T09:27:50.476Z</time></trkpt><trkpt lat="44.4256902" lon="8.1596343"><ele>519.6666666666666</ele><time>2026-04-26T09:27:51.476Z</time></trkpt><trkpt lat="44.4257987" lon="8.159783"><ele>518.3333333333334</ele><time>2026-04-26T09:27:52.479Z</time></trkpt><trkpt lat="44.4259007" lon="8.1599558"><ele>517.0</ele><time>2026-04-26T09:27:53.476Z</time></trkpt><trkpt lat="44.4259993" lon="8.1601467"><ele>517.0</ele><time>2026-04-26T09:27:54.478Z</time></trkpt><trkpt lat="44.4261008" lon="8.1603412"><ele>517.0</ele><time>2026-04-26T09:27:55.476Z</time></trkpt><trkpt lat="44.4261985" lon="8.1605245"><ele>517.0</ele><time>2026-04-26T09:27:56.477Z</time></trkpt><trkpt lat="44.4262895" lon="8.160694"><ele>515.5</ele><time>2026-04-26T09:27:57.476Z</time></trkpt><trkpt lat="44.4263755" lon="8.1608497"><ele>514.0</ele><time>2026-04-26T09:27:58.478Z</time></trkpt><trkpt lat="44.4264567" lon="8.1609922"><ele>512.5</ele><time>2026-04-26T09:27:59.479Z</time></trkpt><trkpt lat="44.4265302" lon="8.1611215"><ele>511.0</ele><time>2026-04-26T09:28:00.477Z</time></trkpt><trkpt lat="44.4265932" lon="8.1612373"><ele>511.0</ele><time>2026-04-26T09:28:01.476Z</time></trkpt><trkpt lat="44.4266373" lon="8.16135"><ele>511.0</ele><time>2026-04-26T09:28:02.477Z</time></trkpt><trkpt lat="44.42665" lon="8.1614635"><ele>511.0</ele><time>2026-04-26T09:28:03.476Z</time></trkpt><trkpt lat="44.4266242" lon="8.1615722"><ele>511.0</ele><time>2026-04-26T09:28:04.476Z</time></trkpt><trkpt lat="44.42656" lon="8.16166"><ele>511.0</ele><time>2026-04-26T09:28:05.474Z</time></trkpt><trkpt lat="44.4264572" lon="8.1617268"><ele>510.75</ele><time>2026-04-26T09:28:06.472Z</time></trkpt><trkpt lat="44.4263263" lon="8.1617857"><ele>510.5</ele><time>2026-04-26T09:28:07.472Z</time></trkpt><trkpt lat="44.4261873" lon="8.1618423"><ele>510.25</ele><time>2026-04-26T09:28:08.475Z</time></trkpt><trkpt lat="44.4260612" lon="8.1618975"><ele>510.0</ele><time>2026-04-26T09:28:09.475Z</time></trkpt><trkpt lat="44.4259473" lon="8.1619482"><ele>511.25</ele><time>2026-04-26T09:28:10.475Z</time></trkpt><trkpt lat="44.4258377" lon="8.1619685"><ele>512.5</ele><time>2026-04-26T09:28:11.475Z</time></trkpt><trkpt lat="44.4257257" lon="8.161944"><ele>513.75</ele><time>2026-04-26T09:28:12.474Z</time></trkpt><trkpt lat="44.4256095" lon="8.161863"><ele>515.0</ele><time>2026-04-26T09:28:13.475Z</time></trkpt><trkpt lat="44.4254833" lon="8.1617445"><ele>516.6666666666666</ele><time>2026-04-26T09:28:14.475Z</time></trkpt><trkpt lat="44.4253475" lon="8.1616102"><ele>518.3333333333334</ele><time>2026-04-26T09:28:15.475Z</time></trkpt><trkpt lat="44.4251985" lon="8.1614805"><ele>520.0</ele><time>2026-04-26T09:28:16.475Z</time></trkpt><trkpt lat="44.4250503" lon="8.1613778"><ele>520.0</ele><time>2026-04-26T09:28:17.476Z</time></trkpt><trkpt lat="44.4249108" lon="8.1612913"><ele>520.0</ele><time>2026-04-26T09:28:18.479Z</time></trkpt><trkpt lat="44.4247885" lon="8.1611907"><ele>520.0</ele><time>2026-04-26T09:28:19.477Z</time></trkpt><trkpt lat="44.4246817" lon="8.1610768"><ele>520.0</ele><time>2026-04-26T09:28:20.477Z</time></trkpt><trkpt lat="44.4245743" lon="8.1609827"><ele>517.75</ele><time>2026-04-26T09:28:21.475Z</time></trkpt><trkpt lat="44.4244515" lon="8.1609312"><ele>515.5</ele><time>2026-04-26T09:28:22.475Z</time></trkpt><trkpt lat="44.4243092" lon="8.1609233"><ele>513.25</ele><time>2026-04-26T09:28:23.476Z</time></trkpt><trkpt lat="44.4241668" lon="8.1609335"><ele>511.0</ele><time>2026-04-26T09:28:24.475Z</time></trkpt><trkpt lat="44.4240225" lon="8.160935"><ele>511.0</ele><time>2026-04-26T09:28:25.476Z</time></trkpt><trkpt lat="44.4238662" lon="8.160952"><ele>511.0</ele><time>2026-04-26T09:28:26.476Z</time></trkpt><trkpt lat="44.4237162" lon="8.1609917"><ele>511.0</ele><time>2026-04-26T09:28:27.474Z</time></trkpt><trkpt lat="44.4235813" lon="8.1610338"><ele>511.0</ele><time>2026-04-26T09:28:28.478Z</time></trkpt><trkpt lat="44.4234575" lon="8.1610667"><ele>510.5</ele><time>2026-04-26T09:28:29.473Z</time></trkpt><trkpt lat="44.4233463" lon="8.1610623"><ele>510.0</ele><time>2026-04-26T09:28:30.474Z</time></trkpt><trkpt lat="44.4232353" lon="8.161014"><ele>509.5</ele><time>2026-04-26T09:28:31.474Z</time></trkpt><trkpt lat="44.4231102" lon="8.1609395"><ele>509.0</ele><time>2026-04-26T09:28:32.472Z</time></trkpt><trkpt lat="44.4229707" lon="8.1608768"><ele>508.75</ele><time>2026-04-26T09:28:33.472Z</time></trkpt><trkpt lat="44.4228412" lon="8.1608332"><ele>508.5</ele><time>2026-04-26T09:28:34.472Z</time></trkpt><trkpt lat="44.4227272" lon="8.1608127"><ele>508.25</ele><time>2026-04-26T09:28:35.475Z</time></trkpt><trkpt lat="44.4226168" lon="8.1608422"><ele>508.0</ele><time>2026-04-26T09:28:36.475Z</time></trkpt><trkpt lat="44.4225167" lon="8.1609222"><ele>508.0</ele><time>2026-04-26T09:28:37.475Z</time></trkpt><trkpt lat="44.422431" lon="8.1610573"><ele>508.0</ele><time>2026-04-26T09:28:38.476Z</time></trkpt><trkpt lat="44.4223702" lon="8.1612373"><ele>508.0</ele><time>2026-04-26T09:28:39.474Z</time></trkpt><trkpt lat="44.42232" lon="8.1614453"><ele>508.0</ele><time>2026-04-26T09:28:40.475Z</time></trkpt><trkpt lat="44.4222785" lon="8.1616422"><ele>510.5</ele><time>2026-04-26T09:28:41.475Z</time></trkpt><trkpt lat="44.422229" lon="8.1618212"><ele>513.0</ele><time>2026-04-26T09:28:42.474Z</time></trkpt><trkpt lat="44.4221468" lon="8.1619838"><ele>515.5</ele><time>2026-04-26T09:28:43.48Z</time></trkpt><trkpt lat="44.4220547" lon="8.1621352"><ele>518.0</ele><time>2026-04-26T09:28:44.474Z</time></trkpt><trkpt lat="44.4219862" lon="8.162292"><ele>512.5</ele><time>2026-04-26T09:28:45.474Z</time></trkpt><trkpt lat="44.4219415" lon="8.1624495"><ele>507.0</ele><time>2026-04-26T09:28:46.473Z</time></trkpt><trkpt lat="44.4218867" lon="8.1625738"><ele>501.5</ele><time>2026-04-26T09:28:47.478Z</time></trkpt><trkpt lat="44.421794" lon="8.1626728"><ele>496.0</ele><time>2026-04-26T09:28:48.474Z</time></trkpt><trkpt lat="44.4216852" lon="8.1627632"><ele>496.0</ele><time>2026-04-26T09:28:49.476Z</time></trkpt><trkpt lat="44.4215837" lon="8.1628823"><ele>496.0</ele><time>2026-04-26T09:28:50.475Z</time></trkpt><trkpt lat="44.421492" lon="8.1630408"><ele>496.0</ele><time>2026-04-26T09:28:51.476Z</time></trkpt><trkpt lat="44.4214105" lon="8.163243"><ele>496.0</ele><time>2026-04-26T09:28:52.474Z</time></trkpt><trkpt lat="44.4213452" lon="8.16345"><ele>493.0</ele><time>2026-04-26T09:28:53.474Z</time></trkpt><trkpt lat="44.4212998" lon="8.1636542"><ele>490.0</ele><time>2026-04-26T09:28:54.474Z</time></trkpt><trkpt lat="44.42127" lon="8.1638477"><ele>487.0</ele><time>2026-04-26T09:28:55.473Z</time></trkpt><trkpt lat="44.4212463" lon="8.1640165"><ele>484.0</ele><time>2026-04-26T09:28:56.475Z</time></trkpt><trkpt lat="44.421223" lon="8.164155"><ele>484.00000000000006</ele><time>2026-04-26T09:28:57.475Z</time></trkpt><trkpt lat="44.4211933" lon="8.1642532"><ele>484.0</ele><time>2026-04-26T09:28:58.479Z</time></trkpt><trkpt lat="44.4210795" lon="8.1642953"><ele>484.0</ele><time>2026-04-26T09:29:00.477Z</time></trkpt><trkpt lat="44.4210237" lon="8.164252"><ele>484.0</ele><time>2026-04-26T09:29:01.48Z</time></trkpt><trkpt lat="44.4209678" lon="8.1641867"><ele>484.00000000000006</ele><time>2026-04-26T09:29:02.479Z</time></trkpt><trkpt lat="44.4209068" lon="8.1640997"><ele>484.0</ele><time>2026-04-26T09:29:03.478Z</time></trkpt><trkpt lat="44.4208382" lon="8.164003"><ele>484.0</ele><time>2026-04-26T09:29:04.477Z</time></trkpt><trkpt lat="44.4207487" lon="8.1638995"><ele>484.0</ele><time>2026-04-26T09:29:05.476Z</time></trkpt><trkpt lat="44.4206295" lon="8.1638038"><ele>484.0</ele><time>2026-04-26T09:29:06.475Z</time></trkpt><trkpt lat="44.4204978" lon="8.1636968"><ele>484.0</ele><time>2026-04-26T09:29:07.474Z</time></trkpt><trkpt lat="44.4203837" lon="8.163573"><ele>481.75</ele><time>2026-04-26T09:29:08.475Z</time></trkpt><trkpt lat="44.4202763" lon="8.163434"><ele>479.5</ele><time>2026-04-26T09:29:09.478Z</time></trkpt><trkpt lat="44.4201723" lon="8.1632952"><ele>477.25</ele><time>2026-04-26T09:29:10.477Z</time></trkpt><trkpt lat="44.4200773" lon="8.16317"><ele>475.0</ele><time>2026-04-26T09:29:11.476Z</time></trkpt><trkpt lat="44.419994" lon="8.163062"><ele>475.00000000000006</ele><time>2026-04-26T09:29:12.475Z</time></trkpt><trkpt lat="44.4199265" lon="8.1629812"><ele>475.0</ele><time>2026-04-26T09:29:13.474Z</time></trkpt><trkpt lat="44.4198583" lon="8.1629488"><ele>475.0</ele><time>2026-04-26T09:29:14.476Z</time></trkpt><trkpt lat="44.4197928" lon="8.162975"><ele>475.0</ele><time>2026-04-26T09:29:15.476Z</time></trkpt><trkpt lat="44.4197453" lon="8.1630507"><ele>475.00000000000006</ele><time>2026-04-26T09:29:16.475Z</time></trkpt><trkpt lat="44.4197365" lon="8.1631547"><ele>475.0</ele><time>2026-04-26T09:29:17.475Z</time></trkpt><trkpt lat="44.4197685" lon="8.163267"><ele>471.75</ele><time>2026-04-26T09:29:18.473Z</time></trkpt><trkpt lat="44.4198335" lon="8.1633998"><ele>468.5</ele><time>2026-04-26T09:29:19.473Z</time></trkpt><trkpt lat="44.4199158" lon="8.1635585"><ele>465.25</ele><time>2026-04-26T09:29:20.473Z</time></trkpt><trkpt lat="44.420004" lon="8.1637433"><ele>462.0</ele><time>2026-04-26T09:29:21.474Z</time></trkpt><trkpt lat="44.4200943" lon="8.1639547"><ele>457.0</ele><time>2026-04-26T09:29:22.478Z</time></trkpt><trkpt lat="44.4201778" lon="8.1641643"><ele>452.0</ele><time>2026-04-26T09:29:23.476Z</time></trkpt><trkpt lat="44.4202618" lon="8.1643568"><ele>447.0</ele><time>2026-04-26T09:29:24.475Z</time></trkpt><trkpt lat="44.4203505" lon="8.1645327"><ele>447.0</ele><time>2026-04-26T09:29:25.476Z</time></trkpt><trkpt lat="44.4204337" lon="8.1647023"><ele>447.0</ele><time>2026-04-26T09:29:26.476Z</time></trkpt><trkpt lat="44.420505" lon="8.1648922"><ele>447.0</ele><time>2026-04-26T09:29:27.475Z</time></trkpt><trkpt lat="44.4205677" lon="8.1651047"><ele>446.66666666666663</ele><time>2026-04-26T09:29:28.477Z</time></trkpt><trkpt lat="44.4206252" lon="8.1653417"><ele>446.3333333333333</ele><time>2026-04-26T09:29:29.476Z</time></trkpt><trkpt lat="44.4206848" lon="8.1655795"><ele>446.0</ele><time>2026-04-26T09:29:30.476Z</time></trkpt><trkpt lat="44.4207562" lon="8.165798"><ele>446.0</ele><time>2026-04-26T09:29:31.479Z</time></trkpt><trkpt lat="44.4208337" lon="8.166015"><ele>446.0</ele><time>2026-04-26T09:29:32.48Z</time></trkpt><trkpt lat="44.4209045" lon="8.1662423"><ele>446.0</ele><time>2026-04-26T09:29:33.475Z</time></trkpt><trkpt lat="44.4209667" lon="8.166485"><ele>443.3333333333333</ele><time>2026-04-26T09:29:34.48Z</time></trkpt><trkpt lat="44.4210175" lon="8.1667412"><ele>440.66666666666663</ele><time>2026-04-26T09:29:35.476Z</time></trkpt><trkpt lat="44.4210533" lon="8.166989"><ele>438.0</ele><time>2026-04-26T09:29:36.475Z</time></trkpt><trkpt lat="44.4210863" lon="8.167223"><ele>434.0</ele><time>2026-04-26T09:29:37.475Z</time></trkpt><trkpt lat="44.421127" lon="8.1674397"><ele>430.0</ele><time>2026-04-26T09:29:38.478Z</time></trkpt><trkpt lat="44.4211727" lon="8.16764"><ele>426.0</ele><time>2026-04-26T09:29:39.476Z</time></trkpt><trkpt lat="44.4212192" lon="8.1678255"><ele>426.0</ele><time>2026-04-26T09:29:40.477Z</time></trkpt><trkpt lat="44.421271" lon="8.1679963"><ele>426.0</ele><time>2026-04-26T09:29:41.478Z</time></trkpt><trkpt lat="44.4213335" lon="8.1681462"><ele>426.0</ele><time>2026-04-26T09:29:42.477Z</time></trkpt><trkpt lat="44.4214093" lon="8.1682682"><ele>426.0</ele><time>2026-04-26T09:29:43.475Z</time></trkpt><trkpt lat="44.4215142" lon="8.1683667"><ele>426.66666666666663</ele><time>2026-04-26T09:29:44.474Z</time></trkpt><trkpt lat="44.4216518" lon="8.168448"><ele>427.3333333333333</ele><time>2026-04-26T09:29:45.474Z</time></trkpt><trkpt lat="44.4218125" lon="8.168517"><ele>428.0</ele><time>2026-04-26T09:29:46.475Z</time></trkpt><trkpt lat="44.4219837" lon="8.1685865"><ele>428.0</ele><time>2026-04-26T09:29:47.477Z</time></trkpt><trkpt lat="44.4221453" lon="8.1686668"><ele>428.0</ele><time>2026-04-26T09:29:48.475Z</time></trkpt><trkpt lat="44.4222935" lon="8.1687587"><ele>428.0</ele><time>2026-04-26T09:29:49.475Z</time></trkpt><trkpt lat="44.4224295" lon="8.1688535"><ele>427.59999999999997</ele><time>2026-04-26T09:29:50.475Z</time></trkpt><trkpt lat="44.42255" lon="8.1689422"><ele>427.19999999999993</ele><time>2026-04-26T09:29:51.475Z</time></trkpt><trkpt lat="44.422651" lon="8.169031"><ele>426.8</ele><time>2026-04-26T09:29:52.477Z</time></trkpt><trkpt lat="44.4227268" lon="8.1691277"><ele>426.4</ele><time>2026-04-26T09:29:53.476Z</time></trkpt><trkpt lat="44.422767" lon="8.1692307"><ele>426.0</ele><time>2026-04-26T09:29:54.475Z</time></trkpt><trkpt lat="44.4227672" lon="8.16933"><ele>424.8</ele><time>2026-04-26T09:29:55.477Z</time></trkpt><trkpt lat="44.4227258" lon="8.1694033"><ele>423.6</ele><time>2026-04-26T09:29:56.477Z</time></trkpt><trkpt lat="44.422655" lon="8.1694208"><ele>422.4</ele><time>2026-04-26T09:29:57.476Z</time></trkpt><trkpt lat="44.4225578" lon="8.169386"><ele>421.2</ele><time>2026-04-26T09:29:58.477Z</time></trkpt><trkpt lat="44.4224393" lon="8.1693275"><ele>420.0</ele><time>2026-04-26T09:29:59.48Z</time></trkpt><trkpt lat="44.4222987" lon="8.1692578"><ele>420.0</ele><time>2026-04-26T09:30:00.476Z</time></trkpt><trkpt lat="44.4221515" lon="8.1691845"><ele>420.0</ele><time>2026-04-26T09:30:01.478Z</time></trkpt><trkpt lat="44.4220043" lon="8.169124"><ele>420.0</ele><time>2026-04-26T09:30:02.478Z</time></trkpt><trkpt lat="44.4218568" lon="8.1690747"><ele>422.66666666666663</ele><time>2026-04-26T09:30:03.475Z</time></trkpt><trkpt lat="44.4217175" lon="8.1690127"><ele>425.3333333333333</ele><time>2026-04-26T09:30:04.476Z</time></trkpt><trkpt lat="44.4215735" lon="8.1689317"><ele>428.0</ele><time>2026-04-26T09:30:05.477Z</time></trkpt><trkpt lat="44.4214235" lon="8.1688418"><ele>423.0</ele><time>2026-04-26T09:30:06.477Z</time></trkpt><trkpt lat="44.4212692" lon="8.1687448"><ele>418.0</ele><time>2026-04-26T09:30:07.477Z</time></trkpt><trkpt lat="44.4211147" lon="8.1686363"><ele>413.0</ele><time>2026-04-26T09:30:08.476Z</time></trkpt><trkpt lat="44.420967" lon="8.1685127"><ele>413.0</ele><time>2026-04-26T09:30:09.474Z</time></trkpt><trkpt lat="44.420825" lon="8.16837"><ele>413.0</ele><time>2026-04-26T09:30:10.477Z</time></trkpt><trkpt lat="44.4206838" lon="8.1682193"><ele>413.0</ele><time>2026-04-26T09:30:11.477Z</time></trkpt><trkpt lat="44.4205387" lon="8.1680705"><ele>409.3333333333333</ele><time>2026-04-26T09:30:12.477Z</time></trkpt><trkpt lat="44.4203928" lon="8.1679238"><ele>405.66666666666663</ele><time>2026-04-26T09:30:13.477Z</time></trkpt><trkpt lat="44.4202605" lon="8.1677913"><ele>402.0</ele><time>2026-04-26T09:30:14.475Z</time></trkpt><trkpt lat="44.420135" lon="8.1676887"><ele>402.0</ele><time>2026-04-26T09:30:15.477Z</time></trkpt><trkpt lat="44.4200167" lon="8.1676032"><ele>402.0</ele><time>2026-04-26T09:30:16.476Z</time></trkpt><trkpt lat="44.4199147" lon="8.1675028"><ele>402.0</ele><time>2026-04-26T09:30:17.476Z</time></trkpt><trkpt lat="44.4198198" lon="8.167404"><ele>402.0</ele><time>2026-04-26T09:30:18.477Z</time></trkpt><trkpt lat="44.4197262" lon="8.1673028"><ele>398.75</ele><time>2026-04-26T09:30:19.476Z</time></trkpt><trkpt lat="44.4196327" lon="8.1671703"><ele>395.5</ele><time>2026-04-26T09:30:20.476Z</time></trkpt><trkpt lat="44.4195562" lon="8.1670275"><ele>392.25</ele><time>2026-04-26T09:30:21.475Z</time></trkpt><trkpt lat="44.4194953" lon="8.166896"><ele>389.0</ele><time>2026-04-26T09:30:22.474Z</time></trkpt><trkpt lat="44.4194445" lon="8.1667507"><ele>389.0</ele><time>2026-04-26T09:30:23.476Z</time></trkpt><trkpt lat="44.4194057" lon="8.1665832"><ele>389.0</ele><time>2026-04-26T09:30:24.475Z</time></trkpt><trkpt lat="44.4193705" lon="8.1664082"><ele>389.0</ele><time>2026-04-26T09:30:25.474Z</time></trkpt><trkpt lat="44.4193328" lon="8.1662462"><ele>389.0</ele><time>2026-04-26T09:30:26.475Z</time></trkpt><trkpt lat="44.4192775" lon="8.1660878"><ele>392.3333333333333</ele><time>2026-04-26T09:30:27.474Z</time></trkpt><trkpt lat="44.4191872" lon="8.1659302"><ele>395.66666666666663</ele><time>2026-04-26T09:30:28.474Z</time></trkpt><trkpt lat="44.4190745" lon="8.1657662"><ele>399.0</ele><time>2026-04-26T09:30:29.474Z</time></trkpt><trkpt lat="44.418963" lon="8.1655815"><ele>396.0</ele><time>2026-04-26T09:30:30.473Z</time></trkpt><trkpt lat="44.4188512" lon="8.1654093"><ele>393.0</ele><time>2026-04-26T09:30:31.472Z</time></trkpt><trkpt lat="44.4187168" lon="8.1652575"><ele>390.0</ele><time>2026-04-26T09:30:32.471Z</time></trkpt><trkpt lat="44.4185788" lon="8.165125"><ele>390.0</ele><time>2026-04-26T09:30:33.47Z</time></trkpt><trkpt lat="44.4184448" lon="8.165007"><ele>390.0</ele><time>2026-04-26T09:30:34.472Z</time></trkpt><trkpt lat="44.4183155" lon="8.1648978"><ele>390.0</ele><time>2026-04-26T09:30:35.475Z</time></trkpt><trkpt lat="44.4181903" lon="8.1647928"><ele>388.25</ele><time>2026-04-26T09:30:36.475Z</time></trkpt><trkpt lat="44.4180768" lon="8.1646863"><ele>386.5</ele><time>2026-04-26T09:30:37.476Z</time></trkpt><trkpt lat="44.4179797" lon="8.1645832"><ele>384.75</ele><time>2026-04-26T09:30:38.476Z</time></trkpt><trkpt lat="44.417891" lon="8.164497"><ele>383.0</ele><time>2026-04-26T09:30:39.477Z</time></trkpt><trkpt lat="44.4178052" lon="8.1644635"><ele>383.0</ele><time>2026-04-26T09:30:40.477Z</time></trkpt><trkpt lat="44.4177193" lon="8.1644842"><ele>383.0</ele><time>2026-04-26T09:30:41.482Z</time></trkpt><trkpt lat="44.4176257" lon="8.1645542"><ele>383.0</ele><time>2026-04-26T09:30:42.474Z</time></trkpt><trkpt lat="44.4175285" lon="8.1646398"><ele>383.0</ele><time>2026-04-26T09:30:43.477Z</time></trkpt><trkpt lat="44.4174468" lon="8.1647068"><ele>383.0</ele><time>2026-04-26T09:30:44.476Z</time></trkpt><trkpt lat="44.417382" lon="8.1647525"><ele>383.0</ele><time>2026-04-26T09:30:45.476Z</time></trkpt><trkpt lat="44.4173002" lon="8.164758"><ele>383.0</ele><time>2026-04-26T09:30:47.477Z</time></trkpt><trkpt lat="44.4172148" lon="8.1647088"><ele>383.0</ele><time>2026-04-26T09:31:13.477Z</time></trkpt><trkpt lat="44.4171458" lon="8.1646792"><ele>383.0</ele><time>2026-04-26T09:31:14.478Z</time></trkpt><trkpt lat="44.4170493" lon="8.1646412"><ele>383.0</ele><time>2026-04-26T09:31:15.478Z</time></trkpt><trkpt lat="44.4169415" lon="8.1645973"><ele>381.0</ele><time>2026-04-26T09:31:16.479Z</time></trkpt><trkpt lat="44.4168325" lon="8.1645538"><ele>379.0</ele><time>2026-04-26T09:31:17.475Z</time></trkpt><trkpt lat="44.4167215" lon="8.1645133"><ele>377.0</ele><time>2026-04-26T09:31:18.475Z</time></trkpt><trkpt lat="44.4166095" lon="8.1644612"><ele>375.0</ele><time>2026-04-26T09:31:19.477Z</time></trkpt><trkpt lat="44.4165037" lon="8.1643977"><ele>375.0</ele><time>2026-04-26T09:31:20.477Z</time></trkpt><trkpt lat="44.4164018" lon="8.1643168"><ele>375.0</ele><time>2026-04-26T09:31:21.476Z</time></trkpt><trkpt lat="44.4163002" lon="8.164222"><ele>375.0</ele><time>2026-04-26T09:31:22.476Z</time></trkpt><trkpt lat="44.4162032" lon="8.1641058"><ele>375.0</ele><time>2026-04-26T09:31:23.474Z</time></trkpt><trkpt lat="44.416118" lon="8.1639745"><ele>375.25</ele><time>2026-04-26T09:31:24.474Z</time></trkpt><trkpt lat="44.4160387" lon="8.1638435"><ele>375.5</ele><time>2026-04-26T09:31:25.476Z</time></trkpt><trkpt lat="44.415958" lon="8.163708"><ele>375.75</ele><time>2026-04-26T09:31:26.478Z</time></trkpt><trkpt lat="44.4158792" lon="8.1635655"><ele>376.0</ele><time>2026-04-26T09:31:27.476Z</time></trkpt><trkpt lat="44.4158027" lon="8.163414"><ele>376.0</ele><time>2026-04-26T09:31:28.479Z</time></trkpt><trkpt lat="44.4157325" lon="8.1632477"><ele>376.0</ele><time>2026-04-26T09:31:29.478Z</time></trkpt><trkpt lat="44.4156682" lon="8.163076"><ele>376.0</ele><time>2026-04-26T09:31:30.476Z</time></trkpt><trkpt lat="44.4156175" lon="8.1629127"><ele>376.0</ele><time>2026-04-26T09:31:31.477Z</time></trkpt><trkpt lat="44.4155743" lon="8.1627648"><ele>376.0</ele><time>2026-04-26T09:31:32.478Z</time></trkpt><trkpt lat="44.4155298" lon="8.1626288"><ele>376.0</ele><time>2026-04-26T09:31:33.477Z</time></trkpt><trkpt lat="44.4154828" lon="8.1624933"><ele>376.0</ele><time>2026-04-26T09:31:34.476Z</time></trkpt><trkpt lat="44.4154277" lon="8.1623635"><ele>376.0</ele><time>2026-04-26T09:31:35.475Z</time></trkpt><trkpt lat="44.4153842" lon="8.1622327"><ele>376.0</ele><time>2026-04-26T09:31:36.475Z</time></trkpt><trkpt lat="44.415345" lon="8.1620922"><ele>376.20000000000005</ele><time>2026-04-26T09:31:37.476Z</time></trkpt><trkpt lat="44.4153038" lon="8.1619627"><ele>376.40000000000003</ele><time>2026-04-26T09:31:38.478Z</time></trkpt><trkpt lat="44.415259" lon="8.1618327"><ele>376.6</ele><time>2026-04-26T09:31:39.476Z</time></trkpt><trkpt lat="44.415222" lon="8.1616983"><ele>376.8</ele><time>2026-04-26T09:31:40.476Z</time></trkpt><trkpt lat="44.4151798" lon="8.1615643"><ele>377.0</ele><time>2026-04-26T09:31:41.478Z</time></trkpt><trkpt lat="44.4151257" lon="8.1614522"><ele>377.6</ele><time>2026-04-26T09:31:42.477Z</time></trkpt><trkpt lat="44.4150557" lon="8.1613547"><ele>378.20000000000005</ele><time>2026-04-26T09:31:43.477Z</time></trkpt><trkpt lat="44.4149738" lon="8.1612655"><ele>378.8</ele><time>2026-04-26T09:31:44.475Z</time></trkpt><trkpt lat="44.4148977" lon="8.1611863"><ele>379.4</ele><time>2026-04-26T09:31:45.474Z</time></trkpt><trkpt lat="44.4148343" lon="8.1611017"><ele>380.0</ele><time>2026-04-26T09:31:46.473Z</time></trkpt><trkpt lat="44.4147763" lon="8.1609932"><ele>380.0</ele><time>2026-04-26T09:31:47.475Z</time></trkpt><trkpt lat="44.4147255" lon="8.1608853"><ele>380.0</ele><time>2026-04-26T09:31:48.472Z</time></trkpt><trkpt lat="44.4146717" lon="8.1607962"><ele>380.0</ele><time>2026-04-26T09:31:49.475Z</time></trkpt><trkpt lat="44.4146088" lon="8.1607282"><ele>380.0</ele><time>2026-04-26T09:31:50.475Z</time></trkpt><trkpt lat="44.4145482" lon="8.1606775"><ele>380.0</ele><time>2026-04-26T09:31:51.478Z</time></trkpt><trkpt lat="44.4144947" lon="8.1606277"><ele>380.0</ele><time>2026-04-26T09:31:52.475Z</time></trkpt><trkpt lat="44.4144392" lon="8.1605655"><ele>381.1666666666667</ele><time>2026-04-26T09:31:53.478Z</time></trkpt><trkpt lat="44.4143905" lon="8.1604948"><ele>382.33333333333337</ele><time>2026-04-26T09:31:54.474Z</time></trkpt><trkpt lat="44.414341" lon="8.1604287"><ele>383.5</ele><time>2026-04-26T09:31:55.475Z</time></trkpt><trkpt lat="44.4142815" lon="8.1603755"><ele>384.6666666666667</ele><time>2026-04-26T09:31:56.475Z</time></trkpt><trkpt lat="44.4142038" lon="8.160339"><ele>385.8333333333333</ele><time>2026-04-26T09:31:57.476Z</time></trkpt><trkpt lat="44.4141227" lon="8.1603202"><ele>387.0</ele><time>2026-04-26T09:31:58.475Z</time></trkpt><trkpt lat="44.4140397" lon="8.160321"><ele>387.0</ele><time>2026-04-26T09:31:59.477Z</time></trkpt><trkpt lat="44.4139418" lon="8.1603432"><ele>387.0</ele><time>2026-04-26T09:32:00.476Z</time></trkpt><trkpt lat="44.4138297" lon="8.1603767"><ele>387.0</ele><time>2026-04-26T09:32:01.475Z</time></trkpt><trkpt lat="44.4137103" lon="8.1604202"><ele>387.0</ele><time>2026-04-26T09:32:02.476Z</time></trkpt><trkpt lat="44.4135908" lon="8.1604677"><ele>384.75</ele><time>2026-04-26T09:32:03.477Z</time></trkpt><trkpt lat="44.4134705" lon="8.1605127"><ele>382.5</ele><time>2026-04-26T09:32:04.48Z</time></trkpt><trkpt lat="44.4133605" lon="8.1605515"><ele>380.25</ele><time>2026-04-26T09:32:05.475Z</time></trkpt><trkpt lat="44.413253" lon="8.160596"><ele>378.0</ele><time>2026-04-26T09:32:06.477Z</time></trkpt><trkpt lat="44.413131" lon="8.1606473"><ele>377.75</ele><time>2026-04-26T09:32:07.477Z</time></trkpt><trkpt lat="44.4130125" lon="8.160704"><ele>377.5</ele><time>2026-04-26T09:32:08.478Z</time></trkpt><trkpt lat="44.412906" lon="8.1607618"><ele>377.25</ele><time>2026-04-26T09:32:09.476Z</time></trkpt><trkpt lat="44.4127965" lon="8.1608112"><ele>377.0</ele><time>2026-04-26T09:32:10.476Z</time></trkpt><trkpt lat="44.412681" lon="8.1608555"><ele>377.0</ele><time>2026-04-26T09:32:11.476Z</time></trkpt><trkpt lat="44.412561" lon="8.1609008"><ele>377.0</ele><time>2026-04-26T09:32:12.476Z</time></trkpt><trkpt lat="44.4124503" lon="8.1609407"><ele>377.0</ele><time>2026-04-26T09:32:13.477Z</time></trkpt><trkpt lat="44.4123493" lon="8.1609717"><ele>377.0</ele><time>2026-04-26T09:32:14.477Z</time></trkpt><trkpt lat="44.4122568" lon="8.1610002"><ele>377.0</ele><time>2026-04-26T09:32:15.477Z</time></trkpt><trkpt lat="44.4121752" lon="8.1610382"><ele>377.40000000000003</ele><time>2026-04-26T09:32:16.477Z</time></trkpt><trkpt lat="44.4120895" lon="8.1611008"><ele>377.8</ele><time>2026-04-26T09:32:17.476Z</time></trkpt><trkpt lat="44.4119912" lon="8.1611697"><ele>378.2</ele><time>2026-04-26T09:32:18.475Z</time></trkpt><trkpt lat="44.4118792" lon="8.1612268"><ele>378.6</ele><time>2026-04-26T09:32:19.477Z</time></trkpt><trkpt lat="44.4117715" lon="8.1612815"><ele>379.0</ele><time>2026-04-26T09:32:20.477Z</time></trkpt><trkpt lat="44.4116635" lon="8.1613425"><ele>379.0</ele><time>2026-04-26T09:32:21.478Z</time></trkpt><trkpt lat="44.4115485" lon="8.161397"><ele>379.0</ele><time>2026-04-26T09:32:22.477Z</time></trkpt><trkpt lat="44.4114368" lon="8.1614332"><ele>379.0</ele><time>2026-04-26T09:32:23.477Z</time></trkpt><trkpt lat="44.4113333" lon="8.1614563"><ele>379.0</ele><time>2026-04-26T09:32:24.476Z</time></trkpt><trkpt lat="44.4112348" lon="8.161496"><ele>379.0</ele><time>2026-04-26T09:32:25.477Z</time></trkpt><trkpt lat="44.4111367" lon="8.1615557"><ele>379.16666666666663</ele><time>2026-04-26T09:32:26.477Z</time></trkpt><trkpt lat="44.4110375" lon="8.1616267"><ele>379.3333333333333</ele><time>2026-04-26T09:32:27.476Z</time></trkpt><trkpt lat="44.4109543" lon="8.1616973"><ele>379.5</ele><time>2026-04-26T09:32:28.476Z</time></trkpt><trkpt lat="44.4108917" lon="8.1617643"><ele>379.6666666666667</ele><time>2026-04-26T09:32:29.477Z</time></trkpt><trkpt lat="44.410848" lon="8.1618398"><ele>379.83333333333337</ele><time>2026-04-26T09:32:30.477Z</time></trkpt><trkpt lat="44.4108125" lon="8.1619338"><ele>380.0</ele><time>2026-04-26T09:32:31.477Z</time></trkpt><trkpt lat="44.4107658" lon="8.162021"><ele>380.0</ele><time>2026-04-26T09:32:32.476Z</time></trkpt><trkpt lat="44.4106988" lon="8.1620937"><ele>380.0</ele><time>2026-04-26T09:32:33.474Z</time></trkpt><trkpt lat="44.4106133" lon="8.1621707"><ele>380.0</ele><time>2026-04-26T09:32:34.472Z</time></trkpt><trkpt lat="44.410521" lon="8.1622497"><ele>380.0</ele><time>2026-04-26T09:32:35.473Z</time></trkpt><trkpt lat="44.4104297" lon="8.162324"><ele>380.0</ele><time>2026-04-26T09:32:36.473Z</time></trkpt><trkpt lat="44.4103437" lon="8.1623922"><ele>379.8</ele><time>2026-04-26T09:32:37.473Z</time></trkpt><trkpt lat="44.4102615" lon="8.1624735"><ele>379.6</ele><time>2026-04-26T09:32:38.475Z</time></trkpt><trkpt lat="44.4101795" lon="8.1625553"><ele>379.4</ele><time>2026-04-26T09:32:39.473Z</time></trkpt><trkpt lat="44.4100997" lon="8.1626267"><ele>379.2</ele><time>2026-04-26T09:32:40.476Z</time></trkpt><trkpt lat="44.4100212" lon="8.162688"><ele>379.0</ele><time>2026-04-26T09:32:41.476Z</time></trkpt><trkpt lat="44.4099395" lon="8.1627422"><ele>379.0</ele><time>2026-04-26T09:32:42.476Z</time></trkpt><trkpt lat="44.4098445" lon="8.1627913"><ele>379.0</ele><time>2026-04-26T09:32:43.478Z</time></trkpt><trkpt lat="44.4097377" lon="8.162841"><ele>379.0</ele><time>2026-04-26T09:32:44.477Z</time></trkpt><trkpt lat="44.40964" lon="8.162887"><ele>379.0</ele><time>2026-04-26T09:32:45.475Z</time></trkpt><trkpt lat="44.409556" lon="8.1629375"><ele>379.0</ele><time>2026-04-26T09:32:46.476Z</time></trkpt><trkpt lat="44.4094845" lon="8.1629998"><ele>379.0</ele><time>2026-04-26T09:32:47.477Z</time></trkpt><trkpt lat="44.4094218" lon="8.163066"><ele>379.0</ele><time>2026-04-26T09:32:48.475Z</time></trkpt><trkpt lat="44.4093713" lon="8.1631417"><ele>379.0</ele><time>2026-04-26T09:32:49.476Z</time></trkpt><trkpt lat="44.4093232" lon="8.1632392"><ele>379.0</ele><time>2026-04-26T09:32:50.478Z</time></trkpt><trkpt lat="44.4092782" lon="8.1633532"><ele>379.0</ele><time>2026-04-26T09:32:51.476Z</time></trkpt><trkpt lat="44.4092448" lon="8.163484"><ele>379.0</ele><time>2026-04-26T09:32:52.476Z</time></trkpt><trkpt lat="44.4092252" lon="8.1636172"><ele>379.0</ele><time>2026-04-26T09:32:53.477Z</time></trkpt><trkpt lat="44.4092048" lon="8.1637427"><ele>379.0</ele><time>2026-04-26T09:32:54.478Z</time></trkpt><trkpt lat="44.4091763" lon="8.163859"><ele>379.0</ele><time>2026-04-26T09:32:55.477Z</time></trkpt><trkpt lat="44.4091395" lon="8.1639593"><ele>379.0</ele><time>2026-04-26T09:32:56.479Z</time></trkpt><trkpt lat="44.4090967" lon="8.164043"><ele>379.0</ele><time>2026-04-26T09:32:57.479Z</time></trkpt><trkpt lat="44.4090542" lon="8.1641138"><ele>379.0</ele><time>2026-04-26T09:32:58.478Z</time></trkpt><trkpt lat="44.4089797" lon="8.1642453"><ele>379.0</ele><time>2026-04-26T09:33:00.476Z</time></trkpt><trkpt lat="44.4089293" lon="8.1643628"><ele>379.0</ele><time>2026-04-26T09:33:02.477Z</time></trkpt><trkpt lat="44.4088812" lon="8.1644985"><ele>379.0</ele><time>2026-04-26T09:33:04.476Z</time></trkpt><trkpt lat="44.4088478" lon="8.1646025"><ele>379.0</ele><time>2026-04-26T09:33:05.475Z</time></trkpt><trkpt lat="44.4088142" lon="8.1647123"><ele>379.0</ele><time>2026-04-26T09:33:06.475Z</time></trkpt><trkpt lat="44.4087917" lon="8.1648315"><ele>379.4</ele><time>2026-04-26T09:33:07.476Z</time></trkpt><trkpt lat="44.4087802" lon="8.1649622"><ele>379.79999999999995</ele><time>2026-04-26T09:33:08.476Z</time></trkpt><trkpt lat="44.4087757" lon="8.1650928"><ele>380.20000000000005</ele><time>2026-04-26T09:33:09.476Z</time></trkpt><trkpt lat="44.4087783" lon="8.165227"><ele>380.6</ele><time>2026-04-26T09:33:10.477Z</time></trkpt><trkpt lat="44.408783" lon="8.1653563"><ele>381.0</ele><time>2026-04-26T09:33:11.478Z</time></trkpt><trkpt lat="44.408781" lon="8.1654825"><ele>381.0</ele><time>2026-04-26T09:33:12.481Z</time></trkpt><trkpt lat="44.4087683" lon="8.1656115"><ele>381.0</ele><time>2026-04-26T09:33:13.48Z</time></trkpt><trkpt lat="44.4087438" lon="8.1657487"><ele>381.0</ele><time>2026-04-26T09:33:14.48Z</time></trkpt><trkpt lat="44.4087085" lon="8.1658913"><ele>381.0</ele><time>2026-04-26T09:33:15.478Z</time></trkpt><trkpt lat="44.4086803" lon="8.1660263"><ele>381.0</ele><time>2026-04-26T09:33:16.479Z</time></trkpt><trkpt lat="44.4086687" lon="8.1661598"><ele>381.0</ele><time>2026-04-26T09:33:17.479Z</time></trkpt><trkpt lat="44.4086703" lon="8.1662827"><ele>381.0</ele><time>2026-04-26T09:33:18.477Z</time></trkpt><trkpt lat="44.408692" lon="8.1663907"><ele>381.0</ele><time>2026-04-26T09:33:19.476Z</time></trkpt><trkpt lat="44.4087355" lon="8.1664847"><ele>381.0</ele><time>2026-04-26T09:33:20.476Z</time></trkpt><trkpt lat="44.408792" lon="8.1665512"><ele>381.0</ele><time>2026-04-26T09:33:21.474Z</time></trkpt><trkpt lat="44.4088523" lon="8.166593"><ele>381.0</ele><time>2026-04-26T09:33:22.476Z</time></trkpt><trkpt lat="44.4089632" lon="8.1666413"><ele>381.0</ele><time>2026-04-26T09:33:24.472Z</time></trkpt><trkpt lat="44.4090623" lon="8.1667035"><ele>381.0</ele><time>2026-04-26T09:33:26.472Z</time></trkpt><trkpt lat="44.4091237" lon="8.1667438"><ele>381.0</ele><time>2026-04-26T09:33:27.475Z</time></trkpt><trkpt lat="44.4091943" lon="8.166788"><ele>381.0</ele><time>2026-04-26T09:33:28.476Z</time></trkpt><trkpt lat="44.4092628" lon="8.166828"><ele>381.0</ele><time>2026-04-26T09:33:29.476Z</time></trkpt><trkpt lat="44.4093272" lon="8.1668643"><ele>381.0</ele><time>2026-04-26T09:33:30.473Z</time></trkpt><trkpt lat="44.4093903" lon="8.1669015"><ele>381.0</ele><time>2026-04-26T09:33:31.476Z</time></trkpt><trkpt lat="44.4094915" lon="8.166961"><ele>381.0</ele><time>2026-04-26T09:33:33.475Z</time></trkpt><trkpt lat="44.409565" lon="8.1670065"><ele>381.0</ele><time>2026-04-26T09:33:35.475Z</time></trkpt><trkpt lat="44.4096498" lon="8.1670482"><ele>381.0</ele><time>2026-04-26T09:33:37.48Z</time></trkpt><trkpt lat="44.4097572" lon="8.1671043"><ele>381.0</ele><time>2026-04-26T09:33:39.476Z</time></trkpt><trkpt lat="44.4098443" lon="8.1671745"><ele>382.20000000000005</ele><time>2026-04-26T09:33:41.478Z</time></trkpt><trkpt lat="44.4098748" lon="8.167258"><ele>383.40000000000003</ele><time>2026-04-26T09:34:03.479Z</time></trkpt><trkpt lat="44.4098283" lon="8.1673828"><ele>384.6</ele><time>2026-04-26T09:34:05.477Z</time></trkpt><trkpt lat="44.4097852" lon="8.1674783"><ele>385.8</ele><time>2026-04-26T09:34:06.478Z</time></trkpt><trkpt lat="44.4097338" lon="8.1675972"><ele>387.0</ele><time>2026-04-26T09:34:07.48Z</time></trkpt><trkpt lat="44.4096778" lon="8.1677288"><ele>386.75</ele><time>2026-04-26T09:34:08.476Z</time></trkpt><trkpt lat="44.4096197" lon="8.1678725"><ele>386.5</ele><time>2026-04-26T09:34:09.477Z</time></trkpt><trkpt lat="44.4095587" lon="8.1680172"><ele>386.25</ele><time>2026-04-26T09:34:10.476Z</time></trkpt><trkpt lat="44.409498" lon="8.1681528"><ele>386.0</ele><time>2026-04-26T09:34:11.477Z</time></trkpt><trkpt lat="44.409436" lon="8.1682905"><ele>386.0</ele><time>2026-04-26T09:34:12.473Z</time></trkpt><trkpt lat="44.4093713" lon="8.168433"><ele>386.0</ele><time>2026-04-26T09:34:13.474Z</time></trkpt><trkpt lat="44.4093017" lon="8.168581"><ele>386.0</ele><time>2026-04-26T09:34:14.475Z</time></trkpt><trkpt lat="44.4092277" lon="8.1687377"><ele>386.0</ele><time>2026-04-26T09:34:15.474Z</time></trkpt><trkpt lat="44.4091513" lon="8.1689005"><ele>387.0</ele><time>2026-04-26T09:34:16.476Z</time></trkpt><trkpt lat="44.4090742" lon="8.1690688"><ele>388.0</ele><time>2026-04-26T09:34:17.475Z</time></trkpt><trkpt lat="44.4090005" lon="8.1692477"><ele>389.0</ele><time>2026-04-26T09:34:18.475Z</time></trkpt><trkpt lat="44.4089312" lon="8.1694357"><ele>390.0</ele><time>2026-04-26T09:34:19.477Z</time></trkpt><trkpt lat="44.4088678" lon="8.1696307"><ele>387.6666666666667</ele><time>2026-04-26T09:34:20.477Z</time></trkpt><trkpt lat="44.4088137" lon="8.1698345"><ele>385.33333333333337</ele><time>2026-04-26T09:34:21.478Z</time></trkpt><trkpt lat="44.4087732" lon="8.1700477"><ele>383.0</ele><time>2026-04-26T09:34:22.476Z</time></trkpt><trkpt lat="44.4087495" lon="8.1702733"><ele>383.0</ele><time>2026-04-26T09:34:23.477Z</time></trkpt><trkpt lat="44.408745" lon="8.1705088"><ele>383.0</ele><time>2026-04-26T09:34:24.475Z</time></trkpt><trkpt lat="44.4087575" lon="8.170755"><ele>383.0</ele><time>2026-04-26T09:34:25.478Z</time></trkpt><trkpt lat="44.4087825" lon="8.171013"><ele>383.0</ele><time>2026-04-26T09:34:26.477Z</time></trkpt><trkpt lat="44.408809" lon="8.1712803"><ele>383.0</ele><time>2026-04-26T09:34:27.477Z</time></trkpt><trkpt lat="44.4088343" lon="8.1715522"><ele>383.0</ele><time>2026-04-26T09:34:28.477Z</time></trkpt><trkpt lat="44.4088563" lon="8.1718275"><ele>387.6666666666667</ele><time>2026-04-26T09:34:29.477Z</time></trkpt><trkpt lat="44.4088697" lon="8.1721068"><ele>392.33333333333337</ele><time>2026-04-26T09:34:30.477Z</time></trkpt><trkpt lat="44.4088667" lon="8.1723882"><ele>397.0</ele><time>2026-04-26T09:34:31.476Z</time></trkpt><trkpt lat="44.4088503" lon="8.1726562"><ele>392.6666666666667</ele><time>2026-04-26T09:34:32.477Z</time></trkpt><trkpt lat="44.4088252" lon="8.172904"><ele>388.33333333333337</ele><time>2026-04-26T09:34:33.478Z</time></trkpt><trkpt lat="44.4087947" lon="8.1731415"><ele>384.0</ele><time>2026-04-26T09:34:34.478Z</time></trkpt><trkpt lat="44.408761" lon="8.1733838"><ele>384.0</ele><time>2026-04-26T09:34:35.476Z</time></trkpt><trkpt lat="44.4087248" lon="8.1736278"><ele>384.0</ele><time>2026-04-26T09:34:36.475Z</time></trkpt><trkpt lat="44.4086898" lon="8.1738682"><ele>384.0</ele><time>2026-04-26T09:34:37.473Z</time></trkpt><trkpt lat="44.4086597" lon="8.1740983"><ele>384.33333333333337</ele><time>2026-04-26T09:34:38.474Z</time></trkpt><trkpt lat="44.4086343" lon="8.174316"><ele>384.6666666666667</ele><time>2026-04-26T09:34:39.472Z</time></trkpt><trkpt lat="44.4086132" lon="8.1745322"><ele>385.0</ele><time>2026-04-26T09:34:40.473Z</time></trkpt><trkpt lat="44.4085953" lon="8.1747487"><ele>386.0</ele><time>2026-04-26T09:34:41.475Z</time></trkpt><trkpt lat="44.4085787" lon="8.1749678"><ele>387.0</ele><time>2026-04-26T09:34:42.475Z</time></trkpt><trkpt lat="44.4085608" lon="8.1751923"><ele>388.0</ele><time>2026-04-26T09:34:43.476Z</time></trkpt><trkpt lat="44.408543" lon="8.17542"><ele>388.0</ele><time>2026-04-26T09:34:44.477Z</time></trkpt><trkpt lat="44.4085273" lon="8.1756477"><ele>388.0</ele><time>2026-04-26T09:34:45.476Z</time></trkpt><trkpt lat="44.4085127" lon="8.1758767"><ele>388.0</ele><time>2026-04-26T09:34:46.475Z</time></trkpt><trkpt lat="44.408499" lon="8.1761058"><ele>389.0</ele><time>2026-04-26T09:34:47.477Z</time></trkpt><trkpt lat="44.4084855" lon="8.1763325"><ele>390.0</ele><time>2026-04-26T09:34:48.477Z</time></trkpt><trkpt lat="44.4084715" lon="8.1765542"><ele>391.0</ele><time>2026-04-26T09:34:49.476Z</time></trkpt><trkpt lat="44.4084573" lon="8.1767698"><ele>391.6666666666667</ele><time>2026-04-26T09:34:50.476Z</time></trkpt><trkpt lat="44.4084428" lon="8.1769848"><ele>392.33333333333337</ele><time>2026-04-26T09:34:51.496Z</time></trkpt><trkpt lat="44.4084297" lon="8.1772023"><ele>393.0</ele><time>2026-04-26T09:34:52.479Z</time></trkpt><trkpt lat="44.4084163" lon="8.1774232"><ele>394.0</ele><time>2026-04-26T09:34:53.486Z</time></trkpt><trkpt lat="44.4084017" lon="8.1776477"><ele>395.0</ele><time>2026-04-26T09:34:54.479Z</time></trkpt><trkpt lat="44.4083868" lon="8.1778763"><ele>396.0</ele><time>2026-04-26T09:34:55.478Z</time></trkpt><trkpt lat="44.4083733" lon="8.1781085"><ele>396.0</ele><time>2026-04-26T09:34:56.478Z</time></trkpt><trkpt lat="44.4083597" lon="8.1783433"><ele>396.0</ele><time>2026-04-26T09:34:57.479Z</time></trkpt><trkpt lat="44.408344" lon="8.1785813"><ele>396.0</ele><time>2026-04-26T09:34:58.479Z</time></trkpt><trkpt lat="44.408328" lon="8.1788227"><ele>397.0</ele><time>2026-04-26T09:34:59.479Z</time></trkpt><trkpt lat="44.4083132" lon="8.1790667"><ele>398.0</ele><time>2026-04-26T09:35:00.477Z</time></trkpt><trkpt lat="44.4082978" lon="8.1793135"><ele>399.0</ele><time>2026-04-26T09:35:01.476Z</time></trkpt><trkpt lat="44.4082825" lon="8.1795647"><ele>399.0</ele><time>2026-04-26T09:35:02.475Z</time></trkpt><trkpt lat="44.4082663" lon="8.1798165"><ele>399.0</ele><time>2026-04-26T09:35:03.476Z</time></trkpt><trkpt lat="44.4082507" lon="8.1800647"><ele>399.0</ele><time>2026-04-26T09:35:04.476Z</time></trkpt><trkpt lat="44.4082352" lon="8.1803038"><ele>400.0</ele><time>2026-04-26T09:35:05.479Z</time></trkpt><trkpt lat="44.408219" lon="8.1805335"><ele>401.0</ele><time>2026-04-26T09:35:06.476Z</time></trkpt><trkpt lat="44.4082008" lon="8.1807507"><ele>402.0</ele><time>2026-04-26T09:35:07.477Z</time></trkpt><trkpt lat="44.4081768" lon="8.1809605"><ele>401.0</ele><time>2026-04-26T09:35:08.477Z</time></trkpt><trkpt lat="44.408143" lon="8.181172"><ele>400.0</ele><time>2026-04-26T09:35:09.477Z</time></trkpt><trkpt lat="44.4080962" lon="8.1813858"><ele>399.0</ele><time>2026-04-26T09:35:10.477Z</time></trkpt><trkpt lat="44.4080335" lon="8.1816013"><ele>397.0</ele><time>2026-04-26T09:35:11.477Z</time></trkpt><trkpt lat="44.407955" lon="8.1818083"><ele>395.0</ele><time>2026-04-26T09:35:12.476Z</time></trkpt><trkpt lat="44.4078692" lon="8.1819923"><ele>393.0</ele><time>2026-04-26T09:35:13.477Z</time></trkpt><trkpt lat="44.4077807" lon="8.1821568"><ele>393.0</ele><time>2026-04-26T09:35:14.475Z</time></trkpt><trkpt lat="44.4076915" lon="8.1823073"><ele>393.0</ele><time>2026-04-26T09:35:15.475Z</time></trkpt><trkpt lat="44.4076015" lon="8.1824513"><ele>393.0</ele><time>2026-04-26T09:35:16.475Z</time></trkpt><trkpt lat="44.4075152" lon="8.182588"><ele>393.0</ele><time>2026-04-26T09:35:17.474Z</time></trkpt><trkpt lat="44.4074308" lon="8.1827193"><ele>393.75</ele><time>2026-04-26T09:35:18.473Z</time></trkpt><trkpt lat="44.4073405" lon="8.1828572"><ele>394.5</ele><time>2026-04-26T09:35:19.474Z</time></trkpt><trkpt lat="44.4072433" lon="8.1830093"><ele>395.25</ele><time>2026-04-26T09:35:20.473Z</time></trkpt><trkpt lat="44.4071378" lon="8.1831765"><ele>396.0</ele><time>2026-04-26T09:35:21.473Z</time></trkpt><trkpt lat="44.4070247" lon="8.1833563"><ele>393.0</ele><time>2026-04-26T09:35:22.477Z</time></trkpt><trkpt lat="44.4069072" lon="8.1835422"><ele>390.0</ele><time>2026-04-26T09:35:23.474Z</time></trkpt><trkpt lat="44.4067875" lon="8.1837328"><ele>387.0</ele><time>2026-04-26T09:35:24.474Z</time></trkpt><trkpt lat="44.4066588" lon="8.1839343"><ele>386.66666666666663</ele><time>2026-04-26T09:35:25.474Z</time></trkpt><trkpt lat="44.406522" lon="8.1841437"><ele>386.3333333333333</ele><time>2026-04-26T09:35:26.472Z</time></trkpt><trkpt lat="44.4063793" lon="8.1843585"><ele>386.0</ele><time>2026-04-26T09:35:27.479Z</time></trkpt><trkpt lat="44.4062367" lon="8.1845727"><ele>386.0</ele><time>2026-04-26T09:35:28.472Z</time></trkpt><trkpt lat="44.4060897" lon="8.184785"><ele>386.0</ele><time>2026-04-26T09:35:29.483Z</time></trkpt><trkpt lat="44.405935" lon="8.184994"><ele>386.0</ele><time>2026-04-26T09:35:30.473Z</time></trkpt><trkpt lat="44.4057742" lon="8.1851985"><ele>387.0</ele><time>2026-04-26T09:35:31.474Z</time></trkpt><trkpt lat="44.4056123" lon="8.1853997"><ele>388.0</ele><time>2026-04-26T09:35:32.473Z</time></trkpt><trkpt lat="44.4054487" lon="8.1855988"><ele>389.0</ele><time>2026-04-26T09:35:33.474Z</time></trkpt><trkpt lat="44.4052815" lon="8.1857937"><ele>391.3333333333333</ele><time>2026-04-26T09:35:34.475Z</time></trkpt><trkpt lat="44.4051095" lon="8.1859812"><ele>393.66666666666663</ele><time>2026-04-26T09:35:35.475Z</time></trkpt><trkpt lat="44.4049347" lon="8.18616"><ele>396.0</ele><time>2026-04-26T09:35:36.473Z</time></trkpt><trkpt lat="44.4047572" lon="8.1863308"><ele>396.0</ele><time>2026-04-26T09:35:37.473Z</time></trkpt><trkpt lat="44.4045785" lon="8.1864963"><ele>396.0</ele><time>2026-04-26T09:35:38.473Z</time></trkpt><trkpt lat="44.4043997" lon="8.1866583"><ele>396.0</ele><time>2026-04-26T09:35:39.472Z</time></trkpt><trkpt lat="44.4042197" lon="8.1868147"><ele>396.0</ele><time>2026-04-26T09:35:40.471Z</time></trkpt><trkpt lat="44.4040365" lon="8.186964"><ele>396.0</ele><time>2026-04-26T09:35:41.471Z</time></trkpt><trkpt lat="44.40385" lon="8.1871042"><ele>396.0</ele><time>2026-04-26T09:35:42.472Z</time></trkpt><trkpt lat="44.4036623" lon="8.187239"><ele>398.66666666666663</ele><time>2026-04-26T09:35:43.475Z</time></trkpt><trkpt lat="44.4034778" lon="8.1873703"><ele>401.3333333333333</ele><time>2026-04-26T09:35:44.473Z</time></trkpt><trkpt lat="44.4032975" lon="8.1874975"><ele>404.0</ele><time>2026-04-26T09:35:45.472Z</time></trkpt><trkpt lat="44.4031245" lon="8.1876165"><ele>399.66666666666663</ele><time>2026-04-26T09:35:46.473Z</time></trkpt><trkpt lat="44.4029612" lon="8.1877238"><ele>395.33333333333337</ele><time>2026-04-26T09:35:47.473Z</time></trkpt><trkpt lat="44.4028008" lon="8.187819"><ele>391.0</ele><time>2026-04-26T09:35:48.471Z</time></trkpt><trkpt lat="44.4026333" lon="8.1878973"><ele>391.0</ele><time>2026-04-26T09:35:49.472Z</time></trkpt><trkpt lat="44.4024558" lon="8.1879515"><ele>391.0</ele><time>2026-04-26T09:35:50.471Z</time></trkpt><trkpt lat="44.4022695" lon="8.1879798"><ele>391.0</ele><time>2026-04-26T09:35:51.47Z</time></trkpt><trkpt lat="44.4020822" lon="8.1879858"><ele>390.33333333333337</ele><time>2026-04-26T09:35:52.471Z</time></trkpt><trkpt lat="44.4018947" lon="8.1879667"><ele>389.66666666666663</ele><time>2026-04-26T09:35:53.471Z</time></trkpt><trkpt lat="44.4017053" lon="8.1879207"><ele>389.0</ele><time>2026-04-26T09:35:54.477Z</time></trkpt><trkpt lat="44.4015142" lon="8.1878448"><ele>394.3333333333333</ele><time>2026-04-26T09:35:55.476Z</time></trkpt><trkpt lat="44.4013192" lon="8.1877498"><ele>399.66666666666663</ele><time>2026-04-26T09:35:56.474Z</time></trkpt><trkpt lat="44.4011207" lon="8.1876497"><ele>405.0</ele><time>2026-04-26T09:35:57.474Z</time></trkpt><trkpt lat="44.4009212" lon="8.1875512"><ele>405.0</ele><time>2026-04-26T09:35:58.475Z</time></trkpt><trkpt lat="44.4007255" lon="8.187445"><ele>405.0</ele><time>2026-04-26T09:35:59.473Z</time></trkpt><trkpt lat="44.4005243" lon="8.1873515"><ele>405.0</ele><time>2026-04-26T09:36:00.474Z</time></trkpt><trkpt lat="44.4003225" lon="8.1872622"><ele>402.33333333333337</ele><time>2026-04-26T09:36:01.475Z</time></trkpt><trkpt lat="44.4001263" lon="8.187166"><ele>399.6666666666667</ele><time>2026-04-26T09:36:02.472Z</time></trkpt><trkpt lat="44.3999427" lon="8.1870675"><ele>397.0</ele><time>2026-04-26T09:36:03.473Z</time></trkpt><trkpt lat="44.3997738" lon="8.1869517"><ele>397.33333333333337</ele><time>2026-04-26T09:36:04.473Z</time></trkpt><trkpt lat="44.3996177" lon="8.186803"><ele>397.66666666666663</ele><time>2026-04-26T09:36:05.473Z</time></trkpt><trkpt lat="44.3994633" lon="8.1866275"><ele>398.0</ele><time>2026-04-26T09:36:06.471Z</time></trkpt><trkpt lat="44.3993068" lon="8.1864342"><ele>398.0</ele><time>2026-04-26T09:36:07.487Z</time></trkpt><trkpt lat="44.399148" lon="8.1862385"><ele>398.0</ele><time>2026-04-26T09:36:08.475Z</time></trkpt><trkpt lat="44.3989863" lon="8.1860403"><ele>398.0</ele><time>2026-04-26T09:36:09.481Z</time></trkpt><trkpt lat="44.3988248" lon="8.185842"><ele>401.3333333333333</ele><time>2026-04-26T09:36:10.472Z</time></trkpt><trkpt lat="44.3986663" lon="8.1856468"><ele>404.66666666666663</ele><time>2026-04-26T09:36:11.473Z</time></trkpt><trkpt lat="44.3985132" lon="8.1854558"><ele>408.0</ele><time>2026-04-26T09:36:12.473Z</time></trkpt><trkpt lat="44.3983688" lon="8.1852727"><ele>408.0</ele><time>2026-04-26T09:36:13.474Z</time></trkpt><trkpt lat="44.3982357" lon="8.1850943"><ele>408.0</ele><time>2026-04-26T09:36:14.473Z</time></trkpt><trkpt lat="44.3981155" lon="8.1848937"><ele>408.0</ele><time>2026-04-26T09:36:15.472Z</time></trkpt><trkpt lat="44.3980008" lon="8.1846748"><ele>410.66666666666663</ele><time>2026-04-26T09:36:16.472Z</time></trkpt><trkpt lat="44.3978903" lon="8.1844423"><ele>413.3333333333333</ele><time>2026-04-26T09:36:17.473Z</time></trkpt><trkpt lat="44.397789" lon="8.1841963"><ele>416.0</ele><time>2026-04-26T09:36:18.472Z</time></trkpt><trkpt lat="44.3977013" lon="8.1839372"><ele>416.0</ele><time>2026-04-26T09:36:19.475Z</time></trkpt><trkpt lat="44.3976233" lon="8.1836718"><ele>416.0</ele><time>2026-04-26T09:36:20.474Z</time></trkpt><trkpt lat="44.3975447" lon="8.183411"><ele>416.0</ele><time>2026-04-26T09:36:21.475Z</time></trkpt><trkpt lat="44.3974563" lon="8.1831592"><ele>412.3333333333333</ele><time>2026-04-26T09:36:22.476Z</time></trkpt><trkpt lat="44.39735" lon="8.182924"><ele>408.66666666666663</ele><time>2026-04-26T09:36:23.475Z</time></trkpt><trkpt lat="44.3972247" lon="8.1827057"><ele>405.0</ele><time>2026-04-26T09:36:24.475Z</time></trkpt><trkpt lat="44.3970838" lon="8.1825035"><ele>407.33333333333337</ele><time>2026-04-26T09:36:25.477Z</time></trkpt><trkpt lat="44.3969365" lon="8.1823297"><ele>409.6666666666667</ele><time>2026-04-26T09:36:26.475Z</time></trkpt><trkpt lat="44.3967878" lon="8.1821977"><ele>412.0</ele><time>2026-04-26T09:36:27.474Z</time></trkpt><trkpt lat="44.3966353" lon="8.1821075"><ele>412.0</ele><time>2026-04-26T09:36:28.475Z</time></trkpt><trkpt lat="44.3964743" lon="8.1820578"><ele>412.0</ele><time>2026-04-26T09:36:29.475Z</time></trkpt><trkpt lat="44.3963022" lon="8.1820495"><ele>412.0</ele><time>2026-04-26T09:36:30.474Z</time></trkpt><trkpt lat="44.3961188" lon="8.1820718"><ele>413.0</ele><time>2026-04-26T09:36:31.474Z</time></trkpt><trkpt lat="44.3959392" lon="8.1821067"><ele>414.0</ele><time>2026-04-26T09:36:32.473Z</time></trkpt><trkpt lat="44.3957563" lon="8.1821472"><ele>415.0</ele><time>2026-04-26T09:36:33.473Z</time></trkpt><trkpt lat="44.3955695" lon="8.182189"><ele>411.33333333333337</ele><time>2026-04-26T09:36:34.474Z</time></trkpt><trkpt lat="44.3953798" lon="8.1822405"><ele>407.66666666666663</ele><time>2026-04-26T09:36:35.472Z</time></trkpt><trkpt lat="44.3951905" lon="8.1823127"><ele>404.0</ele><time>2026-04-26T09:36:36.471Z</time></trkpt><trkpt lat="44.3950038" lon="8.1824083"><ele>405.66666666666663</ele><time>2026-04-26T09:36:37.471Z</time></trkpt><trkpt lat="44.39482" lon="8.1825177"><ele>407.33333333333337</ele><time>2026-04-26T09:36:38.472Z</time></trkpt><trkpt lat="44.394639" lon="8.1826377"><ele>409.0</ele><time>2026-04-26T09:36:39.471Z</time></trkpt><trkpt lat="44.3944575" lon="8.1827568"><ele>409.0</ele><time>2026-04-26T09:36:40.471Z</time></trkpt><trkpt lat="44.394276" lon="8.1828722"><ele>409.0</ele><time>2026-04-26T09:36:41.472Z</time></trkpt><trkpt lat="44.3940903" lon="8.1829737"><ele>409.0</ele><time>2026-04-26T09:36:42.471Z</time></trkpt><trkpt lat="44.3939103" lon="8.1830562"><ele>408.6666666666667</ele><time>2026-04-26T09:36:43.473Z</time></trkpt><trkpt lat="44.393733" lon="8.1831208"><ele>408.33333333333337</ele><time>2026-04-26T09:36:44.473Z</time></trkpt><trkpt lat="44.3935548" lon="8.1831685"><ele>408.0</ele><time>2026-04-26T09:36:45.473Z</time></trkpt><trkpt lat="44.3933773" lon="8.1831947"><ele>408.0</ele><time>2026-04-26T09:36:46.472Z</time></trkpt><trkpt lat="44.3931993" lon="8.1831927"><ele>408.0</ele><time>2026-04-26T09:36:47.471Z</time></trkpt><trkpt lat="44.3930192" lon="8.1831723"><ele>408.0</ele><time>2026-04-26T09:36:48.471Z</time></trkpt><trkpt lat="44.3928452" lon="8.1831503"><ele>407.66666666666663</ele><time>2026-04-26T09:36:49.471Z</time></trkpt><trkpt lat="44.392677" lon="8.18314"><ele>407.3333333333333</ele><time>2026-04-26T09:36:50.474Z</time></trkpt><trkpt lat="44.3925113" lon="8.1831572"><ele>407.0</ele><time>2026-04-26T09:36:51.472Z</time></trkpt><trkpt lat="44.3923468" lon="8.1832082"><ele>408.3333333333333</ele><time>2026-04-26T09:36:52.473Z</time></trkpt><trkpt lat="44.3921873" lon="8.1832928"><ele>409.66666666666663</ele><time>2026-04-26T09:36:53.471Z</time></trkpt><trkpt lat="44.3920383" lon="8.1834137"><ele>411.0</ele><time>2026-04-26T09:36:54.472Z</time></trkpt><trkpt lat="44.391902" lon="8.1835707"><ele>411.0</ele><time>2026-04-26T09:36:55.472Z</time></trkpt><trkpt lat="44.3917862" lon="8.1837275"><ele>411.0</ele><time>2026-04-26T09:36:56.473Z</time></trkpt><trkpt lat="44.3916863" lon="8.183868"><ele>411.0</ele><time>2026-04-26T09:36:57.474Z</time></trkpt><trkpt lat="44.3916018" lon="8.183987"><ele>411.0</ele><time>2026-04-26T09:36:58.472Z</time></trkpt><trkpt lat="44.3915322" lon="8.1840847"><ele>411.0</ele><time>2026-04-26T09:36:59.472Z</time></trkpt><trkpt lat="44.3914703" lon="8.1841703"><ele>411.0</ele><time>2026-04-26T09:37:00.472Z</time></trkpt><trkpt lat="44.3914108" lon="8.1842537"><ele>411.0</ele><time>2026-04-26T09:37:01.473Z</time></trkpt><trkpt lat="44.391351" lon="8.1843382"><ele>411.0</ele><time>2026-04-26T09:37:02.474Z</time></trkpt><trkpt lat="44.3912888" lon="8.1844238"><ele>411.0</ele><time>2026-04-26T09:37:03.474Z</time></trkpt><trkpt lat="44.3912235" lon="8.184513"><ele>411.0</ele><time>2026-04-26T09:37:04.472Z</time></trkpt><trkpt lat="44.3911555" lon="8.1846038"><ele>411.0</ele><time>2026-04-26T09:37:05.471Z</time></trkpt><trkpt lat="44.3910865" lon="8.184702"><ele>411.0</ele><time>2026-04-26T09:37:06.471Z</time></trkpt><trkpt lat="44.3910173" lon="8.1848072"><ele>411.0</ele><time>2026-04-26T09:37:07.471Z</time></trkpt><trkpt lat="44.3909523" lon="8.1849165"><ele>411.0</ele><time>2026-04-26T09:37:08.473Z</time></trkpt><trkpt lat="44.3908937" lon="8.1850272"><ele>411.0</ele><time>2026-04-26T09:37:09.473Z</time></trkpt><trkpt lat="44.3908415" lon="8.1851398"><ele>412.0</ele><time>2026-04-26T09:37:10.474Z</time></trkpt><trkpt lat="44.3907947" lon="8.1852563"><ele>413.0</ele><time>2026-04-26T09:37:11.474Z</time></trkpt><trkpt lat="44.3907572" lon="8.1853833"><ele>414.0</ele><time>2026-04-26T09:37:12.473Z</time></trkpt><trkpt lat="44.3907267" lon="8.1855157"><ele>415.0</ele><time>2026-04-26T09:37:13.474Z</time></trkpt><trkpt lat="44.3907017" lon="8.1856577"><ele>416.0</ele><time>2026-04-26T09:37:14.474Z</time></trkpt><trkpt lat="44.3906872" lon="8.1858143"><ele>417.75</ele><time>2026-04-26T09:37:15.474Z</time></trkpt><trkpt lat="44.3906795" lon="8.1859885"><ele>419.5</ele><time>2026-04-26T09:37:16.474Z</time></trkpt><trkpt lat="44.3906692" lon="8.1861772"><ele>421.25</ele><time>2026-04-26T09:37:17.475Z</time></trkpt><trkpt lat="44.3906527" lon="8.1863843"><ele>423.0</ele><time>2026-04-26T09:37:18.473Z</time></trkpt><trkpt lat="44.3906303" lon="8.1865908"><ele>423.0</ele><time>2026-04-26T09:37:19.474Z</time></trkpt><trkpt lat="44.3906072" lon="8.1867967"><ele>423.0</ele><time>2026-04-26T09:37:20.474Z</time></trkpt><trkpt lat="44.3905878" lon="8.1869983"><ele>423.0</ele><time>2026-04-26T09:37:21.474Z</time></trkpt><trkpt lat="44.3905727" lon="8.1871937"><ele>423.0</ele><time>2026-04-26T09:37:22.475Z</time></trkpt><trkpt lat="44.3905597" lon="8.1873833"><ele>424.25</ele><time>2026-04-26T09:37:23.476Z</time></trkpt><trkpt lat="44.3905465" lon="8.1875663"><ele>425.5</ele><time>2026-04-26T09:37:24.474Z</time></trkpt><trkpt lat="44.3905345" lon="8.187745"><ele>426.75</ele><time>2026-04-26T09:37:25.474Z</time></trkpt><trkpt lat="44.3905237" lon="8.187919"><ele>428.0</ele><time>2026-04-26T09:37:26.476Z</time></trkpt><trkpt lat="44.3905118" lon="8.1880912"><ele>423.5</ele><time>2026-04-26T09:37:27.474Z</time></trkpt><trkpt lat="44.3904963" lon="8.188264"><ele>419.0</ele><time>2026-04-26T09:37:28.475Z</time></trkpt><trkpt lat="44.3904717" lon="8.188429"><ele>414.5</ele><time>2026-04-26T09:37:29.475Z</time></trkpt><trkpt lat="44.3904368" lon="8.1885808"><ele>410.0</ele><time>2026-04-26T09:37:30.474Z</time></trkpt><trkpt lat="44.390392" lon="8.1887215"><ele>409.99999999999994</ele><time>2026-04-26T09:37:31.473Z</time></trkpt><trkpt lat="44.3903387" lon="8.1888465"><ele>410.0</ele><time>2026-04-26T09:37:32.475Z</time></trkpt><trkpt lat="44.3902802" lon="8.188957"><ele>410.0</ele><time>2026-04-26T09:37:33.476Z</time></trkpt><trkpt lat="44.3902277" lon="8.1890435"><ele>410.0</ele><time>2026-04-26T09:37:34.476Z</time></trkpt><trkpt lat="44.390178" lon="8.1891087"><ele>409.99999999999994</ele><time>2026-04-26T09:37:35.477Z</time></trkpt><trkpt lat="44.3901275" lon="8.1891682"><ele>410.0</ele><time>2026-04-26T09:37:36.475Z</time></trkpt><trkpt lat="44.390079" lon="8.1892353"><ele>410.0</ele><time>2026-04-26T09:37:37.477Z</time></trkpt><trkpt lat="44.3900477" lon="8.1893242"><ele>410.0</ele><time>2026-04-26T09:37:38.475Z</time></trkpt><trkpt lat="44.390044" lon="8.1894343"><ele>410.0</ele><time>2026-04-26T09:37:39.474Z</time></trkpt><trkpt lat="44.3900555" lon="8.1895652"><ele>410.0</ele><time>2026-04-26T09:37:40.474Z</time></trkpt><trkpt lat="44.3900773" lon="8.18971"><ele>410.0</ele><time>2026-04-26T09:37:41.474Z</time></trkpt><trkpt lat="44.390104" lon="8.1898642"><ele>410.0</ele><time>2026-04-26T09:37:42.478Z</time></trkpt><trkpt lat="44.3901332" lon="8.1900235"><ele>410.0</ele><time>2026-04-26T09:37:43.476Z</time></trkpt><trkpt lat="44.3901658" lon="8.190179"><ele>410.0</ele><time>2026-04-26T09:37:44.474Z</time></trkpt><trkpt lat="44.3902" lon="8.1903198"><ele>410.0</ele><time>2026-04-26T09:37:45.473Z</time></trkpt><trkpt lat="44.3902312" lon="8.1904453"><ele>410.0</ele><time>2026-04-26T09:37:46.475Z</time></trkpt><trkpt lat="44.3902555" lon="8.1905495"><ele>409.99999999999994</ele><time>2026-04-26T09:37:47.475Z</time></trkpt><trkpt lat="44.3902683" lon="8.190641"><ele>410.0</ele><time>2026-04-26T09:37:48.476Z</time></trkpt><trkpt lat="44.390219" lon="8.1907965"><ele>410.0</ele><time>2026-04-26T09:37:50.476Z</time></trkpt><trkpt lat="44.3901618" lon="8.1908548"><ele>410.0</ele><time>2026-04-26T09:37:51.475Z</time></trkpt><trkpt lat="44.3900887" lon="8.1909143"><ele>409.99999999999994</ele><time>2026-04-26T09:37:52.475Z</time></trkpt><trkpt lat="44.3900097" lon="8.1909743"><ele>410.0</ele><time>2026-04-26T09:37:53.473Z</time></trkpt><trkpt lat="44.3899325" lon="8.1910342"><ele>409.99999999999994</ele><time>2026-04-26T09:37:54.471Z</time></trkpt><trkpt lat="44.3898565" lon="8.1911003"><ele>410.0</ele><time>2026-04-26T09:37:55.472Z</time></trkpt><trkpt lat="44.389784" lon="8.1911743"><ele>410.0</ele><time>2026-04-26T09:37:56.471Z</time></trkpt><trkpt lat="44.3897148" lon="8.1912515"><ele>410.0</ele><time>2026-04-26T09:37:57.473Z</time></trkpt><trkpt lat="44.3896448" lon="8.1913277"><ele>409.99999999999994</ele><time>2026-04-26T09:37:58.473Z</time></trkpt><trkpt lat="44.389578" lon="8.1913955"><ele>410.0</ele><time>2026-04-26T09:37:59.474Z</time></trkpt><trkpt lat="44.3895157" lon="8.1914567"><ele>409.16666666666663</ele><time>2026-04-26T09:38:00.474Z</time></trkpt><trkpt lat="44.3894573" lon="8.1915148"><ele>408.3333333333333</ele><time>2026-04-26T09:38:01.474Z</time></trkpt><trkpt lat="44.3894" lon="8.1915683"><ele>407.5</ele><time>2026-04-26T09:38:02.474Z</time></trkpt><trkpt lat="44.389308" lon="8.1916542"><ele>406.66666666666663</ele><time>2026-04-26T09:38:04.473Z</time></trkpt><trkpt lat="44.3892878" lon="8.1917717"><ele>405.8333333333333</ele><time>2026-04-26T09:38:07.475Z</time></trkpt><trkpt lat="44.3893388" lon="8.191906"><ele>405.0</ele><time>2026-04-26T09:38:09.474Z</time></trkpt><trkpt lat="44.3893657" lon="8.191996"><ele>405.0</ele><time>2026-04-26T09:38:10.476Z</time></trkpt><trkpt lat="44.3893947" lon="8.1920935"><ele>405.0</ele><time>2026-04-26T09:38:11.479Z</time></trkpt><trkpt lat="44.3894265" lon="8.192194"><ele>405.0</ele><time>2026-04-26T09:38:12.475Z</time></trkpt><trkpt lat="44.3894605" lon="8.1922957"><ele>405.0</ele><time>2026-04-26T09:38:13.475Z</time></trkpt><trkpt lat="44.3894963" lon="8.1923987"><ele>405.0</ele><time>2026-04-26T09:38:14.474Z</time></trkpt><trkpt lat="44.3895367" lon="8.1925088"><ele>405.0</ele><time>2026-04-26T09:38:15.475Z</time></trkpt><trkpt lat="44.3895752" lon="8.1926258"><ele>405.0</ele><time>2026-04-26T09:38:16.475Z</time></trkpt><trkpt lat="44.3896118" lon="8.1927442"><ele>405.0</ele><time>2026-04-26T09:38:17.474Z</time></trkpt><trkpt lat="44.3896487" lon="8.1928642"><ele>405.0</ele><time>2026-04-26T09:38:18.474Z</time></trkpt><trkpt lat="44.3896873" lon="8.1929885"><ele>405.0</ele><time>2026-04-26T09:38:19.474Z</time></trkpt><trkpt lat="44.389729" lon="8.1931153"><ele>405.0</ele><time>2026-04-26T09:38:20.475Z</time></trkpt><trkpt lat="44.3897738" lon="8.193247"><ele>405.0</ele><time>2026-04-26T09:38:21.476Z</time></trkpt><trkpt lat="44.389821" lon="8.1933828"><ele>405.0</ele><time>2026-04-26T09:38:22.477Z</time></trkpt><trkpt lat="44.3898672" lon="8.1935207"><ele>405.0</ele><time>2026-04-26T09:38:23.478Z</time></trkpt><trkpt lat="44.3899133" lon="8.1936598"><ele>405.0</ele><time>2026-04-26T09:38:24.479Z</time></trkpt><trkpt lat="44.3899612" lon="8.1937987"><ele>405.0</ele><time>2026-04-26T09:38:25.478Z</time></trkpt><trkpt lat="44.3900097" lon="8.1939385"><ele>404.8</ele><time>2026-04-26T09:38:26.478Z</time></trkpt><trkpt lat="44.3900573" lon="8.1940807"><ele>404.6</ele><time>2026-04-26T09:38:27.477Z</time></trkpt><trkpt lat="44.3901058" lon="8.1942228"><ele>404.4</ele><time>2026-04-26T09:38:28.476Z</time></trkpt><trkpt lat="44.3901503" lon="8.1943587"><ele>404.2</ele><time>2026-04-26T09:38:29.477Z</time></trkpt><trkpt lat="44.3901925" lon="8.194487"><ele>404.0</ele><time>2026-04-26T09:38:30.477Z</time></trkpt><trkpt lat="44.3902353" lon="8.1946122"><ele>404.0</ele><time>2026-04-26T09:38:31.475Z</time></trkpt><trkpt lat="44.390277" lon="8.1947415"><ele>404.0</ele><time>2026-04-26T09:38:32.475Z</time></trkpt><trkpt lat="44.3903213" lon="8.1948703"><ele>404.0</ele><time>2026-04-26T09:38:33.476Z</time></trkpt><trkpt lat="44.390365" lon="8.1950005"><ele>404.0</ele><time>2026-04-26T09:38:34.475Z</time></trkpt><trkpt lat="44.390403" lon="8.1951268"><ele>404.0</ele><time>2026-04-26T09:38:35.478Z</time></trkpt><trkpt lat="44.3904417" lon="8.195256"><ele>404.49999999999994</ele><time>2026-04-26T09:38:36.477Z</time></trkpt><trkpt lat="44.39049" lon="8.1953818"><ele>405.0</ele><time>2026-04-26T09:38:37.477Z</time></trkpt><trkpt lat="44.390543" lon="8.1954987"><ele>405.5</ele><time>2026-04-26T09:38:38.477Z</time></trkpt><trkpt lat="44.390595" lon="8.1955968"><ele>406.0</ele><time>2026-04-26T09:38:39.475Z</time></trkpt><trkpt lat="44.390641" lon="8.1956775"><ele>406.49999999999994</ele><time>2026-04-26T09:38:40.478Z</time></trkpt><trkpt lat="44.390696" lon="8.1957513"><ele>407.0</ele><time>2026-04-26T09:38:42.474Z</time></trkpt><trkpt lat="44.3907827" lon="8.1957767"><ele>406.99999999999994</ele><time>2026-04-26T09:38:56.477Z</time></trkpt><trkpt lat="44.390908" lon="8.1957337"><ele>407.0</ele><time>2026-04-26T09:38:58.475Z</time></trkpt><trkpt lat="44.3909915" lon="8.1957168"><ele>407.0</ele><time>2026-04-26T09:38:59.476Z</time></trkpt><trkpt lat="44.3910732" lon="8.1957037"><ele>407.0</ele><time>2026-04-26T09:39:00.475Z</time></trkpt><trkpt lat="44.3911393" lon="8.1956885"><ele>406.99999999999994</ele><time>2026-04-26T09:39:01.476Z</time></trkpt><trkpt lat="44.3912255" lon="8.1956888"><ele>407.0</ele><time>2026-04-26T09:39:03.476Z</time></trkpt><trkpt lat="44.3912723" lon="8.1957827"><ele>406.99999999999994</ele><time>2026-04-26T09:39:05.473Z</time></trkpt><trkpt lat="44.3912823" lon="8.1958768"><ele>407.0</ele><time>2026-04-26T09:39:06.474Z</time></trkpt><trkpt lat="44.3912915" lon="8.19599"><ele>407.0</ele><time>2026-04-26T09:39:07.473Z</time></trkpt><trkpt lat="44.3912968" lon="8.1960918"><ele>407.0</ele><time>2026-04-26T09:39:08.474Z</time></trkpt><trkpt lat="44.3912623" lon="8.1962463"><ele>406.99999999999994</ele><time>2026-04-26T09:39:10.48Z</time></trkpt><trkpt lat="44.3912155" lon="8.1963087"><ele>407.0</ele><time>2026-04-26T09:39:11.474Z</time></trkpt><trkpt lat="44.3911535" lon="8.1963702"><ele>406.99999999999994</ele><time>2026-04-26T09:39:12.477Z</time></trkpt><trkpt lat="44.3910858" lon="8.1964215"><ele>407.0</ele><time>2026-04-26T09:39:13.475Z</time></trkpt><trkpt lat="44.3910183" lon="8.1964815"><ele>407.0</ele><time>2026-04-26T09:39:14.475Z</time></trkpt><trkpt lat="44.3909612" lon="8.1965592"><ele>407.0</ele><time>2026-04-26T09:39:15.474Z</time></trkpt><trkpt lat="44.3909038" lon="8.196657"><ele>406.99999999999994</ele><time>2026-04-26T09:39:16.478Z</time></trkpt><trkpt lat="44.3908435" lon="8.1967597"><ele>407.0</ele><time>2026-04-26T09:39:17.481Z</time></trkpt><trkpt lat="44.3907852" lon="8.1968567"><ele>406.3333333333333</ele><time>2026-04-26T09:39:18.477Z</time></trkpt><trkpt lat="44.390729" lon="8.196945"><ele>405.66666666666663</ele><time>2026-04-26T09:39:19.476Z</time></trkpt><trkpt lat="44.3906783" lon="8.1970257"><ele>405.0</ele><time>2026-04-26T09:39:20.477Z</time></trkpt><trkpt lat="44.3906318" lon="8.1971018"><ele>404.33333333333337</ele><time>2026-04-26T09:39:21.475Z</time></trkpt><trkpt lat="44.3905857" lon="8.1971815"><ele>403.6666666666667</ele><time>2026-04-26T09:39:22.476Z</time></trkpt><trkpt lat="44.3905368" lon="8.1972643"><ele>403.0</ele><time>2026-04-26T09:39:23.476Z</time></trkpt><trkpt lat="44.390484" lon="8.1973483"><ele>405.5714285714286</ele><time>2026-04-26T09:39:24.476Z</time></trkpt><trkpt lat="44.3904325" lon="8.197426"><ele>408.1428571428571</ele><time>2026-04-26T09:39:25.475Z</time></trkpt><trkpt lat="44.3903895" lon="8.1975018"><ele>410.7142857142857</ele><time>2026-04-26T09:39:26.476Z</time></trkpt><trkpt lat="44.3903658" lon="8.1975867"><ele>413.28571428571433</ele><time>2026-04-26T09:39:27.475Z</time></trkpt><trkpt lat="44.390362" lon="8.197684"><ele>415.8571428571429</ele><time>2026-04-26T09:39:28.478Z</time></trkpt><trkpt lat="44.3903717" lon="8.1977928"><ele>418.42857142857144</ele><time>2026-04-26T09:39:29.475Z</time></trkpt><trkpt lat="44.3903885" lon="8.1979145"><ele>421.0</ele><time>2026-04-26T09:39:30.473Z</time></trkpt><trkpt lat="44.3904105" lon="8.1980507"><ele>421.25</ele><time>2026-04-26T09:39:31.473Z</time></trkpt><trkpt lat="44.3904312" lon="8.1982018"><ele>421.5</ele><time>2026-04-26T09:39:32.473Z</time></trkpt><trkpt lat="44.390449" lon="8.1983645"><ele>421.75</ele><time>2026-04-26T09:39:33.472Z</time></trkpt><trkpt lat="44.3904718" lon="8.1985335"><ele>422.0</ele><time>2026-04-26T09:39:34.475Z</time></trkpt><trkpt lat="44.3904867" lon="8.1987045"><ele>422.0</ele><time>2026-04-26T09:39:35.475Z</time></trkpt><trkpt lat="44.3904955" lon="8.1988785"><ele>422.0</ele><time>2026-04-26T09:39:36.475Z</time></trkpt><trkpt lat="44.3904937" lon="8.1990625"><ele>422.0</ele><time>2026-04-26T09:39:37.476Z</time></trkpt><trkpt lat="44.3904823" lon="8.1992553"><ele>422.0</ele><time>2026-04-26T09:39:38.473Z</time></trkpt><trkpt lat="44.390464" lon="8.1994563"><ele>423.0</ele><time>2026-04-26T09:39:39.475Z</time></trkpt><trkpt lat="44.3904427" lon="8.1996657"><ele>424.0</ele><time>2026-04-26T09:39:40.474Z</time></trkpt><trkpt lat="44.3904192" lon="8.1998812"><ele>425.0</ele><time>2026-04-26T09:39:41.472Z</time></trkpt><trkpt lat="44.3903943" lon="8.2001018"><ele>425.0</ele><time>2026-04-26T09:39:42.475Z</time></trkpt><trkpt lat="44.3903715" lon="8.2003208"><ele>425.0</ele><time>2026-04-26T09:39:43.475Z</time></trkpt><trkpt lat="44.3903477" lon="8.2005242"><ele>425.0</ele><time>2026-04-26T09:39:44.477Z</time></trkpt><trkpt lat="44.3903232" lon="8.2007198"><ele>425.0</ele><time>2026-04-26T09:39:45.475Z</time></trkpt><trkpt lat="44.3902988" lon="8.2009177"><ele>424.0</ele><time>2026-04-26T09:39:46.476Z</time></trkpt><trkpt lat="44.3902767" lon="8.2011183"><ele>423.0</ele><time>2026-04-26T09:39:47.476Z</time></trkpt><trkpt lat="44.3902598" lon="8.2013147"><ele>422.0</ele><time>2026-04-26T09:39:48.475Z</time></trkpt><trkpt lat="44.3902513" lon="8.201496"><ele>421.0</ele><time>2026-04-26T09:39:49.477Z</time></trkpt><trkpt lat="44.3902495" lon="8.2016753"><ele>420.20000000000005</ele><time>2026-04-26T09:39:50.476Z</time></trkpt><trkpt lat="44.39025" lon="8.2018453"><ele>419.40000000000003</ele><time>2026-04-26T09:39:51.476Z</time></trkpt><trkpt lat="44.3902543" lon="8.202001"><ele>418.6</ele><time>2026-04-26T09:39:52.477Z</time></trkpt><trkpt lat="44.3902572" lon="8.202143"><ele>417.8</ele><time>2026-04-26T09:39:53.477Z</time></trkpt><trkpt lat="44.3902548" lon="8.202271"><ele>417.0</ele><time>2026-04-26T09:39:54.477Z</time></trkpt><trkpt lat="44.3902407" lon="8.2023907"><ele>415.6</ele><time>2026-04-26T09:39:55.474Z</time></trkpt><trkpt lat="44.3902123" lon="8.2025227"><ele>414.20000000000005</ele><time>2026-04-26T09:39:56.477Z</time></trkpt><trkpt lat="44.3901703" lon="8.2026643"><ele>412.8</ele><time>2026-04-26T09:39:57.474Z</time></trkpt><trkpt lat="44.3901138" lon="8.202802"><ele>411.4</ele><time>2026-04-26T09:39:58.473Z</time></trkpt><trkpt lat="44.390055" lon="8.2029182"><ele>410.0</ele><time>2026-04-26T09:39:59.475Z</time></trkpt><trkpt lat="44.39" lon="8.2030067"><ele>409.99999999999994</ele><time>2026-04-26T09:40:00.477Z</time></trkpt><trkpt lat="44.389946" lon="8.2030667"><ele>410.0</ele><time>2026-04-26T09:40:01.476Z</time></trkpt><trkpt lat="44.3898757" lon="8.2031253"><ele>410.0</ele><time>2026-04-26T09:40:03.476Z</time></trkpt><trkpt lat="44.3898377" lon="8.2031978"><ele>410.0</ele><time>2026-04-26T09:40:05.477Z</time></trkpt><trkpt lat="44.3898293" lon="8.2033762"><ele>409.99999999999994</ele><time>2026-04-26T09:40:07.478Z</time></trkpt><trkpt lat="44.389837" lon="8.2034967"><ele>410.0</ele><time>2026-04-26T09:40:08.478Z</time></trkpt><trkpt lat="44.389849" lon="8.2036343"><ele>409.4</ele><time>2026-04-26T09:40:09.476Z</time></trkpt><trkpt lat="44.3898597" lon="8.2037757"><ele>408.8</ele><time>2026-04-26T09:40:10.476Z</time></trkpt><trkpt lat="44.3898688" lon="8.203924"><ele>408.20000000000005</ele><time>2026-04-26T09:40:11.479Z</time></trkpt><trkpt lat="44.3898777" lon="8.2040703"><ele>407.6</ele><time>2026-04-26T09:40:12.477Z</time></trkpt><trkpt lat="44.3898862" lon="8.2042157"><ele>407.0</ele><time>2026-04-26T09:40:13.477Z</time></trkpt><trkpt lat="44.3898913" lon="8.204362"><ele>407.0</ele><time>2026-04-26T09:40:14.478Z</time></trkpt><trkpt lat="44.3898938" lon="8.2045082"><ele>407.0</ele><time>2026-04-26T09:40:15.478Z</time></trkpt><trkpt lat="44.3898897" lon="8.204655"><ele>407.0</ele><time>2026-04-26T09:40:16.479Z</time></trkpt><trkpt lat="44.3898688" lon="8.204804"><ele>407.0</ele><time>2026-04-26T09:40:17.476Z</time></trkpt><trkpt lat="44.3898282" lon="8.204966"><ele>407.0</ele><time>2026-04-26T09:40:18.478Z</time></trkpt><trkpt lat="44.3897768" lon="8.205128"><ele>407.0</ele><time>2026-04-26T09:40:19.475Z</time></trkpt><trkpt lat="44.3897277" lon="8.2052743"><ele>407.0</ele><time>2026-04-26T09:40:20.474Z</time></trkpt><trkpt lat="44.3896847" lon="8.2054152"><ele>407.0</ele><time>2026-04-26T09:40:21.474Z</time></trkpt><trkpt lat="44.3896503" lon="8.2055533"><ele>407.0</ele><time>2026-04-26T09:40:22.476Z</time></trkpt><trkpt lat="44.389627" lon="8.2056948"><ele>407.0</ele><time>2026-04-26T09:40:23.474Z</time></trkpt><trkpt lat="44.389613" lon="8.2058427"><ele>407.0</ele><time>2026-04-26T09:40:24.477Z</time></trkpt><trkpt lat="44.3896057" lon="8.2059915"><ele>407.0</ele><time>2026-04-26T09:40:25.476Z</time></trkpt><trkpt lat="44.3896033" lon="8.2061253"><ele>407.0</ele><time>2026-04-26T09:40:26.476Z</time></trkpt><trkpt lat="44.3896023" lon="8.2062392"><ele>407.0</ele><time>2026-04-26T09:40:27.48Z</time></trkpt><trkpt lat="44.3895945" lon="8.2063855"><ele>407.0</ele><time>2026-04-26T09:40:29.477Z</time></trkpt><trkpt lat="44.3895595" lon="8.2065138"><ele>407.66666666666663</ele><time>2026-04-26T09:40:32.48Z</time></trkpt><trkpt lat="44.3895155" lon="8.2065827"><ele>408.3333333333333</ele><time>2026-04-26T09:40:33.476Z</time></trkpt><trkpt lat="44.3894498" lon="8.2066548"><ele>409.0</ele><time>2026-04-26T09:40:34.475Z</time></trkpt><trkpt lat="44.389372" lon="8.2067337"><ele>409.66666666666663</ele><time>2026-04-26T09:40:35.477Z</time></trkpt><trkpt lat="44.3892968" lon="8.2068158"><ele>410.3333333333333</ele><time>2026-04-26T09:40:36.477Z</time></trkpt><trkpt lat="44.3892208" lon="8.206906"><ele>411.0</ele><time>2026-04-26T09:40:37.475Z</time></trkpt><trkpt lat="44.3891397" lon="8.2069972"><ele>411.0</ele><time>2026-04-26T09:40:38.476Z</time></trkpt><trkpt lat="44.3890533" lon="8.2070883"><ele>411.0</ele><time>2026-04-26T09:40:39.476Z</time></trkpt><trkpt lat="44.3889628" lon="8.2071802"><ele>411.0</ele><time>2026-04-26T09:40:40.475Z</time></trkpt><trkpt lat="44.3888682" lon="8.207272"><ele>411.0</ele><time>2026-04-26T09:40:41.476Z</time></trkpt><trkpt lat="44.3887672" lon="8.2073593"><ele>411.5</ele><time>2026-04-26T09:40:42.475Z</time></trkpt><trkpt lat="44.3886633" lon="8.2074423"><ele>412.0</ele><time>2026-04-26T09:40:43.475Z</time></trkpt><trkpt lat="44.3885553" lon="8.2075203"><ele>412.5</ele><time>2026-04-26T09:40:44.475Z</time></trkpt><trkpt lat="44.3884457" lon="8.2075897"><ele>413.0</ele><time>2026-04-26T09:40:45.472Z</time></trkpt><trkpt lat="44.3883398" lon="8.2076537"><ele>413.0</ele><time>2026-04-26T09:40:46.473Z</time></trkpt><trkpt lat="44.3882438" lon="8.207707"><ele>413.0</ele><time>2026-04-26T09:40:47.473Z</time></trkpt><trkpt lat="44.3881573" lon="8.2077573"><ele>413.0</ele><time>2026-04-26T09:40:48.474Z</time></trkpt><trkpt lat="44.3880723" lon="8.2078115"><ele>413.0</ele><time>2026-04-26T09:40:49.474Z</time></trkpt><trkpt lat="44.3879875" lon="8.2078645"><ele>413.0</ele><time>2026-04-26T09:40:50.478Z</time></trkpt><trkpt lat="44.3879002" lon="8.2079147"><ele>413.3333333333333</ele><time>2026-04-26T09:40:51.477Z</time></trkpt><trkpt lat="44.3878107" lon="8.2079593"><ele>413.66666666666663</ele><time>2026-04-26T09:40:52.48Z</time></trkpt><trkpt lat="44.3877193" lon="8.2079907"><ele>414.0</ele><time>2026-04-26T09:40:53.478Z</time></trkpt><trkpt lat="44.3876312" lon="8.2079998"><ele>414.33333333333337</ele><time>2026-04-26T09:40:54.476Z</time></trkpt><trkpt lat="44.3875533" lon="8.2079912"><ele>414.6666666666667</ele><time>2026-04-26T09:40:55.477Z</time></trkpt><trkpt lat="44.3874863" lon="8.2079763"><ele>415.0</ele><time>2026-04-26T09:40:56.475Z</time></trkpt><trkpt lat="44.3873793" lon="8.2079868"><ele>415.00000000000006</ele><time>2026-04-26T09:40:58.477Z</time></trkpt><trkpt lat="44.3873367" lon="8.208115"><ele>415.0</ele><time>2026-04-26T09:41:00.478Z</time></trkpt><trkpt lat="44.387334" lon="8.2082087"><ele>415.0</ele><time>2026-04-26T09:41:01.479Z</time></trkpt><trkpt lat="44.3873413" lon="8.2083173"><ele>415.0</ele><time>2026-04-26T09:41:02.476Z</time></trkpt><trkpt lat="44.387361" lon="8.2084392"><ele>415.00000000000006</ele><time>2026-04-26T09:41:03.475Z</time></trkpt><trkpt lat="44.387387" lon="8.2085705"><ele>415.0</ele><time>2026-04-26T09:41:04.476Z</time></trkpt><trkpt lat="44.3874167" lon="8.2087133"><ele>415.5</ele><time>2026-04-26T09:41:05.477Z</time></trkpt><trkpt lat="44.3874498" lon="8.2088732"><ele>416.0</ele><time>2026-04-26T09:41:06.476Z</time></trkpt><trkpt lat="44.3874828" lon="8.2090438"><ele>416.5</ele><time>2026-04-26T09:41:07.476Z</time></trkpt><trkpt lat="44.387515" lon="8.2092145"><ele>417.0</ele><time>2026-04-26T09:41:08.477Z</time></trkpt><trkpt lat="44.3875422" lon="8.2093817"><ele>417.0</ele><time>2026-04-26T09:41:09.472Z</time></trkpt><trkpt lat="44.3875575" lon="8.2095512"><ele>417.0</ele><time>2026-04-26T09:41:10.477Z</time></trkpt><trkpt lat="44.3875555" lon="8.209725"><ele>417.0</ele><time>2026-04-26T09:41:11.474Z</time></trkpt><trkpt lat="44.3875392" lon="8.2099073"><ele>417.0</ele><time>2026-04-26T09:41:12.476Z</time></trkpt><trkpt lat="44.3875103" lon="8.2100923"><ele>417.25</ele><time>2026-04-26T09:41:13.477Z</time></trkpt><trkpt lat="44.3874798" lon="8.210269"><ele>417.5</ele><time>2026-04-26T09:41:14.478Z</time></trkpt><trkpt lat="44.3874502" lon="8.2104422"><ele>417.75</ele><time>2026-04-26T09:41:15.478Z</time></trkpt><trkpt lat="44.3874205" lon="8.2106167"><ele>418.0</ele><time>2026-04-26T09:41:16.478Z</time></trkpt><trkpt lat="44.387391" lon="8.2107988"><ele>418.75</ele><time>2026-04-26T09:41:17.478Z</time></trkpt><trkpt lat="44.3873645" lon="8.2109872"><ele>419.5</ele><time>2026-04-26T09:41:18.475Z</time></trkpt><trkpt lat="44.3873492" lon="8.2111817"><ele>420.25</ele><time>2026-04-26T09:41:19.477Z</time></trkpt><trkpt lat="44.3873497" lon="8.2113847"><ele>421.0</ele><time>2026-04-26T09:41:20.48Z</time></trkpt><trkpt lat="44.387362" lon="8.2115878"><ele>421.5</ele><time>2026-04-26T09:41:21.479Z</time></trkpt><trkpt lat="44.3873783" lon="8.2117855"><ele>422.0</ele><time>2026-04-26T09:41:22.479Z</time></trkpt><trkpt lat="44.3873958" lon="8.21198"><ele>422.5</ele><time>2026-04-26T09:41:23.479Z</time></trkpt><trkpt lat="44.3874152" lon="8.2121755"><ele>423.0</ele><time>2026-04-26T09:41:24.479Z</time></trkpt><trkpt lat="44.3874375" lon="8.2123752"><ele>423.0</ele><time>2026-04-26T09:41:25.478Z</time></trkpt><trkpt lat="44.3874602" lon="8.2125788"><ele>423.0</ele><time>2026-04-26T09:41:26.48Z</time></trkpt><trkpt lat="44.3874815" lon="8.2127845"><ele>423.0</ele><time>2026-04-26T09:41:27.479Z</time></trkpt><trkpt lat="44.3875037" lon="8.2129892"><ele>423.0</ele><time>2026-04-26T09:41:28.48Z</time></trkpt><trkpt lat="44.3875263" lon="8.2131937"><ele>422.75</ele><time>2026-04-26T09:41:29.479Z</time></trkpt><trkpt lat="44.3875495" lon="8.2133965"><ele>422.5</ele><time>2026-04-26T09:41:30.478Z</time></trkpt><trkpt lat="44.387573" lon="8.2135948"><ele>422.25</ele><time>2026-04-26T09:41:31.481Z</time></trkpt><trkpt lat="44.387595" lon="8.2137903"><ele>422.0</ele><time>2026-04-26T09:41:32.479Z</time></trkpt><trkpt lat="44.387617" lon="8.2139845"><ele>422.25</ele><time>2026-04-26T09:41:33.474Z</time></trkpt><trkpt lat="44.3876373" lon="8.2141773"><ele>422.5</ele><time>2026-04-26T09:41:34.475Z</time></trkpt><trkpt lat="44.3876587" lon="8.214367"><ele>422.75</ele><time>2026-04-26T09:41:35.474Z</time></trkpt><trkpt lat="44.3876798" lon="8.2145535"><ele>423.0</ele><time>2026-04-26T09:41:36.474Z</time></trkpt><trkpt lat="44.3877015" lon="8.2147362"><ele>423.0</ele><time>2026-04-26T09:41:37.477Z</time></trkpt><trkpt lat="44.3877218" lon="8.214914"><ele>423.0</ele><time>2026-04-26T09:41:38.477Z</time></trkpt><trkpt lat="44.387741" lon="8.2150905"><ele>423.0</ele><time>2026-04-26T09:41:39.477Z</time></trkpt><trkpt lat="44.3877607" lon="8.2152703"><ele>423.0</ele><time>2026-04-26T09:41:40.48Z</time></trkpt><trkpt lat="44.3877808" lon="8.2154528"><ele>423.0</ele><time>2026-04-26T09:41:41.479Z</time></trkpt><trkpt lat="44.3878013" lon="8.2156378"><ele>423.0</ele><time>2026-04-26T09:41:42.476Z</time></trkpt><trkpt lat="44.3878223" lon="8.2158245"><ele>423.0</ele><time>2026-04-26T09:41:43.478Z</time></trkpt><trkpt lat="44.3878435" lon="8.2160135"><ele>423.0</ele><time>2026-04-26T09:41:44.479Z</time></trkpt><trkpt lat="44.3878633" lon="8.2162035"><ele>423.25</ele><time>2026-04-26T09:41:45.479Z</time></trkpt><trkpt lat="44.3878827" lon="8.2163942"><ele>423.5</ele><time>2026-04-26T09:41:46.481Z</time></trkpt><trkpt lat="44.3879023" lon="8.2165847"><ele>423.75</ele><time>2026-04-26T09:41:47.48Z</time></trkpt><trkpt lat="44.387922" lon="8.2167738"><ele>424.0</ele><time>2026-04-26T09:41:48.476Z</time></trkpt><trkpt lat="44.3879423" lon="8.2169657"><ele>424.25</ele><time>2026-04-26T09:41:49.48Z</time></trkpt><trkpt lat="44.387964" lon="8.2171625"><ele>424.5</ele><time>2026-04-26T09:41:50.478Z</time></trkpt><trkpt lat="44.3879868" lon="8.217364"><ele>424.75</ele><time>2026-04-26T09:41:51.479Z</time></trkpt><trkpt lat="44.3880092" lon="8.2175658"><ele>425.0</ele><time>2026-04-26T09:41:52.479Z</time></trkpt><trkpt lat="44.388031" lon="8.2177668"><ele>426.5</ele><time>2026-04-26T09:41:53.478Z</time></trkpt><trkpt lat="44.3880507" lon="8.2179695"><ele>428.0</ele><time>2026-04-26T09:41:54.479Z</time></trkpt><trkpt lat="44.3880655" lon="8.2181763"><ele>429.5</ele><time>2026-04-26T09:41:55.479Z</time></trkpt><trkpt lat="44.3880685" lon="8.2183867"><ele>431.0</ele><time>2026-04-26T09:41:56.48Z</time></trkpt><trkpt lat="44.3880598" lon="8.2185942"><ele>431.0</ele><time>2026-04-26T09:41:57.476Z</time></trkpt><trkpt lat="44.3880428" lon="8.21879"><ele>431.0</ele><time>2026-04-26T09:41:58.476Z</time></trkpt><trkpt lat="44.388025" lon="8.2189785"><ele>431.0</ele><time>2026-04-26T09:41:59.476Z</time></trkpt><trkpt lat="44.3880057" lon="8.2191673"><ele>431.0</ele><time>2026-04-26T09:42:00.475Z</time></trkpt><trkpt lat="44.3879878" lon="8.2193588"><ele>433.0</ele><time>2026-04-26T09:42:01.477Z</time></trkpt><trkpt lat="44.387967" lon="8.2195505"><ele>435.0</ele><time>2026-04-26T09:42:02.477Z</time></trkpt><trkpt lat="44.3879428" lon="8.2197433"><ele>437.0</ele><time>2026-04-26T09:42:03.478Z</time></trkpt><trkpt lat="44.3879152" lon="8.219934"><ele>439.0</ele><time>2026-04-26T09:42:04.478Z</time></trkpt><trkpt lat="44.3878803" lon="8.2201118"><ele>439.75</ele><time>2026-04-26T09:42:05.477Z</time></trkpt><trkpt lat="44.3878365" lon="8.2202807"><ele>440.5</ele><time>2026-04-26T09:42:06.476Z</time></trkpt><trkpt lat="44.3877795" lon="8.2204492"><ele>441.25</ele><time>2026-04-26T09:42:07.473Z</time></trkpt><trkpt lat="44.3877065" lon="8.2206153"><ele>442.0</ele><time>2026-04-26T09:42:08.475Z</time></trkpt><trkpt lat="44.3876213" lon="8.2207803"><ele>442.25</ele><time>2026-04-26T09:42:09.475Z</time></trkpt><trkpt lat="44.3875295" lon="8.220944"><ele>442.5</ele><time>2026-04-26T09:42:10.472Z</time></trkpt><trkpt lat="44.387433" lon="8.2211027"><ele>442.75</ele><time>2026-04-26T09:42:11.475Z</time></trkpt><trkpt lat="44.3873295" lon="8.2212577"><ele>443.0</ele><time>2026-04-26T09:42:12.473Z</time></trkpt><trkpt lat="44.3872183" lon="8.2214103"><ele>446.3333333333333</ele><time>2026-04-26T09:42:13.478Z</time></trkpt><trkpt lat="44.3871025" lon="8.221565"><ele>449.66666666666663</ele><time>2026-04-26T09:42:14.474Z</time></trkpt><trkpt lat="44.386986" lon="8.2217212"><ele>453.0</ele><time>2026-04-26T09:42:15.474Z</time></trkpt><trkpt lat="44.3868698" lon="8.2218757"><ele>453.0</ele><time>2026-04-26T09:42:16.473Z</time></trkpt><trkpt lat="44.3867523" lon="8.2220332"><ele>453.0</ele><time>2026-04-26T09:42:17.473Z</time></trkpt><trkpt lat="44.386632" lon="8.2221932"><ele>453.0</ele><time>2026-04-26T09:42:18.472Z</time></trkpt><trkpt lat="44.3865135" lon="8.2223543"><ele>450.0</ele><time>2026-04-26T09:42:19.472Z</time></trkpt><trkpt lat="44.3864003" lon="8.2225093"><ele>447.0</ele><time>2026-04-26T09:42:20.474Z</time></trkpt><trkpt lat="44.3862907" lon="8.2226677"><ele>444.0</ele><time>2026-04-26T09:42:21.473Z</time></trkpt><trkpt lat="44.3861892" lon="8.2228442"><ele>443.33333333333337</ele><time>2026-04-26T09:42:22.472Z</time></trkpt><trkpt lat="44.3861027" lon="8.2230417"><ele>442.6666666666667</ele><time>2026-04-26T09:42:23.471Z</time></trkpt><trkpt lat="44.3860303" lon="8.2232518"><ele>442.0</ele><time>2026-04-26T09:42:24.472Z</time></trkpt><trkpt lat="44.3859628" lon="8.2234647"><ele>442.0</ele><time>2026-04-26T09:42:25.472Z</time></trkpt><trkpt lat="44.3858898" lon="8.2236697"><ele>442.0</ele><time>2026-04-26T09:42:26.473Z</time></trkpt><trkpt lat="44.3858082" lon="8.2238677"><ele>442.0</ele><time>2026-04-26T09:42:27.475Z</time></trkpt><trkpt lat="44.3857192" lon="8.2240622"><ele>442.33333333333337</ele><time>2026-04-26T09:42:28.475Z</time></trkpt><trkpt lat="44.385625" lon="8.2242572"><ele>442.66666666666663</ele><time>2026-04-26T09:42:29.476Z</time></trkpt><trkpt lat="44.3855293" lon="8.2244548"><ele>443.0</ele><time>2026-04-26T09:42:30.474Z</time></trkpt><trkpt lat="44.3854345" lon="8.224653"><ele>443.3333333333333</ele><time>2026-04-26T09:42:31.476Z</time></trkpt><trkpt lat="44.3853417" lon="8.2248487"><ele>443.66666666666663</ele><time>2026-04-26T09:42:32.475Z</time></trkpt><trkpt lat="44.3852488" lon="8.2250375"><ele>444.0</ele><time>2026-04-26T09:42:33.476Z</time></trkpt><trkpt lat="44.3851495" lon="8.225218"><ele>444.0</ele><time>2026-04-26T09:42:34.477Z</time></trkpt><trkpt lat="44.3850387" lon="8.225391"><ele>444.0</ele><time>2026-04-26T09:42:35.475Z</time></trkpt><trkpt lat="44.3849182" lon="8.2255532"><ele>444.0</ele><time>2026-04-26T09:42:36.478Z</time></trkpt><trkpt lat="44.384791" lon="8.2257088"><ele>443.33333333333337</ele><time>2026-04-26T09:42:37.477Z</time></trkpt><trkpt lat="44.3846593" lon="8.2258598"><ele>442.6666666666667</ele><time>2026-04-26T09:42:38.477Z</time></trkpt><trkpt lat="44.3845243" lon="8.2260065"><ele>442.0</ele><time>2026-04-26T09:42:39.477Z</time></trkpt><trkpt lat="44.3843822" lon="8.2261425"><ele>442.0</ele><time>2026-04-26T09:42:40.476Z</time></trkpt><trkpt lat="44.3842313" lon="8.2262618"><ele>442.0</ele><time>2026-04-26T09:42:41.477Z</time></trkpt><trkpt lat="44.3840725" lon="8.2263623"><ele>442.0</ele><time>2026-04-26T09:42:42.477Z</time></trkpt><trkpt lat="44.3839078" lon="8.2264442"><ele>443.6666666666667</ele><time>2026-04-26T09:42:43.478Z</time></trkpt><trkpt lat="44.383741" lon="8.2265163"><ele>445.33333333333337</ele><time>2026-04-26T09:42:44.477Z</time></trkpt><trkpt lat="44.3835728" lon="8.2265855"><ele>447.0</ele><time>2026-04-26T09:42:45.476Z</time></trkpt><trkpt lat="44.3834038" lon="8.226653"><ele>447.0</ele><time>2026-04-26T09:42:46.477Z</time></trkpt><trkpt lat="44.3832343" lon="8.2267163"><ele>447.0</ele><time>2026-04-26T09:42:47.474Z</time></trkpt><trkpt lat="44.3830663" lon="8.2267763"><ele>447.0</ele><time>2026-04-26T09:42:48.475Z</time></trkpt><trkpt lat="44.3829003" lon="8.226837"><ele>447.33333333333337</ele><time>2026-04-26T09:42:49.478Z</time></trkpt><trkpt lat="44.382736" lon="8.2268993"><ele>447.6666666666667</ele><time>2026-04-26T09:42:50.477Z</time></trkpt><trkpt lat="44.3825728" lon="8.2269623"><ele>448.0</ele><time>2026-04-26T09:42:51.479Z</time></trkpt><trkpt lat="44.3824112" lon="8.2270272"><ele>448.0</ele><time>2026-04-26T09:42:52.48Z</time></trkpt><trkpt lat="44.3822505" lon="8.227101"><ele>448.0</ele><time>2026-04-26T09:42:53.479Z</time></trkpt><trkpt lat="44.3820943" lon="8.2271927"><ele>448.0</ele><time>2026-04-26T09:42:54.479Z</time></trkpt><trkpt lat="44.3819438" lon="8.2273083"><ele>449.0</ele><time>2026-04-26T09:42:55.479Z</time></trkpt><trkpt lat="44.3817972" lon="8.2274448"><ele>450.0</ele><time>2026-04-26T09:42:56.478Z</time></trkpt><trkpt lat="44.3816542" lon="8.227593"><ele>451.0</ele><time>2026-04-26T09:42:57.478Z</time></trkpt><trkpt lat="44.381514" lon="8.2277477"><ele>451.0</ele><time>2026-04-26T09:42:58.479Z</time></trkpt><trkpt lat="44.3813747" lon="8.2279018"><ele>451.0</ele><time>2026-04-26T09:42:59.478Z</time></trkpt><trkpt lat="44.381234" lon="8.2280473"><ele>451.0</ele><time>2026-04-26T09:43:00.478Z</time></trkpt><trkpt lat="44.3810892" lon="8.2281768"><ele>452.6666666666667</ele><time>2026-04-26T09:43:01.479Z</time></trkpt><trkpt lat="44.3809352" lon="8.228285"><ele>454.33333333333337</ele><time>2026-04-26T09:43:02.479Z</time></trkpt><trkpt lat="44.3807698" lon="8.2283718"><ele>456.0</ele><time>2026-04-26T09:43:03.477Z</time></trkpt><trkpt lat="44.380597" lon="8.2284445"><ele>457.0</ele><time>2026-04-26T09:43:04.477Z</time></trkpt><trkpt lat="44.3804237" lon="8.2285137"><ele>458.0</ele><time>2026-04-26T09:43:05.48Z</time></trkpt><trkpt lat="44.3802592" lon="8.2285782"><ele>459.0</ele><time>2026-04-26T09:43:06.478Z</time></trkpt><trkpt lat="44.3801055" lon="8.2286395"><ele>459.0</ele><time>2026-04-26T09:43:07.478Z</time></trkpt><trkpt lat="44.3799638" lon="8.2287048"><ele>459.0</ele><time>2026-04-26T09:43:08.475Z</time></trkpt><trkpt lat="44.3798357" lon="8.2287897"><ele>459.0</ele><time>2026-04-26T09:43:09.48Z</time></trkpt><trkpt lat="44.3797195" lon="8.2289052"><ele>459.0</ele><time>2026-04-26T09:43:10.477Z</time></trkpt><trkpt lat="44.3796162" lon="8.2290553"><ele>462.33333333333337</ele><time>2026-04-26T09:43:11.476Z</time></trkpt><trkpt lat="44.3795327" lon="8.2292373"><ele>465.6666666666667</ele><time>2026-04-26T09:43:12.475Z</time></trkpt><trkpt lat="44.3794735" lon="8.2294447"><ele>469.0</ele><time>2026-04-26T09:43:13.476Z</time></trkpt><trkpt lat="44.379434" lon="8.2296725"><ele>471.6666666666667</ele><time>2026-04-26T09:43:14.475Z</time></trkpt><trkpt lat="44.3793992" lon="8.2299033"><ele>474.33333333333337</ele><time>2026-04-26T09:43:15.479Z</time></trkpt><trkpt lat="44.3793633" lon="8.2301307"><ele>477.0</ele><time>2026-04-26T09:43:16.48Z</time></trkpt><trkpt lat="44.3793263" lon="8.2303558"><ele>477.0</ele><time>2026-04-26T09:43:17.479Z</time></trkpt><trkpt lat="44.37929" lon="8.2305775"><ele>477.0</ele><time>2026-04-26T09:43:18.477Z</time></trkpt><trkpt lat="44.3792537" lon="8.2307912"><ele>477.0</ele><time>2026-04-26T09:43:19.477Z</time></trkpt><trkpt lat="44.3792182" lon="8.2310038"><ele>478.66666666666663</ele><time>2026-04-26T09:43:20.478Z</time></trkpt><trkpt lat="44.3791827" lon="8.2312182"><ele>480.3333333333333</ele><time>2026-04-26T09:43:21.477Z</time></trkpt><trkpt lat="44.3791537" lon="8.2314317"><ele>482.0</ele><time>2026-04-26T09:43:22.476Z</time></trkpt><trkpt lat="44.3791242" lon="8.2316365"><ele>481.75</ele><time>2026-04-26T09:43:23.477Z</time></trkpt><trkpt lat="44.3790867" lon="8.2318368"><ele>481.5</ele><time>2026-04-26T09:43:24.478Z</time></trkpt><trkpt lat="44.3790407" lon="8.2320262"><ele>481.25</ele><time>2026-04-26T09:43:25.477Z</time></trkpt><trkpt lat="44.3789853" lon="8.232203"><ele>481.0</ele><time>2026-04-26T09:43:26.477Z</time></trkpt><trkpt lat="44.3789132" lon="8.2323688"><ele>480.75</ele><time>2026-04-26T09:43:27.475Z</time></trkpt><trkpt lat="44.3788217" lon="8.2325193"><ele>480.5</ele><time>2026-04-26T09:43:28.479Z</time></trkpt><trkpt lat="44.3787135" lon="8.2326445"><ele>480.25</ele><time>2026-04-26T09:43:29.481Z</time></trkpt><trkpt lat="44.3785942" lon="8.2327423"><ele>480.0</ele><time>2026-04-26T09:43:30.478Z</time></trkpt><trkpt lat="44.3784597" lon="8.232817"><ele>480.0</ele><time>2026-04-26T09:43:31.48Z</time></trkpt><trkpt lat="44.3783122" lon="8.232874"><ele>480.0</ele><time>2026-04-26T09:43:32.479Z</time></trkpt><trkpt lat="44.378163" lon="8.2329253"><ele>480.0</ele><time>2026-04-26T09:43:33.476Z</time></trkpt><trkpt lat="44.3780207" lon="8.2329737"><ele>482.5</ele><time>2026-04-26T09:43:34.475Z</time></trkpt><trkpt lat="44.3778837" lon="8.2330198"><ele>485.0</ele><time>2026-04-26T09:43:35.475Z</time></trkpt><trkpt lat="44.3777508" lon="8.2330808"><ele>487.5</ele><time>2026-04-26T09:43:36.475Z</time></trkpt><trkpt lat="44.3776285" lon="8.2331752"><ele>490.0</ele><time>2026-04-26T09:43:37.473Z</time></trkpt><trkpt lat="44.3775162" lon="8.2332993"><ele>487.5</ele><time>2026-04-26T09:43:38.474Z</time></trkpt><trkpt lat="44.3774163" lon="8.2334327"><ele>485.0</ele><time>2026-04-26T09:43:39.477Z</time></trkpt><trkpt lat="44.3773188" lon="8.2335637"><ele>482.5</ele><time>2026-04-26T09:43:40.479Z</time></trkpt><trkpt lat="44.3772103" lon="8.233689"><ele>480.0</ele><time>2026-04-26T09:43:41.477Z</time></trkpt><trkpt lat="44.3770862" lon="8.233804"><ele>480.0</ele><time>2026-04-26T09:43:42.478Z</time></trkpt><trkpt lat="44.3769508" lon="8.2339095"><ele>480.0</ele><time>2026-04-26T09:43:43.477Z</time></trkpt><trkpt lat="44.3768137" lon="8.2340062"><ele>480.0</ele><time>2026-04-26T09:43:44.477Z</time></trkpt><trkpt lat="44.3766802" lon="8.2340918"><ele>475.0</ele><time>2026-04-26T09:43:45.478Z</time></trkpt><trkpt lat="44.3765483" lon="8.2341675"><ele>470.0</ele><time>2026-04-26T09:43:46.479Z</time></trkpt><trkpt lat="44.3764153" lon="8.2342345"><ele>465.0</ele><time>2026-04-26T09:43:47.479Z</time></trkpt><trkpt lat="44.3762812" lon="8.234293"><ele>460.0</ele><time>2026-04-26T09:43:48.479Z</time></trkpt><trkpt lat="44.3761483" lon="8.2343533"><ele>460.0</ele><time>2026-04-26T09:43:49.478Z</time></trkpt><trkpt lat="44.3760217" lon="8.2344315"><ele>460.0</ele><time>2026-04-26T09:43:50.477Z</time></trkpt><trkpt lat="44.3759037" lon="8.2345333"><ele>460.0</ele><time>2026-04-26T09:43:51.476Z</time></trkpt><trkpt lat="44.375798" lon="8.2346597"><ele>460.0</ele><time>2026-04-26T09:43:52.477Z</time></trkpt><trkpt lat="44.3757043" lon="8.2348042"><ele>458.75</ele><time>2026-04-26T09:43:53.477Z</time></trkpt><trkpt lat="44.3756197" lon="8.234951"><ele>457.5</ele><time>2026-04-26T09:43:54.476Z</time></trkpt><trkpt lat="44.3755345" lon="8.2350982"><ele>456.25</ele><time>2026-04-26T09:43:55.479Z</time></trkpt><trkpt lat="44.3754442" lon="8.2352448"><ele>455.0</ele><time>2026-04-26T09:43:56.477Z</time></trkpt><trkpt lat="44.375355" lon="8.2353943"><ele>455.0</ele><time>2026-04-26T09:43:57.477Z</time></trkpt><trkpt lat="44.3752675" lon="8.2355462"><ele>455.0</ele><time>2026-04-26T09:43:58.479Z</time></trkpt><trkpt lat="44.375182" lon="8.2356995"><ele>455.0</ele><time>2026-04-26T09:43:59.48Z</time></trkpt><trkpt lat="44.3750975" lon="8.2358553"><ele>455.0</ele><time>2026-04-26T09:44:00.475Z</time></trkpt><trkpt lat="44.3750135" lon="8.236011"><ele>453.5</ele><time>2026-04-26T09:44:01.476Z</time></trkpt><trkpt lat="44.3749278" lon="8.2361675"><ele>452.0</ele><time>2026-04-26T09:44:02.475Z</time></trkpt><trkpt lat="44.3748398" lon="8.2363262"><ele>450.5</ele><time>2026-04-26T09:44:03.475Z</time></trkpt><trkpt lat="44.3747515" lon="8.2364847"><ele>449.0</ele><time>2026-04-26T09:44:04.478Z</time></trkpt><trkpt lat="44.3746633" lon="8.236643"><ele>448.75</ele><time>2026-04-26T09:44:05.477Z</time></trkpt><trkpt lat="44.3745728" lon="8.2368015"><ele>448.5</ele><time>2026-04-26T09:44:06.476Z</time></trkpt><trkpt lat="44.3744813" lon="8.2369612"><ele>448.25</ele><time>2026-04-26T09:44:07.476Z</time></trkpt><trkpt lat="44.3743888" lon="8.237123"><ele>448.0</ele><time>2026-04-26T09:44:08.479Z</time></trkpt><trkpt lat="44.3742965" lon="8.2372827"><ele>445.33333333333337</ele><time>2026-04-26T09:44:09.479Z</time></trkpt><trkpt lat="44.3742032" lon="8.2374442"><ele>442.66666666666663</ele><time>2026-04-26T09:44:10.479Z</time></trkpt><trkpt lat="44.3741095" lon="8.237609"><ele>440.0</ele><time>2026-04-26T09:44:11.478Z</time></trkpt><trkpt lat="44.3740157" lon="8.2377753"><ele>440.0</ele><time>2026-04-26T09:44:12.477Z</time></trkpt><trkpt lat="44.3739215" lon="8.2379427"><ele>440.0</ele><time>2026-04-26T09:44:13.48Z</time></trkpt><trkpt lat="44.3738265" lon="8.2381093"><ele>440.0</ele><time>2026-04-26T09:44:14.479Z</time></trkpt><trkpt lat="44.3737303" lon="8.2382755"><ele>439.5</ele><time>2026-04-26T09:44:15.479Z</time></trkpt><trkpt lat="44.3736355" lon="8.2384387"><ele>439.0</ele><time>2026-04-26T09:44:16.478Z</time></trkpt><trkpt lat="44.373542" lon="8.2386042"><ele>438.5</ele><time>2026-04-26T09:44:17.479Z</time></trkpt><trkpt lat="44.3734535" lon="8.2387707"><ele>438.0</ele><time>2026-04-26T09:44:18.478Z</time></trkpt><trkpt lat="44.3733738" lon="8.2389473"><ele>436.0</ele><time>2026-04-26T09:44:19.478Z</time></trkpt><trkpt lat="44.3733058" lon="8.2391377"><ele>434.0</ele><time>2026-04-26T09:44:20.477Z</time></trkpt><trkpt lat="44.3732487" lon="8.2393387"><ele>432.0</ele><time>2026-04-26T09:44:21.478Z</time></trkpt><trkpt lat="44.3732017" lon="8.2395468"><ele>432.0</ele><time>2026-04-26T09:44:22.478Z</time></trkpt><trkpt lat="44.3731645" lon="8.2397525"><ele>432.0</ele><time>2026-04-26T09:44:23.477Z</time></trkpt><trkpt lat="44.3731335" lon="8.2399542"><ele>432.0</ele><time>2026-04-26T09:44:24.478Z</time></trkpt><trkpt lat="44.3731037" lon="8.2401598"><ele>432.0</ele><time>2026-04-26T09:44:25.474Z</time></trkpt><trkpt lat="44.3730738" lon="8.2403695"><ele>429.66666666666663</ele><time>2026-04-26T09:44:26.475Z</time></trkpt><trkpt lat="44.3730433" lon="8.2405818"><ele>427.3333333333333</ele><time>2026-04-26T09:44:27.476Z</time></trkpt><trkpt lat="44.3730123" lon="8.2407955"><ele>425.0</ele><time>2026-04-26T09:44:28.476Z</time></trkpt><trkpt lat="44.3729808" lon="8.2410103"><ele>424.0</ele><time>2026-04-26T09:44:29.481Z</time></trkpt><trkpt lat="44.3729495" lon="8.2412268"><ele>423.0</ele><time>2026-04-26T09:44:30.478Z</time></trkpt><trkpt lat="44.3729192" lon="8.2414445"><ele>422.0</ele><time>2026-04-26T09:44:31.478Z</time></trkpt><trkpt lat="44.3728888" lon="8.2416622"><ele>422.0</ele><time>2026-04-26T09:44:32.48Z</time></trkpt><trkpt lat="44.3728588" lon="8.2418795"><ele>422.0</ele><time>2026-04-26T09:44:33.478Z</time></trkpt><trkpt lat="44.3728283" lon="8.2420945"><ele>422.0</ele><time>2026-04-26T09:44:34.478Z</time></trkpt><trkpt lat="44.3728005" lon="8.2423063"><ele>421.5</ele><time>2026-04-26T09:44:35.478Z</time></trkpt><trkpt lat="44.3727763" lon="8.2425152"><ele>421.0</ele><time>2026-04-26T09:44:36.477Z</time></trkpt><trkpt lat="44.3727572" lon="8.2427213"><ele>420.5</ele><time>2026-04-26T09:44:37.479Z</time></trkpt><trkpt lat="44.3727407" lon="8.242926"><ele>420.0</ele><time>2026-04-26T09:44:38.48Z</time></trkpt><trkpt lat="44.3727272" lon="8.2431295"><ele>419.25</ele><time>2026-04-26T09:44:39.479Z</time></trkpt><trkpt lat="44.3727157" lon="8.243334"><ele>418.5</ele><time>2026-04-26T09:44:40.479Z</time></trkpt><trkpt lat="44.3727065" lon="8.2435425"><ele>417.75</ele><time>2026-04-26T09:44:41.48Z</time></trkpt><trkpt lat="44.3727005" lon="8.2437557"><ele>417.0</ele><time>2026-04-26T09:44:42.477Z</time></trkpt><trkpt lat="44.3726962" lon="8.2439732"><ele>415.66666666666663</ele><time>2026-04-26T09:44:43.481Z</time></trkpt><trkpt lat="44.3726922" lon="8.244192"><ele>414.3333333333333</ele><time>2026-04-26T09:44:44.478Z</time></trkpt><trkpt lat="44.3726867" lon="8.2444118"><ele>413.0</ele><time>2026-04-26T09:44:45.478Z</time></trkpt><trkpt lat="44.3726807" lon="8.2446335"><ele>414.3333333333333</ele><time>2026-04-26T09:44:46.478Z</time></trkpt><trkpt lat="44.372676" lon="8.244857"><ele>415.66666666666663</ele><time>2026-04-26T09:44:47.478Z</time></trkpt><trkpt lat="44.3726715" lon="8.2450798"><ele>417.0</ele><time>2026-04-26T09:44:48.48Z</time></trkpt><trkpt lat="44.3726657" lon="8.2453012"><ele>417.0</ele><time>2026-04-26T09:44:49.474Z</time></trkpt><trkpt lat="44.37266" lon="8.2455187"><ele>417.0</ele><time>2026-04-26T09:44:50.475Z</time></trkpt><trkpt lat="44.3726505" lon="8.2457337"><ele>417.0</ele><time>2026-04-26T09:44:51.475Z</time></trkpt><trkpt lat="44.3726347" lon="8.2459462"><ele>416.66666666666663</ele><time>2026-04-26T09:44:52.474Z</time></trkpt><trkpt lat="44.37261" lon="8.2461562"><ele>416.3333333333333</ele><time>2026-04-26T09:44:53.476Z</time></trkpt><trkpt lat="44.3725765" lon="8.2463668"><ele>416.0</ele><time>2026-04-26T09:44:54.475Z</time></trkpt><trkpt lat="44.3725332" lon="8.2465805"><ele>416.0</ele><time>2026-04-26T09:44:55.479Z</time></trkpt><trkpt lat="44.3724802" lon="8.2467977"><ele>416.0</ele><time>2026-04-26T09:44:56.475Z</time></trkpt><trkpt lat="44.3724165" lon="8.247015"><ele>416.0</ele><time>2026-04-26T09:44:57.475Z</time></trkpt><trkpt lat="44.3723435" lon="8.2472307"><ele>414.66666666666663</ele><time>2026-04-26T09:44:58.478Z</time></trkpt><trkpt lat="44.3722645" lon="8.247442"><ele>413.33333333333337</ele><time>2026-04-26T09:44:59.475Z</time></trkpt><trkpt lat="44.3721822" lon="8.2476528"><ele>412.0</ele><time>2026-04-26T09:45:00.476Z</time></trkpt><trkpt lat="44.3721" lon="8.247866"><ele>412.0</ele><time>2026-04-26T09:45:01.477Z</time></trkpt><trkpt lat="44.3720183" lon="8.2480805"><ele>412.0</ele><time>2026-04-26T09:45:02.476Z</time></trkpt><trkpt lat="44.3719368" lon="8.248295"><ele>412.0</ele><time>2026-04-26T09:45:03.476Z</time></trkpt><trkpt lat="44.3718557" lon="8.2485075"><ele>412.0</ele><time>2026-04-26T09:45:04.462Z</time></trkpt><trkpt lat="44.3717757" lon="8.2487177"><ele>412.0</ele><time>2026-04-26T09:45:05.475Z</time></trkpt><trkpt lat="44.3717007" lon="8.2489162"><ele>412.0</ele><time>2026-04-26T09:45:06.476Z</time></trkpt><trkpt lat="44.3716287" lon="8.2491083"><ele>411.0</ele><time>2026-04-26T09:45:07.477Z</time></trkpt><trkpt lat="44.3715592" lon="8.2493032"><ele>410.0</ele><time>2026-04-26T09:45:08.477Z</time></trkpt><trkpt lat="44.3714968" lon="8.2495087"><ele>409.0</ele><time>2026-04-26T09:45:09.476Z</time></trkpt><trkpt lat="44.3714467" lon="8.2497267"><ele>409.0</ele><time>2026-04-26T09:45:10.478Z</time></trkpt><trkpt lat="44.3714115" lon="8.2499585"><ele>409.0</ele><time>2026-04-26T09:45:11.477Z</time></trkpt><trkpt lat="44.3713933" lon="8.2502017"><ele>409.0</ele><time>2026-04-26T09:45:12.476Z</time></trkpt><trkpt lat="44.371387" lon="8.250454"><ele>408.6666666666667</ele><time>2026-04-26T09:45:13.474Z</time></trkpt><trkpt lat="44.3713968" lon="8.2507137"><ele>408.33333333333337</ele><time>2026-04-26T09:45:14.474Z</time></trkpt><trkpt lat="44.3714177" lon="8.2509788"><ele>408.0</ele><time>2026-04-26T09:45:15.475Z</time></trkpt><trkpt lat="44.3714393" lon="8.2512392"><ele>406.33333333333337</ele><time>2026-04-26T09:45:16.474Z</time></trkpt><trkpt lat="44.3714592" lon="8.2514932"><ele>404.6666666666667</ele><time>2026-04-26T09:45:17.476Z</time></trkpt><trkpt lat="44.371478" lon="8.2517447"><ele>403.0</ele><time>2026-04-26T09:45:18.479Z</time></trkpt><trkpt lat="44.3714962" lon="8.2519895"><ele>403.0</ele><time>2026-04-26T09:45:19.48Z</time></trkpt><trkpt lat="44.3715138" lon="8.2522253"><ele>403.0</ele><time>2026-04-26T09:45:20.477Z</time></trkpt><trkpt lat="44.3715345" lon="8.2524522"><ele>403.0</ele><time>2026-04-26T09:45:21.478Z</time></trkpt><trkpt lat="44.3715605" lon="8.252673"><ele>403.0</ele><time>2026-04-26T09:45:22.475Z</time></trkpt><trkpt lat="44.3715955" lon="8.2528933"><ele>403.0</ele><time>2026-04-26T09:45:23.475Z</time></trkpt><trkpt lat="44.3716427" lon="8.2531145"><ele>403.0</ele><time>2026-04-26T09:45:24.474Z</time></trkpt><trkpt lat="44.3717052" lon="8.253336"><ele>403.33333333333337</ele><time>2026-04-26T09:45:25.475Z</time></trkpt><trkpt lat="44.3717805" lon="8.2535555"><ele>403.66666666666663</ele><time>2026-04-26T09:45:26.477Z</time></trkpt><trkpt lat="44.3718627" lon="8.25377"><ele>404.0</ele><time>2026-04-26T09:45:27.475Z</time></trkpt><trkpt lat="44.3719482" lon="8.2539842"><ele>404.0</ele><time>2026-04-26T09:45:28.475Z</time></trkpt><trkpt lat="44.3720343" lon="8.2541978"><ele>404.0</ele><time>2026-04-26T09:45:29.476Z</time></trkpt><trkpt lat="44.3721193" lon="8.2544112"><ele>404.0</ele><time>2026-04-26T09:45:30.476Z</time></trkpt><trkpt lat="44.372203" lon="8.2546237"><ele>402.66666666666663</ele><time>2026-04-26T09:45:31.477Z</time></trkpt><trkpt lat="44.3722855" lon="8.2548348"><ele>401.33333333333337</ele><time>2026-04-26T09:45:32.476Z</time></trkpt><trkpt lat="44.3723683" lon="8.2550443"><ele>400.0</ele><time>2026-04-26T09:45:33.476Z</time></trkpt><trkpt lat="44.3724517" lon="8.2552522"><ele>400.0</ele><time>2026-04-26T09:45:34.477Z</time></trkpt><trkpt lat="44.372536" lon="8.2554653"><ele>400.0</ele><time>2026-04-26T09:45:35.477Z</time></trkpt><trkpt lat="44.3726215" lon="8.255683"><ele>400.0</ele><time>2026-04-26T09:45:36.475Z</time></trkpt><trkpt lat="44.3727075" lon="8.2559048"><ele>397.33333333333337</ele><time>2026-04-26T09:45:37.476Z</time></trkpt><trkpt lat="44.372795" lon="8.2561273"><ele>394.66666666666663</ele><time>2026-04-26T09:45:38.474Z</time></trkpt><trkpt lat="44.3728837" lon="8.2563452"><ele>392.0</ele><time>2026-04-26T09:45:39.475Z</time></trkpt><trkpt lat="44.3729723" lon="8.2565597"><ele>391.66666666666663</ele><time>2026-04-26T09:45:40.475Z</time></trkpt><trkpt lat="44.373055" lon="8.2567758"><ele>391.33333333333337</ele><time>2026-04-26T09:45:41.476Z</time></trkpt><trkpt lat="44.3731323" lon="8.2569925"><ele>391.0</ele><time>2026-04-26T09:45:42.479Z</time></trkpt><trkpt lat="44.3731995" lon="8.2572127"><ele>388.33333333333337</ele><time>2026-04-26T09:45:43.48Z</time></trkpt><trkpt lat="44.3732533" lon="8.2574387"><ele>385.6666666666667</ele><time>2026-04-26T09:45:44.477Z</time></trkpt><trkpt lat="44.3732922" lon="8.2576712"><ele>383.0</ele><time>2026-04-26T09:45:45.478Z</time></trkpt><trkpt lat="44.3733135" lon="8.2579102"><ele>383.33333333333337</ele><time>2026-04-26T09:45:46.477Z</time></trkpt><trkpt lat="44.3733208" lon="8.2581555"><ele>383.6666666666667</ele><time>2026-04-26T09:45:47.479Z</time></trkpt><trkpt lat="44.3733205" lon="8.2584067"><ele>384.0</ele><time>2026-04-26T09:45:48.479Z</time></trkpt><trkpt lat="44.3733172" lon="8.258657"><ele>384.0</ele><time>2026-04-26T09:45:49.479Z</time></trkpt><trkpt lat="44.3733137" lon="8.2589068"><ele>384.0</ele><time>2026-04-26T09:45:50.476Z</time></trkpt><trkpt lat="44.3733095" lon="8.2591575"><ele>384.0</ele><time>2026-04-26T09:45:51.478Z</time></trkpt><trkpt lat="44.3733062" lon="8.2594065"><ele>384.0</ele><time>2026-04-26T09:45:52.477Z</time></trkpt><trkpt lat="44.373302" lon="8.2596532"><ele>384.0</ele><time>2026-04-26T09:45:53.477Z</time></trkpt><trkpt lat="44.3732995" lon="8.2598953"><ele>384.0</ele><time>2026-04-26T09:45:54.476Z</time></trkpt><trkpt lat="44.3732995" lon="8.2601333"><ele>384.33333333333337</ele><time>2026-04-26T09:45:55.477Z</time></trkpt><trkpt lat="44.3732982" lon="8.260368"><ele>384.6666666666667</ele><time>2026-04-26T09:45:56.474Z</time></trkpt><trkpt lat="44.3732955" lon="8.2605992"><ele>385.0</ele><time>2026-04-26T09:45:57.474Z</time></trkpt><trkpt lat="44.3732907" lon="8.2608273"><ele>385.33333333333337</ele><time>2026-04-26T09:45:58.475Z</time></trkpt><trkpt lat="44.3732885" lon="8.2610515"><ele>385.66666666666663</ele><time>2026-04-26T09:45:59.477Z</time></trkpt><trkpt lat="44.373285" lon="8.2612723"><ele>386.0</ele><time>2026-04-26T09:46:00.477Z</time></trkpt><trkpt lat="44.373284" lon="8.2614913"><ele>385.0</ele><time>2026-04-26T09:46:01.477Z</time></trkpt><trkpt lat="44.3732845" lon="8.2617125"><ele>384.0</ele><time>2026-04-26T09:46:02.476Z</time></trkpt><trkpt lat="44.3732852" lon="8.261935"><ele>383.0</ele><time>2026-04-26T09:46:03.472Z</time></trkpt><trkpt lat="44.3732855" lon="8.2621593"><ele>381.33333333333337</ele><time>2026-04-26T09:46:04.474Z</time></trkpt><trkpt lat="44.3732868" lon="8.2623848"><ele>379.6666666666667</ele><time>2026-04-26T09:46:05.475Z</time></trkpt><trkpt lat="44.3732842" lon="8.2626152"><ele>378.0</ele><time>2026-04-26T09:46:06.476Z</time></trkpt><trkpt lat="44.3732812" lon="8.2628557"><ele>378.0</ele><time>2026-04-26T09:46:07.479Z</time></trkpt><trkpt lat="44.3732772" lon="8.263105"><ele>378.0</ele><time>2026-04-26T09:46:08.479Z</time></trkpt><trkpt lat="44.373272" lon="8.2633605"><ele>378.0</ele><time>2026-04-26T09:46:09.48Z</time></trkpt><trkpt lat="44.3732668" lon="8.2636182"><ele>377.3333333333333</ele><time>2026-04-26T09:46:10.479Z</time></trkpt><trkpt lat="44.3732635" lon="8.2638748"><ele>376.66666666666663</ele><time>2026-04-26T09:46:11.479Z</time></trkpt><trkpt lat="44.3732547" lon="8.2641275"><ele>376.0</ele><time>2026-04-26T09:46:12.478Z</time></trkpt><trkpt lat="44.3732355" lon="8.2643748"><ele>375.0</ele><time>2026-04-26T09:46:13.478Z</time></trkpt><trkpt lat="44.3732023" lon="8.2646153"><ele>374.0</ele><time>2026-04-26T09:46:14.479Z</time></trkpt><trkpt lat="44.3731555" lon="8.2648527"><ele>373.0</ele><time>2026-04-26T09:46:15.477Z</time></trkpt><trkpt lat="44.3731012" lon="8.2650868"><ele>373.0</ele><time>2026-04-26T09:46:16.478Z</time></trkpt><trkpt lat="44.3730462" lon="8.2653067"><ele>373.0</ele><time>2026-04-26T09:46:17.478Z</time></trkpt><trkpt lat="44.372991" lon="8.2655233"><ele>373.0</ele><time>2026-04-26T09:46:18.477Z</time></trkpt><trkpt lat="44.372937" lon="8.265741"><ele>371.66666666666663</ele><time>2026-04-26T09:46:19.478Z</time></trkpt><trkpt lat="44.3728817" lon="8.2659593"><ele>370.3333333333333</ele><time>2026-04-26T09:46:20.478Z</time></trkpt><trkpt lat="44.3728262" lon="8.2661765"><ele>369.0</ele><time>2026-04-26T09:46:21.478Z</time></trkpt><trkpt lat="44.3727715" lon="8.2663933"><ele>368.6666666666667</ele><time>2026-04-26T09:46:22.478Z</time></trkpt><trkpt lat="44.372717" lon="8.26661"><ele>368.33333333333337</ele><time>2026-04-26T09:46:23.48Z</time></trkpt><trkpt lat="44.3726643" lon="8.266827"><ele>368.0</ele><time>2026-04-26T09:46:24.478Z</time></trkpt><trkpt lat="44.3726112" lon="8.2670418"><ele>368.0</ele><time>2026-04-26T09:46:25.48Z</time></trkpt><trkpt lat="44.3725583" lon="8.2672535"><ele>368.0</ele><time>2026-04-26T09:46:26.476Z</time></trkpt><trkpt lat="44.372506" lon="8.267463"><ele>368.0</ele><time>2026-04-26T09:46:27.475Z</time></trkpt><trkpt lat="44.3724562" lon="8.2676733"><ele>368.6666666666667</ele><time>2026-04-26T09:46:28.476Z</time></trkpt><trkpt lat="44.3724093" lon="8.267884"><ele>369.3333333333333</ele><time>2026-04-26T09:46:29.476Z</time></trkpt><trkpt lat="44.372366" lon="8.2680867"><ele>370.0</ele><time>2026-04-26T09:46:30.475Z</time></trkpt><trkpt lat="44.3723248" lon="8.2682778"><ele>370.0</ele><time>2026-04-26T09:46:31.481Z</time></trkpt><trkpt lat="44.3722847" lon="8.2684532"><ele>370.0</ele><time>2026-04-26T09:46:32.478Z</time></trkpt><trkpt lat="44.3722463" lon="8.2686042"><ele>370.0</ele><time>2026-04-26T09:46:33.476Z</time></trkpt><trkpt lat="44.3722085" lon="8.268732"><ele>370.0</ele><time>2026-04-26T09:46:34.477Z</time></trkpt><trkpt lat="44.3721763" lon="8.2688375"><ele>370.0</ele><time>2026-04-26T09:46:35.477Z</time></trkpt><trkpt lat="44.3721412" lon="8.2689818"><ele>369.66666666666663</ele><time>2026-04-26T09:46:37.479Z</time></trkpt><trkpt lat="44.3721158" lon="8.2690707"><ele>369.3333333333333</ele><time>2026-04-26T09:47:19.474Z</time></trkpt><trkpt lat="44.3720958" lon="8.269235"><ele>369.0</ele><time>2026-04-26T09:47:21.476Z</time></trkpt><trkpt lat="44.3720813" lon="8.2693358"><ele>368.6666666666667</ele><time>2026-04-26T09:47:22.476Z</time></trkpt><trkpt lat="44.3720613" lon="8.2694535"><ele>368.33333333333337</ele><time>2026-04-26T09:47:23.479Z</time></trkpt><trkpt lat="44.3720345" lon="8.2695877"><ele>368.0</ele><time>2026-04-26T09:47:24.478Z</time></trkpt><trkpt lat="44.3720065" lon="8.269727"><ele>367.75</ele><time>2026-04-26T09:47:25.478Z</time></trkpt><trkpt lat="44.3719762" lon="8.2698793"><ele>367.5</ele><time>2026-04-26T09:47:26.479Z</time></trkpt><trkpt lat="44.3719435" lon="8.2700438"><ele>367.25</ele><time>2026-04-26T09:47:27.479Z</time></trkpt><trkpt lat="44.3719092" lon="8.270217"><ele>367.0</ele><time>2026-04-26T09:47:28.478Z</time></trkpt><trkpt lat="44.3718725" lon="8.270389"><ele>367.0</ele><time>2026-04-26T09:47:29.479Z</time></trkpt><trkpt lat="44.3718358" lon="8.270569"><ele>367.0</ele><time>2026-04-26T09:47:30.478Z</time></trkpt><trkpt lat="44.3717978" lon="8.2707568"><ele>367.0</ele><time>2026-04-26T09:47:31.481Z</time></trkpt><trkpt lat="44.3717603" lon="8.270948"><ele>367.0</ele><time>2026-04-26T09:47:32.478Z</time></trkpt><trkpt lat="44.371722" lon="8.2711438"><ele>366.5</ele><time>2026-04-26T09:47:33.478Z</time></trkpt><trkpt lat="44.3716823" lon="8.2713413"><ele>366.0</ele><time>2026-04-26T09:47:34.481Z</time></trkpt><trkpt lat="44.3716413" lon="8.2715408"><ele>365.5</ele><time>2026-04-26T09:47:35.478Z</time></trkpt><trkpt lat="44.3716002" lon="8.2717393"><ele>365.0</ele><time>2026-04-26T09:47:36.478Z</time></trkpt><trkpt lat="44.3715585" lon="8.2719468"><ele>365.0</ele><time>2026-04-26T09:47:37.48Z</time></trkpt><trkpt lat="44.3715167" lon="8.2721613"><ele>365.0</ele><time>2026-04-26T09:47:38.478Z</time></trkpt><trkpt lat="44.3714747" lon="8.2723785"><ele>365.0</ele><time>2026-04-26T09:47:39.477Z</time></trkpt><trkpt lat="44.3714325" lon="8.272599"><ele>365.33333333333337</ele><time>2026-04-26T09:47:40.477Z</time></trkpt><trkpt lat="44.371391" lon="8.2728205"><ele>365.6666666666667</ele><time>2026-04-26T09:47:41.476Z</time></trkpt><trkpt lat="44.3713477" lon="8.2730403"><ele>366.0</ele><time>2026-04-26T09:47:42.478Z</time></trkpt><trkpt lat="44.3713048" lon="8.2732575"><ele>364.0</ele><time>2026-04-26T09:47:43.481Z</time></trkpt><trkpt lat="44.3712633" lon="8.2734723"><ele>362.0</ele><time>2026-04-26T09:47:44.477Z</time></trkpt><trkpt lat="44.3712225" lon="8.2736855"><ele>360.0</ele><time>2026-04-26T09:47:45.479Z</time></trkpt><trkpt lat="44.3711818" lon="8.2738978"><ele>359.3333333333333</ele><time>2026-04-26T09:47:46.478Z</time></trkpt><trkpt lat="44.371141" lon="8.27411"><ele>358.66666666666663</ele><time>2026-04-26T09:47:47.479Z</time></trkpt><trkpt lat="44.3710983" lon="8.2743262"><ele>358.0</ele><time>2026-04-26T09:47:48.479Z</time></trkpt><trkpt lat="44.3710553" lon="8.2745463"><ele>358.0</ele><time>2026-04-26T09:47:49.48Z</time></trkpt><trkpt lat="44.3710122" lon="8.2747668"><ele>358.0</ele><time>2026-04-26T09:47:50.481Z</time></trkpt><trkpt lat="44.370969" lon="8.2749857"><ele>358.0</ele><time>2026-04-26T09:47:51.479Z</time></trkpt><trkpt lat="44.3709272" lon="8.2752017"><ele>358.0</ele><time>2026-04-26T09:47:52.48Z</time></trkpt><trkpt lat="44.3708862" lon="8.2754165"><ele>358.0</ele><time>2026-04-26T09:47:53.48Z</time></trkpt><trkpt lat="44.3708455" lon="8.275632"><ele>358.0</ele><time>2026-04-26T09:47:54.479Z</time></trkpt><trkpt lat="44.3708058" lon="8.2758488"><ele>358.0</ele><time>2026-04-26T09:47:55.48Z</time></trkpt><trkpt lat="44.3707685" lon="8.2760698"><ele>358.0</ele><time>2026-04-26T09:47:56.479Z</time></trkpt><trkpt lat="44.3707352" lon="8.2762957"><ele>358.0</ele><time>2026-04-26T09:47:57.48Z</time></trkpt><trkpt lat="44.3707083" lon="8.2765275"><ele>357.66666666666663</ele><time>2026-04-26T09:47:58.479Z</time></trkpt><trkpt lat="44.370686" lon="8.2767625"><ele>357.3333333333333</ele><time>2026-04-26T09:47:59.479Z</time></trkpt><trkpt lat="44.3706653" lon="8.2769955"><ele>357.0</ele><time>2026-04-26T09:48:00.48Z</time></trkpt><trkpt lat="44.3706525" lon="8.2772268"><ele>356.3333333333333</ele><time>2026-04-26T09:48:01.48Z</time></trkpt><trkpt lat="44.3706552" lon="8.2774612"><ele>355.66666666666663</ele><time>2026-04-26T09:48:02.48Z</time></trkpt><trkpt lat="44.3706747" lon="8.277698"><ele>355.0</ele><time>2026-04-26T09:48:03.479Z</time></trkpt><trkpt lat="44.3707038" lon="8.2779338"><ele>354.66666666666663</ele><time>2026-04-26T09:48:04.478Z</time></trkpt><trkpt lat="44.370736" lon="8.2781685"><ele>354.3333333333333</ele><time>2026-04-26T09:48:05.475Z</time></trkpt><trkpt lat="44.3707698" lon="8.2784075"><ele>354.0</ele><time>2026-04-26T09:48:06.474Z</time></trkpt><trkpt lat="44.3708033" lon="8.2786478"><ele>354.0</ele><time>2026-04-26T09:48:07.474Z</time></trkpt><trkpt lat="44.3708367" lon="8.2788882"><ele>354.0</ele><time>2026-04-26T09:48:08.476Z</time></trkpt><trkpt lat="44.37087" lon="8.2791313"><ele>354.0</ele><time>2026-04-26T09:48:09.478Z</time></trkpt><trkpt lat="44.3709042" lon="8.2793768"><ele>354.6666666666667</ele><time>2026-04-26T09:48:10.476Z</time></trkpt><trkpt lat="44.3709377" lon="8.2796213"><ele>355.33333333333337</ele><time>2026-04-26T09:48:11.477Z</time></trkpt><trkpt lat="44.3709703" lon="8.2798652"><ele>356.0</ele><time>2026-04-26T09:48:12.478Z</time></trkpt><trkpt lat="44.371004" lon="8.2801075"><ele>356.0</ele><time>2026-04-26T09:48:13.479Z</time></trkpt><trkpt lat="44.3710395" lon="8.2803477"><ele>356.0</ele><time>2026-04-26T09:48:14.479Z</time></trkpt><trkpt lat="44.3710735" lon="8.2805843"><ele>356.0</ele><time>2026-04-26T09:48:15.479Z</time></trkpt><trkpt lat="44.3711068" lon="8.2808182"><ele>359.33333333333337</ele><time>2026-04-26T09:48:16.476Z</time></trkpt><trkpt lat="44.37114" lon="8.2810527"><ele>362.6666666666667</ele><time>2026-04-26T09:48:17.476Z</time></trkpt><trkpt lat="44.3711698" lon="8.2812872"><ele>366.0</ele><time>2026-04-26T09:48:18.476Z</time></trkpt><trkpt lat="44.3711917" lon="8.2815213"><ele>367.0</ele><time>2026-04-26T09:48:19.479Z</time></trkpt><trkpt lat="44.3711988" lon="8.281756"><ele>368.0</ele><time>2026-04-26T09:48:20.477Z</time></trkpt><trkpt lat="44.371189" lon="8.2819932"><ele>369.0</ele><time>2026-04-26T09:48:21.479Z</time></trkpt><trkpt lat="44.3711672" lon="8.2822323"><ele>367.0</ele><time>2026-04-26T09:48:22.479Z</time></trkpt><trkpt lat="44.3711433" lon="8.282474"><ele>365.0</ele><time>2026-04-26T09:48:23.479Z</time></trkpt><trkpt lat="44.3711195" lon="8.2827185"><ele>363.0</ele><time>2026-04-26T09:48:24.48Z</time></trkpt><trkpt lat="44.371098" lon="8.2829645"><ele>362.0</ele><time>2026-04-26T09:48:25.478Z</time></trkpt><trkpt lat="44.3710878" lon="8.2832115"><ele>361.0</ele><time>2026-04-26T09:48:26.48Z</time></trkpt><trkpt lat="44.3710993" lon="8.2834602"><ele>360.0</ele><time>2026-04-26T09:48:27.478Z</time></trkpt><trkpt lat="44.371128" lon="8.2837105"><ele>360.0</ele><time>2026-04-26T09:48:28.478Z</time></trkpt><trkpt lat="44.371164" lon="8.2839608"><ele>360.0</ele><time>2026-04-26T09:48:29.476Z</time></trkpt><trkpt lat="44.3712033" lon="8.2842042"><ele>360.0</ele><time>2026-04-26T09:48:30.475Z</time></trkpt><trkpt lat="44.3712408" lon="8.2844352"><ele>360.0</ele><time>2026-04-26T09:48:31.475Z</time></trkpt><trkpt lat="44.3712712" lon="8.2846505"><ele>360.0</ele><time>2026-04-26T09:48:32.476Z</time></trkpt><trkpt lat="44.3712873" lon="8.2848582"><ele>360.0</ele><time>2026-04-26T09:48:33.478Z</time></trkpt><trkpt lat="44.3712772" lon="8.2850632"><ele>361.0</ele><time>2026-04-26T09:48:34.479Z</time></trkpt><trkpt lat="44.3712333" lon="8.285268"><ele>362.0</ele><time>2026-04-26T09:48:35.479Z</time></trkpt><trkpt lat="44.3711647" lon="8.2854752"><ele>363.0</ele><time>2026-04-26T09:48:36.477Z</time></trkpt><trkpt lat="44.3710907" lon="8.2856837"><ele>360.0</ele><time>2026-04-26T09:48:37.478Z</time></trkpt><trkpt lat="44.3710162" lon="8.2858918"><ele>357.0</ele><time>2026-04-26T09:48:38.477Z</time></trkpt><trkpt lat="44.3709443" lon="8.2860978"><ele>354.0</ele><time>2026-04-26T09:48:39.476Z</time></trkpt><trkpt lat="44.3708758" lon="8.2862993"><ele>351.75</ele><time>2026-04-26T09:48:40.48Z</time></trkpt><trkpt lat="44.3708087" lon="8.2864927"><ele>349.5</ele><time>2026-04-26T09:48:41.478Z</time></trkpt><trkpt lat="44.3707395" lon="8.2866707"><ele>347.25</ele><time>2026-04-26T09:48:42.477Z</time></trkpt><trkpt lat="44.3706677" lon="8.2868325"><ele>345.0</ele><time>2026-04-26T09:48:43.478Z</time></trkpt><trkpt lat="44.3705945" lon="8.286985"><ele>345.75</ele><time>2026-04-26T09:48:44.479Z</time></trkpt><trkpt lat="44.370521" lon="8.287133"><ele>346.5</ele><time>2026-04-26T09:48:45.476Z</time></trkpt><trkpt lat="44.3704465" lon="8.2872815"><ele>347.25</ele><time>2026-04-26T09:48:46.477Z</time></trkpt><trkpt lat="44.3703728" lon="8.2874298"><ele>348.0</ele><time>2026-04-26T09:48:47.478Z</time></trkpt><trkpt lat="44.3702985" lon="8.2875807"><ele>348.0</ele><time>2026-04-26T09:48:48.477Z</time></trkpt><trkpt lat="44.370224" lon="8.2877325"><ele>348.0</ele><time>2026-04-26T09:48:49.479Z</time></trkpt><trkpt lat="44.3701508" lon="8.2878818"><ele>348.0</ele><time>2026-04-26T09:48:50.48Z</time></trkpt><trkpt lat="44.3700833" lon="8.2880212"><ele>348.0</ele><time>2026-04-26T09:48:51.477Z</time></trkpt><trkpt lat="44.3700212" lon="8.2881505"><ele>347.79999999999995</ele><time>2026-04-26T09:48:52.478Z</time></trkpt><trkpt lat="44.3699602" lon="8.2882722"><ele>347.6</ele><time>2026-04-26T09:48:53.478Z</time></trkpt><trkpt lat="44.3699003" lon="8.2883915"><ele>347.4</ele><time>2026-04-26T09:48:54.474Z</time></trkpt><trkpt lat="44.369842" lon="8.2885057"><ele>347.20000000000005</ele><time>2026-04-26T09:48:55.474Z</time></trkpt><trkpt lat="44.3697788" lon="8.2885985"><ele>347.0</ele><time>2026-04-26T09:48:56.474Z</time></trkpt><trkpt lat="44.3697122" lon="8.2886667"><ele>347.14285714285717</ele><time>2026-04-26T09:48:57.474Z</time></trkpt><trkpt lat="44.3696505" lon="8.288724"><ele>347.2857142857143</ele><time>2026-04-26T09:48:58.477Z</time></trkpt><trkpt lat="44.3695942" lon="8.288777"><ele>347.42857142857144</ele><time>2026-04-26T09:48:59.478Z</time></trkpt><trkpt lat="44.3695375" lon="8.2888313"><ele>347.57142857142856</ele><time>2026-04-26T09:49:00.476Z</time></trkpt><trkpt lat="44.3694788" lon="8.2888847"><ele>347.7142857142857</ele><time>2026-04-26T09:49:01.477Z</time></trkpt><trkpt lat="44.3694165" lon="8.2889392"><ele>347.85714285714283</ele><time>2026-04-26T09:49:02.476Z</time></trkpt><trkpt lat="44.3693557" lon="8.2889968"><ele>348.0</ele><time>2026-04-26T09:49:03.476Z</time></trkpt><trkpt lat="44.3692942" lon="8.2890557"><ele>348.0</ele><time>2026-04-26T09:49:04.476Z</time></trkpt><trkpt lat="44.3692322" lon="8.2891173"><ele>348.0</ele><time>2026-04-26T09:49:05.476Z</time></trkpt><trkpt lat="44.3691697" lon="8.2891787"><ele>348.0</ele><time>2026-04-26T09:49:06.474Z</time></trkpt><trkpt lat="44.369106" lon="8.2892327"><ele>348.0</ele><time>2026-04-26T09:49:07.478Z</time></trkpt><trkpt lat="44.3690402" lon="8.2892802"><ele>348.0</ele><time>2026-04-26T09:49:08.475Z</time></trkpt><trkpt lat="44.3689732" lon="8.2893217"><ele>348.0</ele><time>2026-04-26T09:49:09.475Z</time></trkpt><trkpt lat="44.3689058" lon="8.2893633"><ele>348.0</ele><time>2026-04-26T09:49:10.475Z</time></trkpt><trkpt lat="44.3688405" lon="8.2894067"><ele>347.59999999999997</ele><time>2026-04-26T09:49:11.477Z</time></trkpt><trkpt lat="44.3687803" lon="8.2894522"><ele>347.2</ele><time>2026-04-26T09:49:12.474Z</time></trkpt><trkpt lat="44.3686778" lon="8.2895293"><ele>346.8</ele><time>2026-04-26T09:49:14.476Z</time></trkpt><trkpt lat="44.3686248" lon="8.2895777"><ele>346.4</ele><time>2026-04-26T09:49:17.476Z</time></trkpt><trkpt lat="44.3685385" lon="8.2896258"><ele>346.0</ele><time>2026-04-26T09:49:27.475Z</time></trkpt><trkpt lat="44.3684062" lon="8.2896485"><ele>346.0</ele><time>2026-04-26T09:49:29.477Z</time></trkpt><trkpt lat="44.3683237" lon="8.289658"><ele>346.0</ele><time>2026-04-26T09:49:30.476Z</time></trkpt><trkpt lat="44.3682378" lon="8.2896732"><ele>346.0</ele><time>2026-04-26T09:49:31.476Z</time></trkpt><trkpt lat="44.3681517" lon="8.2896907"><ele>346.0</ele><time>2026-04-26T09:49:32.475Z</time></trkpt><trkpt lat="44.3680605" lon="8.289711"><ele>346.0</ele><time>2026-04-26T09:49:33.475Z</time></trkpt><trkpt lat="44.3679643" lon="8.289732"><ele>346.0</ele><time>2026-04-26T09:49:34.478Z</time></trkpt><trkpt lat="44.3678663" lon="8.2897527"><ele>345.3333333333333</ele><time>2026-04-26T09:49:35.477Z</time></trkpt><trkpt lat="44.3677755" lon="8.2897707"><ele>344.66666666666663</ele><time>2026-04-26T09:49:36.478Z</time></trkpt><trkpt lat="44.3676915" lon="8.2897843"><ele>344.0</ele><time>2026-04-26T09:49:37.479Z</time></trkpt><trkpt lat="44.3676067" lon="8.2897993"><ele>343.3333333333333</ele><time>2026-04-26T09:49:38.479Z</time></trkpt><trkpt lat="44.3675302" lon="8.289813"><ele>342.6666666666667</ele><time>2026-04-26T09:49:39.479Z</time></trkpt><trkpt lat="44.3674642" lon="8.289825"><ele>342.0</ele><time>2026-04-26T09:49:40.479Z</time></trkpt><trkpt lat="44.367371" lon="8.2898768"><ele>342.0</ele><time>2026-04-26T09:49:42.478Z</time></trkpt><trkpt lat="44.3673495" lon="8.2900505"><ele>342.0</ele><time>2026-04-26T09:49:44.476Z</time></trkpt><trkpt lat="44.3673565" lon="8.2901752"><ele>342.0</ele><time>2026-04-26T09:49:45.474Z</time></trkpt><trkpt lat="44.3673682" lon="8.2903125"><ele>342.0</ele><time>2026-04-26T09:49:46.476Z</time></trkpt><trkpt lat="44.3673757" lon="8.2904637"><ele>342.0</ele><time>2026-04-26T09:49:47.478Z</time></trkpt><trkpt lat="44.3673843" lon="8.2906195"><ele>341.8</ele><time>2026-04-26T09:49:48.478Z</time></trkpt><trkpt lat="44.3673987" lon="8.2907705"><ele>341.6</ele><time>2026-04-26T09:49:49.48Z</time></trkpt><trkpt lat="44.3674155" lon="8.290917"><ele>341.40000000000003</ele><time>2026-04-26T09:49:50.479Z</time></trkpt><trkpt lat="44.3674375" lon="8.2910633"><ele>341.20000000000005</ele><time>2026-04-26T09:49:51.477Z</time></trkpt><trkpt lat="44.3674673" lon="8.2912082"><ele>341.0</ele><time>2026-04-26T09:49:52.477Z</time></trkpt><trkpt lat="44.367501" lon="8.2913603"><ele>341.0</ele><time>2026-04-26T09:49:53.478Z</time></trkpt><trkpt lat="44.3675338" lon="8.2915182"><ele>341.0</ele><time>2026-04-26T09:49:54.48Z</time></trkpt><trkpt lat="44.3675648" lon="8.2916752"><ele>341.0</ele><time>2026-04-26T09:49:55.476Z</time></trkpt><trkpt lat="44.3675973" lon="8.2918295"><ele>341.0</ele><time>2026-04-26T09:49:56.475Z</time></trkpt><trkpt lat="44.3676298" lon="8.2919833"><ele>341.0</ele><time>2026-04-26T09:49:57.475Z</time></trkpt><trkpt lat="44.3676627" lon="8.292135"><ele>341.0</ele><time>2026-04-26T09:49:58.477Z</time></trkpt><trkpt lat="44.3676957" lon="8.2922837"><ele>341.0</ele><time>2026-04-26T09:49:59.477Z</time></trkpt><trkpt lat="44.3677247" lon="8.2924228"><ele>341.0</ele><time>2026-04-26T09:50:00.476Z</time></trkpt><trkpt lat="44.3677472" lon="8.2925457"><ele>341.0</ele><time>2026-04-26T09:50:01.477Z</time></trkpt><trkpt lat="44.3677647" lon="8.2926492"><ele>341.4</ele><time>2026-04-26T09:50:02.479Z</time></trkpt><trkpt lat="44.3677923" lon="8.2928008"><ele>341.8</ele><time>2026-04-26T09:50:04.479Z</time></trkpt><trkpt lat="44.3678318" lon="8.2929113"><ele>342.2</ele><time>2026-04-26T09:50:06.476Z</time></trkpt><trkpt lat="44.3679205" lon="8.2930075"><ele>342.59999999999997</ele><time>2026-04-26T09:50:08.474Z</time></trkpt><trkpt lat="44.3680098" lon="8.2931248"><ele>343.0</ele><time>2026-04-26T09:50:10.474Z</time></trkpt><trkpt lat="44.3680668" lon="8.293275"><ele>343.2</ele><time>2026-04-26T09:50:12.474Z</time></trkpt><trkpt lat="44.36807" lon="8.293386"><ele>343.4</ele><time>2026-04-26T09:50:13.476Z</time></trkpt><trkpt lat="44.3680628" lon="8.2935118"><ele>343.59999999999997</ele><time>2026-04-26T09:50:14.475Z</time></trkpt><trkpt lat="44.368059" lon="8.2936463"><ele>343.79999999999995</ele><time>2026-04-26T09:50:15.475Z</time></trkpt><trkpt lat="44.3680583" lon="8.2937852"><ele>344.0</ele><time>2026-04-26T09:50:16.475Z</time></trkpt><trkpt lat="44.3680648" lon="8.2939208"><ele>344.0</ele><time>2026-04-26T09:50:17.479Z</time></trkpt><trkpt lat="44.3680727" lon="8.2940583"><ele>344.0</ele><time>2026-04-26T09:50:18.475Z</time></trkpt><trkpt lat="44.3680817" lon="8.2942057"><ele>344.0</ele><time>2026-04-26T09:50:19.476Z</time></trkpt><trkpt lat="44.3680855" lon="8.2943622"><ele>344.0</ele><time>2026-04-26T09:50:20.479Z</time></trkpt><trkpt lat="44.3680847" lon="8.2945193"><ele>344.0</ele><time>2026-04-26T09:50:21.479Z</time></trkpt><trkpt lat="44.3680772" lon="8.2946685"><ele>344.6</ele><time>2026-04-26T09:50:22.48Z</time></trkpt><trkpt lat="44.3680673" lon="8.2948148"><ele>345.2</ele><time>2026-04-26T09:50:23.478Z</time></trkpt><trkpt lat="44.3680595" lon="8.2949677"><ele>345.8</ele><time>2026-04-26T09:50:24.475Z</time></trkpt><trkpt lat="44.3680555" lon="8.2951233"><ele>346.40000000000003</ele><time>2026-04-26T09:50:25.481Z</time></trkpt><trkpt lat="44.3680572" lon="8.2952763"><ele>347.0</ele><time>2026-04-26T09:50:26.476Z</time></trkpt><trkpt lat="44.3680597" lon="8.295426"><ele>347.0</ele><time>2026-04-26T09:50:27.475Z</time></trkpt><trkpt lat="44.368062" lon="8.2955708"><ele>347.0</ele><time>2026-04-26T09:50:28.476Z</time></trkpt><trkpt lat="44.3680683" lon="8.2957153"><ele>347.0</ele><time>2026-04-26T09:50:29.478Z</time></trkpt><trkpt lat="44.3680768" lon="8.2958593"><ele>347.0</ele><time>2026-04-26T09:50:30.478Z</time></trkpt><trkpt lat="44.3680865" lon="8.2959902"><ele>347.0</ele><time>2026-04-26T09:50:31.479Z</time></trkpt><trkpt lat="44.3680982" lon="8.2961133"><ele>347.6</ele><time>2026-04-26T09:50:32.475Z</time></trkpt><trkpt lat="44.3681122" lon="8.296239"><ele>348.20000000000005</ele><time>2026-04-26T09:50:33.474Z</time></trkpt><trkpt lat="44.3681282" lon="8.296373"><ele>348.8</ele><time>2026-04-26T09:50:34.478Z</time></trkpt><trkpt lat="44.36815" lon="8.296517"><ele>349.4</ele><time>2026-04-26T09:50:35.476Z</time></trkpt><trkpt lat="44.3681798" lon="8.2966668"><ele>350.0</ele><time>2026-04-26T09:50:36.477Z</time></trkpt><trkpt lat="44.368207" lon="8.2968145"><ele>350.2</ele><time>2026-04-26T09:50:37.477Z</time></trkpt><trkpt lat="44.3682302" lon="8.2969578"><ele>350.4</ele><time>2026-04-26T09:50:38.476Z</time></trkpt><trkpt lat="44.3682457" lon="8.297094"><ele>350.6</ele><time>2026-04-26T09:50:39.476Z</time></trkpt><trkpt lat="44.3682467" lon="8.2972263"><ele>350.8</ele><time>2026-04-26T09:50:40.474Z</time></trkpt><trkpt lat="44.3682408" lon="8.2973553"><ele>351.0</ele><time>2026-04-26T09:50:41.477Z</time></trkpt><trkpt lat="44.3682302" lon="8.297467"><ele>351.1666666666667</ele><time>2026-04-26T09:50:42.475Z</time></trkpt><trkpt lat="44.3682252" lon="8.2975907"><ele>351.3333333333333</ele><time>2026-04-26T09:50:43.475Z</time></trkpt><trkpt lat="44.3682287" lon="8.2977182"><ele>351.5</ele><time>2026-04-26T09:50:44.476Z</time></trkpt><trkpt lat="44.3682365" lon="8.2978317"><ele>351.66666666666663</ele><time>2026-04-26T09:50:45.476Z</time></trkpt><trkpt lat="44.368247" lon="8.2979403"><ele>351.8333333333333</ele><time>2026-04-26T09:50:46.478Z</time></trkpt><trkpt lat="44.3682592" lon="8.2980475"><ele>352.0</ele><time>2026-04-26T09:50:47.478Z</time></trkpt><trkpt lat="44.3682607" lon="8.2981653"><ele>352.20000000000005</ele><time>2026-04-26T09:50:48.477Z</time></trkpt><trkpt lat="44.3682503" lon="8.2982983"><ele>352.4</ele><time>2026-04-26T09:50:49.477Z</time></trkpt><trkpt lat="44.3682385" lon="8.2984365"><ele>352.6</ele><time>2026-04-26T09:50:50.476Z</time></trkpt><trkpt lat="44.3682313" lon="8.2985693"><ele>352.79999999999995</ele><time>2026-04-26T09:50:51.477Z</time></trkpt><trkpt lat="44.3682307" lon="8.298698"><ele>353.0</ele><time>2026-04-26T09:50:52.475Z</time></trkpt><trkpt lat="44.3682472" lon="8.298826"><ele>352.83333333333337</ele><time>2026-04-26T09:50:53.48Z</time></trkpt><trkpt lat="44.3682762" lon="8.2989397"><ele>352.6666666666667</ele><time>2026-04-26T09:50:54.477Z</time></trkpt><trkpt lat="44.3683125" lon="8.2990352"><ele>352.5</ele><time>2026-04-26T09:50:55.478Z</time></trkpt><trkpt lat="44.368346" lon="8.299116"><ele>352.3333333333333</ele><time>2026-04-26T09:50:56.476Z</time></trkpt><trkpt lat="44.3683798" lon="8.2991978"><ele>352.16666666666663</ele><time>2026-04-26T09:50:57.476Z</time></trkpt><trkpt lat="44.368411" lon="8.299282"><ele>352.0</ele><time>2026-04-26T09:50:58.475Z</time></trkpt><trkpt lat="44.3684525" lon="8.299406"><ele>352.0</ele><time>2026-04-26T09:51:00.478Z</time></trkpt><trkpt lat="44.3684792" lon="8.2994897"><ele>352.0</ele><time>2026-04-26T09:51:18.479Z</time></trkpt><trkpt lat="44.368498" lon="8.2995967"><ele>352.0</ele><time>2026-04-26T09:51:20.479Z</time></trkpt><trkpt lat="44.3684947" lon="8.2996962"><ele>352.0</ele><time>2026-04-26T09:51:21.478Z</time></trkpt><trkpt lat="44.3684685" lon="8.2998097"><ele>352.0</ele><time>2026-04-26T09:51:22.478Z</time></trkpt><trkpt lat="44.3684145" lon="8.2999267"><ele>352.0</ele><time>2026-04-26T09:51:23.476Z</time></trkpt><trkpt lat="44.3683343" lon="8.3000358"><ele>353.0</ele><time>2026-04-26T09:51:24.475Z</time></trkpt><trkpt lat="44.3682312" lon="8.3001298"><ele>354.0</ele><time>2026-04-26T09:51:25.478Z</time></trkpt><trkpt lat="44.3681143" lon="8.3002135"><ele>355.0</ele><time>2026-04-26T09:51:26.479Z</time></trkpt><trkpt lat="44.3679963" lon="8.3002863"><ele>356.0</ele><time>2026-04-26T09:51:27.478Z</time></trkpt><trkpt lat="44.3678762" lon="8.3003497"><ele>356.25</ele><time>2026-04-26T09:51:28.478Z</time></trkpt><trkpt lat="44.367759" lon="8.3003925"><ele>356.5</ele><time>2026-04-26T09:51:29.478Z</time></trkpt><trkpt lat="44.367641" lon="8.3004193"><ele>356.75</ele><time>2026-04-26T09:51:30.477Z</time></trkpt><trkpt lat="44.3675177" lon="8.3004353"><ele>357.0</ele><time>2026-04-26T09:51:31.476Z</time></trkpt><trkpt lat="44.367388" lon="8.300444"><ele>357.0</ele><time>2026-04-26T09:51:32.477Z</time></trkpt><trkpt lat="44.367255" lon="8.3004532"><ele>357.0</ele><time>2026-04-26T09:51:33.477Z</time></trkpt><trkpt lat="44.3671208" lon="8.3004677"><ele>357.0</ele><time>2026-04-26T09:51:34.478Z</time></trkpt><trkpt lat="44.3669857" lon="8.3004843"><ele>357.0</ele><time>2026-04-26T09:51:35.478Z</time></trkpt><trkpt lat="44.3668498" lon="8.3005032"><ele>358.5</ele><time>2026-04-26T09:51:36.476Z</time></trkpt><trkpt lat="44.3667122" lon="8.3005122"><ele>360.0</ele><time>2026-04-26T09:51:37.477Z</time></trkpt><trkpt lat="44.3665758" lon="8.3005035"><ele>361.5</ele><time>2026-04-26T09:51:38.478Z</time></trkpt><trkpt lat="44.3664453" lon="8.300479"><ele>363.0</ele><time>2026-04-26T09:51:39.476Z</time></trkpt><trkpt lat="44.3663112" lon="8.3004413"><ele>363.75</ele><time>2026-04-26T09:51:40.477Z</time></trkpt><trkpt lat="44.366178" lon="8.3003988"><ele>364.5</ele><time>2026-04-26T09:51:41.475Z</time></trkpt><trkpt lat="44.3660422" lon="8.3003637"><ele>365.25</ele><time>2026-04-26T09:51:42.475Z</time></trkpt><trkpt lat="44.3658977" lon="8.3003502"><ele>366.0</ele><time>2026-04-26T09:51:43.475Z</time></trkpt><trkpt lat="44.3657468" lon="8.3003597"><ele>366.0</ele><time>2026-04-26T09:51:44.476Z</time></trkpt><trkpt lat="44.3656052" lon="8.3003775"><ele>366.0</ele><time>2026-04-26T09:51:45.474Z</time></trkpt><trkpt lat="44.3654808" lon="8.3003937"><ele>366.0</ele><time>2026-04-26T09:51:46.47Z</time></trkpt><trkpt lat="44.3653738" lon="8.3004052"><ele>366.0</ele><time>2026-04-26T09:51:47.471Z</time></trkpt><trkpt lat="44.3652842" lon="8.3004018"><ele>366.8</ele><time>2026-04-26T09:51:48.47Z</time></trkpt><trkpt lat="44.3652122" lon="8.3003638"><ele>367.6</ele><time>2026-04-26T09:51:49.473Z</time></trkpt><trkpt lat="44.3651672" lon="8.3002817"><ele>368.4</ele><time>2026-04-26T09:51:50.472Z</time></trkpt><trkpt lat="44.3651448" lon="8.3001567"><ele>369.2</ele><time>2026-04-26T09:51:51.473Z</time></trkpt><trkpt lat="44.3651327" lon="8.3000057"><ele>370.0</ele><time>2026-04-26T09:51:52.473Z</time></trkpt><trkpt lat="44.3651213" lon="8.2998602"><ele>371.8</ele><time>2026-04-26T09:51:53.472Z</time></trkpt><trkpt lat="44.3650947" lon="8.2997475"><ele>373.6</ele><time>2026-04-26T09:51:54.473Z</time></trkpt><trkpt lat="44.3650378" lon="8.2996673"><ele>375.4</ele><time>2026-04-26T09:51:55.473Z</time></trkpt><trkpt lat="44.3649538" lon="8.2996255"><ele>377.2</ele><time>2026-04-26T09:51:56.475Z</time></trkpt><trkpt lat="44.364846" lon="8.2996167"><ele>379.0</ele><time>2026-04-26T09:51:57.473Z</time></trkpt><trkpt lat="44.364717" lon="8.299625"><ele>379.0</ele><time>2026-04-26T09:51:58.475Z</time></trkpt><trkpt lat="44.3645778" lon="8.299638"><ele>379.0</ele><time>2026-04-26T09:51:59.474Z</time></trkpt><trkpt lat="44.364441" lon="8.2996633"><ele>379.0</ele><time>2026-04-26T09:52:00.474Z</time></trkpt><trkpt lat="44.3642997" lon="8.2997073"><ele>379.0</ele><time>2026-04-26T09:52:01.477Z</time></trkpt><trkpt lat="44.3641652" lon="8.2997525"><ele>379.4</ele><time>2026-04-26T09:52:02.478Z</time></trkpt><trkpt lat="44.3640438" lon="8.2997897"><ele>379.79999999999995</ele><time>2026-04-26T09:52:03.475Z</time></trkpt><trkpt lat="44.3639353" lon="8.2998207"><ele>380.20000000000005</ele><time>2026-04-26T09:52:04.476Z</time></trkpt><trkpt lat="44.3638322" lon="8.2998508"><ele>380.6</ele><time>2026-04-26T09:52:05.476Z</time></trkpt><trkpt lat="44.3637297" lon="8.2998825"><ele>381.0</ele><time>2026-04-26T09:52:06.475Z</time></trkpt><trkpt lat="44.3636368" lon="8.2999085"><ele>381.0</ele><time>2026-04-26T09:52:07.477Z</time></trkpt><trkpt lat="44.3635625" lon="8.2999272"><ele>381.0</ele><time>2026-04-26T09:52:08.476Z</time></trkpt><trkpt lat="44.363473" lon="8.2999497"><ele>381.0</ele><time>2026-04-26T09:52:10.474Z</time></trkpt><trkpt lat="44.3633952" lon="8.2999808"><ele>381.0</ele><time>2026-04-26T09:52:13.474Z</time></trkpt><trkpt lat="44.3632738" lon="8.3000178"><ele>381.0</ele><time>2026-04-26T09:52:15.476Z</time></trkpt><trkpt lat="44.3631758" lon="8.3000302"><ele>381.0</ele><time>2026-04-26T09:52:16.474Z</time></trkpt><trkpt lat="44.3630588" lon="8.30004"><ele>381.0</ele><time>2026-04-26T09:52:17.475Z</time></trkpt><trkpt lat="44.3629307" lon="8.3000533"><ele>381.0</ele><time>2026-04-26T09:52:18.476Z</time></trkpt><trkpt lat="44.3627958" lon="8.3000718"><ele>381.0</ele><time>2026-04-26T09:52:19.476Z</time></trkpt><trkpt lat="44.3626527" lon="8.300095"><ele>384.0</ele><time>2026-04-26T09:52:20.475Z</time></trkpt><trkpt lat="44.362502" lon="8.3001238"><ele>387.0</ele><time>2026-04-26T09:52:21.474Z</time></trkpt><trkpt lat="44.3623445" lon="8.3001598"><ele>390.0</ele><time>2026-04-26T09:52:22.474Z</time></trkpt><trkpt lat="44.3621812" lon="8.3002008"><ele>393.0</ele><time>2026-04-26T09:52:23.475Z</time></trkpt><trkpt lat="44.3620165" lon="8.3002473"><ele>396.0</ele><time>2026-04-26T09:52:24.473Z</time></trkpt><trkpt lat="44.3618503" lon="8.3002983"><ele>399.0</ele><time>2026-04-26T09:52:25.474Z</time></trkpt><trkpt lat="44.3616783" lon="8.3003558"><ele>399.0</ele><time>2026-04-26T09:52:26.473Z</time></trkpt><trkpt lat="44.3615025" lon="8.300416"><ele>399.0</ele><time>2026-04-26T09:52:27.474Z</time></trkpt><trkpt lat="44.3613268" lon="8.3004742"><ele>399.0</ele><time>2026-04-26T09:52:28.472Z</time></trkpt><trkpt lat="44.3611555" lon="8.300531"><ele>399.66666666666663</ele><time>2026-04-26T09:52:29.473Z</time></trkpt><trkpt lat="44.3609848" lon="8.3005897"><ele>400.3333333333333</ele><time>2026-04-26T09:52:30.473Z</time></trkpt><trkpt lat="44.360812" lon="8.3006493"><ele>401.0</ele><time>2026-04-26T09:52:31.473Z</time></trkpt><trkpt lat="44.3606363" lon="8.300709"><ele>403.66666666666663</ele><time>2026-04-26T09:52:32.471Z</time></trkpt><trkpt lat="44.3604718" lon="8.3007642"><ele>406.33333333333337</ele><time>2026-04-26T09:52:33.471Z</time></trkpt><trkpt lat="44.360328" lon="8.3008063"><ele>409.0</ele><time>2026-04-26T09:52:34.47Z</time></trkpt><trkpt lat="44.3475992" lon="8.3131203"><ele>401.0</ele><time>2026-04-26T09:54:12.869Z</time></trkpt><trkpt lat="44.34755" lon="8.3135155"><ele>393.0</ele><time>2026-04-26T09:54:14.472Z</time></trkpt><trkpt lat="44.3474963" lon="8.3136772"><ele>385.0</ele><time>2026-04-26T09:54:15.475Z</time></trkpt><trkpt lat="44.347427" lon="8.3138593"><ele>381.75</ele><time>2026-04-26T09:54:16.478Z</time></trkpt><trkpt lat="44.3473592" lon="8.3140208"><ele>378.5</ele><time>2026-04-26T09:54:17.476Z</time></trkpt><trkpt lat="44.3472955" lon="8.3141807"><ele>375.25</ele><time>2026-04-26T09:54:18.476Z</time></trkpt><trkpt lat="44.3472328" lon="8.3143377"><ele>372.0</ele><time>2026-04-26T09:54:19.476Z</time></trkpt><trkpt lat="44.3471707" lon="8.3144932"><ele>372.0</ele><time>2026-04-26T09:54:20.476Z</time></trkpt><trkpt lat="44.3471127" lon="8.3146482"><ele>372.0</ele><time>2026-04-26T09:54:21.476Z</time></trkpt><trkpt lat="44.347057" lon="8.3147922"><ele>372.0</ele><time>2026-04-26T09:54:22.476Z</time></trkpt><trkpt lat="44.3470005" lon="8.3149415"><ele>372.0</ele><time>2026-04-26T09:54:23.475Z</time></trkpt><trkpt lat="44.3469385" lon="8.3151125"><ele>373.6666666666667</ele><time>2026-04-26T09:54:24.476Z</time></trkpt><trkpt lat="44.3468685" lon="8.3153072"><ele>375.33333333333337</ele><time>2026-04-26T09:54:25.477Z</time></trkpt><trkpt lat="44.3467977" lon="8.3155233"><ele>377.0</ele><time>2026-04-26T09:54:26.475Z</time></trkpt><trkpt lat="44.3467193" lon="8.315755"><ele>378.0</ele><time>2026-04-26T09:54:27.475Z</time></trkpt><trkpt lat="44.3466482" lon="8.3159983"><ele>379.0</ele><time>2026-04-26T09:54:28.475Z</time></trkpt><trkpt lat="44.3465793" lon="8.3162443"><ele>380.0</ele><time>2026-04-26T09:54:29.475Z</time></trkpt><trkpt lat="44.3465173" lon="8.3164958"><ele>380.0</ele><time>2026-04-26T09:54:30.475Z</time></trkpt><trkpt lat="44.346462" lon="8.3167593"><ele>380.0</ele><time>2026-04-26T09:54:31.475Z</time></trkpt><trkpt lat="44.3464123" lon="8.3170355"><ele>380.0</ele><time>2026-04-26T09:54:32.478Z</time></trkpt><trkpt lat="44.3463692" lon="8.317325"><ele>380.0</ele><time>2026-04-26T09:54:33.475Z</time></trkpt><trkpt lat="44.3463337" lon="8.3176132"><ele>380.0</ele><time>2026-04-26T09:54:34.477Z</time></trkpt><trkpt lat="44.3463028" lon="8.3179003"><ele>380.0</ele><time>2026-04-26T09:54:35.475Z</time></trkpt><trkpt lat="44.346275" lon="8.3181855"><ele>380.33333333333337</ele><time>2026-04-26T09:54:36.475Z</time></trkpt><trkpt lat="44.3462477" lon="8.3184637"><ele>380.6666666666667</ele><time>2026-04-26T09:54:37.474Z</time></trkpt><trkpt lat="44.3462235" lon="8.3187342"><ele>381.0</ele><time>2026-04-26T09:54:38.475Z</time></trkpt><trkpt lat="44.3462003" lon="8.3189918"><ele>381.3333333333333</ele><time>2026-04-26T09:54:39.473Z</time></trkpt><trkpt lat="44.3461792" lon="8.3192393"><ele>381.66666666666663</ele><time>2026-04-26T09:54:40.473Z</time></trkpt><trkpt lat="44.3461548" lon="8.3194805"><ele>382.0</ele><time>2026-04-26T09:54:41.475Z</time></trkpt><trkpt lat="44.3461252" lon="8.3197077"><ele>382.0</ele><time>2026-04-26T09:54:42.475Z</time></trkpt><trkpt lat="44.3460843" lon="8.3199178"><ele>382.0</ele><time>2026-04-26T09:54:43.476Z</time></trkpt><trkpt lat="44.3460382" lon="8.320102"><ele>382.0</ele><time>2026-04-26T09:54:44.478Z</time></trkpt><trkpt lat="44.3459923" lon="8.3202548"><ele>382.0</ele><time>2026-04-26T09:54:45.476Z</time></trkpt><trkpt lat="44.345949" lon="8.3203745"><ele>382.0</ele><time>2026-04-26T09:54:46.478Z</time></trkpt><trkpt lat="44.3459058" lon="8.320464"><ele>382.0</ele><time>2026-04-26T09:54:47.478Z</time></trkpt><trkpt lat="44.3458385" lon="8.3205322"><ele>382.0</ele><time>2026-04-26T09:54:49.477Z</time></trkpt><trkpt lat="44.345755" lon="8.320558"><ele>382.0</ele><time>2026-04-26T09:54:56.49Z</time></trkpt><trkpt lat="44.3456343" lon="8.3206108"><ele>382.0</ele><time>2026-04-26T09:54:58.478Z</time></trkpt><trkpt lat="44.3455827" lon="8.3206883"><ele>382.0</ele><time>2026-04-26T09:54:59.478Z</time></trkpt><trkpt lat="44.3455343" lon="8.3208085"><ele>387.0</ele><time>2026-04-26T09:55:00.477Z</time></trkpt><trkpt lat="44.345485" lon="8.3209458"><ele>392.0</ele><time>2026-04-26T09:55:01.476Z</time></trkpt><trkpt lat="44.3454235" lon="8.3210935"><ele>397.0</ele><time>2026-04-26T09:55:02.474Z</time></trkpt><trkpt lat="44.3453422" lon="8.3212425"><ele>402.0</ele><time>2026-04-26T09:55:03.474Z</time></trkpt><trkpt lat="44.3452447" lon="8.3213833"><ele>397.75</ele><time>2026-04-26T09:55:04.475Z</time></trkpt><trkpt lat="44.3451437" lon="8.3215028"><ele>393.5</ele><time>2026-04-26T09:55:05.475Z</time></trkpt><trkpt lat="44.3450463" lon="8.3216075"><ele>389.25</ele><time>2026-04-26T09:55:06.477Z</time></trkpt><trkpt lat="44.3449548" lon="8.321705"><ele>385.0</ele><time>2026-04-26T09:55:07.476Z</time></trkpt><trkpt lat="44.3448573" lon="8.321804"><ele>385.0</ele><time>2026-04-26T09:55:08.478Z</time></trkpt><trkpt lat="44.3447555" lon="8.3219012"><ele>385.0</ele><time>2026-04-26T09:55:09.476Z</time></trkpt><trkpt lat="44.3446503" lon="8.3220027"><ele>385.0</ele><time>2026-04-26T09:55:10.476Z</time></trkpt><trkpt lat="44.3445397" lon="8.3221112"><ele>385.0</ele><time>2026-04-26T09:55:11.477Z</time></trkpt><trkpt lat="44.3444247" lon="8.3222247"><ele>384.0</ele><time>2026-04-26T09:55:12.475Z</time></trkpt><trkpt lat="44.3443057" lon="8.3223393"><ele>383.0</ele><time>2026-04-26T09:55:13.476Z</time></trkpt><trkpt lat="44.3441908" lon="8.3224505"><ele>382.0</ele><time>2026-04-26T09:55:14.485Z</time></trkpt><trkpt lat="44.344079" lon="8.3225578"><ele>381.0</ele><time>2026-04-26T09:55:15.475Z</time></trkpt><trkpt lat="44.3439725" lon="8.3226607"><ele>383.75</ele><time>2026-04-26T09:55:16.478Z</time></trkpt><trkpt lat="44.343869" lon="8.3227608"><ele>386.5</ele><time>2026-04-26T09:55:17.476Z</time></trkpt><trkpt lat="44.3437708" lon="8.3228557"><ele>389.25</ele><time>2026-04-26T09:55:18.474Z</time></trkpt><trkpt lat="44.3436757" lon="8.3229468"><ele>392.0</ele><time>2026-04-26T09:55:19.475Z</time></trkpt><trkpt lat="44.34358" lon="8.323042"><ele>389.6</ele><time>2026-04-26T09:55:20.476Z</time></trkpt><trkpt lat="44.3434862" lon="8.3231443"><ele>387.20000000000005</ele><time>2026-04-26T09:55:21.476Z</time></trkpt><trkpt lat="44.3433952" lon="8.3232497"><ele>384.8</ele><time>2026-04-26T09:55:22.476Z</time></trkpt><trkpt lat="44.3433128" lon="8.3233445"><ele>382.4</ele><time>2026-04-26T09:55:23.475Z</time></trkpt><trkpt lat="44.3432383" lon="8.3234257"><ele>380.0</ele><time>2026-04-26T09:55:24.475Z</time></trkpt><trkpt lat="44.343154" lon="8.3234997"><ele>380.0</ele><time>2026-04-26T09:55:25.477Z</time></trkpt><trkpt lat="44.3430632" lon="8.3235673"><ele>380.0</ele><time>2026-04-26T09:55:26.475Z</time></trkpt><trkpt lat="44.3429823" lon="8.3236307"><ele>380.0</ele><time>2026-04-26T09:55:27.474Z</time></trkpt><trkpt lat="44.3429053" lon="8.3236812"><ele>380.0</ele><time>2026-04-26T09:55:28.474Z</time></trkpt><trkpt lat="44.3428207" lon="8.3237072"><ele>380.0</ele><time>2026-04-26T09:55:29.473Z</time></trkpt><trkpt lat="44.3427375" lon="8.3237018"><ele>382.1666666666667</ele><time>2026-04-26T09:55:30.474Z</time></trkpt><trkpt lat="44.3426745" lon="8.3236678"><ele>384.33333333333337</ele><time>2026-04-26T09:55:31.474Z</time></trkpt><trkpt lat="44.3426333" lon="8.3235562"><ele>386.5</ele><time>2026-04-26T09:55:33.473Z</time></trkpt><trkpt lat="44.3426683" lon="8.3234728"><ele>388.6666666666667</ele><time>2026-04-26T09:55:35.475Z</time></trkpt><trkpt lat="44.3427688" lon="8.3234247"><ele>390.8333333333333</ele><time>2026-04-26T09:55:37.475Z</time></trkpt><trkpt lat="44.3428563" lon="8.3234315"><ele>393.0</ele><time>2026-04-26T09:55:39.474Z</time></trkpt><trkpt lat="44.342919" lon="8.3234838"><ele>393.0</ele><time>2026-04-26T09:55:41.475Z</time></trkpt><trkpt lat="44.3429665" lon="8.3235903"><ele>393.0</ele><time>2026-04-26T09:55:43.472Z</time></trkpt><trkpt lat="44.3430272" lon="8.3236838"><ele>393.0</ele><time>2026-04-26T09:55:45.472Z</time></trkpt><trkpt lat="44.3430325" lon="8.3237918"><ele>393.0</ele><time>2026-04-26T09:55:47.472Z</time></trkpt><trkpt lat="44.342996" lon="8.323925"><ele>393.0</ele><time>2026-04-26T09:55:49.472Z</time></trkpt><trkpt lat="44.3429538" lon="8.3240093"><ele>393.0</ele><time>2026-04-26T09:55:50.473Z</time></trkpt><trkpt lat="44.3428997" lon="8.3241005"><ele>391.0</ele><time>2026-04-26T09:55:51.47Z</time></trkpt><trkpt lat="44.3428497" lon="8.3241858"><ele>389.0</ele><time>2026-04-26T09:55:52.471Z</time></trkpt><trkpt lat="44.3428058" lon="8.3242643"><ele>387.0</ele><time>2026-04-26T09:55:53.473Z</time></trkpt><trkpt lat="44.342744" lon="8.324395"><ele>385.0</ele><time>2026-04-26T09:55:55.475Z</time></trkpt><trkpt lat="44.3427117" lon="8.3245025"><ele>383.0</ele><time>2026-04-26T09:55:57.474Z</time></trkpt><trkpt lat="44.3427125" lon="8.3245928"><ele>381.0</ele><time>2026-04-26T09:55:59.474Z</time></trkpt><trkpt lat="44.3426808" lon="8.3246923"><ele>380.4</ele><time>2026-04-26T09:56:37.473Z</time></trkpt><trkpt lat="44.342702" lon="8.3247948"><ele>379.8</ele><time>2026-04-26T10:05:30.476Z</time></trkpt><trkpt lat="44.3427235" lon="8.3249225"><ele>379.2</ele><time>2026-04-26T10:05:32.474Z</time></trkpt><trkpt lat="44.342758" lon="8.3250855"><ele>378.59999999999997</ele><time>2026-04-26T10:05:34.475Z</time></trkpt><trkpt lat="44.3428003" lon="8.3252165"><ele>378.0</ele><time>2026-04-26T10:05:36.474Z</time></trkpt><trkpt lat="44.3428573" lon="8.3252615"><ele>378.0</ele><time>2026-04-26T10:05:39.474Z</time></trkpt><trkpt lat="44.3429242" lon="8.3252582"><ele>378.0</ele><time>2026-04-26T10:06:47.475Z</time></trkpt><trkpt lat="44.343025" lon="8.3252195"><ele>378.0</ele><time>2026-04-26T10:06:49.476Z</time></trkpt><trkpt lat="44.343151" lon="8.3251698"><ele>378.0</ele><time>2026-04-26T10:06:51.476Z</time></trkpt><trkpt lat="44.3432228" lon="8.3251442"><ele>378.0</ele><time>2026-04-26T10:06:52.473Z</time></trkpt><trkpt lat="44.3432895" lon="8.3251167"><ele>378.0</ele><time>2026-04-26T10:06:53.474Z</time></trkpt><trkpt lat="44.3433545" lon="8.325066"><ele>377.79999999999995</ele><time>2026-04-26T10:06:55.474Z</time></trkpt><trkpt lat="44.3433933" lon="8.3249862"><ele>377.6</ele><time>2026-04-26T10:07:35.475Z</time></trkpt><trkpt lat="44.3434723" lon="8.3248387"><ele>377.4</ele><time>2026-04-26T10:07:37.474Z</time></trkpt><trkpt lat="44.343525" lon="8.3247543"><ele>377.20000000000005</ele><time>2026-04-26T10:07:38.476Z</time></trkpt><trkpt lat="44.3435855" lon="8.324669"><ele>377.0</ele><time>2026-04-26T10:07:39.475Z</time></trkpt><trkpt lat="44.343648" lon="8.3245843"><ele>377.0</ele><time>2026-04-26T10:07:40.473Z</time></trkpt><trkpt lat="44.3437117" lon="8.3245072"><ele>377.0</ele><time>2026-04-26T10:07:41.474Z</time></trkpt><trkpt lat="44.3437712" lon="8.3244383"><ele>377.0</ele><time>2026-04-26T10:07:42.472Z</time></trkpt><trkpt lat="44.3438352" lon="8.3243793"><ele>377.0</ele><time>2026-04-26T10:07:43.471Z</time></trkpt><trkpt lat="44.3439007" lon="8.3243228"><ele>377.0</ele><time>2026-04-26T10:07:44.471Z</time></trkpt><trkpt lat="44.3439688" lon="8.3242778"><ele>377.0</ele><time>2026-04-26T10:07:45.474Z</time></trkpt><trkpt lat="44.344028" lon="8.3242355"><ele>378.20000000000005</ele><time>2026-04-26T10:07:46.473Z</time></trkpt><trkpt lat="44.3441312" lon="8.3241942"><ele>379.4</ele><time>2026-04-26T10:07:48.472Z</time></trkpt><trkpt lat="44.3442183" lon="8.3242647"><ele>380.6</ele><time>2026-04-26T10:07:50.47Z</time></trkpt><trkpt lat="44.3442668" lon="8.3243483"><ele>381.79999999999995</ele><time>2026-04-26T10:07:51.471Z</time></trkpt><trkpt lat="44.3442998" lon="8.3244285"><ele>383.0</ele><time>2026-04-26T10:07:52.471Z</time></trkpt><trkpt lat="44.3443463" lon="8.3245518"><ele>383.0</ele><time>2026-04-26T10:07:53.473Z</time></trkpt><trkpt lat="44.3443927" lon="8.3246717"><ele>383.0</ele><time>2026-04-26T10:07:54.472Z</time></trkpt><trkpt lat="44.3444358" lon="8.3247795"><ele>383.0</ele><time>2026-04-26T10:07:55.473Z</time></trkpt><trkpt lat="44.3444773" lon="8.3248762"><ele>383.0</ele><time>2026-04-26T10:07:56.474Z</time></trkpt><trkpt lat="44.3445013" lon="8.3249687"><ele>383.0</ele><time>2026-04-26T10:07:57.471Z</time></trkpt><trkpt lat="44.3445058" lon="8.3250578"><ele>383.0</ele><time>2026-04-26T10:07:58.472Z</time></trkpt><trkpt lat="44.3444997" lon="8.3251598"><ele>385.0</ele><time>2026-04-26T10:07:59.471Z</time></trkpt><trkpt lat="44.3444867" lon="8.3252653"><ele>387.0</ele><time>2026-04-26T10:08:00.473Z</time></trkpt><trkpt lat="44.3444703" lon="8.3253763"><ele>389.0</ele><time>2026-04-26T10:08:01.473Z</time></trkpt><trkpt lat="44.3444597" lon="8.325471"><ele>391.0</ele><time>2026-04-26T10:08:02.472Z</time></trkpt><trkpt lat="44.3444568" lon="8.3255643"><ele>392.99999999999994</ele><time>2026-04-26T10:08:03.471Z</time></trkpt><trkpt lat="44.3444853" lon="8.3257573"><ele>395.0</ele><time>2026-04-26T10:08:05.473Z</time></trkpt><trkpt lat="44.3445073" lon="8.3258775"><ele>396.49999999999994</ele><time>2026-04-26T10:08:06.471Z</time></trkpt><trkpt lat="44.3445317" lon="8.3260052"><ele>398.0</ele><time>2026-04-26T10:08:07.471Z</time></trkpt><trkpt lat="44.3445502" lon="8.3261127"><ele>399.5</ele><time>2026-04-26T10:08:08.472Z</time></trkpt><trkpt lat="44.3445668" lon="8.3262157"><ele>401.0</ele><time>2026-04-26T10:08:09.471Z</time></trkpt><trkpt lat="44.3445778" lon="8.3263373"><ele>402.49999999999994</ele><time>2026-04-26T10:08:10.474Z</time></trkpt><trkpt lat="44.3445837" lon="8.3264743"><ele>404.0</ele><time>2026-04-26T10:08:11.474Z</time></trkpt><trkpt lat="44.3445858" lon="8.3266093"><ele>405.66666666666663</ele><time>2026-04-26T10:08:12.473Z</time></trkpt><trkpt lat="44.3445937" lon="8.3267285"><ele>407.3333333333333</ele><time>2026-04-26T10:08:13.475Z</time></trkpt><trkpt lat="44.3446043" lon="8.3268423"><ele>409.0</ele><time>2026-04-26T10:08:14.475Z</time></trkpt><trkpt lat="44.3446282" lon="8.3269447"><ele>410.66666666666663</ele><time>2026-04-26T10:08:15.474Z</time></trkpt><trkpt lat="44.3446663" lon="8.3270492"><ele>412.3333333333333</ele><time>2026-04-26T10:08:16.477Z</time></trkpt><trkpt lat="44.344714" lon="8.3271633"><ele>414.0</ele><time>2026-04-26T10:08:17.473Z</time></trkpt><trkpt lat="44.344759" lon="8.3272638"><ele>417.4</ele><time>2026-04-26T10:08:18.475Z</time></trkpt><trkpt lat="44.344803" lon="8.3273407"><ele>420.79999999999995</ele><time>2026-04-26T10:08:19.474Z</time></trkpt><trkpt lat="44.344895" lon="8.3274143"><ele>424.20000000000005</ele><time>2026-04-26T10:08:21.473Z</time></trkpt><trkpt lat="44.3449867" lon="8.3273623"><ele>427.6</ele><time>2026-04-26T10:08:23.475Z</time></trkpt><trkpt lat="44.3450497" lon="8.3273095"><ele>431.0</ele><time>2026-04-26T10:08:24.473Z</time></trkpt><trkpt lat="44.345119" lon="8.3272002"><ele>431.66666666666663</ele><time>2026-04-26T10:08:26.473Z</time></trkpt><trkpt lat="44.345116" lon="8.3271107"><ele>432.3333333333333</ele><time>2026-04-26T10:08:27.474Z</time></trkpt><trkpt lat="44.3451018" lon="8.3269965"><ele>433.0</ele><time>2026-04-26T10:08:28.473Z</time></trkpt><trkpt lat="44.3450973" lon="8.3268813"><ele>433.66666666666663</ele><time>2026-04-26T10:08:29.473Z</time></trkpt><trkpt lat="44.3451025" lon="8.326765"><ele>434.3333333333333</ele><time>2026-04-26T10:08:30.472Z</time></trkpt><trkpt lat="44.3451168" lon="8.3266498"><ele>435.0</ele><time>2026-04-26T10:08:31.472Z</time></trkpt><trkpt lat="44.3451462" lon="8.3265303"><ele>435.0</ele><time>2026-04-26T10:08:32.472Z</time></trkpt><trkpt lat="44.3451863" lon="8.326422"><ele>435.0</ele><time>2026-04-26T10:08:33.471Z</time></trkpt><trkpt lat="44.3452315" lon="8.3263153"><ele>435.0</ele><time>2026-04-26T10:08:34.473Z</time></trkpt><trkpt lat="44.3452858" lon="8.3262132"><ele>435.0</ele><time>2026-04-26T10:08:35.474Z</time></trkpt><trkpt lat="44.3453485" lon="8.326113"><ele>435.0</ele><time>2026-04-26T10:08:36.473Z</time></trkpt><trkpt lat="44.3454123" lon="8.3260115"><ele>434.6</ele><time>2026-04-26T10:08:37.475Z</time></trkpt><trkpt lat="44.3454892" lon="8.325905"><ele>434.2</ele><time>2026-04-26T10:08:38.474Z</time></trkpt><trkpt lat="44.34555" lon="8.3257927"><ele>433.79999999999995</ele><time>2026-04-26T10:08:39.473Z</time></trkpt><trkpt lat="44.3456035" lon="8.3257033"><ele>433.4</ele><time>2026-04-26T10:08:40.473Z</time></trkpt><trkpt lat="44.3456473" lon="8.3256372"><ele>433.0</ele><time>2026-04-26T10:08:41.473Z</time></trkpt><trkpt lat="44.3457428" lon="8.3255913"><ele>437.4</ele><time>2026-04-26T10:08:43.475Z</time></trkpt><trkpt lat="44.3458457" lon="8.3257005"><ele>441.79999999999995</ele><time>2026-04-26T10:08:45.473Z</time></trkpt><trkpt lat="44.3458972" lon="8.3257933"><ele>446.2</ele><time>2026-04-26T10:08:46.473Z</time></trkpt><trkpt lat="44.3459547" lon="8.3258917"><ele>450.6</ele><time>2026-04-26T10:08:47.473Z</time></trkpt><trkpt lat="44.3460038" lon="8.3259847"><ele>455.0</ele><time>2026-04-26T10:08:48.475Z</time></trkpt><trkpt lat="44.3460425" lon="8.3260845"><ele>454.99999999999994</ele><time>2026-04-26T10:08:50.474Z</time></trkpt><trkpt lat="44.3460903" lon="8.3261532"><ele>455.0</ele><time>2026-04-26T10:08:52.475Z</time></trkpt><trkpt lat="44.3461603" lon="8.3262518"><ele>455.0</ele><time>2026-04-26T10:08:58.472Z</time></trkpt><trkpt lat="44.3462317" lon="8.3263718"><ele>455.0</ele><time>2026-04-26T10:09:00.475Z</time></trkpt><trkpt lat="44.3462758" lon="8.3264353"><ele>454.99999999999994</ele><time>2026-04-26T10:09:01.474Z</time></trkpt><trkpt lat="44.3463288" lon="8.3265093"><ele>455.0</ele><time>2026-04-26T10:09:02.471Z</time></trkpt><trkpt lat="44.3463975" lon="8.3265803"><ele>460.6</ele><time>2026-04-26T10:09:03.471Z</time></trkpt><trkpt lat="44.3464572" lon="8.3266605"><ele>466.2</ele><time>2026-04-26T10:09:04.474Z</time></trkpt><trkpt lat="44.3465247" lon="8.3267918"><ele>471.79999999999995</ele><time>2026-04-26T10:09:06.475Z</time></trkpt><trkpt lat="44.3465897" lon="8.3269425"><ele>477.4</ele><time>2026-04-26T10:09:08.475Z</time></trkpt><trkpt lat="44.3466505" lon="8.3270825"><ele>483.0</ele><time>2026-04-26T10:09:10.476Z</time></trkpt><trkpt lat="44.3466738" lon="8.3271778"><ele>482.6666666666667</ele><time>2026-04-26T10:09:11.473Z</time></trkpt><trkpt lat="44.3466967" lon="8.3272975"><ele>482.33333333333337</ele><time>2026-04-26T10:09:12.474Z</time></trkpt><trkpt lat="44.3467148" lon="8.3274105"><ele>482.0</ele><time>2026-04-26T10:09:13.474Z</time></trkpt><trkpt lat="44.3467287" lon="8.3275105"><ele>481.6666666666667</ele><time>2026-04-26T10:09:14.474Z</time></trkpt><trkpt lat="44.3467447" lon="8.327599"><ele>481.33333333333337</ele><time>2026-04-26T10:09:15.475Z</time></trkpt><trkpt lat="44.346797" lon="8.3277462"><ele>481.0</ele><time>2026-04-26T10:09:17.475Z</time></trkpt><trkpt lat="44.3468472" lon="8.3278232"><ele>481.0</ele><time>2026-04-26T10:09:18.474Z</time></trkpt><trkpt lat="44.3468958" lon="8.3278975"><ele>481.0</ele><time>2026-04-26T10:09:19.473Z</time></trkpt><trkpt lat="44.3469373" lon="8.3279763"><ele>481.0</ele><time>2026-04-26T10:09:20.475Z</time></trkpt><trkpt lat="44.3470395" lon="8.3281063"><ele>481.0</ele><time>2026-04-26T10:09:22.473Z</time></trkpt><trkpt lat="44.347122" lon="8.3281767"><ele>481.0</ele><time>2026-04-26T10:09:23.473Z</time></trkpt><trkpt lat="44.3472175" lon="8.3282527"><ele>482.50000000000006</ele><time>2026-04-26T10:09:24.474Z</time></trkpt><trkpt lat="44.3472992" lon="8.3283137"><ele>484.0</ele><time>2026-04-26T10:09:25.474Z</time></trkpt><trkpt lat="44.3473703" lon="8.3283687"><ele>485.5</ele><time>2026-04-26T10:09:26.474Z</time></trkpt><trkpt lat="44.3474358" lon="8.3283987"><ele>487.0</ele><time>2026-04-26T10:09:27.475Z</time></trkpt><trkpt lat="44.3475577" lon="8.3283972"><ele>488.50000000000006</ele><time>2026-04-26T10:09:29.476Z</time></trkpt><trkpt lat="44.3476278" lon="8.328394"><ele>490.0</ele><time>2026-04-26T10:09:30.474Z</time></trkpt><trkpt lat="44.3476937" lon="8.328379"><ele>490.00000000000006</ele><time>2026-04-26T10:09:31.475Z</time></trkpt><trkpt lat="44.3477595" lon="8.3283668"><ele>490.0</ele><time>2026-04-26T10:09:32.475Z</time></trkpt><trkpt lat="44.3478508" lon="8.3283525"><ele>490.0</ele><time>2026-04-26T10:09:34.475Z</time></trkpt><trkpt lat="44.3479648" lon="8.3283412"><ele>490.0</ele><time>2026-04-26T10:09:36.476Z</time></trkpt><trkpt lat="44.3480383" lon="8.3283307"><ele>490.00000000000006</ele><time>2026-04-26T10:09:37.478Z</time></trkpt><trkpt lat="44.3481128" lon="8.3282973"><ele>490.0</ele><time>2026-04-26T10:09:38.477Z</time></trkpt><trkpt lat="44.3481837" lon="8.3282472"><ele>491.00000000000006</ele><time>2026-04-26T10:09:39.474Z</time></trkpt><trkpt lat="44.348257" lon="8.328199"><ele>492.0</ele><time>2026-04-26T10:09:40.477Z</time></trkpt><trkpt lat="44.348325" lon="8.3281747"><ele>493.0</ele><time>2026-04-26T10:09:41.476Z</time></trkpt><trkpt lat="44.3484057" lon="8.3281693"><ele>494.0</ele><time>2026-04-26T10:09:42.477Z</time></trkpt><trkpt lat="44.3484937" lon="8.3281595"><ele>495.00000000000006</ele><time>2026-04-26T10:09:43.475Z</time></trkpt><trkpt lat="44.3485723" lon="8.3281377"><ele>496.0</ele><time>2026-04-26T10:09:44.476Z</time></trkpt><trkpt lat="44.3486508" lon="8.328103"><ele>496.00000000000006</ele><time>2026-04-26T10:09:45.472Z</time></trkpt><trkpt lat="44.3487325" lon="8.3280603"><ele>496.0</ele><time>2026-04-26T10:09:46.472Z</time></trkpt><trkpt lat="44.3488102" lon="8.328012"><ele>496.0</ele><time>2026-04-26T10:09:47.472Z</time></trkpt><trkpt lat="44.3488877" lon="8.3279695"><ele>496.0</ele><time>2026-04-26T10:09:48.474Z</time></trkpt><trkpt lat="44.348959" lon="8.327945"><ele>496.00000000000006</ele><time>2026-04-26T10:09:49.475Z</time></trkpt><trkpt lat="44.3490238" lon="8.3279453"><ele>496.0</ele><time>2026-04-26T10:09:50.474Z</time></trkpt><trkpt lat="44.3491255" lon="8.3279917"><ele>495.6666666666667</ele><time>2026-04-26T10:09:52.475Z</time></trkpt><trkpt lat="44.349189" lon="8.3280153"><ele>495.33333333333337</ele><time>2026-04-26T10:09:54.475Z</time></trkpt><trkpt lat="44.349285" lon="8.3280285"><ele>495.0</ele><time>2026-04-26T10:09:56.474Z</time></trkpt><trkpt lat="44.3493528" lon="8.3280405"><ele>494.66666666666663</ele><time>2026-04-26T10:09:57.474Z</time></trkpt><trkpt lat="44.3494513" lon="8.3280727"><ele>494.3333333333333</ele><time>2026-04-26T10:09:59.474Z</time></trkpt><trkpt lat="44.3495065" lon="8.3281272"><ele>494.0</ele><time>2026-04-26T10:10:01.475Z</time></trkpt><trkpt lat="44.3495555" lon="8.3282377"><ele>494.8571428571429</ele><time>2026-04-26T10:10:03.474Z</time></trkpt><trkpt lat="44.349575" lon="8.3283282"><ele>495.71428571428567</ele><time>2026-04-26T10:10:04.478Z</time></trkpt><trkpt lat="44.3495892" lon="8.3284243"><ele>496.57142857142856</ele><time>2026-04-26T10:10:05.475Z</time></trkpt><trkpt lat="44.349611" lon="8.3285172"><ele>497.42857142857144</ele><time>2026-04-26T10:10:06.474Z</time></trkpt><trkpt lat="44.3496288" lon="8.3286185"><ele>498.28571428571433</ele><time>2026-04-26T10:10:07.475Z</time></trkpt><trkpt lat="44.3496432" lon="8.3287285"><ele>499.1428571428571</ele><time>2026-04-26T10:10:08.474Z</time></trkpt><trkpt lat="44.349656" lon="8.328837"><ele>500.0</ele><time>2026-04-26T10:10:09.474Z</time></trkpt><trkpt lat="44.3496665" lon="8.3289322"><ele>500.2857142857143</ele><time>2026-04-26T10:10:10.475Z</time></trkpt><trkpt lat="44.3496842" lon="8.3290287"><ele>500.57142857142856</ele><time>2026-04-26T10:10:11.474Z</time></trkpt><trkpt lat="44.3496993" lon="8.3291167"><ele>500.85714285714283</ele><time>2026-04-26T10:10:12.476Z</time></trkpt><trkpt lat="44.3497115" lon="8.329207"><ele>501.1428571428571</ele><time>2026-04-26T10:10:13.476Z</time></trkpt><trkpt lat="44.349709" lon="8.3292973"><ele>501.42857142857144</ele><time>2026-04-26T10:10:14.474Z</time></trkpt><trkpt lat="44.3496878" lon="8.3293913"><ele>501.71428571428567</ele><time>2026-04-26T10:10:15.477Z</time></trkpt><trkpt lat="44.3496422" lon="8.3294757"><ele>501.99999999999994</ele><time>2026-04-26T10:10:16.476Z</time></trkpt><trkpt lat="44.3495842" lon="8.3295577"><ele>502.6</ele><time>2026-04-26T10:10:17.476Z</time></trkpt><trkpt lat="44.3495265" lon="8.329654"><ele>503.20000000000005</ele><time>2026-04-26T10:10:18.476Z</time></trkpt><trkpt lat="44.349469" lon="8.3297647"><ele>503.8</ele><time>2026-04-26T10:10:19.477Z</time></trkpt><trkpt lat="44.3494107" lon="8.3298788"><ele>504.4</ele><time>2026-04-26T10:10:20.475Z</time></trkpt><trkpt lat="44.349359" lon="8.3299927"><ele>505.0</ele><time>2026-04-26T10:10:21.475Z</time></trkpt><trkpt lat="44.349314" lon="8.3301003"><ele>505.0</ele><time>2026-04-26T10:10:22.477Z</time></trkpt><trkpt lat="44.3492677" lon="8.330209"><ele>505.0</ele><time>2026-04-26T10:10:23.476Z</time></trkpt><trkpt lat="44.3492272" lon="8.3303213"><ele>505.0</ele><time>2026-04-26T10:10:24.475Z</time></trkpt><trkpt lat="44.3491952" lon="8.3304423"><ele>505.0</ele><time>2026-04-26T10:10:25.479Z</time></trkpt><trkpt lat="44.3491763" lon="8.3305662"><ele>505.0</ele><time>2026-04-26T10:10:26.476Z</time></trkpt><trkpt lat="44.3491655" lon="8.3306938"><ele>505.00000000000006</ele><time>2026-04-26T10:10:27.475Z</time></trkpt><trkpt lat="44.3491668" lon="8.3308137"><ele>505.0</ele><time>2026-04-26T10:10:28.479Z</time></trkpt><trkpt lat="44.349177" lon="8.330927"><ele>505.0</ele><time>2026-04-26T10:10:29.476Z</time></trkpt><trkpt lat="44.3491873" lon="8.3310285"><ele>505.0</ele><time>2026-04-26T10:10:30.475Z</time></trkpt><trkpt lat="44.3491923" lon="8.33112"><ele>505.00000000000006</ele><time>2026-04-26T10:10:31.477Z</time></trkpt><trkpt lat="44.3491933" lon="8.3312167"><ele>505.0</ele><time>2026-04-26T10:10:32.474Z</time></trkpt><trkpt lat="44.3491882" lon="8.331327"><ele>504.50000000000006</ele><time>2026-04-26T10:10:33.472Z</time></trkpt><trkpt lat="44.3491788" lon="8.3314508"><ele>504.0</ele><time>2026-04-26T10:10:34.475Z</time></trkpt><trkpt lat="44.3491675" lon="8.3315767"><ele>503.5</ele><time>2026-04-26T10:10:35.474Z</time></trkpt><trkpt lat="44.349147" lon="8.3317013"><ele>503.0</ele><time>2026-04-26T10:10:36.474Z</time></trkpt><trkpt lat="44.349126" lon="8.3318128"><ele>502.50000000000006</ele><time>2026-04-26T10:10:37.475Z</time></trkpt><trkpt lat="44.3491118" lon="8.3319197"><ele>502.0</ele><time>2026-04-26T10:10:38.477Z</time></trkpt><trkpt lat="44.3491095" lon="8.332022"><ele>502.00000000000006</ele><time>2026-04-26T10:10:39.474Z</time></trkpt><trkpt lat="44.349123" lon="8.3321208"><ele>502.0</ele><time>2026-04-26T10:10:40.475Z</time></trkpt><trkpt lat="44.349136" lon="8.3322103"><ele>502.0</ele><time>2026-04-26T10:10:41.475Z</time></trkpt><trkpt lat="44.3491557" lon="8.3322968"><ele>502.0</ele><time>2026-04-26T10:10:42.472Z</time></trkpt><trkpt lat="44.3491922" lon="8.3324058"><ele>502.00000000000006</ele><time>2026-04-26T10:10:43.474Z</time></trkpt><trkpt lat="44.3492405" lon="8.3325367"><ele>502.0</ele><time>2026-04-26T10:10:44.476Z</time></trkpt><trkpt lat="44.3492993" lon="8.3326792"><ele>501.8</ele><time>2026-04-26T10:10:45.474Z</time></trkpt><trkpt lat="44.34936" lon="8.332821"><ele>501.6</ele><time>2026-04-26T10:10:46.475Z</time></trkpt><trkpt lat="44.3494188" lon="8.3329565"><ele>501.40000000000003</ele><time>2026-04-26T10:10:47.475Z</time></trkpt><trkpt lat="44.3494767" lon="8.3330972"><ele>501.20000000000005</ele><time>2026-04-26T10:10:48.476Z</time></trkpt><trkpt lat="44.3495237" lon="8.3332218"><ele>501.0</ele><time>2026-04-26T10:10:49.475Z</time></trkpt><trkpt lat="44.3495627" lon="8.3333423"><ele>501.0</ele><time>2026-04-26T10:10:50.478Z</time></trkpt><trkpt lat="44.349591" lon="8.333465"><ele>501.0</ele><time>2026-04-26T10:10:51.475Z</time></trkpt><trkpt lat="44.349612" lon="8.3335968"><ele>501.0</ele><time>2026-04-26T10:10:52.474Z</time></trkpt><trkpt lat="44.3496245" lon="8.3337465"><ele>501.0</ele><time>2026-04-26T10:10:53.474Z</time></trkpt><trkpt lat="44.3496217" lon="8.3339175"><ele>501.0</ele><time>2026-04-26T10:10:54.477Z</time></trkpt><trkpt lat="44.3496113" lon="8.334081"><ele>501.0</ele><time>2026-04-26T10:10:55.475Z</time></trkpt><trkpt lat="44.3496028" lon="8.3342125"><ele>501.0</ele><time>2026-04-26T10:10:56.476Z</time></trkpt><trkpt lat="44.3495898" lon="8.3343178"><ele>501.0</ele><time>2026-04-26T10:10:57.472Z</time></trkpt><trkpt lat="44.3495668" lon="8.3344067"><ele>501.0</ele><time>2026-04-26T10:10:58.473Z</time></trkpt><trkpt lat="44.3495312" lon="8.3345037"><ele>501.0</ele><time>2026-04-26T10:10:59.473Z</time></trkpt><trkpt lat="44.3494842" lon="8.3346167"><ele>501.0</ele><time>2026-04-26T10:11:00.472Z</time></trkpt><trkpt lat="44.3494333" lon="8.3347415"><ele>501.0</ele><time>2026-04-26T10:11:01.477Z</time></trkpt><trkpt lat="44.3493818" lon="8.3348657"><ele>501.0</ele><time>2026-04-26T10:11:02.475Z</time></trkpt><trkpt lat="44.349323" lon="8.3349975"><ele>501.0</ele><time>2026-04-26T10:11:03.477Z</time></trkpt><trkpt lat="44.3492642" lon="8.3351373"><ele>501.0</ele><time>2026-04-26T10:11:04.477Z</time></trkpt><trkpt lat="44.3492152" lon="8.3352798"><ele>501.0</ele><time>2026-04-26T10:11:05.477Z</time></trkpt><trkpt lat="44.3491787" lon="8.3354115"><ele>501.0</ele><time>2026-04-26T10:11:06.484Z</time></trkpt><trkpt lat="44.3491528" lon="8.3355485"><ele>501.0</ele><time>2026-04-26T10:11:07.474Z</time></trkpt><trkpt lat="44.3491353" lon="8.3356938"><ele>501.0</ele><time>2026-04-26T10:11:08.474Z</time></trkpt><trkpt lat="44.3491262" lon="8.3358483"><ele>501.0</ele><time>2026-04-26T10:11:09.474Z</time></trkpt><trkpt lat="44.349123" lon="8.336006"><ele>501.0</ele><time>2026-04-26T10:11:10.476Z</time></trkpt><trkpt lat="44.3491185" lon="8.336157"><ele>501.4</ele><time>2026-04-26T10:11:11.476Z</time></trkpt><trkpt lat="44.3491095" lon="8.3363113"><ele>501.8</ele><time>2026-04-26T10:11:12.475Z</time></trkpt><trkpt lat="44.3490977" lon="8.3364685"><ele>502.19999999999993</ele><time>2026-04-26T10:11:13.478Z</time></trkpt><trkpt lat="44.349091" lon="8.3366268"><ele>502.59999999999997</ele><time>2026-04-26T10:11:14.476Z</time></trkpt><trkpt lat="44.349086" lon="8.3367637"><ele>503.0</ele><time>2026-04-26T10:11:15.475Z</time></trkpt><trkpt lat="44.3490792" lon="8.33689"><ele>502.99999999999994</ele><time>2026-04-26T10:11:16.476Z</time></trkpt><trkpt lat="44.3490662" lon="8.3370078"><ele>503.0</ele><time>2026-04-26T10:11:17.478Z</time></trkpt><trkpt lat="44.3490345" lon="8.3371167"><ele>503.0</ele><time>2026-04-26T10:11:18.479Z</time></trkpt><trkpt lat="44.3489867" lon="8.3372102"><ele>503.0</ele><time>2026-04-26T10:11:19.477Z</time></trkpt><trkpt lat="44.3489238" lon="8.3373003"><ele>502.99999999999994</ele><time>2026-04-26T10:11:20.478Z</time></trkpt><trkpt lat="44.3488525" lon="8.3373915"><ele>503.0</ele><time>2026-04-26T10:11:21.476Z</time></trkpt><trkpt lat="44.3487787" lon="8.3374778"><ele>500.4</ele><time>2026-04-26T10:11:22.475Z</time></trkpt><trkpt lat="44.3487077" lon="8.3375667"><ele>497.79999999999995</ele><time>2026-04-26T10:11:23.475Z</time></trkpt><trkpt lat="44.3486297" lon="8.3376575"><ele>495.2</ele><time>2026-04-26T10:11:24.477Z</time></trkpt><trkpt lat="44.348551" lon="8.3377398"><ele>492.6</ele><time>2026-04-26T10:11:25.476Z</time></trkpt><trkpt lat="44.3484855" lon="8.3378142"><ele>490.0</ele><time>2026-04-26T10:11:26.477Z</time></trkpt><trkpt lat="44.3484363" lon="8.3378963"><ele>490.00000000000006</ele><time>2026-04-26T10:11:27.477Z</time></trkpt><trkpt lat="44.3483883" lon="8.3379897"><ele>490.0</ele><time>2026-04-26T10:11:28.477Z</time></trkpt><trkpt lat="44.3483388" lon="8.3380843"><ele>490.0</ele><time>2026-04-26T10:11:29.477Z</time></trkpt><trkpt lat="44.3482915" lon="8.338182"><ele>490.0</ele><time>2026-04-26T10:11:30.477Z</time></trkpt><trkpt lat="44.3482473" lon="8.3382815"><ele>490.00000000000006</ele><time>2026-04-26T10:11:31.475Z</time></trkpt><trkpt lat="44.3482085" lon="8.3383813"><ele>490.0</ele><time>2026-04-26T10:11:32.476Z</time></trkpt><trkpt lat="44.348181" lon="8.3384953"><ele>490.00000000000006</ele><time>2026-04-26T10:11:33.478Z</time></trkpt><trkpt lat="44.3481675" lon="8.338618"><ele>490.0</ele><time>2026-04-26T10:11:34.479Z</time></trkpt><trkpt lat="44.3481617" lon="8.3387433"><ele>490.0</ele><time>2026-04-26T10:11:35.48Z</time></trkpt><trkpt lat="44.3481563" lon="8.3388712"><ele>490.0</ele><time>2026-04-26T10:11:36.476Z</time></trkpt><trkpt lat="44.3481473" lon="8.3389997"><ele>490.00000000000006</ele><time>2026-04-26T10:11:37.479Z</time></trkpt><trkpt lat="44.3481322" lon="8.3391188"><ele>490.0</ele><time>2026-04-26T10:11:38.476Z</time></trkpt><trkpt lat="44.3481178" lon="8.3392445"><ele>490.00000000000006</ele><time>2026-04-26T10:11:39.476Z</time></trkpt><trkpt lat="44.3481067" lon="8.3393583"><ele>490.0</ele><time>2026-04-26T10:11:40.477Z</time></trkpt><trkpt lat="44.3480868" lon="8.3394513"><ele>490.0</ele><time>2026-04-26T10:11:41.479Z</time></trkpt><trkpt lat="44.348023" lon="8.339573"><ele>490.0</ele><time>2026-04-26T10:11:43.478Z</time></trkpt><trkpt lat="44.3479623" lon="8.3396213"><ele>490.00000000000006</ele><time>2026-04-26T10:11:45.479Z</time></trkpt><trkpt lat="44.3479073" lon="8.3396667"><ele>490.0</ele><time>2026-04-26T10:12:35.477Z</time></trkpt><trkpt lat="44.347839" lon="8.3397022"><ele>489.50000000000006</ele><time>2026-04-26T10:12:37.476Z</time></trkpt><trkpt lat="44.3477763" lon="8.3397223"><ele>489.0</ele><time>2026-04-26T10:12:38.475Z</time></trkpt><trkpt lat="44.3477065" lon="8.3397367"><ele>488.5</ele><time>2026-04-26T10:12:39.478Z</time></trkpt><trkpt lat="44.347634" lon="8.3397482"><ele>488.0</ele><time>2026-04-26T10:12:40.48Z</time></trkpt><trkpt lat="44.3475578" lon="8.3397635"><ele>487.50000000000006</ele><time>2026-04-26T10:12:41.48Z</time></trkpt><trkpt lat="44.347473" lon="8.3397812"><ele>487.0</ele><time>2026-04-26T10:12:42.479Z</time></trkpt><trkpt lat="44.3473863" lon="8.3397942"><ele>487.00000000000006</ele><time>2026-04-26T10:12:43.479Z</time></trkpt><trkpt lat="44.3473078" lon="8.3398078"><ele>487.0</ele><time>2026-04-26T10:12:44.481Z</time></trkpt><trkpt lat="44.3472262" lon="8.3398265"><ele>487.0</ele><time>2026-04-26T10:12:45.48Z</time></trkpt><trkpt lat="44.3471432" lon="8.339844"><ele>487.0</ele><time>2026-04-26T10:12:46.478Z</time></trkpt><trkpt lat="44.347055" lon="8.3398605"><ele>487.00000000000006</ele><time>2026-04-26T10:12:47.479Z</time></trkpt><trkpt lat="44.3469482" lon="8.339873"><ele>487.0</ele><time>2026-04-26T10:12:48.479Z</time></trkpt><trkpt lat="44.346831" lon="8.3398875"><ele>487.40000000000003</ele><time>2026-04-26T10:12:49.479Z</time></trkpt><trkpt lat="44.3467142" lon="8.3399027"><ele>487.80000000000007</ele><time>2026-04-26T10:12:50.48Z</time></trkpt><trkpt lat="44.3466122" lon="8.3399253"><ele>488.2</ele><time>2026-04-26T10:12:51.477Z</time></trkpt><trkpt lat="44.3465255" lon="8.3399485"><ele>488.6</ele><time>2026-04-26T10:12:52.48Z</time></trkpt><trkpt lat="44.346448" lon="8.3399602"><ele>489.0</ele><time>2026-04-26T10:12:53.476Z</time></trkpt><trkpt lat="44.346367" lon="8.3399718"><ele>490.6666666666667</ele><time>2026-04-26T10:12:54.477Z</time></trkpt><trkpt lat="44.3462868" lon="8.3399717"><ele>492.33333333333337</ele><time>2026-04-26T10:12:55.479Z</time></trkpt><trkpt lat="44.3462135" lon="8.339949"><ele>494.0</ele><time>2026-04-26T10:12:56.477Z</time></trkpt><trkpt lat="44.3461367" lon="8.3398978"><ele>495.6666666666667</ele><time>2026-04-26T10:12:57.476Z</time></trkpt><trkpt lat="44.3460618" lon="8.3398455"><ele>497.33333333333337</ele><time>2026-04-26T10:12:58.477Z</time></trkpt><trkpt lat="44.345989" lon="8.3398098"><ele>499.0</ele><time>2026-04-26T10:12:59.476Z</time></trkpt><trkpt lat="44.3459127" lon="8.33979"><ele>499.00000000000006</ele><time>2026-04-26T10:13:00.475Z</time></trkpt><trkpt lat="44.3458353" lon="8.3397938"><ele>499.0</ele><time>2026-04-26T10:13:01.474Z</time></trkpt><trkpt lat="44.345762" lon="8.3398195"><ele>499.0</ele><time>2026-04-26T10:13:02.475Z</time></trkpt><trkpt lat="44.3456855" lon="8.3398375"><ele>499.0</ele><time>2026-04-26T10:13:03.474Z</time></trkpt><trkpt lat="44.3456073" lon="8.3398343"><ele>499.00000000000006</ele><time>2026-04-26T10:13:04.477Z</time></trkpt><trkpt lat="44.3455333" lon="8.3398092"><ele>499.0</ele><time>2026-04-26T10:13:05.477Z</time></trkpt><trkpt lat="44.345468" lon="8.3397625"><ele>499.0</ele><time>2026-04-26T10:13:06.474Z</time></trkpt><trkpt lat="44.3454025" lon="8.33969"><ele>499.0</ele><time>2026-04-26T10:13:07.475Z</time></trkpt><trkpt lat="44.3453387" lon="8.3395837"><ele>499.0</ele><time>2026-04-26T10:13:08.476Z</time></trkpt><trkpt lat="44.3452778" lon="8.339461"><ele>499.0</ele><time>2026-04-26T10:13:09.476Z</time></trkpt><trkpt lat="44.3452212" lon="8.3393582"><ele>499.0</ele><time>2026-04-26T10:13:10.477Z</time></trkpt><trkpt lat="44.345162" lon="8.3392785"><ele>499.00000000000006</ele><time>2026-04-26T10:13:11.475Z</time></trkpt><trkpt lat="44.3450867" lon="8.3392152"><ele>499.0</ele><time>2026-04-26T10:13:12.476Z</time></trkpt><trkpt lat="44.3450027" lon="8.3391758"><ele>499.0</ele><time>2026-04-26T10:13:13.477Z</time></trkpt><trkpt lat="44.3449192" lon="8.3391658"><ele>499.0</ele><time>2026-04-26T10:13:14.477Z</time></trkpt><trkpt lat="44.344831" lon="8.3391825"><ele>499.00000000000006</ele><time>2026-04-26T10:13:15.477Z</time></trkpt><trkpt lat="44.3447543" lon="8.3392155"><ele>499.0</ele><time>2026-04-26T10:13:16.476Z</time></trkpt><trkpt lat="44.3446768" lon="8.339244"><ele>498.0</ele><time>2026-04-26T10:13:17.476Z</time></trkpt><trkpt lat="44.3446078" lon="8.3392658"><ele>497.0</ele><time>2026-04-26T10:13:18.475Z</time></trkpt><trkpt lat="44.3444987" lon="8.3392958"><ele>496.0</ele><time>2026-04-26T10:13:20.477Z</time></trkpt><trkpt lat="44.3444323" lon="8.339316"><ele>495.0</ele><time>2026-04-26T10:13:22.476Z</time></trkpt><trkpt lat="44.3444018" lon="8.3393942"><ele>494.0</ele><time>2026-04-26T10:13:24.475Z</time></trkpt><trkpt lat="44.344366" lon="8.3395903"><ele>493.99999999999994</ele><time>2026-04-26T10:13:26.474Z</time></trkpt><trkpt lat="44.3443418" lon="8.3397148"><ele>494.0</ele><time>2026-04-26T10:13:27.473Z</time></trkpt><trkpt lat="44.3443245" lon="8.3398343"><ele>494.0</ele><time>2026-04-26T10:13:28.475Z</time></trkpt><trkpt lat="44.3443168" lon="8.3399487"><ele>494.0</ele><time>2026-04-26T10:13:29.477Z</time></trkpt><trkpt lat="44.344309" lon="8.3400562"><ele>493.99999999999994</ele><time>2026-04-26T10:13:30.476Z</time></trkpt><trkpt lat="44.3442845" lon="8.3401778"><ele>494.0</ele><time>2026-04-26T10:13:31.476Z</time></trkpt><trkpt lat="44.344252" lon="8.3403063"><ele>492.79999999999995</ele><time>2026-04-26T10:13:32.476Z</time></trkpt><trkpt lat="44.3442215" lon="8.3404377"><ele>491.59999999999997</ele><time>2026-04-26T10:13:33.477Z</time></trkpt><trkpt lat="44.3441862" lon="8.3405782"><ele>490.4</ele><time>2026-04-26T10:13:34.477Z</time></trkpt><trkpt lat="44.3441568" lon="8.340704"><ele>489.2</ele><time>2026-04-26T10:13:35.477Z</time></trkpt><trkpt lat="44.3441297" lon="8.3408218"><ele>488.0</ele><time>2026-04-26T10:13:36.476Z</time></trkpt><trkpt lat="44.3440988" lon="8.3409322"><ele>487.99999999999994</ele><time>2026-04-26T10:13:37.476Z</time></trkpt><trkpt lat="44.3440688" lon="8.3410395"><ele>488.0</ele><time>2026-04-26T10:13:38.474Z</time></trkpt><trkpt lat="44.3440485" lon="8.3411472"><ele>488.0</ele><time>2026-04-26T10:13:39.476Z</time></trkpt><trkpt lat="44.3440453" lon="8.3412488"><ele>488.0</ele><time>2026-04-26T10:13:40.475Z</time></trkpt><trkpt lat="44.344057" lon="8.3413443"><ele>487.99999999999994</ele><time>2026-04-26T10:13:41.477Z</time></trkpt><trkpt lat="44.3440755" lon="8.341452"><ele>488.0</ele><time>2026-04-26T10:13:42.476Z</time></trkpt><trkpt lat="44.3440903" lon="8.3415468"><ele>488.1428571428571</ele><time>2026-04-26T10:13:43.476Z</time></trkpt><trkpt lat="44.3441033" lon="8.3416462"><ele>488.2857142857143</ele><time>2026-04-26T10:13:44.475Z</time></trkpt><trkpt lat="44.3441117" lon="8.3417462"><ele>488.42857142857144</ele><time>2026-04-26T10:13:45.475Z</time></trkpt><trkpt lat="44.3441108" lon="8.3418525"><ele>488.57142857142856</ele><time>2026-04-26T10:13:46.476Z</time></trkpt><trkpt lat="44.3441045" lon="8.341947"><ele>488.7142857142858</ele><time>2026-04-26T10:13:47.475Z</time></trkpt><trkpt lat="44.344096" lon="8.3420387"><ele>488.8571428571429</ele><time>2026-04-26T10:13:48.475Z</time></trkpt><trkpt lat="44.3440863" lon="8.3421687"><ele>489.0</ele><time>2026-04-26T10:13:50.473Z</time></trkpt><trkpt lat="44.3440572" lon="8.3422943"><ele>488.2</ele><time>2026-04-26T10:13:52.475Z</time></trkpt><trkpt lat="44.3439662" lon="8.3423633"><ele>487.4</ele><time>2026-04-26T10:13:54.474Z</time></trkpt><trkpt lat="44.3438723" lon="8.3423122"><ele>486.6</ele><time>2026-04-26T10:13:56.473Z</time></trkpt><trkpt lat="44.3438115" lon="8.3422003"><ele>485.8</ele><time>2026-04-26T10:13:58.475Z</time></trkpt><trkpt lat="44.3437948" lon="8.3421117"><ele>485.0</ele><time>2026-04-26T10:13:59.474Z</time></trkpt><trkpt lat="44.343784" lon="8.3419455"><ele>483.0</ele><time>2026-04-26T10:14:01.475Z</time></trkpt><trkpt lat="44.3437212" lon="8.3418167"><ele>481.0</ele><time>2026-04-26T10:14:03.474Z</time></trkpt><trkpt lat="44.3435975" lon="8.3417803"><ele>479.0</ele><time>2026-04-26T10:14:05.474Z</time></trkpt><trkpt lat="44.3435165" lon="8.3417982"><ele>477.0</ele><time>2026-04-26T10:14:06.474Z</time></trkpt><trkpt lat="44.3434468" lon="8.341819"><ele>475.0</ele><time>2026-04-26T10:14:07.476Z</time></trkpt><trkpt lat="44.3433887" lon="8.3418558"><ele>475.0</ele><time>2026-04-26T10:14:08.477Z</time></trkpt><trkpt lat="44.343281" lon="8.3419325"><ele>475.0</ele><time>2026-04-26T10:14:10.477Z</time></trkpt><trkpt lat="44.3431912" lon="8.3419297"><ele>475.0</ele><time>2026-04-26T10:14:12.475Z</time></trkpt><trkpt lat="44.3431692" lon="8.3418142"><ele>475.0</ele><time>2026-04-26T10:14:14.474Z</time></trkpt><trkpt lat="44.3431867" lon="8.341712"><ele>475.0</ele><time>2026-04-26T10:14:15.473Z</time></trkpt><trkpt lat="44.3432105" lon="8.3415895"><ele>475.0</ele><time>2026-04-26T10:14:16.473Z</time></trkpt><trkpt lat="44.3432367" lon="8.3414487"><ele>475.0</ele><time>2026-04-26T10:14:17.475Z</time></trkpt><trkpt lat="44.3432635" lon="8.3413093"><ele>475.0</ele><time>2026-04-26T10:14:18.475Z</time></trkpt><trkpt lat="44.3432823" lon="8.3411682"><ele>475.0</ele><time>2026-04-26T10:14:19.474Z</time></trkpt><trkpt lat="44.3432897" lon="8.3410325"><ele>475.0</ele><time>2026-04-26T10:14:20.475Z</time></trkpt><trkpt lat="44.3432968" lon="8.3409087"><ele>475.33333333333337</ele><time>2026-04-26T10:14:21.472Z</time></trkpt><trkpt lat="44.3433085" lon="8.3407993"><ele>475.6666666666667</ele><time>2026-04-26T10:14:22.475Z</time></trkpt><trkpt lat="44.343333" lon="8.3407107"><ele>476.0</ele><time>2026-04-26T10:14:23.475Z</time></trkpt><trkpt lat="44.3433742" lon="8.3405733"><ele>476.33333333333337</ele><time>2026-04-26T10:14:25.474Z</time></trkpt><trkpt lat="44.3433438" lon="8.3404793"><ele>476.6666666666667</ele><time>2026-04-26T10:14:27.475Z</time></trkpt><trkpt lat="44.3432513" lon="8.3404962"><ele>477.0</ele><time>2026-04-26T10:14:29.474Z</time></trkpt><trkpt lat="44.3431675" lon="8.3406393"><ele>477.0</ele><time>2026-04-26T10:14:31.473Z</time></trkpt><trkpt lat="44.3431173" lon="8.3407283"><ele>477.0</ele><time>2026-04-26T10:14:32.474Z</time></trkpt><trkpt lat="44.343061" lon="8.3408248"><ele>477.0</ele><time>2026-04-26T10:14:33.473Z</time></trkpt><trkpt lat="44.3430108" lon="8.340932"><ele>477.0</ele><time>2026-04-26T10:14:34.475Z</time></trkpt><trkpt lat="44.3429775" lon="8.3410545"><ele>477.0</ele><time>2026-04-26T10:14:35.474Z</time></trkpt><trkpt lat="44.3429493" lon="8.3411775"><ele>477.0</ele><time>2026-04-26T10:14:36.473Z</time></trkpt><trkpt lat="44.3429088" lon="8.3412898"><ele>475.0</ele><time>2026-04-26T10:14:37.474Z</time></trkpt><trkpt lat="44.3428578" lon="8.3413995"><ele>473.00000000000006</ele><time>2026-04-26T10:14:38.473Z</time></trkpt><trkpt lat="44.342808" lon="8.3415287"><ele>471.00000000000006</ele><time>2026-04-26T10:14:39.472Z</time></trkpt><trkpt lat="44.3427663" lon="8.3416633"><ele>469.0</ele><time>2026-04-26T10:14:40.472Z</time></trkpt><trkpt lat="44.3427315" lon="8.3417957"><ele>467.0</ele><time>2026-04-26T10:14:41.473Z</time></trkpt><trkpt lat="44.342699" lon="8.3419212"><ele>466.99999999999994</ele><time>2026-04-26T10:14:42.472Z</time></trkpt><trkpt lat="44.3426552" lon="8.3420423"><ele>467.0</ele><time>2026-04-26T10:14:43.474Z</time></trkpt><trkpt lat="44.3426045" lon="8.3421515"><ele>467.0</ele><time>2026-04-26T10:14:44.473Z</time></trkpt><trkpt lat="44.3425628" lon="8.3422573"><ele>467.0</ele><time>2026-04-26T10:14:45.473Z</time></trkpt><trkpt lat="44.3425353" lon="8.3423593"><ele>466.99999999999994</ele><time>2026-04-26T10:14:46.474Z</time></trkpt><trkpt lat="44.342519" lon="8.3424695"><ele>467.0</ele><time>2026-04-26T10:14:47.474Z</time></trkpt><trkpt lat="44.3425152" lon="8.3425923"><ele>466.20000000000005</ele><time>2026-04-26T10:14:48.473Z</time></trkpt><trkpt lat="44.3425208" lon="8.3427295"><ele>465.40000000000003</ele><time>2026-04-26T10:14:49.473Z</time></trkpt><trkpt lat="44.342538" lon="8.3428783"><ele>464.59999999999997</ele><time>2026-04-26T10:14:50.475Z</time></trkpt><trkpt lat="44.3425572" lon="8.3430167"><ele>463.79999999999995</ele><time>2026-04-26T10:14:51.474Z</time></trkpt><trkpt lat="44.3425748" lon="8.3431443"><ele>463.0</ele><time>2026-04-26T10:14:52.474Z</time></trkpt><trkpt lat="44.3425727" lon="8.343264"><ele>461.50000000000006</ele><time>2026-04-26T10:14:53.472Z</time></trkpt><trkpt lat="44.3425657" lon="8.3433783"><ele>460.0</ele><time>2026-04-26T10:14:54.472Z</time></trkpt><trkpt lat="44.3425608" lon="8.3434935"><ele>458.5</ele><time>2026-04-26T10:14:55.474Z</time></trkpt><trkpt lat="44.3425635" lon="8.3436138"><ele>457.0</ele><time>2026-04-26T10:14:56.474Z</time></trkpt><trkpt lat="44.3425638" lon="8.3437477"><ele>455.50000000000006</ele><time>2026-04-26T10:14:57.474Z</time></trkpt><trkpt lat="44.3425593" lon="8.3438822"><ele>454.0</ele><time>2026-04-26T10:14:58.474Z</time></trkpt><trkpt lat="44.3425522" lon="8.3440155"><ele>452.6</ele><time>2026-04-26T10:14:59.472Z</time></trkpt><trkpt lat="44.3425367" lon="8.3441457"><ele>451.2</ele><time>2026-04-26T10:15:00.473Z</time></trkpt><trkpt lat="44.342519" lon="8.3442738"><ele>449.80000000000007</ele><time>2026-04-26T10:15:01.474Z</time></trkpt><trkpt lat="44.3424948" lon="8.3444012"><ele>448.40000000000003</ele><time>2026-04-26T10:15:02.471Z</time></trkpt><trkpt lat="44.3424727" lon="8.3445278"><ele>447.0</ele><time>2026-04-26T10:15:03.471Z</time></trkpt><trkpt lat="44.3424625" lon="8.3446557"><ele>446.1666666666667</ele><time>2026-04-26T10:15:04.472Z</time></trkpt><trkpt lat="44.3424628" lon="8.3447812"><ele>445.33333333333337</ele><time>2026-04-26T10:15:05.472Z</time></trkpt><trkpt lat="44.3424605" lon="8.3449003"><ele>444.5</ele><time>2026-04-26T10:15:06.473Z</time></trkpt><trkpt lat="44.3424492" lon="8.3450047"><ele>443.6666666666667</ele><time>2026-04-26T10:15:07.473Z</time></trkpt><trkpt lat="44.3424283" lon="8.3450908"><ele>442.83333333333337</ele><time>2026-04-26T10:15:08.474Z</time></trkpt><trkpt lat="44.3423487" lon="8.3452355"><ele>442.0</ele><time>2026-04-26T10:15:10.473Z</time></trkpt><trkpt lat="44.3422782" lon="8.3453208"><ele>443.50000000000006</ele><time>2026-04-26T10:15:11.474Z</time></trkpt><trkpt lat="44.3422037" lon="8.3454093"><ele>445.0</ele><time>2026-04-26T10:15:12.472Z</time></trkpt><trkpt lat="44.34214" lon="8.3454883"><ele>446.5</ele><time>2026-04-26T10:15:13.473Z</time></trkpt><trkpt lat="44.3420707" lon="8.3455455"><ele>448.0</ele><time>2026-04-26T10:15:14.476Z</time></trkpt><trkpt lat="44.3419962" lon="8.3456103"><ele>449.50000000000006</ele><time>2026-04-26T10:15:15.473Z</time></trkpt><trkpt lat="44.341924" lon="8.3456997"><ele>451.0</ele><time>2026-04-26T10:15:16.472Z</time></trkpt><trkpt lat="44.3418607" lon="8.3457933"><ele>446.83333333333337</ele><time>2026-04-26T10:15:17.472Z</time></trkpt><trkpt lat="44.3418092" lon="8.34588"><ele>442.6666666666667</ele><time>2026-04-26T10:15:18.473Z</time></trkpt><trkpt lat="44.3417763" lon="8.3459553"><ele>438.5</ele><time>2026-04-26T10:15:19.472Z</time></trkpt><trkpt lat="44.341741" lon="8.3460573"><ele>434.33333333333337</ele><time>2026-04-26T10:15:21.473Z</time></trkpt><trkpt lat="44.3417583" lon="8.346152"><ele>430.1666666666667</ele><time>2026-04-26T10:15:31.475Z</time></trkpt><trkpt lat="44.3418793" lon="8.3462053"><ele>426.0</ele><time>2026-04-26T10:15:33.475Z</time></trkpt><trkpt lat="44.3419745" lon="8.3462167"><ele>426.0</ele><time>2026-04-26T10:15:34.475Z</time></trkpt><trkpt lat="44.3420835" lon="8.3462298"><ele>426.0</ele><time>2026-04-26T10:15:35.475Z</time></trkpt><trkpt lat="44.3422055" lon="8.3462508"><ele>426.0</ele><time>2026-04-26T10:15:36.474Z</time></trkpt><trkpt lat="44.3423357" lon="8.3462743"><ele>426.0</ele><time>2026-04-26T10:15:37.477Z</time></trkpt><trkpt lat="44.34247" lon="8.3463068"><ele>427.5</ele><time>2026-04-26T10:15:38.476Z</time></trkpt><trkpt lat="44.3426113" lon="8.3463517"><ele>429.0</ele><time>2026-04-26T10:15:39.475Z</time></trkpt><trkpt lat="44.342758" lon="8.3464025"><ele>430.5</ele><time>2026-04-26T10:15:40.475Z</time></trkpt><trkpt lat="44.3429047" lon="8.3464532"><ele>432.0</ele><time>2026-04-26T10:15:41.475Z</time></trkpt><trkpt lat="44.3430413" lon="8.3465022"><ele>433.75</ele><time>2026-04-26T10:15:42.474Z</time></trkpt><trkpt lat="44.3431698" lon="8.3465533"><ele>435.5</ele><time>2026-04-26T10:15:43.475Z</time></trkpt><trkpt lat="44.3432945" lon="8.3466"><ele>437.25</ele><time>2026-04-26T10:15:44.475Z</time></trkpt><trkpt lat="44.3434185" lon="8.3466385"><ele>439.0</ele><time>2026-04-26T10:15:45.476Z</time></trkpt><trkpt lat="44.3435398" lon="8.3466698"><ele>439.0</ele><time>2026-04-26T10:15:46.476Z</time></trkpt><trkpt lat="44.3436595" lon="8.3466937"><ele>439.0</ele><time>2026-04-26T10:15:47.478Z</time></trkpt><trkpt lat="44.3437717" lon="8.3467087"><ele>439.0</ele><time>2026-04-26T10:15:48.477Z</time></trkpt><trkpt lat="44.3438795" lon="8.3467212"><ele>439.0</ele><time>2026-04-26T10:15:49.475Z</time></trkpt><trkpt lat="44.3439902" lon="8.3467328"><ele>438.75</ele><time>2026-04-26T10:15:50.476Z</time></trkpt><trkpt lat="44.3441078" lon="8.346743"><ele>438.5</ele><time>2026-04-26T10:15:51.475Z</time></trkpt><trkpt lat="44.3442328" lon="8.3467508"><ele>438.25</ele><time>2026-04-26T10:15:52.476Z</time></trkpt><trkpt lat="44.3443632" lon="8.346758"><ele>438.0</ele><time>2026-04-26T10:15:53.475Z</time></trkpt><trkpt lat="44.3444973" lon="8.3467663"><ele>438.0</ele><time>2026-04-26T10:15:54.474Z</time></trkpt><trkpt lat="44.3446335" lon="8.3467765"><ele>438.0</ele><time>2026-04-26T10:15:55.478Z</time></trkpt><trkpt lat="44.3447602" lon="8.3467837"><ele>438.0</ele><time>2026-04-26T10:15:56.476Z</time></trkpt><trkpt lat="44.3448728" lon="8.3467875"><ele>438.0</ele><time>2026-04-26T10:15:57.477Z</time></trkpt><trkpt lat="44.3449717" lon="8.3467865"><ele>439.0</ele><time>2026-04-26T10:15:58.476Z</time></trkpt><trkpt lat="44.3450485" lon="8.3467852"><ele>440.0</ele><time>2026-04-26T10:15:59.479Z</time></trkpt><trkpt lat="44.345135" lon="8.3468245"><ele>441.0</ele><time>2026-04-26T10:16:01.478Z</time></trkpt><trkpt lat="44.345148" lon="8.346915"><ele>442.0</ele><time>2026-04-26T10:16:03.476Z</time></trkpt><trkpt lat="44.3451147" lon="8.3470653"><ele>443.0</ele><time>2026-04-26T10:16:05.476Z</time></trkpt><trkpt lat="44.3451225" lon="8.3471967"><ele>444.0</ele><time>2026-04-26T10:16:07.478Z</time></trkpt><trkpt lat="44.3451298" lon="8.3472963"><ele>444.1666666666667</ele><time>2026-04-26T10:16:09.477Z</time></trkpt><trkpt lat="44.345063" lon="8.3474003"><ele>444.33333333333337</ele><time>2026-04-26T10:16:11.477Z</time></trkpt><trkpt lat="44.345003" lon="8.3474652"><ele>444.5</ele><time>2026-04-26T10:16:12.477Z</time></trkpt><trkpt lat="44.3449523" lon="8.3475282"><ele>444.6666666666667</ele><time>2026-04-26T10:16:13.477Z</time></trkpt><trkpt lat="44.3448982" lon="8.3475825"><ele>444.83333333333337</ele><time>2026-04-26T10:16:14.476Z</time></trkpt><trkpt lat="44.344837" lon="8.3476382"><ele>445.0</ele><time>2026-04-26T10:16:15.477Z</time></trkpt><trkpt lat="44.3447727" lon="8.3476877"><ele>445.42857142857144</ele><time>2026-04-26T10:16:16.475Z</time></trkpt><trkpt lat="44.3447015" lon="8.3477332"><ele>445.85714285714283</ele><time>2026-04-26T10:16:17.474Z</time></trkpt><trkpt lat="44.3446285" lon="8.3477795"><ele>446.2857142857143</ele><time>2026-04-26T10:16:18.472Z</time></trkpt><trkpt lat="44.344561" lon="8.347809"><ele>446.7142857142857</ele><time>2026-04-26T10:16:19.475Z</time></trkpt><trkpt lat="44.3444927" lon="8.3478265"><ele>447.1428571428571</ele><time>2026-04-26T10:16:20.474Z</time></trkpt><trkpt lat="44.344428" lon="8.3478255"><ele>447.57142857142856</ele><time>2026-04-26T10:16:21.474Z</time></trkpt><trkpt lat="44.344356" lon="8.3478083"><ele>448.0</ele><time>2026-04-26T10:16:22.474Z</time></trkpt><trkpt lat="44.3442845" lon="8.3477802"><ele>448.00000000000006</ele><time>2026-04-26T10:16:23.474Z</time></trkpt><trkpt lat="44.3442187" lon="8.3477635"><ele>448.0</ele><time>2026-04-26T10:16:24.476Z</time></trkpt><trkpt lat="44.3441528" lon="8.3477723"><ele>448.0</ele><time>2026-04-26T10:16:25.475Z</time></trkpt><trkpt lat="44.3440877" lon="8.3477802"><ele>448.0</ele><time>2026-04-26T10:16:26.474Z</time></trkpt><trkpt lat="44.3439692" lon="8.3477813"><ele>448.00000000000006</ele><time>2026-04-26T10:16:28.474Z</time></trkpt><trkpt lat="44.3439053" lon="8.3477612"><ele>448.0</ele><time>2026-04-26T10:16:29.474Z</time></trkpt><trkpt lat="44.343783" lon="8.347771"><ele>448.6666666666667</ele><time>2026-04-26T10:16:31.475Z</time></trkpt><trkpt lat="44.3437137" lon="8.3477982"><ele>449.33333333333337</ele><time>2026-04-26T10:16:32.474Z</time></trkpt><trkpt lat="44.3436455" lon="8.3478382"><ele>450.0</ele><time>2026-04-26T10:16:33.474Z</time></trkpt><trkpt lat="44.3435425" lon="8.3478972"><ele>450.66666666666663</ele><time>2026-04-26T10:16:35.475Z</time></trkpt><trkpt lat="44.343485" lon="8.3479387"><ele>451.3333333333333</ele><time>2026-04-26T10:16:36.474Z</time></trkpt><trkpt lat="44.3433855" lon="8.347984"><ele>452.0</ele><time>2026-04-26T10:16:38.473Z</time></trkpt><trkpt lat="44.3432797" lon="8.3479812"><ele>451.99999999999994</ele><time>2026-04-26T10:16:40.471Z</time></trkpt><trkpt lat="44.3431668" lon="8.3479498"><ele>452.0</ele><time>2026-04-26T10:16:42.471Z</time></trkpt><trkpt lat="44.3431033" lon="8.347909"><ele>452.0</ele><time>2026-04-26T10:16:43.472Z</time></trkpt><trkpt lat="44.3430297" lon="8.3478725"><ele>452.0</ele><time>2026-04-26T10:16:44.473Z</time></trkpt><trkpt lat="44.342949" lon="8.347831"><ele>451.99999999999994</ele><time>2026-04-26T10:16:45.474Z</time></trkpt><trkpt lat="44.342871" lon="8.3477902"><ele>452.0</ele><time>2026-04-26T10:16:46.474Z</time></trkpt><trkpt lat="44.3428013" lon="8.3477593"><ele>453.75</ele><time>2026-04-26T10:16:47.474Z</time></trkpt><trkpt lat="44.3426817" lon="8.347724"><ele>455.5</ele><time>2026-04-26T10:16:49.477Z</time></trkpt><trkpt lat="44.3425677" lon="8.347753"><ele>457.25</ele><time>2026-04-26T10:16:51.475Z</time></trkpt><trkpt lat="44.3424593" lon="8.3478135"><ele>459.0</ele><time>2026-04-26T10:16:53.474Z</time></trkpt><trkpt lat="44.3423753" lon="8.3478748"><ele>459.0</ele><time>2026-04-26T10:16:55.473Z</time></trkpt><trkpt lat="44.3423033" lon="8.3479765"><ele>459.0</ele><time>2026-04-26T10:16:57.473Z</time></trkpt><trkpt lat="44.3422493" lon="8.3480415"><ele>459.0</ele><time>2026-04-26T10:16:58.474Z</time></trkpt><trkpt lat="44.3421935" lon="8.3481155"><ele>459.0</ele><time>2026-04-26T10:16:59.475Z</time></trkpt><trkpt lat="44.3421345" lon="8.3481837"><ele>459.0</ele><time>2026-04-26T10:17:00.475Z</time></trkpt><trkpt lat="44.3420507" lon="8.3482915"><ele>459.0</ele><time>2026-04-26T10:17:02.475Z</time></trkpt><trkpt lat="44.3419538" lon="8.3483602"><ele>459.1666666666667</ele><time>2026-04-26T10:17:04.475Z</time></trkpt><trkpt lat="44.341886" lon="8.3483793"><ele>459.33333333333337</ele><time>2026-04-26T10:17:05.473Z</time></trkpt><trkpt lat="44.3418073" lon="8.348395"><ele>459.5</ele><time>2026-04-26T10:17:06.472Z</time></trkpt><trkpt lat="44.3417248" lon="8.348404"><ele>459.6666666666667</ele><time>2026-04-26T10:17:07.473Z</time></trkpt><trkpt lat="44.3416622" lon="8.3484153"><ele>459.83333333333337</ele><time>2026-04-26T10:17:08.472Z</time></trkpt><trkpt lat="44.3415995" lon="8.3484355"><ele>460.0</ele><time>2026-04-26T10:17:09.474Z</time></trkpt><trkpt lat="44.3414915" lon="8.3484688"><ele>460.0</ele><time>2026-04-26T10:17:11.473Z</time></trkpt><trkpt lat="44.341389" lon="8.348534"><ele>460.0</ele><time>2026-04-26T10:17:13.474Z</time></trkpt><trkpt lat="44.3413302" lon="8.3485732"><ele>460.0</ele><time>2026-04-26T10:17:14.474Z</time></trkpt><trkpt lat="44.341224" lon="8.3486423"><ele>460.0</ele><time>2026-04-26T10:17:16.474Z</time></trkpt><trkpt lat="44.3411142" lon="8.3487127"><ele>460.0</ele><time>2026-04-26T10:17:18.474Z</time></trkpt><trkpt lat="44.3410425" lon="8.3487562"><ele>459.83333333333337</ele><time>2026-04-26T10:17:19.474Z</time></trkpt><trkpt lat="44.3409383" lon="8.3487982"><ele>459.6666666666667</ele><time>2026-04-26T10:17:21.474Z</time></trkpt><trkpt lat="44.3408418" lon="8.3488642"><ele>459.5</ele><time>2026-04-26T10:17:23.473Z</time></trkpt><trkpt lat="44.3407865" lon="8.3489287"><ele>459.33333333333337</ele><time>2026-04-26T10:17:24.472Z</time></trkpt><trkpt lat="44.3407373" lon="8.3490125"><ele>459.1666666666667</ele><time>2026-04-26T10:17:25.472Z</time></trkpt><trkpt lat="44.340701" lon="8.3491135"><ele>459.0</ele><time>2026-04-26T10:17:26.473Z</time></trkpt><trkpt lat="44.3406753" lon="8.3492092"><ele>457.1666666666667</ele><time>2026-04-26T10:17:27.474Z</time></trkpt><trkpt lat="44.3406568" lon="8.3493095"><ele>455.33333333333337</ele><time>2026-04-26T10:17:28.474Z</time></trkpt><trkpt lat="44.3406508" lon="8.3494033"><ele>453.5</ele><time>2026-04-26T10:17:29.475Z</time></trkpt><trkpt lat="44.3406497" lon="8.3495162"><ele>451.6666666666667</ele><time>2026-04-26T10:17:30.474Z</time></trkpt><trkpt lat="44.3406498" lon="8.3496115"><ele>449.83333333333337</ele><time>2026-04-26T10:17:31.476Z</time></trkpt><trkpt lat="44.340637" lon="8.3497703"><ele>448.0</ele><time>2026-04-26T10:17:33.475Z</time></trkpt><trkpt lat="44.3406473" lon="8.3499145"><ele>447.33333333333337</ele><time>2026-04-26T10:17:35.473Z</time></trkpt><trkpt lat="44.3406692" lon="8.3500012"><ele>446.6666666666667</ele><time>2026-04-26T10:17:36.473Z</time></trkpt><trkpt lat="44.3406967" lon="8.3501525"><ele>446.0</ele><time>2026-04-26T10:17:38.473Z</time></trkpt><trkpt lat="44.3406792" lon="8.3503037"><ele>445.33333333333337</ele><time>2026-04-26T10:17:40.476Z</time></trkpt><trkpt lat="44.340633" lon="8.350394"><ele>444.6666666666667</ele><time>2026-04-26T10:17:42.474Z</time></trkpt><trkpt lat="44.3405682" lon="8.3504565"><ele>444.0</ele><time>2026-04-26T10:17:44.474Z</time></trkpt><trkpt lat="44.3404785" lon="8.3505213"><ele>442.3333333333333</ele><time>2026-04-26T10:17:46.474Z</time></trkpt><trkpt lat="44.3404055" lon="8.3506068"><ele>440.66666666666663</ele><time>2026-04-26T10:17:48.474Z</time></trkpt><trkpt lat="44.3403615" lon="8.3506812"><ele>439.0</ele><time>2026-04-26T10:17:49.477Z</time></trkpt><trkpt lat="44.3403372" lon="8.350767"><ele>437.3333333333333</ele><time>2026-04-26T10:17:50.476Z</time></trkpt><trkpt lat="44.3403208" lon="8.3509227"><ele>435.66666666666663</ele><time>2026-04-26T10:17:52.474Z</time></trkpt><trkpt lat="44.3403092" lon="8.3510575"><ele>434.0</ele><time>2026-04-26T10:17:54.473Z</time></trkpt><trkpt lat="44.3402948" lon="8.3511703"><ele>434.0</ele><time>2026-04-26T10:17:56.474Z</time></trkpt><trkpt lat="44.3402567" lon="8.3512835"><ele>434.0</ele><time>2026-04-26T10:17:58.475Z</time></trkpt><trkpt lat="44.3401763" lon="8.3513712"><ele>434.0</ele><time>2026-04-26T10:18:00.478Z</time></trkpt><trkpt lat="44.3401068" lon="8.3514445"><ele>434.0</ele><time>2026-04-26T10:18:02.475Z</time></trkpt><trkpt lat="44.340036" lon="8.3515897"><ele>434.0</ele><time>2026-04-26T10:18:04.474Z</time></trkpt><trkpt lat="44.3400043" lon="8.3516765"><ele>432.7142857142857</ele><time>2026-04-26T10:18:05.474Z</time></trkpt><trkpt lat="44.3399725" lon="8.3517828"><ele>431.42857142857144</ele><time>2026-04-26T10:18:06.475Z</time></trkpt><trkpt lat="44.3399498" lon="8.3518853"><ele>430.1428571428571</ele><time>2026-04-26T10:18:07.474Z</time></trkpt><trkpt lat="44.3399418" lon="8.351973"><ele>428.8571428571429</ele><time>2026-04-26T10:18:08.475Z</time></trkpt><trkpt lat="44.3399412" lon="8.352062"><ele>427.57142857142856</ele><time>2026-04-26T10:18:09.474Z</time></trkpt><trkpt lat="44.3399447" lon="8.3521563"><ele>426.2857142857143</ele><time>2026-04-26T10:18:10.475Z</time></trkpt><trkpt lat="44.339946" lon="8.352249"><ele>425.0</ele><time>2026-04-26T10:18:11.477Z</time></trkpt><trkpt lat="44.3399475" lon="8.3523968"><ele>424.16666666666663</ele><time>2026-04-26T10:18:13.476Z</time></trkpt><trkpt lat="44.3399727" lon="8.3525123"><ele>423.3333333333333</ele><time>2026-04-26T10:18:15.475Z</time></trkpt><trkpt lat="44.3400365" lon="8.3525582"><ele>422.5</ele><time>2026-04-26T10:18:17.474Z</time></trkpt><trkpt lat="44.3401287" lon="8.3525668"><ele>421.66666666666663</ele><time>2026-04-26T10:18:19.474Z</time></trkpt><trkpt lat="44.3402142" lon="8.3525492"><ele>420.8333333333333</ele><time>2026-04-26T10:18:21.471Z</time></trkpt><trkpt lat="44.3402765" lon="8.3525857"><ele>420.0</ele><time>2026-04-26T10:18:23.474Z</time></trkpt><trkpt lat="44.340324" lon="8.3527023"><ele>420.0</ele><time>2026-04-26T10:18:25.477Z</time></trkpt><trkpt lat="44.340314" lon="8.3528593"><ele>420.0</ele><time>2026-04-26T10:18:27.475Z</time></trkpt><trkpt lat="44.3402895" lon="8.3530095"><ele>420.0</ele><time>2026-04-26T10:18:29.474Z</time></trkpt><trkpt lat="44.3402617" lon="8.3531535"><ele>420.0</ele><time>2026-04-26T10:18:31.473Z</time></trkpt><trkpt lat="44.340224" lon="8.3532798"><ele>420.0</ele><time>2026-04-26T10:18:33.473Z</time></trkpt><trkpt lat="44.3401938" lon="8.3534128"><ele>418.2</ele><time>2026-04-26T10:18:35.474Z</time></trkpt><trkpt lat="44.3401347" lon="8.3535488"><ele>416.4</ele><time>2026-04-26T10:18:37.473Z</time></trkpt><trkpt lat="44.340075" lon="8.353661"><ele>414.6</ele><time>2026-04-26T10:18:39.474Z</time></trkpt><trkpt lat="44.3400328" lon="8.3537298"><ele>412.8</ele><time>2026-04-26T10:18:40.473Z</time></trkpt><trkpt lat="44.3399707" lon="8.3538725"><ele>411.0</ele><time>2026-04-26T10:18:42.472Z</time></trkpt><trkpt lat="44.3399127" lon="8.3540285"><ele>410.20000000000005</ele><time>2026-04-26T10:18:44.472Z</time></trkpt><trkpt lat="44.3398815" lon="8.3541775"><ele>409.40000000000003</ele><time>2026-04-26T10:18:46.471Z</time></trkpt><trkpt lat="44.3398887" lon="8.3543568"><ele>408.6</ele><time>2026-04-26T10:18:48.474Z</time></trkpt><trkpt lat="44.3399162" lon="8.3544418"><ele>407.8</ele><time>2026-04-26T10:18:49.474Z</time></trkpt><trkpt lat="44.3399518" lon="8.354531"><ele>407.0</ele><time>2026-04-26T10:18:50.473Z</time></trkpt><trkpt lat="44.339996" lon="8.3546543"><ele>405.99999999999994</ele><time>2026-04-26T10:18:51.472Z</time></trkpt><trkpt lat="44.340035" lon="8.3547583"><ele>405.0</ele><time>2026-04-26T10:18:52.474Z</time></trkpt><trkpt lat="44.3400713" lon="8.3548427"><ele>404.0</ele><time>2026-04-26T10:18:53.473Z</time></trkpt><trkpt lat="44.3400952" lon="8.3549475"><ele>403.0</ele><time>2026-04-26T10:18:54.472Z</time></trkpt><trkpt lat="44.340128" lon="8.3550445"><ele>401.99999999999994</ele><time>2026-04-26T10:18:55.473Z</time></trkpt><trkpt lat="44.3401653" lon="8.3551542"><ele>401.0</ele><time>2026-04-26T10:18:56.473Z</time></trkpt><trkpt lat="44.3402063" lon="8.3552765"><ele>400.99999999999994</ele><time>2026-04-26T10:18:57.472Z</time></trkpt><trkpt lat="44.340238" lon="8.3553778"><ele>401.0</ele><time>2026-04-26T10:18:58.472Z</time></trkpt><trkpt lat="44.3402655" lon="8.3554855"><ele>401.0</ele><time>2026-04-26T10:18:59.473Z</time></trkpt><trkpt lat="44.3402932" lon="8.3555842"><ele>401.0</ele><time>2026-04-26T10:19:00.473Z</time></trkpt><trkpt lat="44.3403133" lon="8.3556755"><ele>400.99999999999994</ele><time>2026-04-26T10:19:01.472Z</time></trkpt><trkpt lat="44.340361" lon="8.3558142"><ele>401.0</ele><time>2026-04-26T10:19:03.472Z</time></trkpt><trkpt lat="44.3404058" lon="8.3558788"><ele>399.0</ele><time>2026-04-26T10:19:06.475Z</time></trkpt><trkpt lat="44.3403977" lon="8.3559668"><ele>397.0</ele><time>2026-04-26T10:19:41.473Z</time></trkpt><trkpt lat="44.3404817" lon="8.3559295"><ele>395.0</ele><time>2026-04-26T10:19:43.473Z</time></trkpt><trkpt lat="44.340582" lon="8.3558215"><ele>393.0</ele><time>2026-04-26T10:19:45.474Z</time></trkpt><trkpt lat="44.3406807" lon="8.3557017"><ele>391.0</ele><time>2026-04-26T10:19:47.474Z</time></trkpt><trkpt lat="44.340737" lon="8.3556552"><ele>391.00000000000006</ele><time>2026-04-26T10:19:48.476Z</time></trkpt><trkpt lat="44.340849" lon="8.3556565"><ele>391.0</ele><time>2026-04-26T10:19:50.474Z</time></trkpt><trkpt lat="44.3409092" lon="8.3556912"><ele>391.0</ele><time>2026-04-26T10:19:51.475Z</time></trkpt><trkpt lat="44.3410288" lon="8.3556873"><ele>391.0</ele><time>2026-04-26T10:19:53.474Z</time></trkpt><trkpt lat="44.341092" lon="8.3556452"><ele>391.00000000000006</ele><time>2026-04-26T10:19:54.473Z</time></trkpt><trkpt lat="44.3411515" lon="8.3555723"><ele>391.0</ele><time>2026-04-26T10:19:55.473Z</time></trkpt><trkpt lat="44.3412015" lon="8.3554678"><ele>394.4</ele><time>2026-04-26T10:19:56.472Z</time></trkpt><trkpt lat="44.3412328" lon="8.3553552"><ele>397.8</ele><time>2026-04-26T10:19:57.472Z</time></trkpt><trkpt lat="44.3412515" lon="8.3552285"><ele>401.2</ele><time>2026-04-26T10:19:58.471Z</time></trkpt><trkpt lat="44.3412557" lon="8.3550897"><ele>404.59999999999997</ele><time>2026-04-26T10:19:59.473Z</time></trkpt><trkpt lat="44.3412528" lon="8.354944"><ele>408.0</ele><time>2026-04-26T10:20:00.474Z</time></trkpt><trkpt lat="44.3412478" lon="8.3548172"><ele>408.0</ele><time>2026-04-26T10:20:01.476Z</time></trkpt><trkpt lat="44.3412478" lon="8.3547078"><ele>408.0</ele><time>2026-04-26T10:20:02.473Z</time></trkpt><trkpt lat="44.3412597" lon="8.3546085"><ele>408.0</ele><time>2026-04-26T10:20:03.473Z</time></trkpt><trkpt lat="44.3412703" lon="8.3544978"><ele>408.0</ele><time>2026-04-26T10:20:04.472Z</time></trkpt><trkpt lat="44.341289" lon="8.3544065"><ele>408.0</ele><time>2026-04-26T10:20:05.473Z</time></trkpt><trkpt lat="44.3413268" lon="8.354322"><ele>408.0</ele><time>2026-04-26T10:20:06.473Z</time></trkpt><trkpt lat="44.3413668" lon="8.3542477"><ele>408.0</ele><time>2026-04-26T10:20:07.474Z</time></trkpt><trkpt lat="44.3414592" lon="8.3541737"><ele>404.8333333333333</ele><time>2026-04-26T10:20:09.475Z</time></trkpt><trkpt lat="44.341546" lon="8.354209"><ele>401.66666666666663</ele><time>2026-04-26T10:20:11.474Z</time></trkpt><trkpt lat="44.3416027" lon="8.3542708"><ele>398.5</ele><time>2026-04-26T10:20:12.475Z</time></trkpt><trkpt lat="44.341663" lon="8.354354"><ele>395.3333333333333</ele><time>2026-04-26T10:20:13.473Z</time></trkpt><trkpt lat="44.3417233" lon="8.3544575"><ele>392.16666666666663</ele><time>2026-04-26T10:20:14.474Z</time></trkpt><trkpt lat="44.3417755" lon="8.3545682"><ele>389.0</ele><time>2026-04-26T10:20:15.473Z</time></trkpt><trkpt lat="44.3418218" lon="8.3546812"><ele>388.66666666666663</ele><time>2026-04-26T10:20:16.473Z</time></trkpt><trkpt lat="44.3418713" lon="8.354777"><ele>388.3333333333333</ele><time>2026-04-26T10:20:17.474Z</time></trkpt><trkpt lat="44.3419265" lon="8.354854"><ele>388.0</ele><time>2026-04-26T10:20:18.474Z</time></trkpt><trkpt lat="44.341981" lon="8.3549147"><ele>387.66666666666663</ele><time>2026-04-26T10:20:19.472Z</time></trkpt><trkpt lat="44.3420255" lon="8.3549883"><ele>387.3333333333333</ele><time>2026-04-26T10:20:20.473Z</time></trkpt><trkpt lat="44.3420615" lon="8.355081"><ele>387.0</ele><time>2026-04-26T10:20:21.47Z</time></trkpt><trkpt lat="44.3420912" lon="8.355179"><ele>387.0</ele><time>2026-04-26T10:20:22.472Z</time></trkpt><trkpt lat="44.3420878" lon="8.3552857"><ele>387.0</ele><time>2026-04-26T10:20:23.473Z</time></trkpt><trkpt lat="44.3420775" lon="8.3553968"><ele>387.0</ele><time>2026-04-26T10:20:24.471Z</time></trkpt><trkpt lat="44.3420513" lon="8.3555015"><ele>387.0</ele><time>2026-04-26T10:20:25.473Z</time></trkpt><trkpt lat="44.3420685" lon="8.3556718"><ele>387.0</ele><time>2026-04-26T10:20:27.473Z</time></trkpt><trkpt lat="44.342107" lon="8.3557435"><ele>387.0</ele><time>2026-04-26T10:20:28.474Z</time></trkpt><trkpt lat="44.3421572" lon="8.3558093"><ele>386.0</ele><time>2026-04-26T10:20:29.473Z</time></trkpt><trkpt lat="44.3422187" lon="8.3559583"><ele>385.0</ele><time>2026-04-26T10:20:31.472Z</time></trkpt><trkpt lat="44.3422292" lon="8.3560533"><ele>384.0</ele><time>2026-04-26T10:20:32.473Z</time></trkpt><trkpt lat="44.3422095" lon="8.3562197"><ele>383.0</ele><time>2026-04-26T10:20:34.474Z</time></trkpt><trkpt lat="44.3421337" lon="8.3563528"><ele>382.0</ele><time>2026-04-26T10:20:36.47Z</time></trkpt><trkpt lat="44.3420682" lon="8.3564712"><ele>380.8333333333333</ele><time>2026-04-26T10:20:38.471Z</time></trkpt><trkpt lat="44.3420677" lon="8.3566035"><ele>379.66666666666663</ele><time>2026-04-26T10:20:40.472Z</time></trkpt><trkpt lat="44.3421138" lon="8.3567393"><ele>378.5</ele><time>2026-04-26T10:20:42.472Z</time></trkpt><trkpt lat="44.3421458" lon="8.3568207"><ele>377.3333333333333</ele><time>2026-04-26T10:20:43.473Z</time></trkpt><trkpt lat="44.3421785" lon="8.3568965"><ele>376.1666666666667</ele><time>2026-04-26T10:20:44.474Z</time></trkpt><trkpt lat="44.3421963" lon="8.3570363"><ele>375.0</ele><time>2026-04-26T10:20:46.471Z</time></trkpt><trkpt lat="44.3421555" lon="8.3571955"><ele>377.0</ele><time>2026-04-26T10:20:48.471Z</time></trkpt><trkpt lat="44.3421292" lon="8.3572805"><ele>379.0</ele><time>2026-04-26T10:20:49.472Z</time></trkpt><trkpt lat="44.3421103" lon="8.3573805"><ele>381.0</ele><time>2026-04-26T10:20:50.475Z</time></trkpt><trkpt lat="44.3420965" lon="8.3575342"><ele>383.0</ele><time>2026-04-26T10:20:52.472Z</time></trkpt><trkpt lat="44.3420595" lon="8.3576698"><ele>385.0</ele><time>2026-04-26T10:20:54.471Z</time></trkpt><trkpt lat="44.3419522" lon="8.3577472"><ele>385.0</ele><time>2026-04-26T10:20:56.474Z</time></trkpt><trkpt lat="44.3418268" lon="8.3577882"><ele>385.0</ele><time>2026-04-26T10:20:58.473Z</time></trkpt><trkpt lat="44.3417497" lon="8.3578873"><ele>385.0</ele><time>2026-04-26T10:21:00.473Z</time></trkpt><trkpt lat="44.3417223" lon="8.357979"><ele>385.0</ele><time>2026-04-26T10:21:01.474Z</time></trkpt><trkpt lat="44.341677" lon="8.3580752"><ele>385.0</ele><time>2026-04-26T10:21:02.475Z</time></trkpt><trkpt lat="44.3416148" lon="8.3581627"><ele>387.4</ele><time>2026-04-26T10:21:03.475Z</time></trkpt><trkpt lat="44.3415577" lon="8.3582367"><ele>389.8</ele><time>2026-04-26T10:21:04.475Z</time></trkpt><trkpt lat="44.3415067" lon="8.358308"><ele>392.20000000000005</ele><time>2026-04-26T10:21:05.477Z</time></trkpt><trkpt lat="44.3414638" lon="8.358381"><ele>394.6</ele><time>2026-04-26T10:21:06.475Z</time></trkpt><trkpt lat="44.3414167" lon="8.3585218"><ele>397.0</ele><time>2026-04-26T10:21:08.478Z</time></trkpt><trkpt lat="44.3414417" lon="8.3586947"><ele>397.0</ele><time>2026-04-26T10:21:10.475Z</time></trkpt><trkpt lat="44.3414747" lon="8.3587955"><ele>397.0</ele><time>2026-04-26T10:21:11.474Z</time></trkpt><trkpt lat="44.341506" lon="8.3588918"><ele>397.0</ele><time>2026-04-26T10:21:12.474Z</time></trkpt><trkpt lat="44.3415737" lon="8.3590078"><ele>397.0</ele><time>2026-04-26T10:21:14.474Z</time></trkpt><trkpt lat="44.3416657" lon="8.3590243"><ele>397.0</ele><time>2026-04-26T10:21:16.478Z</time></trkpt><trkpt lat="44.3417733" lon="8.3589675"><ele>398.0</ele><time>2026-04-26T10:21:18.475Z</time></trkpt><trkpt lat="44.3418412" lon="8.3589413"><ele>399.0</ele><time>2026-04-26T10:21:19.475Z</time></trkpt><trkpt lat="44.341913" lon="8.3589142"><ele>400.0</ele><time>2026-04-26T10:21:20.477Z</time></trkpt><trkpt lat="44.341987" lon="8.3588972"><ele>401.0</ele><time>2026-04-26T10:21:21.474Z</time></trkpt><trkpt lat="44.3420612" lon="8.3588825"><ele>402.0</ele><time>2026-04-26T10:21:22.476Z</time></trkpt><trkpt lat="44.3421357" lon="8.3588793"><ele>403.0</ele><time>2026-04-26T10:21:23.473Z</time></trkpt><trkpt lat="44.3422117" lon="8.3589018"><ele>404.0</ele><time>2026-04-26T10:21:24.473Z</time></trkpt><trkpt lat="44.3422867" lon="8.3589517"><ele>404.0</ele><time>2026-04-26T10:21:25.474Z</time></trkpt><trkpt lat="44.342357" lon="8.3590312"><ele>404.0</ele><time>2026-04-26T10:21:26.476Z</time></trkpt><trkpt lat="44.3424215" lon="8.3591365"><ele>404.0</ele><time>2026-04-26T10:21:27.476Z</time></trkpt><trkpt lat="44.3424833" lon="8.3592517"><ele>404.0</ele><time>2026-04-26T10:21:28.476Z</time></trkpt><trkpt lat="44.3425442" lon="8.3593822"><ele>404.0</ele><time>2026-04-26T10:21:29.475Z</time></trkpt><trkpt lat="44.3426003" lon="8.3595135"><ele>403.99999999999994</ele><time>2026-04-26T10:21:30.475Z</time></trkpt><trkpt lat="44.3426477" lon="8.3596297"><ele>404.0</ele><time>2026-04-26T10:21:31.474Z</time></trkpt><trkpt lat="44.3426987" lon="8.3597247"><ele>404.0</ele><time>2026-04-26T10:21:32.473Z</time></trkpt><trkpt lat="44.3427565" lon="8.359796"><ele>404.0</ele><time>2026-04-26T10:21:33.472Z</time></trkpt><trkpt lat="44.3428075" lon="8.359849"><ele>403.99999999999994</ele><time>2026-04-26T10:21:34.47Z</time></trkpt><trkpt lat="44.3428822" lon="8.3599932"><ele>404.0</ele><time>2026-04-26T10:21:36.47Z</time></trkpt><trkpt lat="44.342896" lon="8.360094"><ele>402.49999999999994</ele><time>2026-04-26T10:21:37.47Z</time></trkpt><trkpt lat="44.342911" lon="8.3601945"><ele>401.0</ele><time>2026-04-26T10:21:38.474Z</time></trkpt><trkpt lat="44.3429477" lon="8.3603008"><ele>399.5</ele><time>2026-04-26T10:21:39.473Z</time></trkpt><trkpt lat="44.3429923" lon="8.3604247"><ele>398.0</ele><time>2026-04-26T10:21:40.472Z</time></trkpt><trkpt lat="44.3430242" lon="8.360532"><ele>396.49999999999994</ele><time>2026-04-26T10:21:41.475Z</time></trkpt><trkpt lat="44.3430475" lon="8.3606183"><ele>395.0</ele><time>2026-04-26T10:21:42.474Z</time></trkpt><trkpt lat="44.3430837" lon="8.3607577"><ele>395.0</ele><time>2026-04-26T10:21:44.475Z</time></trkpt><trkpt lat="44.3431047" lon="8.3608945"><ele>395.0</ele><time>2026-04-26T10:21:46.476Z</time></trkpt><trkpt lat="44.3431083" lon="8.3609905"><ele>395.0</ele><time>2026-04-26T10:21:47.476Z</time></trkpt><trkpt lat="44.3431007" lon="8.3610828"><ele>395.0</ele><time>2026-04-26T10:21:48.474Z</time></trkpt><trkpt lat="44.343062" lon="8.3612418"><ele>395.0</ele><time>2026-04-26T10:21:50.476Z</time></trkpt><trkpt lat="44.342995" lon="8.3613897"><ele>391.99999999999994</ele><time>2026-04-26T10:21:52.478Z</time></trkpt><trkpt lat="44.3429622" lon="8.3614755"><ele>389.0</ele><time>2026-04-26T10:21:53.475Z</time></trkpt><trkpt lat="44.342926" lon="8.3615558"><ele>386.0</ele><time>2026-04-26T10:21:54.474Z</time></trkpt><trkpt lat="44.3428887" lon="8.3616322"><ele>383.0</ele><time>2026-04-26T10:21:55.474Z</time></trkpt><trkpt lat="44.342846" lon="8.3617"><ele>380.0</ele><time>2026-04-26T10:21:56.476Z</time></trkpt><trkpt lat="44.342796" lon="8.3617573"><ele>377.0</ele><time>2026-04-26T10:21:57.476Z</time></trkpt><trkpt lat="44.3426912" lon="8.3618437"><ele>377.0</ele><time>2026-04-26T10:21:59.475Z</time></trkpt><trkpt lat="44.3425898" lon="8.3618732"><ele>377.0</ele><time>2026-04-26T10:22:01.474Z</time></trkpt><trkpt lat="44.3425105" lon="8.3619077"><ele>377.0</ele><time>2026-04-26T10:22:03.474Z</time></trkpt><trkpt lat="44.3424937" lon="8.3620047"><ele>377.0</ele><time>2026-04-26T10:22:05.479Z</time></trkpt><trkpt lat="44.3425645" lon="8.3620683"><ele>377.0</ele><time>2026-04-26T10:22:07.477Z</time></trkpt><trkpt lat="44.3426887" lon="8.3620307"><ele>376.99999999999994</ele><time>2026-04-26T10:22:09.475Z</time></trkpt><trkpt lat="44.342757" lon="8.361995"><ele>377.0</ele><time>2026-04-26T10:22:10.478Z</time></trkpt><trkpt lat="44.3428225" lon="8.3619562"><ele>377.0</ele><time>2026-04-26T10:22:11.474Z</time></trkpt><trkpt lat="44.3428828" lon="8.361922"><ele>377.0</ele><time>2026-04-26T10:22:12.478Z</time></trkpt><trkpt lat="44.3429495" lon="8.361888"><ele>377.0</ele><time>2026-04-26T10:22:13.476Z</time></trkpt><trkpt lat="44.3430203" lon="8.361883"><ele>376.99999999999994</ele><time>2026-04-26T10:22:14.475Z</time></trkpt><trkpt lat="44.3430972" lon="8.3618883"><ele>377.0</ele><time>2026-04-26T10:22:15.475Z</time></trkpt><trkpt lat="44.3431808" lon="8.3618968"><ele>378.83333333333337</ele><time>2026-04-26T10:22:16.475Z</time></trkpt><trkpt lat="44.3432672" lon="8.3619072"><ele>380.6666666666667</ele><time>2026-04-26T10:22:17.474Z</time></trkpt><trkpt lat="44.343344" lon="8.3619255"><ele>382.5</ele><time>2026-04-26T10:22:18.476Z</time></trkpt><trkpt lat="44.3434083" lon="8.3619482"><ele>384.33333333333337</ele><time>2026-04-26T10:22:19.474Z</time></trkpt><trkpt lat="44.3435257" lon="8.3620395"><ele>386.1666666666667</ele><time>2026-04-26T10:22:21.475Z</time></trkpt><trkpt lat="44.3435877" lon="8.3620865"><ele>388.0</ele><time>2026-04-26T10:22:22.475Z</time></trkpt><trkpt lat="44.3436352" lon="8.362147"><ele>385.50000000000006</ele><time>2026-04-26T10:22:23.473Z</time></trkpt><trkpt lat="44.3436695" lon="8.362226"><ele>383.0</ele><time>2026-04-26T10:22:24.471Z</time></trkpt><trkpt lat="44.3437043" lon="8.3623187"><ele>380.5</ele><time>2026-04-26T10:22:25.473Z</time></trkpt><trkpt lat="44.34373" lon="8.3624375"><ele>378.0</ele><time>2026-04-26T10:22:26.474Z</time></trkpt><trkpt lat="44.3437487" lon="8.3625718"><ele>375.5</ele><time>2026-04-26T10:22:27.474Z</time></trkpt><trkpt lat="44.3437753" lon="8.3626928"><ele>373.0</ele><time>2026-04-26T10:22:28.475Z</time></trkpt><trkpt lat="44.343809" lon="8.3627855"><ele>373.0</ele><time>2026-04-26T10:22:29.476Z</time></trkpt><trkpt lat="44.3438582" lon="8.3629002"><ele>373.0</ele><time>2026-04-26T10:22:31.474Z</time></trkpt><trkpt lat="44.3439095" lon="8.3629702"><ele>373.0</ele><time>2026-04-26T10:22:37.475Z</time></trkpt><trkpt lat="44.3439843" lon="8.3630828"><ele>373.0</ele><time>2026-04-26T10:22:39.476Z</time></trkpt><trkpt lat="44.3440242" lon="8.363163"><ele>373.0</ele><time>2026-04-26T10:22:40.474Z</time></trkpt><trkpt lat="44.3440712" lon="8.3632478"><ele>373.0</ele><time>2026-04-26T10:22:41.475Z</time></trkpt><trkpt lat="44.3441305" lon="8.3633312"><ele>373.0</ele><time>2026-04-26T10:22:42.475Z</time></trkpt><trkpt lat="44.3441852" lon="8.3634018"><ele>373.0</ele><time>2026-04-26T10:22:43.474Z</time></trkpt><trkpt lat="44.3442658" lon="8.363504"><ele>373.0</ele><time>2026-04-26T10:22:45.474Z</time></trkpt><trkpt lat="44.344336" lon="8.3635828"><ele>373.0</ele><time>2026-04-26T10:22:47.473Z</time></trkpt><trkpt lat="44.344405" lon="8.3636688"><ele>373.0</ele><time>2026-04-26T10:22:49.472Z</time></trkpt><trkpt lat="44.3445063" lon="8.3637382"><ele>373.0</ele><time>2026-04-26T10:22:51.472Z</time></trkpt><trkpt lat="44.3445993" lon="8.3637377"><ele>373.0</ele><time>2026-04-26T10:22:53.474Z</time></trkpt><trkpt lat="44.3446922" lon="8.3637433"><ele>373.0</ele><time>2026-04-26T10:22:55.476Z</time></trkpt><trkpt lat="44.3447697" lon="8.3638007"><ele>373.0</ele><time>2026-04-26T10:22:57.476Z</time></trkpt><trkpt lat="44.3448285" lon="8.3639147"><ele>373.0</ele><time>2026-04-26T10:22:59.478Z</time></trkpt><trkpt lat="44.3448492" lon="8.3640585"><ele>372.4</ele><time>2026-04-26T10:23:01.477Z</time></trkpt><trkpt lat="44.3448343" lon="8.3642117"><ele>371.79999999999995</ele><time>2026-04-26T10:23:03.475Z</time></trkpt><trkpt lat="44.3448043" lon="8.364378"><ele>371.2</ele><time>2026-04-26T10:23:05.476Z</time></trkpt><trkpt lat="44.3448003" lon="8.3644687"><ele>370.6</ele><time>2026-04-26T10:23:06.475Z</time></trkpt><trkpt lat="44.344803" lon="8.3646372"><ele>370.0</ele><time>2026-04-26T10:23:08.475Z</time></trkpt><trkpt lat="44.3448173" lon="8.3647972"><ele>369.16666666666663</ele><time>2026-04-26T10:23:10.475Z</time></trkpt><trkpt lat="44.3448515" lon="8.3649197"><ele>368.3333333333333</ele><time>2026-04-26T10:23:12.472Z</time></trkpt><trkpt lat="44.3448955" lon="8.3650147"><ele>367.5</ele><time>2026-04-26T10:23:15.474Z</time></trkpt><trkpt lat="44.3449335" lon="8.3651355"><ele>366.6666666666667</ele><time>2026-04-26T10:23:18.475Z</time></trkpt><trkpt lat="44.3449092" lon="8.3652235"><ele>365.83333333333337</ele><time>2026-04-26T10:23:20.476Z</time></trkpt><trkpt lat="44.3448323" lon="8.3653053"><ele>365.0</ele><time>2026-04-26T10:23:23.478Z</time></trkpt><trkpt lat="44.3447505" lon="8.3653273"><ele>365.83333333333337</ele><time>2026-04-26T10:23:25.477Z</time></trkpt><trkpt lat="44.3446657" lon="8.3653212"><ele>366.6666666666667</ele><time>2026-04-26T10:23:27.477Z</time></trkpt><trkpt lat="44.3445915" lon="8.365318"><ele>367.5</ele><time>2026-04-26T10:23:29.474Z</time></trkpt><trkpt lat="44.344547" lon="8.3653948"><ele>368.3333333333333</ele><time>2026-04-26T10:23:32.477Z</time></trkpt><trkpt lat="44.344603" lon="8.3654947"><ele>369.16666666666663</ele><time>2026-04-26T10:23:35.476Z</time></trkpt><trkpt lat="44.3447007" lon="8.3655288"><ele>370.0</ele><time>2026-04-26T10:23:37.475Z</time></trkpt><trkpt lat="44.3447687" lon="8.3655313"><ele>369.16666666666663</ele><time>2026-04-26T10:23:38.474Z</time></trkpt><trkpt lat="44.3448352" lon="8.3655268"><ele>368.3333333333333</ele><time>2026-04-26T10:23:39.473Z</time></trkpt><trkpt lat="44.3449007" lon="8.3655197"><ele>367.5</ele><time>2026-04-26T10:23:40.474Z</time></trkpt><trkpt lat="44.3450132" lon="8.365524"><ele>366.6666666666667</ele><time>2026-04-26T10:23:42.474Z</time></trkpt><trkpt lat="44.3450933" lon="8.3655383"><ele>365.83333333333337</ele><time>2026-04-26T10:23:44.473Z</time></trkpt><trkpt lat="44.3451625" lon="8.3655408"><ele>365.0</ele><time>2026-04-26T10:23:46.473Z</time></trkpt><trkpt lat="44.345243" lon="8.3655453"><ele>362.8571428571429</ele><time>2026-04-26T10:23:49.474Z</time></trkpt><trkpt lat="44.3453037" lon="8.3656108"><ele>360.7142857142857</ele><time>2026-04-26T10:24:53.475Z</time></trkpt><trkpt lat="44.3453068" lon="8.3657017"><ele>358.57142857142856</ele><time>2026-04-26T10:24:57.476Z</time></trkpt><trkpt lat="44.3452842" lon="8.3657858"><ele>356.42857142857144</ele><time>2026-04-26T10:26:23.478Z</time></trkpt><trkpt lat="44.345247" lon="8.3658673"><ele>354.2857142857143</ele><time>2026-04-26T10:26:50.475Z</time></trkpt><trkpt lat="44.3452102" lon="8.3659392"><ele>352.14285714285717</ele><time>2026-04-26T10:26:55.472Z</time></trkpt><trkpt lat="44.3451735" lon="8.366013"><ele>350.0</ele><time>2026-04-26T10:27:16.473Z</time></trkpt><trkpt lat="44.3451408" lon="8.366093"><ele>350.0</ele><time>2026-04-26T10:27:23.473Z</time></trkpt><trkpt lat="44.3451152" lon="8.3661823"><ele>350.0</ele><time>2026-04-26T10:27:28.472Z</time></trkpt><trkpt lat="44.3450757" lon="8.36628"><ele>350.0</ele><time>2026-04-26T10:27:32.471Z</time></trkpt><trkpt lat="44.345043" lon="8.366356"><ele>350.0</ele><time>2026-04-26T10:29:29.474Z</time></trkpt><trkpt lat="44.3450123" lon="8.3664342"><ele>350.0</ele><time>2026-04-26T10:29:44.472Z</time></trkpt><trkpt lat="44.3449478" lon="8.3664972"><ele>350.0</ele><time>2026-04-26T10:30:23.473Z</time></trkpt><trkpt lat="44.3448785" lon="8.3665528"><ele>350.0</ele><time>2026-04-26T10:30:25.474Z</time></trkpt><trkpt lat="44.3448125" lon="8.3666078"><ele>349.33333333333337</ele><time>2026-04-26T10:30:27.472Z</time></trkpt><trkpt lat="44.3447602" lon="8.3666715"><ele>348.6666666666667</ele><time>2026-04-26T10:30:30.473Z</time></trkpt><trkpt lat="44.344701" lon="8.3667713"><ele>348.0</ele><time>2026-04-26T10:30:34.472Z</time></trkpt><trkpt lat="44.3446467" lon="8.3668552"><ele>347.3333333333333</ele><time>2026-04-26T10:30:36.473Z</time></trkpt><trkpt lat="44.344587" lon="8.3669402"><ele>346.66666666666663</ele><time>2026-04-26T10:30:38.475Z</time></trkpt><trkpt lat="44.344523" lon="8.3670198"><ele>346.0</ele><time>2026-04-26T10:30:40.474Z</time></trkpt><trkpt lat="44.3444323" lon="8.3670665"><ele>344.4285714285714</ele><time>2026-04-26T10:30:42.474Z</time></trkpt><trkpt lat="44.3443623" lon="8.3670785"><ele>342.8571428571429</ele><time>2026-04-26T10:30:44.473Z</time></trkpt><trkpt lat="44.3442793" lon="8.3670992"><ele>341.2857142857143</ele><time>2026-04-26T10:30:51.475Z</time></trkpt><trkpt lat="44.344222" lon="8.3671502"><ele>339.71428571428567</ele><time>2026-04-26T10:30:54.474Z</time></trkpt><trkpt lat="44.3441778" lon="8.3672388"><ele>338.1428571428571</ele><time>2026-04-26T10:30:57.473Z</time></trkpt><trkpt lat="44.3441412" lon="8.3673218"><ele>336.57142857142856</ele><time>2026-04-26T10:30:59.473Z</time></trkpt><trkpt lat="44.3441093" lon="8.3674132"><ele>335.0</ele><time>2026-04-26T10:31:01.474Z</time></trkpt><trkpt lat="44.3440655" lon="8.3675103"><ele>334.99999999999994</ele><time>2026-04-26T10:31:04.475Z</time></trkpt><trkpt lat="44.3440297" lon="8.3675935"><ele>335.0</ele><time>2026-04-26T10:31:12.476Z</time></trkpt><trkpt lat="44.3439932" lon="8.3676772"><ele>335.0</ele><time>2026-04-26T10:31:15.474Z</time></trkpt><trkpt lat="44.3439592" lon="8.3677573"><ele>335.0</ele><time>2026-04-26T10:31:18.475Z</time></trkpt><trkpt lat="44.3439307" lon="8.367851"><ele>335.0</ele><time>2026-04-26T10:31:22.473Z</time></trkpt><trkpt lat="44.3438847" lon="8.3679518"><ele>334.99999999999994</ele><time>2026-04-26T10:31:28.474Z</time></trkpt><trkpt lat="44.3438343" lon="8.368042"><ele>335.0</ele><time>2026-04-26T10:31:32.477Z</time></trkpt><trkpt lat="44.3438037" lon="8.3681345"><ele>332.6666666666667</ele><time>2026-04-26T10:31:35.476Z</time></trkpt><trkpt lat="44.3437683" lon="8.368242"><ele>330.33333333333337</ele><time>2026-04-26T10:31:37.477Z</time></trkpt><trkpt lat="44.3437402" lon="8.3683447"><ele>328.0</ele><time>2026-04-26T10:31:40.476Z</time></trkpt><trkpt lat="44.343693" lon="8.3684428"><ele>325.6666666666667</ele><time>2026-04-26T10:31:43.476Z</time></trkpt><trkpt lat="44.3436468" lon="8.3685288"><ele>323.3333333333333</ele><time>2026-04-26T10:31:45.475Z</time></trkpt><trkpt lat="44.3436083" lon="8.3686022"><ele>321.0</ele><time>2026-04-26T10:31:47.474Z</time></trkpt><trkpt lat="44.343553" lon="8.3686763"><ele>321.0</ele><time>2026-04-26T10:31:53.476Z</time></trkpt><trkpt lat="44.343487" lon="8.3688033"><ele>321.0</ele><time>2026-04-26T10:31:56.475Z</time></trkpt><trkpt lat="44.3434292" lon="8.368913"><ele>321.0</ele><time>2026-04-26T10:31:58.475Z</time></trkpt><trkpt lat="44.3433812" lon="8.3689962"><ele>321.0</ele><time>2026-04-26T10:32:01.475Z</time></trkpt><trkpt lat="44.3433377" lon="8.3690745"><ele>321.0</ele><time>2026-04-26T10:32:06.475Z</time></trkpt><trkpt lat="44.3433092" lon="8.3691922"><ele>321.0</ele><time>2026-04-26T10:32:09.476Z</time></trkpt><trkpt lat="44.3432988" lon="8.3693027"><ele>320.71428571428567</ele><time>2026-04-26T10:32:11.475Z</time></trkpt><trkpt lat="44.3433005" lon="8.3694097"><ele>320.42857142857144</ele><time>2026-04-26T10:32:13.475Z</time></trkpt><trkpt lat="44.3433158" lon="8.3695132"><ele>320.1428571428571</ele><time>2026-04-26T10:32:16.477Z</time></trkpt><trkpt lat="44.343333" lon="8.3696165"><ele>319.85714285714283</ele><time>2026-04-26T10:32:22.476Z</time></trkpt><trkpt lat="44.3433593" lon="8.3697082"><ele>319.57142857142856</ele><time>2026-04-26T10:32:29.477Z</time></trkpt><trkpt lat="44.3433853" lon="8.3697905"><ele>319.2857142857143</ele><time>2026-04-26T10:32:37.474Z</time></trkpt><trkpt lat="44.3434473" lon="8.3698615"><ele>319.0</ele><time>2026-04-26T10:32:41.474Z</time></trkpt><trkpt lat="44.3435138" lon="8.3699093"><ele>319.0</ele><time>2026-04-26T10:32:43.475Z</time></trkpt><trkpt lat="44.3435727" lon="8.369945"><ele>319.0</ele><time>2026-04-26T10:32:45.476Z</time></trkpt><trkpt lat="44.3436515" lon="8.37"><ele>319.0</ele><time>2026-04-26T10:32:48.475Z</time></trkpt><trkpt lat="44.3437097" lon="8.3700825"><ele>319.0</ele><time>2026-04-26T10:32:51.475Z</time></trkpt><trkpt lat="44.3437793" lon="8.3701177"><ele>319.0</ele><time>2026-04-26T10:32:53.475Z</time></trkpt><trkpt lat="44.3438828" lon="8.3701352"><ele>319.0</ele><time>2026-04-26T10:32:55.474Z</time></trkpt><trkpt lat="44.3439713" lon="8.3701398"><ele>319.0</ele><time>2026-04-26T10:32:57.475Z</time></trkpt><trkpt lat="44.3440553" lon="8.3701543"><ele>319.0</ele><time>2026-04-26T10:32:59.474Z</time></trkpt><trkpt lat="44.3441288" lon="8.3701853"><ele>319.0</ele><time>2026-04-26T10:33:01.472Z</time></trkpt><trkpt lat="44.3441687" lon="8.3702638"><ele>319.0</ele><time>2026-04-26T10:33:03.472Z</time></trkpt><trkpt lat="44.34418" lon="8.3703673"><ele>319.0</ele><time>2026-04-26T10:33:05.474Z</time></trkpt><trkpt lat="44.3441425" lon="8.3704803"><ele>319.0</ele><time>2026-04-26T10:33:07.475Z</time></trkpt><trkpt lat="44.3440857" lon="8.3705528"><ele>319.0</ele><time>2026-04-26T10:33:09.475Z</time></trkpt><trkpt lat="44.3439855" lon="8.3705983"><ele>319.0</ele><time>2026-04-26T10:33:12.476Z</time></trkpt><trkpt lat="44.3438997" lon="8.3706215"><ele>319.0</ele><time>2026-04-26T10:33:14.475Z</time></trkpt><trkpt lat="44.343819" lon="8.3706133"><ele>319.0</ele><time>2026-04-26T10:33:16.474Z</time></trkpt><trkpt lat="44.3437378" lon="8.3705898"><ele>319.0</ele><time>2026-04-26T10:33:18.475Z</time></trkpt><trkpt lat="44.343684" lon="8.3705167"><ele>319.0</ele><time>2026-04-26T10:33:22.475Z</time></trkpt><trkpt lat="44.3436315" lon="8.3704368"><ele>319.0</ele><time>2026-04-26T10:33:26.473Z</time></trkpt><trkpt lat="44.343568" lon="8.3704042"><ele>319.0</ele><time>2026-04-26T10:33:28.475Z</time></trkpt><trkpt lat="44.343496" lon="8.3704168"><ele>319.0</ele><time>2026-04-26T10:33:30.475Z</time></trkpt><trkpt lat="44.343411" lon="8.3704782"><ele>319.0</ele><time>2026-04-26T10:33:32.476Z</time></trkpt><trkpt lat="44.3433438" lon="8.3705377"><ele>319.0</ele><time>2026-04-26T10:33:34.476Z</time></trkpt><trkpt lat="44.3432618" lon="8.37061"><ele>319.0</ele><time>2026-04-26T10:33:36.476Z</time></trkpt><trkpt lat="44.343166" lon="8.3706678"><ele>317.0</ele><time>2026-04-26T10:33:38.477Z</time></trkpt><trkpt lat="44.3430632" lon="8.3707038"><ele>315.0</ele><time>2026-04-26T10:33:40.48Z</time></trkpt><trkpt lat="44.3429652" lon="8.370718"><ele>313.0</ele><time>2026-04-26T10:33:42.476Z</time></trkpt><trkpt lat="44.3428582" lon="8.3707177"><ele>311.0</ele><time>2026-04-26T10:33:44.478Z</time></trkpt><trkpt lat="44.3427333" lon="8.370715"><ele>309.0</ele><time>2026-04-26T10:33:46.477Z</time></trkpt><trkpt lat="44.3426573" lon="8.370708"><ele>307.0</ele><time>2026-04-26T10:33:47.48Z</time></trkpt><trkpt lat="44.3425725" lon="8.370695"><ele>305.0</ele><time>2026-04-26T10:33:48.476Z</time></trkpt><trkpt lat="44.3424908" lon="8.3706817"><ele>303.0</ele><time>2026-04-26T10:33:49.474Z</time></trkpt><trkpt lat="44.3424208" lon="8.3706608"><ele>301.0</ele><time>2026-04-26T10:33:50.474Z</time></trkpt><trkpt lat="44.3423552" lon="8.3706427"><ele>299.0</ele><time>2026-04-26T10:33:51.474Z</time></trkpt><trkpt lat="44.3422915" lon="8.370634"><ele>297.0</ele><time>2026-04-26T10:33:52.475Z</time></trkpt><trkpt lat="44.342188" lon="8.3706503"><ele>295.3333333333333</ele><time>2026-04-26T10:33:54.477Z</time></trkpt><trkpt lat="44.3420998" lon="8.370727"><ele>293.6666666666667</ele><time>2026-04-26T10:33:56.477Z</time></trkpt><trkpt lat="44.342053" lon="8.3707888"><ele>292.0</ele><time>2026-04-26T10:33:57.475Z</time></trkpt><trkpt lat="44.342009" lon="8.3708675"><ele>290.33333333333337</ele><time>2026-04-26T10:33:58.477Z</time></trkpt><trkpt lat="44.3419673" lon="8.3709445"><ele>288.6666666666667</ele><time>2026-04-26T10:33:59.477Z</time></trkpt><trkpt lat="44.3419272" lon="8.3710168"><ele>287.0</ele><time>2026-04-26T10:34:00.477Z</time></trkpt><trkpt lat="44.3418468" lon="8.3711423"><ele>287.0</ele><time>2026-04-26T10:34:02.479Z</time></trkpt><trkpt lat="44.3417902" lon="8.3711923"><ele>287.0</ele><time>2026-04-26T10:34:03.478Z</time></trkpt><trkpt lat="44.3417245" lon="8.3712212"><ele>287.0</ele><time>2026-04-26T10:34:04.479Z</time></trkpt><trkpt lat="44.3416253" lon="8.3712683"><ele>287.0</ele><time>2026-04-26T10:34:06.478Z</time></trkpt><trkpt lat="44.3415607" lon="8.3713208"><ele>287.0</ele><time>2026-04-26T10:34:08.476Z</time></trkpt><trkpt lat="44.3414998" lon="8.3713772"><ele>287.0</ele><time>2026-04-26T10:35:28.476Z</time></trkpt><trkpt lat="44.341431" lon="8.3714902"><ele>287.0</ele><time>2026-04-26T10:35:31.479Z</time></trkpt><trkpt lat="44.3413958" lon="8.371607"><ele>287.0</ele><time>2026-04-26T10:35:33.477Z</time></trkpt><trkpt lat="44.3413438" lon="8.3717065"><ele>287.0</ele><time>2026-04-26T10:35:35.481Z</time></trkpt><trkpt lat="44.3412797" lon="8.371773"><ele>287.0</ele><time>2026-04-26T10:35:37.479Z</time></trkpt><trkpt lat="44.3411982" lon="8.3717923"><ele>287.0</ele><time>2026-04-26T10:35:39.479Z</time></trkpt><trkpt lat="44.341115" lon="8.3717785"><ele>287.0</ele><time>2026-04-26T10:35:41.479Z</time></trkpt><trkpt lat="44.3410583" lon="8.3717047"><ele>286.1666666666667</ele><time>2026-04-26T10:35:43.479Z</time></trkpt><trkpt lat="44.3410308" lon="8.3715825"><ele>285.33333333333337</ele><time>2026-04-26T10:35:45.479Z</time></trkpt><trkpt lat="44.3409757" lon="8.3715182"><ele>284.5</ele><time>2026-04-26T10:35:48.478Z</time></trkpt><trkpt lat="44.34089" lon="8.3715253"><ele>283.6666666666667</ele><time>2026-04-26T10:35:50.479Z</time></trkpt><trkpt lat="44.3408152" lon="8.371543"><ele>282.8333333333333</ele><time>2026-04-26T10:35:52.478Z</time></trkpt><trkpt lat="44.3407508" lon="8.371516"><ele>282.0</ele><time>2026-04-26T10:35:55.476Z</time></trkpt><trkpt lat="44.3406612" lon="8.371437"><ele>282.3333333333333</ele><time>2026-04-26T10:35:58.479Z</time></trkpt><trkpt lat="44.3405718" lon="8.3713492"><ele>282.6666666666667</ele><time>2026-04-26T10:36:00.477Z</time></trkpt><trkpt lat="44.3405262" lon="8.3712807"><ele>283.0</ele><time>2026-04-26T10:36:01.477Z</time></trkpt><trkpt lat="44.3404797" lon="8.3712037"><ele>283.33333333333337</ele><time>2026-04-26T10:36:02.48Z</time></trkpt><trkpt lat="44.3404345" lon="8.3711247"><ele>283.6666666666667</ele><time>2026-04-26T10:36:03.477Z</time></trkpt><trkpt lat="44.340354" lon="8.371011"><ele>284.0</ele><time>2026-04-26T10:36:05.477Z</time></trkpt><trkpt lat="44.3402982" lon="8.3709245"><ele>284.4</ele><time>2026-04-26T10:36:07.478Z</time></trkpt><trkpt lat="44.3402548" lon="8.3708315"><ele>284.79999999999995</ele><time>2026-04-26T10:36:09.478Z</time></trkpt><trkpt lat="44.3402045" lon="8.3707175"><ele>285.20000000000005</ele><time>2026-04-26T10:36:11.478Z</time></trkpt><trkpt lat="44.3401492" lon="8.370586"><ele>285.6</ele><time>2026-04-26T10:36:13.477Z</time></trkpt><trkpt lat="44.3400897" lon="8.3704412"><ele>286.0</ele><time>2026-04-26T10:36:15.477Z</time></trkpt><trkpt lat="44.3400292" lon="8.3703035"><ele>286.0</ele><time>2026-04-26T10:36:17.476Z</time></trkpt><trkpt lat="44.339995" lon="8.3702282"><ele>286.0</ele><time>2026-04-26T10:36:18.478Z</time></trkpt><trkpt lat="44.339959" lon="8.37015"><ele>286.0</ele><time>2026-04-26T10:36:19.476Z</time></trkpt><trkpt lat="44.3399183" lon="8.3700762"><ele>286.0</ele><time>2026-04-26T10:36:20.478Z</time></trkpt><trkpt lat="44.339825" lon="8.3699678"><ele>286.0</ele><time>2026-04-26T10:36:22.478Z</time></trkpt><trkpt lat="44.3396987" lon="8.3699623"><ele>286.0</ele><time>2026-04-26T10:36:24.475Z</time></trkpt><trkpt lat="44.3396263" lon="8.3699895"><ele>288.0</ele><time>2026-04-26T10:36:25.478Z</time></trkpt><trkpt lat="44.3395513" lon="8.370021"><ele>290.0</ele><time>2026-04-26T10:36:26.478Z</time></trkpt><trkpt lat="44.3394808" lon="8.3700425"><ele>292.0</ele><time>2026-04-26T10:36:27.477Z</time></trkpt><trkpt lat="44.3394175" lon="8.3700512"><ele>294.0</ele><time>2026-04-26T10:36:28.477Z</time></trkpt><trkpt lat="44.3392973" lon="8.3699997"><ele>296.0</ele><time>2026-04-26T10:36:30.475Z</time></trkpt><trkpt lat="44.3392277" lon="8.3699642"><ele>298.0</ele><time>2026-04-26T10:36:31.475Z</time></trkpt><trkpt lat="44.3391537" lon="8.3699458"><ele>298.0</ele><time>2026-04-26T10:36:32.475Z</time></trkpt><trkpt lat="44.3390455" lon="8.3699197"><ele>298.0</ele><time>2026-04-26T10:36:34.476Z</time></trkpt><trkpt lat="44.33901" lon="8.3698262"><ele>298.0</ele><time>2026-04-26T10:36:36.476Z</time></trkpt><trkpt lat="44.3390545" lon="8.3697333"><ele>298.0</ele><time>2026-04-26T10:36:38.475Z</time></trkpt><trkpt lat="44.3391607" lon="8.3696462"><ele>298.0</ele><time>2026-04-26T10:36:40.474Z</time></trkpt><trkpt lat="44.3392037" lon="8.3695798"><ele>298.0</ele><time>2026-04-26T10:36:41.473Z</time></trkpt><trkpt lat="44.3392372" lon="8.36946"><ele>298.0</ele><time>2026-04-26T10:36:43.474Z</time></trkpt><trkpt lat="44.3392133" lon="8.3693565"><ele>298.0</ele><time>2026-04-26T10:37:00.476Z</time></trkpt><trkpt lat="44.3391757" lon="8.3692428"><ele>298.0</ele><time>2026-04-26T10:37:02.476Z</time></trkpt><trkpt lat="44.3391453" lon="8.3691462"><ele>298.0</ele><time>2026-04-26T10:37:03.476Z</time></trkpt><trkpt lat="44.339105" lon="8.3690307"><ele>298.0</ele><time>2026-04-26T10:37:04.476Z</time></trkpt><trkpt lat="44.3390685" lon="8.3689078"><ele>298.2</ele><time>2026-04-26T10:37:05.475Z</time></trkpt><trkpt lat="44.3390337" lon="8.3687938"><ele>298.4</ele><time>2026-04-26T10:37:06.474Z</time></trkpt><trkpt lat="44.3389945" lon="8.3687042"><ele>298.59999999999997</ele><time>2026-04-26T10:37:07.475Z</time></trkpt><trkpt lat="44.3388957" lon="8.3686247"><ele>298.8</ele><time>2026-04-26T10:37:09.475Z</time></trkpt><trkpt lat="44.3388105" lon="8.3686998"><ele>299.0</ele><time>2026-04-26T10:37:11.475Z</time></trkpt><trkpt lat="44.3387827" lon="8.3688633"><ele>302.33333333333337</ele><time>2026-04-26T10:37:13.475Z</time></trkpt><trkpt lat="44.3387752" lon="8.368964"><ele>305.6666666666667</ele><time>2026-04-26T10:37:14.476Z</time></trkpt><trkpt lat="44.3387522" lon="8.3690667"><ele>309.0</ele><time>2026-04-26T10:37:15.476Z</time></trkpt><trkpt lat="44.3387112" lon="8.3691737"><ele>312.3333333333333</ele><time>2026-04-26T10:37:16.476Z</time></trkpt><trkpt lat="44.338667" lon="8.3692898"><ele>315.66666666666663</ele><time>2026-04-26T10:37:17.475Z</time></trkpt><trkpt lat="44.3386147" lon="8.3694155"><ele>319.0</ele><time>2026-04-26T10:37:18.476Z</time></trkpt><trkpt lat="44.3385528" lon="8.3695385"><ele>319.0</ele><time>2026-04-26T10:37:19.476Z</time></trkpt><trkpt lat="44.3384912" lon="8.3696587"><ele>319.0</ele><time>2026-04-26T10:37:20.475Z</time></trkpt><trkpt lat="44.338445" lon="8.3697723"><ele>319.0</ele><time>2026-04-26T10:37:21.475Z</time></trkpt><trkpt lat="44.3384072" lon="8.3698895"><ele>319.0</ele><time>2026-04-26T10:37:22.475Z</time></trkpt><trkpt lat="44.3383717" lon="8.3699955"><ele>319.0</ele><time>2026-04-26T10:37:23.475Z</time></trkpt><trkpt lat="44.3383325" lon="8.37007"><ele>319.0</ele><time>2026-04-26T10:37:24.475Z</time></trkpt><trkpt lat="44.338237" lon="8.3701293"><ele>319.0</ele><time>2026-04-26T10:37:26.476Z</time></trkpt><trkpt lat="44.3381778" lon="8.3700468"><ele>319.0</ele><time>2026-04-26T10:37:28.475Z</time></trkpt><trkpt lat="44.3381995" lon="8.3698942"><ele>319.0</ele><time>2026-04-26T10:37:30.475Z</time></trkpt><trkpt lat="44.338235" lon="8.3698163"><ele>319.0</ele><time>2026-04-26T10:37:31.477Z</time></trkpt><trkpt lat="44.3382702" lon="8.3697205"><ele>319.0</ele><time>2026-04-26T10:37:32.473Z</time></trkpt><trkpt lat="44.3382977" lon="8.3696057"><ele>319.0</ele><time>2026-04-26T10:37:33.473Z</time></trkpt><trkpt lat="44.3383115" lon="8.3694927"><ele>319.0</ele><time>2026-04-26T10:37:34.474Z</time></trkpt><trkpt lat="44.3383083" lon="8.3693753"><ele>319.0</ele><time>2026-04-26T10:37:35.474Z</time></trkpt><trkpt lat="44.338292" lon="8.3692502"><ele>319.0</ele><time>2026-04-26T10:37:36.474Z</time></trkpt><trkpt lat="44.3382762" lon="8.3691117"><ele>319.0</ele><time>2026-04-26T10:37:37.476Z</time></trkpt><trkpt lat="44.3382623" lon="8.3689607"><ele>319.0</ele><time>2026-04-26T10:37:38.476Z</time></trkpt><trkpt lat="44.3382525" lon="8.3688195"><ele>318.4</ele><time>2026-04-26T10:37:39.475Z</time></trkpt><trkpt lat="44.3382435" lon="8.3687108"><ele>317.79999999999995</ele><time>2026-04-26T10:37:40.478Z</time></trkpt><trkpt lat="44.3381915" lon="8.3685858"><ele>317.20000000000005</ele><time>2026-04-26T10:37:42.476Z</time></trkpt><trkpt lat="44.338124" lon="8.3685577"><ele>316.6</ele><time>2026-04-26T10:38:29.476Z</time></trkpt><trkpt lat="44.3380792" lon="8.3686538"><ele>316.0</ele><time>2026-04-26T10:38:32.476Z</time></trkpt><trkpt lat="44.3380955" lon="8.3688198"><ele>316.5</ele><time>2026-04-26T10:38:34.477Z</time></trkpt><trkpt lat="44.3381077" lon="8.3689167"><ele>317.0</ele><time>2026-04-26T10:38:35.479Z</time></trkpt><trkpt lat="44.3381112" lon="8.369017"><ele>317.5</ele><time>2026-04-26T10:38:36.476Z</time></trkpt><trkpt lat="44.3381088" lon="8.369118"><ele>318.0</ele><time>2026-04-26T10:38:37.479Z</time></trkpt><trkpt lat="44.338102" lon="8.3692287"><ele>318.5</ele><time>2026-04-26T10:38:38.476Z</time></trkpt><trkpt lat="44.3380872" lon="8.369344"><ele>319.0</ele><time>2026-04-26T10:38:39.476Z</time></trkpt><trkpt lat="44.3380652" lon="8.3694612"><ele>322.8333333333333</ele><time>2026-04-26T10:38:40.478Z</time></trkpt><trkpt lat="44.3380407" lon="8.369574"><ele>326.66666666666663</ele><time>2026-04-26T10:38:41.477Z</time></trkpt><trkpt lat="44.3380153" lon="8.3696707"><ele>330.5</ele><time>2026-04-26T10:38:42.475Z</time></trkpt><trkpt lat="44.3379847" lon="8.3697555"><ele>334.3333333333333</ele><time>2026-04-26T10:38:43.476Z</time></trkpt><trkpt lat="44.3379392" lon="8.3698357"><ele>338.1666666666667</ele><time>2026-04-26T10:38:44.475Z</time></trkpt><trkpt lat="44.3378817" lon="8.3699168"><ele>342.0</ele><time>2026-04-26T10:38:45.474Z</time></trkpt><trkpt lat="44.3378187" lon="8.3699952"><ele>342.0</ele><time>2026-04-26T10:38:46.475Z</time></trkpt><trkpt lat="44.3377497" lon="8.3700707"><ele>342.0</ele><time>2026-04-26T10:38:47.477Z</time></trkpt><trkpt lat="44.3376795" lon="8.3701347"><ele>342.0</ele><time>2026-04-26T10:38:48.476Z</time></trkpt><trkpt lat="44.3376055" lon="8.3701853"><ele>342.0</ele><time>2026-04-26T10:38:49.475Z</time></trkpt><trkpt lat="44.3375278" lon="8.3702213"><ele>342.0</ele><time>2026-04-26T10:38:50.476Z</time></trkpt><trkpt lat="44.3374503" lon="8.370239"><ele>342.0</ele><time>2026-04-26T10:38:51.476Z</time></trkpt><trkpt lat="44.3373672" lon="8.3702387"><ele>342.0</ele><time>2026-04-26T10:38:52.477Z</time></trkpt><trkpt lat="44.3372828" lon="8.370221"><ele>342.0</ele><time>2026-04-26T10:38:53.474Z</time></trkpt><trkpt lat="44.3372083" lon="8.3702125"><ele>342.0</ele><time>2026-04-26T10:38:54.474Z</time></trkpt><trkpt lat="44.3371453" lon="8.3702317"><ele>342.0</ele><time>2026-04-26T10:38:55.473Z</time></trkpt><trkpt lat="44.3370883" lon="8.3702833"><ele>342.0</ele><time>2026-04-26T10:38:56.474Z</time></trkpt><trkpt lat="44.337034" lon="8.370366"><ele>342.0</ele><time>2026-04-26T10:38:57.473Z</time></trkpt><trkpt lat="44.3369773" lon="8.370468"><ele>341.6</ele><time>2026-04-26T10:38:58.474Z</time></trkpt><trkpt lat="44.336915" lon="8.3705718"><ele>341.20000000000005</ele><time>2026-04-26T10:38:59.474Z</time></trkpt><trkpt lat="44.3368462" lon="8.3706803"><ele>340.8</ele><time>2026-04-26T10:39:00.474Z</time></trkpt><trkpt lat="44.3367735" lon="8.3707955"><ele>340.4</ele><time>2026-04-26T10:39:01.475Z</time></trkpt><trkpt lat="44.3366958" lon="8.3709132"><ele>340.0</ele><time>2026-04-26T10:39:02.475Z</time></trkpt><trkpt lat="44.3366133" lon="8.3710295"><ele>340.0</ele><time>2026-04-26T10:39:03.475Z</time></trkpt><trkpt lat="44.3365292" lon="8.3711432"><ele>340.0</ele><time>2026-04-26T10:39:04.475Z</time></trkpt><trkpt lat="44.3364462" lon="8.3712515"><ele>340.0</ele><time>2026-04-26T10:39:05.476Z</time></trkpt><trkpt lat="44.3363723" lon="8.371357"><ele>340.0</ele><time>2026-04-26T10:39:06.475Z</time></trkpt><trkpt lat="44.3363105" lon="8.3714578"><ele>340.0</ele><time>2026-04-26T10:39:07.474Z</time></trkpt><trkpt lat="44.3362577" lon="8.3715617"><ele>340.0</ele><time>2026-04-26T10:39:08.473Z</time></trkpt><trkpt lat="44.3362172" lon="8.3716745"><ele>340.0</ele><time>2026-04-26T10:39:09.473Z</time></trkpt><trkpt lat="44.3361837" lon="8.3717957"><ele>340.0</ele><time>2026-04-26T10:39:10.475Z</time></trkpt><trkpt lat="44.3361548" lon="8.3719183"><ele>340.0</ele><time>2026-04-26T10:39:11.476Z</time></trkpt><trkpt lat="44.3361257" lon="8.37204"><ele>340.0</ele><time>2026-04-26T10:39:12.477Z</time></trkpt><trkpt lat="44.3361" lon="8.3721453"><ele>340.0</ele><time>2026-04-26T10:39:13.476Z</time></trkpt><trkpt lat="44.3360762" lon="8.3722447"><ele>340.0</ele><time>2026-04-26T10:39:14.476Z</time></trkpt><trkpt lat="44.3360582" lon="8.3723382"><ele>340.0</ele><time>2026-04-26T10:39:15.475Z</time></trkpt><trkpt lat="44.3360387" lon="8.3724238"><ele>340.0</ele><time>2026-04-26T10:39:16.476Z</time></trkpt><trkpt lat="44.3360175" lon="8.3725105"><ele>340.0</ele><time>2026-04-26T10:39:17.477Z</time></trkpt><trkpt lat="44.3359815" lon="8.3726268"><ele>340.0</ele><time>2026-04-26T10:39:19.479Z</time></trkpt><trkpt lat="44.3359602" lon="8.372733"><ele>340.0</ele><time>2026-04-26T10:39:38.476Z</time></trkpt><trkpt lat="44.3359468" lon="8.372819"><ele>340.0</ele><time>2026-04-26T10:39:42.479Z</time></trkpt><trkpt lat="44.3358897" lon="8.372937"><ele>341.0</ele><time>2026-04-26T10:40:13.479Z</time></trkpt><trkpt lat="44.335859" lon="8.3731167"><ele>342.0</ele><time>2026-04-26T10:40:15.477Z</time></trkpt><trkpt lat="44.3358507" lon="8.3732423"><ele>343.0</ele><time>2026-04-26T10:40:16.478Z</time></trkpt><trkpt lat="44.3358427" lon="8.373379"><ele>344.0</ele><time>2026-04-26T10:40:17.477Z</time></trkpt><trkpt lat="44.3358335" lon="8.3735215"><ele>345.0</ele><time>2026-04-26T10:40:18.476Z</time></trkpt><trkpt lat="44.3358203" lon="8.3736575"><ele>345.0</ele><time>2026-04-26T10:40:19.481Z</time></trkpt><trkpt lat="44.335793" lon="8.3737947"><ele>345.0</ele><time>2026-04-26T10:40:20.476Z</time></trkpt><trkpt lat="44.3357365" lon="8.3739222"><ele>345.0</ele><time>2026-04-26T10:40:21.474Z</time></trkpt><trkpt lat="44.3356523" lon="8.3740265"><ele>345.0</ele><time>2026-04-26T10:40:22.475Z</time></trkpt><trkpt lat="44.3355513" lon="8.3740885"><ele>345.0</ele><time>2026-04-26T10:40:23.475Z</time></trkpt><trkpt lat="44.3354445" lon="8.3741095"><ele>346.0</ele><time>2026-04-26T10:40:24.473Z</time></trkpt><trkpt lat="44.335343" lon="8.3741047"><ele>347.0</ele><time>2026-04-26T10:40:25.478Z</time></trkpt><trkpt lat="44.3352552" lon="8.374081"><ele>348.0</ele><time>2026-04-26T10:40:26.477Z</time></trkpt><trkpt lat="44.3351897" lon="8.3740402"><ele>349.0</ele><time>2026-04-26T10:40:27.477Z</time></trkpt><trkpt lat="44.3351133" lon="8.3739567"><ele>350.0</ele><time>2026-04-26T10:40:29.476Z</time></trkpt><trkpt lat="44.3350638" lon="8.3738993"><ele>351.0</ele><time>2026-04-26T10:40:50.475Z</time></trkpt><trkpt lat="44.3349968" lon="8.3738442"><ele>349.8571428571429</ele><time>2026-04-26T10:40:52.475Z</time></trkpt><trkpt lat="44.3349383" lon="8.3737928"><ele>348.7142857142857</ele><time>2026-04-26T10:40:53.476Z</time></trkpt><trkpt lat="44.3348718" lon="8.3737367"><ele>347.57142857142856</ele><time>2026-04-26T10:40:54.476Z</time></trkpt><trkpt lat="44.3348122" lon="8.3736877"><ele>346.42857142857144</ele><time>2026-04-26T10:40:55.477Z</time></trkpt><trkpt lat="44.3347472" lon="8.3736572"><ele>345.2857142857143</ele><time>2026-04-26T10:40:56.476Z</time></trkpt><trkpt lat="44.3346722" lon="8.3736382"><ele>344.14285714285717</ele><time>2026-04-26T10:40:57.475Z</time></trkpt><trkpt lat="44.3345872" lon="8.373626"><ele>343.0</ele><time>2026-04-26T10:40:58.476Z</time></trkpt><trkpt lat="44.3345043" lon="8.3736002"><ele>343.0</ele><time>2026-04-26T10:40:59.478Z</time></trkpt><trkpt lat="44.334429" lon="8.3735507"><ele>343.0</ele><time>2026-04-26T10:41:00.475Z</time></trkpt><trkpt lat="44.3343615" lon="8.3734755"><ele>343.0</ele><time>2026-04-26T10:41:01.475Z</time></trkpt><trkpt lat="44.3343017" lon="8.3733745"><ele>343.0</ele><time>2026-04-26T10:41:02.476Z</time></trkpt><trkpt lat="44.3342472" lon="8.3732475"><ele>343.0</ele><time>2026-04-26T10:41:03.476Z</time></trkpt><trkpt lat="44.334199" lon="8.3731085"><ele>341.0</ele><time>2026-04-26T10:41:04.476Z</time></trkpt><trkpt lat="44.3341523" lon="8.372981"><ele>339.0</ele><time>2026-04-26T10:41:05.476Z</time></trkpt><trkpt lat="44.3341027" lon="8.372863"><ele>337.0</ele><time>2026-04-26T10:41:06.476Z</time></trkpt><trkpt lat="44.3340515" lon="8.3727497"><ele>335.0</ele><time>2026-04-26T10:41:07.474Z</time></trkpt><trkpt lat="44.3340007" lon="8.3726435"><ele>333.0</ele><time>2026-04-26T10:41:08.478Z</time></trkpt><trkpt lat="44.333953" lon="8.3725487"><ele>333.0</ele><time>2026-04-26T10:41:09.475Z</time></trkpt><trkpt lat="44.3339063" lon="8.372464"><ele>333.0</ele><time>2026-04-26T10:41:10.475Z</time></trkpt><trkpt lat="44.3338543" lon="8.372383"><ele>333.0</ele><time>2026-04-26T10:41:11.474Z</time></trkpt><trkpt lat="44.3337988" lon="8.3723075"><ele>333.0</ele><time>2026-04-26T10:41:12.473Z</time></trkpt><trkpt lat="44.3337445" lon="8.3722423"><ele>333.0</ele><time>2026-04-26T10:41:13.475Z</time></trkpt><trkpt lat="44.3336975" lon="8.3721743"><ele>333.0</ele><time>2026-04-26T10:41:14.476Z</time></trkpt><trkpt lat="44.3336562" lon="8.3721002"><ele>333.0</ele><time>2026-04-26T10:41:15.476Z</time></trkpt><trkpt lat="44.3336178" lon="8.3719973"><ele>331.4</ele><time>2026-04-26T10:41:16.478Z</time></trkpt><trkpt lat="44.3335898" lon="8.3718612"><ele>329.79999999999995</ele><time>2026-04-26T10:41:17.475Z</time></trkpt><trkpt lat="44.3335687" lon="8.3717182"><ele>328.2</ele><time>2026-04-26T10:41:18.476Z</time></trkpt><trkpt lat="44.3335468" lon="8.3715918"><ele>326.6</ele><time>2026-04-26T10:41:19.476Z</time></trkpt><trkpt lat="44.333523" lon="8.3714822"><ele>325.0</ele><time>2026-04-26T10:41:20.476Z</time></trkpt><trkpt lat="44.333486" lon="8.3713975"><ele>323.0</ele><time>2026-04-26T10:41:21.478Z</time></trkpt><trkpt lat="44.3334295" lon="8.3713487"><ele>321.0</ele><time>2026-04-26T10:41:22.476Z</time></trkpt><trkpt lat="44.3333558" lon="8.3713355"><ele>319.0</ele><time>2026-04-26T10:41:23.476Z</time></trkpt><trkpt lat="44.333269" lon="8.3713418"><ele>317.0</ele><time>2026-04-26T10:41:24.476Z</time></trkpt><trkpt lat="44.3331705" lon="8.3713505"><ele>315.0</ele><time>2026-04-26T10:41:25.477Z</time></trkpt><trkpt lat="44.3330738" lon="8.3713395"><ele>313.0</ele><time>2026-04-26T10:41:26.477Z</time></trkpt><trkpt lat="44.3329705" lon="8.371301"><ele>312.0</ele><time>2026-04-26T10:41:27.477Z</time></trkpt><trkpt lat="44.3328608" lon="8.3712363"><ele>311.0</ele><time>2026-04-26T10:41:28.476Z</time></trkpt><trkpt lat="44.3327497" lon="8.3711388"><ele>310.0</ele><time>2026-04-26T10:41:29.477Z</time></trkpt><trkpt lat="44.3326383" lon="8.3710248"><ele>309.0</ele><time>2026-04-26T10:41:30.476Z</time></trkpt><trkpt lat="44.3325358" lon="8.3709148"><ele>309.0</ele><time>2026-04-26T10:41:31.477Z</time></trkpt><trkpt lat="44.332448" lon="8.3708102"><ele>309.0</ele><time>2026-04-26T10:41:32.477Z</time></trkpt><trkpt lat="44.332378" lon="8.3707153"><ele>309.0</ele><time>2026-04-26T10:41:33.477Z</time></trkpt><trkpt lat="44.3323243" lon="8.3706295"><ele>309.0</ele><time>2026-04-26T10:41:34.477Z</time></trkpt><trkpt lat="44.3322832" lon="8.3705538"><ele>309.0</ele><time>2026-04-26T10:41:35.475Z</time></trkpt><trkpt lat="44.3322547" lon="8.3704023"><ele>309.0</ele><time>2026-04-26T10:41:37.475Z</time></trkpt><trkpt lat="44.3323267" lon="8.3703178"><ele>309.0</ele><time>2026-04-26T10:41:39.477Z</time></trkpt><trkpt lat="44.3324275" lon="8.3704"><ele>309.0</ele><time>2026-04-26T10:41:41.476Z</time></trkpt><trkpt lat="44.3325032" lon="8.3705338"><ele>309.0</ele><time>2026-04-26T10:41:43.477Z</time></trkpt><trkpt lat="44.3325537" lon="8.3705952"><ele>309.0</ele><time>2026-04-26T10:41:44.477Z</time></trkpt><trkpt lat="44.3326223" lon="8.3706408"><ele>309.0</ele><time>2026-04-26T10:41:45.477Z</time></trkpt><trkpt lat="44.3327095" lon="8.370665"><ele>309.0</ele><time>2026-04-26T10:41:46.477Z</time></trkpt><trkpt lat="44.3328007" lon="8.370676"><ele>309.0</ele><time>2026-04-26T10:41:47.476Z</time></trkpt><trkpt lat="44.3328798" lon="8.3706792"><ele>309.0</ele><time>2026-04-26T10:41:48.474Z</time></trkpt><trkpt lat="44.3329512" lon="8.3706727"><ele>309.0</ele><time>2026-04-26T10:41:49.474Z</time></trkpt><trkpt lat="44.3330125" lon="8.3706422"><ele>309.0</ele><time>2026-04-26T10:41:50.476Z</time></trkpt><trkpt lat="44.3330603" lon="8.3705777"><ele>305.59999999999997</ele><time>2026-04-26T10:41:51.475Z</time></trkpt><trkpt lat="44.3330902" lon="8.3704007"><ele>302.2</ele><time>2026-04-26T10:41:53.477Z</time></trkpt><trkpt lat="44.3330982" lon="8.3702828"><ele>298.79999999999995</ele><time>2026-04-26T10:41:54.475Z</time></trkpt><trkpt lat="44.3331213" lon="8.3701503"><ele>295.4</ele><time>2026-04-26T10:41:55.475Z</time></trkpt><trkpt lat="44.3331528" lon="8.3700272"><ele>292.0</ele><time>2026-04-26T10:41:56.474Z</time></trkpt><trkpt lat="44.333183" lon="8.3699258"><ele>292.0</ele><time>2026-04-26T10:41:57.476Z</time></trkpt><trkpt lat="44.3332542" lon="8.369817"><ele>292.0</ele><time>2026-04-26T10:41:59.475Z</time></trkpt><trkpt lat="44.3333195" lon="8.3698052"><ele>292.0</ele><time>2026-04-26T10:42:00.473Z</time></trkpt><trkpt lat="44.3333982" lon="8.3697907"><ele>292.0</ele><time>2026-04-26T10:42:01.473Z</time></trkpt><trkpt lat="44.3334682" lon="8.3697592"><ele>292.0</ele><time>2026-04-26T10:42:02.474Z</time></trkpt><trkpt lat="44.3335288" lon="8.3697242"><ele>292.0</ele><time>2026-04-26T10:42:03.475Z</time></trkpt><trkpt lat="44.3335982" lon="8.369713"><ele>292.0</ele><time>2026-04-26T10:42:04.476Z</time></trkpt><trkpt lat="44.3336907" lon="8.3697373"><ele>292.0</ele><time>2026-04-26T10:42:05.476Z</time></trkpt><trkpt lat="44.3338005" lon="8.369776"><ele>292.0</ele><time>2026-04-26T10:42:06.476Z</time></trkpt><trkpt lat="44.3339077" lon="8.3698203"><ele>292.0</ele><time>2026-04-26T10:42:07.477Z</time></trkpt><trkpt lat="44.3340043" lon="8.3698673"><ele>292.0</ele><time>2026-04-26T10:42:08.476Z</time></trkpt><trkpt lat="44.3340955" lon="8.3698953"><ele>291.66666666666663</ele><time>2026-04-26T10:42:09.477Z</time></trkpt><trkpt lat="44.334178" lon="8.3698992"><ele>291.3333333333333</ele><time>2026-04-26T10:42:10.476Z</time></trkpt><trkpt lat="44.3342423" lon="8.36988"><ele>291.0</ele><time>2026-04-26T10:42:11.477Z</time></trkpt><trkpt lat="44.334314" lon="8.3698225"><ele>290.6666666666667</ele><time>2026-04-26T10:42:13.473Z</time></trkpt><trkpt lat="44.3343377" lon="8.369719"><ele>290.33333333333337</ele><time>2026-04-26T10:42:18.472Z</time></trkpt><trkpt lat="44.334287" lon="8.3696568"><ele>290.0</ele><time>2026-04-26T10:42:20.475Z</time></trkpt><trkpt lat="44.3342278" lon="8.3695872"><ele>290.0</ele><time>2026-04-26T10:42:22.473Z</time></trkpt><trkpt lat="44.3341265" lon="8.3694995"><ele>290.0</ele><time>2026-04-26T10:42:24.471Z</time></trkpt><trkpt lat="44.334071" lon="8.3694545"><ele>290.0</ele><time>2026-04-26T10:42:25.469Z</time></trkpt><trkpt lat="44.333963" lon="8.3693572"><ele>290.0</ele><time>2026-04-26T10:42:27.472Z</time></trkpt><trkpt lat="44.3338933" lon="8.3692938"><ele>290.0</ele><time>2026-04-26T10:42:28.474Z</time></trkpt><trkpt lat="44.3338188" lon="8.3692205"><ele>287.2</ele><time>2026-04-26T10:42:29.472Z</time></trkpt><trkpt lat="44.3337472" lon="8.369124"><ele>284.4</ele><time>2026-04-26T10:42:30.471Z</time></trkpt><trkpt lat="44.3336823" lon="8.3690035"><ele>281.6</ele><time>2026-04-26T10:42:31.473Z</time></trkpt><trkpt lat="44.3336243" lon="8.3688793"><ele>278.8</ele><time>2026-04-26T10:42:32.471Z</time></trkpt><trkpt lat="44.3335683" lon="8.3687688"><ele>276.0</ele><time>2026-04-26T10:42:33.471Z</time></trkpt><trkpt lat="44.333519" lon="8.3686642"><ele>276.0</ele><time>2026-04-26T10:42:34.473Z</time></trkpt><trkpt lat="44.3334655" lon="8.3685755"><ele>276.0</ele><time>2026-04-26T10:42:35.473Z</time></trkpt><trkpt lat="44.3333985" lon="8.368517"><ele>276.0</ele><time>2026-04-26T10:42:36.472Z</time></trkpt><trkpt lat="44.3333145" lon="8.3684857"><ele>276.0</ele><time>2026-04-26T10:42:37.474Z</time></trkpt><trkpt lat="44.3332322" lon="8.3684483"><ele>276.0</ele><time>2026-04-26T10:42:38.476Z</time></trkpt><trkpt lat="44.333167" lon="8.3683875"><ele>276.0</ele><time>2026-04-26T10:42:39.473Z</time></trkpt><trkpt lat="44.3331103" lon="8.3682937"><ele>273.6</ele><time>2026-04-26T10:42:40.474Z</time></trkpt><trkpt lat="44.3330523" lon="8.368154"><ele>271.20000000000005</ele><time>2026-04-26T10:42:41.473Z</time></trkpt><trkpt lat="44.3329973" lon="8.3680073"><ele>268.79999999999995</ele><time>2026-04-26T10:42:42.474Z</time></trkpt><trkpt lat="44.3329482" lon="8.3678822"><ele>266.4</ele><time>2026-04-26T10:42:43.474Z</time></trkpt><trkpt lat="44.3329067" lon="8.3677637"><ele>264.0</ele><time>2026-04-26T10:42:44.474Z</time></trkpt><trkpt lat="44.33287" lon="8.3676417"><ele>264.0</ele><time>2026-04-26T10:42:45.473Z</time></trkpt><trkpt lat="44.3328185" lon="8.3675275"><ele>264.0</ele><time>2026-04-26T10:42:46.472Z</time></trkpt><trkpt lat="44.3327485" lon="8.367446"><ele>264.0</ele><time>2026-04-26T10:42:47.472Z</time></trkpt><trkpt lat="44.3326493" lon="8.3673535"><ele>264.0</ele><time>2026-04-26T10:42:48.469Z</time></trkpt><trkpt lat="44.3325525" lon="8.367262"><ele>264.0</ele><time>2026-04-26T10:42:49.469Z</time></trkpt><trkpt lat="44.3324512" lon="8.3671805"><ele>266.59999999999997</ele><time>2026-04-26T10:42:50.468Z</time></trkpt><trkpt lat="44.3323512" lon="8.3671028"><ele>269.2</ele><time>2026-04-26T10:42:51.471Z</time></trkpt><trkpt lat="44.3322668" lon="8.367034"><ele>271.79999999999995</ele><time>2026-04-26T10:42:52.472Z</time></trkpt><trkpt lat="44.3322" lon="8.3669653"><ele>274.4</ele><time>2026-04-26T10:42:53.473Z</time></trkpt><trkpt lat="44.3321537" lon="8.3668783"><ele>277.0</ele><time>2026-04-26T10:42:54.475Z</time></trkpt><trkpt lat="44.3321268" lon="8.3667762"><ele>271.0</ele><time>2026-04-26T10:42:55.475Z</time></trkpt><trkpt lat="44.3321277" lon="8.3666357"><ele>265.0</ele><time>2026-04-26T10:42:56.475Z</time></trkpt><trkpt lat="44.3321468" lon="8.3664563"><ele>259.0</ele><time>2026-04-26T10:42:57.473Z</time></trkpt><trkpt lat="44.332163" lon="8.3662437"><ele>253.0</ele><time>2026-04-26T10:42:58.475Z</time></trkpt><trkpt lat="44.3321617" lon="8.3660342"><ele>253.0</ele><time>2026-04-26T10:42:59.474Z</time></trkpt><trkpt lat="44.3321603" lon="8.3658512"><ele>253.0</ele><time>2026-04-26T10:43:00.474Z</time></trkpt><trkpt lat="44.3321723" lon="8.365689"><ele>253.0</ele><time>2026-04-26T10:43:01.473Z</time></trkpt><trkpt lat="44.3321875" lon="8.3655467"><ele>253.0</ele><time>2026-04-26T10:43:02.473Z</time></trkpt><trkpt lat="44.3321902" lon="8.3654263"><ele>253.0</ele><time>2026-04-26T10:43:03.473Z</time></trkpt><trkpt lat="44.3321748" lon="8.3653295"><ele>253.0</ele><time>2026-04-26T10:43:04.472Z</time></trkpt><trkpt lat="44.3321318" lon="8.3652555"><ele>253.0</ele><time>2026-04-26T10:43:05.475Z</time></trkpt><trkpt lat="44.3320297" lon="8.3652362"><ele>253.0</ele><time>2026-04-26T10:43:07.475Z</time></trkpt><trkpt lat="44.3319248" lon="8.3653817"><ele>253.0</ele><time>2026-04-26T10:43:09.473Z</time></trkpt><trkpt lat="44.3318562" lon="8.3654885"><ele>253.0</ele><time>2026-04-26T10:43:10.474Z</time></trkpt><trkpt lat="44.3317825" lon="8.3655845"><ele>252.99999999999997</ele><time>2026-04-26T10:43:11.473Z</time></trkpt><trkpt lat="44.3317225" lon="8.3656825"><ele>253.0</ele><time>2026-04-26T10:43:12.473Z</time></trkpt><trkpt lat="44.3316775" lon="8.3657952"><ele>253.0</ele><time>2026-04-26T10:43:13.472Z</time></trkpt><trkpt lat="44.3316392" lon="8.3658938"><ele>253.0</ele><time>2026-04-26T10:43:14.471Z</time></trkpt><trkpt lat="44.3315827" lon="8.3659623"><ele>252.99999999999997</ele><time>2026-04-26T10:43:15.47Z</time></trkpt><trkpt lat="44.3315065" lon="8.3660025"><ele>253.0</ele><time>2026-04-26T10:43:16.472Z</time></trkpt><trkpt lat="44.33142" lon="8.366045"><ele>254.2</ele><time>2026-04-26T10:43:17.474Z</time></trkpt><trkpt lat="44.3313497" lon="8.3661132"><ele>255.4</ele><time>2026-04-26T10:43:18.474Z</time></trkpt><trkpt lat="44.3312928" lon="8.3662148"><ele>256.59999999999997</ele><time>2026-04-26T10:43:19.474Z</time></trkpt><trkpt lat="44.3312542" lon="8.3663617"><ele>257.8</ele><time>2026-04-26T10:43:20.474Z</time></trkpt><trkpt lat="44.3312308" lon="8.3665192"><ele>259.0</ele><time>2026-04-26T10:43:21.473Z</time></trkpt><trkpt lat="44.3312243" lon="8.3666642"><ele>259.0</ele><time>2026-04-26T10:43:22.475Z</time></trkpt><trkpt lat="44.3312175" lon="8.366795"><ele>259.0</ele><time>2026-04-26T10:43:23.476Z</time></trkpt><trkpt lat="44.3311955" lon="8.3669217"><ele>259.0</ele><time>2026-04-26T10:43:24.474Z</time></trkpt><trkpt lat="44.3311563" lon="8.367055"><ele>259.0</ele><time>2026-04-26T10:43:25.475Z</time></trkpt><trkpt lat="44.3311065" lon="8.3671938"><ele>259.0</ele><time>2026-04-26T10:43:26.476Z</time></trkpt><trkpt lat="44.3310457" lon="8.3673288"><ele>253.0</ele><time>2026-04-26T10:43:27.474Z</time></trkpt><trkpt lat="44.3309682" lon="8.367446"><ele>246.99999999999997</ele><time>2026-04-26T10:43:28.475Z</time></trkpt><trkpt lat="44.3308813" lon="8.3675528"><ele>240.99999999999997</ele><time>2026-04-26T10:43:29.474Z</time></trkpt><trkpt lat="44.3307893" lon="8.3676412"><ele>235.0</ele><time>2026-04-26T10:43:30.475Z</time></trkpt><trkpt lat="44.3306977" lon="8.3677123"><ele>229.0</ele><time>2026-04-26T10:43:31.474Z</time></trkpt><trkpt lat="44.3306093" lon="8.3677753"><ele>230.0</ele><time>2026-04-26T10:43:32.475Z</time></trkpt><trkpt lat="44.3305245" lon="8.3678302"><ele>230.99999999999997</ele><time>2026-04-26T10:43:33.473Z</time></trkpt><trkpt lat="44.3304388" lon="8.3678728"><ele>231.99999999999997</ele><time>2026-04-26T10:43:34.474Z</time></trkpt><trkpt lat="44.3303502" lon="8.3679035"><ele>233.0</ele><time>2026-04-26T10:43:35.474Z</time></trkpt><trkpt lat="44.330256" lon="8.367941"><ele>234.0</ele><time>2026-04-26T10:43:36.474Z</time></trkpt><trkpt lat="44.3301532" lon="8.3679918"><ele>231.66666666666666</ele><time>2026-04-26T10:43:37.472Z</time></trkpt><trkpt lat="44.3300503" lon="8.3680315"><ele>229.33333333333331</ele><time>2026-04-26T10:43:38.472Z</time></trkpt><trkpt lat="44.3299567" lon="8.3680465"><ele>227.0</ele><time>2026-04-26T10:43:39.474Z</time></trkpt><trkpt lat="44.3298742" lon="8.3680467"><ele>224.66666666666666</ele><time>2026-04-26T10:43:40.471Z</time></trkpt><trkpt lat="44.3297997" lon="8.3680448"><ele>222.33333333333331</ele><time>2026-04-26T10:43:41.473Z</time></trkpt><trkpt lat="44.3297318" lon="8.3680495"><ele>220.0</ele><time>2026-04-26T10:43:42.473Z</time></trkpt><trkpt lat="44.329668" lon="8.368056"><ele>219.57142857142856</ele><time>2026-04-26T10:43:43.474Z</time></trkpt><trkpt lat="44.3295997" lon="8.3680617"><ele>219.14285714285714</ele><time>2026-04-26T10:43:44.473Z</time></trkpt><trkpt lat="44.3295298" lon="8.3680782"><ele>218.71428571428572</ele><time>2026-04-26T10:43:45.475Z</time></trkpt><trkpt lat="44.329459" lon="8.368108"><ele>218.28571428571428</ele><time>2026-04-26T10:43:46.474Z</time></trkpt><trkpt lat="44.3293897" lon="8.3681472"><ele>217.85714285714286</ele><time>2026-04-26T10:43:47.474Z</time></trkpt><trkpt lat="44.3293162" lon="8.3681863"><ele>217.42857142857142</ele><time>2026-04-26T10:43:48.474Z</time></trkpt><trkpt lat="44.3292443" lon="8.3682212"><ele>217.0</ele><time>2026-04-26T10:43:49.474Z</time></trkpt><trkpt lat="44.3291673" lon="8.368261"><ele>217.0</ele><time>2026-04-26T10:43:50.473Z</time></trkpt><trkpt lat="44.3290852" lon="8.3683143"><ele>217.0</ele><time>2026-04-26T10:43:51.474Z</time></trkpt><trkpt lat="44.3289953" lon="8.3683832"><ele>217.0</ele><time>2026-04-26T10:43:52.473Z</time></trkpt><trkpt lat="44.3288898" lon="8.368464"><ele>217.0</ele><time>2026-04-26T10:43:53.473Z</time></trkpt><trkpt lat="44.3287807" lon="8.368538"><ele>217.0</ele><time>2026-04-26T10:43:54.474Z</time></trkpt><trkpt lat="44.3286735" lon="8.3685913"><ele>218.39999999999998</ele><time>2026-04-26T10:43:55.477Z</time></trkpt><trkpt lat="44.3285677" lon="8.3686152"><ele>219.79999999999998</ele><time>2026-04-26T10:43:56.473Z</time></trkpt><trkpt lat="44.3284565" lon="8.3686173"><ele>221.2</ele><time>2026-04-26T10:43:57.474Z</time></trkpt><trkpt lat="44.3283425" lon="8.3686187"><ele>222.6</ele><time>2026-04-26T10:43:58.473Z</time></trkpt><trkpt lat="44.3282323" lon="8.3686367"><ele>224.0</ele><time>2026-04-26T10:43:59.473Z</time></trkpt><trkpt lat="44.328136" lon="8.368673"><ele>224.0</ele><time>2026-04-26T10:44:00.473Z</time></trkpt><trkpt lat="44.3280522" lon="8.3687447"><ele>223.99999999999997</ele><time>2026-04-26T10:44:01.472Z</time></trkpt><trkpt lat="44.3279802" lon="8.3688577"><ele>223.99999999999997</ele><time>2026-04-26T10:44:02.471Z</time></trkpt><trkpt lat="44.3279313" lon="8.3689715"><ele>224.0</ele><time>2026-04-26T10:44:03.471Z</time></trkpt><trkpt lat="44.3278758" lon="8.3690692"><ele>224.0</ele><time>2026-04-26T10:44:04.473Z</time></trkpt><trkpt lat="44.3278005" lon="8.3691472"><ele>221.16666666666669</ele><time>2026-04-26T10:44:05.472Z</time></trkpt><trkpt lat="44.3277173" lon="8.369203"><ele>218.33333333333334</ele><time>2026-04-26T10:44:06.474Z</time></trkpt><trkpt lat="44.3276485" lon="8.3692567"><ele>215.5</ele><time>2026-04-26T10:44:07.475Z</time></trkpt><trkpt lat="44.3275987" lon="8.3693295"><ele>212.66666666666669</ele><time>2026-04-26T10:44:08.472Z</time></trkpt><trkpt lat="44.3275612" lon="8.3694373"><ele>209.83333333333334</ele><time>2026-04-26T10:44:09.475Z</time></trkpt><trkpt lat="44.3275345" lon="8.3695578"><ele>207.0</ele><time>2026-04-26T10:44:10.474Z</time></trkpt><trkpt lat="44.3275137" lon="8.3696762"><ele>206.0</ele><time>2026-04-26T10:44:11.473Z</time></trkpt><trkpt lat="44.3274953" lon="8.3697892"><ele>205.0</ele><time>2026-04-26T10:44:12.474Z</time></trkpt><trkpt lat="44.3274725" lon="8.3699003"><ele>204.0</ele><time>2026-04-26T10:44:13.474Z</time></trkpt><trkpt lat="44.3274468" lon="8.370027"><ele>203.0</ele><time>2026-04-26T10:44:14.474Z</time></trkpt><trkpt lat="44.3274193" lon="8.3701693"><ele>202.0</ele><time>2026-04-26T10:44:15.475Z</time></trkpt><trkpt lat="44.3273938" lon="8.370325"><ele>202.0</ele><time>2026-04-26T10:44:16.474Z</time></trkpt><trkpt lat="44.3273697" lon="8.3704838"><ele>202.0</ele><time>2026-04-26T10:44:17.474Z</time></trkpt><trkpt lat="44.3273373" lon="8.3706335"><ele>202.0</ele><time>2026-04-26T10:44:18.474Z</time></trkpt><trkpt lat="44.3272925" lon="8.3707713"><ele>202.0</ele><time>2026-04-26T10:44:19.473Z</time></trkpt><trkpt lat="44.327255" lon="8.3708987"><ele>202.0</ele><time>2026-04-26T10:44:20.473Z</time></trkpt><trkpt lat="44.3272282" lon="8.3710347"><ele>201.0</ele><time>2026-04-26T10:44:21.475Z</time></trkpt><trkpt lat="44.3272083" lon="8.3711827"><ele>200.0</ele><time>2026-04-26T10:44:22.475Z</time></trkpt><trkpt lat="44.3271893" lon="8.3713395"><ele>199.0</ele><time>2026-04-26T10:44:23.477Z</time></trkpt><trkpt lat="44.3271655" lon="8.3715018"><ele>198.0</ele><time>2026-04-26T10:44:24.476Z</time></trkpt><trkpt lat="44.327143" lon="8.3716522"><ele>197.2</ele><time>2026-04-26T10:44:25.476Z</time></trkpt><trkpt lat="44.3271115" lon="8.3717865"><ele>196.4</ele><time>2026-04-26T10:44:26.474Z</time></trkpt><trkpt lat="44.3270552" lon="8.3719047"><ele>195.6</ele><time>2026-04-26T10:44:27.472Z</time></trkpt><trkpt lat="44.3269753" lon="8.3720167"><ele>194.79999999999998</ele><time>2026-04-26T10:44:28.473Z</time></trkpt><trkpt lat="44.3268807" lon="8.3721387"><ele>194.0</ele><time>2026-04-26T10:44:29.472Z</time></trkpt><trkpt lat="44.32678" lon="8.3722673"><ele>193.0</ele><time>2026-04-26T10:44:30.475Z</time></trkpt><trkpt lat="44.3266708" lon="8.3723933"><ele>192.0</ele><time>2026-04-26T10:44:31.476Z</time></trkpt><trkpt lat="44.3265643" lon="8.3725012"><ele>191.0</ele><time>2026-04-26T10:44:32.476Z</time></trkpt><trkpt lat="44.3264677" lon="8.3725992"><ele>190.0</ele><time>2026-04-26T10:44:33.477Z</time></trkpt><trkpt lat="44.3263848" lon="8.3726923"><ele>189.33333333333334</ele><time>2026-04-26T10:44:34.477Z</time></trkpt><trkpt lat="44.3263172" lon="8.3727805"><ele>188.66666666666669</ele><time>2026-04-26T10:44:35.48Z</time></trkpt><trkpt lat="44.3262613" lon="8.3728707"><ele>188.0</ele><time>2026-04-26T10:44:36.475Z</time></trkpt><trkpt lat="44.3262162" lon="8.3729738"><ele>187.33333333333334</ele><time>2026-04-26T10:44:37.478Z</time></trkpt><trkpt lat="44.3261765" lon="8.3730873"><ele>186.66666666666666</ele><time>2026-04-26T10:44:38.476Z</time></trkpt><trkpt lat="44.326136" lon="8.3732063"><ele>186.0</ele><time>2026-04-26T10:44:39.476Z</time></trkpt><trkpt lat="44.3260963" lon="8.3733213"><ele>186.0</ele><time>2026-04-26T10:44:40.478Z</time></trkpt><trkpt lat="44.3260517" lon="8.373431"><ele>186.0</ele><time>2026-04-26T10:44:41.477Z</time></trkpt><trkpt lat="44.3259967" lon="8.373546"><ele>186.0</ele><time>2026-04-26T10:44:42.478Z</time></trkpt><trkpt lat="44.3259367" lon="8.3736613"><ele>186.0</ele><time>2026-04-26T10:44:43.479Z</time></trkpt><trkpt lat="44.3258813" lon="8.3737655"><ele>186.0</ele><time>2026-04-26T10:44:44.477Z</time></trkpt><trkpt lat="44.3258322" lon="8.3738658"><ele>186.0</ele><time>2026-04-26T10:44:45.475Z</time></trkpt><trkpt lat="44.3257888" lon="8.3739658"><ele>186.0</ele><time>2026-04-26T10:44:46.477Z</time></trkpt><trkpt lat="44.3257532" lon="8.3740577"><ele>186.0</ele><time>2026-04-26T10:44:47.474Z</time></trkpt><trkpt lat="44.3257158" lon="8.3741585"><ele>186.0</ele><time>2026-04-26T10:44:48.475Z</time></trkpt><trkpt lat="44.3256803" lon="8.374269"><ele>186.0</ele><time>2026-04-26T10:44:49.475Z</time></trkpt><trkpt lat="44.3256413" lon="8.3743688"><ele>186.0</ele><time>2026-04-26T10:44:50.474Z</time></trkpt><trkpt lat="44.3255862" lon="8.374463"><ele>187.0</ele><time>2026-04-26T10:44:51.475Z</time></trkpt><trkpt lat="44.325519" lon="8.3745597"><ele>188.0</ele><time>2026-04-26T10:44:52.474Z</time></trkpt><trkpt lat="44.3254555" lon="8.3746417"><ele>189.0</ele><time>2026-04-26T10:44:53.474Z</time></trkpt><trkpt lat="44.3253863" lon="8.374703"><ele>190.0</ele><time>2026-04-26T10:44:54.475Z</time></trkpt><trkpt lat="44.3253045" lon="8.3747463"><ele>191.0</ele><time>2026-04-26T10:44:55.476Z</time></trkpt><trkpt lat="44.3252327" lon="8.3747777"><ele>192.0</ele><time>2026-04-26T10:44:56.475Z</time></trkpt><trkpt lat="44.325174" lon="8.3748157"><ele>191.99999999999997</ele><time>2026-04-26T10:44:57.474Z</time></trkpt><trkpt lat="44.3251203" lon="8.374876"><ele>192.0</ele><time>2026-04-26T10:44:58.475Z</time></trkpt><trkpt lat="44.3250718" lon="8.3749525"><ele>192.0</ele><time>2026-04-26T10:44:59.474Z</time></trkpt><trkpt lat="44.3250217" lon="8.3750273"><ele>192.0</ele><time>2026-04-26T10:45:00.475Z</time></trkpt><trkpt lat="44.3249655" lon="8.3750768"><ele>192.0</ele><time>2026-04-26T10:45:01.476Z</time></trkpt><trkpt lat="44.3249032" lon="8.3751162"><ele>191.99999999999997</ele><time>2026-04-26T10:45:02.476Z</time></trkpt><trkpt lat="44.3248493" lon="8.3751713"><ele>192.0</ele><time>2026-04-26T10:45:03.474Z</time></trkpt><trkpt lat="44.3248037" lon="8.3752648"><ele>192.0</ele><time>2026-04-26T10:45:04.476Z</time></trkpt><trkpt lat="44.3247698" lon="8.3753905"><ele>192.0</ele><time>2026-04-26T10:45:05.477Z</time></trkpt><trkpt lat="44.3247437" lon="8.375546"><ele>192.0</ele><time>2026-04-26T10:45:06.475Z</time></trkpt><trkpt lat="44.3247248" lon="8.3757095"><ele>192.0</ele><time>2026-04-26T10:45:07.475Z</time></trkpt><trkpt lat="44.3247162" lon="8.3758665"><ele>192.0</ele><time>2026-04-26T10:45:08.475Z</time></trkpt><trkpt lat="44.3247227" lon="8.3760098"><ele>191.0</ele><time>2026-04-26T10:45:09.474Z</time></trkpt><trkpt lat="44.324749" lon="8.3761345"><ele>190.0</ele><time>2026-04-26T10:45:10.475Z</time></trkpt><trkpt lat="44.3247725" lon="8.3762453"><ele>189.0</ele><time>2026-04-26T10:45:11.475Z</time></trkpt><trkpt lat="44.324776" lon="8.3763512"><ele>188.0</ele><time>2026-04-26T10:45:12.475Z</time></trkpt><trkpt lat="44.3247455" lon="8.3764592"><ele>187.0</ele><time>2026-04-26T10:45:13.475Z</time></trkpt><trkpt lat="44.3246888" lon="8.3765768"><ele>186.0</ele><time>2026-04-26T10:45:14.475Z</time></trkpt><trkpt lat="44.3246312" lon="8.3766873"><ele>186.0</ele><time>2026-04-26T10:45:15.473Z</time></trkpt><trkpt lat="44.3245787" lon="8.3767805"><ele>186.0</ele><time>2026-04-26T10:45:16.472Z</time></trkpt><trkpt lat="44.3245207" lon="8.376851"><ele>186.0</ele><time>2026-04-26T10:45:17.473Z</time></trkpt><trkpt lat="44.3244515" lon="8.3768968"><ele>186.0</ele><time>2026-04-26T10:45:18.471Z</time></trkpt><trkpt lat="44.3243645" lon="8.3769275"><ele>186.0</ele><time>2026-04-26T10:45:19.475Z</time></trkpt><trkpt lat="44.3242617" lon="8.3769398"><ele>186.0</ele><time>2026-04-26T10:45:20.477Z</time></trkpt><trkpt lat="44.3241593" lon="8.3769497"><ele>186.0</ele><time>2026-04-26T10:45:21.474Z</time></trkpt><trkpt lat="44.324064" lon="8.3769687"><ele>186.0</ele><time>2026-04-26T10:45:22.475Z</time></trkpt><trkpt lat="44.3239845" lon="8.3770018"><ele>186.0</ele><time>2026-04-26T10:45:23.472Z</time></trkpt><trkpt lat="44.3239158" lon="8.3770492"><ele>186.0</ele><time>2026-04-26T10:45:24.473Z</time></trkpt><trkpt lat="44.3238447" lon="8.3771138"><ele>186.0</ele><time>2026-04-26T10:45:25.473Z</time></trkpt><trkpt lat="44.3237655" lon="8.3771877"><ele>186.0</ele><time>2026-04-26T10:45:26.475Z</time></trkpt><trkpt lat="44.323686" lon="8.377257"><ele>184.60000000000002</ele><time>2026-04-26T10:45:27.473Z</time></trkpt><trkpt lat="44.3236133" lon="8.3773313"><ele>183.2</ele><time>2026-04-26T10:45:28.473Z</time></trkpt><trkpt lat="44.3235462" lon="8.3774283"><ele>181.8</ele><time>2026-04-26T10:45:29.471Z</time></trkpt><trkpt lat="44.3234758" lon="8.37754"><ele>180.39999999999998</ele><time>2026-04-26T10:45:30.473Z</time></trkpt><trkpt lat="44.3233995" lon="8.377665"><ele>179.0</ele><time>2026-04-26T10:45:31.472Z</time></trkpt><trkpt lat="44.3233323" lon="8.3777972"><ele>179.0</ele><time>2026-04-26T10:45:32.475Z</time></trkpt><trkpt lat="44.3232773" lon="8.3779325"><ele>179.0</ele><time>2026-04-26T10:45:33.474Z</time></trkpt><trkpt lat="44.3232318" lon="8.3780673"><ele>179.0</ele><time>2026-04-26T10:45:34.475Z</time></trkpt><trkpt lat="44.3231988" lon="8.378207"><ele>179.0</ele><time>2026-04-26T10:45:35.474Z</time></trkpt><trkpt lat="44.3231827" lon="8.3783743"><ele>179.0</ele><time>2026-04-26T10:45:36.474Z</time></trkpt><trkpt lat="44.3231782" lon="8.3785645"><ele>179.0</ele><time>2026-04-26T10:45:37.475Z</time></trkpt><trkpt lat="44.3231782" lon="8.3787418"><ele>179.0</ele><time>2026-04-26T10:45:38.473Z</time></trkpt><trkpt lat="44.3231735" lon="8.3788993"><ele>179.0</ele><time>2026-04-26T10:45:39.473Z</time></trkpt><trkpt lat="44.3231617" lon="8.3790368"><ele>179.0</ele><time>2026-04-26T10:45:40.472Z</time></trkpt><trkpt lat="44.3231358" lon="8.3791543"><ele>179.0</ele><time>2026-04-26T10:45:41.473Z</time></trkpt><trkpt lat="44.3230887" lon="8.3792645"><ele>181.6</ele><time>2026-04-26T10:45:42.472Z</time></trkpt><trkpt lat="44.3230275" lon="8.379376"><ele>184.2</ele><time>2026-04-26T10:45:43.477Z</time></trkpt><trkpt lat="44.322975" lon="8.3794762"><ele>186.79999999999998</ele><time>2026-04-26T10:45:44.473Z</time></trkpt><trkpt lat="44.3229477" lon="8.3795782"><ele>189.39999999999998</ele><time>2026-04-26T10:45:45.476Z</time></trkpt><trkpt lat="44.3229478" lon="8.3797028"><ele>192.0</ele><time>2026-04-26T10:45:46.476Z</time></trkpt><trkpt lat="44.322977" lon="8.3798497"><ele>192.0</ele><time>2026-04-26T10:45:47.475Z</time></trkpt><trkpt lat="44.3230245" lon="8.3800163"><ele>192.0</ele><time>2026-04-26T10:45:48.475Z</time></trkpt><trkpt lat="44.3230695" lon="8.380172"><ele>192.0</ele><time>2026-04-26T10:45:49.475Z</time></trkpt><trkpt lat="44.3231128" lon="8.3803067"><ele>192.0</ele><time>2026-04-26T10:45:50.476Z</time></trkpt><trkpt lat="44.323154" lon="8.3804312"><ele>186.33333333333334</ele><time>2026-04-26T10:45:51.475Z</time></trkpt><trkpt lat="44.3231872" lon="8.3805407"><ele>180.66666666666666</ele><time>2026-04-26T10:45:52.475Z</time></trkpt><trkpt lat="44.3232022" lon="8.3806297"><ele>175.0</ele><time>2026-04-26T10:45:53.475Z</time></trkpt><trkpt lat="44.3232003" lon="8.3807362"><ele>169.33333333333331</ele><time>2026-04-26T10:45:54.474Z</time></trkpt><trkpt lat="44.3231762" lon="8.3808607"><ele>163.66666666666666</ele><time>2026-04-26T10:45:55.474Z</time></trkpt><trkpt lat="44.3231307" lon="8.3809942"><ele>158.0</ele><time>2026-04-26T10:45:56.475Z</time></trkpt><trkpt lat="44.3230703" lon="8.3811193"><ele>158.20000000000002</ele><time>2026-04-26T10:45:57.475Z</time></trkpt><trkpt lat="44.3230072" lon="8.381234"><ele>158.4</ele><time>2026-04-26T10:45:58.474Z</time></trkpt><trkpt lat="44.3229423" lon="8.3813502"><ele>158.60000000000002</ele><time>2026-04-26T10:45:59.474Z</time></trkpt><trkpt lat="44.322877" lon="8.3814743"><ele>158.8</ele><time>2026-04-26T10:46:00.475Z</time></trkpt><trkpt lat="44.3228073" lon="8.3815983"><ele>159.0</ele><time>2026-04-26T10:46:01.477Z</time></trkpt><trkpt lat="44.3227408" lon="8.3817142"><ele>159.0</ele><time>2026-04-26T10:46:02.474Z</time></trkpt><trkpt lat="44.3226797" lon="8.3818128"><ele>159.0</ele><time>2026-04-26T10:46:03.475Z</time></trkpt><trkpt lat="44.3226193" lon="8.381879"><ele>159.0</ele><time>2026-04-26T10:46:04.472Z</time></trkpt><trkpt lat="44.3225395" lon="8.3819282"><ele>159.0</ele><time>2026-04-26T10:46:05.474Z</time></trkpt><trkpt lat="44.3224375" lon="8.3819718"><ele>159.0</ele><time>2026-04-26T10:46:06.472Z</time></trkpt><trkpt lat="44.3223363" lon="8.3820007"><ele>159.0</ele><time>2026-04-26T10:46:07.472Z</time></trkpt><trkpt lat="44.3222537" lon="8.3820235"><ele>159.0</ele><time>2026-04-26T10:46:08.473Z</time></trkpt><trkpt lat="44.3221903" lon="8.3820525"><ele>159.0</ele><time>2026-04-26T10:46:09.472Z</time></trkpt><trkpt lat="44.3221418" lon="8.3821147"><ele>159.0</ele><time>2026-04-26T10:46:10.474Z</time></trkpt><trkpt lat="44.322099" lon="8.3822132"><ele>159.0</ele><time>2026-04-26T10:46:11.475Z</time></trkpt><trkpt lat="44.3220602" lon="8.3823317"><ele>159.0</ele><time>2026-04-26T10:46:12.474Z</time></trkpt><trkpt lat="44.3220203" lon="8.3824528"><ele>157.4</ele><time>2026-04-26T10:46:13.475Z</time></trkpt><trkpt lat="44.3219808" lon="8.382565"><ele>155.8</ele><time>2026-04-26T10:46:14.475Z</time></trkpt><trkpt lat="44.3219402" lon="8.3826747"><ele>154.2</ele><time>2026-04-26T10:46:15.473Z</time></trkpt><trkpt lat="44.3218827" lon="8.38279"><ele>152.6</ele><time>2026-04-26T10:46:16.473Z</time></trkpt><trkpt lat="44.3218067" lon="8.382917"><ele>151.0</ele><time>2026-04-26T10:46:17.473Z</time></trkpt><trkpt lat="44.3217282" lon="8.3830385"><ele>151.0</ele><time>2026-04-26T10:46:18.473Z</time></trkpt><trkpt lat="44.3216613" lon="8.3831368"><ele>151.0</ele><time>2026-04-26T10:46:19.474Z</time></trkpt><trkpt lat="44.321593" lon="8.3832122"><ele>151.0</ele><time>2026-04-26T10:46:20.472Z</time></trkpt><trkpt lat="44.3215183" lon="8.3832803"><ele>151.0</ele><time>2026-04-26T10:46:21.472Z</time></trkpt><trkpt lat="44.3214368" lon="8.3833357"><ele>151.0</ele><time>2026-04-26T10:46:22.472Z</time></trkpt><trkpt lat="44.3213593" lon="8.3833763"><ele>151.0</ele><time>2026-04-26T10:46:23.473Z</time></trkpt><trkpt lat="44.321293" lon="8.3834013"><ele>152.5</ele><time>2026-04-26T10:46:24.473Z</time></trkpt><trkpt lat="44.3212282" lon="8.3834083"><ele>154.0</ele><time>2026-04-26T10:46:25.473Z</time></trkpt><trkpt lat="44.3211023" lon="8.383398"><ele>155.5</ele><time>2026-04-26T10:46:27.473Z</time></trkpt><trkpt lat="44.3210362" lon="8.3833647"><ele>157.0</ele><time>2026-04-26T10:46:28.473Z</time></trkpt><trkpt lat="44.320974" lon="8.3833282"><ele>158.5</ele><time>2026-04-26T10:46:29.471Z</time></trkpt><trkpt lat="44.3209163" lon="8.383293"><ele>160.0</ele><time>2026-04-26T10:46:30.47Z</time></trkpt><trkpt lat="44.320815" lon="8.3832273"><ele>160.0</ele><time>2026-04-26T10:46:32.471Z</time></trkpt><trkpt lat="44.3207512" lon="8.383185"><ele>160.0</ele><time>2026-04-26T10:46:35.474Z</time></trkpt><trkpt lat="44.320681" lon="8.383188"><ele>160.0</ele><time>2026-04-26T10:48:26.473Z</time></trkpt><trkpt lat="44.320609" lon="8.3831428"><ele>160.0</ele><time>2026-04-26T10:48:27.472Z</time></trkpt><trkpt lat="44.320531" lon="8.3830882"><ele>160.0</ele><time>2026-04-26T10:48:28.472Z</time></trkpt><trkpt lat="44.3204493" lon="8.3830397"><ele>160.0</ele><time>2026-04-26T10:48:29.472Z</time></trkpt><trkpt lat="44.3203633" lon="8.3829945"><ele>162.0</ele><time>2026-04-26T10:48:30.472Z</time></trkpt><trkpt lat="44.3202677" lon="8.3829527"><ele>164.0</ele><time>2026-04-26T10:48:31.472Z</time></trkpt><trkpt lat="44.3201758" lon="8.3829192"><ele>166.0</ele><time>2026-04-26T10:48:32.474Z</time></trkpt><trkpt lat="44.3200868" lon="8.3828985"><ele>168.0</ele><time>2026-04-26T10:48:33.47Z</time></trkpt><trkpt lat="44.3199888" lon="8.3828858"><ele>170.0</ele><time>2026-04-26T10:48:34.47Z</time></trkpt><trkpt lat="44.3198847" lon="8.3828843"><ele>170.0</ele><time>2026-04-26T10:48:35.471Z</time></trkpt><trkpt lat="44.3197845" lon="8.3828868"><ele>170.0</ele><time>2026-04-26T10:48:36.47Z</time></trkpt><trkpt lat="44.3197017" lon="8.3828803"><ele>170.0</ele><time>2026-04-26T10:48:37.471Z</time></trkpt><trkpt lat="44.3196323" lon="8.3828725"><ele>170.0</ele><time>2026-04-26T10:48:38.472Z</time></trkpt><trkpt lat="44.3195208" lon="8.3828932"><ele>170.0</ele><time>2026-04-26T10:48:40.472Z</time></trkpt><trkpt lat="44.3194053" lon="8.3829245"><ele>168.71428571428572</ele><time>2026-04-26T10:48:42.472Z</time></trkpt><trkpt lat="44.3193415" lon="8.3829428"><ele>167.42857142857142</ele><time>2026-04-26T10:48:43.473Z</time></trkpt><trkpt lat="44.3192717" lon="8.3829583"><ele>166.14285714285714</ele><time>2026-04-26T10:48:44.472Z</time></trkpt><trkpt lat="44.3191975" lon="8.382978"><ele>164.85714285714286</ele><time>2026-04-26T10:48:45.472Z</time></trkpt><trkpt lat="44.3191177" lon="8.3830035"><ele>163.57142857142856</ele><time>2026-04-26T10:48:46.472Z</time></trkpt><trkpt lat="44.319043" lon="8.383015"><ele>162.28571428571428</ele><time>2026-04-26T10:48:47.472Z</time></trkpt><trkpt lat="44.3189672" lon="8.3830018"><ele>161.0</ele><time>2026-04-26T10:48:48.472Z</time></trkpt><trkpt lat="44.3188798" lon="8.3829665"><ele>160.16666666666666</ele><time>2026-04-26T10:48:49.472Z</time></trkpt><trkpt lat="44.3187813" lon="8.3829333"><ele>159.33333333333331</ele><time>2026-04-26T10:48:50.472Z</time></trkpt><trkpt lat="44.3186855" lon="8.3829172"><ele>158.5</ele><time>2026-04-26T10:48:51.471Z</time></trkpt><trkpt lat="44.3186025" lon="8.3829132"><ele>157.66666666666666</ele><time>2026-04-26T10:48:52.472Z</time></trkpt><trkpt lat="44.3185343" lon="8.3829108"><ele>156.83333333333334</ele><time>2026-04-26T10:48:53.473Z</time></trkpt><trkpt lat="44.3184513" lon="8.3829228"><ele>156.0</ele><time>2026-04-26T10:48:55.471Z</time></trkpt><trkpt lat="44.3184007" lon="8.3829832"><ele>153.0</ele><time>2026-04-26T10:48:57.47Z</time></trkpt><trkpt lat="44.3183457" lon="8.3831058"><ele>150.0</ele><time>2026-04-26T10:48:59.469Z</time></trkpt><trkpt lat="44.3182782" lon="8.3831902"><ele>147.0</ele><time>2026-04-26T10:49:01.473Z</time></trkpt><trkpt lat="44.3181687" lon="8.3832538"><ele>144.0</ele><time>2026-04-26T10:49:03.473Z</time></trkpt><trkpt lat="44.3180888" lon="8.383287"><ele>141.0</ele><time>2026-04-26T10:49:04.472Z</time></trkpt><trkpt lat="44.3179993" lon="8.3833322"><ele>140.4</ele><time>2026-04-26T10:49:05.473Z</time></trkpt><trkpt lat="44.3179008" lon="8.3833763"><ele>139.8</ele><time>2026-04-26T10:49:06.473Z</time></trkpt><trkpt lat="44.3178147" lon="8.3834122"><ele>139.20000000000002</ele><time>2026-04-26T10:49:07.471Z</time></trkpt><trkpt lat="44.3177435" lon="8.3834443"><ele>138.6</ele><time>2026-04-26T10:49:08.472Z</time></trkpt><trkpt lat="44.3176795" lon="8.383474"><ele>138.0</ele><time>2026-04-26T10:49:09.472Z</time></trkpt><trkpt lat="44.3175667" lon="8.38355"><ele>138.0</ele><time>2026-04-26T10:49:11.471Z</time></trkpt><trkpt lat="44.3175072" lon="8.3836107"><ele>138.0</ele><time>2026-04-26T10:49:12.471Z</time></trkpt><trkpt lat="44.3174435" lon="8.3836823"><ele>138.0</ele><time>2026-04-26T10:49:13.472Z</time></trkpt><trkpt lat="44.3173765" lon="8.383755"><ele>138.0</ele><time>2026-04-26T10:49:14.471Z</time></trkpt><trkpt lat="44.317309" lon="8.3838345"><ele>138.0</ele><time>2026-04-26T10:49:15.472Z</time></trkpt><trkpt lat="44.317243" lon="8.3839017"><ele>138.0</ele><time>2026-04-26T10:49:16.471Z</time></trkpt><trkpt lat="44.3171828" lon="8.3839572"><ele>136.66666666666666</ele><time>2026-04-26T10:49:17.472Z</time></trkpt><trkpt lat="44.3171162" lon="8.3840055"><ele>135.33333333333334</ele><time>2026-04-26T10:49:18.472Z</time></trkpt><trkpt lat="44.3170362" lon="8.3840462"><ele>134.0</ele><time>2026-04-26T10:49:19.474Z</time></trkpt><trkpt lat="44.3169513" lon="8.3840728"><ele>132.66666666666669</ele><time>2026-04-26T10:49:20.472Z</time></trkpt><trkpt lat="44.3168797" lon="8.3840977"><ele>131.33333333333334</ele><time>2026-04-26T10:49:21.472Z</time></trkpt><trkpt lat="44.316816" lon="8.3841388"><ele>130.0</ele><time>2026-04-26T10:49:22.471Z</time></trkpt><trkpt lat="44.3167608" lon="8.3841983"><ele>130.0</ele><time>2026-04-26T10:49:23.47Z</time></trkpt><trkpt lat="44.3167135" lon="8.3842922"><ele>130.0</ele><time>2026-04-26T10:49:24.471Z</time></trkpt><trkpt lat="44.3166802" lon="8.384401"><ele>130.0</ele><time>2026-04-26T10:49:25.476Z</time></trkpt><trkpt lat="44.3166603" lon="8.3845187"><ele>130.0</ele><time>2026-04-26T10:49:26.474Z</time></trkpt><trkpt lat="44.3166553" lon="8.3846477"><ele>130.0</ele><time>2026-04-26T10:49:27.472Z</time></trkpt><trkpt lat="44.3166707" lon="8.3847778"><ele>130.0</ele><time>2026-04-26T10:49:28.472Z</time></trkpt><trkpt lat="44.3167035" lon="8.3849158"><ele>131.2</ele><time>2026-04-26T10:49:29.473Z</time></trkpt><trkpt lat="44.316744" lon="8.385064"><ele>132.4</ele><time>2026-04-26T10:49:30.472Z</time></trkpt><trkpt lat="44.316781" lon="8.3851998"><ele>133.6</ele><time>2026-04-26T10:49:31.474Z</time></trkpt><trkpt lat="44.3168128" lon="8.385316"><ele>134.8</ele><time>2026-04-26T10:49:32.473Z</time></trkpt><trkpt lat="44.3168367" lon="8.385414"><ele>136.0</ele><time>2026-04-26T10:49:33.473Z</time></trkpt><trkpt lat="44.3168063" lon="8.385577"><ele>136.4</ele><time>2026-04-26T10:49:35.473Z</time></trkpt><trkpt lat="44.3167817" lon="8.3857477"><ele>136.8</ele><time>2026-04-26T10:49:37.474Z</time></trkpt><trkpt lat="44.3167628" lon="8.3858443"><ele>137.20000000000002</ele><time>2026-04-26T10:49:38.473Z</time></trkpt><trkpt lat="44.3167272" lon="8.3859287"><ele>137.6</ele><time>2026-04-26T10:49:39.474Z</time></trkpt><trkpt lat="44.3166845" lon="8.3860008"><ele>138.0</ele><time>2026-04-26T10:49:40.473Z</time></trkpt><trkpt lat="44.316585" lon="8.3860998"><ele>138.0</ele><time>2026-04-26T10:49:42.473Z</time></trkpt><trkpt lat="44.3165193" lon="8.3861227"><ele>138.0</ele><time>2026-04-26T10:49:43.474Z</time></trkpt><trkpt lat="44.3164502" lon="8.386145"><ele>138.0</ele><time>2026-04-26T10:49:44.473Z</time></trkpt><trkpt lat="44.316383" lon="8.3861845"><ele>138.0</ele><time>2026-04-26T10:49:45.472Z</time></trkpt><trkpt lat="44.3163168" lon="8.3862392"><ele>138.0</ele><time>2026-04-26T10:49:46.471Z</time></trkpt><trkpt lat="44.31625" lon="8.3862907"><ele>138.0</ele><time>2026-04-26T10:49:47.471Z</time></trkpt><trkpt lat="44.3161767" lon="8.386328"><ele>138.0</ele><time>2026-04-26T10:49:48.473Z</time></trkpt><trkpt lat="44.316086" lon="8.3863587"><ele>135.4</ele><time>2026-04-26T10:49:49.474Z</time></trkpt><trkpt lat="44.3159907" lon="8.3863933"><ele>132.8</ele><time>2026-04-26T10:49:50.476Z</time></trkpt><trkpt lat="44.3159058" lon="8.386428"><ele>130.2</ele><time>2026-04-26T10:49:51.477Z</time></trkpt><trkpt lat="44.3158342" lon="8.3864568"><ele>127.6</ele><time>2026-04-26T10:49:52.475Z</time></trkpt><trkpt lat="44.3157248" lon="8.3865027"><ele>125.0</ele><time>2026-04-26T10:49:54.474Z</time></trkpt><trkpt lat="44.3156463" lon="8.3866365"><ele>125.0</ele><time>2026-04-26T10:49:56.475Z</time></trkpt><trkpt lat="44.3156145" lon="8.3867453"><ele>125.0</ele><time>2026-04-26T10:49:57.477Z</time></trkpt><trkpt lat="44.3155922" lon="8.3868802"><ele>125.0</ele><time>2026-04-26T10:49:58.476Z</time></trkpt><trkpt lat="44.3155748" lon="8.3870373"><ele>125.0</ele><time>2026-04-26T10:49:59.478Z</time></trkpt><trkpt lat="44.3155618" lon="8.387197"><ele>125.0</ele><time>2026-04-26T10:50:00.477Z</time></trkpt><trkpt lat="44.3155493" lon="8.3873497"><ele>125.16666666666666</ele><time>2026-04-26T10:50:01.476Z</time></trkpt><trkpt lat="44.3155382" lon="8.3874887"><ele>125.33333333333333</ele><time>2026-04-26T10:50:02.475Z</time></trkpt><trkpt lat="44.315532" lon="8.3875987"><ele>125.5</ele><time>2026-04-26T10:50:03.475Z</time></trkpt><trkpt lat="44.315538" lon="8.3876967"><ele>125.66666666666666</ele><time>2026-04-26T10:50:04.475Z</time></trkpt><trkpt lat="44.3155613" lon="8.3878188"><ele>125.83333333333333</ele><time>2026-04-26T10:50:05.475Z</time></trkpt><trkpt lat="44.3155938" lon="8.3879475"><ele>126.0</ele><time>2026-04-26T10:50:06.474Z</time></trkpt><trkpt lat="44.3156172" lon="8.3880593"><ele>125.0</ele><time>2026-04-26T10:50:07.474Z</time></trkpt><trkpt lat="44.3156253" lon="8.3881718"><ele>124.0</ele><time>2026-04-26T10:50:08.474Z</time></trkpt><trkpt lat="44.3156223" lon="8.3883033"><ele>123.0</ele><time>2026-04-26T10:50:09.472Z</time></trkpt><trkpt lat="44.3156187" lon="8.3884382"><ele>122.0</ele><time>2026-04-26T10:50:10.473Z</time></trkpt><trkpt lat="44.3156165" lon="8.3885565"><ele>121.0</ele><time>2026-04-26T10:50:11.473Z</time></trkpt><trkpt lat="44.3156122" lon="8.3886495"><ele>120.0</ele><time>2026-04-26T10:50:12.472Z</time></trkpt><trkpt lat="44.3155688" lon="8.3887802"><ele>120.0</ele><time>2026-04-26T10:50:14.475Z</time></trkpt><trkpt lat="44.3154755" lon="8.3888328"><ele>120.0</ele><time>2026-04-26T10:50:16.474Z</time></trkpt><trkpt lat="44.3153952" lon="8.3888583"><ele>120.0</ele><time>2026-04-26T10:50:18.476Z</time></trkpt><trkpt lat="44.3153422" lon="8.3889352"><ele>120.0</ele><time>2026-04-26T10:50:20.472Z</time></trkpt><trkpt lat="44.3153152" lon="8.389022"><ele>120.0</ele><time>2026-04-26T10:50:23.474Z</time></trkpt><trkpt lat="44.3152942" lon="8.3891512"><ele>120.0</ele><time>2026-04-26T10:50:29.475Z</time></trkpt><trkpt lat="44.3152742" lon="8.3892417"><ele>119.0</ele><time>2026-04-26T10:50:30.472Z</time></trkpt><trkpt lat="44.3152523" lon="8.3893267"><ele>118.0</ele><time>2026-04-26T10:50:31.472Z</time></trkpt><trkpt lat="44.3152073" lon="8.3894713"><ele>117.0</ele><time>2026-04-26T10:50:33.472Z</time></trkpt><trkpt lat="44.3151677" lon="8.3895888"><ele>116.0</ele><time>2026-04-26T10:50:35.471Z</time></trkpt><trkpt lat="44.3150992" lon="8.3897077"><ele>115.0</ele><time>2026-04-26T10:50:37.474Z</time></trkpt><trkpt lat="44.3150445" lon="8.3897818"><ele>115.00000000000001</ele><time>2026-04-26T10:50:38.475Z</time></trkpt><trkpt lat="44.3149753" lon="8.3898627"><ele>115.0</ele><time>2026-04-26T10:50:39.476Z</time></trkpt><trkpt lat="44.3148995" lon="8.3899462"><ele>115.0</ele><time>2026-04-26T10:50:40.476Z</time></trkpt><trkpt lat="44.3148312" lon="8.3900207"><ele>115.0</ele><time>2026-04-26T10:50:41.477Z</time></trkpt><trkpt lat="44.314777" lon="8.3900942"><ele>115.00000000000001</ele><time>2026-04-26T10:50:42.476Z</time></trkpt><trkpt lat="44.3147303" lon="8.3901678"><ele>115.0</ele><time>2026-04-26T10:50:43.476Z</time></trkpt><trkpt lat="44.3146842" lon="8.390231"><ele>115.0</ele><time>2026-04-26T10:50:44.474Z</time></trkpt><trkpt lat="44.3146252" lon="8.3902893"><ele>115.0</ele><time>2026-04-26T10:50:45.475Z</time></trkpt><trkpt lat="44.3145492" lon="8.3903555"><ele>115.0</ele><time>2026-04-26T10:50:46.474Z</time></trkpt><trkpt lat="44.3144663" lon="8.3904312"><ele>115.0</ele><time>2026-04-26T10:50:47.474Z</time></trkpt><trkpt lat="44.314383" lon="8.3905172"><ele>115.0</ele><time>2026-04-26T10:50:48.473Z</time></trkpt><trkpt lat="44.3143067" lon="8.390599"><ele>111.5</ele><time>2026-04-26T10:50:49.48Z</time></trkpt><trkpt lat="44.314233" lon="8.3906905"><ele>108.0</ele><time>2026-04-26T10:50:50.476Z</time></trkpt><trkpt lat="44.3141622" lon="8.3908118"><ele>104.5</ele><time>2026-04-26T10:50:51.475Z</time></trkpt><trkpt lat="44.3140938" lon="8.3909577"><ele>101.0</ele><time>2026-04-26T10:50:52.474Z</time></trkpt><trkpt lat="44.3140333" lon="8.3911013"><ele>101.0</ele><time>2026-04-26T10:50:53.476Z</time></trkpt><trkpt lat="44.313973" lon="8.3912457"><ele>101.0</ele><time>2026-04-26T10:50:54.471Z</time></trkpt><trkpt lat="44.313911" lon="8.3913873"><ele>101.0</ele><time>2026-04-26T10:50:55.474Z</time></trkpt><trkpt lat="44.3138542" lon="8.3915325"><ele>101.0</ele><time>2026-04-26T10:50:56.474Z</time></trkpt><trkpt lat="44.3137972" lon="8.391683"><ele>99.8</ele><time>2026-04-26T10:50:57.473Z</time></trkpt><trkpt lat="44.3137413" lon="8.3918215"><ele>98.6</ele><time>2026-04-26T10:50:58.472Z</time></trkpt><trkpt lat="44.3136898" lon="8.3919512"><ele>97.4</ele><time>2026-04-26T10:50:59.474Z</time></trkpt><trkpt lat="44.3136422" lon="8.3920713"><ele>96.2</ele><time>2026-04-26T10:51:00.474Z</time></trkpt><trkpt lat="44.313597" lon="8.392181"><ele>95.0</ele><time>2026-04-26T10:51:01.475Z</time></trkpt><trkpt lat="44.3135503" lon="8.392274"><ele>95.0</ele><time>2026-04-26T10:51:02.477Z</time></trkpt><trkpt lat="44.3134965" lon="8.392348"><ele>95.0</ele><time>2026-04-26T10:51:03.474Z</time></trkpt><trkpt lat="44.3134242" lon="8.3924105"><ele>95.0</ele><time>2026-04-26T10:51:04.475Z</time></trkpt><trkpt lat="44.3133333" lon="8.3924687"><ele>95.0</ele><time>2026-04-26T10:51:05.476Z</time></trkpt><trkpt lat="44.3132303" lon="8.392525"><ele>95.0</ele><time>2026-04-26T10:51:06.472Z</time></trkpt><trkpt lat="44.3131245" lon="8.392584"><ele>98.6</ele><time>2026-04-26T10:51:07.472Z</time></trkpt><trkpt lat="44.3130315" lon="8.39264"><ele>102.2</ele><time>2026-04-26T10:51:08.474Z</time></trkpt><trkpt lat="44.3129457" lon="8.3926912"><ele>105.80000000000001</ele><time>2026-04-26T10:51:09.473Z</time></trkpt><trkpt lat="44.312859" lon="8.392738"><ele>109.4</ele><time>2026-04-26T10:51:10.473Z</time></trkpt><trkpt lat="44.3127763" lon="8.3927832"><ele>113.0</ele><time>2026-04-26T10:51:11.472Z</time></trkpt><trkpt lat="44.3126968" lon="8.3928397"><ele>113.0</ele><time>2026-04-26T10:51:12.474Z</time></trkpt><trkpt lat="44.3126237" lon="8.3929202"><ele>113.00000000000001</ele><time>2026-04-26T10:51:13.476Z</time></trkpt><trkpt lat="44.3125513" lon="8.3930245"><ele>113.00000000000001</ele><time>2026-04-26T10:51:14.474Z</time></trkpt><trkpt lat="44.312475" lon="8.3931457"><ele>113.0</ele><time>2026-04-26T10:51:15.472Z</time></trkpt><trkpt lat="44.3123935" lon="8.3932713"><ele>113.0</ele><time>2026-04-26T10:51:16.47Z</time></trkpt><trkpt lat="44.3123148" lon="8.3933927"><ele>115.75</ele><time>2026-04-26T10:51:17.472Z</time></trkpt><trkpt lat="44.3122402" lon="8.393511"><ele>118.5</ele><time>2026-04-26T10:51:18.472Z</time></trkpt><trkpt lat="44.3121653" lon="8.3936385"><ele>121.25</ele><time>2026-04-26T10:51:19.473Z</time></trkpt><trkpt lat="44.3120957" lon="8.3937823"><ele>124.0</ele><time>2026-04-26T10:51:20.475Z</time></trkpt><trkpt lat="44.3120392" lon="8.3939172"><ele>120.00000000000001</ele><time>2026-04-26T10:51:21.472Z</time></trkpt><trkpt lat="44.311991" lon="8.3940378"><ele>116.0</ele><time>2026-04-26T10:51:22.474Z</time></trkpt><trkpt lat="44.3119443" lon="8.3941412"><ele>112.0</ele><time>2026-04-26T10:51:23.472Z</time></trkpt><trkpt lat="44.3118907" lon="8.3942238"><ele>108.0</ele><time>2026-04-26T10:51:24.472Z</time></trkpt><trkpt lat="44.3118345" lon="8.3942995"><ele>104.00000000000001</ele><time>2026-04-26T10:51:25.475Z</time></trkpt><trkpt lat="44.3117832" lon="8.3943927"><ele>100.0</ele><time>2026-04-26T10:51:26.477Z</time></trkpt><trkpt lat="44.3117372" lon="8.3944898"><ele>100.0</ele><time>2026-04-26T10:51:27.478Z</time></trkpt><trkpt lat="44.31169" lon="8.3945842"><ele>100.0</ele><time>2026-04-26T10:51:28.479Z</time></trkpt><trkpt lat="44.3116372" lon="8.3946842"><ele>100.0</ele><time>2026-04-26T10:51:29.477Z</time></trkpt><trkpt lat="44.3115812" lon="8.3947972"><ele>100.0</ele><time>2026-04-26T10:51:30.476Z</time></trkpt><trkpt lat="44.3115193" lon="8.3949165"><ele>100.0</ele><time>2026-04-26T10:51:31.476Z</time></trkpt><trkpt lat="44.3114532" lon="8.3950418"><ele>98.75</ele><time>2026-04-26T10:51:32.476Z</time></trkpt><trkpt lat="44.3113845" lon="8.3951738"><ele>97.5</ele><time>2026-04-26T10:51:33.476Z</time></trkpt><trkpt lat="44.3113143" lon="8.3953125"><ele>96.25</ele><time>2026-04-26T10:51:34.476Z</time></trkpt><trkpt lat="44.3112423" lon="8.3954565"><ele>95.0</ele><time>2026-04-26T10:51:35.476Z</time></trkpt><trkpt lat="44.3111693" lon="8.3956025"><ele>95.0</ele><time>2026-04-26T10:51:36.477Z</time></trkpt><trkpt lat="44.3110925" lon="8.3957525"><ele>95.0</ele><time>2026-04-26T10:51:37.48Z</time></trkpt><trkpt lat="44.3110155" lon="8.3959018"><ele>95.0</ele><time>2026-04-26T10:51:38.48Z</time></trkpt><trkpt lat="44.3109452" lon="8.3960398"><ele>95.0</ele><time>2026-04-26T10:51:39.479Z</time></trkpt><trkpt lat="44.3108738" lon="8.3961735"><ele>95.0</ele><time>2026-04-26T10:51:40.479Z</time></trkpt><trkpt lat="44.3108008" lon="8.3963068"><ele>95.0</ele><time>2026-04-26T10:51:41.476Z</time></trkpt><trkpt lat="44.31073" lon="8.396434"><ele>95.0</ele><time>2026-04-26T10:51:42.473Z</time></trkpt><trkpt lat="44.3106665" lon="8.3965467"><ele>95.0</ele><time>2026-04-26T10:51:43.473Z</time></trkpt><trkpt lat="44.3106065" lon="8.3966502"><ele>95.0</ele><time>2026-04-26T10:51:44.478Z</time></trkpt><trkpt lat="44.3105453" lon="8.3967572"><ele>94.4</ele><time>2026-04-26T10:51:45.478Z</time></trkpt><trkpt lat="44.3104843" lon="8.3968712"><ele>93.8</ele><time>2026-04-26T10:51:46.479Z</time></trkpt><trkpt lat="44.3104225" lon="8.3969897"><ele>93.19999999999999</ele><time>2026-04-26T10:51:47.473Z</time></trkpt><trkpt lat="44.310361" lon="8.3971097"><ele>92.6</ele><time>2026-04-26T10:51:48.475Z</time></trkpt><trkpt lat="44.3102995" lon="8.397235"><ele>92.0</ele><time>2026-04-26T10:51:49.477Z</time></trkpt><trkpt lat="44.3102365" lon="8.3973632"><ele>92.0</ele><time>2026-04-26T10:51:50.475Z</time></trkpt><trkpt lat="44.3101737" lon="8.3974865"><ele>92.0</ele><time>2026-04-26T10:51:51.475Z</time></trkpt><trkpt lat="44.3101065" lon="8.3976028"><ele>92.0</ele><time>2026-04-26T10:51:52.476Z</time></trkpt><trkpt lat="44.3100388" lon="8.3977075"><ele>92.0</ele><time>2026-04-26T10:51:53.476Z</time></trkpt><trkpt lat="44.3099773" lon="8.3978048"><ele>92.0</ele><time>2026-04-26T10:51:54.474Z</time></trkpt><trkpt lat="44.309914" lon="8.3979028"><ele>92.0</ele><time>2026-04-26T10:51:55.478Z</time></trkpt><trkpt lat="44.3098465" lon="8.397995"><ele>92.0</ele><time>2026-04-26T10:51:56.477Z</time></trkpt><trkpt lat="44.309781" lon="8.3980722"><ele>92.0</ele><time>2026-04-26T10:51:57.48Z</time></trkpt><trkpt lat="44.3097203" lon="8.3981325"><ele>92.0</ele><time>2026-04-26T10:51:58.477Z</time></trkpt><trkpt lat="44.309665" lon="8.3981817"><ele>92.0</ele><time>2026-04-26T10:51:59.477Z</time></trkpt><trkpt lat="44.3095838" lon="8.398278"><ele>92.0</ele><time>2026-04-26T10:52:01.475Z</time></trkpt><trkpt lat="44.3095612" lon="8.3984605"><ele>92.5</ele><time>2026-04-26T10:52:03.475Z</time></trkpt><trkpt lat="44.309555" lon="8.3985608"><ele>93.0</ele><time>2026-04-26T10:52:04.475Z</time></trkpt><trkpt lat="44.3095405" lon="8.3986523"><ele>93.5</ele><time>2026-04-26T10:52:05.475Z</time></trkpt><trkpt lat="44.309519" lon="8.3987383"><ele>94.0</ele><time>2026-04-26T10:52:06.475Z</time></trkpt><trkpt lat="44.3094602" lon="8.3988948"><ele>94.5</ele><time>2026-04-26T10:52:08.48Z</time></trkpt><trkpt lat="44.3094188" lon="8.3989742"><ele>95.0</ele><time>2026-04-26T10:52:09.479Z</time></trkpt><trkpt lat="44.3093643" lon="8.3990578"><ele>93.2</ele><time>2026-04-26T10:52:10.477Z</time></trkpt><trkpt lat="44.3092973" lon="8.399141"><ele>91.4</ele><time>2026-04-26T10:52:11.476Z</time></trkpt><trkpt lat="44.3092285" lon="8.3992225"><ele>89.6</ele><time>2026-04-26T10:52:12.473Z</time></trkpt><trkpt lat="44.3091573" lon="8.399322"><ele>87.8</ele><time>2026-04-26T10:52:13.474Z</time></trkpt><trkpt lat="44.3090895" lon="8.3994445"><ele>86.0</ele><time>2026-04-26T10:52:14.474Z</time></trkpt><trkpt lat="44.3090247" lon="8.3995667"><ele>88.0</ele><time>2026-04-26T10:52:15.474Z</time></trkpt><trkpt lat="44.3089585" lon="8.3996705"><ele>90.0</ele><time>2026-04-26T10:52:16.476Z</time></trkpt><trkpt lat="44.3089008" lon="8.399766"><ele>92.0</ele><time>2026-04-26T10:52:17.477Z</time></trkpt><trkpt lat="44.3088558" lon="8.3998595"><ele>94.0</ele><time>2026-04-26T10:52:18.476Z</time></trkpt><trkpt lat="44.308815" lon="8.3999517"><ele>95.99999999999999</ele><time>2026-04-26T10:52:19.475Z</time></trkpt><trkpt lat="44.3087583" lon="8.400048"><ele>98.0</ele><time>2026-04-26T10:52:20.477Z</time></trkpt><trkpt lat="44.3086843" lon="8.4001523"><ele>98.0</ele><time>2026-04-26T10:52:21.478Z</time></trkpt><trkpt lat="44.3086047" lon="8.4002627"><ele>98.0</ele><time>2026-04-26T10:52:22.48Z</time></trkpt><trkpt lat="44.3085255" lon="8.4003747"><ele>98.0</ele><time>2026-04-26T10:52:23.479Z</time></trkpt><trkpt lat="44.3084533" lon="8.4004797"><ele>98.0</ele><time>2026-04-26T10:52:24.477Z</time></trkpt><trkpt lat="44.3083875" lon="8.4005773"><ele>98.0</ele><time>2026-04-26T10:52:25.48Z</time></trkpt><trkpt lat="44.3083272" lon="8.4006875"><ele>92.25</ele><time>2026-04-26T10:52:26.476Z</time></trkpt><trkpt lat="44.3082685" lon="8.4008257"><ele>86.5</ele><time>2026-04-26T10:52:27.475Z</time></trkpt><trkpt lat="44.3082098" lon="8.4009842"><ele>80.75</ele><time>2026-04-26T10:52:28.476Z</time></trkpt><trkpt lat="44.3081533" lon="8.4011475"><ele>75.0</ele><time>2026-04-26T10:52:29.476Z</time></trkpt><trkpt lat="44.3081045" lon="8.4013087"><ele>80.6</ele><time>2026-04-26T10:52:30.476Z</time></trkpt><trkpt lat="44.3080713" lon="8.4014638"><ele>86.2</ele><time>2026-04-26T10:52:31.476Z</time></trkpt><trkpt lat="44.3080495" lon="8.4016147"><ele>91.80000000000001</ele><time>2026-04-26T10:52:32.475Z</time></trkpt><trkpt lat="44.3080308" lon="8.4017542"><ele>97.4</ele><time>2026-04-26T10:52:33.476Z</time></trkpt><trkpt lat="44.308012" lon="8.4018792"><ele>103.0</ele><time>2026-04-26T10:52:34.477Z</time></trkpt><trkpt lat="44.3079882" lon="8.4020038"><ele>103.0</ele><time>2026-04-26T10:52:35.476Z</time></trkpt><trkpt lat="44.3079622" lon="8.4021372"><ele>103.0</ele><time>2026-04-26T10:52:36.474Z</time></trkpt><trkpt lat="44.3079385" lon="8.4022808"><ele>103.0</ele><time>2026-04-26T10:52:37.476Z</time></trkpt><trkpt lat="44.30791" lon="8.4024402"><ele>103.0</ele><time>2026-04-26T10:52:38.477Z</time></trkpt><trkpt lat="44.3078695" lon="8.4026183"><ele>100.2</ele><time>2026-04-26T10:52:39.476Z</time></trkpt><trkpt lat="44.3078273" lon="8.4027838"><ele>97.4</ele><time>2026-04-26T10:52:40.475Z</time></trkpt><trkpt lat="44.307789" lon="8.402929"><ele>94.60000000000001</ele><time>2026-04-26T10:52:41.476Z</time></trkpt><trkpt lat="44.3077555" lon="8.4030427"><ele>91.80000000000001</ele><time>2026-04-26T10:52:42.477Z</time></trkpt><trkpt lat="44.3077218" lon="8.4031365"><ele>89.0</ele><time>2026-04-26T10:52:43.477Z</time></trkpt><trkpt lat="44.3076748" lon="8.4032403"><ele>86.5</ele><time>2026-04-26T10:52:44.475Z</time></trkpt><trkpt lat="44.3076157" lon="8.4033523"><ele>84.0</ele><time>2026-04-26T10:52:45.475Z</time></trkpt><trkpt lat="44.3075532" lon="8.4034653"><ele>81.5</ele><time>2026-04-26T10:52:46.476Z</time></trkpt><trkpt lat="44.3074935" lon="8.4035615"><ele>79.0</ele><time>2026-04-26T10:52:47.477Z</time></trkpt><trkpt lat="44.3074423" lon="8.4036405"><ele>76.5</ele><time>2026-04-26T10:52:48.475Z</time></trkpt><trkpt lat="44.3073967" lon="8.403715"><ele>74.0</ele><time>2026-04-26T10:52:49.475Z</time></trkpt><trkpt lat="44.3073465" lon="8.4038125"><ele>72.0</ele><time>2026-04-26T10:52:50.475Z</time></trkpt><trkpt lat="44.30729" lon="8.4039333"><ele>70.0</ele><time>2026-04-26T10:52:51.476Z</time></trkpt><trkpt lat="44.3072265" lon="8.4040705"><ele>68.0</ele><time>2026-04-26T10:52:52.477Z</time></trkpt><trkpt lat="44.3071565" lon="8.404227"><ele>66.0</ele><time>2026-04-26T10:52:53.477Z</time></trkpt><trkpt lat="44.3070827" lon="8.404388"><ele>65.0</ele><time>2026-04-26T10:52:54.476Z</time></trkpt><trkpt lat="44.3070115" lon="8.4045363"><ele>64.0</ele><time>2026-04-26T10:52:55.474Z</time></trkpt><trkpt lat="44.3069438" lon="8.4046775"><ele>63.0</ele><time>2026-04-26T10:52:56.476Z</time></trkpt><trkpt lat="44.3068792" lon="8.4048145"><ele>62.0</ele><time>2026-04-26T10:52:57.473Z</time></trkpt><trkpt lat="44.3068173" lon="8.4049478"><ele>62.0</ele><time>2026-04-26T10:52:58.476Z</time></trkpt><trkpt lat="44.3067568" lon="8.4050732"><ele>62.0</ele><time>2026-04-26T10:52:59.477Z</time></trkpt><trkpt lat="44.3067038" lon="8.4051858"><ele>62.0</ele><time>2026-04-26T10:53:00.475Z</time></trkpt><trkpt lat="44.3066575" lon="8.4052913"><ele>62.0</ele><time>2026-04-26T10:53:01.475Z</time></trkpt><trkpt lat="44.3066115" lon="8.4053967"><ele>62.0</ele><time>2026-04-26T10:53:02.475Z</time></trkpt><trkpt lat="44.3065652" lon="8.4054907"><ele>62.0</ele><time>2026-04-26T10:53:03.473Z</time></trkpt><trkpt lat="44.306523" lon="8.4055855"><ele>62.0</ele><time>2026-04-26T10:53:04.473Z</time></trkpt><trkpt lat="44.3064827" lon="8.4056993"><ele>62.0</ele><time>2026-04-26T10:53:05.474Z</time></trkpt><trkpt lat="44.3064373" lon="8.4058293"><ele>62.0</ele><time>2026-04-26T10:53:06.476Z</time></trkpt><trkpt lat="44.3063797" lon="8.4059652"><ele>62.0</ele><time>2026-04-26T10:53:07.476Z</time></trkpt><trkpt lat="44.3063147" lon="8.4060942"><ele>62.6</ele><time>2026-04-26T10:53:08.48Z</time></trkpt><trkpt lat="44.3062443" lon="8.4062057"><ele>63.2</ele><time>2026-04-26T10:53:09.479Z</time></trkpt><trkpt lat="44.3061712" lon="8.4063008"><ele>63.8</ele><time>2026-04-26T10:53:10.479Z</time></trkpt><trkpt lat="44.3061052" lon="8.40639"><ele>64.4</ele><time>2026-04-26T10:53:11.477Z</time></trkpt><trkpt lat="44.3060517" lon="8.4064907"><ele>65.0</ele><time>2026-04-26T10:53:12.475Z</time></trkpt><trkpt lat="44.306005" lon="8.4065967"><ele>65.0</ele><time>2026-04-26T10:53:13.478Z</time></trkpt><trkpt lat="44.3059517" lon="8.4066972"><ele>65.0</ele><time>2026-04-26T10:53:14.48Z</time></trkpt><trkpt lat="44.3058918" lon="8.4067968"><ele>65.0</ele><time>2026-04-26T10:53:15.475Z</time></trkpt><trkpt lat="44.305829" lon="8.4068935"><ele>65.0</ele><time>2026-04-26T10:53:16.474Z</time></trkpt><trkpt lat="44.3057755" lon="8.4070008"><ele>65.0</ele><time>2026-04-26T10:53:17.475Z</time></trkpt><trkpt lat="44.3057335" lon="8.4071248"><ele>64.2</ele><time>2026-04-26T10:53:18.473Z</time></trkpt><trkpt lat="44.3056885" lon="8.4072553"><ele>63.4</ele><time>2026-04-26T10:53:19.475Z</time></trkpt><trkpt lat="44.3056425" lon="8.4073755"><ele>62.599999999999994</ele><time>2026-04-26T10:53:20.475Z</time></trkpt><trkpt lat="44.3055995" lon="8.4074845"><ele>61.8</ele><time>2026-04-26T10:53:21.475Z</time></trkpt><trkpt lat="44.305558" lon="8.407586"><ele>61.0</ele><time>2026-04-26T10:53:22.48Z</time></trkpt><trkpt lat="44.3055048" lon="8.4076812"><ele>60.199999999999996</ele><time>2026-04-26T10:53:23.48Z</time></trkpt><trkpt lat="44.3054433" lon="8.4077813"><ele>59.39999999999999</ele><time>2026-04-26T10:53:24.477Z</time></trkpt><trkpt lat="44.3053793" lon="8.4078943"><ele>58.6</ele><time>2026-04-26T10:53:25.474Z</time></trkpt><trkpt lat="44.3053175" lon="8.4080078"><ele>57.8</ele><time>2026-04-26T10:53:26.475Z</time></trkpt><trkpt lat="44.3052677" lon="8.4081098"><ele>57.0</ele><time>2026-04-26T10:53:27.475Z</time></trkpt><trkpt lat="44.3052248" lon="8.408198"><ele>57.0</ele><time>2026-04-26T10:53:28.473Z</time></trkpt><trkpt lat="44.3051607" lon="8.4083312"><ele>57.0</ele><time>2026-04-26T10:53:30.476Z</time></trkpt><trkpt lat="44.3051013" lon="8.4083987"><ele>57.0</ele><time>2026-04-26T10:53:31.475Z</time></trkpt><trkpt lat="44.3050232" lon="8.4084732"><ele>57.0</ele><time>2026-04-26T10:53:32.477Z</time></trkpt><trkpt lat="44.3049443" lon="8.4085562"><ele>57.0</ele><time>2026-04-26T10:53:33.476Z</time></trkpt><trkpt lat="44.3048705" lon="8.4086482"><ele>57.0</ele><time>2026-04-26T10:53:34.479Z</time></trkpt><trkpt lat="44.3048017" lon="8.408754"><ele>57.0</ele><time>2026-04-26T10:53:35.478Z</time></trkpt><trkpt lat="44.304742" lon="8.4088538"><ele>57.0</ele><time>2026-04-26T10:53:36.48Z</time></trkpt><trkpt lat="44.304688" lon="8.4089483"><ele>57.0</ele><time>2026-04-26T10:53:37.477Z</time></trkpt><trkpt lat="44.3046385" lon="8.4090353"><ele>57.0</ele><time>2026-04-26T10:53:38.475Z</time></trkpt><trkpt lat="44.3046" lon="8.4091197"><ele>57.0</ele><time>2026-04-26T10:53:39.477Z</time></trkpt><trkpt lat="44.3045588" lon="8.4092825"><ele>58.166666666666664</ele><time>2026-04-26T10:53:41.474Z</time></trkpt><trkpt lat="44.3045452" lon="8.4093855"><ele>59.33333333333333</ele><time>2026-04-26T10:53:42.473Z</time></trkpt><trkpt lat="44.3045242" lon="8.4094747"><ele>60.5</ele><time>2026-04-26T10:53:43.476Z</time></trkpt><trkpt lat="44.3044878" lon="8.4095612"><ele>61.666666666666664</ele><time>2026-04-26T10:53:44.475Z</time></trkpt><trkpt lat="44.3044415" lon="8.4096497"><ele>62.83333333333333</ele><time>2026-04-26T10:53:45.474Z</time></trkpt><trkpt lat="44.3043862" lon="8.4097455"><ele>64.0</ele><time>2026-04-26T10:53:46.474Z</time></trkpt><trkpt lat="44.3043262" lon="8.4098495"><ele>64.0</ele><time>2026-04-26T10:53:47.478Z</time></trkpt><trkpt lat="44.3042522" lon="8.4099628"><ele>64.0</ele><time>2026-04-26T10:53:48.476Z</time></trkpt><trkpt lat="44.3041693" lon="8.4100708"><ele>64.0</ele><time>2026-04-26T10:53:49.477Z</time></trkpt><trkpt lat="44.3040905" lon="8.4101683"><ele>64.0</ele><time>2026-04-26T10:53:50.475Z</time></trkpt><trkpt lat="44.3040125" lon="8.4102672"><ele>64.0</ele><time>2026-04-26T10:53:51.476Z</time></trkpt><trkpt lat="44.3039388" lon="8.4103733"><ele>65.60000000000001</ele><time>2026-04-26T10:53:52.476Z</time></trkpt><trkpt lat="44.3038713" lon="8.4104858"><ele>67.2</ele><time>2026-04-26T10:53:53.477Z</time></trkpt><trkpt lat="44.3038107" lon="8.4105848"><ele>68.80000000000001</ele><time>2026-04-26T10:53:54.479Z</time></trkpt><trkpt lat="44.3037575" lon="8.4106675"><ele>70.4</ele><time>2026-04-26T10:53:55.476Z</time></trkpt><trkpt lat="44.3037278" lon="8.4108155"><ele>72.0</ele><time>2026-04-26T10:53:57.476Z</time></trkpt><trkpt lat="44.3038047" lon="8.4109368"><ele>70.83333333333333</ele><time>2026-04-26T10:53:59.473Z</time></trkpt><trkpt lat="44.3038802" lon="8.4110542"><ele>69.66666666666667</ele><time>2026-04-26T10:54:01.474Z</time></trkpt><trkpt lat="44.3038497" lon="8.4111598"><ele>68.5</ele><time>2026-04-26T10:54:03.477Z</time></trkpt><trkpt lat="44.303794" lon="8.4112097"><ele>67.33333333333334</ele><time>2026-04-26T10:54:04.477Z</time></trkpt><trkpt lat="44.303725" lon="8.4112643"><ele>66.16666666666667</ele><time>2026-04-26T10:54:05.476Z</time></trkpt><trkpt lat="44.3036467" lon="8.4113387"><ele>65.0</ele><time>2026-04-26T10:54:06.474Z</time></trkpt><trkpt lat="44.303563" lon="8.4114222"><ele>65.0</ele><time>2026-04-26T10:54:07.474Z</time></trkpt><trkpt lat="44.3034775" lon="8.4115072"><ele>65.0</ele><time>2026-04-26T10:54:08.478Z</time></trkpt><trkpt lat="44.303392" lon="8.4115702"><ele>65.0</ele><time>2026-04-26T10:54:09.475Z</time></trkpt><trkpt lat="44.3033118" lon="8.4116162"><ele>65.0</ele><time>2026-04-26T10:54:10.476Z</time></trkpt><trkpt lat="44.3032325" lon="8.4116405"><ele>65.0</ele><time>2026-04-26T10:54:11.476Z</time></trkpt><trkpt lat="44.3031428" lon="8.4116305"><ele>67.8</ele><time>2026-04-26T10:54:12.475Z</time></trkpt><trkpt lat="44.3030413" lon="8.4115903"><ele>70.6</ele><time>2026-04-26T10:54:13.475Z</time></trkpt><trkpt lat="44.3029392" lon="8.4115317"><ele>73.4</ele><time>2026-04-26T10:54:14.475Z</time></trkpt><trkpt lat="44.3028485" lon="8.4114578"><ele>76.2</ele><time>2026-04-26T10:54:15.476Z</time></trkpt><trkpt lat="44.3027728" lon="8.4113722"><ele>79.0</ele><time>2026-04-26T10:54:16.475Z</time></trkpt><trkpt lat="44.3027113" lon="8.4112793"><ele>74.16666666666666</ele><time>2026-04-26T10:54:17.475Z</time></trkpt><trkpt lat="44.3026598" lon="8.4111885"><ele>69.33333333333333</ele><time>2026-04-26T10:54:18.473Z</time></trkpt><trkpt lat="44.3026113" lon="8.4111038"><ele>64.5</ele><time>2026-04-26T10:54:19.478Z</time></trkpt><trkpt lat="44.3025605" lon="8.4110162"><ele>59.66666666666667</ele><time>2026-04-26T10:54:20.478Z</time></trkpt><trkpt lat="44.3025082" lon="8.4109292"><ele>54.833333333333336</ele><time>2026-04-26T10:54:21.475Z</time></trkpt><trkpt lat="44.3024578" lon="8.4108505"><ele>50.0</ele><time>2026-04-26T10:54:22.475Z</time></trkpt><trkpt lat="44.3024118" lon="8.4107788"><ele>50.00000000000001</ele><time>2026-04-26T10:54:23.474Z</time></trkpt><trkpt lat="44.3023658" lon="8.4107102"><ele>50.0</ele><time>2026-04-26T10:54:24.474Z</time></trkpt><trkpt lat="44.3023207" lon="8.4106397"><ele>50.0</ele><time>2026-04-26T10:54:25.474Z</time></trkpt><trkpt lat="44.3022743" lon="8.4105635"><ele>50.0</ele><time>2026-04-26T10:54:26.474Z</time></trkpt><trkpt lat="44.302215" lon="8.410477"><ele>50.00000000000001</ele><time>2026-04-26T10:54:27.474Z</time></trkpt><trkpt lat="44.3021417" lon="8.4103945"><ele>50.0</ele><time>2026-04-26T10:54:28.475Z</time></trkpt><trkpt lat="44.3020685" lon="8.4103233"><ele>49.00000000000001</ele><time>2026-04-26T10:54:29.474Z</time></trkpt><trkpt lat="44.3019988" lon="8.4102685"><ele>48.0</ele><time>2026-04-26T10:54:30.474Z</time></trkpt><trkpt lat="44.3019298" lon="8.4102323"><ele>47.0</ele><time>2026-04-26T10:54:31.479Z</time></trkpt><trkpt lat="44.301852" lon="8.4102058"><ele>46.0</ele><time>2026-04-26T10:54:32.478Z</time></trkpt><trkpt lat="44.3017677" lon="8.4101828"><ele>45.0</ele><time>2026-04-26T10:54:33.476Z</time></trkpt><trkpt lat="44.3016767" lon="8.4101578"><ele>44.0</ele><time>2026-04-26T10:54:34.477Z</time></trkpt><trkpt lat="44.3015842" lon="8.4101345"><ele>44.0</ele><time>2026-04-26T10:54:35.474Z</time></trkpt><trkpt lat="44.3014935" lon="8.4101072"><ele>44.0</ele><time>2026-04-26T10:54:36.473Z</time></trkpt><trkpt lat="44.3014043" lon="8.410075"><ele>44.0</ele><time>2026-04-26T10:54:37.475Z</time></trkpt><trkpt lat="44.3013075" lon="8.4100428"><ele>44.0</ele><time>2026-04-26T10:54:38.475Z</time></trkpt><trkpt lat="44.3011995" lon="8.4100195"><ele>44.0</ele><time>2026-04-26T10:54:39.473Z</time></trkpt><trkpt lat="44.3010803" lon="8.4100033"><ele>42.75</ele><time>2026-04-26T10:54:40.473Z</time></trkpt><trkpt lat="44.3009698" lon="8.4099962"><ele>41.5</ele><time>2026-04-26T10:54:41.473Z</time></trkpt><trkpt lat="44.3008618" lon="8.4100037"><ele>40.25</ele><time>2026-04-26T10:54:42.477Z</time></trkpt><trkpt lat="44.3007492" lon="8.4100345"><ele>39.0</ele><time>2026-04-26T10:54:43.476Z</time></trkpt><trkpt lat="44.3006277" lon="8.4100678"><ele>37.75</ele><time>2026-04-26T10:54:44.477Z</time></trkpt><trkpt lat="44.3004938" lon="8.4100875"><ele>36.5</ele><time>2026-04-26T10:54:45.475Z</time></trkpt><trkpt lat="44.300363" lon="8.4100958"><ele>35.25</ele><time>2026-04-26T10:54:46.477Z</time></trkpt><trkpt lat="44.3002515" lon="8.4100975"><ele>34.0</ele><time>2026-04-26T10:54:47.477Z</time></trkpt><trkpt lat="44.3001597" lon="8.4101038"><ele>34.0</ele><time>2026-04-26T10:54:48.475Z</time></trkpt><trkpt lat="44.300083" lon="8.4101312"><ele>34.0</ele><time>2026-04-26T10:54:49.476Z</time></trkpt><trkpt lat="44.3000193" lon="8.4101948"><ele>34.0</ele><time>2026-04-26T10:54:50.485Z</time></trkpt><trkpt lat="44.29996" lon="8.4103003"><ele>34.0</ele><time>2026-04-26T10:54:51.48Z</time></trkpt><trkpt lat="44.2999008" lon="8.4104393"><ele>34.0</ele><time>2026-04-26T10:54:52.479Z</time></trkpt><trkpt lat="44.2998362" lon="8.4105985"><ele>34.25</ele><time>2026-04-26T10:54:53.478Z</time></trkpt><trkpt lat="44.299768" lon="8.4107638"><ele>34.5</ele><time>2026-04-26T10:54:54.476Z</time></trkpt><trkpt lat="44.2996978" lon="8.4109387"><ele>34.75</ele><time>2026-04-26T10:54:55.479Z</time></trkpt><trkpt lat="44.2996292" lon="8.4111097"><ele>35.0</ele><time>2026-04-26T10:54:56.48Z</time></trkpt><trkpt lat="44.299568" lon="8.4112608"><ele>35.6</ele><time>2026-04-26T10:54:57.476Z</time></trkpt><trkpt lat="44.2995103" lon="8.411393"><ele>36.2</ele><time>2026-04-26T10:54:58.476Z</time></trkpt><trkpt lat="44.2994452" lon="8.4115048"><ele>36.8</ele><time>2026-04-26T10:54:59.477Z</time></trkpt><trkpt lat="44.2993583" lon="8.4115832"><ele>37.4</ele><time>2026-04-26T10:55:00.475Z</time></trkpt><trkpt lat="44.2992462" lon="8.4116152"><ele>38.0</ele><time>2026-04-26T10:55:01.476Z</time></trkpt><trkpt lat="44.2991092" lon="8.4116072"><ele>38.0</ele><time>2026-04-26T10:55:02.474Z</time></trkpt><trkpt lat="44.2989615" lon="8.4115835"><ele>38.0</ele><time>2026-04-26T10:55:03.476Z</time></trkpt><trkpt lat="44.2988325" lon="8.4115577"><ele>38.0</ele><time>2026-04-26T10:55:04.475Z</time></trkpt><trkpt lat="44.2987168" lon="8.4115325"><ele>38.0</ele><time>2026-04-26T10:55:05.475Z</time></trkpt><trkpt lat="44.2986025" lon="8.4115193"><ele>36.6</ele><time>2026-04-26T10:55:06.474Z</time></trkpt><trkpt lat="44.2984875" lon="8.4115333"><ele>35.199999999999996</ele><time>2026-04-26T10:55:07.481Z</time></trkpt><trkpt lat="44.2983842" lon="8.4115722"><ele>33.8</ele><time>2026-04-26T10:55:08.48Z</time></trkpt><trkpt lat="44.2982897" lon="8.4116347"><ele>32.4</ele><time>2026-04-26T10:55:09.479Z</time></trkpt><trkpt lat="44.2982012" lon="8.4117132"><ele>31.0</ele><time>2026-04-26T10:55:10.477Z</time></trkpt><trkpt lat="44.2981277" lon="8.4118232"><ele>32.0</ele><time>2026-04-26T10:55:11.48Z</time></trkpt><trkpt lat="44.2980725" lon="8.4119698"><ele>33.0</ele><time>2026-04-26T10:55:12.477Z</time></trkpt><trkpt lat="44.2980338" lon="8.4121497"><ele>34.0</ele><time>2026-04-26T10:55:13.479Z</time></trkpt><trkpt lat="44.2979998" lon="8.4123395"><ele>35.0</ele><time>2026-04-26T10:55:14.477Z</time></trkpt><trkpt lat="44.2979647" lon="8.4125225"><ele>35.0</ele><time>2026-04-26T10:55:15.477Z</time></trkpt><trkpt lat="44.2979308" lon="8.4126955"><ele>35.0</ele><time>2026-04-26T10:55:16.477Z</time></trkpt><trkpt lat="44.2978998" lon="8.4128692"><ele>35.0</ele><time>2026-04-26T10:55:17.478Z</time></trkpt><trkpt lat="44.2978703" lon="8.4130467"><ele>35.0</ele><time>2026-04-26T10:55:18.479Z</time></trkpt><trkpt lat="44.2978415" lon="8.4132272"><ele>33.75</ele><time>2026-04-26T10:55:19.477Z</time></trkpt><trkpt lat="44.2978123" lon="8.4134022"><ele>32.5</ele><time>2026-04-26T10:55:20.476Z</time></trkpt><trkpt lat="44.297785" lon="8.4135638"><ele>31.25</ele><time>2026-04-26T10:55:21.48Z</time></trkpt><trkpt lat="44.2977558" lon="8.413724"><ele>30.0</ele><time>2026-04-26T10:55:22.478Z</time></trkpt><trkpt lat="44.2977195" lon="8.4138765"><ele>30.0</ele><time>2026-04-26T10:55:23.477Z</time></trkpt><trkpt lat="44.2976682" lon="8.4140228"><ele>30.0</ele><time>2026-04-26T10:55:24.478Z</time></trkpt><trkpt lat="44.2976038" lon="8.414169"><ele>30.0</ele><time>2026-04-26T10:55:25.48Z</time></trkpt><trkpt lat="44.2975308" lon="8.4143152"><ele>30.0</ele><time>2026-04-26T10:55:26.478Z</time></trkpt><trkpt lat="44.2974522" lon="8.4144535"><ele>30.0</ele><time>2026-04-26T10:55:27.478Z</time></trkpt><trkpt lat="44.2973705" lon="8.4145705"><ele>30.0</ele><time>2026-04-26T10:55:28.478Z</time></trkpt><trkpt lat="44.2972843" lon="8.4146652"><ele>30.0</ele><time>2026-04-26T10:55:29.478Z</time></trkpt><trkpt lat="44.2971913" lon="8.4147407"><ele>30.0</ele><time>2026-04-26T10:55:30.477Z</time></trkpt><trkpt lat="44.2970925" lon="8.4148075"><ele>30.0</ele><time>2026-04-26T10:55:31.475Z</time></trkpt><trkpt lat="44.2969918" lon="8.4148742"><ele>29.0</ele><time>2026-04-26T10:55:32.48Z</time></trkpt><trkpt lat="44.2968967" lon="8.4149348"><ele>28.0</ele><time>2026-04-26T10:55:33.478Z</time></trkpt><trkpt lat="44.296809" lon="8.4149883"><ele>27.0</ele><time>2026-04-26T10:55:34.479Z</time></trkpt><trkpt lat="44.2967278" lon="8.4150323"><ele>26.0</ele><time>2026-04-26T10:55:35.48Z</time></trkpt><trkpt lat="44.2966468" lon="8.4150732"><ele>25.0</ele><time>2026-04-26T10:55:36.48Z</time></trkpt><trkpt lat="44.296562" lon="8.4151178"><ele>25.0</ele><time>2026-04-26T10:55:37.479Z</time></trkpt><trkpt lat="44.2964755" lon="8.4151675"><ele>25.0</ele><time>2026-04-26T10:55:38.48Z</time></trkpt><trkpt lat="44.296385" lon="8.4152193"><ele>25.0</ele><time>2026-04-26T10:55:39.481Z</time></trkpt><trkpt lat="44.2962892" lon="8.4152732"><ele>25.0</ele><time>2026-04-26T10:55:40.482Z</time></trkpt><trkpt lat="44.2961907" lon="8.41533"><ele>25.0</ele><time>2026-04-26T10:55:41.48Z</time></trkpt><trkpt lat="44.2960922" lon="8.4153862"><ele>24.6</ele><time>2026-04-26T10:55:42.477Z</time></trkpt><trkpt lat="44.2959908" lon="8.4154317"><ele>24.2</ele><time>2026-04-26T10:55:43.482Z</time></trkpt><trkpt lat="44.2958862" lon="8.4154505"><ele>23.799999999999997</ele><time>2026-04-26T10:55:44.485Z</time></trkpt><trkpt lat="44.2957772" lon="8.4154305"><ele>23.4</ele><time>2026-04-26T10:55:45.481Z</time></trkpt><trkpt lat="44.2956648" lon="8.4153757"><ele>23.0</ele><time>2026-04-26T10:55:46.482Z</time></trkpt><trkpt lat="44.2955493" lon="8.4153175"><ele>23.0</ele><time>2026-04-26T10:55:47.48Z</time></trkpt><trkpt lat="44.2954313" lon="8.4152648"><ele>23.0</ele><time>2026-04-26T10:55:48.481Z</time></trkpt><trkpt lat="44.2953027" lon="8.4152238"><ele>23.0</ele><time>2026-04-26T10:55:49.481Z</time></trkpt><trkpt lat="44.2951638" lon="8.4151962"><ele>23.0</ele><time>2026-04-26T10:55:50.48Z</time></trkpt><trkpt lat="44.2950237" lon="8.4151735"><ele>23.0</ele><time>2026-04-26T10:55:51.481Z</time></trkpt><trkpt lat="44.29487" lon="8.4151575"><ele>23.0</ele><time>2026-04-26T10:55:52.479Z</time></trkpt><trkpt lat="44.294725" lon="8.4151595"><ele>23.0</ele><time>2026-04-26T10:55:53.477Z</time></trkpt><trkpt lat="44.2945837" lon="8.4151737"><ele>23.0</ele><time>2026-04-26T10:55:54.479Z</time></trkpt><trkpt lat="44.2944538" lon="8.4151935"><ele>23.25</ele><time>2026-04-26T10:55:55.479Z</time></trkpt><trkpt lat="44.2943392" lon="8.4152305"><ele>23.5</ele><time>2026-04-26T10:55:56.482Z</time></trkpt><trkpt lat="44.2942413" lon="8.4153015"><ele>23.75</ele><time>2026-04-26T10:55:57.478Z</time></trkpt><trkpt lat="44.2941597" lon="8.4154178"><ele>24.0</ele><time>2026-04-26T10:55:58.48Z</time></trkpt><trkpt lat="44.2940922" lon="8.4155748"><ele>23.75</ele><time>2026-04-26T10:55:59.477Z</time></trkpt><trkpt lat="44.294023" lon="8.4157523"><ele>23.5</ele><time>2026-04-26T10:56:00.478Z</time></trkpt><trkpt lat="44.2939607" lon="8.415914"><ele>23.25</ele><time>2026-04-26T10:56:01.479Z</time></trkpt><trkpt lat="44.2939067" lon="8.4160595"><ele>23.0</ele><time>2026-04-26T10:56:02.478Z</time></trkpt><trkpt lat="44.2938517" lon="8.4161988"><ele>22.75</ele><time>2026-04-26T10:56:03.48Z</time></trkpt><trkpt lat="44.2937768" lon="8.4163457"><ele>22.5</ele><time>2026-04-26T10:56:04.48Z</time></trkpt><trkpt lat="44.2936848" lon="8.4165028"><ele>22.25</ele><time>2026-04-26T10:56:05.477Z</time></trkpt><trkpt lat="44.2935863" lon="8.4166668"><ele>22.0</ele><time>2026-04-26T10:56:06.478Z</time></trkpt><trkpt lat="44.2934797" lon="8.4168432"><ele>22.0</ele><time>2026-04-26T10:56:07.48Z</time></trkpt><trkpt lat="44.2933785" lon="8.4170032"><ele>22.0</ele><time>2026-04-26T10:56:08.48Z</time></trkpt><trkpt lat="44.2932852" lon="8.417149"><ele>22.0</ele><time>2026-04-26T10:56:09.479Z</time></trkpt><trkpt lat="44.2931932" lon="8.4172758"><ele>22.0</ele><time>2026-04-26T10:56:10.479Z</time></trkpt><trkpt lat="44.2930853" lon="8.4173832"><ele>21.5</ele><time>2026-04-26T10:56:11.477Z</time></trkpt><trkpt lat="44.2929598" lon="8.417468"><ele>21.0</ele><time>2026-04-26T10:56:12.477Z</time></trkpt><trkpt lat="44.2928222" lon="8.4175305"><ele>20.5</ele><time>2026-04-26T10:56:13.478Z</time></trkpt><trkpt lat="44.2926823" lon="8.4175722"><ele>20.0</ele><time>2026-04-26T10:56:14.481Z</time></trkpt><trkpt lat="44.2925513" lon="8.4176008"><ele>20.0</ele><time>2026-04-26T10:56:15.482Z</time></trkpt><trkpt lat="44.2924337" lon="8.4176177"><ele>20.0</ele><time>2026-04-26T10:56:16.48Z</time></trkpt><trkpt lat="44.2923247" lon="8.4176192"><ele>20.0</ele><time>2026-04-26T10:56:17.479Z</time></trkpt><trkpt lat="44.2922212" lon="8.4176065"><ele>20.0</ele><time>2026-04-26T10:56:18.479Z</time></trkpt><trkpt lat="44.2921245" lon="8.4175925"><ele>20.0</ele><time>2026-04-26T10:56:19.478Z</time></trkpt><trkpt lat="44.2920227" lon="8.4175798"><ele>19.833333333333336</ele><time>2026-04-26T10:56:20.475Z</time></trkpt><trkpt lat="44.2919175" lon="8.4175712"><ele>19.666666666666668</ele><time>2026-04-26T10:56:21.479Z</time></trkpt><trkpt lat="44.2918293" lon="8.4175672"><ele>19.5</ele><time>2026-04-26T10:56:22.481Z</time></trkpt><trkpt lat="44.2917603" lon="8.417557"><ele>19.333333333333332</ele><time>2026-04-26T10:56:23.477Z</time></trkpt><trkpt lat="44.2916668" lon="8.4175288"><ele>19.166666666666664</ele><time>2026-04-26T10:56:25.48Z</time></trkpt><trkpt lat="44.2915767" lon="8.4175387"><ele>19.0</ele><time>2026-04-26T10:57:02.479Z</time></trkpt><trkpt lat="44.2915133" lon="8.4176678"><ele>19.0</ele><time>2026-04-26T10:57:04.478Z</time></trkpt><trkpt lat="44.2914808" lon="8.41778"><ele>19.0</ele><time>2026-04-26T10:57:05.478Z</time></trkpt><trkpt lat="44.2914453" lon="8.4179065"><ele>19.0</ele><time>2026-04-26T10:57:06.478Z</time></trkpt><trkpt lat="44.2914092" lon="8.4180402"><ele>19.0</ele><time>2026-04-26T10:57:07.476Z</time></trkpt><trkpt lat="44.2913655" lon="8.4181905"><ele>19.0</ele><time>2026-04-26T10:57:08.48Z</time></trkpt><trkpt lat="44.2913153" lon="8.4183535"><ele>18.25</ele><time>2026-04-26T10:57:09.48Z</time></trkpt><trkpt lat="44.2912575" lon="8.4185232"><ele>17.5</ele><time>2026-04-26T10:57:10.481Z</time></trkpt><trkpt lat="44.2911955" lon="8.4186877"><ele>16.75</ele><time>2026-04-26T10:57:11.482Z</time></trkpt><trkpt lat="44.2911258" lon="8.4188503"><ele>16.0</ele><time>2026-04-26T10:57:12.481Z</time></trkpt><trkpt lat="44.2910495" lon="8.4190128"><ele>16.0</ele><time>2026-04-26T10:57:13.48Z</time></trkpt><trkpt lat="44.290969" lon="8.4191735"><ele>16.0</ele><time>2026-04-26T10:57:14.478Z</time></trkpt><trkpt lat="44.290886" lon="8.4193323"><ele>16.0</ele><time>2026-04-26T10:57:15.495Z</time></trkpt><trkpt lat="44.2908032" lon="8.4194912"><ele>16.0</ele><time>2026-04-26T10:57:16.478Z</time></trkpt><trkpt lat="44.2907175" lon="8.4196518"><ele>16.666666666666664</ele><time>2026-04-26T10:57:17.482Z</time></trkpt><trkpt lat="44.2906298" lon="8.4198177"><ele>17.333333333333332</ele><time>2026-04-26T10:57:18.481Z</time></trkpt><trkpt lat="44.2905417" lon="8.419988"><ele>18.0</ele><time>2026-04-26T10:57:19.483Z</time></trkpt><trkpt lat="44.2904553" lon="8.4201642"><ele>17.0</ele><time>2026-04-26T10:57:20.479Z</time></trkpt><trkpt lat="44.2903722" lon="8.4203503"><ele>16.0</ele><time>2026-04-26T10:57:21.479Z</time></trkpt><trkpt lat="44.2902958" lon="8.4205513"><ele>15.0</ele><time>2026-04-26T10:57:22.479Z</time></trkpt><trkpt lat="44.2902233" lon="8.420769"><ele>15.0</ele><time>2026-04-26T10:57:23.477Z</time></trkpt><trkpt lat="44.2901543" lon="8.4209897"><ele>15.0</ele><time>2026-04-26T10:57:24.477Z</time></trkpt><trkpt lat="44.2900847" lon="8.4212167"><ele>15.0</ele><time>2026-04-26T10:57:25.477Z</time></trkpt><trkpt lat="44.2900155" lon="8.4214425"><ele>16.333333333333332</ele><time>2026-04-26T10:57:26.481Z</time></trkpt><trkpt lat="44.2899482" lon="8.4216582"><ele>17.666666666666664</ele><time>2026-04-26T10:57:27.48Z</time></trkpt><trkpt lat="44.289884" lon="8.4218655"><ele>19.0</ele><time>2026-04-26T10:57:28.481Z</time></trkpt><trkpt lat="44.2898252" lon="8.4220708"><ele>18.666666666666664</ele><time>2026-04-26T10:57:29.479Z</time></trkpt><trkpt lat="44.2897615" lon="8.4222747"><ele>18.333333333333332</ele><time>2026-04-26T10:57:30.478Z</time></trkpt><trkpt lat="44.2896993" lon="8.4224745"><ele>18.0</ele><time>2026-04-26T10:57:31.476Z</time></trkpt><trkpt lat="44.2896382" lon="8.4226698"><ele>17.5</ele><time>2026-04-26T10:57:32.475Z</time></trkpt><trkpt lat="44.2895777" lon="8.4228615"><ele>17.0</ele><time>2026-04-26T10:57:33.477Z</time></trkpt><trkpt lat="44.2895193" lon="8.4230477"><ele>16.5</ele><time>2026-04-26T10:57:34.478Z</time></trkpt><trkpt lat="44.2894627" lon="8.4232245"><ele>16.0</ele><time>2026-04-26T10:57:35.477Z</time></trkpt><trkpt lat="44.2894092" lon="8.4233902"><ele>16.0</ele><time>2026-04-26T10:57:36.478Z</time></trkpt><trkpt lat="44.2893583" lon="8.423545"><ele>16.0</ele><time>2026-04-26T10:57:37.481Z</time></trkpt><trkpt lat="44.2893077" lon="8.4236958"><ele>16.0</ele><time>2026-04-26T10:57:38.481Z</time></trkpt><trkpt lat="44.2892533" lon="8.423849"><ele>16.0</ele><time>2026-04-26T10:57:39.48Z</time></trkpt><trkpt lat="44.2891948" lon="8.4240073"><ele>16.0</ele><time>2026-04-26T10:57:40.478Z</time></trkpt><trkpt lat="44.2891323" lon="8.4241683"><ele>16.0</ele><time>2026-04-26T10:57:41.482Z</time></trkpt><trkpt lat="44.2890643" lon="8.4243275"><ele>16.0</ele><time>2026-04-26T10:57:42.476Z</time></trkpt><trkpt lat="44.2889977" lon="8.4244945"><ele>16.0</ele><time>2026-04-26T10:57:43.479Z</time></trkpt><trkpt lat="44.2889335" lon="8.4246692"><ele>14.75</ele><time>2026-04-26T10:57:44.478Z</time></trkpt><trkpt lat="44.2888675" lon="8.4248478"><ele>13.5</ele><time>2026-04-26T10:57:45.479Z</time></trkpt><trkpt lat="44.2888012" lon="8.4250232"><ele>12.25</ele><time>2026-04-26T10:57:46.479Z</time></trkpt><trkpt lat="44.2887385" lon="8.4251973"><ele>11.0</ele><time>2026-04-26T10:57:47.477Z</time></trkpt><trkpt lat="44.2886813" lon="8.425371"><ele>11.25</ele><time>2026-04-26T10:57:48.479Z</time></trkpt><trkpt lat="44.2886277" lon="8.4255492"><ele>11.5</ele><time>2026-04-26T10:57:49.483Z</time></trkpt><trkpt lat="44.2885762" lon="8.4257337"><ele>11.75</ele><time>2026-04-26T10:57:50.484Z</time></trkpt><trkpt lat="44.2885268" lon="8.4259252"><ele>12.0</ele><time>2026-04-26T10:57:51.483Z</time></trkpt><trkpt lat="44.2884778" lon="8.4261182"><ele>12.0</ele><time>2026-04-26T10:57:52.477Z</time></trkpt><trkpt lat="44.2884278" lon="8.4263102"><ele>12.0</ele><time>2026-04-26T10:57:53.482Z</time></trkpt><trkpt lat="44.2883792" lon="8.4265005"><ele>12.0</ele><time>2026-04-26T10:57:54.477Z</time></trkpt><trkpt lat="44.28833" lon="8.4266925"><ele>12.0</ele><time>2026-04-26T10:57:55.48Z</time></trkpt><trkpt lat="44.2882802" lon="8.4268845"><ele>12.0</ele><time>2026-04-26T10:57:56.478Z</time></trkpt><trkpt lat="44.2882297" lon="8.4270748"><ele>12.0</ele><time>2026-04-26T10:57:57.477Z</time></trkpt><trkpt lat="44.2881807" lon="8.4272657"><ele>12.0</ele><time>2026-04-26T10:57:58.477Z</time></trkpt><trkpt lat="44.2881337" lon="8.4274597"><ele>12.0</ele><time>2026-04-26T10:57:59.48Z</time></trkpt><trkpt lat="44.2880865" lon="8.4276552"><ele>11.25</ele><time>2026-04-26T10:58:00.48Z</time></trkpt><trkpt lat="44.2880387" lon="8.4278507"><ele>10.5</ele><time>2026-04-26T10:58:01.48Z</time></trkpt><trkpt lat="44.287989" lon="8.4280463"><ele>9.75</ele><time>2026-04-26T10:58:02.483Z</time></trkpt><trkpt lat="44.2879378" lon="8.4282428"><ele>9.0</ele><time>2026-04-26T10:58:03.483Z</time></trkpt><trkpt lat="44.2878855" lon="8.42844"><ele>9.0</ele><time>2026-04-26T10:58:04.484Z</time></trkpt><trkpt lat="44.2878333" lon="8.4286397"><ele>9.0</ele><time>2026-04-26T10:58:05.483Z</time></trkpt><trkpt lat="44.2877817" lon="8.4288393"><ele>9.0</ele><time>2026-04-26T10:58:06.484Z</time></trkpt><trkpt lat="44.287729" lon="8.4290407"><ele>9.333333333333334</ele><time>2026-04-26T10:58:07.486Z</time></trkpt><trkpt lat="44.2876772" lon="8.4292392"><ele>9.666666666666668</ele><time>2026-04-26T10:58:08.485Z</time></trkpt><trkpt lat="44.2876255" lon="8.4294443"><ele>10.0</ele><time>2026-04-26T10:58:09.481Z</time></trkpt><trkpt lat="44.2875723" lon="8.4296537"><ele>10.0</ele><time>2026-04-26T10:58:10.481Z</time></trkpt><trkpt lat="44.287518" lon="8.4298635"><ele>10.0</ele><time>2026-04-26T10:58:11.482Z</time></trkpt><trkpt lat="44.2874633" lon="8.4300725"><ele>10.0</ele><time>2026-04-26T10:58:12.481Z</time></trkpt><trkpt lat="44.2874088" lon="8.4302807"><ele>10.333333333333334</ele><time>2026-04-26T10:58:13.482Z</time></trkpt><trkpt lat="44.2873548" lon="8.430487"><ele>10.666666666666666</ele><time>2026-04-26T10:58:14.481Z</time></trkpt><trkpt lat="44.2872998" lon="8.4306907"><ele>11.0</ele><time>2026-04-26T10:58:15.481Z</time></trkpt><trkpt lat="44.2872403" lon="8.4308867"><ele>10.333333333333332</ele><time>2026-04-26T10:58:16.487Z</time></trkpt><trkpt lat="44.2871697" lon="8.4310785"><ele>9.666666666666666</ele><time>2026-04-26T10:58:17.486Z</time></trkpt><trkpt lat="44.2870882" lon="8.4312653"><ele>9.0</ele><time>2026-04-26T10:58:18.486Z</time></trkpt><trkpt lat="44.2869982" lon="8.4314482"><ele>8.666666666666666</ele><time>2026-04-26T10:58:19.48Z</time></trkpt><trkpt lat="44.2869028" lon="8.4316263"><ele>8.333333333333332</ele><time>2026-04-26T10:58:20.48Z</time></trkpt><trkpt lat="44.2868078" lon="8.4317993"><ele>8.0</ele><time>2026-04-26T10:58:21.48Z</time></trkpt><trkpt lat="44.2867145" lon="8.4319717"><ele>8.0</ele><time>2026-04-26T10:58:22.48Z</time></trkpt><trkpt lat="44.2866262" lon="8.4321367"><ele>8.0</ele><time>2026-04-26T10:58:23.481Z</time></trkpt><trkpt lat="44.286545" lon="8.4322903"><ele>8.0</ele><time>2026-04-26T10:58:24.479Z</time></trkpt><trkpt lat="44.2864682" lon="8.4324303"><ele>8.0</ele><time>2026-04-26T10:58:25.478Z</time></trkpt><trkpt lat="44.286396" lon="8.4325587"><ele>7.999999999999999</ele><time>2026-04-26T10:58:26.482Z</time></trkpt><trkpt lat="44.2863352" lon="8.4326725"><ele>8.0</ele><time>2026-04-26T10:58:27.483Z</time></trkpt><trkpt lat="44.2862802" lon="8.4327703"><ele>8.0</ele><time>2026-04-26T10:58:28.482Z</time></trkpt><trkpt lat="44.2862293" lon="8.4328485"><ele>8.0</ele><time>2026-04-26T10:58:29.483Z</time></trkpt><trkpt lat="44.28618" lon="8.4329055"><ele>7.999999999999999</ele><time>2026-04-26T10:58:30.482Z</time></trkpt><trkpt lat="44.2860715" lon="8.4329412"><ele>8.0</ele><time>2026-04-26T10:58:32.478Z</time></trkpt><trkpt lat="44.2859563" lon="8.4328383"><ele>8.0</ele><time>2026-04-26T10:58:34.483Z</time></trkpt><trkpt lat="44.2858888" lon="8.4327423"><ele>8.0</ele><time>2026-04-26T10:58:35.479Z</time></trkpt><trkpt lat="44.2858167" lon="8.4326335"><ele>8.0</ele><time>2026-04-26T10:58:36.481Z</time></trkpt><trkpt lat="44.2857348" lon="8.4325125"><ele>8.0</ele><time>2026-04-26T10:58:37.479Z</time></trkpt><trkpt lat="44.2856513" lon="8.43239"><ele>8.0</ele><time>2026-04-26T10:58:38.481Z</time></trkpt><trkpt lat="44.2855682" lon="8.4322677"><ele>8.25</ele><time>2026-04-26T10:58:39.479Z</time></trkpt><trkpt lat="44.2854873" lon="8.4321457"><ele>8.5</ele><time>2026-04-26T10:58:40.481Z</time></trkpt><trkpt lat="44.2854067" lon="8.4320217"><ele>8.75</ele><time>2026-04-26T10:58:41.478Z</time></trkpt><trkpt lat="44.2853263" lon="8.4318982"><ele>9.0</ele><time>2026-04-26T10:58:42.481Z</time></trkpt><trkpt lat="44.2852458" lon="8.4317737"><ele>8.75</ele><time>2026-04-26T10:58:43.479Z</time></trkpt><trkpt lat="44.2851647" lon="8.4316485"><ele>8.5</ele><time>2026-04-26T10:58:44.479Z</time></trkpt><trkpt lat="44.285082" lon="8.4315235"><ele>8.25</ele><time>2026-04-26T10:58:45.479Z</time></trkpt><trkpt lat="44.2849978" lon="8.431404"><ele>8.0</ele><time>2026-04-26T10:58:46.48Z</time></trkpt><trkpt lat="44.28492" lon="8.4312928"><ele>8.0</ele><time>2026-04-26T10:58:47.481Z</time></trkpt><trkpt lat="44.284841" lon="8.4311818"><ele>8.0</ele><time>2026-04-26T10:58:48.485Z</time></trkpt><trkpt lat="44.2847608" lon="8.4310708"><ele>8.0</ele><time>2026-04-26T10:58:49.483Z</time></trkpt><trkpt lat="44.2846808" lon="8.4309608"><ele>8.0</ele><time>2026-04-26T10:58:50.48Z</time></trkpt><trkpt lat="44.2846085" lon="8.4308562"><ele>8.0</ele><time>2026-04-26T10:58:51.482Z</time></trkpt><trkpt lat="44.2845477" lon="8.430759"><ele>8.200000000000001</ele><time>2026-04-26T10:58:52.481Z</time></trkpt><trkpt lat="44.2844892" lon="8.4306683"><ele>8.4</ele><time>2026-04-26T10:58:53.478Z</time></trkpt><trkpt lat="44.2844355" lon="8.4305883"><ele>8.600000000000001</ele><time>2026-04-26T10:58:54.478Z</time></trkpt><trkpt lat="44.2843553" lon="8.4304765"><ele>8.8</ele><time>2026-04-26T10:58:56.478Z</time></trkpt><trkpt lat="44.2842695" lon="8.4304733"><ele>9.0</ele><time>2026-04-26T10:58:58.478Z</time></trkpt><trkpt lat="44.2841778" lon="8.4306258"><ele>9.25</ele><time>2026-04-26T10:59:00.479Z</time></trkpt><trkpt lat="44.2841213" lon="8.4307363"><ele>9.5</ele><time>2026-04-26T10:59:01.481Z</time></trkpt><trkpt lat="44.2840547" lon="8.4308577"><ele>9.75</ele><time>2026-04-26T10:59:02.48Z</time></trkpt><trkpt lat="44.2839767" lon="8.430992"><ele>10.0</ele><time>2026-04-26T10:59:03.486Z</time></trkpt><trkpt lat="44.283894" lon="8.4311343"><ele>9.5</ele><time>2026-04-26T10:59:04.484Z</time></trkpt><trkpt lat="44.2838098" lon="8.4312735"><ele>9.0</ele><time>2026-04-26T10:59:05.481Z</time></trkpt><trkpt lat="44.2837288" lon="8.4314003"><ele>8.5</ele><time>2026-04-26T10:59:06.482Z</time></trkpt><trkpt lat="44.283644" lon="8.4315178"><ele>8.0</ele><time>2026-04-26T10:59:07.481Z</time></trkpt><trkpt lat="44.2835433" lon="8.4316308"><ele>7.75</ele><time>2026-04-26T10:59:08.479Z</time></trkpt><trkpt lat="44.2834348" lon="8.4317338"><ele>7.5</ele><time>2026-04-26T10:59:09.478Z</time></trkpt><trkpt lat="44.2833175" lon="8.4318297"><ele>7.25</ele><time>2026-04-26T10:59:10.481Z</time></trkpt><trkpt lat="44.2831973" lon="8.4319198"><ele>7.0</ele><time>2026-04-26T10:59:11.476Z</time></trkpt><trkpt lat="44.2830813" lon="8.4320103"><ele>7.0</ele><time>2026-04-26T10:59:12.477Z</time></trkpt><trkpt lat="44.2829643" lon="8.4320937"><ele>7.0</ele><time>2026-04-26T10:59:13.48Z</time></trkpt><trkpt lat="44.2828455" lon="8.4321785"><ele>7.0</ele><time>2026-04-26T10:59:14.481Z</time></trkpt><trkpt lat="44.2827272" lon="8.4322638"><ele>7.0</ele><time>2026-04-26T10:59:15.481Z</time></trkpt><trkpt lat="44.28261" lon="8.4323475"><ele>7.0</ele><time>2026-04-26T10:59:16.48Z</time></trkpt><trkpt lat="44.282492" lon="8.4324268"><ele>7.0</ele><time>2026-04-26T10:59:17.478Z</time></trkpt><trkpt lat="44.282376" lon="8.4325065"><ele>7.0</ele><time>2026-04-26T10:59:18.481Z</time></trkpt><trkpt lat="44.2822608" lon="8.4325883"><ele>7.0</ele><time>2026-04-26T10:59:19.483Z</time></trkpt><trkpt lat="44.2821442" lon="8.4326713"><ele>7.0</ele><time>2026-04-26T10:59:20.483Z</time></trkpt><trkpt lat="44.2820213" lon="8.4327532"><ele>7.0</ele><time>2026-04-26T10:59:21.48Z</time></trkpt><trkpt lat="44.2818918" lon="8.4328305"><ele>7.0</ele><time>2026-04-26T10:59:22.481Z</time></trkpt><trkpt lat="44.2817558" lon="8.4329007"><ele>7.0</ele><time>2026-04-26T10:59:23.479Z</time></trkpt><trkpt lat="44.281614" lon="8.4329557"><ele>7.0</ele><time>2026-04-26T10:59:24.479Z</time></trkpt><trkpt lat="44.28147" lon="8.4329902"><ele>7.0</ele><time>2026-04-26T10:59:25.482Z</time></trkpt><trkpt lat="44.2813273" lon="8.4330008"><ele>7.0</ele><time>2026-04-26T10:59:26.484Z</time></trkpt><trkpt lat="44.2811838" lon="8.4329903"><ele>7.0</ele><time>2026-04-26T10:59:27.482Z</time></trkpt><trkpt lat="44.2810428" lon="8.4329615"><ele>7.0</ele><time>2026-04-26T10:59:28.48Z</time></trkpt><trkpt lat="44.2809063" lon="8.4329188"><ele>7.0</ele><time>2026-04-26T10:59:29.48Z</time></trkpt><trkpt lat="44.2807715" lon="8.4328647"><ele>7.0</ele><time>2026-04-26T10:59:30.481Z</time></trkpt><trkpt lat="44.2806433" lon="8.4328035"><ele>7.0</ele><time>2026-04-26T10:59:31.481Z</time></trkpt><trkpt lat="44.2805298" lon="8.4327465"><ele>7.199999999999999</ele><time>2026-04-26T10:59:32.48Z</time></trkpt><trkpt lat="44.2804318" lon="8.4326968"><ele>7.3999999999999995</ele><time>2026-04-26T10:59:33.482Z</time></trkpt><trkpt lat="44.2803532" lon="8.4326555"><ele>7.6000000000000005</ele><time>2026-04-26T10:59:34.48Z</time></trkpt><trkpt lat="44.2802675" lon="8.4326017"><ele>7.800000000000001</ele><time>2026-04-26T10:59:36.48Z</time></trkpt><trkpt lat="44.2802098" lon="8.4325458"><ele>8.0</ele><time>2026-04-26T10:59:39.479Z</time></trkpt><trkpt lat="44.280128" lon="8.4324357"><ele>7.999999999999999</ele><time>2026-04-26T10:59:41.481Z</time></trkpt><trkpt lat="44.2800693" lon="8.4323957"><ele>8.0</ele><time>2026-04-26T10:59:42.481Z</time></trkpt><trkpt lat="44.2800053" lon="8.4323962"><ele>8.0</ele><time>2026-04-26T10:59:43.482Z</time></trkpt><trkpt lat="44.2799402" lon="8.4324365"><ele>8.0</ele><time>2026-04-26T10:59:44.481Z</time></trkpt><trkpt lat="44.2798667" lon="8.4325112"><ele>7.999999999999999</ele><time>2026-04-26T10:59:45.481Z</time></trkpt><trkpt lat="44.2797862" lon="8.4325913"><ele>8.0</ele><time>2026-04-26T10:59:46.481Z</time></trkpt><trkpt lat="44.2796998" lon="8.4326685"><ele>8.4</ele><time>2026-04-26T10:59:47.481Z</time></trkpt><trkpt lat="44.2796087" lon="8.4327525"><ele>8.8</ele><time>2026-04-26T10:59:48.483Z</time></trkpt><trkpt lat="44.2795233" lon="8.4328355"><ele>9.2</ele><time>2026-04-26T10:59:49.484Z</time></trkpt><trkpt lat="44.2794462" lon="8.4329157"><ele>9.6</ele><time>2026-04-26T10:59:50.484Z</time></trkpt><trkpt lat="44.2793693" lon="8.4329993"><ele>10.0</ele><time>2026-04-26T10:59:51.484Z</time></trkpt><trkpt lat="44.2792927" lon="8.4330837"><ele>10.0</ele><time>2026-04-26T10:59:52.482Z</time></trkpt><trkpt lat="44.2792185" lon="8.4331662"><ele>10.0</ele><time>2026-04-26T10:59:53.482Z</time></trkpt><trkpt lat="44.2791475" lon="8.4332445"><ele>10.0</ele><time>2026-04-26T10:59:54.479Z</time></trkpt><trkpt lat="44.2790822" lon="8.4333122"><ele>10.0</ele><time>2026-04-26T10:59:55.479Z</time></trkpt><trkpt lat="44.2790225" lon="8.4333695"><ele>10.0</ele><time>2026-04-26T10:59:56.478Z</time></trkpt><trkpt lat="44.2789117" lon="8.4334295"><ele>9.833333333333334</ele><time>2026-04-26T10:59:58.482Z</time></trkpt><trkpt lat="44.2788452" lon="8.4334407"><ele>9.666666666666668</ele><time>2026-04-26T10:59:59.481Z</time></trkpt><trkpt lat="44.2787755" lon="8.4334673"><ele>9.5</ele><time>2026-04-26T11:00:00.478Z</time></trkpt><trkpt lat="44.2787105" lon="8.4335193"><ele>9.333333333333334</ele><time>2026-04-26T11:00:01.498Z</time></trkpt><trkpt lat="44.2786482" lon="8.4336025"><ele>9.166666666666666</ele><time>2026-04-26T11:00:02.481Z</time></trkpt><trkpt lat="44.2785835" lon="8.4337028"><ele>9.0</ele><time>2026-04-26T11:00:03.482Z</time></trkpt><trkpt lat="44.2785157" lon="8.4338047"><ele>8.6</ele><time>2026-04-26T11:00:04.481Z</time></trkpt><trkpt lat="44.278449" lon="8.4338982"><ele>8.2</ele><time>2026-04-26T11:00:05.48Z</time></trkpt><trkpt lat="44.2783797" lon="8.4339797"><ele>7.799999999999999</ele><time>2026-04-26T11:00:06.479Z</time></trkpt><trkpt lat="44.2783005" lon="8.4340518"><ele>7.3999999999999995</ele><time>2026-04-26T11:00:07.48Z</time></trkpt><trkpt lat="44.2782105" lon="8.4341135"><ele>7.0</ele><time>2026-04-26T11:00:08.477Z</time></trkpt><trkpt lat="44.2781052" lon="8.4341605"><ele>6.75</ele><time>2026-04-26T11:00:09.477Z</time></trkpt><trkpt lat="44.2779852" lon="8.4341873"><ele>6.5</ele><time>2026-04-26T11:00:10.481Z</time></trkpt><trkpt lat="44.2778663" lon="8.4341988"><ele>6.25</ele><time>2026-04-26T11:00:11.48Z</time></trkpt><trkpt lat="44.2777498" lon="8.4342072"><ele>6.0</ele><time>2026-04-26T11:00:12.479Z</time></trkpt><trkpt lat="44.2776422" lon="8.43422"><ele>6.0</ele><time>2026-04-26T11:00:13.481Z</time></trkpt><trkpt lat="44.2775375" lon="8.4342303"><ele>6.0</ele><time>2026-04-26T11:00:14.478Z</time></trkpt><trkpt lat="44.2774358" lon="8.434239"><ele>6.0</ele><time>2026-04-26T11:00:15.476Z</time></trkpt><trkpt lat="44.2773297" lon="8.4342477"><ele>6.0</ele><time>2026-04-26T11:00:16.477Z</time></trkpt><trkpt lat="44.2772215" lon="8.4342568"><ele>6.0</ele><time>2026-04-26T11:00:17.479Z</time></trkpt><trkpt lat="44.2771107" lon="8.4342683"><ele>6.75</ele><time>2026-04-26T11:00:18.48Z</time></trkpt><trkpt lat="44.2769978" lon="8.434281"><ele>7.5</ele><time>2026-04-26T11:00:19.481Z</time></trkpt><trkpt lat="44.2768843" lon="8.4342935"><ele>8.25</ele><time>2026-04-26T11:00:20.48Z</time></trkpt><trkpt lat="44.2767667" lon="8.4343048"><ele>9.0</ele><time>2026-04-26T11:00:21.477Z</time></trkpt><trkpt lat="44.2766433" lon="8.4343183"><ele>9.0</ele><time>2026-04-26T11:00:22.475Z</time></trkpt><trkpt lat="44.2765167" lon="8.434337"><ele>9.0</ele><time>2026-04-26T11:00:23.475Z</time></trkpt><trkpt lat="44.2763868" lon="8.4343575"><ele>9.0</ele><time>2026-04-26T11:00:24.473Z</time></trkpt><trkpt lat="44.276257" lon="8.434379"><ele>9.0</ele><time>2026-04-26T11:00:25.474Z</time></trkpt><trkpt lat="44.276128" lon="8.4344033"><ele>8.75</ele><time>2026-04-26T11:00:26.478Z</time></trkpt><trkpt lat="44.2759987" lon="8.434436"><ele>8.5</ele><time>2026-04-26T11:00:27.482Z</time></trkpt><trkpt lat="44.2758713" lon="8.4344787"><ele>8.25</ele><time>2026-04-26T11:00:28.482Z</time></trkpt><trkpt lat="44.27575" lon="8.4345288"><ele>8.0</ele><time>2026-04-26T11:00:29.484Z</time></trkpt><trkpt lat="44.2756362" lon="8.4345813"><ele>7.75</ele><time>2026-04-26T11:00:30.481Z</time></trkpt><trkpt lat="44.2755263" lon="8.4346405"><ele>7.5</ele><time>2026-04-26T11:00:31.481Z</time></trkpt><trkpt lat="44.2754213" lon="8.434704"><ele>7.25</ele><time>2026-04-26T11:00:32.479Z</time></trkpt><trkpt lat="44.2753213" lon="8.4347728"><ele>7.0</ele><time>2026-04-26T11:00:33.485Z</time></trkpt><trkpt lat="44.2752268" lon="8.4348423"><ele>7.000000000000001</ele><time>2026-04-26T11:00:34.482Z</time></trkpt><trkpt lat="44.2751423" lon="8.434907"><ele>7.0</ele><time>2026-04-26T11:00:35.478Z</time></trkpt><trkpt lat="44.275067" lon="8.4349683"><ele>7.0</ele><time>2026-04-26T11:00:36.476Z</time></trkpt><trkpt lat="44.2749963" lon="8.4350152"><ele>7.0</ele><time>2026-04-26T11:00:37.477Z</time></trkpt><trkpt lat="44.2749273" lon="8.435062"><ele>7.000000000000001</ele><time>2026-04-26T11:00:38.48Z</time></trkpt><trkpt lat="44.2748658" lon="8.435116"><ele>7.0</ele><time>2026-04-26T11:00:39.48Z</time></trkpt><trkpt lat="44.274814" lon="8.4351817"><ele>7.3999999999999995</ele><time>2026-04-26T11:00:40.479Z</time></trkpt><trkpt lat="44.2747575" lon="8.4352625"><ele>7.799999999999999</ele><time>2026-04-26T11:00:41.483Z</time></trkpt><trkpt lat="44.274688" lon="8.4353577"><ele>8.2</ele><time>2026-04-26T11:00:42.481Z</time></trkpt><trkpt lat="44.2746073" lon="8.4354582"><ele>8.6</ele><time>2026-04-26T11:00:43.482Z</time></trkpt><trkpt lat="44.2745195" lon="8.4355602"><ele>9.0</ele><time>2026-04-26T11:00:44.483Z</time></trkpt><trkpt lat="44.2744267" lon="8.4356648"><ele>9.0</ele><time>2026-04-26T11:00:45.481Z</time></trkpt><trkpt lat="44.2743342" lon="8.435766"><ele>9.0</ele><time>2026-04-26T11:00:46.479Z</time></trkpt><trkpt lat="44.2742518" lon="8.4358578"><ele>9.0</ele><time>2026-04-26T11:00:47.475Z</time></trkpt><trkpt lat="44.2741727" lon="8.4359443"><ele>9.0</ele><time>2026-04-26T11:00:48.475Z</time></trkpt><trkpt lat="44.274093" lon="8.43603"><ele>9.0</ele><time>2026-04-26T11:00:49.474Z</time></trkpt><trkpt lat="44.2740123" lon="8.4361145"><ele>9.5</ele><time>2026-04-26T11:00:50.476Z</time></trkpt><trkpt lat="44.2739258" lon="8.4362043"><ele>10.0</ele><time>2026-04-26T11:00:51.478Z</time></trkpt><trkpt lat="44.2738338" lon="8.4362997"><ele>10.5</ele><time>2026-04-26T11:00:52.48Z</time></trkpt><trkpt lat="44.2737375" lon="8.4364043"><ele>11.0</ele><time>2026-04-26T11:00:53.475Z</time></trkpt><trkpt lat="44.2736382" lon="8.4365148"><ele>10.0</ele><time>2026-04-26T11:00:54.476Z</time></trkpt><trkpt lat="44.2735385" lon="8.4366205"><ele>9.0</ele><time>2026-04-26T11:00:55.478Z</time></trkpt><trkpt lat="44.2734435" lon="8.4367185"><ele>8.0</ele><time>2026-04-26T11:00:56.477Z</time></trkpt><trkpt lat="44.2733535" lon="8.4368143"><ele>7.0</ele><time>2026-04-26T11:00:57.477Z</time></trkpt><trkpt lat="44.2732685" lon="8.436908"><ele>7.0</ele><time>2026-04-26T11:00:58.477Z</time></trkpt><trkpt lat="44.2731912" lon="8.437006"><ele>6.999999999999999</ele><time>2026-04-26T11:00:59.48Z</time></trkpt><trkpt lat="44.2731267" lon="8.437111"><ele>6.999999999999999</ele><time>2026-04-26T11:01:00.479Z</time></trkpt><trkpt lat="44.2730663" lon="8.4372185"><ele>7.0</ele><time>2026-04-26T11:01:01.479Z</time></trkpt><trkpt lat="44.2729905" lon="8.4373285"><ele>7.0</ele><time>2026-04-26T11:01:02.475Z</time></trkpt><trkpt lat="44.2729333" lon="8.4374323"><ele>7.6</ele><time>2026-04-26T11:01:03.478Z</time></trkpt><trkpt lat="44.2729018" lon="8.4375625"><ele>8.2</ele><time>2026-04-26T11:01:04.478Z</time></trkpt><trkpt lat="44.2728567" lon="8.437687"><ele>8.8</ele><time>2026-04-26T11:01:05.477Z</time></trkpt><trkpt lat="44.2728167" lon="8.4378192"><ele>9.4</ele><time>2026-04-26T11:01:06.478Z</time></trkpt><trkpt lat="44.2727782" lon="8.4379428"><ele>10.0</ele><time>2026-04-26T11:01:07.475Z</time></trkpt><trkpt lat="44.27274" lon="8.4380528"><ele>10.166666666666668</ele><time>2026-04-26T11:01:08.475Z</time></trkpt><trkpt lat="44.2726988" lon="8.4381417"><ele>10.333333333333334</ele><time>2026-04-26T11:01:09.477Z</time></trkpt><trkpt lat="44.2726595" lon="8.4382207"><ele>10.5</ele><time>2026-04-26T11:01:10.477Z</time></trkpt><trkpt lat="44.2726337" lon="8.4383068"><ele>10.666666666666666</ele><time>2026-04-26T11:01:11.474Z</time></trkpt><trkpt lat="44.2726" lon="8.4384467"><ele>10.833333333333332</ele><time>2026-04-26T11:01:13.472Z</time></trkpt><trkpt lat="44.2726087" lon="8.4385342"><ele>11.0</ele><time>2026-04-26T11:01:16.479Z</time></trkpt><trkpt lat="44.272603" lon="8.4386707"><ele>11.0</ele><time>2026-04-26T11:01:23.476Z</time></trkpt><trkpt lat="44.2725598" lon="8.4387747"><ele>11.0</ele><time>2026-04-26T11:01:25.479Z</time></trkpt><trkpt lat="44.2724367" lon="8.4387808"><ele>11.0</ele><time>2026-04-26T11:01:27.475Z</time></trkpt><trkpt lat="44.2723487" lon="8.4387548"><ele>11.0</ele><time>2026-04-26T11:01:28.475Z</time></trkpt><trkpt lat="44.272252" lon="8.4387358"><ele>11.0</ele><time>2026-04-26T11:01:29.478Z</time></trkpt><trkpt lat="44.2721575" lon="8.4387223"><ele>10.8</ele><time>2026-04-26T11:01:30.476Z</time></trkpt><trkpt lat="44.2720582" lon="8.4387073"><ele>10.600000000000001</ele><time>2026-04-26T11:01:31.48Z</time></trkpt><trkpt lat="44.2719603" lon="8.4386895"><ele>10.4</ele><time>2026-04-26T11:01:32.48Z</time></trkpt><trkpt lat="44.271869" lon="8.438675"><ele>10.2</ele><time>2026-04-26T11:01:33.479Z</time></trkpt><trkpt lat="44.2717842" lon="8.438666"><ele>10.0</ele><time>2026-04-26T11:01:34.482Z</time></trkpt><trkpt lat="44.2717073" lon="8.4386663"><ele>10.0</ele><time>2026-04-26T11:01:35.476Z</time></trkpt><trkpt lat="44.2716392" lon="8.4386697"><ele>10.0</ele><time>2026-04-26T11:01:36.474Z</time></trkpt><trkpt lat="44.271541" lon="8.4386793"><ele>10.0</ele><time>2026-04-26T11:01:38.478Z</time></trkpt><trkpt lat="44.2714718" lon="8.4386765"><ele>10.0</ele><time>2026-04-26T11:01:40.478Z</time></trkpt><trkpt lat="44.2713487" lon="8.4387127"><ele>10.0</ele><time>2026-04-26T11:01:42.478Z</time></trkpt><trkpt lat="44.2712665" lon="8.4387318"><ele>10.0</ele><time>2026-04-26T11:01:43.477Z</time></trkpt><trkpt lat="44.2711785" lon="8.4387463"><ele>9.8</ele><time>2026-04-26T11:01:44.475Z</time></trkpt><trkpt lat="44.2710827" lon="8.4387658"><ele>9.6</ele><time>2026-04-26T11:01:45.474Z</time></trkpt><trkpt lat="44.2709852" lon="8.438793"><ele>9.4</ele><time>2026-04-26T11:01:46.481Z</time></trkpt><trkpt lat="44.270878" lon="8.4388317"><ele>9.2</ele><time>2026-04-26T11:01:47.477Z</time></trkpt><trkpt lat="44.2707645" lon="8.4388805"><ele>9.0</ele><time>2026-04-26T11:01:48.475Z</time></trkpt><trkpt lat="44.2706502" lon="8.4389355"><ele>8.75</ele><time>2026-04-26T11:01:49.475Z</time></trkpt><trkpt lat="44.2705373" lon="8.4389903"><ele>8.5</ele><time>2026-04-26T11:01:50.475Z</time></trkpt><trkpt lat="44.2704263" lon="8.4390447"><ele>8.25</ele><time>2026-04-26T11:01:51.473Z</time></trkpt><trkpt lat="44.2703135" lon="8.4390975"><ele>8.0</ele><time>2026-04-26T11:01:52.474Z</time></trkpt><trkpt lat="44.2702028" lon="8.4391482"><ele>8.0</ele><time>2026-04-26T11:01:53.48Z</time></trkpt><trkpt lat="44.2701003" lon="8.4392005"><ele>8.0</ele><time>2026-04-26T11:01:54.484Z</time></trkpt><trkpt lat="44.2699978" lon="8.4392517"><ele>8.0</ele><time>2026-04-26T11:01:55.48Z</time></trkpt><trkpt lat="44.2698928" lon="8.439306"><ele>8.0</ele><time>2026-04-26T11:01:56.48Z</time></trkpt><trkpt lat="44.2697853" lon="8.439365"><ele>8.0</ele><time>2026-04-26T11:01:57.477Z</time></trkpt><trkpt lat="44.2696758" lon="8.4394285"><ele>8.0</ele><time>2026-04-26T11:01:58.477Z</time></trkpt><trkpt lat="44.2695667" lon="8.4394902"><ele>8.0</ele><time>2026-04-26T11:01:59.476Z</time></trkpt><trkpt lat="44.2694582" lon="8.4395537"><ele>8.0</ele><time>2026-04-26T11:02:00.477Z</time></trkpt><trkpt lat="44.2693458" lon="8.4396173"><ele>8.0</ele><time>2026-04-26T11:02:01.476Z</time></trkpt><trkpt lat="44.2692283" lon="8.4396818"><ele>7.5</ele><time>2026-04-26T11:02:02.479Z</time></trkpt><trkpt lat="44.2691097" lon="8.4397455"><ele>7.0</ele><time>2026-04-26T11:02:03.477Z</time></trkpt><trkpt lat="44.2689898" lon="8.4398042"><ele>6.5</ele><time>2026-04-26T11:02:04.48Z</time></trkpt><trkpt lat="44.26887" lon="8.4398622"><ele>6.0</ele><time>2026-04-26T11:02:05.481Z</time></trkpt><trkpt lat="44.2687538" lon="8.4399193"><ele>6.0</ele><time>2026-04-26T11:02:06.478Z</time></trkpt><trkpt lat="44.2686397" lon="8.4399753"><ele>6.0</ele><time>2026-04-26T11:02:07.478Z</time></trkpt><trkpt lat="44.2685245" lon="8.4400328"><ele>6.0</ele><time>2026-04-26T11:02:08.476Z</time></trkpt><trkpt lat="44.2684075" lon="8.4400938"><ele>6.0</ele><time>2026-04-26T11:02:09.474Z</time></trkpt><trkpt lat="44.268288" lon="8.4401475"><ele>6.0</ele><time>2026-04-26T11:02:10.472Z</time></trkpt><trkpt lat="44.2681678" lon="8.440208"><ele>6.0</ele><time>2026-04-26T11:02:11.476Z</time></trkpt><trkpt lat="44.2680475" lon="8.4402672"><ele>6.0</ele><time>2026-04-26T11:02:12.474Z</time></trkpt><trkpt lat="44.2679317" lon="8.440327"><ele>6.0</ele><time>2026-04-26T11:02:13.476Z</time></trkpt><trkpt lat="44.267823" lon="8.4403793"><ele>5.8</ele><time>2026-04-26T11:02:14.48Z</time></trkpt><trkpt lat="44.26772" lon="8.4404287"><ele>5.6</ele><time>2026-04-26T11:02:15.48Z</time></trkpt><trkpt lat="44.267622" lon="8.4404708"><ele>5.4</ele><time>2026-04-26T11:02:16.479Z</time></trkpt><trkpt lat="44.2675332" lon="8.440502"><ele>5.2</ele><time>2026-04-26T11:02:17.477Z</time></trkpt><trkpt lat="44.2674517" lon="8.4405165"><ele>5.0</ele><time>2026-04-26T11:02:18.476Z</time></trkpt><trkpt lat="44.2673738" lon="8.4405065"><ele>4.833333333333334</ele><time>2026-04-26T11:02:19.482Z</time></trkpt><trkpt lat="44.2672967" lon="8.4404802"><ele>4.666666666666667</ele><time>2026-04-26T11:02:20.484Z</time></trkpt><trkpt lat="44.267219" lon="8.4404588"><ele>4.5</ele><time>2026-04-26T11:02:21.489Z</time></trkpt><trkpt lat="44.267147" lon="8.440467"><ele>4.333333333333333</ele><time>2026-04-26T11:02:22.482Z</time></trkpt><trkpt lat="44.2670858" lon="8.4405103"><ele>4.166666666666666</ele><time>2026-04-26T11:02:23.478Z</time></trkpt><trkpt lat="44.2670303" lon="8.4405905"><ele>4.0</ele><time>2026-04-26T11:02:24.477Z</time></trkpt><trkpt lat="44.2669653" lon="8.4406938"><ele>3.4000000000000004</ele><time>2026-04-26T11:02:25.48Z</time></trkpt><trkpt lat="44.2668795" lon="8.4407887"><ele>2.8000000000000003</ele><time>2026-04-26T11:02:26.476Z</time></trkpt><trkpt lat="44.2667787" lon="8.4408677"><ele>2.2</ele><time>2026-04-26T11:02:27.477Z</time></trkpt><trkpt lat="44.2666788" lon="8.4409323"><ele>1.6</ele><time>2026-04-26T11:02:28.482Z</time></trkpt><trkpt lat="44.2665943" lon="8.4409812"><ele>1.0</ele><time>2026-04-26T11:02:29.478Z</time></trkpt><trkpt lat="44.2664722" lon="8.4410873"><ele>1.5</ele><time>2026-04-26T11:02:31.479Z</time></trkpt><trkpt lat="44.2663667" lon="8.4411355"><ele>2.0</ele><time>2026-04-26T11:02:32.478Z</time></trkpt><trkpt lat="44.2662588" lon="8.4411943"><ele>2.5</ele><time>2026-04-26T11:02:33.478Z</time></trkpt><trkpt lat="44.266145" lon="8.4412502"><ele>3.0</ele><time>2026-04-26T11:02:34.479Z</time></trkpt><trkpt lat="44.2660333" lon="8.4413037"><ele>3.0</ele><time>2026-04-26T11:02:35.481Z</time></trkpt><trkpt lat="44.2659243" lon="8.4413577"><ele>3.0</ele><time>2026-04-26T11:02:36.477Z</time></trkpt><trkpt lat="44.2658138" lon="8.4414103"><ele>3.0</ele><time>2026-04-26T11:02:37.477Z</time></trkpt><trkpt lat="44.265705" lon="8.4414642"><ele>3.0</ele><time>2026-04-26T11:02:38.476Z</time></trkpt><trkpt lat="44.265596" lon="8.4415198"><ele>3.5</ele><time>2026-04-26T11:02:39.478Z</time></trkpt><trkpt lat="44.2654867" lon="8.4415782"><ele>4.0</ele><time>2026-04-26T11:02:40.476Z</time></trkpt><trkpt lat="44.26538" lon="8.4416373"><ele>4.5</ele><time>2026-04-26T11:02:41.475Z</time></trkpt><trkpt lat="44.2652777" lon="8.4416968"><ele>5.0</ele><time>2026-04-26T11:02:42.475Z</time></trkpt><trkpt lat="44.2651735" lon="8.4417532"><ele>5.0</ele><time>2026-04-26T11:02:43.482Z</time></trkpt><trkpt lat="44.2650722" lon="8.441809"><ele>5.0</ele><time>2026-04-26T11:02:44.477Z</time></trkpt><trkpt lat="44.2649718" lon="8.4418677"><ele>5.0</ele><time>2026-04-26T11:02:45.478Z</time></trkpt><trkpt lat="44.2648708" lon="8.4419332"><ele>5.0</ele><time>2026-04-26T11:02:46.48Z</time></trkpt><trkpt lat="44.2647695" lon="8.4420037"><ele>5.0</ele><time>2026-04-26T11:02:47.479Z</time></trkpt><trkpt lat="44.2646695" lon="8.4420842"><ele>5.0</ele><time>2026-04-26T11:02:48.477Z</time></trkpt><trkpt lat="44.2645722" lon="8.4421725"><ele>5.0</ele><time>2026-04-26T11:02:49.477Z</time></trkpt><trkpt lat="44.2644825" lon="8.4422745"><ele>5.0</ele><time>2026-04-26T11:02:50.481Z</time></trkpt><trkpt lat="44.2643983" lon="8.4423833"><ele>5.0</ele><time>2026-04-26T11:02:51.48Z</time></trkpt><trkpt lat="44.264318" lon="8.4424985"><ele>5.0</ele><time>2026-04-26T11:02:52.481Z</time></trkpt><trkpt lat="44.2642392" lon="8.4426172"><ele>5.0</ele><time>2026-04-26T11:02:53.479Z</time></trkpt><trkpt lat="44.2641627" lon="8.4427403"><ele>5.0</ele><time>2026-04-26T11:02:54.479Z</time></trkpt><trkpt lat="44.2640908" lon="8.4428633"><ele>5.0</ele><time>2026-04-26T11:02:55.48Z</time></trkpt><trkpt lat="44.264025" lon="8.442985"><ele>5.0</ele><time>2026-04-26T11:02:56.479Z</time></trkpt><trkpt lat="44.2639637" lon="8.4431065"><ele>5.0</ele><time>2026-04-26T11:02:57.48Z</time></trkpt><trkpt lat="44.2639013" lon="8.4432258"><ele>5.0</ele><time>2026-04-26T11:02:58.481Z</time></trkpt><trkpt lat="44.2638365" lon="8.4433457"><ele>5.0</ele><time>2026-04-26T11:02:59.484Z</time></trkpt><trkpt lat="44.2637728" lon="8.4434695"><ele>5.0</ele><time>2026-04-26T11:03:00.481Z</time></trkpt><trkpt lat="44.2637102" lon="8.4435937"><ele>5.0</ele><time>2026-04-26T11:03:01.482Z</time></trkpt><trkpt lat="44.2636463" lon="8.4437143"><ele>5.0</ele><time>2026-04-26T11:03:02.479Z</time></trkpt><trkpt lat="44.2635812" lon="8.4438353"><ele>5.0</ele><time>2026-04-26T11:03:03.482Z</time></trkpt><trkpt lat="44.2635163" lon="8.4439563"><ele>5.0</ele><time>2026-04-26T11:03:04.48Z</time></trkpt><trkpt lat="44.2634532" lon="8.4440753"><ele>5.0</ele><time>2026-04-26T11:03:05.479Z</time></trkpt><trkpt lat="44.2633925" lon="8.4441905"><ele>4.833333333333334</ele><time>2026-04-26T11:03:06.48Z</time></trkpt><trkpt lat="44.2633318" lon="8.4443007"><ele>4.666666666666667</ele><time>2026-04-26T11:03:07.48Z</time></trkpt><trkpt lat="44.2632765" lon="8.4444028"><ele>4.5</ele><time>2026-04-26T11:03:08.479Z</time></trkpt><trkpt lat="44.263226" lon="8.4444957"><ele>4.333333333333333</ele><time>2026-04-26T11:03:09.478Z</time></trkpt><trkpt lat="44.263179" lon="8.4445827"><ele>4.166666666666666</ele><time>2026-04-26T11:03:10.477Z</time></trkpt><trkpt lat="44.263134" lon="8.4446648"><ele>4.0</ele><time>2026-04-26T11:03:11.477Z</time></trkpt><trkpt lat="44.2630905" lon="8.4447442"><ele>4.0</ele><time>2026-04-26T11:03:12.48Z</time></trkpt><trkpt lat="44.2630472" lon="8.4448297"><ele>4.0</ele><time>2026-04-26T11:03:13.477Z</time></trkpt><trkpt lat="44.2629987" lon="8.444926"><ele>4.0</ele><time>2026-04-26T11:03:14.477Z</time></trkpt><trkpt lat="44.2629443" lon="8.4450327"><ele>4.0</ele><time>2026-04-26T11:03:15.478Z</time></trkpt><trkpt lat="44.2628847" lon="8.4451443"><ele>4.0</ele><time>2026-04-26T11:03:16.477Z</time></trkpt><trkpt lat="44.2628238" lon="8.4452568"><ele>4.0</ele><time>2026-04-26T11:03:17.478Z</time></trkpt><trkpt lat="44.2627633" lon="8.445368"><ele>4.0</ele><time>2026-04-26T11:03:18.478Z</time></trkpt><trkpt lat="44.2626998" lon="8.4454885"><ele>4.0</ele><time>2026-04-26T11:03:19.478Z</time></trkpt><trkpt lat="44.262638" lon="8.4456123"><ele>4.0</ele><time>2026-04-26T11:03:20.477Z</time></trkpt><trkpt lat="44.2625737" lon="8.4457388"><ele>4.0</ele><time>2026-04-26T11:03:21.476Z</time></trkpt><trkpt lat="44.2625077" lon="8.4458625"><ele>3.8000000000000003</ele><time>2026-04-26T11:03:22.481Z</time></trkpt><trkpt lat="44.2624398" lon="8.4459837"><ele>3.6000000000000005</ele><time>2026-04-26T11:03:23.48Z</time></trkpt><trkpt lat="44.2623725" lon="8.4461037"><ele>3.4</ele><time>2026-04-26T11:03:24.479Z</time></trkpt><trkpt lat="44.2623065" lon="8.4462218"><ele>3.2</ele><time>2026-04-26T11:03:25.48Z</time></trkpt><trkpt lat="44.2622397" lon="8.4463408"><ele>3.0</ele><time>2026-04-26T11:03:26.483Z</time></trkpt><trkpt lat="44.2621733" lon="8.4464627"><ele>3.5</ele><time>2026-04-26T11:03:27.486Z</time></trkpt><trkpt lat="44.2621043" lon="8.4465893"><ele>4.0</ele><time>2026-04-26T11:03:28.483Z</time></trkpt><trkpt lat="44.2620325" lon="8.44672"><ele>4.5</ele><time>2026-04-26T11:03:29.482Z</time></trkpt><trkpt lat="44.2619622" lon="8.4468553"><ele>5.0</ele><time>2026-04-26T11:03:30.479Z</time></trkpt><trkpt lat="44.2618982" lon="8.4469923"><ele>5.0</ele><time>2026-04-26T11:03:31.477Z</time></trkpt><trkpt lat="44.2618427" lon="8.447121"><ele>5.0</ele><time>2026-04-26T11:03:32.478Z</time></trkpt><trkpt lat="44.2617953" lon="8.4472463"><ele>5.0</ele><time>2026-04-26T11:03:33.482Z</time></trkpt><trkpt lat="44.261753" lon="8.4473807"><ele>5.0</ele><time>2026-04-26T11:03:34.482Z</time></trkpt><trkpt lat="44.2617103" lon="8.4475075"><ele>5.0</ele><time>2026-04-26T11:03:35.486Z</time></trkpt><trkpt lat="44.2616643" lon="8.4476175"><ele>5.2</ele><time>2026-04-26T11:03:36.48Z</time></trkpt><trkpt lat="44.2616335" lon="8.4477227"><ele>5.4</ele><time>2026-04-26T11:03:37.479Z</time></trkpt><trkpt lat="44.261631" lon="8.4478422"><ele>5.6</ele><time>2026-04-26T11:03:38.477Z</time></trkpt><trkpt lat="44.2616468" lon="8.4479885"><ele>5.8</ele><time>2026-04-26T11:03:39.476Z</time></trkpt><trkpt lat="44.2616643" lon="8.4481557"><ele>6.0</ele><time>2026-04-26T11:03:40.476Z</time></trkpt><trkpt lat="44.2616737" lon="8.448322"><ele>6.25</ele><time>2026-04-26T11:03:41.478Z</time></trkpt><trkpt lat="44.2616867" lon="8.4484858"><ele>6.5</ele><time>2026-04-26T11:03:42.48Z</time></trkpt><trkpt lat="44.2617027" lon="8.4486445"><ele>6.75</ele><time>2026-04-26T11:03:43.483Z</time></trkpt><trkpt lat="44.261719" lon="8.4487955"><ele>7.0</ele><time>2026-04-26T11:03:44.485Z</time></trkpt><trkpt lat="44.261736" lon="8.4489498"><ele>7.75</ele><time>2026-04-26T11:03:45.483Z</time></trkpt><trkpt lat="44.2617532" lon="8.4491088"><ele>8.5</ele><time>2026-04-26T11:03:46.48Z</time></trkpt><trkpt lat="44.2617702" lon="8.4492722"><ele>9.25</ele><time>2026-04-26T11:03:47.482Z</time></trkpt><trkpt lat="44.2617853" lon="8.4494362"><ele>10.0</ele><time>2026-04-26T11:03:48.482Z</time></trkpt><trkpt lat="44.261795" lon="8.4496008"><ele>11.25</ele><time>2026-04-26T11:03:49.482Z</time></trkpt><trkpt lat="44.2617962" lon="8.4497673"><ele>12.5</ele><time>2026-04-26T11:03:50.483Z</time></trkpt><trkpt lat="44.2617893" lon="8.4499348"><ele>13.75</ele><time>2026-04-26T11:03:51.479Z</time></trkpt><trkpt lat="44.2617717" lon="8.4501022"><ele>15.0</ele><time>2026-04-26T11:03:52.48Z</time></trkpt><trkpt lat="44.2617462" lon="8.4502677"><ele>15.0</ele><time>2026-04-26T11:03:53.481Z</time></trkpt><trkpt lat="44.2617148" lon="8.4504303"><ele>15.0</ele><time>2026-04-26T11:03:54.48Z</time></trkpt><trkpt lat="44.261677" lon="8.4505898"><ele>15.0</ele><time>2026-04-26T11:03:55.48Z</time></trkpt><trkpt lat="44.2616307" lon="8.4507465"><ele>15.0</ele><time>2026-04-26T11:03:56.481Z</time></trkpt><trkpt lat="44.2615765" lon="8.4508983"><ele>14.25</ele><time>2026-04-26T11:03:57.48Z</time></trkpt><trkpt lat="44.2615147" lon="8.451044"><ele>13.5</ele><time>2026-04-26T11:03:58.483Z</time></trkpt><trkpt lat="44.2614448" lon="8.4511857"><ele>12.75</ele><time>2026-04-26T11:03:59.483Z</time></trkpt><trkpt lat="44.2613683" lon="8.4513242"><ele>12.0</ele><time>2026-04-26T11:04:00.481Z</time></trkpt><trkpt lat="44.2612877" lon="8.4514612"><ele>12.0</ele><time>2026-04-26T11:04:01.48Z</time></trkpt><trkpt lat="44.2612032" lon="8.4515965"><ele>12.0</ele><time>2026-04-26T11:04:02.476Z</time></trkpt><trkpt lat="44.2611145" lon="8.4517298"><ele>12.0</ele><time>2026-04-26T11:04:03.48Z</time></trkpt><trkpt lat="44.2610228" lon="8.4518588"><ele>12.0</ele><time>2026-04-26T11:04:04.476Z</time></trkpt><trkpt lat="44.2609267" lon="8.451982"><ele>12.0</ele><time>2026-04-26T11:04:05.477Z</time></trkpt><trkpt lat="44.260827" lon="8.4520983"><ele>12.0</ele><time>2026-04-26T11:04:06.477Z</time></trkpt><trkpt lat="44.2607233" lon="8.4522087"><ele>12.0</ele><time>2026-04-26T11:04:07.48Z</time></trkpt><trkpt lat="44.2606142" lon="8.4523162"><ele>12.0</ele><time>2026-04-26T11:04:08.479Z</time></trkpt><trkpt lat="44.2605013" lon="8.45242"><ele>10.5</ele><time>2026-04-26T11:04:09.479Z</time></trkpt><trkpt lat="44.2603832" lon="8.4525197"><ele>9.0</ele><time>2026-04-26T11:04:10.479Z</time></trkpt><trkpt lat="44.2602623" lon="8.4526142"><ele>7.5</ele><time>2026-04-26T11:04:11.482Z</time></trkpt><trkpt lat="44.2601378" lon="8.452704"><ele>6.0</ele><time>2026-04-26T11:04:12.481Z</time></trkpt><trkpt lat="44.2600128" lon="8.452784"><ele>6.0</ele><time>2026-04-26T11:04:13.482Z</time></trkpt><trkpt lat="44.2598857" lon="8.4528508"><ele>6.0</ele><time>2026-04-26T11:04:14.477Z</time></trkpt><trkpt lat="44.2597522" lon="8.4529058"><ele>6.0</ele><time>2026-04-26T11:04:15.477Z</time></trkpt><trkpt lat="44.2596125" lon="8.4529475"><ele>6.0</ele><time>2026-04-26T11:04:16.483Z</time></trkpt><trkpt lat="44.2594655" lon="8.4529703"><ele>6.333333333333334</ele><time>2026-04-26T11:04:17.479Z</time></trkpt><trkpt lat="44.2593113" lon="8.4529753"><ele>6.666666666666667</ele><time>2026-04-26T11:04:18.482Z</time></trkpt><trkpt lat="44.2591537" lon="8.4529678"><ele>7.0</ele><time>2026-04-26T11:04:19.481Z</time></trkpt><trkpt lat="44.258997" lon="8.4529527"><ele>7.333333333333334</ele><time>2026-04-26T11:04:20.482Z</time></trkpt><trkpt lat="44.2588413" lon="8.4529352"><ele>7.666666666666666</ele><time>2026-04-26T11:04:21.481Z</time></trkpt><trkpt lat="44.2586855" lon="8.4529173"><ele>8.0</ele><time>2026-04-26T11:04:22.479Z</time></trkpt><trkpt lat="44.2585305" lon="8.4528937"><ele>8.0</ele><time>2026-04-26T11:04:23.479Z</time></trkpt><trkpt lat="44.2583787" lon="8.4528543"><ele>8.0</ele><time>2026-04-26T11:04:24.479Z</time></trkpt><trkpt lat="44.2582295" lon="8.452798"><ele>8.0</ele><time>2026-04-26T11:04:25.48Z</time></trkpt><trkpt lat="44.2580833" lon="8.4527225"><ele>7.0</ele><time>2026-04-26T11:04:26.481Z</time></trkpt><trkpt lat="44.257939" lon="8.4526308"><ele>6.0</ele><time>2026-04-26T11:04:27.478Z</time></trkpt><trkpt lat="44.2577968" lon="8.4525247"><ele>5.0</ele><time>2026-04-26T11:04:28.479Z</time></trkpt><trkpt lat="44.2576565" lon="8.4524143"><ele>5.0</ele><time>2026-04-26T11:04:29.476Z</time></trkpt><trkpt lat="44.2575157" lon="8.4523045"><ele>5.0</ele><time>2026-04-26T11:04:30.477Z</time></trkpt><trkpt lat="44.2573747" lon="8.4521932"><ele>5.0</ele><time>2026-04-26T11:04:31.479Z</time></trkpt><trkpt lat="44.2572355" lon="8.4520813"><ele>7.5</ele><time>2026-04-26T11:04:32.478Z</time></trkpt><trkpt lat="44.2571025" lon="8.4519705"><ele>10.0</ele><time>2026-04-26T11:04:33.481Z</time></trkpt><trkpt lat="44.2569772" lon="8.4518648"><ele>12.5</ele><time>2026-04-26T11:04:34.483Z</time></trkpt><trkpt lat="44.256857" lon="8.4517675"><ele>15.0</ele><time>2026-04-26T11:04:35.468Z</time></trkpt><trkpt lat="44.256737" lon="8.4516847"><ele>15.0</ele><time>2026-04-26T11:04:36.477Z</time></trkpt><trkpt lat="44.256613" lon="8.4516145"><ele>15.0</ele><time>2026-04-26T11:04:37.479Z</time></trkpt><trkpt lat="44.2564842" lon="8.451563"><ele>15.0</ele><time>2026-04-26T11:04:38.479Z</time></trkpt><trkpt lat="44.2563507" lon="8.4515317"><ele>15.0</ele><time>2026-04-26T11:04:39.478Z</time></trkpt><trkpt lat="44.2562135" lon="8.4515165"><ele>13.25</ele><time>2026-04-26T11:04:40.477Z</time></trkpt><trkpt lat="44.2560717" lon="8.4515097"><ele>11.5</ele><time>2026-04-26T11:04:41.477Z</time></trkpt><trkpt lat="44.2559235" lon="8.4515067"><ele>9.75</ele><time>2026-04-26T11:04:42.476Z</time></trkpt><trkpt lat="44.2557702" lon="8.4514982"><ele>8.0</ele><time>2026-04-26T11:04:43.482Z</time></trkpt><trkpt lat="44.255621" lon="8.4514653"><ele>7.0</ele><time>2026-04-26T11:04:44.48Z</time></trkpt><trkpt lat="44.2554717" lon="8.451408"><ele>6.0</ele><time>2026-04-26T11:04:45.48Z</time></trkpt><trkpt lat="44.2553208" lon="8.4513227"><ele>5.0</ele><time>2026-04-26T11:04:46.481Z</time></trkpt><trkpt lat="44.2551703" lon="8.4512108"><ele>5.0</ele><time>2026-04-26T11:04:47.477Z</time></trkpt><trkpt lat="44.2550267" lon="8.45107"><ele>5.0</ele><time>2026-04-26T11:04:48.476Z</time></trkpt><trkpt lat="44.2548888" lon="8.4509105"><ele>5.0</ele><time>2026-04-26T11:04:49.477Z</time></trkpt><trkpt lat="44.2547597" lon="8.4507458"><ele>5.0</ele><time>2026-04-26T11:04:50.474Z</time></trkpt><trkpt lat="44.254637" lon="8.4505972"><ele>5.0</ele><time>2026-04-26T11:04:51.474Z</time></trkpt><trkpt lat="44.2545168" lon="8.4504783"><ele>5.0</ele><time>2026-04-26T11:04:52.477Z</time></trkpt><trkpt lat="44.254398" lon="8.4504002"><ele>5.0</ele><time>2026-04-26T11:04:53.476Z</time></trkpt><trkpt lat="44.2542852" lon="8.4503547"><ele>9.5</ele><time>2026-04-26T11:04:54.475Z</time></trkpt><trkpt lat="44.25418" lon="8.4503348"><ele>14.0</ele><time>2026-04-26T11:04:55.478Z</time></trkpt><trkpt lat="44.2540845" lon="8.4503352"><ele>18.5</ele><time>2026-04-26T11:04:56.478Z</time></trkpt><trkpt lat="44.2540015" lon="8.4503327"><ele>23.0</ele><time>2026-04-26T11:04:57.478Z</time></trkpt><trkpt lat="44.2539275" lon="8.4503272"><ele>27.499999999999996</ele><time>2026-04-26T11:04:58.476Z</time></trkpt><trkpt lat="44.2538593" lon="8.4503195"><ele>32.0</ele><time>2026-04-26T11:04:59.478Z</time></trkpt><trkpt lat="44.2537948" lon="8.4503153"><ele>32.0</ele><time>2026-04-26T11:05:00.48Z</time></trkpt><trkpt lat="44.2536972" lon="8.4503128"><ele>32.0</ele><time>2026-04-26T11:05:02.482Z</time></trkpt><trkpt lat="44.2536128" lon="8.4503028"><ele>32.0</ele><time>2026-04-26T11:05:07.48Z</time></trkpt><trkpt lat="44.2534872" lon="8.4503095"><ele>32.0</ele><time>2026-04-26T11:05:09.479Z</time></trkpt><trkpt lat="44.2534008" lon="8.4503197"><ele>32.0</ele><time>2026-04-26T11:05:10.478Z</time></trkpt><trkpt lat="44.2533038" lon="8.4503368"><ele>32.0</ele><time>2026-04-26T11:05:11.477Z</time></trkpt><trkpt lat="44.2531948" lon="8.4503507"><ele>32.0</ele><time>2026-04-26T11:05:12.476Z</time></trkpt><trkpt lat="44.2530798" lon="8.450322"><ele>32.0</ele><time>2026-04-26T11:05:13.475Z</time></trkpt><trkpt lat="44.2529607" lon="8.450274"><ele>32.0</ele><time>2026-04-26T11:05:14.476Z</time></trkpt><trkpt lat="44.2528415" lon="8.4502063"><ele>27.25</ele><time>2026-04-26T11:05:15.476Z</time></trkpt><trkpt lat="44.2527275" lon="8.4501192"><ele>22.5</ele><time>2026-04-26T11:05:16.475Z</time></trkpt><trkpt lat="44.2526227" lon="8.4500143"><ele>17.75</ele><time>2026-04-26T11:05:17.478Z</time></trkpt><trkpt lat="44.252531" lon="8.4498872"><ele>13.0</ele><time>2026-04-26T11:05:18.476Z</time></trkpt><trkpt lat="44.2524573" lon="8.4497403"><ele>10.25</ele><time>2026-04-26T11:05:19.478Z</time></trkpt><trkpt lat="44.2524007" lon="8.4495807"><ele>7.5</ele><time>2026-04-26T11:05:20.477Z</time></trkpt><trkpt lat="44.2523517" lon="8.4494175"><ele>4.75</ele><time>2026-04-26T11:05:21.481Z</time></trkpt><trkpt lat="44.2523023" lon="8.4492565"><ele>2.0</ele><time>2026-04-26T11:05:22.481Z</time></trkpt><trkpt lat="44.2522528" lon="8.44911"><ele>2.0</ele><time>2026-04-26T11:05:23.479Z</time></trkpt><trkpt lat="44.2522033" lon="8.4489828"><ele>2.0</ele><time>2026-04-26T11:05:24.474Z</time></trkpt><trkpt lat="44.2521542" lon="8.4488738"><ele>2.0</ele><time>2026-04-26T11:05:25.478Z</time></trkpt><trkpt lat="44.2521002" lon="8.4487737"><ele>2.0</ele><time>2026-04-26T11:05:26.478Z</time></trkpt><trkpt lat="44.2520405" lon="8.448678"><ele>2.0</ele><time>2026-04-26T11:05:27.478Z</time></trkpt><trkpt lat="44.2519745" lon="8.4485802"><ele>3.8000000000000003</ele><time>2026-04-26T11:05:28.475Z</time></trkpt><trkpt lat="44.2519025" lon="8.4484853"><ele>5.6000000000000005</ele><time>2026-04-26T11:05:29.476Z</time></trkpt><trkpt lat="44.251828" lon="8.448394"><ele>7.4</ele><time>2026-04-26T11:05:30.476Z</time></trkpt><trkpt lat="44.2517478" lon="8.4483118"><ele>9.200000000000001</ele><time>2026-04-26T11:05:31.476Z</time></trkpt><trkpt lat="44.2516617" lon="8.4482338"><ele>11.0</ele><time>2026-04-26T11:05:32.478Z</time></trkpt><trkpt lat="44.2515742" lon="8.4481538"><ele>11.0</ele><time>2026-04-26T11:05:33.476Z</time></trkpt><trkpt lat="44.2514882" lon="8.4480758"><ele>11.0</ele><time>2026-04-26T11:05:34.481Z</time></trkpt><trkpt lat="44.2514055" lon="8.448"><ele>11.0</ele><time>2026-04-26T11:05:35.479Z</time></trkpt><trkpt lat="44.251328" lon="8.4479275"><ele>11.0</ele><time>2026-04-26T11:05:36.48Z</time></trkpt><trkpt lat="44.2512528" lon="8.4478553"><ele>11.0</ele><time>2026-04-26T11:05:37.478Z</time></trkpt><trkpt lat="44.251178" lon="8.447791"><ele>12.200000000000001</ele><time>2026-04-26T11:05:38.477Z</time></trkpt><trkpt lat="44.2511023" lon="8.4477282"><ele>13.4</ele><time>2026-04-26T11:05:39.48Z</time></trkpt><trkpt lat="44.2510223" lon="8.4476648"><ele>14.6</ele><time>2026-04-26T11:05:40.48Z</time></trkpt><trkpt lat="44.250937" lon="8.4476052"><ele>15.8</ele><time>2026-04-26T11:05:41.476Z</time></trkpt><trkpt lat="44.2508453" lon="8.4475552"><ele>17.0</ele><time>2026-04-26T11:05:42.477Z</time></trkpt><trkpt lat="44.2507488" lon="8.4475085"><ele>17.0</ele><time>2026-04-26T11:05:43.478Z</time></trkpt><trkpt lat="44.2506475" lon="8.447463"><ele>17.0</ele><time>2026-04-26T11:05:44.479Z</time></trkpt><trkpt lat="44.2505453" lon="8.4474118"><ele>17.0</ele><time>2026-04-26T11:05:45.477Z</time></trkpt><trkpt lat="44.2504438" lon="8.4473553"><ele>17.0</ele><time>2026-04-26T11:05:46.479Z</time></trkpt><trkpt lat="44.2503425" lon="8.4472955"><ele>17.0</ele><time>2026-04-26T11:05:47.481Z</time></trkpt><trkpt lat="44.2502407" lon="8.4472322"><ele>19.25</ele><time>2026-04-26T11:05:48.483Z</time></trkpt><trkpt lat="44.2501388" lon="8.4471628"><ele>21.5</ele><time>2026-04-26T11:05:49.482Z</time></trkpt><trkpt lat="44.2500363" lon="8.4470867"><ele>23.75</ele><time>2026-04-26T11:05:50.481Z</time></trkpt><trkpt lat="44.2499347" lon="8.4470087"><ele>26.0</ele><time>2026-04-26T11:05:51.479Z</time></trkpt><trkpt lat="44.2498383" lon="8.4469315"><ele>21.5</ele><time>2026-04-26T11:05:52.479Z</time></trkpt><trkpt lat="44.2497405" lon="8.446854"><ele>17.0</ele><time>2026-04-26T11:05:53.479Z</time></trkpt><trkpt lat="44.2496405" lon="8.446775"><ele>12.5</ele><time>2026-04-26T11:05:54.478Z</time></trkpt><trkpt lat="44.2495393" lon="8.4466962"><ele>8.0</ele><time>2026-04-26T11:05:55.481Z</time></trkpt><trkpt lat="44.2494378" lon="8.4466165"><ele>8.0</ele><time>2026-04-26T11:05:56.48Z</time></trkpt><trkpt lat="44.2493367" lon="8.4465365"><ele>8.0</ele><time>2026-04-26T11:05:57.477Z</time></trkpt><trkpt lat="44.249236" lon="8.4464562"><ele>8.0</ele><time>2026-04-26T11:05:58.477Z</time></trkpt><trkpt lat="44.2491385" lon="8.4463792"><ele>8.0</ele><time>2026-04-26T11:05:59.476Z</time></trkpt><trkpt lat="44.2490438" lon="8.4463063"><ele>9.0</ele><time>2026-04-26T11:06:00.476Z</time></trkpt><trkpt lat="44.2489473" lon="8.4462315"><ele>10.0</ele><time>2026-04-26T11:06:01.479Z</time></trkpt><trkpt lat="44.2488512" lon="8.4461538"><ele>11.0</ele><time>2026-04-26T11:06:02.479Z</time></trkpt><trkpt lat="44.2487627" lon="8.4460768"><ele>12.0</ele><time>2026-04-26T11:06:03.477Z</time></trkpt><trkpt lat="44.2486865" lon="8.4460048"><ele>13.0</ele><time>2026-04-26T11:06:04.477Z</time></trkpt><trkpt lat="44.2486207" lon="8.4459348"><ele>13.0</ele><time>2026-04-26T11:06:05.478Z</time></trkpt><trkpt lat="44.248564" lon="8.4458772"><ele>13.0</ele><time>2026-04-26T11:06:06.478Z</time></trkpt><trkpt lat="44.2484847" lon="8.445808"><ele>13.0</ele><time>2026-04-26T11:06:08.479Z</time></trkpt><trkpt lat="44.2484207" lon="8.4457725"><ele>13.0</ele><time>2026-04-26T11:07:01.478Z</time></trkpt><trkpt lat="44.2482952" lon="8.445694"><ele>13.0</ele><time>2026-04-26T11:07:03.477Z</time></trkpt><trkpt lat="44.248219" lon="8.4456462"><ele>13.0</ele><time>2026-04-26T11:07:04.477Z</time></trkpt><trkpt lat="44.2481285" lon="8.4456"><ele>13.0</ele><time>2026-04-26T11:07:05.477Z</time></trkpt><trkpt lat="44.248031" lon="8.4455577"><ele>13.0</ele><time>2026-04-26T11:07:06.479Z</time></trkpt><trkpt lat="44.2479248" lon="8.4455187"><ele>13.0</ele><time>2026-04-26T11:07:07.48Z</time></trkpt><trkpt lat="44.2478178" lon="8.4454795"><ele>13.0</ele><time>2026-04-26T11:07:08.478Z</time></trkpt><trkpt lat="44.2477088" lon="8.4454372"><ele>13.0</ele><time>2026-04-26T11:07:09.476Z</time></trkpt><trkpt lat="44.2475927" lon="8.4453922"><ele>13.0</ele><time>2026-04-26T11:07:10.475Z</time></trkpt><trkpt lat="44.2474773" lon="8.4453488"><ele>13.0</ele><time>2026-04-26T11:07:11.479Z</time></trkpt><trkpt lat="44.2473638" lon="8.4453073"><ele>13.0</ele><time>2026-04-26T11:07:12.478Z</time></trkpt><trkpt lat="44.2472487" lon="8.445264"><ele>13.0</ele><time>2026-04-26T11:07:13.48Z</time></trkpt><trkpt lat="44.2471328" lon="8.4452215"><ele>13.0</ele><time>2026-04-26T11:07:14.477Z</time></trkpt><trkpt lat="44.2470088" lon="8.4451765"><ele>13.0</ele><time>2026-04-26T11:07:15.478Z</time></trkpt><trkpt lat="44.2468872" lon="8.4451268"><ele>13.0</ele><time>2026-04-26T11:07:16.478Z</time></trkpt><trkpt lat="44.2467748" lon="8.445071"><ele>13.0</ele><time>2026-04-26T11:07:17.477Z</time></trkpt><trkpt lat="44.2466632" lon="8.444997"><ele>13.0</ele><time>2026-04-26T11:07:18.476Z</time></trkpt><trkpt lat="44.2465487" lon="8.4448988"><ele>13.0</ele><time>2026-04-26T11:07:19.48Z</time></trkpt><trkpt lat="44.246435" lon="8.4447835"><ele>13.0</ele><time>2026-04-26T11:07:20.479Z</time></trkpt><trkpt lat="44.2463247" lon="8.44466"><ele>13.75</ele><time>2026-04-26T11:07:21.478Z</time></trkpt><trkpt lat="44.2462177" lon="8.4445398"><ele>14.5</ele><time>2026-04-26T11:07:22.478Z</time></trkpt><trkpt lat="44.2461072" lon="8.444431"><ele>15.25</ele><time>2026-04-26T11:07:23.478Z</time></trkpt><trkpt lat="44.245988" lon="8.4443407"><ele>16.0</ele><time>2026-04-26T11:07:24.48Z</time></trkpt><trkpt lat="44.2458612" lon="8.444271"><ele>16.0</ele><time>2026-04-26T11:07:25.479Z</time></trkpt><trkpt lat="44.2457328" lon="8.444213"><ele>16.0</ele><time>2026-04-26T11:07:26.478Z</time></trkpt><trkpt lat="44.2456142" lon="8.4441623"><ele>16.0</ele><time>2026-04-26T11:07:27.483Z</time></trkpt><trkpt lat="44.2455073" lon="8.4441145"><ele>16.0</ele><time>2026-04-26T11:07:28.484Z</time></trkpt><trkpt lat="44.2454072" lon="8.4440678"><ele>13.75</ele><time>2026-04-26T11:07:29.481Z</time></trkpt><trkpt lat="44.2453082" lon="8.4440172"><ele>11.5</ele><time>2026-04-26T11:07:30.479Z</time></trkpt><trkpt lat="44.2452107" lon="8.4439498"><ele>9.25</ele><time>2026-04-26T11:07:31.481Z</time></trkpt><trkpt lat="44.2451063" lon="8.4438742"><ele>7.0</ele><time>2026-04-26T11:07:32.479Z</time></trkpt><trkpt lat="44.2449932" lon="8.4438002"><ele>12.75</ele><time>2026-04-26T11:07:33.479Z</time></trkpt><trkpt lat="44.2448742" lon="8.4437243"><ele>18.5</ele><time>2026-04-26T11:07:34.478Z</time></trkpt><trkpt lat="44.2447505" lon="8.4436503"><ele>24.25</ele><time>2026-04-26T11:07:35.479Z</time></trkpt><trkpt lat="44.2446205" lon="8.4435898"><ele>30.0</ele><time>2026-04-26T11:07:36.48Z</time></trkpt><trkpt lat="44.2444843" lon="8.4435515"><ele>30.0</ele><time>2026-04-26T11:07:37.48Z</time></trkpt><trkpt lat="44.2443482" lon="8.4435425"><ele>30.0</ele><time>2026-04-26T11:07:38.479Z</time></trkpt><trkpt lat="44.2442123" lon="8.4435662"><ele>30.0</ele><time>2026-04-26T11:07:39.479Z</time></trkpt><trkpt lat="44.2440773" lon="8.4436295"><ele>30.0</ele><time>2026-04-26T11:07:40.476Z</time></trkpt><trkpt lat="44.243946" lon="8.4437245"><ele>27.25</ele><time>2026-04-26T11:07:41.478Z</time></trkpt><trkpt lat="44.2438223" lon="8.4438453"><ele>24.5</ele><time>2026-04-26T11:07:42.476Z</time></trkpt><trkpt lat="44.2437102" lon="8.4439802"><ele>21.75</ele><time>2026-04-26T11:07:43.474Z</time></trkpt><trkpt lat="44.2436048" lon="8.4441175"><ele>19.0</ele><time>2026-04-26T11:07:44.473Z</time></trkpt><trkpt lat="44.243501" lon="8.4442475"><ele>19.0</ele><time>2026-04-26T11:07:45.473Z</time></trkpt><trkpt lat="44.2433935" lon="8.4443618"><ele>19.0</ele><time>2026-04-26T11:07:46.477Z</time></trkpt><trkpt lat="44.2432758" lon="8.444453"><ele>19.0</ele><time>2026-04-26T11:07:47.48Z</time></trkpt><trkpt lat="44.2431472" lon="8.4445252"><ele>19.0</ele><time>2026-04-26T11:07:48.48Z</time></trkpt><trkpt lat="44.2430145" lon="8.444592"><ele>18.5</ele><time>2026-04-26T11:07:49.479Z</time></trkpt><trkpt lat="44.24288" lon="8.4446607"><ele>18.0</ele><time>2026-04-26T11:07:50.479Z</time></trkpt><trkpt lat="44.2427452" lon="8.4447275"><ele>17.5</ele><time>2026-04-26T11:07:51.479Z</time></trkpt><trkpt lat="44.24261" lon="8.4447895"><ele>17.0</ele><time>2026-04-26T11:07:52.479Z</time></trkpt><trkpt lat="44.2424753" lon="8.4448498"><ele>17.0</ele><time>2026-04-26T11:07:53.478Z</time></trkpt><trkpt lat="44.2423385" lon="8.4449032"><ele>17.0</ele><time>2026-04-26T11:07:54.476Z</time></trkpt><trkpt lat="44.2421997" lon="8.4449317"><ele>17.0</ele><time>2026-04-26T11:07:55.476Z</time></trkpt><trkpt lat="44.2420605" lon="8.4449227"><ele>17.0</ele><time>2026-04-26T11:07:56.476Z</time></trkpt><trkpt lat="44.2419252" lon="8.4448737"><ele>17.75</ele><time>2026-04-26T11:07:57.475Z</time></trkpt><trkpt lat="44.2417963" lon="8.4447892"><ele>18.5</ele><time>2026-04-26T11:07:58.478Z</time></trkpt><trkpt lat="44.2416762" lon="8.4446853"><ele>19.25</ele><time>2026-04-26T11:07:59.479Z</time></trkpt><trkpt lat="44.241559" lon="8.4445825"><ele>20.0</ele><time>2026-04-26T11:08:00.477Z</time></trkpt><trkpt lat="44.2414337" lon="8.4444977"><ele>23.5</ele><time>2026-04-26T11:08:01.477Z</time></trkpt><trkpt lat="44.2412985" lon="8.4444365"><ele>27.0</ele><time>2026-04-26T11:08:02.48Z</time></trkpt><trkpt lat="44.2411607" lon="8.44439"><ele>30.5</ele><time>2026-04-26T11:08:03.481Z</time></trkpt><trkpt lat="44.2410353" lon="8.4443493"><ele>34.0</ele><time>2026-04-26T11:08:04.48Z</time></trkpt><trkpt lat="44.2409165" lon="8.4443095"><ele>34.0</ele><time>2026-04-26T11:08:05.477Z</time></trkpt><trkpt lat="44.2407948" lon="8.4442617"><ele>34.0</ele><time>2026-04-26T11:08:06.478Z</time></trkpt><trkpt lat="44.240671" lon="8.4441967"><ele>34.0</ele><time>2026-04-26T11:08:07.476Z</time></trkpt><trkpt lat="44.2405528" lon="8.4441008"><ele>34.0</ele><time>2026-04-26T11:08:08.477Z</time></trkpt><trkpt lat="44.2404452" lon="8.4439742"><ele>37.5</ele><time>2026-04-26T11:08:09.476Z</time></trkpt><trkpt lat="44.2403467" lon="8.4438327"><ele>41.0</ele><time>2026-04-26T11:08:10.474Z</time></trkpt><trkpt lat="44.2402533" lon="8.4436912"><ele>44.5</ele><time>2026-04-26T11:08:11.474Z</time></trkpt><trkpt lat="44.240164" lon="8.4435483"><ele>48.0</ele><time>2026-04-26T11:08:12.479Z</time></trkpt><trkpt lat="44.2400775" lon="8.443401"><ele>48.0</ele><time>2026-04-26T11:08:13.481Z</time></trkpt><trkpt lat="44.2399867" lon="8.4432548"><ele>48.0</ele><time>2026-04-26T11:08:14.477Z</time></trkpt><trkpt lat="44.2398857" lon="8.4431153"><ele>48.0</ele><time>2026-04-26T11:08:15.476Z</time></trkpt><trkpt lat="44.2397707" lon="8.44299"><ele>48.0</ele><time>2026-04-26T11:08:16.475Z</time></trkpt><trkpt lat="44.2396483" lon="8.4428718"><ele>50.5</ele><time>2026-04-26T11:08:17.478Z</time></trkpt><trkpt lat="44.2395248" lon="8.4427593"><ele>53.0</ele><time>2026-04-26T11:08:18.476Z</time></trkpt><trkpt lat="44.239401" lon="8.4426525"><ele>55.5</ele><time>2026-04-26T11:08:19.476Z</time></trkpt><trkpt lat="44.2392717" lon="8.4425475"><ele>58.0</ele><time>2026-04-26T11:08:20.478Z</time></trkpt><trkpt lat="44.2391363" lon="8.4424592"><ele>58.0</ele><time>2026-04-26T11:08:21.478Z</time></trkpt><trkpt lat="44.2389992" lon="8.4424078"><ele>58.0</ele><time>2026-04-26T11:08:22.478Z</time></trkpt><trkpt lat="44.2388598" lon="8.4423998"><ele>58.0</ele><time>2026-04-26T11:08:23.474Z</time></trkpt><trkpt lat="44.2387213" lon="8.4424347"><ele>58.0</ele><time>2026-04-26T11:08:24.474Z</time></trkpt><trkpt lat="44.2385918" lon="8.4425002"><ele>55.0</ele><time>2026-04-26T11:08:25.476Z</time></trkpt><trkpt lat="44.2384728" lon="8.4425752"><ele>52.0</ele><time>2026-04-26T11:08:26.474Z</time></trkpt><trkpt lat="44.2383573" lon="8.442637"><ele>49.0</ele><time>2026-04-26T11:08:27.48Z</time></trkpt><trkpt lat="44.2382418" lon="8.4426698"><ele>46.0</ele><time>2026-04-26T11:08:28.478Z</time></trkpt><trkpt lat="44.2381235" lon="8.4426763"><ele>37.75</ele><time>2026-04-26T11:08:29.479Z</time></trkpt><trkpt lat="44.2380008" lon="8.4426522"><ele>29.5</ele><time>2026-04-26T11:08:30.475Z</time></trkpt><trkpt lat="44.2378828" lon="8.442605"><ele>21.25</ele><time>2026-04-26T11:08:31.479Z</time></trkpt><trkpt lat="44.2377717" lon="8.4425547"><ele>13.0</ele><time>2026-04-26T11:08:32.475Z</time></trkpt><trkpt lat="44.23767" lon="8.442491"><ele>13.0</ele><time>2026-04-26T11:08:33.474Z</time></trkpt><trkpt lat="44.2375788" lon="8.4424093"><ele>13.0</ele><time>2026-04-26T11:08:34.474Z</time></trkpt><trkpt lat="44.2375007" lon="8.4423032"><ele>13.0</ele><time>2026-04-26T11:08:35.474Z</time></trkpt><trkpt lat="44.2374358" lon="8.4421682"><ele>13.0</ele><time>2026-04-26T11:08:36.475Z</time></trkpt><trkpt lat="44.2373853" lon="8.4420163"><ele>19.0</ele><time>2026-04-26T11:08:37.475Z</time></trkpt><trkpt lat="44.2373477" lon="8.4418537"><ele>25.0</ele><time>2026-04-26T11:08:38.473Z</time></trkpt><trkpt lat="44.2373225" lon="8.4416935"><ele>31.0</ele><time>2026-04-26T11:08:39.473Z</time></trkpt><trkpt lat="44.2373092" lon="8.4415372"><ele>37.0</ele><time>2026-04-26T11:08:40.472Z</time></trkpt><trkpt lat="44.2373067" lon="8.4413783"><ele>37.0</ele><time>2026-04-26T11:08:41.474Z</time></trkpt><trkpt lat="44.2373127" lon="8.4412123"><ele>37.0</ele><time>2026-04-26T11:08:42.474Z</time></trkpt><trkpt lat="44.2373242" lon="8.4410412"><ele>37.0</ele><time>2026-04-26T11:08:43.478Z</time></trkpt><trkpt lat="44.2373368" lon="8.4408658"><ele>37.0</ele><time>2026-04-26T11:08:44.48Z</time></trkpt><trkpt lat="44.2373495" lon="8.4406857"><ele>37.0</ele><time>2026-04-26T11:08:45.477Z</time></trkpt><trkpt lat="44.2373627" lon="8.4405"><ele>37.0</ele><time>2026-04-26T11:08:46.475Z</time></trkpt><trkpt lat="44.2373793" lon="8.4403117"><ele>37.0</ele><time>2026-04-26T11:08:47.475Z</time></trkpt><trkpt lat="44.2374055" lon="8.4401347"><ele>37.0</ele><time>2026-04-26T11:08:48.475Z</time></trkpt><trkpt lat="44.2374457" lon="8.4399707"><ele>34.0</ele><time>2026-04-26T11:08:49.476Z</time></trkpt><trkpt lat="44.2375028" lon="8.4398093"><ele>31.0</ele><time>2026-04-26T11:08:50.477Z</time></trkpt><trkpt lat="44.2375705" lon="8.4396568"><ele>28.0</ele><time>2026-04-26T11:08:51.476Z</time></trkpt><trkpt lat="44.2376467" lon="8.4395232"><ele>25.0</ele><time>2026-04-26T11:08:52.476Z</time></trkpt><trkpt lat="44.2377287" lon="8.4394068"><ele>22.2</ele><time>2026-04-26T11:08:53.477Z</time></trkpt><trkpt lat="44.2378095" lon="8.4393018"><ele>19.4</ele><time>2026-04-26T11:08:54.478Z</time></trkpt><trkpt lat="44.2378862" lon="8.439201"><ele>16.6</ele><time>2026-04-26T11:08:55.476Z</time></trkpt><trkpt lat="44.2379567" lon="8.4391028"><ele>13.8</ele><time>2026-04-26T11:08:56.475Z</time></trkpt><trkpt lat="44.238019" lon="8.4390027"><ele>11.0</ele><time>2026-04-26T11:08:57.475Z</time></trkpt><trkpt lat="44.2380687" lon="8.4388933"><ele>11.0</ele><time>2026-04-26T11:08:58.476Z</time></trkpt><trkpt lat="44.2381102" lon="8.4387888"><ele>4.0</ele><time>2026-04-26T11:08:59.476Z</time></trkpt><trkpt lat="44.238138" lon="8.4386935"><ele>20.0</ele><time>2026-04-26T11:09:00.477Z</time></trkpt><trkpt lat="44.2381582" lon="8.4386063"><ele>20.0</ele><time>2026-04-26T11:09:01.48Z</time></trkpt><trkpt lat="44.2381788" lon="8.4384582"><ele>20.0</ele><time>2026-04-26T11:09:03.478Z</time></trkpt><trkpt lat="44.2381823" lon="8.43836"><ele>20.0</ele><time>2026-04-26T11:09:06.477Z</time></trkpt></trkseg></trk></gpx>